<?xml version="1.0" encoding="UTF-8" standalone="no" ?>
<gpx xmlns="http://www.topografix.com/GPX/1/1" xmlns:xsi="http://www.w3.org/2001/XMLSchema-instance" xsi:schemaLocation="http://www.topografix.com/GPX/1/1 http://www.topografix.com/GPX/1/1/gpx.xsd" version="1.1" creator="VisuGPX - https://www.visugpx.com">
  <metadata>
    <name>2022_#6_Mozas -&gt; Arol</name>
  </metadata>
  <trk>
    <name><![CDATA[2022_#6_Mozas -> Arol_1]]></name>
    <trkseg>
      <trkpt lat="45.61482" lon="5.27471">
        <ele>236</ele>
        <time>2022-05-17T05:03:48.573Z</time>
      </trkpt>
      <trkpt lat="45.61482" lon="5.27471">
        <ele>236</ele>
        <time>2022-05-17T05:03:49.575Z</time>
      </trkpt>
      <trkpt lat="45.61482" lon="5.27471">
        <ele>235</ele>
        <time>2022-05-17T05:03:50.575Z</time>
      </trkpt>
      <trkpt lat="45.61482" lon="5.27471">
        <ele>235</ele>
        <time>2022-05-17T05:03:51.575Z</time>
      </trkpt>
      <trkpt lat="45.61482" lon="5.27471">
        <ele>235</ele>
        <time>2022-05-17T05:03:52.575Z</time>
      </trkpt>
      <trkpt lat="45.61482" lon="5.2747">
        <ele>235</ele>
        <time>2022-05-17T05:03:53.575Z</time>
      </trkpt>
      <trkpt lat="45.61483" lon="5.2747">
        <ele>235</ele>
        <time>2022-05-17T05:03:54.575Z</time>
      </trkpt>
      <trkpt lat="45.61484" lon="5.27469">
        <ele>235</ele>
        <time>2022-05-17T05:03:55.575Z</time>
      </trkpt>
      <trkpt lat="45.61486" lon="5.27465">
        <ele>235</ele>
        <time>2022-05-17T05:03:56.574Z</time>
      </trkpt>
      <trkpt lat="45.61488" lon="5.27461">
        <ele>235</ele>
        <time>2022-05-17T05:03:57.575Z</time>
      </trkpt>
      <trkpt lat="45.6149" lon="5.27457">
        <ele>234</ele>
        <time>2022-05-17T05:03:58.574Z</time>
      </trkpt>
      <trkpt lat="45.6149" lon="5.27456">
        <ele>234</ele>
        <time>2022-05-17T05:03:59.574Z</time>
      </trkpt>
      <trkpt lat="45.61491" lon="5.27454">
        <ele>233</ele>
        <time>2022-05-17T05:04:00.574Z</time>
      </trkpt>
      <trkpt lat="45.61492" lon="5.27451">
        <ele>232</ele>
        <time>2022-05-17T05:04:01.575Z</time>
      </trkpt>
      <trkpt lat="45.61493" lon="5.2745">
        <ele>232</ele>
        <time>2022-05-17T05:04:02.574Z</time>
      </trkpt>
      <trkpt lat="45.61494" lon="5.27449">
        <ele>231</ele>
        <time>2022-05-17T05:04:03.575Z</time>
      </trkpt>
      <trkpt lat="45.61495" lon="5.27449">
        <ele>230</ele>
        <time>2022-05-17T05:04:04.574Z</time>
      </trkpt>
      <trkpt lat="45.61497" lon="5.27451">
        <ele>230</ele>
        <time>2022-05-17T05:04:05.575Z</time>
      </trkpt>
      <trkpt lat="45.61498" lon="5.27452">
        <ele>229</ele>
        <time>2022-05-17T05:04:06.575Z</time>
      </trkpt>
      <trkpt lat="45.615" lon="5.27454">
        <ele>229</ele>
        <time>2022-05-17T05:04:07.575Z</time>
      </trkpt>
      <trkpt lat="45.61502" lon="5.27455">
        <ele>228</ele>
        <time>2022-05-17T05:04:08.575Z</time>
      </trkpt>
      <trkpt lat="45.61505" lon="5.27456">
        <ele>228</ele>
        <time>2022-05-17T05:04:09.575Z</time>
      </trkpt>
      <trkpt lat="45.61509" lon="5.27457">
        <ele>228</ele>
        <time>2022-05-17T05:04:10.575Z</time>
      </trkpt>
      <trkpt lat="45.61511" lon="5.27457">
        <ele>227</ele>
        <time>2022-05-17T05:04:11.575Z</time>
      </trkpt>
      <trkpt lat="45.61514" lon="5.27457">
        <ele>227</ele>
        <time>2022-05-17T05:04:12.575Z</time>
      </trkpt>
      <trkpt lat="45.61517" lon="5.2746">
        <ele>227</ele>
        <time>2022-05-17T05:04:13.575Z</time>
      </trkpt>
      <trkpt lat="45.61522" lon="5.27464">
        <ele>227</ele>
        <time>2022-05-17T05:04:14.575Z</time>
      </trkpt>
      <trkpt lat="45.61523" lon="5.2747">
        <ele>227</ele>
        <time>2022-05-17T05:04:15.575Z</time>
      </trkpt>
      <trkpt lat="45.61522" lon="5.27477">
        <ele>227</ele>
        <time>2022-05-17T05:04:16.575Z</time>
      </trkpt>
      <trkpt lat="45.61523" lon="5.27483">
        <ele>226</ele>
        <time>2022-05-17T05:04:17.575Z</time>
      </trkpt>
      <trkpt lat="45.61523" lon="5.27491">
        <ele>225</ele>
        <time>2022-05-17T05:04:18.575Z</time>
      </trkpt>
      <trkpt lat="45.61522" lon="5.27497">
        <ele>224</ele>
        <time>2022-05-17T05:04:19.575Z</time>
      </trkpt>
      <trkpt lat="45.61522" lon="5.27504">
        <ele>224</ele>
        <time>2022-05-17T05:04:20.574Z</time>
      </trkpt>
      <trkpt lat="45.61522" lon="5.27514">
        <ele>223</ele>
        <time>2022-05-17T05:04:21.575Z</time>
      </trkpt>
      <trkpt lat="45.61522" lon="5.27523">
        <ele>223</ele>
        <time>2022-05-17T05:04:22.574Z</time>
      </trkpt>
      <trkpt lat="45.61522" lon="5.2753">
        <ele>223</ele>
        <time>2022-05-17T05:04:23.575Z</time>
      </trkpt>
      <trkpt lat="45.6152" lon="5.27537">
        <ele>223</ele>
        <time>2022-05-17T05:04:24.575Z</time>
      </trkpt>
      <trkpt lat="45.61519" lon="5.27544">
        <ele>223</ele>
        <time>2022-05-17T05:04:25.575Z</time>
      </trkpt>
      <trkpt lat="45.61518" lon="5.27551">
        <ele>224</ele>
        <time>2022-05-17T05:04:26.574Z</time>
      </trkpt>
      <trkpt lat="45.61517" lon="5.27557">
        <ele>224</ele>
        <time>2022-05-17T05:04:27.574Z</time>
      </trkpt>
      <trkpt lat="45.61516" lon="5.27563">
        <ele>225</ele>
        <time>2022-05-17T05:04:28.575Z</time>
      </trkpt>
      <trkpt lat="45.61514" lon="5.27568">
        <ele>225</ele>
        <time>2022-05-17T05:04:29.575Z</time>
      </trkpt>
      <trkpt lat="45.61514" lon="5.27572">
        <ele>226</ele>
        <time>2022-05-17T05:04:30.575Z</time>
      </trkpt>
      <trkpt lat="45.61514" lon="5.27577">
        <ele>226</ele>
        <time>2022-05-17T05:04:31.575Z</time>
      </trkpt>
      <trkpt lat="45.61516" lon="5.27579">
        <ele>226</ele>
        <time>2022-05-17T05:04:32.575Z</time>
      </trkpt>
      <trkpt lat="45.6152" lon="5.27581">
        <ele>227</ele>
        <time>2022-05-17T05:04:33.575Z</time>
      </trkpt>
      <trkpt lat="45.61524" lon="5.27583">
        <ele>228</ele>
        <time>2022-05-17T05:04:34.575Z</time>
      </trkpt>
      <trkpt lat="45.61528" lon="5.27585">
        <ele>228</ele>
        <time>2022-05-17T05:04:35.575Z</time>
      </trkpt>
      <trkpt lat="45.61534" lon="5.27587">
        <ele>228</ele>
        <time>2022-05-17T05:04:36.575Z</time>
      </trkpt>
      <trkpt lat="45.61539" lon="5.27589">
        <ele>229</ele>
        <time>2022-05-17T05:04:37.575Z</time>
      </trkpt>
      <trkpt lat="45.61545" lon="5.27591">
        <ele>229</ele>
        <time>2022-05-17T05:04:38.575Z</time>
      </trkpt>
      <trkpt lat="45.61551" lon="5.27594">
        <ele>229</ele>
        <time>2022-05-17T05:04:39.575Z</time>
      </trkpt>
      <trkpt lat="45.61557" lon="5.27597">
        <ele>229</ele>
        <time>2022-05-17T05:04:40.575Z</time>
      </trkpt>
      <trkpt lat="45.61563" lon="5.276">
        <ele>229</ele>
        <time>2022-05-17T05:04:41.575Z</time>
      </trkpt>
      <trkpt lat="45.6157" lon="5.27603">
        <ele>229</ele>
        <time>2022-05-17T05:04:42.575Z</time>
      </trkpt>
      <trkpt lat="45.61576" lon="5.27606">
        <ele>229</ele>
        <time>2022-05-17T05:04:43.574Z</time>
      </trkpt>
      <trkpt lat="45.61582" lon="5.27608">
        <ele>229</ele>
        <time>2022-05-17T05:04:44.575Z</time>
      </trkpt>
      <trkpt lat="45.61588" lon="5.27611">
        <ele>230</ele>
        <time>2022-05-17T05:04:45.575Z</time>
      </trkpt>
      <trkpt lat="45.61595" lon="5.27613">
        <ele>230</ele>
        <time>2022-05-17T05:04:46.574Z</time>
      </trkpt>
      <trkpt lat="45.61601" lon="5.27615">
        <ele>230</ele>
        <time>2022-05-17T05:04:47.575Z</time>
      </trkpt>
      <trkpt lat="45.61607" lon="5.27617">
        <ele>230</ele>
        <time>2022-05-17T05:04:48.574Z</time>
      </trkpt>
      <trkpt lat="45.61614" lon="5.27619">
        <ele>231</ele>
        <time>2022-05-17T05:04:49.575Z</time>
      </trkpt>
      <trkpt lat="45.6162" lon="5.27622">
        <ele>231</ele>
        <time>2022-05-17T05:04:50.575Z</time>
      </trkpt>
      <trkpt lat="45.61627" lon="5.27625">
        <ele>231</ele>
        <time>2022-05-17T05:04:51.575Z</time>
      </trkpt>
      <trkpt lat="45.61633" lon="5.27629">
        <ele>231</ele>
        <time>2022-05-17T05:04:52.575Z</time>
      </trkpt>
      <trkpt lat="45.6164" lon="5.27632">
        <ele>231</ele>
        <time>2022-05-17T05:04:53.574Z</time>
      </trkpt>
      <trkpt lat="45.61647" lon="5.27635">
        <ele>231</ele>
        <time>2022-05-17T05:04:54.575Z</time>
      </trkpt>
      <trkpt lat="45.61653" lon="5.27638">
        <ele>231</ele>
        <time>2022-05-17T05:04:55.575Z</time>
      </trkpt>
      <trkpt lat="45.6166" lon="5.27642">
        <ele>231</ele>
        <time>2022-05-17T05:04:56.575Z</time>
      </trkpt>
      <trkpt lat="45.61667" lon="5.27645">
        <ele>231</ele>
        <time>2022-05-17T05:04:57.575Z</time>
      </trkpt>
      <trkpt lat="45.61672" lon="5.27648">
        <ele>231</ele>
        <time>2022-05-17T05:04:58.575Z</time>
      </trkpt>
      <trkpt lat="45.6168" lon="5.27652">
        <ele>231</ele>
        <time>2022-05-17T05:04:59.575Z</time>
      </trkpt>
      <trkpt lat="45.61687" lon="5.27656">
        <ele>231</ele>
        <time>2022-05-17T05:05:00.575Z</time>
      </trkpt>
      <trkpt lat="45.61694" lon="5.27659">
        <ele>232</ele>
        <time>2022-05-17T05:05:01.575Z</time>
      </trkpt>
      <trkpt lat="45.61701" lon="5.27663">
        <ele>232</ele>
        <time>2022-05-17T05:05:02.574Z</time>
      </trkpt>
      <trkpt lat="45.61708" lon="5.27666">
        <ele>232</ele>
        <time>2022-05-17T05:05:03.575Z</time>
      </trkpt>
      <trkpt lat="45.61715" lon="5.2767">
        <ele>232</ele>
        <time>2022-05-17T05:05:04.574Z</time>
      </trkpt>
      <trkpt lat="45.61722" lon="5.27673">
        <ele>233</ele>
        <time>2022-05-17T05:05:05.574Z</time>
      </trkpt>
      <trkpt lat="45.61729" lon="5.27677">
        <ele>233</ele>
        <time>2022-05-17T05:05:06.575Z</time>
      </trkpt>
      <trkpt lat="45.61736" lon="5.2768">
        <ele>233</ele>
        <time>2022-05-17T05:05:07.574Z</time>
      </trkpt>
      <trkpt lat="45.61742" lon="5.27683">
        <ele>233</ele>
        <time>2022-05-17T05:05:08.575Z</time>
      </trkpt>
      <trkpt lat="45.6175" lon="5.27687">
        <ele>233</ele>
        <time>2022-05-17T05:05:09.574Z</time>
      </trkpt>
      <trkpt lat="45.61756" lon="5.27691">
        <ele>232</ele>
        <time>2022-05-17T05:05:10.575Z</time>
      </trkpt>
      <trkpt lat="45.61763" lon="5.27693">
        <ele>232</ele>
        <time>2022-05-17T05:05:11.575Z</time>
      </trkpt>
      <trkpt lat="45.61769" lon="5.27694">
        <ele>232</ele>
        <time>2022-05-17T05:05:12.575Z</time>
      </trkpt>
      <trkpt lat="45.61775" lon="5.27692">
        <ele>232</ele>
        <time>2022-05-17T05:05:13.575Z</time>
      </trkpt>
      <trkpt lat="45.61779" lon="5.27687">
        <ele>231</ele>
        <time>2022-05-17T05:05:14.575Z</time>
      </trkpt>
      <trkpt lat="45.61783" lon="5.27681">
        <ele>231</ele>
        <time>2022-05-17T05:05:15.575Z</time>
      </trkpt>
      <trkpt lat="45.61786" lon="5.27672">
        <ele>230</ele>
        <time>2022-05-17T05:05:16.575Z</time>
      </trkpt>
      <trkpt lat="45.61789" lon="5.27663">
        <ele>229</ele>
        <time>2022-05-17T05:05:17.575Z</time>
      </trkpt>
      <trkpt lat="45.61792" lon="5.27654">
        <ele>228</ele>
        <time>2022-05-17T05:05:18.575Z</time>
      </trkpt>
      <trkpt lat="45.61795" lon="5.27644">
        <ele>227</ele>
        <time>2022-05-17T05:05:19.575Z</time>
      </trkpt>
      <trkpt lat="45.61798" lon="5.27634">
        <ele>227</ele>
        <time>2022-05-17T05:05:20.574Z</time>
      </trkpt>
      <trkpt lat="45.61801" lon="5.27624">
        <ele>226</ele>
        <time>2022-05-17T05:05:21.575Z</time>
      </trkpt>
      <trkpt lat="45.61804" lon="5.27614">
        <ele>225</ele>
        <time>2022-05-17T05:05:22.575Z</time>
      </trkpt>
      <trkpt lat="45.61806" lon="5.27604">
        <ele>225</ele>
        <time>2022-05-17T05:05:23.575Z</time>
      </trkpt>
      <trkpt lat="45.61809" lon="5.27594">
        <ele>224</ele>
        <time>2022-05-17T05:05:24.575Z</time>
      </trkpt>
      <trkpt lat="45.61812" lon="5.27583">
        <ele>224</ele>
        <time>2022-05-17T05:05:25.575Z</time>
      </trkpt>
      <trkpt lat="45.61814" lon="5.27573">
        <ele>224</ele>
        <time>2022-05-17T05:05:26.575Z</time>
      </trkpt>
      <trkpt lat="45.61817" lon="5.27563">
        <ele>224</ele>
        <time>2022-05-17T05:05:27.574Z</time>
      </trkpt>
      <trkpt lat="45.61819" lon="5.27552">
        <ele>223</ele>
        <time>2022-05-17T05:05:28.575Z</time>
      </trkpt>
      <trkpt lat="45.61822" lon="5.27542">
        <ele>223</ele>
        <time>2022-05-17T05:05:29.575Z</time>
      </trkpt>
      <trkpt lat="45.61824" lon="5.27533">
        <ele>223</ele>
        <time>2022-05-17T05:05:30.575Z</time>
      </trkpt>
      <trkpt lat="45.61827" lon="5.27523">
        <ele>223</ele>
        <time>2022-05-17T05:05:31.574Z</time>
      </trkpt>
      <trkpt lat="45.6183" lon="5.27514">
        <ele>222</ele>
        <time>2022-05-17T05:05:32.575Z</time>
      </trkpt>
      <trkpt lat="45.61833" lon="5.27506">
        <ele>222</ele>
        <time>2022-05-17T05:05:33.574Z</time>
      </trkpt>
      <trkpt lat="45.61837" lon="5.27499">
        <ele>222</ele>
        <time>2022-05-17T05:05:34.575Z</time>
      </trkpt>
      <trkpt lat="45.61843" lon="5.27493">
        <ele>222</ele>
        <time>2022-05-17T05:05:35.575Z</time>
      </trkpt>
      <trkpt lat="45.61849" lon="5.27491">
        <ele>222</ele>
        <time>2022-05-17T05:05:36.575Z</time>
      </trkpt>
      <trkpt lat="45.61855" lon="5.27491">
        <ele>222</ele>
        <time>2022-05-17T05:05:37.574Z</time>
      </trkpt>
      <trkpt lat="45.61861" lon="5.27494">
        <ele>222</ele>
        <time>2022-05-17T05:05:38.575Z</time>
      </trkpt>
      <trkpt lat="45.61866" lon="5.27497">
        <ele>222</ele>
        <time>2022-05-17T05:05:39.575Z</time>
      </trkpt>
      <trkpt lat="45.61871" lon="5.27501">
        <ele>222</ele>
        <time>2022-05-17T05:05:40.575Z</time>
      </trkpt>
      <trkpt lat="45.61878" lon="5.27507">
        <ele>222</ele>
        <time>2022-05-17T05:05:41.575Z</time>
      </trkpt>
      <trkpt lat="45.61883" lon="5.27511">
        <ele>222</ele>
        <time>2022-05-17T05:05:42.575Z</time>
      </trkpt>
      <trkpt lat="45.6189" lon="5.27517">
        <ele>222</ele>
        <time>2022-05-17T05:05:43.574Z</time>
      </trkpt>
      <trkpt lat="45.61895" lon="5.27522">
        <ele>222</ele>
        <time>2022-05-17T05:05:44.575Z</time>
      </trkpt>
      <trkpt lat="45.61901" lon="5.27528">
        <ele>222</ele>
        <time>2022-05-17T05:05:45.574Z</time>
      </trkpt>
      <trkpt lat="45.61907" lon="5.27532">
        <ele>222</ele>
        <time>2022-05-17T05:05:46.575Z</time>
      </trkpt>
      <trkpt lat="45.61912" lon="5.27537">
        <ele>222</ele>
        <time>2022-05-17T05:05:47.575Z</time>
      </trkpt>
      <trkpt lat="45.61918" lon="5.27541">
        <ele>222</ele>
        <time>2022-05-17T05:05:48.574Z</time>
      </trkpt>
      <trkpt lat="45.61924" lon="5.27546">
        <ele>222</ele>
        <time>2022-05-17T05:05:49.575Z</time>
      </trkpt>
      <trkpt lat="45.61929" lon="5.27551">
        <ele>222</ele>
        <time>2022-05-17T05:05:50.575Z</time>
      </trkpt>
      <trkpt lat="45.61934" lon="5.27556">
        <ele>222</ele>
        <time>2022-05-17T05:05:51.574Z</time>
      </trkpt>
      <trkpt lat="45.61939" lon="5.27561">
        <ele>222</ele>
        <time>2022-05-17T05:05:52.575Z</time>
      </trkpt>
      <trkpt lat="45.61944" lon="5.27566">
        <ele>222</ele>
        <time>2022-05-17T05:05:53.575Z</time>
      </trkpt>
      <trkpt lat="45.61949" lon="5.27572">
        <ele>221</ele>
        <time>2022-05-17T05:05:54.575Z</time>
      </trkpt>
      <trkpt lat="45.61953" lon="5.27577">
        <ele>221</ele>
        <time>2022-05-17T05:05:55.575Z</time>
      </trkpt>
      <trkpt lat="45.61958" lon="5.27582">
        <ele>221</ele>
        <time>2022-05-17T05:05:56.575Z</time>
      </trkpt>
      <trkpt lat="45.61963" lon="5.27588">
        <ele>221</ele>
        <time>2022-05-17T05:05:57.575Z</time>
      </trkpt>
      <trkpt lat="45.61967" lon="5.27595">
        <ele>221</ele>
        <time>2022-05-17T05:05:58.575Z</time>
      </trkpt>
      <trkpt lat="45.61971" lon="5.27601">
        <ele>221</ele>
        <time>2022-05-17T05:05:59.575Z</time>
      </trkpt>
      <trkpt lat="45.61975" lon="5.27608">
        <ele>221</ele>
        <time>2022-05-17T05:06:00.575Z</time>
      </trkpt>
      <trkpt lat="45.61979" lon="5.27615">
        <ele>221</ele>
        <time>2022-05-17T05:06:01.575Z</time>
      </trkpt>
      <trkpt lat="45.61983" lon="5.2762">
        <ele>221</ele>
        <time>2022-05-17T05:06:02.575Z</time>
      </trkpt>
      <trkpt lat="45.61986" lon="5.27624">
        <ele>221</ele>
        <time>2022-05-17T05:06:03.575Z</time>
      </trkpt>
      <trkpt lat="45.61991" lon="5.27629">
        <ele>221</ele>
        <time>2022-05-17T05:06:04.575Z</time>
      </trkpt>
      <trkpt lat="45.61995" lon="5.27635">
        <ele>221</ele>
        <time>2022-05-17T05:06:05.575Z</time>
      </trkpt>
      <trkpt lat="45.61999" lon="5.2764">
        <ele>221</ele>
        <time>2022-05-17T05:06:06.575Z</time>
      </trkpt>
      <trkpt lat="45.62002" lon="5.27647">
        <ele>221</ele>
        <time>2022-05-17T05:06:07.574Z</time>
      </trkpt>
      <trkpt lat="45.62004" lon="5.27654">
        <ele>221</ele>
        <time>2022-05-17T05:06:08.575Z</time>
      </trkpt>
      <trkpt lat="45.62007" lon="5.27661">
        <ele>221</ele>
        <time>2022-05-17T05:06:09.575Z</time>
      </trkpt>
      <trkpt lat="45.62009" lon="5.27668">
        <ele>221</ele>
        <time>2022-05-17T05:06:10.575Z</time>
      </trkpt>
      <trkpt lat="45.62012" lon="5.27676">
        <ele>221</ele>
        <time>2022-05-17T05:06:11.575Z</time>
      </trkpt>
      <trkpt lat="45.62014" lon="5.27684">
        <ele>222</ele>
        <time>2022-05-17T05:06:12.574Z</time>
      </trkpt>
      <trkpt lat="45.62016" lon="5.27692">
        <ele>222</ele>
        <time>2022-05-17T05:06:13.575Z</time>
      </trkpt>
      <trkpt lat="45.62019" lon="5.27699">
        <ele>222</ele>
        <time>2022-05-17T05:06:14.575Z</time>
      </trkpt>
      <trkpt lat="45.62021" lon="5.27707">
        <ele>222</ele>
        <time>2022-05-17T05:06:15.575Z</time>
      </trkpt>
      <trkpt lat="45.62023" lon="5.27713">
        <ele>222</ele>
        <time>2022-05-17T05:06:16.575Z</time>
      </trkpt>
      <trkpt lat="45.62025" lon="5.27721">
        <ele>221</ele>
        <time>2022-05-17T05:06:17.574Z</time>
      </trkpt>
      <trkpt lat="45.62027" lon="5.27728">
        <ele>221</ele>
        <time>2022-05-17T05:06:18.575Z</time>
      </trkpt>
      <trkpt lat="45.6203" lon="5.27736">
        <ele>222</ele>
        <time>2022-05-17T05:06:19.575Z</time>
      </trkpt>
      <trkpt lat="45.62032" lon="5.27743">
        <ele>222</ele>
        <time>2022-05-17T05:06:20.575Z</time>
      </trkpt>
      <trkpt lat="45.62035" lon="5.27751">
        <ele>222</ele>
        <time>2022-05-17T05:06:21.574Z</time>
      </trkpt>
      <trkpt lat="45.62036" lon="5.27757">
        <ele>222</ele>
        <time>2022-05-17T05:06:22.575Z</time>
      </trkpt>
      <trkpt lat="45.62039" lon="5.27765">
        <ele>223</ele>
        <time>2022-05-17T05:06:23.574Z</time>
      </trkpt>
      <trkpt lat="45.62041" lon="5.27772">
        <ele>223</ele>
        <time>2022-05-17T05:06:24.575Z</time>
      </trkpt>
      <trkpt lat="45.62043" lon="5.27779">
        <ele>223</ele>
        <time>2022-05-17T05:06:25.574Z</time>
      </trkpt>
      <trkpt lat="45.62045" lon="5.27786">
        <ele>223</ele>
        <time>2022-05-17T05:06:26.575Z</time>
      </trkpt>
      <trkpt lat="45.62048" lon="5.27793">
        <ele>223</ele>
        <time>2022-05-17T05:06:27.575Z</time>
      </trkpt>
      <trkpt lat="45.6205" lon="5.278">
        <ele>223</ele>
        <time>2022-05-17T05:06:28.575Z</time>
      </trkpt>
      <trkpt lat="45.62053" lon="5.27806">
        <ele>224</ele>
        <time>2022-05-17T05:06:29.575Z</time>
      </trkpt>
      <trkpt lat="45.62056" lon="5.27813">
        <ele>224</ele>
        <time>2022-05-17T05:06:30.575Z</time>
      </trkpt>
      <trkpt lat="45.62058" lon="5.27819">
        <ele>224</ele>
        <time>2022-05-17T05:06:31.575Z</time>
      </trkpt>
      <trkpt lat="45.6206" lon="5.27826">
        <ele>225</ele>
        <time>2022-05-17T05:06:32.575Z</time>
      </trkpt>
      <trkpt lat="45.62063" lon="5.27832">
        <ele>225</ele>
        <time>2022-05-17T05:06:33.575Z</time>
      </trkpt>
      <trkpt lat="45.62066" lon="5.27838">
        <ele>225</ele>
        <time>2022-05-17T05:06:34.575Z</time>
      </trkpt>
      <trkpt lat="45.62069" lon="5.27844">
        <ele>226</ele>
        <time>2022-05-17T05:06:35.575Z</time>
      </trkpt>
      <trkpt lat="45.62071" lon="5.2785">
        <ele>226</ele>
        <time>2022-05-17T05:06:36.574Z</time>
      </trkpt>
      <trkpt lat="45.62074" lon="5.27857">
        <ele>226</ele>
        <time>2022-05-17T05:06:37.575Z</time>
      </trkpt>
      <trkpt lat="45.62077" lon="5.27863">
        <ele>226</ele>
        <time>2022-05-17T05:06:38.575Z</time>
      </trkpt>
      <trkpt lat="45.62079" lon="5.27869">
        <ele>226</ele>
        <time>2022-05-17T05:06:39.574Z</time>
      </trkpt>
      <trkpt lat="45.62082" lon="5.27875">
        <ele>226</ele>
        <time>2022-05-17T05:06:40.574Z</time>
      </trkpt>
      <trkpt lat="45.62085" lon="5.27881">
        <ele>226</ele>
        <time>2022-05-17T05:06:41.574Z</time>
      </trkpt>
      <trkpt lat="45.62088" lon="5.27887">
        <ele>227</ele>
        <time>2022-05-17T05:06:42.575Z</time>
      </trkpt>
      <trkpt lat="45.62091" lon="5.27893">
        <ele>227</ele>
        <time>2022-05-17T05:06:43.575Z</time>
      </trkpt>
      <trkpt lat="45.62094" lon="5.27899">
        <ele>228</ele>
        <time>2022-05-17T05:06:44.575Z</time>
      </trkpt>
      <trkpt lat="45.62097" lon="5.27905">
        <ele>228</ele>
        <time>2022-05-17T05:06:45.575Z</time>
      </trkpt>
      <trkpt lat="45.621" lon="5.27911">
        <ele>228</ele>
        <time>2022-05-17T05:06:46.575Z</time>
      </trkpt>
      <trkpt lat="45.62103" lon="5.27916">
        <ele>229</ele>
        <time>2022-05-17T05:06:47.575Z</time>
      </trkpt>
      <trkpt lat="45.62106" lon="5.27922">
        <ele>230</ele>
        <time>2022-05-17T05:06:48.575Z</time>
      </trkpt>
      <trkpt lat="45.62109" lon="5.27929">
        <ele>230</ele>
        <time>2022-05-17T05:06:49.574Z</time>
      </trkpt>
      <trkpt lat="45.62112" lon="5.27935">
        <ele>230</ele>
        <time>2022-05-17T05:06:50.575Z</time>
      </trkpt>
      <trkpt lat="45.62116" lon="5.27941">
        <ele>231</ele>
        <time>2022-05-17T05:06:51.575Z</time>
      </trkpt>
      <trkpt lat="45.62119" lon="5.27947">
        <ele>231</ele>
        <time>2022-05-17T05:06:52.575Z</time>
      </trkpt>
      <trkpt lat="45.62123" lon="5.27953">
        <ele>231</ele>
        <time>2022-05-17T05:06:53.574Z</time>
      </trkpt>
      <trkpt lat="45.62126" lon="5.27959">
        <ele>231</ele>
        <time>2022-05-17T05:06:54.575Z</time>
      </trkpt>
      <trkpt lat="45.6213" lon="5.27965">
        <ele>231</ele>
        <time>2022-05-17T05:06:55.574Z</time>
      </trkpt>
      <trkpt lat="45.62134" lon="5.27971">
        <ele>231</ele>
        <time>2022-05-17T05:06:56.575Z</time>
      </trkpt>
      <trkpt lat="45.62138" lon="5.27977">
        <ele>231</ele>
        <time>2022-05-17T05:06:57.574Z</time>
      </trkpt>
      <trkpt lat="45.62142" lon="5.27983">
        <ele>231</ele>
        <time>2022-05-17T05:06:58.575Z</time>
      </trkpt>
      <trkpt lat="45.62146" lon="5.2799">
        <ele>232</ele>
        <time>2022-05-17T05:06:59.575Z</time>
      </trkpt>
      <trkpt lat="45.6215" lon="5.27996">
        <ele>232</ele>
        <time>2022-05-17T05:07:00.575Z</time>
      </trkpt>
      <trkpt lat="45.62154" lon="5.28002">
        <ele>232</ele>
        <time>2022-05-17T05:07:01.574Z</time>
      </trkpt>
      <trkpt lat="45.62158" lon="5.28009">
        <ele>232</ele>
        <time>2022-05-17T05:07:02.575Z</time>
      </trkpt>
      <trkpt lat="45.62162" lon="5.28015">
        <ele>232</ele>
        <time>2022-05-17T05:07:03.575Z</time>
      </trkpt>
      <trkpt lat="45.62167" lon="5.28021">
        <ele>232</ele>
        <time>2022-05-17T05:07:04.575Z</time>
      </trkpt>
      <trkpt lat="45.62171" lon="5.28027">
        <ele>232</ele>
        <time>2022-05-17T05:07:05.575Z</time>
      </trkpt>
      <trkpt lat="45.62176" lon="5.28034">
        <ele>232</ele>
        <time>2022-05-17T05:07:06.574Z</time>
      </trkpt>
      <trkpt lat="45.6218" lon="5.2804">
        <ele>232</ele>
        <time>2022-05-17T05:07:07.575Z</time>
      </trkpt>
      <trkpt lat="45.62185" lon="5.28047">
        <ele>232</ele>
        <time>2022-05-17T05:07:08.575Z</time>
      </trkpt>
      <trkpt lat="45.6219" lon="5.28053">
        <ele>232</ele>
        <time>2022-05-17T05:07:09.575Z</time>
      </trkpt>
      <trkpt lat="45.62195" lon="5.28058">
        <ele>232</ele>
        <time>2022-05-17T05:07:10.574Z</time>
      </trkpt>
      <trkpt lat="45.622" lon="5.28065">
        <ele>232</ele>
        <time>2022-05-17T05:07:11.575Z</time>
      </trkpt>
      <trkpt lat="45.62207" lon="5.28073">
        <ele>232</ele>
        <time>2022-05-17T05:07:12.575Z</time>
      </trkpt>
      <trkpt lat="45.62211" lon="5.28078">
        <ele>232</ele>
        <time>2022-05-17T05:07:13.575Z</time>
      </trkpt>
      <trkpt lat="45.62217" lon="5.28085">
        <ele>232</ele>
        <time>2022-05-17T05:07:14.575Z</time>
      </trkpt>
      <trkpt lat="45.62223" lon="5.28092">
        <ele>231</ele>
        <time>2022-05-17T05:07:15.574Z</time>
      </trkpt>
      <trkpt lat="45.62229" lon="5.281">
        <ele>231</ele>
        <time>2022-05-17T05:07:16.574Z</time>
      </trkpt>
      <trkpt lat="45.62236" lon="5.28109">
        <ele>231</ele>
        <time>2022-05-17T05:07:17.575Z</time>
      </trkpt>
      <trkpt lat="45.62241" lon="5.28115">
        <ele>231</ele>
        <time>2022-05-17T05:07:18.574Z</time>
      </trkpt>
      <trkpt lat="45.62247" lon="5.28123">
        <ele>231</ele>
        <time>2022-05-17T05:07:19.575Z</time>
      </trkpt>
      <trkpt lat="45.62255" lon="5.28133">
        <ele>230</ele>
        <time>2022-05-17T05:07:20.575Z</time>
      </trkpt>
      <trkpt lat="45.6226" lon="5.28139">
        <ele>230</ele>
        <time>2022-05-17T05:07:21.575Z</time>
      </trkpt>
      <trkpt lat="45.62268" lon="5.28149">
        <ele>230</ele>
        <time>2022-05-17T05:07:22.574Z</time>
      </trkpt>
      <trkpt lat="45.62274" lon="5.28156">
        <ele>230</ele>
        <time>2022-05-17T05:07:23.574Z</time>
      </trkpt>
      <trkpt lat="45.6228" lon="5.28164">
        <ele>230</ele>
        <time>2022-05-17T05:07:24.575Z</time>
      </trkpt>
      <trkpt lat="45.62287" lon="5.28172">
        <ele>230</ele>
        <time>2022-05-17T05:07:25.574Z</time>
      </trkpt>
      <trkpt lat="45.62294" lon="5.28181">
        <ele>229</ele>
        <time>2022-05-17T05:07:26.574Z</time>
      </trkpt>
      <trkpt lat="45.62301" lon="5.28189">
        <ele>229</ele>
        <time>2022-05-17T05:07:27.575Z</time>
      </trkpt>
      <trkpt lat="45.62308" lon="5.28198">
        <ele>229</ele>
        <time>2022-05-17T05:07:28.574Z</time>
      </trkpt>
      <trkpt lat="45.62314" lon="5.28207">
        <ele>229</ele>
        <time>2022-05-17T05:07:29.575Z</time>
      </trkpt>
      <trkpt lat="45.62323" lon="5.28217">
        <ele>228</ele>
        <time>2022-05-17T05:07:30.574Z</time>
      </trkpt>
      <trkpt lat="45.6233" lon="5.28226">
        <ele>228</ele>
        <time>2022-05-17T05:07:31.575Z</time>
      </trkpt>
      <trkpt lat="45.62336" lon="5.28235">
        <ele>228</ele>
        <time>2022-05-17T05:07:32.575Z</time>
      </trkpt>
      <trkpt lat="45.62343" lon="5.28243">
        <ele>228</ele>
        <time>2022-05-17T05:07:33.575Z</time>
      </trkpt>
      <trkpt lat="45.6235" lon="5.28252">
        <ele>228</ele>
        <time>2022-05-17T05:07:34.575Z</time>
      </trkpt>
      <trkpt lat="45.62357" lon="5.28261">
        <ele>227</ele>
        <time>2022-05-17T05:07:35.575Z</time>
      </trkpt>
      <trkpt lat="45.62364" lon="5.2827">
        <ele>227</ele>
        <time>2022-05-17T05:07:36.575Z</time>
      </trkpt>
      <trkpt lat="45.62371" lon="5.28278">
        <ele>227</ele>
        <time>2022-05-17T05:07:37.575Z</time>
      </trkpt>
      <trkpt lat="45.62378" lon="5.28287">
        <ele>227</ele>
        <time>2022-05-17T05:07:38.574Z</time>
      </trkpt>
      <trkpt lat="45.62385" lon="5.28296">
        <ele>226</ele>
        <time>2022-05-17T05:07:39.575Z</time>
      </trkpt>
      <trkpt lat="45.62392" lon="5.28304">
        <ele>226</ele>
        <time>2022-05-17T05:07:40.574Z</time>
      </trkpt>
      <trkpt lat="45.62398" lon="5.28313">
        <ele>225</ele>
        <time>2022-05-17T05:07:41.574Z</time>
      </trkpt>
      <trkpt lat="45.62405" lon="5.28322">
        <ele>225</ele>
        <time>2022-05-17T05:07:42.575Z</time>
      </trkpt>
      <trkpt lat="45.62412" lon="5.2833">
        <ele>225</ele>
        <time>2022-05-17T05:07:43.575Z</time>
      </trkpt>
      <trkpt lat="45.62418" lon="5.28338">
        <ele>224</ele>
        <time>2022-05-17T05:07:44.574Z</time>
      </trkpt>
      <trkpt lat="45.62425" lon="5.28347">
        <ele>224</ele>
        <time>2022-05-17T05:07:45.574Z</time>
      </trkpt>
      <trkpt lat="45.62431" lon="5.28354">
        <ele>224</ele>
        <time>2022-05-17T05:07:46.574Z</time>
      </trkpt>
      <trkpt lat="45.62438" lon="5.28363">
        <ele>224</ele>
        <time>2022-05-17T05:07:47.575Z</time>
      </trkpt>
      <trkpt lat="45.62444" lon="5.28371">
        <ele>224</ele>
        <time>2022-05-17T05:07:48.575Z</time>
      </trkpt>
      <trkpt lat="45.6245" lon="5.28379">
        <ele>224</ele>
        <time>2022-05-17T05:07:49.574Z</time>
      </trkpt>
      <trkpt lat="45.62456" lon="5.28388">
        <ele>223</ele>
        <time>2022-05-17T05:07:50.575Z</time>
      </trkpt>
      <trkpt lat="45.62461" lon="5.28397">
        <ele>223</ele>
        <time>2022-05-17T05:07:51.574Z</time>
      </trkpt>
      <trkpt lat="45.62467" lon="5.28406">
        <ele>223</ele>
        <time>2022-05-17T05:07:52.575Z</time>
      </trkpt>
      <trkpt lat="45.62471" lon="5.28416">
        <ele>223</ele>
        <time>2022-05-17T05:07:53.575Z</time>
      </trkpt>
      <trkpt lat="45.62475" lon="5.28426">
        <ele>222</ele>
        <time>2022-05-17T05:07:54.575Z</time>
      </trkpt>
      <trkpt lat="45.62479" lon="5.28437">
        <ele>222</ele>
        <time>2022-05-17T05:07:55.574Z</time>
      </trkpt>
      <trkpt lat="45.62481" lon="5.28448">
        <ele>222</ele>
        <time>2022-05-17T05:07:56.575Z</time>
      </trkpt>
      <trkpt lat="45.62483" lon="5.28457">
        <ele>222</ele>
        <time>2022-05-17T05:07:57.575Z</time>
      </trkpt>
      <trkpt lat="45.62485" lon="5.2847">
        <ele>222</ele>
        <time>2022-05-17T05:07:58.575Z</time>
      </trkpt>
      <trkpt lat="45.62487" lon="5.28482">
        <ele>221</ele>
        <time>2022-05-17T05:07:59.575Z</time>
      </trkpt>
      <trkpt lat="45.62489" lon="5.28493">
        <ele>221</ele>
        <time>2022-05-17T05:08:00.574Z</time>
      </trkpt>
      <trkpt lat="45.6249" lon="5.28504">
        <ele>221</ele>
        <time>2022-05-17T05:08:01.574Z</time>
      </trkpt>
      <trkpt lat="45.62492" lon="5.28515">
        <ele>221</ele>
        <time>2022-05-17T05:08:02.575Z</time>
      </trkpt>
      <trkpt lat="45.62495" lon="5.28526">
        <ele>221</ele>
        <time>2022-05-17T05:08:03.575Z</time>
      </trkpt>
      <trkpt lat="45.62498" lon="5.28536">
        <ele>221</ele>
        <time>2022-05-17T05:08:04.575Z</time>
      </trkpt>
      <trkpt lat="45.62502" lon="5.28546">
        <ele>222</ele>
        <time>2022-05-17T05:08:05.574Z</time>
      </trkpt>
      <trkpt lat="45.62506" lon="5.28555">
        <ele>222</ele>
        <time>2022-05-17T05:08:06.574Z</time>
      </trkpt>
      <trkpt lat="45.6251" lon="5.28564">
        <ele>222</ele>
        <time>2022-05-17T05:08:07.574Z</time>
      </trkpt>
      <trkpt lat="45.62515" lon="5.28573">
        <ele>222</ele>
        <time>2022-05-17T05:08:08.574Z</time>
      </trkpt>
      <trkpt lat="45.6252" lon="5.28582">
        <ele>222</ele>
        <time>2022-05-17T05:08:09.575Z</time>
      </trkpt>
      <trkpt lat="45.62525" lon="5.28591">
        <ele>222</ele>
        <time>2022-05-17T05:08:10.575Z</time>
      </trkpt>
      <trkpt lat="45.62529" lon="5.286">
        <ele>222</ele>
        <time>2022-05-17T05:08:11.574Z</time>
      </trkpt>
      <trkpt lat="45.62534" lon="5.28608">
        <ele>222</ele>
        <time>2022-05-17T05:08:12.575Z</time>
      </trkpt>
      <trkpt lat="45.62539" lon="5.28617">
        <ele>223</ele>
        <time>2022-05-17T05:08:13.575Z</time>
      </trkpt>
      <trkpt lat="45.62544" lon="5.28626">
        <ele>223</ele>
        <time>2022-05-17T05:08:14.574Z</time>
      </trkpt>
      <trkpt lat="45.62548" lon="5.28635">
        <ele>223</ele>
        <time>2022-05-17T05:08:15.574Z</time>
      </trkpt>
      <trkpt lat="45.62553" lon="5.28644">
        <ele>223</ele>
        <time>2022-05-17T05:08:16.574Z</time>
      </trkpt>
      <trkpt lat="45.62558" lon="5.28653">
        <ele>223</ele>
        <time>2022-05-17T05:08:17.575Z</time>
      </trkpt>
      <trkpt lat="45.62562" lon="5.28662">
        <ele>223</ele>
        <time>2022-05-17T05:08:18.575Z</time>
      </trkpt>
      <trkpt lat="45.62565" lon="5.2867">
        <ele>223</ele>
        <time>2022-05-17T05:08:19.574Z</time>
      </trkpt>
      <trkpt lat="45.62569" lon="5.28679">
        <ele>222</ele>
        <time>2022-05-17T05:08:20.574Z</time>
      </trkpt>
      <trkpt lat="45.62571" lon="5.2869">
        <ele>222</ele>
        <time>2022-05-17T05:08:21.575Z</time>
      </trkpt>
      <trkpt lat="45.62572" lon="5.287">
        <ele>222</ele>
        <time>2022-05-17T05:08:22.574Z</time>
      </trkpt>
      <trkpt lat="45.62572" lon="5.28713">
        <ele>222</ele>
        <time>2022-05-17T05:08:23.574Z</time>
      </trkpt>
      <trkpt lat="45.62571" lon="5.28724">
        <ele>221</ele>
        <time>2022-05-17T05:08:24.574Z</time>
      </trkpt>
      <trkpt lat="45.6257" lon="5.28735">
        <ele>221</ele>
        <time>2022-05-17T05:08:25.574Z</time>
      </trkpt>
      <trkpt lat="45.62567" lon="5.28743">
        <ele>221</ele>
        <time>2022-05-17T05:08:26.574Z</time>
      </trkpt>
      <trkpt lat="45.62564" lon="5.28754">
        <ele>222</ele>
        <time>2022-05-17T05:08:27.574Z</time>
      </trkpt>
      <trkpt lat="45.6256" lon="5.28766">
        <ele>221</ele>
        <time>2022-05-17T05:08:28.574Z</time>
      </trkpt>
      <trkpt lat="45.62556" lon="5.28776">
        <ele>221</ele>
        <time>2022-05-17T05:08:29.574Z</time>
      </trkpt>
      <trkpt lat="45.62553" lon="5.28786">
        <ele>221</ele>
        <time>2022-05-17T05:08:30.575Z</time>
      </trkpt>
      <trkpt lat="45.6255" lon="5.28794">
        <ele>221</ele>
        <time>2022-05-17T05:08:31.575Z</time>
      </trkpt>
      <trkpt lat="45.62548" lon="5.28804">
        <ele>221</ele>
        <time>2022-05-17T05:08:32.574Z</time>
      </trkpt>
      <trkpt lat="45.62545" lon="5.28816">
        <ele>221</ele>
        <time>2022-05-17T05:08:33.575Z</time>
      </trkpt>
      <trkpt lat="45.62542" lon="5.28826">
        <ele>221</ele>
        <time>2022-05-17T05:08:34.575Z</time>
      </trkpt>
      <trkpt lat="45.62541" lon="5.28835">
        <ele>221</ele>
        <time>2022-05-17T05:08:35.575Z</time>
      </trkpt>
      <trkpt lat="45.62539" lon="5.28845">
        <ele>221</ele>
        <time>2022-05-17T05:08:36.574Z</time>
      </trkpt>
      <trkpt lat="45.62537" lon="5.28857">
        <ele>221</ele>
        <time>2022-05-17T05:08:37.575Z</time>
      </trkpt>
      <trkpt lat="45.62536" lon="5.28867">
        <ele>221</ele>
        <time>2022-05-17T05:08:38.575Z</time>
      </trkpt>
      <trkpt lat="45.62535" lon="5.28877">
        <ele>221</ele>
        <time>2022-05-17T05:08:39.575Z</time>
      </trkpt>
      <trkpt lat="45.62535" lon="5.28886">
        <ele>221</ele>
        <time>2022-05-17T05:08:40.575Z</time>
      </trkpt>
      <trkpt lat="45.62534" lon="5.28896">
        <ele>221</ele>
        <time>2022-05-17T05:08:41.575Z</time>
      </trkpt>
      <trkpt lat="45.62533" lon="5.28909">
        <ele>220</ele>
        <time>2022-05-17T05:08:42.575Z</time>
      </trkpt>
      <trkpt lat="45.62533" lon="5.28919">
        <ele>220</ele>
        <time>2022-05-17T05:08:43.575Z</time>
      </trkpt>
      <trkpt lat="45.62533" lon="5.28929">
        <ele>220</ele>
        <time>2022-05-17T05:08:44.575Z</time>
      </trkpt>
      <trkpt lat="45.62533" lon="5.2894">
        <ele>220</ele>
        <time>2022-05-17T05:08:45.575Z</time>
      </trkpt>
      <trkpt lat="45.62533" lon="5.28948">
        <ele>220</ele>
        <time>2022-05-17T05:08:46.575Z</time>
      </trkpt>
      <trkpt lat="45.62534" lon="5.28961">
        <ele>221</ele>
        <time>2022-05-17T05:08:47.575Z</time>
      </trkpt>
      <trkpt lat="45.62535" lon="5.28969">
        <ele>221</ele>
        <time>2022-05-17T05:08:48.575Z</time>
      </trkpt>
      <trkpt lat="45.62535" lon="5.2898">
        <ele>221</ele>
        <time>2022-05-17T05:08:49.575Z</time>
      </trkpt>
      <trkpt lat="45.62536" lon="5.2899">
        <ele>221</ele>
        <time>2022-05-17T05:08:50.574Z</time>
      </trkpt>
      <trkpt lat="45.62537" lon="5.29001">
        <ele>222</ele>
        <time>2022-05-17T05:08:51.574Z</time>
      </trkpt>
      <trkpt lat="45.62539" lon="5.29013">
        <ele>222</ele>
        <time>2022-05-17T05:08:52.575Z</time>
      </trkpt>
      <trkpt lat="45.6254" lon="5.29023">
        <ele>222</ele>
        <time>2022-05-17T05:08:53.575Z</time>
      </trkpt>
      <trkpt lat="45.62541" lon="5.29033">
        <ele>221</ele>
        <time>2022-05-17T05:08:54.575Z</time>
      </trkpt>
      <trkpt lat="45.62543" lon="5.29044">
        <ele>222</ele>
        <time>2022-05-17T05:08:55.575Z</time>
      </trkpt>
      <trkpt lat="45.62544" lon="5.29054">
        <ele>222</ele>
        <time>2022-05-17T05:08:56.575Z</time>
      </trkpt>
      <trkpt lat="45.62546" lon="5.29064">
        <ele>222</ele>
        <time>2022-05-17T05:08:57.575Z</time>
      </trkpt>
      <trkpt lat="45.62547" lon="5.29074">
        <ele>222</ele>
        <time>2022-05-17T05:08:58.575Z</time>
      </trkpt>
      <trkpt lat="45.62548" lon="5.29082">
        <ele>222</ele>
        <time>2022-05-17T05:08:59.574Z</time>
      </trkpt>
      <trkpt lat="45.6255" lon="5.29092">
        <ele>222</ele>
        <time>2022-05-17T05:09:00.575Z</time>
      </trkpt>
      <trkpt lat="45.62553" lon="5.29104">
        <ele>222</ele>
        <time>2022-05-17T05:09:01.575Z</time>
      </trkpt>
      <trkpt lat="45.62555" lon="5.29115">
        <ele>222</ele>
        <time>2022-05-17T05:09:02.575Z</time>
      </trkpt>
      <trkpt lat="45.62556" lon="5.29124">
        <ele>222</ele>
        <time>2022-05-17T05:09:03.575Z</time>
      </trkpt>
      <trkpt lat="45.62558" lon="5.29132">
        <ele>222</ele>
        <time>2022-05-17T05:09:04.575Z</time>
      </trkpt>
      <trkpt lat="45.6256" lon="5.29142">
        <ele>222</ele>
        <time>2022-05-17T05:09:05.575Z</time>
      </trkpt>
      <trkpt lat="45.62563" lon="5.29152">
        <ele>222</ele>
        <time>2022-05-17T05:09:06.575Z</time>
      </trkpt>
      <trkpt lat="45.62565" lon="5.29162">
        <ele>222</ele>
        <time>2022-05-17T05:09:07.575Z</time>
      </trkpt>
      <trkpt lat="45.62568" lon="5.29172">
        <ele>222</ele>
        <time>2022-05-17T05:09:08.575Z</time>
      </trkpt>
      <trkpt lat="45.6257" lon="5.29181">
        <ele>222</ele>
        <time>2022-05-17T05:09:09.575Z</time>
      </trkpt>
      <trkpt lat="45.62573" lon="5.29191">
        <ele>222</ele>
        <time>2022-05-17T05:09:10.575Z</time>
      </trkpt>
      <trkpt lat="45.62575" lon="5.292">
        <ele>222</ele>
        <time>2022-05-17T05:09:11.574Z</time>
      </trkpt>
      <trkpt lat="45.62578" lon="5.2921">
        <ele>222</ele>
        <time>2022-05-17T05:09:12.575Z</time>
      </trkpt>
      <trkpt lat="45.6258" lon="5.2922">
        <ele>222</ele>
        <time>2022-05-17T05:09:13.575Z</time>
      </trkpt>
      <trkpt lat="45.62582" lon="5.29229">
        <ele>223</ele>
        <time>2022-05-17T05:09:14.575Z</time>
      </trkpt>
      <trkpt lat="45.62585" lon="5.29239">
        <ele>223</ele>
        <time>2022-05-17T05:09:15.575Z</time>
      </trkpt>
      <trkpt lat="45.62588" lon="5.2925">
        <ele>223</ele>
        <time>2022-05-17T05:09:16.575Z</time>
      </trkpt>
      <trkpt lat="45.6259" lon="5.2926">
        <ele>223</ele>
        <time>2022-05-17T05:09:17.575Z</time>
      </trkpt>
      <trkpt lat="45.62593" lon="5.29269">
        <ele>222</ele>
        <time>2022-05-17T05:09:18.574Z</time>
      </trkpt>
      <trkpt lat="45.62595" lon="5.29279">
        <ele>221</ele>
        <time>2022-05-17T05:09:19.575Z</time>
      </trkpt>
      <trkpt lat="45.62597" lon="5.29286">
        <ele>221</ele>
        <time>2022-05-17T05:09:20.575Z</time>
      </trkpt>
      <trkpt lat="45.626" lon="5.29296">
        <ele>221</ele>
        <time>2022-05-17T05:09:21.575Z</time>
      </trkpt>
      <trkpt lat="45.62602" lon="5.29307">
        <ele>221</ele>
        <time>2022-05-17T05:09:22.575Z</time>
      </trkpt>
      <trkpt lat="45.62604" lon="5.29315">
        <ele>221</ele>
        <time>2022-05-17T05:09:23.574Z</time>
      </trkpt>
      <trkpt lat="45.62607" lon="5.29325">
        <ele>221</ele>
        <time>2022-05-17T05:09:24.575Z</time>
      </trkpt>
      <trkpt lat="45.62609" lon="5.29334">
        <ele>221</ele>
        <time>2022-05-17T05:09:25.575Z</time>
      </trkpt>
      <trkpt lat="45.62611" lon="5.29344">
        <ele>221</ele>
        <time>2022-05-17T05:09:26.574Z</time>
      </trkpt>
      <trkpt lat="45.62612" lon="5.29354">
        <ele>221</ele>
        <time>2022-05-17T05:09:27.575Z</time>
      </trkpt>
      <trkpt lat="45.62614" lon="5.29364">
        <ele>221</ele>
        <time>2022-05-17T05:09:28.574Z</time>
      </trkpt>
      <trkpt lat="45.62616" lon="5.29374">
        <ele>222</ele>
        <time>2022-05-17T05:09:29.575Z</time>
      </trkpt>
      <trkpt lat="45.62617" lon="5.29385">
        <ele>222</ele>
        <time>2022-05-17T05:09:30.574Z</time>
      </trkpt>
      <trkpt lat="45.62619" lon="5.29395">
        <ele>222</ele>
        <time>2022-05-17T05:09:31.575Z</time>
      </trkpt>
      <trkpt lat="45.6262" lon="5.29405">
        <ele>222</ele>
        <time>2022-05-17T05:09:32.574Z</time>
      </trkpt>
      <trkpt lat="45.62622" lon="5.29415">
        <ele>222</ele>
        <time>2022-05-17T05:09:33.575Z</time>
      </trkpt>
      <trkpt lat="45.62623" lon="5.29425">
        <ele>222</ele>
        <time>2022-05-17T05:09:34.575Z</time>
      </trkpt>
      <trkpt lat="45.62624" lon="5.29435">
        <ele>222</ele>
        <time>2022-05-17T05:09:35.574Z</time>
      </trkpt>
      <trkpt lat="45.62625" lon="5.29446">
        <ele>222</ele>
        <time>2022-05-17T05:09:36.575Z</time>
      </trkpt>
      <trkpt lat="45.62626" lon="5.29456">
        <ele>221</ele>
        <time>2022-05-17T05:09:37.575Z</time>
      </trkpt>
      <trkpt lat="45.62627" lon="5.29466">
        <ele>221</ele>
        <time>2022-05-17T05:09:38.574Z</time>
      </trkpt>
      <trkpt lat="45.62628" lon="5.29476">
        <ele>221</ele>
        <time>2022-05-17T05:09:39.574Z</time>
      </trkpt>
      <trkpt lat="45.62629" lon="5.29486">
        <ele>221</ele>
        <time>2022-05-17T05:09:40.575Z</time>
      </trkpt>
      <trkpt lat="45.6263" lon="5.29496">
        <ele>221</ele>
        <time>2022-05-17T05:09:41.575Z</time>
      </trkpt>
      <trkpt lat="45.62631" lon="5.29508">
        <ele>221</ele>
        <time>2022-05-17T05:09:42.575Z</time>
      </trkpt>
      <trkpt lat="45.62632" lon="5.29516">
        <ele>220</ele>
        <time>2022-05-17T05:09:43.575Z</time>
      </trkpt>
      <trkpt lat="45.62633" lon="5.29527">
        <ele>221</ele>
        <time>2022-05-17T05:09:44.574Z</time>
      </trkpt>
      <trkpt lat="45.62634" lon="5.29537">
        <ele>221</ele>
        <time>2022-05-17T05:09:45.575Z</time>
      </trkpt>
      <trkpt lat="45.62634" lon="5.29547">
        <ele>220</ele>
        <time>2022-05-17T05:09:46.574Z</time>
      </trkpt>
      <trkpt lat="45.62635" lon="5.29559">
        <ele>220</ele>
        <time>2022-05-17T05:09:47.574Z</time>
      </trkpt>
      <trkpt lat="45.62636" lon="5.29567">
        <ele>219</ele>
        <time>2022-05-17T05:09:48.575Z</time>
      </trkpt>
      <trkpt lat="45.62637" lon="5.29577">
        <ele>219</ele>
        <time>2022-05-17T05:09:49.575Z</time>
      </trkpt>
      <trkpt lat="45.62638" lon="5.29588">
        <ele>218</ele>
        <time>2022-05-17T05:09:50.575Z</time>
      </trkpt>
      <trkpt lat="45.62639" lon="5.29598">
        <ele>218</ele>
        <time>2022-05-17T05:09:51.575Z</time>
      </trkpt>
      <trkpt lat="45.62639" lon="5.29608">
        <ele>218</ele>
        <time>2022-05-17T05:09:52.575Z</time>
      </trkpt>
      <trkpt lat="45.6264" lon="5.29618">
        <ele>218</ele>
        <time>2022-05-17T05:09:53.575Z</time>
      </trkpt>
      <trkpt lat="45.62641" lon="5.29628">
        <ele>217</ele>
        <time>2022-05-17T05:09:54.575Z</time>
      </trkpt>
      <trkpt lat="45.62642" lon="5.29638">
        <ele>217</ele>
        <time>2022-05-17T05:09:55.574Z</time>
      </trkpt>
      <trkpt lat="45.62643" lon="5.29648">
        <ele>217</ele>
        <time>2022-05-17T05:09:56.574Z</time>
      </trkpt>
      <trkpt lat="45.62644" lon="5.29658">
        <ele>218</ele>
        <time>2022-05-17T05:09:57.575Z</time>
      </trkpt>
      <trkpt lat="45.62644" lon="5.29669">
        <ele>218</ele>
        <time>2022-05-17T05:09:58.574Z</time>
      </trkpt>
      <trkpt lat="45.62645" lon="5.29679">
        <ele>219</ele>
        <time>2022-05-17T05:09:59.575Z</time>
      </trkpt>
      <trkpt lat="45.62646" lon="5.29689">
        <ele>219</ele>
        <time>2022-05-17T05:10:00.575Z</time>
      </trkpt>
      <trkpt lat="45.62647" lon="5.29699">
        <ele>219</ele>
        <time>2022-05-17T05:10:01.574Z</time>
      </trkpt>
      <trkpt lat="45.62648" lon="5.29709">
        <ele>219</ele>
        <time>2022-05-17T05:10:02.574Z</time>
      </trkpt>
      <trkpt lat="45.62648" lon="5.29719">
        <ele>220</ele>
        <time>2022-05-17T05:10:03.575Z</time>
      </trkpt>
      <trkpt lat="45.62649" lon="5.2973">
        <ele>220</ele>
        <time>2022-05-17T05:10:04.575Z</time>
      </trkpt>
      <trkpt lat="45.6265" lon="5.2974">
        <ele>220</ele>
        <time>2022-05-17T05:10:05.575Z</time>
      </trkpt>
      <trkpt lat="45.62651" lon="5.2975">
        <ele>221</ele>
        <time>2022-05-17T05:10:06.575Z</time>
      </trkpt>
      <trkpt lat="45.62651" lon="5.2976">
        <ele>221</ele>
        <time>2022-05-17T05:10:07.575Z</time>
      </trkpt>
      <trkpt lat="45.62652" lon="5.29771">
        <ele>221</ele>
        <time>2022-05-17T05:10:08.575Z</time>
      </trkpt>
      <trkpt lat="45.62653" lon="5.29781">
        <ele>221</ele>
        <time>2022-05-17T05:10:09.575Z</time>
      </trkpt>
      <trkpt lat="45.62653" lon="5.29791">
        <ele>221</ele>
        <time>2022-05-17T05:10:10.575Z</time>
      </trkpt>
      <trkpt lat="45.62654" lon="5.29801">
        <ele>221</ele>
        <time>2022-05-17T05:10:11.574Z</time>
      </trkpt>
      <trkpt lat="45.62655" lon="5.29811">
        <ele>220</ele>
        <time>2022-05-17T05:10:12.575Z</time>
      </trkpt>
      <trkpt lat="45.62656" lon="5.29821">
        <ele>220</ele>
        <time>2022-05-17T05:10:13.575Z</time>
      </trkpt>
      <trkpt lat="45.62657" lon="5.29831">
        <ele>219</ele>
        <time>2022-05-17T05:10:14.575Z</time>
      </trkpt>
      <trkpt lat="45.62658" lon="5.29841">
        <ele>219</ele>
        <time>2022-05-17T05:10:15.575Z</time>
      </trkpt>
      <trkpt lat="45.62658" lon="5.29851">
        <ele>219</ele>
        <time>2022-05-17T05:10:16.575Z</time>
      </trkpt>
      <trkpt lat="45.62659" lon="5.29861">
        <ele>219</ele>
        <time>2022-05-17T05:10:17.574Z</time>
      </trkpt>
      <trkpt lat="45.6266" lon="5.29871">
        <ele>219</ele>
        <time>2022-05-17T05:10:18.574Z</time>
      </trkpt>
      <trkpt lat="45.6266" lon="5.29881">
        <ele>219</ele>
        <time>2022-05-17T05:10:19.575Z</time>
      </trkpt>
      <trkpt lat="45.62661" lon="5.2989">
        <ele>220</ele>
        <time>2022-05-17T05:10:20.575Z</time>
      </trkpt>
      <trkpt lat="45.62662" lon="5.299">
        <ele>220</ele>
        <time>2022-05-17T05:10:21.575Z</time>
      </trkpt>
      <trkpt lat="45.62663" lon="5.29912">
        <ele>221</ele>
        <time>2022-05-17T05:10:22.575Z</time>
      </trkpt>
      <trkpt lat="45.62663" lon="5.29923">
        <ele>221</ele>
        <time>2022-05-17T05:10:23.575Z</time>
      </trkpt>
      <trkpt lat="45.62664" lon="5.29932">
        <ele>221</ele>
        <time>2022-05-17T05:10:24.574Z</time>
      </trkpt>
      <trkpt lat="45.62665" lon="5.29942">
        <ele>221</ele>
        <time>2022-05-17T05:10:25.575Z</time>
      </trkpt>
      <trkpt lat="45.62666" lon="5.29952">
        <ele>221</ele>
        <time>2022-05-17T05:10:26.575Z</time>
      </trkpt>
      <trkpt lat="45.62666" lon="5.29962">
        <ele>221</ele>
        <time>2022-05-17T05:10:27.575Z</time>
      </trkpt>
      <trkpt lat="45.62667" lon="5.2997">
        <ele>222</ele>
        <time>2022-05-17T05:10:28.574Z</time>
      </trkpt>
      <trkpt lat="45.62668" lon="5.29982">
        <ele>222</ele>
        <time>2022-05-17T05:10:29.575Z</time>
      </trkpt>
      <trkpt lat="45.62668" lon="5.29993">
        <ele>222</ele>
        <time>2022-05-17T05:10:30.574Z</time>
      </trkpt>
      <trkpt lat="45.62669" lon="5.30003">
        <ele>222</ele>
        <time>2022-05-17T05:10:31.575Z</time>
      </trkpt>
      <trkpt lat="45.62669" lon="5.30011">
        <ele>222</ele>
        <time>2022-05-17T05:10:32.575Z</time>
      </trkpt>
      <trkpt lat="45.6267" lon="5.30023">
        <ele>222</ele>
        <time>2022-05-17T05:10:33.575Z</time>
      </trkpt>
      <trkpt lat="45.62671" lon="5.30033">
        <ele>222</ele>
        <time>2022-05-17T05:10:34.575Z</time>
      </trkpt>
      <trkpt lat="45.62672" lon="5.30043">
        <ele>222</ele>
        <time>2022-05-17T05:10:35.575Z</time>
      </trkpt>
      <trkpt lat="45.62672" lon="5.30052">
        <ele>222</ele>
        <time>2022-05-17T05:10:36.575Z</time>
      </trkpt>
      <trkpt lat="45.62673" lon="5.30062">
        <ele>222</ele>
        <time>2022-05-17T05:10:37.574Z</time>
      </trkpt>
      <trkpt lat="45.62673" lon="5.30074">
        <ele>223</ele>
        <time>2022-05-17T05:10:38.575Z</time>
      </trkpt>
      <trkpt lat="45.62674" lon="5.30085">
        <ele>223</ele>
        <time>2022-05-17T05:10:39.574Z</time>
      </trkpt>
      <trkpt lat="45.62675" lon="5.30096">
        <ele>224</ele>
        <time>2022-05-17T05:10:40.574Z</time>
      </trkpt>
      <trkpt lat="45.62675" lon="5.30104">
        <ele>224</ele>
        <time>2022-05-17T05:10:41.575Z</time>
      </trkpt>
      <trkpt lat="45.62676" lon="5.30114">
        <ele>224</ele>
        <time>2022-05-17T05:10:42.575Z</time>
      </trkpt>
      <trkpt lat="45.62677" lon="5.30124">
        <ele>224</ele>
        <time>2022-05-17T05:10:43.575Z</time>
      </trkpt>
      <trkpt lat="45.62677" lon="5.30135">
        <ele>224</ele>
        <time>2022-05-17T05:10:44.574Z</time>
      </trkpt>
      <trkpt lat="45.62678" lon="5.30145">
        <ele>224</ele>
        <time>2022-05-17T05:10:45.575Z</time>
      </trkpt>
      <trkpt lat="45.62679" lon="5.30155">
        <ele>224</ele>
        <time>2022-05-17T05:10:46.575Z</time>
      </trkpt>
      <trkpt lat="45.6268" lon="5.30165">
        <ele>224</ele>
        <time>2022-05-17T05:10:47.575Z</time>
      </trkpt>
      <trkpt lat="45.6268" lon="5.30175">
        <ele>224</ele>
        <time>2022-05-17T05:10:48.575Z</time>
      </trkpt>
      <trkpt lat="45.62681" lon="5.30185">
        <ele>224</ele>
        <time>2022-05-17T05:10:49.574Z</time>
      </trkpt>
      <trkpt lat="45.62682" lon="5.30196">
        <ele>224</ele>
        <time>2022-05-17T05:10:50.575Z</time>
      </trkpt>
      <trkpt lat="45.62683" lon="5.30206">
        <ele>224</ele>
        <time>2022-05-17T05:10:51.575Z</time>
      </trkpt>
      <trkpt lat="45.62683" lon="5.30218">
        <ele>224</ele>
        <time>2022-05-17T05:10:52.575Z</time>
      </trkpt>
      <trkpt lat="45.62684" lon="5.30229">
        <ele>224</ele>
        <time>2022-05-17T05:10:53.575Z</time>
      </trkpt>
      <trkpt lat="45.62685" lon="5.30239">
        <ele>224</ele>
        <time>2022-05-17T05:10:54.575Z</time>
      </trkpt>
      <trkpt lat="45.62685" lon="5.30249">
        <ele>224</ele>
        <time>2022-05-17T05:10:55.575Z</time>
      </trkpt>
      <trkpt lat="45.62686" lon="5.3026">
        <ele>224</ele>
        <time>2022-05-17T05:10:56.575Z</time>
      </trkpt>
      <trkpt lat="45.62686" lon="5.3027">
        <ele>224</ele>
        <time>2022-05-17T05:10:57.575Z</time>
      </trkpt>
      <trkpt lat="45.62687" lon="5.30281">
        <ele>224</ele>
        <time>2022-05-17T05:10:58.575Z</time>
      </trkpt>
      <trkpt lat="45.62688" lon="5.30291">
        <ele>225</ele>
        <time>2022-05-17T05:10:59.575Z</time>
      </trkpt>
      <trkpt lat="45.62689" lon="5.30302">
        <ele>225</ele>
        <time>2022-05-17T05:11:00.575Z</time>
      </trkpt>
      <trkpt lat="45.62689" lon="5.30312">
        <ele>225</ele>
        <time>2022-05-17T05:11:01.575Z</time>
      </trkpt>
      <trkpt lat="45.6269" lon="5.3032">
        <ele>226</ele>
        <time>2022-05-17T05:11:02.575Z</time>
      </trkpt>
      <trkpt lat="45.6269" lon="5.3033">
        <ele>226</ele>
        <time>2022-05-17T05:11:03.575Z</time>
      </trkpt>
      <trkpt lat="45.62691" lon="5.3034">
        <ele>226</ele>
        <time>2022-05-17T05:11:04.575Z</time>
      </trkpt>
      <trkpt lat="45.62692" lon="5.3035">
        <ele>225</ele>
        <time>2022-05-17T05:11:05.575Z</time>
      </trkpt>
      <trkpt lat="45.62693" lon="5.3036">
        <ele>225</ele>
        <time>2022-05-17T05:11:06.575Z</time>
      </trkpt>
      <trkpt lat="45.62694" lon="5.3037">
        <ele>225</ele>
        <time>2022-05-17T05:11:07.575Z</time>
      </trkpt>
      <trkpt lat="45.62694" lon="5.30382">
        <ele>225</ele>
        <time>2022-05-17T05:11:08.575Z</time>
      </trkpt>
      <trkpt lat="45.62694" lon="5.3039">
        <ele>224</ele>
        <time>2022-05-17T05:11:09.575Z</time>
      </trkpt>
      <trkpt lat="45.62695" lon="5.304">
        <ele>224</ele>
        <time>2022-05-17T05:11:10.574Z</time>
      </trkpt>
      <trkpt lat="45.62695" lon="5.30412">
        <ele>224</ele>
        <time>2022-05-17T05:11:11.575Z</time>
      </trkpt>
      <trkpt lat="45.62695" lon="5.30422">
        <ele>224</ele>
        <time>2022-05-17T05:11:12.575Z</time>
      </trkpt>
      <trkpt lat="45.62695" lon="5.3043">
        <ele>224</ele>
        <time>2022-05-17T05:11:13.574Z</time>
      </trkpt>
      <trkpt lat="45.62695" lon="5.3044">
        <ele>224</ele>
        <time>2022-05-17T05:11:14.575Z</time>
      </trkpt>
      <trkpt lat="45.62695" lon="5.3045">
        <ele>225</ele>
        <time>2022-05-17T05:11:15.575Z</time>
      </trkpt>
      <trkpt lat="45.62694" lon="5.30462">
        <ele>225</ele>
        <time>2022-05-17T05:11:16.574Z</time>
      </trkpt>
      <trkpt lat="45.62694" lon="5.30472">
        <ele>225</ele>
        <time>2022-05-17T05:11:17.574Z</time>
      </trkpt>
      <trkpt lat="45.62692" lon="5.30481">
        <ele>225</ele>
        <time>2022-05-17T05:11:18.575Z</time>
      </trkpt>
      <trkpt lat="45.62691" lon="5.30489">
        <ele>225</ele>
        <time>2022-05-17T05:11:19.575Z</time>
      </trkpt>
      <trkpt lat="45.62689" lon="5.30498">
        <ele>225</ele>
        <time>2022-05-17T05:11:20.575Z</time>
      </trkpt>
      <trkpt lat="45.62688" lon="5.30507">
        <ele>225</ele>
        <time>2022-05-17T05:11:21.575Z</time>
      </trkpt>
      <trkpt lat="45.62686" lon="5.30517">
        <ele>226</ele>
        <time>2022-05-17T05:11:22.575Z</time>
      </trkpt>
      <trkpt lat="45.62685" lon="5.30528">
        <ele>226</ele>
        <time>2022-05-17T05:11:23.575Z</time>
      </trkpt>
      <trkpt lat="45.62684" lon="5.30535">
        <ele>226</ele>
        <time>2022-05-17T05:11:24.574Z</time>
      </trkpt>
      <trkpt lat="45.62682" lon="5.30544">
        <ele>226</ele>
        <time>2022-05-17T05:11:25.575Z</time>
      </trkpt>
      <trkpt lat="45.62681" lon="5.30553">
        <ele>226</ele>
        <time>2022-05-17T05:11:26.575Z</time>
      </trkpt>
      <trkpt lat="45.62679" lon="5.30563">
        <ele>226</ele>
        <time>2022-05-17T05:11:27.575Z</time>
      </trkpt>
      <trkpt lat="45.62678" lon="5.30574">
        <ele>226</ele>
        <time>2022-05-17T05:11:28.575Z</time>
      </trkpt>
      <trkpt lat="45.62676" lon="5.30581">
        <ele>225</ele>
        <time>2022-05-17T05:11:29.575Z</time>
      </trkpt>
      <trkpt lat="45.62675" lon="5.3059">
        <ele>225</ele>
        <time>2022-05-17T05:11:30.575Z</time>
      </trkpt>
      <trkpt lat="45.62673" lon="5.30599">
        <ele>225</ele>
        <time>2022-05-17T05:11:31.575Z</time>
      </trkpt>
      <trkpt lat="45.62672" lon="5.30608">
        <ele>225</ele>
        <time>2022-05-17T05:11:32.574Z</time>
      </trkpt>
      <trkpt lat="45.6267" lon="5.30619">
        <ele>225</ele>
        <time>2022-05-17T05:11:33.574Z</time>
      </trkpt>
      <trkpt lat="45.62668" lon="5.30628">
        <ele>225</ele>
        <time>2022-05-17T05:11:34.574Z</time>
      </trkpt>
      <trkpt lat="45.62667" lon="5.30635">
        <ele>226</ele>
        <time>2022-05-17T05:11:35.575Z</time>
      </trkpt>
      <trkpt lat="45.62665" lon="5.30644">
        <ele>226</ele>
        <time>2022-05-17T05:11:36.575Z</time>
      </trkpt>
      <trkpt lat="45.62663" lon="5.30655">
        <ele>226</ele>
        <time>2022-05-17T05:11:37.575Z</time>
      </trkpt>
      <trkpt lat="45.62661" lon="5.30664">
        <ele>226</ele>
        <time>2022-05-17T05:11:38.575Z</time>
      </trkpt>
      <trkpt lat="45.6266" lon="5.30674">
        <ele>226</ele>
        <time>2022-05-17T05:11:39.574Z</time>
      </trkpt>
      <trkpt lat="45.62658" lon="5.30682">
        <ele>226</ele>
        <time>2022-05-17T05:11:40.574Z</time>
      </trkpt>
      <trkpt lat="45.62657" lon="5.30691">
        <ele>226</ele>
        <time>2022-05-17T05:11:41.575Z</time>
      </trkpt>
      <trkpt lat="45.62655" lon="5.30701">
        <ele>226</ele>
        <time>2022-05-17T05:11:42.575Z</time>
      </trkpt>
      <trkpt lat="45.62654" lon="5.3071">
        <ele>226</ele>
        <time>2022-05-17T05:11:43.575Z</time>
      </trkpt>
      <trkpt lat="45.62652" lon="5.30719">
        <ele>226</ele>
        <time>2022-05-17T05:11:44.575Z</time>
      </trkpt>
      <trkpt lat="45.62651" lon="5.30728">
        <ele>226</ele>
        <time>2022-05-17T05:11:45.574Z</time>
      </trkpt>
      <trkpt lat="45.62649" lon="5.30737">
        <ele>226</ele>
        <time>2022-05-17T05:11:46.575Z</time>
      </trkpt>
      <trkpt lat="45.62648" lon="5.30746">
        <ele>227</ele>
        <time>2022-05-17T05:11:47.575Z</time>
      </trkpt>
      <trkpt lat="45.62647" lon="5.30754">
        <ele>227</ele>
        <time>2022-05-17T05:11:48.574Z</time>
      </trkpt>
      <trkpt lat="45.62645" lon="5.30763">
        <ele>226</ele>
        <time>2022-05-17T05:11:49.575Z</time>
      </trkpt>
      <trkpt lat="45.62644" lon="5.30772">
        <ele>226</ele>
        <time>2022-05-17T05:11:50.575Z</time>
      </trkpt>
      <trkpt lat="45.62642" lon="5.30779">
        <ele>226</ele>
        <time>2022-05-17T05:11:51.574Z</time>
      </trkpt>
      <trkpt lat="45.62641" lon="5.3079">
        <ele>226</ele>
        <time>2022-05-17T05:11:52.575Z</time>
      </trkpt>
      <trkpt lat="45.62639" lon="5.30798">
        <ele>226</ele>
        <time>2022-05-17T05:11:53.575Z</time>
      </trkpt>
      <trkpt lat="45.62638" lon="5.30807">
        <ele>226</ele>
        <time>2022-05-17T05:11:54.575Z</time>
      </trkpt>
      <trkpt lat="45.62636" lon="5.30814">
        <ele>226</ele>
        <time>2022-05-17T05:11:55.575Z</time>
      </trkpt>
      <trkpt lat="45.62634" lon="5.30825">
        <ele>226</ele>
        <time>2022-05-17T05:11:56.575Z</time>
      </trkpt>
      <trkpt lat="45.62633" lon="5.30833">
        <ele>226</ele>
        <time>2022-05-17T05:11:57.574Z</time>
      </trkpt>
      <trkpt lat="45.62631" lon="5.30842">
        <ele>225</ele>
        <time>2022-05-17T05:11:58.574Z</time>
      </trkpt>
      <trkpt lat="45.6263" lon="5.30851">
        <ele>225</ele>
        <time>2022-05-17T05:11:59.575Z</time>
      </trkpt>
      <trkpt lat="45.62628" lon="5.3086">
        <ele>226</ele>
        <time>2022-05-17T05:12:00.575Z</time>
      </trkpt>
      <trkpt lat="45.62627" lon="5.30869">
        <ele>226</ele>
        <time>2022-05-17T05:12:01.575Z</time>
      </trkpt>
      <trkpt lat="45.62625" lon="5.30878">
        <ele>227</ele>
        <time>2022-05-17T05:12:02.575Z</time>
      </trkpt>
      <trkpt lat="45.62624" lon="5.30887">
        <ele>227</ele>
        <time>2022-05-17T05:12:03.575Z</time>
      </trkpt>
      <trkpt lat="45.62622" lon="5.30895">
        <ele>227</ele>
        <time>2022-05-17T05:12:04.575Z</time>
      </trkpt>
      <trkpt lat="45.62621" lon="5.30904">
        <ele>227</ele>
        <time>2022-05-17T05:12:05.575Z</time>
      </trkpt>
      <trkpt lat="45.62619" lon="5.30913">
        <ele>228</ele>
        <time>2022-05-17T05:12:06.575Z</time>
      </trkpt>
      <trkpt lat="45.62618" lon="5.30922">
        <ele>228</ele>
        <time>2022-05-17T05:12:07.575Z</time>
      </trkpt>
      <trkpt lat="45.62616" lon="5.30931">
        <ele>228</ele>
        <time>2022-05-17T05:12:08.575Z</time>
      </trkpt>
      <trkpt lat="45.62615" lon="5.3094">
        <ele>229</ele>
        <time>2022-05-17T05:12:09.575Z</time>
      </trkpt>
      <trkpt lat="45.62614" lon="5.30947">
        <ele>229</ele>
        <time>2022-05-17T05:12:10.575Z</time>
      </trkpt>
      <trkpt lat="45.62612" lon="5.30957">
        <ele>229</ele>
        <time>2022-05-17T05:12:11.575Z</time>
      </trkpt>
      <trkpt lat="45.62611" lon="5.30966">
        <ele>229</ele>
        <time>2022-05-17T05:12:12.575Z</time>
      </trkpt>
      <trkpt lat="45.62609" lon="5.30975">
        <ele>229</ele>
        <time>2022-05-17T05:12:13.575Z</time>
      </trkpt>
      <trkpt lat="45.62608" lon="5.30984">
        <ele>228</ele>
        <time>2022-05-17T05:12:14.574Z</time>
      </trkpt>
      <trkpt lat="45.62607" lon="5.30993">
        <ele>228</ele>
        <time>2022-05-17T05:12:15.575Z</time>
      </trkpt>
      <trkpt lat="45.62605" lon="5.31001">
        <ele>228</ele>
        <time>2022-05-17T05:12:16.575Z</time>
      </trkpt>
      <trkpt lat="45.62603" lon="5.3101">
        <ele>227</ele>
        <time>2022-05-17T05:12:17.574Z</time>
      </trkpt>
      <trkpt lat="45.62602" lon="5.31018">
        <ele>227</ele>
        <time>2022-05-17T05:12:18.575Z</time>
      </trkpt>
      <trkpt lat="45.626" lon="5.31025">
        <ele>227</ele>
        <time>2022-05-17T05:12:19.575Z</time>
      </trkpt>
      <trkpt lat="45.62597" lon="5.31034">
        <ele>227</ele>
        <time>2022-05-17T05:12:20.574Z</time>
      </trkpt>
      <trkpt lat="45.62594" lon="5.31043">
        <ele>228</ele>
        <time>2022-05-17T05:12:21.575Z</time>
      </trkpt>
      <trkpt lat="45.62591" lon="5.31052">
        <ele>228</ele>
        <time>2022-05-17T05:12:22.575Z</time>
      </trkpt>
      <trkpt lat="45.62588" lon="5.31059">
        <ele>228</ele>
        <time>2022-05-17T05:12:23.575Z</time>
      </trkpt>
      <trkpt lat="45.62586" lon="5.31066">
        <ele>227</ele>
        <time>2022-05-17T05:12:24.574Z</time>
      </trkpt>
      <trkpt lat="45.62583" lon="5.31075">
        <ele>227</ele>
        <time>2022-05-17T05:12:25.575Z</time>
      </trkpt>
      <trkpt lat="45.62581" lon="5.31083">
        <ele>227</ele>
        <time>2022-05-17T05:12:26.574Z</time>
      </trkpt>
      <trkpt lat="45.62579" lon="5.31092">
        <ele>228</ele>
        <time>2022-05-17T05:12:27.575Z</time>
      </trkpt>
      <trkpt lat="45.62578" lon="5.31101">
        <ele>228</ele>
        <time>2022-05-17T05:12:28.574Z</time>
      </trkpt>
      <trkpt lat="45.62576" lon="5.3111">
        <ele>228</ele>
        <time>2022-05-17T05:12:29.575Z</time>
      </trkpt>
      <trkpt lat="45.62575" lon="5.31119">
        <ele>229</ele>
        <time>2022-05-17T05:12:30.575Z</time>
      </trkpt>
      <trkpt lat="45.62575" lon="5.31127">
        <ele>229</ele>
        <time>2022-05-17T05:12:31.575Z</time>
      </trkpt>
      <trkpt lat="45.62574" lon="5.31136">
        <ele>229</ele>
        <time>2022-05-17T05:12:32.574Z</time>
      </trkpt>
      <trkpt lat="45.62574" lon="5.31145">
        <ele>229</ele>
        <time>2022-05-17T05:12:33.575Z</time>
      </trkpt>
      <trkpt lat="45.62574" lon="5.31156">
        <ele>229</ele>
        <time>2022-05-17T05:12:34.574Z</time>
      </trkpt>
      <trkpt lat="45.62573" lon="5.31165">
        <ele>230</ele>
        <time>2022-05-17T05:12:35.575Z</time>
      </trkpt>
      <trkpt lat="45.62573" lon="5.31174">
        <ele>229</ele>
        <time>2022-05-17T05:12:36.575Z</time>
      </trkpt>
      <trkpt lat="45.62572" lon="5.31183">
        <ele>229</ele>
        <time>2022-05-17T05:12:37.575Z</time>
      </trkpt>
      <trkpt lat="45.62571" lon="5.31192">
        <ele>229</ele>
        <time>2022-05-17T05:12:38.574Z</time>
      </trkpt>
      <trkpt lat="45.6257" lon="5.31201">
        <ele>229</ele>
        <time>2022-05-17T05:12:39.575Z</time>
      </trkpt>
      <trkpt lat="45.62568" lon="5.3121">
        <ele>229</ele>
        <time>2022-05-17T05:12:40.575Z</time>
      </trkpt>
      <trkpt lat="45.62567" lon="5.31219">
        <ele>230</ele>
        <time>2022-05-17T05:12:41.575Z</time>
      </trkpt>
      <trkpt lat="45.62565" lon="5.31228">
        <ele>230</ele>
        <time>2022-05-17T05:12:42.575Z</time>
      </trkpt>
      <trkpt lat="45.62564" lon="5.31236">
        <ele>230</ele>
        <time>2022-05-17T05:12:43.575Z</time>
      </trkpt>
      <trkpt lat="45.62562" lon="5.31245">
        <ele>231</ele>
        <time>2022-05-17T05:12:44.574Z</time>
      </trkpt>
      <trkpt lat="45.62561" lon="5.31253">
        <ele>231</ele>
        <time>2022-05-17T05:12:45.575Z</time>
      </trkpt>
      <trkpt lat="45.62559" lon="5.31262">
        <ele>231</ele>
        <time>2022-05-17T05:12:46.574Z</time>
      </trkpt>
      <trkpt lat="45.62557" lon="5.3127">
        <ele>231</ele>
        <time>2022-05-17T05:12:47.575Z</time>
      </trkpt>
      <trkpt lat="45.62556" lon="5.31279">
        <ele>231</ele>
        <time>2022-05-17T05:12:48.575Z</time>
      </trkpt>
      <trkpt lat="45.62554" lon="5.31285">
        <ele>230</ele>
        <time>2022-05-17T05:12:49.575Z</time>
      </trkpt>
      <trkpt lat="45.62553" lon="5.31294">
        <ele>230</ele>
        <time>2022-05-17T05:12:50.574Z</time>
      </trkpt>
      <trkpt lat="45.62551" lon="5.31303">
        <ele>230</ele>
        <time>2022-05-17T05:12:51.575Z</time>
      </trkpt>
      <trkpt lat="45.62549" lon="5.31312">
        <ele>230</ele>
        <time>2022-05-17T05:12:52.575Z</time>
      </trkpt>
      <trkpt lat="45.62547" lon="5.31322">
        <ele>230</ele>
        <time>2022-05-17T05:12:53.575Z</time>
      </trkpt>
      <trkpt lat="45.62546" lon="5.31331">
        <ele>230</ele>
        <time>2022-05-17T05:12:54.575Z</time>
      </trkpt>
      <trkpt lat="45.62544" lon="5.31339">
        <ele>231</ele>
        <time>2022-05-17T05:12:55.575Z</time>
      </trkpt>
      <trkpt lat="45.62543" lon="5.31348">
        <ele>231</ele>
        <time>2022-05-17T05:12:56.575Z</time>
      </trkpt>
      <trkpt lat="45.62541" lon="5.31357">
        <ele>231</ele>
        <time>2022-05-17T05:12:57.575Z</time>
      </trkpt>
      <trkpt lat="45.62539" lon="5.31365">
        <ele>231</ele>
        <time>2022-05-17T05:12:58.575Z</time>
      </trkpt>
      <trkpt lat="45.62537" lon="5.31374">
        <ele>231</ele>
        <time>2022-05-17T05:12:59.575Z</time>
      </trkpt>
      <trkpt lat="45.62536" lon="5.31383">
        <ele>231</ele>
        <time>2022-05-17T05:13:00.574Z</time>
      </trkpt>
      <trkpt lat="45.62534" lon="5.31392">
        <ele>231</ele>
        <time>2022-05-17T05:13:01.574Z</time>
      </trkpt>
      <trkpt lat="45.62532" lon="5.31401">
        <ele>231</ele>
        <time>2022-05-17T05:13:02.574Z</time>
      </trkpt>
      <trkpt lat="45.6253" lon="5.31409">
        <ele>231</ele>
        <time>2022-05-17T05:13:03.575Z</time>
      </trkpt>
      <trkpt lat="45.62529" lon="5.31418">
        <ele>231</ele>
        <time>2022-05-17T05:13:04.574Z</time>
      </trkpt>
      <trkpt lat="45.62527" lon="5.31427">
        <ele>231</ele>
        <time>2022-05-17T05:13:05.575Z</time>
      </trkpt>
      <trkpt lat="45.62525" lon="5.31436">
        <ele>232</ele>
        <time>2022-05-17T05:13:06.574Z</time>
      </trkpt>
      <trkpt lat="45.62523" lon="5.31445">
        <ele>232</ele>
        <time>2022-05-17T05:13:07.575Z</time>
      </trkpt>
      <trkpt lat="45.62522" lon="5.31453">
        <ele>232</ele>
        <time>2022-05-17T05:13:08.575Z</time>
      </trkpt>
      <trkpt lat="45.6252" lon="5.31462">
        <ele>232</ele>
        <time>2022-05-17T05:13:09.575Z</time>
      </trkpt>
      <trkpt lat="45.62518" lon="5.31471">
        <ele>232</ele>
        <time>2022-05-17T05:13:10.575Z</time>
      </trkpt>
      <trkpt lat="45.62516" lon="5.31479">
        <ele>231</ele>
        <time>2022-05-17T05:13:11.574Z</time>
      </trkpt>
      <trkpt lat="45.62515" lon="5.31487">
        <ele>231</ele>
        <time>2022-05-17T05:13:12.574Z</time>
      </trkpt>
      <trkpt lat="45.62513" lon="5.31496">
        <ele>230</ele>
        <time>2022-05-17T05:13:13.574Z</time>
      </trkpt>
      <trkpt lat="45.62511" lon="5.31504">
        <ele>231</ele>
        <time>2022-05-17T05:13:14.574Z</time>
      </trkpt>
      <trkpt lat="45.62509" lon="5.31513">
        <ele>231</ele>
        <time>2022-05-17T05:13:15.574Z</time>
      </trkpt>
      <trkpt lat="45.62508" lon="5.31521">
        <ele>231</ele>
        <time>2022-05-17T05:13:16.574Z</time>
      </trkpt>
      <trkpt lat="45.62506" lon="5.31529">
        <ele>232</ele>
        <time>2022-05-17T05:13:17.574Z</time>
      </trkpt>
      <trkpt lat="45.62505" lon="5.31538">
        <ele>232</ele>
        <time>2022-05-17T05:13:18.574Z</time>
      </trkpt>
      <trkpt lat="45.62503" lon="5.31546">
        <ele>232</ele>
        <time>2022-05-17T05:13:19.575Z</time>
      </trkpt>
      <trkpt lat="45.62502" lon="5.31555">
        <ele>232</ele>
        <time>2022-05-17T05:13:20.575Z</time>
      </trkpt>
      <trkpt lat="45.625" lon="5.31564">
        <ele>233</ele>
        <time>2022-05-17T05:13:21.574Z</time>
      </trkpt>
      <trkpt lat="45.62498" lon="5.31572">
        <ele>233</ele>
        <time>2022-05-17T05:13:22.575Z</time>
      </trkpt>
      <trkpt lat="45.62496" lon="5.3158">
        <ele>233</ele>
        <time>2022-05-17T05:13:23.575Z</time>
      </trkpt>
      <trkpt lat="45.62495" lon="5.31589">
        <ele>233</ele>
        <time>2022-05-17T05:13:24.574Z</time>
      </trkpt>
      <trkpt lat="45.62493" lon="5.31597">
        <ele>233</ele>
        <time>2022-05-17T05:13:25.575Z</time>
      </trkpt>
      <trkpt lat="45.62492" lon="5.31606">
        <ele>233</ele>
        <time>2022-05-17T05:13:26.575Z</time>
      </trkpt>
      <trkpt lat="45.6249" lon="5.31615">
        <ele>233</ele>
        <time>2022-05-17T05:13:27.575Z</time>
      </trkpt>
      <trkpt lat="45.62489" lon="5.31623">
        <ele>233</ele>
        <time>2022-05-17T05:13:28.575Z</time>
      </trkpt>
      <trkpt lat="45.62488" lon="5.31632">
        <ele>233</ele>
        <time>2022-05-17T05:13:29.575Z</time>
      </trkpt>
      <trkpt lat="45.62487" lon="5.31641">
        <ele>234</ele>
        <time>2022-05-17T05:13:30.575Z</time>
      </trkpt>
      <trkpt lat="45.62486" lon="5.31651">
        <ele>234</ele>
        <time>2022-05-17T05:13:31.575Z</time>
      </trkpt>
      <trkpt lat="45.62485" lon="5.3166">
        <ele>234</ele>
        <time>2022-05-17T05:13:32.574Z</time>
      </trkpt>
      <trkpt lat="45.62484" lon="5.31669">
        <ele>234</ele>
        <time>2022-05-17T05:13:33.575Z</time>
      </trkpt>
      <trkpt lat="45.62483" lon="5.31676">
        <ele>234</ele>
        <time>2022-05-17T05:13:34.575Z</time>
      </trkpt>
      <trkpt lat="45.62482" lon="5.31684">
        <ele>233</ele>
        <time>2022-05-17T05:13:35.575Z</time>
      </trkpt>
      <trkpt lat="45.62482" lon="5.31693">
        <ele>233</ele>
        <time>2022-05-17T05:13:36.575Z</time>
      </trkpt>
      <trkpt lat="45.62481" lon="5.31702">
        <ele>233</ele>
        <time>2022-05-17T05:13:37.575Z</time>
      </trkpt>
      <trkpt lat="45.6248" lon="5.31711">
        <ele>233</ele>
        <time>2022-05-17T05:13:38.575Z</time>
      </trkpt>
      <trkpt lat="45.6248" lon="5.3172">
        <ele>233</ele>
        <time>2022-05-17T05:13:39.574Z</time>
      </trkpt>
      <trkpt lat="45.62479" lon="5.31728">
        <ele>233</ele>
        <time>2022-05-17T05:13:40.574Z</time>
      </trkpt>
      <trkpt lat="45.62478" lon="5.31737">
        <ele>233</ele>
        <time>2022-05-17T05:13:41.575Z</time>
      </trkpt>
      <trkpt lat="45.62477" lon="5.31746">
        <ele>233</ele>
        <time>2022-05-17T05:13:42.575Z</time>
      </trkpt>
      <trkpt lat="45.62476" lon="5.31754">
        <ele>234</ele>
        <time>2022-05-17T05:13:43.575Z</time>
      </trkpt>
      <trkpt lat="45.62475" lon="5.31763">
        <ele>234</ele>
        <time>2022-05-17T05:13:44.574Z</time>
      </trkpt>
      <trkpt lat="45.62474" lon="5.31766">
        <ele>234</ele>
        <time>2022-05-17T05:13:45.574Z</time>
      </trkpt>
      <trkpt lat="45.62474" lon="5.31769">
        <ele>234</ele>
        <time>2022-05-17T05:13:46.574Z</time>
      </trkpt>
      <trkpt lat="45.62473" lon="5.31771">
        <ele>235</ele>
        <time>2022-05-17T05:13:47.574Z</time>
      </trkpt>
      <trkpt lat="45.62472" lon="5.31773">
        <ele>235</ele>
        <time>2022-05-17T05:13:48.575Z</time>
      </trkpt>
      <trkpt lat="45.62472" lon="5.31773">
        <ele>235</ele>
        <time>2022-05-17T05:13:49.575Z</time>
      </trkpt>
      <trkpt lat="45.62471" lon="5.31774">
        <ele>236</ele>
        <time>2022-05-17T05:13:50.575Z</time>
      </trkpt>
      <trkpt lat="45.6247" lon="5.31775">
        <ele>236</ele>
        <time>2022-05-17T05:13:51.574Z</time>
      </trkpt>
      <trkpt lat="45.62469" lon="5.31774">
        <ele>236</ele>
        <time>2022-05-17T05:13:52.575Z</time>
      </trkpt>
      <trkpt lat="45.62467" lon="5.31774">
        <ele>235</ele>
        <time>2022-05-17T05:13:53.575Z</time>
      </trkpt>
      <trkpt lat="45.62464" lon="5.31774">
        <ele>235</ele>
        <time>2022-05-17T05:13:54.574Z</time>
      </trkpt>
      <trkpt lat="45.62463" lon="5.31776">
        <ele>235</ele>
        <time>2022-05-17T05:13:55.574Z</time>
      </trkpt>
      <trkpt lat="45.62463" lon="5.31778">
        <ele>235</ele>
        <time>2022-05-17T05:13:56.574Z</time>
      </trkpt>
      <trkpt lat="45.62464" lon="5.31781">
        <ele>235</ele>
        <time>2022-05-17T05:13:57.575Z</time>
      </trkpt>
      <trkpt lat="45.62466" lon="5.31785">
        <ele>235</ele>
        <time>2022-05-17T05:13:58.575Z</time>
      </trkpt>
      <trkpt lat="45.62468" lon="5.3179">
        <ele>236</ele>
        <time>2022-05-17T05:13:59.575Z</time>
      </trkpt>
      <trkpt lat="45.62469" lon="5.31796">
        <ele>236</ele>
        <time>2022-05-17T05:14:00.575Z</time>
      </trkpt>
      <trkpt lat="45.6247" lon="5.31803">
        <ele>237</ele>
        <time>2022-05-17T05:14:01.575Z</time>
      </trkpt>
      <trkpt lat="45.6247" lon="5.31811">
        <ele>237</ele>
        <time>2022-05-17T05:14:02.575Z</time>
      </trkpt>
      <trkpt lat="45.62469" lon="5.31818">
        <ele>237</ele>
        <time>2022-05-17T05:14:03.574Z</time>
      </trkpt>
      <trkpt lat="45.62468" lon="5.31827">
        <ele>237</ele>
        <time>2022-05-17T05:14:04.574Z</time>
      </trkpt>
      <trkpt lat="45.62467" lon="5.31835">
        <ele>238</ele>
        <time>2022-05-17T05:14:05.575Z</time>
      </trkpt>
      <trkpt lat="45.62466" lon="5.31845">
        <ele>239</ele>
        <time>2022-05-17T05:14:06.574Z</time>
      </trkpt>
      <trkpt lat="45.62464" lon="5.31854">
        <ele>239</ele>
        <time>2022-05-17T05:14:07.575Z</time>
      </trkpt>
      <trkpt lat="45.62462" lon="5.31863">
        <ele>239</ele>
        <time>2022-05-17T05:14:08.574Z</time>
      </trkpt>
      <trkpt lat="45.62459" lon="5.31872">
        <ele>239</ele>
        <time>2022-05-17T05:14:09.574Z</time>
      </trkpt>
      <trkpt lat="45.62457" lon="5.3188">
        <ele>239</ele>
        <time>2022-05-17T05:14:10.574Z</time>
      </trkpt>
      <trkpt lat="45.62454" lon="5.31889">
        <ele>239</ele>
        <time>2022-05-17T05:14:11.574Z</time>
      </trkpt>
      <trkpt lat="45.62451" lon="5.31897">
        <ele>239</ele>
        <time>2022-05-17T05:14:12.575Z</time>
      </trkpt>
      <trkpt lat="45.62448" lon="5.31905">
        <ele>239</ele>
        <time>2022-05-17T05:14:13.574Z</time>
      </trkpt>
      <trkpt lat="45.62445" lon="5.31913">
        <ele>239</ele>
        <time>2022-05-17T05:14:14.575Z</time>
      </trkpt>
      <trkpt lat="45.62442" lon="5.31921">
        <ele>238</ele>
        <time>2022-05-17T05:14:15.575Z</time>
      </trkpt>
      <trkpt lat="45.62439" lon="5.31929">
        <ele>238</ele>
        <time>2022-05-17T05:14:16.575Z</time>
      </trkpt>
      <trkpt lat="45.62436" lon="5.31937">
        <ele>238</ele>
        <time>2022-05-17T05:14:17.575Z</time>
      </trkpt>
      <trkpt lat="45.62433" lon="5.31945">
        <ele>239</ele>
        <time>2022-05-17T05:14:18.574Z</time>
      </trkpt>
      <trkpt lat="45.6243" lon="5.31953">
        <ele>239</ele>
        <time>2022-05-17T05:14:19.575Z</time>
      </trkpt>
      <trkpt lat="45.62428" lon="5.31961">
        <ele>240</ele>
        <time>2022-05-17T05:14:20.574Z</time>
      </trkpt>
      <trkpt lat="45.62426" lon="5.31969">
        <ele>240</ele>
        <time>2022-05-17T05:14:21.574Z</time>
      </trkpt>
      <trkpt lat="45.62424" lon="5.31977">
        <ele>240</ele>
        <time>2022-05-17T05:14:22.575Z</time>
      </trkpt>
      <trkpt lat="45.62422" lon="5.31985">
        <ele>240</ele>
        <time>2022-05-17T05:14:23.575Z</time>
      </trkpt>
      <trkpt lat="45.6242" lon="5.31994">
        <ele>240</ele>
        <time>2022-05-17T05:14:24.574Z</time>
      </trkpt>
      <trkpt lat="45.62419" lon="5.32003">
        <ele>240</ele>
        <time>2022-05-17T05:14:25.575Z</time>
      </trkpt>
      <trkpt lat="45.62417" lon="5.32011">
        <ele>240</ele>
        <time>2022-05-17T05:14:26.575Z</time>
      </trkpt>
      <trkpt lat="45.62416" lon="5.3202">
        <ele>239</ele>
        <time>2022-05-17T05:14:27.575Z</time>
      </trkpt>
      <trkpt lat="45.62415" lon="5.32029">
        <ele>239</ele>
        <time>2022-05-17T05:14:28.575Z</time>
      </trkpt>
      <trkpt lat="45.62413" lon="5.32038">
        <ele>240</ele>
        <time>2022-05-17T05:14:29.575Z</time>
      </trkpt>
      <trkpt lat="45.62412" lon="5.32047">
        <ele>240</ele>
        <time>2022-05-17T05:14:30.575Z</time>
      </trkpt>
      <trkpt lat="45.62411" lon="5.32056">
        <ele>240</ele>
        <time>2022-05-17T05:14:31.575Z</time>
      </trkpt>
      <trkpt lat="45.62409" lon="5.32065">
        <ele>240</ele>
        <time>2022-05-17T05:14:32.575Z</time>
      </trkpt>
      <trkpt lat="45.62408" lon="5.32074">
        <ele>240</ele>
        <time>2022-05-17T05:14:33.575Z</time>
      </trkpt>
      <trkpt lat="45.62406" lon="5.32083">
        <ele>240</ele>
        <time>2022-05-17T05:14:34.575Z</time>
      </trkpt>
      <trkpt lat="45.62405" lon="5.32092">
        <ele>240</ele>
        <time>2022-05-17T05:14:35.574Z</time>
      </trkpt>
      <trkpt lat="45.62404" lon="5.32101">
        <ele>240</ele>
        <time>2022-05-17T05:14:36.575Z</time>
      </trkpt>
      <trkpt lat="45.62402" lon="5.3211">
        <ele>240</ele>
        <time>2022-05-17T05:14:37.574Z</time>
      </trkpt>
      <trkpt lat="45.62401" lon="5.32118">
        <ele>240</ele>
        <time>2022-05-17T05:14:38.574Z</time>
      </trkpt>
      <trkpt lat="45.624" lon="5.32127">
        <ele>239</ele>
        <time>2022-05-17T05:14:39.574Z</time>
      </trkpt>
      <trkpt lat="45.62398" lon="5.32136">
        <ele>239</ele>
        <time>2022-05-17T05:14:40.575Z</time>
      </trkpt>
      <trkpt lat="45.62397" lon="5.32145">
        <ele>239</ele>
        <time>2022-05-17T05:14:41.574Z</time>
      </trkpt>
      <trkpt lat="45.62396" lon="5.32153">
        <ele>239</ele>
        <time>2022-05-17T05:14:42.575Z</time>
      </trkpt>
      <trkpt lat="45.62394" lon="5.32162">
        <ele>239</ele>
        <time>2022-05-17T05:14:43.575Z</time>
      </trkpt>
      <trkpt lat="45.62393" lon="5.32171">
        <ele>239</ele>
        <time>2022-05-17T05:14:44.575Z</time>
      </trkpt>
      <trkpt lat="45.62392" lon="5.32179">
        <ele>239</ele>
        <time>2022-05-17T05:14:45.575Z</time>
      </trkpt>
      <trkpt lat="45.6239" lon="5.32188">
        <ele>239</ele>
        <time>2022-05-17T05:14:46.575Z</time>
      </trkpt>
      <trkpt lat="45.62389" lon="5.32197">
        <ele>239</ele>
        <time>2022-05-17T05:14:47.575Z</time>
      </trkpt>
      <trkpt lat="45.62388" lon="5.32205">
        <ele>239</ele>
        <time>2022-05-17T05:14:48.575Z</time>
      </trkpt>
      <trkpt lat="45.62387" lon="5.32214">
        <ele>239</ele>
        <time>2022-05-17T05:14:49.575Z</time>
      </trkpt>
      <trkpt lat="45.62386" lon="5.32223">
        <ele>239</ele>
        <time>2022-05-17T05:14:50.575Z</time>
      </trkpt>
      <trkpt lat="45.62384" lon="5.32231">
        <ele>239</ele>
        <time>2022-05-17T05:14:51.575Z</time>
      </trkpt>
      <trkpt lat="45.62383" lon="5.3224">
        <ele>239</ele>
        <time>2022-05-17T05:14:52.575Z</time>
      </trkpt>
      <trkpt lat="45.62382" lon="5.32248">
        <ele>239</ele>
        <time>2022-05-17T05:14:53.575Z</time>
      </trkpt>
      <trkpt lat="45.62382" lon="5.32259">
        <ele>239</ele>
        <time>2022-05-17T05:14:54.574Z</time>
      </trkpt>
      <trkpt lat="45.62381" lon="5.32266">
        <ele>240</ele>
        <time>2022-05-17T05:14:55.575Z</time>
      </trkpt>
      <trkpt lat="45.62381" lon="5.32275">
        <ele>240</ele>
        <time>2022-05-17T05:14:56.574Z</time>
      </trkpt>
      <trkpt lat="45.6238" lon="5.32284">
        <ele>240</ele>
        <time>2022-05-17T05:14:57.574Z</time>
      </trkpt>
      <trkpt lat="45.6238" lon="5.32293">
        <ele>240</ele>
        <time>2022-05-17T05:14:58.574Z</time>
      </trkpt>
      <trkpt lat="45.62379" lon="5.32303">
        <ele>240</ele>
        <time>2022-05-17T05:14:59.575Z</time>
      </trkpt>
      <trkpt lat="45.62379" lon="5.32312">
        <ele>239</ele>
        <time>2022-05-17T05:15:00.575Z</time>
      </trkpt>
      <trkpt lat="45.62379" lon="5.32319">
        <ele>239</ele>
        <time>2022-05-17T05:15:01.575Z</time>
      </trkpt>
      <trkpt lat="45.62379" lon="5.32328">
        <ele>239</ele>
        <time>2022-05-17T05:15:02.575Z</time>
      </trkpt>
      <trkpt lat="45.62379" lon="5.32337">
        <ele>239</ele>
        <time>2022-05-17T05:15:03.574Z</time>
      </trkpt>
      <trkpt lat="45.62379" lon="5.32346">
        <ele>239</ele>
        <time>2022-05-17T05:15:04.575Z</time>
      </trkpt>
      <trkpt lat="45.62379" lon="5.32355">
        <ele>239</ele>
        <time>2022-05-17T05:15:05.575Z</time>
      </trkpt>
      <trkpt lat="45.62379" lon="5.32364">
        <ele>239</ele>
        <time>2022-05-17T05:15:06.575Z</time>
      </trkpt>
      <trkpt lat="45.62379" lon="5.32373">
        <ele>239</ele>
        <time>2022-05-17T05:15:07.575Z</time>
      </trkpt>
      <trkpt lat="45.62379" lon="5.32381">
        <ele>239</ele>
        <time>2022-05-17T05:15:08.575Z</time>
      </trkpt>
      <trkpt lat="45.62379" lon="5.3239">
        <ele>239</ele>
        <time>2022-05-17T05:15:09.575Z</time>
      </trkpt>
      <trkpt lat="45.62379" lon="5.32399">
        <ele>240</ele>
        <time>2022-05-17T05:15:10.575Z</time>
      </trkpt>
      <trkpt lat="45.62379" lon="5.32408">
        <ele>240</ele>
        <time>2022-05-17T05:15:11.575Z</time>
      </trkpt>
      <trkpt lat="45.62378" lon="5.32417">
        <ele>240</ele>
        <time>2022-05-17T05:15:12.575Z</time>
      </trkpt>
      <trkpt lat="45.62378" lon="5.32426">
        <ele>241</ele>
        <time>2022-05-17T05:15:13.575Z</time>
      </trkpt>
      <trkpt lat="45.62378" lon="5.32435">
        <ele>241</ele>
        <time>2022-05-17T05:15:14.575Z</time>
      </trkpt>
      <trkpt lat="45.62377" lon="5.32445">
        <ele>241</ele>
        <time>2022-05-17T05:15:15.574Z</time>
      </trkpt>
      <trkpt lat="45.62377" lon="5.32454">
        <ele>242</ele>
        <time>2022-05-17T05:15:16.575Z</time>
      </trkpt>
      <trkpt lat="45.62376" lon="5.32463">
        <ele>242</ele>
        <time>2022-05-17T05:15:17.575Z</time>
      </trkpt>
      <trkpt lat="45.62376" lon="5.32472">
        <ele>242</ele>
        <time>2022-05-17T05:15:18.575Z</time>
      </trkpt>
      <trkpt lat="45.62375" lon="5.32481">
        <ele>242</ele>
        <time>2022-05-17T05:15:19.575Z</time>
      </trkpt>
      <trkpt lat="45.62374" lon="5.3249">
        <ele>242</ele>
        <time>2022-05-17T05:15:20.575Z</time>
      </trkpt>
      <trkpt lat="45.62373" lon="5.32499">
        <ele>242</ele>
        <time>2022-05-17T05:15:21.575Z</time>
      </trkpt>
      <trkpt lat="45.62372" lon="5.32508">
        <ele>242</ele>
        <time>2022-05-17T05:15:22.575Z</time>
      </trkpt>
      <trkpt lat="45.62371" lon="5.32518">
        <ele>243</ele>
        <time>2022-05-17T05:15:23.575Z</time>
      </trkpt>
      <trkpt lat="45.62371" lon="5.32525">
        <ele>243</ele>
        <time>2022-05-17T05:15:24.575Z</time>
      </trkpt>
      <trkpt lat="45.6237" lon="5.32534">
        <ele>244</ele>
        <time>2022-05-17T05:15:25.574Z</time>
      </trkpt>
      <trkpt lat="45.62369" lon="5.32543">
        <ele>245</ele>
        <time>2022-05-17T05:15:26.575Z</time>
      </trkpt>
      <trkpt lat="45.62368" lon="5.32552">
        <ele>245</ele>
        <time>2022-05-17T05:15:27.574Z</time>
      </trkpt>
      <trkpt lat="45.62367" lon="5.32561">
        <ele>246</ele>
        <time>2022-05-17T05:15:28.574Z</time>
      </trkpt>
      <trkpt lat="45.62366" lon="5.3257">
        <ele>246</ele>
        <time>2022-05-17T05:15:29.575Z</time>
      </trkpt>
      <trkpt lat="45.62365" lon="5.32579">
        <ele>246</ele>
        <time>2022-05-17T05:15:30.574Z</time>
      </trkpt>
      <trkpt lat="45.62363" lon="5.32587">
        <ele>246</ele>
        <time>2022-05-17T05:15:31.575Z</time>
      </trkpt>
      <trkpt lat="45.62362" lon="5.32596">
        <ele>245</ele>
        <time>2022-05-17T05:15:32.574Z</time>
      </trkpt>
      <trkpt lat="45.62361" lon="5.32605">
        <ele>245</ele>
        <time>2022-05-17T05:15:33.574Z</time>
      </trkpt>
      <trkpt lat="45.6236" lon="5.32614">
        <ele>245</ele>
        <time>2022-05-17T05:15:34.574Z</time>
      </trkpt>
      <trkpt lat="45.62359" lon="5.32623">
        <ele>244</ele>
        <time>2022-05-17T05:15:35.574Z</time>
      </trkpt>
      <trkpt lat="45.62358" lon="5.32631">
        <ele>245</ele>
        <time>2022-05-17T05:15:36.574Z</time>
      </trkpt>
      <trkpt lat="45.62357" lon="5.3264">
        <ele>245</ele>
        <time>2022-05-17T05:15:37.575Z</time>
      </trkpt>
      <trkpt lat="45.62356" lon="5.32649">
        <ele>245</ele>
        <time>2022-05-17T05:15:38.575Z</time>
      </trkpt>
      <trkpt lat="45.62355" lon="5.32658">
        <ele>245</ele>
        <time>2022-05-17T05:15:39.575Z</time>
      </trkpt>
      <trkpt lat="45.62354" lon="5.32668">
        <ele>245</ele>
        <time>2022-05-17T05:15:40.575Z</time>
      </trkpt>
      <trkpt lat="45.62353" lon="5.32677">
        <ele>245</ele>
        <time>2022-05-17T05:15:41.575Z</time>
      </trkpt>
      <trkpt lat="45.62352" lon="5.32686">
        <ele>245</ele>
        <time>2022-05-17T05:15:42.575Z</time>
      </trkpt>
      <trkpt lat="45.62351" lon="5.32695">
        <ele>245</ele>
        <time>2022-05-17T05:15:43.575Z</time>
      </trkpt>
      <trkpt lat="45.62351" lon="5.32703">
        <ele>245</ele>
        <time>2022-05-17T05:15:44.574Z</time>
      </trkpt>
      <trkpt lat="45.6235" lon="5.32712">
        <ele>245</ele>
        <time>2022-05-17T05:15:45.574Z</time>
      </trkpt>
      <trkpt lat="45.62348" lon="5.3272">
        <ele>245</ele>
        <time>2022-05-17T05:15:46.575Z</time>
      </trkpt>
      <trkpt lat="45.62347" lon="5.32729">
        <ele>246</ele>
        <time>2022-05-17T05:15:47.575Z</time>
      </trkpt>
      <trkpt lat="45.62346" lon="5.32738">
        <ele>246</ele>
        <time>2022-05-17T05:15:48.575Z</time>
      </trkpt>
      <trkpt lat="45.62345" lon="5.32747">
        <ele>245</ele>
        <time>2022-05-17T05:15:49.575Z</time>
      </trkpt>
      <trkpt lat="45.62344" lon="5.32755">
        <ele>245</ele>
        <time>2022-05-17T05:15:50.575Z</time>
      </trkpt>
      <trkpt lat="45.62343" lon="5.32764">
        <ele>245</ele>
        <time>2022-05-17T05:15:51.574Z</time>
      </trkpt>
      <trkpt lat="45.62341" lon="5.32773">
        <ele>245</ele>
        <time>2022-05-17T05:15:52.575Z</time>
      </trkpt>
      <trkpt lat="45.6234" lon="5.32781">
        <ele>245</ele>
        <time>2022-05-17T05:15:53.575Z</time>
      </trkpt>
      <trkpt lat="45.62339" lon="5.3279">
        <ele>245</ele>
        <time>2022-05-17T05:15:54.574Z</time>
      </trkpt>
      <trkpt lat="45.62338" lon="5.32799">
        <ele>245</ele>
        <time>2022-05-17T05:15:55.575Z</time>
      </trkpt>
      <trkpt lat="45.62337" lon="5.32807">
        <ele>245</ele>
        <time>2022-05-17T05:15:56.574Z</time>
      </trkpt>
      <trkpt lat="45.62336" lon="5.32816">
        <ele>245</ele>
        <time>2022-05-17T05:15:57.575Z</time>
      </trkpt>
      <trkpt lat="45.62335" lon="5.32824">
        <ele>245</ele>
        <time>2022-05-17T05:15:58.575Z</time>
      </trkpt>
      <trkpt lat="45.62334" lon="5.32834">
        <ele>245</ele>
        <time>2022-05-17T05:15:59.574Z</time>
      </trkpt>
      <trkpt lat="45.62333" lon="5.32841">
        <ele>245</ele>
        <time>2022-05-17T05:16:00.574Z</time>
      </trkpt>
      <trkpt lat="45.62331" lon="5.32849">
        <ele>245</ele>
        <time>2022-05-17T05:16:01.575Z</time>
      </trkpt>
      <trkpt lat="45.6233" lon="5.32858">
        <ele>245</ele>
        <time>2022-05-17T05:16:02.575Z</time>
      </trkpt>
      <trkpt lat="45.6233" lon="5.32866">
        <ele>245</ele>
        <time>2022-05-17T05:16:03.574Z</time>
      </trkpt>
      <trkpt lat="45.62328" lon="5.32875">
        <ele>245</ele>
        <time>2022-05-17T05:16:04.575Z</time>
      </trkpt>
      <trkpt lat="45.62327" lon="5.32883">
        <ele>245</ele>
        <time>2022-05-17T05:16:05.575Z</time>
      </trkpt>
      <trkpt lat="45.62326" lon="5.32892">
        <ele>246</ele>
        <time>2022-05-17T05:16:06.574Z</time>
      </trkpt>
      <trkpt lat="45.62325" lon="5.329">
        <ele>246</ele>
        <time>2022-05-17T05:16:07.575Z</time>
      </trkpt>
      <trkpt lat="45.62324" lon="5.32909">
        <ele>246</ele>
        <time>2022-05-17T05:16:08.575Z</time>
      </trkpt>
      <trkpt lat="45.62323" lon="5.32917">
        <ele>246</ele>
        <time>2022-05-17T05:16:09.575Z</time>
      </trkpt>
      <trkpt lat="45.62322" lon="5.32926">
        <ele>246</ele>
        <time>2022-05-17T05:16:10.574Z</time>
      </trkpt>
      <trkpt lat="45.62321" lon="5.32935">
        <ele>246</ele>
        <time>2022-05-17T05:16:11.574Z</time>
      </trkpt>
      <trkpt lat="45.62319" lon="5.32944">
        <ele>247</ele>
        <time>2022-05-17T05:16:12.574Z</time>
      </trkpt>
      <trkpt lat="45.62318" lon="5.32952">
        <ele>247</ele>
        <time>2022-05-17T05:16:13.575Z</time>
      </trkpt>
      <trkpt lat="45.62317" lon="5.32963">
        <ele>247</ele>
        <time>2022-05-17T05:16:14.575Z</time>
      </trkpt>
      <trkpt lat="45.62316" lon="5.3297">
        <ele>248</ele>
        <time>2022-05-17T05:16:15.575Z</time>
      </trkpt>
      <trkpt lat="45.62315" lon="5.32979">
        <ele>248</ele>
        <time>2022-05-17T05:16:16.575Z</time>
      </trkpt>
      <trkpt lat="45.62314" lon="5.32988">
        <ele>248</ele>
        <time>2022-05-17T05:16:17.575Z</time>
      </trkpt>
      <trkpt lat="45.62313" lon="5.32996">
        <ele>248</ele>
        <time>2022-05-17T05:16:18.575Z</time>
      </trkpt>
      <trkpt lat="45.62311" lon="5.33006">
        <ele>249</ele>
        <time>2022-05-17T05:16:19.575Z</time>
      </trkpt>
      <trkpt lat="45.62311" lon="5.33013">
        <ele>249</ele>
        <time>2022-05-17T05:16:20.574Z</time>
      </trkpt>
      <trkpt lat="45.62309" lon="5.33021">
        <ele>249</ele>
        <time>2022-05-17T05:16:21.574Z</time>
      </trkpt>
      <trkpt lat="45.62308" lon="5.3303">
        <ele>249</ele>
        <time>2022-05-17T05:16:22.574Z</time>
      </trkpt>
      <trkpt lat="45.62307" lon="5.33038">
        <ele>249</ele>
        <time>2022-05-17T05:16:23.575Z</time>
      </trkpt>
      <trkpt lat="45.62306" lon="5.33046">
        <ele>249</ele>
        <time>2022-05-17T05:16:24.574Z</time>
      </trkpt>
      <trkpt lat="45.62305" lon="5.33055">
        <ele>249</ele>
        <time>2022-05-17T05:16:25.575Z</time>
      </trkpt>
      <trkpt lat="45.62304" lon="5.33063">
        <ele>249</ele>
        <time>2022-05-17T05:16:26.575Z</time>
      </trkpt>
      <trkpt lat="45.62303" lon="5.33071">
        <ele>249</ele>
        <time>2022-05-17T05:16:27.575Z</time>
      </trkpt>
      <trkpt lat="45.62302" lon="5.33079">
        <ele>249</ele>
        <time>2022-05-17T05:16:28.574Z</time>
      </trkpt>
      <trkpt lat="45.62302" lon="5.33086">
        <ele>250</ele>
        <time>2022-05-17T05:16:29.575Z</time>
      </trkpt>
      <trkpt lat="45.62301" lon="5.33094">
        <ele>250</ele>
        <time>2022-05-17T05:16:30.574Z</time>
      </trkpt>
      <trkpt lat="45.623" lon="5.33102">
        <ele>250</ele>
        <time>2022-05-17T05:16:31.575Z</time>
      </trkpt>
      <trkpt lat="45.62299" lon="5.3311">
        <ele>251</ele>
        <time>2022-05-17T05:16:32.574Z</time>
      </trkpt>
      <trkpt lat="45.62298" lon="5.33118">
        <ele>251</ele>
        <time>2022-05-17T05:16:33.575Z</time>
      </trkpt>
      <trkpt lat="45.62297" lon="5.33125">
        <ele>251</ele>
        <time>2022-05-17T05:16:34.574Z</time>
      </trkpt>
      <trkpt lat="45.62296" lon="5.33133">
        <ele>252</ele>
        <time>2022-05-17T05:16:35.575Z</time>
      </trkpt>
      <trkpt lat="45.62295" lon="5.3314">
        <ele>252</ele>
        <time>2022-05-17T05:16:36.574Z</time>
      </trkpt>
      <trkpt lat="45.62294" lon="5.33147">
        <ele>252</ele>
        <time>2022-05-17T05:16:37.574Z</time>
      </trkpt>
      <trkpt lat="45.62293" lon="5.33154">
        <ele>252</ele>
        <time>2022-05-17T05:16:38.574Z</time>
      </trkpt>
      <trkpt lat="45.62292" lon="5.33163">
        <ele>252</ele>
        <time>2022-05-17T05:16:39.574Z</time>
      </trkpt>
      <trkpt lat="45.62291" lon="5.33168">
        <ele>252</ele>
        <time>2022-05-17T05:16:40.575Z</time>
      </trkpt>
      <trkpt lat="45.6229" lon="5.33176">
        <ele>252</ele>
        <time>2022-05-17T05:16:41.574Z</time>
      </trkpt>
      <trkpt lat="45.62289" lon="5.33183">
        <ele>253</ele>
        <time>2022-05-17T05:16:42.575Z</time>
      </trkpt>
      <trkpt lat="45.62288" lon="5.33192">
        <ele>253</ele>
        <time>2022-05-17T05:16:43.575Z</time>
      </trkpt>
      <trkpt lat="45.62288" lon="5.33199">
        <ele>253</ele>
        <time>2022-05-17T05:16:44.575Z</time>
      </trkpt>
      <trkpt lat="45.62287" lon="5.33204">
        <ele>253</ele>
        <time>2022-05-17T05:16:45.575Z</time>
      </trkpt>
      <trkpt lat="45.62286" lon="5.33212">
        <ele>254</ele>
        <time>2022-05-17T05:16:46.574Z</time>
      </trkpt>
      <trkpt lat="45.62285" lon="5.3322">
        <ele>254</ele>
        <time>2022-05-17T05:16:47.574Z</time>
      </trkpt>
      <trkpt lat="45.62284" lon="5.33227">
        <ele>254</ele>
        <time>2022-05-17T05:16:48.575Z</time>
      </trkpt>
      <trkpt lat="45.62284" lon="5.33234">
        <ele>255</ele>
        <time>2022-05-17T05:16:49.575Z</time>
      </trkpt>
      <trkpt lat="45.62283" lon="5.3324">
        <ele>256</ele>
        <time>2022-05-17T05:16:50.575Z</time>
      </trkpt>
      <trkpt lat="45.62282" lon="5.33247">
        <ele>256</ele>
        <time>2022-05-17T05:16:51.574Z</time>
      </trkpt>
      <trkpt lat="45.62281" lon="5.33255">
        <ele>256</ele>
        <time>2022-05-17T05:16:52.574Z</time>
      </trkpt>
      <trkpt lat="45.6228" lon="5.33261">
        <ele>257</ele>
        <time>2022-05-17T05:16:53.575Z</time>
      </trkpt>
      <trkpt lat="45.62279" lon="5.33268">
        <ele>257</ele>
        <time>2022-05-17T05:16:54.574Z</time>
      </trkpt>
      <trkpt lat="45.62278" lon="5.33273">
        <ele>258</ele>
        <time>2022-05-17T05:16:55.574Z</time>
      </trkpt>
      <trkpt lat="45.62278" lon="5.3328">
        <ele>258</ele>
        <time>2022-05-17T05:16:56.574Z</time>
      </trkpt>
      <trkpt lat="45.62277" lon="5.33287">
        <ele>258</ele>
        <time>2022-05-17T05:16:57.575Z</time>
      </trkpt>
      <trkpt lat="45.62276" lon="5.33292">
        <ele>258</ele>
        <time>2022-05-17T05:16:58.575Z</time>
      </trkpt>
      <trkpt lat="45.62275" lon="5.33299">
        <ele>258</ele>
        <time>2022-05-17T05:16:59.575Z</time>
      </trkpt>
      <trkpt lat="45.62275" lon="5.33305">
        <ele>258</ele>
        <time>2022-05-17T05:17:00.575Z</time>
      </trkpt>
      <trkpt lat="45.62274" lon="5.33311">
        <ele>259</ele>
        <time>2022-05-17T05:17:01.574Z</time>
      </trkpt>
      <trkpt lat="45.62274" lon="5.33317">
        <ele>259</ele>
        <time>2022-05-17T05:17:02.575Z</time>
      </trkpt>
      <trkpt lat="45.62273" lon="5.33325">
        <ele>260</ele>
        <time>2022-05-17T05:17:03.575Z</time>
      </trkpt>
      <trkpt lat="45.62272" lon="5.3333">
        <ele>260</ele>
        <time>2022-05-17T05:17:04.574Z</time>
      </trkpt>
      <trkpt lat="45.62272" lon="5.33336">
        <ele>261</ele>
        <time>2022-05-17T05:17:05.574Z</time>
      </trkpt>
      <trkpt lat="45.62271" lon="5.33343">
        <ele>261</ele>
        <time>2022-05-17T05:17:06.575Z</time>
      </trkpt>
      <trkpt lat="45.6227" lon="5.33349">
        <ele>261</ele>
        <time>2022-05-17T05:17:07.575Z</time>
      </trkpt>
      <trkpt lat="45.62269" lon="5.33355">
        <ele>261</ele>
        <time>2022-05-17T05:17:08.575Z</time>
      </trkpt>
      <trkpt lat="45.62269" lon="5.33362">
        <ele>260</ele>
        <time>2022-05-17T05:17:09.575Z</time>
      </trkpt>
      <trkpt lat="45.62268" lon="5.33368">
        <ele>260</ele>
        <time>2022-05-17T05:17:10.575Z</time>
      </trkpt>
      <trkpt lat="45.62267" lon="5.33374">
        <ele>261</ele>
        <time>2022-05-17T05:17:11.575Z</time>
      </trkpt>
      <trkpt lat="45.62266" lon="5.33381">
        <ele>261</ele>
        <time>2022-05-17T05:17:12.575Z</time>
      </trkpt>
      <trkpt lat="45.62265" lon="5.33387">
        <ele>261</ele>
        <time>2022-05-17T05:17:13.575Z</time>
      </trkpt>
      <trkpt lat="45.62265" lon="5.33394">
        <ele>261</ele>
        <time>2022-05-17T05:17:14.575Z</time>
      </trkpt>
      <trkpt lat="45.62264" lon="5.334">
        <ele>262</ele>
        <time>2022-05-17T05:17:15.575Z</time>
      </trkpt>
      <trkpt lat="45.62264" lon="5.33407">
        <ele>262</ele>
        <time>2022-05-17T05:17:16.575Z</time>
      </trkpt>
      <trkpt lat="45.62263" lon="5.33414">
        <ele>262</ele>
        <time>2022-05-17T05:17:17.575Z</time>
      </trkpt>
      <trkpt lat="45.62263" lon="5.3342">
        <ele>262</ele>
        <time>2022-05-17T05:17:18.575Z</time>
      </trkpt>
      <trkpt lat="45.62262" lon="5.33426">
        <ele>263</ele>
        <time>2022-05-17T05:17:19.575Z</time>
      </trkpt>
      <trkpt lat="45.62262" lon="5.33433">
        <ele>263</ele>
        <time>2022-05-17T05:17:20.575Z</time>
      </trkpt>
      <trkpt lat="45.62261" lon="5.33439">
        <ele>263</ele>
        <time>2022-05-17T05:17:21.574Z</time>
      </trkpt>
      <trkpt lat="45.62261" lon="5.33446">
        <ele>263</ele>
        <time>2022-05-17T05:17:22.575Z</time>
      </trkpt>
      <trkpt lat="45.62261" lon="5.33452">
        <ele>263</ele>
        <time>2022-05-17T05:17:23.575Z</time>
      </trkpt>
      <trkpt lat="45.6226" lon="5.33459">
        <ele>263</ele>
        <time>2022-05-17T05:17:24.575Z</time>
      </trkpt>
      <trkpt lat="45.6226" lon="5.33466">
        <ele>263</ele>
        <time>2022-05-17T05:17:25.575Z</time>
      </trkpt>
      <trkpt lat="45.6226" lon="5.33473">
        <ele>263</ele>
        <time>2022-05-17T05:17:26.575Z</time>
      </trkpt>
      <trkpt lat="45.6226" lon="5.3348">
        <ele>263</ele>
        <time>2022-05-17T05:17:27.575Z</time>
      </trkpt>
      <trkpt lat="45.6226" lon="5.33486">
        <ele>263</ele>
        <time>2022-05-17T05:17:28.575Z</time>
      </trkpt>
      <trkpt lat="45.62259" lon="5.33493">
        <ele>263</ele>
        <time>2022-05-17T05:17:29.575Z</time>
      </trkpt>
      <trkpt lat="45.62259" lon="5.33502">
        <ele>264</ele>
        <time>2022-05-17T05:17:30.575Z</time>
      </trkpt>
      <trkpt lat="45.62259" lon="5.33507">
        <ele>264</ele>
        <time>2022-05-17T05:17:31.575Z</time>
      </trkpt>
      <trkpt lat="45.62259" lon="5.33514">
        <ele>264</ele>
        <time>2022-05-17T05:17:32.575Z</time>
      </trkpt>
      <trkpt lat="45.62258" lon="5.33521">
        <ele>265</ele>
        <time>2022-05-17T05:17:33.575Z</time>
      </trkpt>
      <trkpt lat="45.62258" lon="5.3353">
        <ele>266</ele>
        <time>2022-05-17T05:17:34.575Z</time>
      </trkpt>
      <trkpt lat="45.62258" lon="5.33537">
        <ele>266</ele>
        <time>2022-05-17T05:17:35.575Z</time>
      </trkpt>
      <trkpt lat="45.62258" lon="5.33543">
        <ele>267</ele>
        <time>2022-05-17T05:17:36.575Z</time>
      </trkpt>
      <trkpt lat="45.62258" lon="5.3355">
        <ele>267</ele>
        <time>2022-05-17T05:17:37.575Z</time>
      </trkpt>
      <trkpt lat="45.62258" lon="5.33559">
        <ele>267</ele>
        <time>2022-05-17T05:17:38.575Z</time>
      </trkpt>
      <trkpt lat="45.62257" lon="5.33565">
        <ele>267</ele>
        <time>2022-05-17T05:17:39.575Z</time>
      </trkpt>
      <trkpt lat="45.62257" lon="5.33572">
        <ele>267</ele>
        <time>2022-05-17T05:17:40.575Z</time>
      </trkpt>
      <trkpt lat="45.62257" lon="5.33579">
        <ele>268</ele>
        <time>2022-05-17T05:17:41.575Z</time>
      </trkpt>
      <trkpt lat="45.62256" lon="5.33586">
        <ele>268</ele>
        <time>2022-05-17T05:17:42.574Z</time>
      </trkpt>
      <trkpt lat="45.62256" lon="5.33593">
        <ele>268</ele>
        <time>2022-05-17T05:17:43.575Z</time>
      </trkpt>
      <trkpt lat="45.62256" lon="5.33601">
        <ele>268</ele>
        <time>2022-05-17T05:17:44.574Z</time>
      </trkpt>
      <trkpt lat="45.62255" lon="5.33608">
        <ele>268</ele>
        <time>2022-05-17T05:17:45.575Z</time>
      </trkpt>
      <trkpt lat="45.62255" lon="5.33616">
        <ele>268</ele>
        <time>2022-05-17T05:17:46.574Z</time>
      </trkpt>
      <trkpt lat="45.62255" lon="5.33624">
        <ele>268</ele>
        <time>2022-05-17T05:17:47.574Z</time>
      </trkpt>
      <trkpt lat="45.62254" lon="5.33632">
        <ele>269</ele>
        <time>2022-05-17T05:17:48.575Z</time>
      </trkpt>
      <trkpt lat="45.62254" lon="5.33638">
        <ele>269</ele>
        <time>2022-05-17T05:17:49.575Z</time>
      </trkpt>
      <trkpt lat="45.62254" lon="5.33647">
        <ele>270</ele>
        <time>2022-05-17T05:17:50.574Z</time>
      </trkpt>
      <trkpt lat="45.62253" lon="5.33655">
        <ele>270</ele>
        <time>2022-05-17T05:17:51.575Z</time>
      </trkpt>
      <trkpt lat="45.62253" lon="5.33662">
        <ele>270</ele>
        <time>2022-05-17T05:17:52.574Z</time>
      </trkpt>
      <trkpt lat="45.62252" lon="5.3367">
        <ele>270</ele>
        <time>2022-05-17T05:17:53.574Z</time>
      </trkpt>
      <trkpt lat="45.62252" lon="5.33677">
        <ele>271</ele>
        <time>2022-05-17T05:17:54.575Z</time>
      </trkpt>
      <trkpt lat="45.62252" lon="5.33685">
        <ele>271</ele>
        <time>2022-05-17T05:17:55.574Z</time>
      </trkpt>
      <trkpt lat="45.62252" lon="5.33691">
        <ele>271</ele>
        <time>2022-05-17T05:17:56.575Z</time>
      </trkpt>
      <trkpt lat="45.62251" lon="5.337">
        <ele>271</ele>
        <time>2022-05-17T05:17:57.575Z</time>
      </trkpt>
      <trkpt lat="45.62251" lon="5.33708">
        <ele>271</ele>
        <time>2022-05-17T05:17:58.575Z</time>
      </trkpt>
      <trkpt lat="45.6225" lon="5.33715">
        <ele>271</ele>
        <time>2022-05-17T05:17:59.574Z</time>
      </trkpt>
      <trkpt lat="45.6225" lon="5.33723">
        <ele>271</ele>
        <time>2022-05-17T05:18:00.574Z</time>
      </trkpt>
      <trkpt lat="45.6225" lon="5.3373">
        <ele>270</ele>
        <time>2022-05-17T05:18:01.575Z</time>
      </trkpt>
      <trkpt lat="45.62249" lon="5.33739">
        <ele>271</ele>
        <time>2022-05-17T05:18:02.575Z</time>
      </trkpt>
      <trkpt lat="45.62248" lon="5.33747">
        <ele>271</ele>
        <time>2022-05-17T05:18:03.575Z</time>
      </trkpt>
      <trkpt lat="45.62248" lon="5.33754">
        <ele>271</ele>
        <time>2022-05-17T05:18:04.575Z</time>
      </trkpt>
      <trkpt lat="45.62247" lon="5.33762">
        <ele>271</ele>
        <time>2022-05-17T05:18:05.575Z</time>
      </trkpt>
      <trkpt lat="45.62247" lon="5.33772">
        <ele>271</ele>
        <time>2022-05-17T05:18:06.575Z</time>
      </trkpt>
      <trkpt lat="45.62246" lon="5.3378">
        <ele>271</ele>
        <time>2022-05-17T05:18:07.574Z</time>
      </trkpt>
      <trkpt lat="45.62246" lon="5.33788">
        <ele>271</ele>
        <time>2022-05-17T05:18:08.575Z</time>
      </trkpt>
      <trkpt lat="45.62245" lon="5.33795">
        <ele>271</ele>
        <time>2022-05-17T05:18:09.574Z</time>
      </trkpt>
      <trkpt lat="45.62245" lon="5.33804">
        <ele>271</ele>
        <time>2022-05-17T05:18:10.575Z</time>
      </trkpt>
      <trkpt lat="45.62244" lon="5.33814">
        <ele>271</ele>
        <time>2022-05-17T05:18:11.574Z</time>
      </trkpt>
      <trkpt lat="45.62244" lon="5.33822">
        <ele>271</ele>
        <time>2022-05-17T05:18:12.575Z</time>
      </trkpt>
      <trkpt lat="45.62243" lon="5.33831">
        <ele>271</ele>
        <time>2022-05-17T05:18:13.574Z</time>
      </trkpt>
      <trkpt lat="45.62243" lon="5.33843">
        <ele>271</ele>
        <time>2022-05-17T05:18:14.575Z</time>
      </trkpt>
      <trkpt lat="45.62242" lon="5.33851">
        <ele>271</ele>
        <time>2022-05-17T05:18:15.575Z</time>
      </trkpt>
      <trkpt lat="45.62242" lon="5.33864">
        <ele>271</ele>
        <time>2022-05-17T05:18:16.575Z</time>
      </trkpt>
      <trkpt lat="45.62241" lon="5.33875">
        <ele>271</ele>
        <time>2022-05-17T05:18:17.574Z</time>
      </trkpt>
      <trkpt lat="45.6224" lon="5.33886">
        <ele>271</ele>
        <time>2022-05-17T05:18:18.574Z</time>
      </trkpt>
      <trkpt lat="45.62239" lon="5.33897">
        <ele>271</ele>
        <time>2022-05-17T05:18:19.574Z</time>
      </trkpt>
      <trkpt lat="45.62238" lon="5.33909">
        <ele>271</ele>
        <time>2022-05-17T05:18:20.575Z</time>
      </trkpt>
      <trkpt lat="45.62237" lon="5.33921">
        <ele>271</ele>
        <time>2022-05-17T05:18:21.575Z</time>
      </trkpt>
      <trkpt lat="45.62236" lon="5.33933">
        <ele>271</ele>
        <time>2022-05-17T05:18:22.574Z</time>
      </trkpt>
      <trkpt lat="45.62235" lon="5.33945">
        <ele>270</ele>
        <time>2022-05-17T05:18:23.575Z</time>
      </trkpt>
      <trkpt lat="45.62234" lon="5.33954">
        <ele>270</ele>
        <time>2022-05-17T05:18:24.575Z</time>
      </trkpt>
      <trkpt lat="45.62233" lon="5.33969">
        <ele>270</ele>
        <time>2022-05-17T05:18:25.575Z</time>
      </trkpt>
      <trkpt lat="45.62232" lon="5.33981">
        <ele>269</ele>
        <time>2022-05-17T05:18:26.574Z</time>
      </trkpt>
      <trkpt lat="45.62231" lon="5.33993">
        <ele>269</ele>
        <time>2022-05-17T05:18:27.574Z</time>
      </trkpt>
      <trkpt lat="45.6223" lon="5.34005">
        <ele>269</ele>
        <time>2022-05-17T05:18:28.575Z</time>
      </trkpt>
      <trkpt lat="45.62229" lon="5.34015">
        <ele>269</ele>
        <time>2022-05-17T05:18:29.575Z</time>
      </trkpt>
      <trkpt lat="45.62228" lon="5.34029">
        <ele>269</ele>
        <time>2022-05-17T05:18:30.575Z</time>
      </trkpt>
      <trkpt lat="45.62227" lon="5.34041">
        <ele>269</ele>
        <time>2022-05-17T05:18:31.575Z</time>
      </trkpt>
      <trkpt lat="45.62226" lon="5.34053">
        <ele>269</ele>
        <time>2022-05-17T05:18:32.575Z</time>
      </trkpt>
      <trkpt lat="45.62225" lon="5.34065">
        <ele>269</ele>
        <time>2022-05-17T05:18:33.575Z</time>
      </trkpt>
      <trkpt lat="45.62224" lon="5.34077">
        <ele>269</ele>
        <time>2022-05-17T05:18:34.575Z</time>
      </trkpt>
      <trkpt lat="45.62223" lon="5.34088">
        <ele>269</ele>
        <time>2022-05-17T05:18:35.575Z</time>
      </trkpt>
      <trkpt lat="45.62222" lon="5.341">
        <ele>268</ele>
        <time>2022-05-17T05:18:36.575Z</time>
      </trkpt>
      <trkpt lat="45.62222" lon="5.34112">
        <ele>268</ele>
        <time>2022-05-17T05:18:37.574Z</time>
      </trkpt>
      <trkpt lat="45.62221" lon="5.34124">
        <ele>268</ele>
        <time>2022-05-17T05:18:38.575Z</time>
      </trkpt>
      <trkpt lat="45.62221" lon="5.34136">
        <ele>268</ele>
        <time>2022-05-17T05:18:39.575Z</time>
      </trkpt>
      <trkpt lat="45.6222" lon="5.34147">
        <ele>268</ele>
        <time>2022-05-17T05:18:40.574Z</time>
      </trkpt>
      <trkpt lat="45.6222" lon="5.34158">
        <ele>268</ele>
        <time>2022-05-17T05:18:41.575Z</time>
      </trkpt>
      <trkpt lat="45.62219" lon="5.3417">
        <ele>268</ele>
        <time>2022-05-17T05:18:42.575Z</time>
      </trkpt>
      <trkpt lat="45.62219" lon="5.34181">
        <ele>268</ele>
        <time>2022-05-17T05:18:43.575Z</time>
      </trkpt>
      <trkpt lat="45.62218" lon="5.34192">
        <ele>268</ele>
        <time>2022-05-17T05:18:44.575Z</time>
      </trkpt>
      <trkpt lat="45.62218" lon="5.34203">
        <ele>268</ele>
        <time>2022-05-17T05:18:45.575Z</time>
      </trkpt>
      <trkpt lat="45.62218" lon="5.34214">
        <ele>268</ele>
        <time>2022-05-17T05:18:46.575Z</time>
      </trkpt>
      <trkpt lat="45.62217" lon="5.34225">
        <ele>268</ele>
        <time>2022-05-17T05:18:47.574Z</time>
      </trkpt>
      <trkpt lat="45.62217" lon="5.34235">
        <ele>268</ele>
        <time>2022-05-17T05:18:48.574Z</time>
      </trkpt>
      <trkpt lat="45.62217" lon="5.34243">
        <ele>269</ele>
        <time>2022-05-17T05:18:49.575Z</time>
      </trkpt>
      <trkpt lat="45.62216" lon="5.34254">
        <ele>269</ele>
        <time>2022-05-17T05:18:50.574Z</time>
      </trkpt>
      <trkpt lat="45.62216" lon="5.34263">
        <ele>269</ele>
        <time>2022-05-17T05:18:51.575Z</time>
      </trkpt>
      <trkpt lat="45.62216" lon="5.34272">
        <ele>269</ele>
        <time>2022-05-17T05:18:52.574Z</time>
      </trkpt>
      <trkpt lat="45.62215" lon="5.3428">
        <ele>269</ele>
        <time>2022-05-17T05:18:53.574Z</time>
      </trkpt>
      <trkpt lat="45.62215" lon="5.34287">
        <ele>269</ele>
        <time>2022-05-17T05:18:54.575Z</time>
      </trkpt>
      <trkpt lat="45.62215" lon="5.34295">
        <ele>269</ele>
        <time>2022-05-17T05:18:55.574Z</time>
      </trkpt>
      <trkpt lat="45.62215" lon="5.34304">
        <ele>269</ele>
        <time>2022-05-17T05:18:56.575Z</time>
      </trkpt>
      <trkpt lat="45.62215" lon="5.34312">
        <ele>270</ele>
        <time>2022-05-17T05:18:57.575Z</time>
      </trkpt>
      <trkpt lat="45.62215" lon="5.3432">
        <ele>270</ele>
        <time>2022-05-17T05:18:58.575Z</time>
      </trkpt>
      <trkpt lat="45.62215" lon="5.34328">
        <ele>270</ele>
        <time>2022-05-17T05:18:59.575Z</time>
      </trkpt>
      <trkpt lat="45.62216" lon="5.34336">
        <ele>271</ele>
        <time>2022-05-17T05:19:00.575Z</time>
      </trkpt>
      <trkpt lat="45.62216" lon="5.34343">
        <ele>271</ele>
        <time>2022-05-17T05:19:01.575Z</time>
      </trkpt>
      <trkpt lat="45.62215" lon="5.34351">
        <ele>271</ele>
        <time>2022-05-17T05:19:02.575Z</time>
      </trkpt>
      <trkpt lat="45.62215" lon="5.34358">
        <ele>271</ele>
        <time>2022-05-17T05:19:03.575Z</time>
      </trkpt>
      <trkpt lat="45.62215" lon="5.34366">
        <ele>271</ele>
        <time>2022-05-17T05:19:04.575Z</time>
      </trkpt>
      <trkpt lat="45.62215" lon="5.34373">
        <ele>271</ele>
        <time>2022-05-17T05:19:05.575Z</time>
      </trkpt>
      <trkpt lat="45.62215" lon="5.34381">
        <ele>272</ele>
        <time>2022-05-17T05:19:06.575Z</time>
      </trkpt>
      <trkpt lat="45.62215" lon="5.34388">
        <ele>272</ele>
        <time>2022-05-17T05:19:07.575Z</time>
      </trkpt>
      <trkpt lat="45.62215" lon="5.34394">
        <ele>272</ele>
        <time>2022-05-17T05:19:08.574Z</time>
      </trkpt>
      <trkpt lat="45.62215" lon="5.34403">
        <ele>273</ele>
        <time>2022-05-17T05:19:09.574Z</time>
      </trkpt>
      <trkpt lat="45.62215" lon="5.3441">
        <ele>273</ele>
        <time>2022-05-17T05:19:10.574Z</time>
      </trkpt>
      <trkpt lat="45.62215" lon="5.34418">
        <ele>274</ele>
        <time>2022-05-17T05:19:11.574Z</time>
      </trkpt>
      <trkpt lat="45.62215" lon="5.34425">
        <ele>274</ele>
        <time>2022-05-17T05:19:12.575Z</time>
      </trkpt>
      <trkpt lat="45.62215" lon="5.34431">
        <ele>275</ele>
        <time>2022-05-17T05:19:13.575Z</time>
      </trkpt>
      <trkpt lat="45.62215" lon="5.34438">
        <ele>275</ele>
        <time>2022-05-17T05:19:14.575Z</time>
      </trkpt>
      <trkpt lat="45.62215" lon="5.34447">
        <ele>275</ele>
        <time>2022-05-17T05:19:15.575Z</time>
      </trkpt>
      <trkpt lat="45.62215" lon="5.34455">
        <ele>275</ele>
        <time>2022-05-17T05:19:16.574Z</time>
      </trkpt>
      <trkpt lat="45.62215" lon="5.34462">
        <ele>275</ele>
        <time>2022-05-17T05:19:17.575Z</time>
      </trkpt>
      <trkpt lat="45.62215" lon="5.34469">
        <ele>274</ele>
        <time>2022-05-17T05:19:18.574Z</time>
      </trkpt>
      <trkpt lat="45.62215" lon="5.34477">
        <ele>274</ele>
        <time>2022-05-17T05:19:19.575Z</time>
      </trkpt>
      <trkpt lat="45.62215" lon="5.34487">
        <ele>274</ele>
        <time>2022-05-17T05:19:20.575Z</time>
      </trkpt>
      <trkpt lat="45.62215" lon="5.34495">
        <ele>274</ele>
        <time>2022-05-17T05:19:21.575Z</time>
      </trkpt>
      <trkpt lat="45.62216" lon="5.34503">
        <ele>274</ele>
        <time>2022-05-17T05:19:22.575Z</time>
      </trkpt>
      <trkpt lat="45.62216" lon="5.3451">
        <ele>275</ele>
        <time>2022-05-17T05:19:23.575Z</time>
      </trkpt>
      <trkpt lat="45.62216" lon="5.34519">
        <ele>275</ele>
        <time>2022-05-17T05:19:24.575Z</time>
      </trkpt>
      <trkpt lat="45.62216" lon="5.3453">
        <ele>275</ele>
        <time>2022-05-17T05:19:25.574Z</time>
      </trkpt>
      <trkpt lat="45.62216" lon="5.34539">
        <ele>275</ele>
        <time>2022-05-17T05:19:26.575Z</time>
      </trkpt>
      <trkpt lat="45.62215" lon="5.34549">
        <ele>275</ele>
        <time>2022-05-17T05:19:27.575Z</time>
      </trkpt>
      <trkpt lat="45.62215" lon="5.34556">
        <ele>276</ele>
        <time>2022-05-17T05:19:28.575Z</time>
      </trkpt>
      <trkpt lat="45.62214" lon="5.34568">
        <ele>276</ele>
        <time>2022-05-17T05:19:29.575Z</time>
      </trkpt>
      <trkpt lat="45.62214" lon="5.34577">
        <ele>276</ele>
        <time>2022-05-17T05:19:30.574Z</time>
      </trkpt>
      <trkpt lat="45.62213" lon="5.34587">
        <ele>276</ele>
        <time>2022-05-17T05:19:31.574Z</time>
      </trkpt>
      <trkpt lat="45.62212" lon="5.34597">
        <ele>277</ele>
        <time>2022-05-17T05:19:32.574Z</time>
      </trkpt>
      <trkpt lat="45.62211" lon="5.34606">
        <ele>277</ele>
        <time>2022-05-17T05:19:33.575Z</time>
      </trkpt>
      <trkpt lat="45.6221" lon="5.34616">
        <ele>277</ele>
        <time>2022-05-17T05:19:34.575Z</time>
      </trkpt>
      <trkpt lat="45.62208" lon="5.34628">
        <ele>276</ele>
        <time>2022-05-17T05:19:35.575Z</time>
      </trkpt>
      <trkpt lat="45.62207" lon="5.34637">
        <ele>276</ele>
        <time>2022-05-17T05:19:36.575Z</time>
      </trkpt>
      <trkpt lat="45.62206" lon="5.34647">
        <ele>276</ele>
        <time>2022-05-17T05:19:37.575Z</time>
      </trkpt>
      <trkpt lat="45.62205" lon="5.34658">
        <ele>276</ele>
        <time>2022-05-17T05:19:38.575Z</time>
      </trkpt>
      <trkpt lat="45.62204" lon="5.34669">
        <ele>276</ele>
        <time>2022-05-17T05:19:39.575Z</time>
      </trkpt>
      <trkpt lat="45.62202" lon="5.34681">
        <ele>276</ele>
        <time>2022-05-17T05:19:40.575Z</time>
      </trkpt>
      <trkpt lat="45.62201" lon="5.34692">
        <ele>276</ele>
        <time>2022-05-17T05:19:41.575Z</time>
      </trkpt>
      <trkpt lat="45.622" lon="5.34703">
        <ele>276</ele>
        <time>2022-05-17T05:19:42.575Z</time>
      </trkpt>
      <trkpt lat="45.62199" lon="5.34713">
        <ele>276</ele>
        <time>2022-05-17T05:19:43.574Z</time>
      </trkpt>
      <trkpt lat="45.62197" lon="5.34724">
        <ele>276</ele>
        <time>2022-05-17T05:19:44.575Z</time>
      </trkpt>
      <trkpt lat="45.62196" lon="5.34735">
        <ele>276</ele>
        <time>2022-05-17T05:19:45.575Z</time>
      </trkpt>
      <trkpt lat="45.62195" lon="5.34745">
        <ele>276</ele>
        <time>2022-05-17T05:19:46.574Z</time>
      </trkpt>
      <trkpt lat="45.62194" lon="5.34756">
        <ele>275</ele>
        <time>2022-05-17T05:19:47.574Z</time>
      </trkpt>
      <trkpt lat="45.62193" lon="5.34766">
        <ele>275</ele>
        <time>2022-05-17T05:19:48.574Z</time>
      </trkpt>
      <trkpt lat="45.62192" lon="5.34777">
        <ele>275</ele>
        <time>2022-05-17T05:19:49.575Z</time>
      </trkpt>
      <trkpt lat="45.62191" lon="5.34787">
        <ele>275</ele>
        <time>2022-05-17T05:19:50.574Z</time>
      </trkpt>
      <trkpt lat="45.6219" lon="5.34798">
        <ele>274</ele>
        <time>2022-05-17T05:19:51.575Z</time>
      </trkpt>
      <trkpt lat="45.62189" lon="5.34808">
        <ele>275</ele>
        <time>2022-05-17T05:19:52.574Z</time>
      </trkpt>
      <trkpt lat="45.62188" lon="5.34819">
        <ele>275</ele>
        <time>2022-05-17T05:19:53.574Z</time>
      </trkpt>
      <trkpt lat="45.62187" lon="5.34829">
        <ele>275</ele>
        <time>2022-05-17T05:19:54.575Z</time>
      </trkpt>
      <trkpt lat="45.62187" lon="5.34839">
        <ele>274</ele>
        <time>2022-05-17T05:19:55.574Z</time>
      </trkpt>
      <trkpt lat="45.62186" lon="5.34849">
        <ele>274</ele>
        <time>2022-05-17T05:19:56.575Z</time>
      </trkpt>
      <trkpt lat="45.62185" lon="5.34859">
        <ele>274</ele>
        <time>2022-05-17T05:19:57.575Z</time>
      </trkpt>
      <trkpt lat="45.62184" lon="5.34867">
        <ele>274</ele>
        <time>2022-05-17T05:19:58.574Z</time>
      </trkpt>
      <trkpt lat="45.62183" lon="5.34879">
        <ele>274</ele>
        <time>2022-05-17T05:19:59.575Z</time>
      </trkpt>
      <trkpt lat="45.62182" lon="5.34888">
        <ele>274</ele>
        <time>2022-05-17T05:20:00.574Z</time>
      </trkpt>
      <trkpt lat="45.62181" lon="5.34898">
        <ele>274</ele>
        <time>2022-05-17T05:20:01.575Z</time>
      </trkpt>
      <trkpt lat="45.62181" lon="5.34907">
        <ele>274</ele>
        <time>2022-05-17T05:20:02.575Z</time>
      </trkpt>
      <trkpt lat="45.6218" lon="5.34915">
        <ele>274</ele>
        <time>2022-05-17T05:20:03.574Z</time>
      </trkpt>
      <trkpt lat="45.62179" lon="5.34926">
        <ele>274</ele>
        <time>2022-05-17T05:20:04.575Z</time>
      </trkpt>
      <trkpt lat="45.62178" lon="5.34935">
        <ele>274</ele>
        <time>2022-05-17T05:20:05.575Z</time>
      </trkpt>
      <trkpt lat="45.62177" lon="5.34944">
        <ele>275</ele>
        <time>2022-05-17T05:20:06.575Z</time>
      </trkpt>
      <trkpt lat="45.62176" lon="5.34951">
        <ele>275</ele>
        <time>2022-05-17T05:20:07.575Z</time>
      </trkpt>
      <trkpt lat="45.62175" lon="5.34961">
        <ele>274</ele>
        <time>2022-05-17T05:20:08.575Z</time>
      </trkpt>
      <trkpt lat="45.62175" lon="5.3497">
        <ele>275</ele>
        <time>2022-05-17T05:20:09.574Z</time>
      </trkpt>
      <trkpt lat="45.62174" lon="5.34979">
        <ele>275</ele>
        <time>2022-05-17T05:20:10.574Z</time>
      </trkpt>
      <trkpt lat="45.62173" lon="5.34988">
        <ele>275</ele>
        <time>2022-05-17T05:20:11.575Z</time>
      </trkpt>
      <trkpt lat="45.62173" lon="5.34996">
        <ele>276</ele>
        <time>2022-05-17T05:20:12.574Z</time>
      </trkpt>
      <trkpt lat="45.62172" lon="5.35006">
        <ele>276</ele>
        <time>2022-05-17T05:20:13.575Z</time>
      </trkpt>
      <trkpt lat="45.62171" lon="5.35015">
        <ele>276</ele>
        <time>2022-05-17T05:20:14.574Z</time>
      </trkpt>
      <trkpt lat="45.62171" lon="5.35024">
        <ele>276</ele>
        <time>2022-05-17T05:20:15.575Z</time>
      </trkpt>
      <trkpt lat="45.6217" lon="5.35033">
        <ele>276</ele>
        <time>2022-05-17T05:20:16.575Z</time>
      </trkpt>
      <trkpt lat="45.62169" lon="5.3504">
        <ele>276</ele>
        <time>2022-05-17T05:20:17.575Z</time>
      </trkpt>
      <trkpt lat="45.62168" lon="5.35051">
        <ele>276</ele>
        <time>2022-05-17T05:20:18.574Z</time>
      </trkpt>
      <trkpt lat="45.62167" lon="5.3506">
        <ele>276</ele>
        <time>2022-05-17T05:20:19.575Z</time>
      </trkpt>
      <trkpt lat="45.62167" lon="5.35069">
        <ele>276</ele>
        <time>2022-05-17T05:20:20.575Z</time>
      </trkpt>
      <trkpt lat="45.62166" lon="5.35078">
        <ele>277</ele>
        <time>2022-05-17T05:20:21.575Z</time>
      </trkpt>
      <trkpt lat="45.62165" lon="5.35085">
        <ele>277</ele>
        <time>2022-05-17T05:20:22.575Z</time>
      </trkpt>
      <trkpt lat="45.62165" lon="5.35094">
        <ele>277</ele>
        <time>2022-05-17T05:20:23.575Z</time>
      </trkpt>
      <trkpt lat="45.62164" lon="5.35105">
        <ele>278</ele>
        <time>2022-05-17T05:20:24.575Z</time>
      </trkpt>
      <trkpt lat="45.62163" lon="5.35114">
        <ele>278</ele>
        <time>2022-05-17T05:20:25.574Z</time>
      </trkpt>
      <trkpt lat="45.62162" lon="5.35123">
        <ele>278</ele>
        <time>2022-05-17T05:20:26.575Z</time>
      </trkpt>
      <trkpt lat="45.62161" lon="5.35132">
        <ele>277</ele>
        <time>2022-05-17T05:20:27.575Z</time>
      </trkpt>
      <trkpt lat="45.62161" lon="5.35138">
        <ele>277</ele>
        <time>2022-05-17T05:20:28.575Z</time>
      </trkpt>
      <trkpt lat="45.6216" lon="5.35149">
        <ele>277</ele>
        <time>2022-05-17T05:20:29.575Z</time>
      </trkpt>
      <trkpt lat="45.62159" lon="5.35158">
        <ele>277</ele>
        <time>2022-05-17T05:20:30.574Z</time>
      </trkpt>
      <trkpt lat="45.62159" lon="5.35165">
        <ele>278</ele>
        <time>2022-05-17T05:20:31.575Z</time>
      </trkpt>
      <trkpt lat="45.62158" lon="5.35174">
        <ele>278</ele>
        <time>2022-05-17T05:20:32.575Z</time>
      </trkpt>
      <trkpt lat="45.62157" lon="5.35182">
        <ele>278</ele>
        <time>2022-05-17T05:20:33.575Z</time>
      </trkpt>
      <trkpt lat="45.62156" lon="5.35192">
        <ele>278</ele>
        <time>2022-05-17T05:20:34.575Z</time>
      </trkpt>
      <trkpt lat="45.62155" lon="5.35201">
        <ele>278</ele>
        <time>2022-05-17T05:20:35.575Z</time>
      </trkpt>
      <trkpt lat="45.62155" lon="5.35209">
        <ele>278</ele>
        <time>2022-05-17T05:20:36.575Z</time>
      </trkpt>
      <trkpt lat="45.62154" lon="5.35218">
        <ele>278</ele>
        <time>2022-05-17T05:20:37.575Z</time>
      </trkpt>
      <trkpt lat="45.62153" lon="5.35226">
        <ele>278</ele>
        <time>2022-05-17T05:20:38.575Z</time>
      </trkpt>
      <trkpt lat="45.62153" lon="5.35234">
        <ele>279</ele>
        <time>2022-05-17T05:20:39.575Z</time>
      </trkpt>
      <trkpt lat="45.62152" lon="5.35243">
        <ele>279</ele>
        <time>2022-05-17T05:20:40.574Z</time>
      </trkpt>
      <trkpt lat="45.62152" lon="5.35251">
        <ele>279</ele>
        <time>2022-05-17T05:20:41.574Z</time>
      </trkpt>
      <trkpt lat="45.62151" lon="5.35259">
        <ele>279</ele>
        <time>2022-05-17T05:20:42.575Z</time>
      </trkpt>
      <trkpt lat="45.6215" lon="5.35268">
        <ele>279</ele>
        <time>2022-05-17T05:20:43.574Z</time>
      </trkpt>
      <trkpt lat="45.62149" lon="5.35276">
        <ele>278</ele>
        <time>2022-05-17T05:20:44.575Z</time>
      </trkpt>
      <trkpt lat="45.62149" lon="5.35284">
        <ele>278</ele>
        <time>2022-05-17T05:20:45.574Z</time>
      </trkpt>
      <trkpt lat="45.62149" lon="5.35293">
        <ele>278</ele>
        <time>2022-05-17T05:20:46.574Z</time>
      </trkpt>
      <trkpt lat="45.62149" lon="5.35299">
        <ele>278</ele>
        <time>2022-05-17T05:20:47.575Z</time>
      </trkpt>
      <trkpt lat="45.62149" lon="5.35307">
        <ele>279</ele>
        <time>2022-05-17T05:20:48.575Z</time>
      </trkpt>
      <trkpt lat="45.62148" lon="5.35317">
        <ele>279</ele>
        <time>2022-05-17T05:20:49.575Z</time>
      </trkpt>
      <trkpt lat="45.62147" lon="5.35326">
        <ele>279</ele>
        <time>2022-05-17T05:20:50.574Z</time>
      </trkpt>
      <trkpt lat="45.62146" lon="5.35334">
        <ele>279</ele>
        <time>2022-05-17T05:20:51.574Z</time>
      </trkpt>
      <trkpt lat="45.62144" lon="5.35343">
        <ele>279</ele>
        <time>2022-05-17T05:20:52.574Z</time>
      </trkpt>
      <trkpt lat="45.62142" lon="5.35351">
        <ele>279</ele>
        <time>2022-05-17T05:20:53.575Z</time>
      </trkpt>
      <trkpt lat="45.6214" lon="5.35359">
        <ele>279</ele>
        <time>2022-05-17T05:20:54.575Z</time>
      </trkpt>
      <trkpt lat="45.62138" lon="5.35367">
        <ele>279</ele>
        <time>2022-05-17T05:20:55.574Z</time>
      </trkpt>
      <trkpt lat="45.62136" lon="5.35374">
        <ele>279</ele>
        <time>2022-05-17T05:20:56.575Z</time>
      </trkpt>
      <trkpt lat="45.62134" lon="5.35382">
        <ele>279</ele>
        <time>2022-05-17T05:20:57.575Z</time>
      </trkpt>
      <trkpt lat="45.62131" lon="5.35392">
        <ele>279</ele>
        <time>2022-05-17T05:20:58.574Z</time>
      </trkpt>
      <trkpt lat="45.62129" lon="5.354">
        <ele>279</ele>
        <time>2022-05-17T05:20:59.575Z</time>
      </trkpt>
      <trkpt lat="45.62126" lon="5.35408">
        <ele>279</ele>
        <time>2022-05-17T05:21:00.575Z</time>
      </trkpt>
      <trkpt lat="45.62125" lon="5.35414">
        <ele>280</ele>
        <time>2022-05-17T05:21:01.575Z</time>
      </trkpt>
      <trkpt lat="45.62122" lon="5.35424">
        <ele>280</ele>
        <time>2022-05-17T05:21:02.574Z</time>
      </trkpt>
      <trkpt lat="45.6212" lon="5.35432">
        <ele>280</ele>
        <time>2022-05-17T05:21:03.574Z</time>
      </trkpt>
      <trkpt lat="45.62118" lon="5.3544">
        <ele>280</ele>
        <time>2022-05-17T05:21:04.575Z</time>
      </trkpt>
      <trkpt lat="45.62116" lon="5.35448">
        <ele>280</ele>
        <time>2022-05-17T05:21:05.575Z</time>
      </trkpt>
      <trkpt lat="45.62115" lon="5.35454">
        <ele>280</ele>
        <time>2022-05-17T05:21:06.575Z</time>
      </trkpt>
      <trkpt lat="45.62113" lon="5.35462">
        <ele>281</ele>
        <time>2022-05-17T05:21:07.575Z</time>
      </trkpt>
      <trkpt lat="45.62111" lon="5.35471">
        <ele>281</ele>
        <time>2022-05-17T05:21:08.575Z</time>
      </trkpt>
      <trkpt lat="45.62109" lon="5.35477">
        <ele>281</ele>
        <time>2022-05-17T05:21:09.574Z</time>
      </trkpt>
      <trkpt lat="45.62107" lon="5.35485">
        <ele>281</ele>
        <time>2022-05-17T05:21:10.575Z</time>
      </trkpt>
      <trkpt lat="45.62105" lon="5.35492">
        <ele>281</ele>
        <time>2022-05-17T05:21:11.575Z</time>
      </trkpt>
      <trkpt lat="45.62104" lon="5.355">
        <ele>281</ele>
        <time>2022-05-17T05:21:12.575Z</time>
      </trkpt>
      <trkpt lat="45.62101" lon="5.35509">
        <ele>281</ele>
        <time>2022-05-17T05:21:13.575Z</time>
      </trkpt>
      <trkpt lat="45.621" lon="5.35516">
        <ele>282</ele>
        <time>2022-05-17T05:21:14.575Z</time>
      </trkpt>
      <trkpt lat="45.62098" lon="5.35524">
        <ele>282</ele>
        <time>2022-05-17T05:21:15.575Z</time>
      </trkpt>
      <trkpt lat="45.62096" lon="5.3553">
        <ele>282</ele>
        <time>2022-05-17T05:21:16.575Z</time>
      </trkpt>
      <trkpt lat="45.62094" lon="5.35537">
        <ele>283</ele>
        <time>2022-05-17T05:21:17.575Z</time>
      </trkpt>
      <trkpt lat="45.62092" lon="5.35546">
        <ele>283</ele>
        <time>2022-05-17T05:21:18.574Z</time>
      </trkpt>
      <trkpt lat="45.62091" lon="5.35554">
        <ele>283</ele>
        <time>2022-05-17T05:21:19.574Z</time>
      </trkpt>
      <trkpt lat="45.62089" lon="5.35561">
        <ele>283</ele>
        <time>2022-05-17T05:21:20.575Z</time>
      </trkpt>
      <trkpt lat="45.62087" lon="5.35567">
        <ele>283</ele>
        <time>2022-05-17T05:21:21.574Z</time>
      </trkpt>
      <trkpt lat="45.62086" lon="5.35575">
        <ele>283</ele>
        <time>2022-05-17T05:21:22.575Z</time>
      </trkpt>
      <trkpt lat="45.62084" lon="5.35584">
        <ele>283</ele>
        <time>2022-05-17T05:21:23.575Z</time>
      </trkpt>
      <trkpt lat="45.62082" lon="5.35591">
        <ele>283</ele>
        <time>2022-05-17T05:21:24.575Z</time>
      </trkpt>
      <trkpt lat="45.62081" lon="5.35597">
        <ele>283</ele>
        <time>2022-05-17T05:21:25.574Z</time>
      </trkpt>
      <trkpt lat="45.62079" lon="5.35605">
        <ele>283</ele>
        <time>2022-05-17T05:21:26.575Z</time>
      </trkpt>
      <trkpt lat="45.62077" lon="5.35612">
        <ele>283</ele>
        <time>2022-05-17T05:21:27.575Z</time>
      </trkpt>
      <trkpt lat="45.62075" lon="5.3562">
        <ele>283</ele>
        <time>2022-05-17T05:21:28.575Z</time>
      </trkpt>
      <trkpt lat="45.62073" lon="5.35629">
        <ele>283</ele>
        <time>2022-05-17T05:21:29.575Z</time>
      </trkpt>
      <trkpt lat="45.62071" lon="5.35636">
        <ele>283</ele>
        <time>2022-05-17T05:21:30.574Z</time>
      </trkpt>
      <trkpt lat="45.62069" lon="5.35642">
        <ele>283</ele>
        <time>2022-05-17T05:21:31.575Z</time>
      </trkpt>
      <trkpt lat="45.62067" lon="5.3565">
        <ele>284</ele>
        <time>2022-05-17T05:21:32.575Z</time>
      </trkpt>
      <trkpt lat="45.62065" lon="5.35659">
        <ele>284</ele>
        <time>2022-05-17T05:21:33.574Z</time>
      </trkpt>
      <trkpt lat="45.62063" lon="5.35667">
        <ele>284</ele>
        <time>2022-05-17T05:21:34.574Z</time>
      </trkpt>
      <trkpt lat="45.62062" lon="5.35673">
        <ele>285</ele>
        <time>2022-05-17T05:21:35.575Z</time>
      </trkpt>
      <trkpt lat="45.6206" lon="5.35681">
        <ele>285</ele>
        <time>2022-05-17T05:21:36.574Z</time>
      </trkpt>
      <trkpt lat="45.62059" lon="5.35689">
        <ele>286</ele>
        <time>2022-05-17T05:21:37.575Z</time>
      </trkpt>
      <trkpt lat="45.62056" lon="5.35697">
        <ele>286</ele>
        <time>2022-05-17T05:21:38.574Z</time>
      </trkpt>
      <trkpt lat="45.62054" lon="5.35706">
        <ele>286</ele>
        <time>2022-05-17T05:21:39.575Z</time>
      </trkpt>
      <trkpt lat="45.62052" lon="5.35713">
        <ele>286</ele>
        <time>2022-05-17T05:21:40.575Z</time>
      </trkpt>
      <trkpt lat="45.62051" lon="5.35719">
        <ele>286</ele>
        <time>2022-05-17T05:21:41.574Z</time>
      </trkpt>
      <trkpt lat="45.62049" lon="5.35727">
        <ele>286</ele>
        <time>2022-05-17T05:21:42.575Z</time>
      </trkpt>
      <trkpt lat="45.62046" lon="5.35736">
        <ele>286</ele>
        <time>2022-05-17T05:21:43.574Z</time>
      </trkpt>
      <trkpt lat="45.62044" lon="5.35744">
        <ele>286</ele>
        <time>2022-05-17T05:21:44.575Z</time>
      </trkpt>
      <trkpt lat="45.62042" lon="5.35751">
        <ele>286</ele>
        <time>2022-05-17T05:21:45.574Z</time>
      </trkpt>
      <trkpt lat="45.62041" lon="5.35757">
        <ele>286</ele>
        <time>2022-05-17T05:21:46.575Z</time>
      </trkpt>
      <trkpt lat="45.62038" lon="5.35764">
        <ele>286</ele>
        <time>2022-05-17T05:21:47.575Z</time>
      </trkpt>
      <trkpt lat="45.62036" lon="5.35773">
        <ele>286</ele>
        <time>2022-05-17T05:21:48.575Z</time>
      </trkpt>
      <trkpt lat="45.62034" lon="5.3578">
        <ele>286</ele>
        <time>2022-05-17T05:21:49.575Z</time>
      </trkpt>
      <trkpt lat="45.62032" lon="5.35788">
        <ele>286</ele>
        <time>2022-05-17T05:21:50.575Z</time>
      </trkpt>
      <trkpt lat="45.62031" lon="5.35794">
        <ele>286</ele>
        <time>2022-05-17T05:21:51.575Z</time>
      </trkpt>
      <trkpt lat="45.62029" lon="5.35802">
        <ele>287</ele>
        <time>2022-05-17T05:21:52.574Z</time>
      </trkpt>
      <trkpt lat="45.62026" lon="5.35811">
        <ele>287</ele>
        <time>2022-05-17T05:21:53.575Z</time>
      </trkpt>
      <trkpt lat="45.62025" lon="5.35818">
        <ele>287</ele>
        <time>2022-05-17T05:21:54.575Z</time>
      </trkpt>
      <trkpt lat="45.62023" lon="5.35826">
        <ele>287</ele>
        <time>2022-05-17T05:21:55.575Z</time>
      </trkpt>
      <trkpt lat="45.62021" lon="5.35832">
        <ele>287</ele>
        <time>2022-05-17T05:21:56.575Z</time>
      </trkpt>
      <trkpt lat="45.62019" lon="5.3584">
        <ele>287</ele>
        <time>2022-05-17T05:21:57.574Z</time>
      </trkpt>
      <trkpt lat="45.62017" lon="5.3585">
        <ele>287</ele>
        <time>2022-05-17T05:21:58.575Z</time>
      </trkpt>
      <trkpt lat="45.62015" lon="5.35857">
        <ele>287</ele>
        <time>2022-05-17T05:21:59.574Z</time>
      </trkpt>
      <trkpt lat="45.62013" lon="5.35865">
        <ele>287</ele>
        <time>2022-05-17T05:22:00.575Z</time>
      </trkpt>
      <trkpt lat="45.62011" lon="5.35872">
        <ele>287</ele>
        <time>2022-05-17T05:22:01.575Z</time>
      </trkpt>
      <trkpt lat="45.62009" lon="5.35879">
        <ele>288</ele>
        <time>2022-05-17T05:22:02.574Z</time>
      </trkpt>
      <trkpt lat="45.62007" lon="5.35887">
        <ele>288</ele>
        <time>2022-05-17T05:22:03.575Z</time>
      </trkpt>
      <trkpt lat="45.62005" lon="5.35896">
        <ele>289</ele>
        <time>2022-05-17T05:22:04.575Z</time>
      </trkpt>
      <trkpt lat="45.62003" lon="5.35904">
        <ele>289</ele>
        <time>2022-05-17T05:22:05.575Z</time>
      </trkpt>
      <trkpt lat="45.62001" lon="5.35909">
        <ele>289</ele>
        <time>2022-05-17T05:22:06.574Z</time>
      </trkpt>
      <trkpt lat="45.62" lon="5.35917">
        <ele>289</ele>
        <time>2022-05-17T05:22:07.575Z</time>
      </trkpt>
      <trkpt lat="45.61997" lon="5.35926">
        <ele>290</ele>
        <time>2022-05-17T05:22:08.575Z</time>
      </trkpt>
      <trkpt lat="45.61995" lon="5.35934">
        <ele>290</ele>
        <time>2022-05-17T05:22:09.575Z</time>
      </trkpt>
      <trkpt lat="45.61993" lon="5.35942">
        <ele>290</ele>
        <time>2022-05-17T05:22:10.575Z</time>
      </trkpt>
      <trkpt lat="45.61991" lon="5.35948">
        <ele>291</ele>
        <time>2022-05-17T05:22:11.575Z</time>
      </trkpt>
      <trkpt lat="45.61989" lon="5.35956">
        <ele>291</ele>
        <time>2022-05-17T05:22:12.575Z</time>
      </trkpt>
      <trkpt lat="45.61986" lon="5.35965">
        <ele>291</ele>
        <time>2022-05-17T05:22:13.575Z</time>
      </trkpt>
      <trkpt lat="45.61984" lon="5.35971">
        <ele>290</ele>
        <time>2022-05-17T05:22:14.575Z</time>
      </trkpt>
      <trkpt lat="45.61981" lon="5.35981">
        <ele>290</ele>
        <time>2022-05-17T05:22:15.574Z</time>
      </trkpt>
      <trkpt lat="45.61979" lon="5.35987">
        <ele>290</ele>
        <time>2022-05-17T05:22:16.575Z</time>
      </trkpt>
      <trkpt lat="45.61977" lon="5.35995">
        <ele>290</ele>
        <time>2022-05-17T05:22:17.575Z</time>
      </trkpt>
      <trkpt lat="45.61974" lon="5.36004">
        <ele>290</ele>
        <time>2022-05-17T05:22:18.575Z</time>
      </trkpt>
      <trkpt lat="45.61972" lon="5.36011">
        <ele>290</ele>
        <time>2022-05-17T05:22:19.575Z</time>
      </trkpt>
      <trkpt lat="45.6197" lon="5.36019">
        <ele>291</ele>
        <time>2022-05-17T05:22:20.575Z</time>
      </trkpt>
      <trkpt lat="45.61969" lon="5.36025">
        <ele>291</ele>
        <time>2022-05-17T05:22:21.575Z</time>
      </trkpt>
      <trkpt lat="45.61966" lon="5.36033">
        <ele>292</ele>
        <time>2022-05-17T05:22:22.575Z</time>
      </trkpt>
      <trkpt lat="45.61964" lon="5.36041">
        <ele>292</ele>
        <time>2022-05-17T05:22:23.575Z</time>
      </trkpt>
      <trkpt lat="45.61962" lon="5.36048">
        <ele>292</ele>
        <time>2022-05-17T05:22:24.575Z</time>
      </trkpt>
      <trkpt lat="45.6196" lon="5.36055">
        <ele>292</ele>
        <time>2022-05-17T05:22:25.575Z</time>
      </trkpt>
      <trkpt lat="45.61958" lon="5.36062">
        <ele>292</ele>
        <time>2022-05-17T05:22:26.575Z</time>
      </trkpt>
      <trkpt lat="45.61955" lon="5.3607">
        <ele>292</ele>
        <time>2022-05-17T05:22:27.575Z</time>
      </trkpt>
      <trkpt lat="45.61953" lon="5.36077">
        <ele>292</ele>
        <time>2022-05-17T05:22:28.574Z</time>
      </trkpt>
      <trkpt lat="45.61951" lon="5.36084">
        <ele>292</ele>
        <time>2022-05-17T05:22:29.574Z</time>
      </trkpt>
      <trkpt lat="45.61949" lon="5.36092">
        <ele>292</ele>
        <time>2022-05-17T05:22:30.574Z</time>
      </trkpt>
      <trkpt lat="45.61947" lon="5.36098">
        <ele>292</ele>
        <time>2022-05-17T05:22:31.575Z</time>
      </trkpt>
      <trkpt lat="45.61946" lon="5.36105">
        <ele>292</ele>
        <time>2022-05-17T05:22:32.574Z</time>
      </trkpt>
      <trkpt lat="45.61944" lon="5.36112">
        <ele>292</ele>
        <time>2022-05-17T05:22:33.575Z</time>
      </trkpt>
      <trkpt lat="45.61941" lon="5.3612">
        <ele>292</ele>
        <time>2022-05-17T05:22:34.575Z</time>
      </trkpt>
      <trkpt lat="45.61939" lon="5.36128">
        <ele>292</ele>
        <time>2022-05-17T05:22:35.574Z</time>
      </trkpt>
      <trkpt lat="45.61938" lon="5.36134">
        <ele>292</ele>
        <time>2022-05-17T05:22:36.575Z</time>
      </trkpt>
      <trkpt lat="45.61936" lon="5.36141">
        <ele>292</ele>
        <time>2022-05-17T05:22:37.574Z</time>
      </trkpt>
      <trkpt lat="45.61933" lon="5.3615">
        <ele>292</ele>
        <time>2022-05-17T05:22:38.575Z</time>
      </trkpt>
      <trkpt lat="45.61931" lon="5.36157">
        <ele>291</ele>
        <time>2022-05-17T05:22:39.575Z</time>
      </trkpt>
      <trkpt lat="45.61929" lon="5.36165">
        <ele>291</ele>
        <time>2022-05-17T05:22:40.575Z</time>
      </trkpt>
      <trkpt lat="45.61927" lon="5.36171">
        <ele>292</ele>
        <time>2022-05-17T05:22:41.575Z</time>
      </trkpt>
      <trkpt lat="45.61925" lon="5.36178">
        <ele>292</ele>
        <time>2022-05-17T05:22:42.574Z</time>
      </trkpt>
      <trkpt lat="45.61923" lon="5.36187">
        <ele>292</ele>
        <time>2022-05-17T05:22:43.575Z</time>
      </trkpt>
      <trkpt lat="45.61921" lon="5.36194">
        <ele>292</ele>
        <time>2022-05-17T05:22:44.574Z</time>
      </trkpt>
      <trkpt lat="45.61918" lon="5.36202">
        <ele>292</ele>
        <time>2022-05-17T05:22:45.575Z</time>
      </trkpt>
      <trkpt lat="45.61917" lon="5.36208">
        <ele>292</ele>
        <time>2022-05-17T05:22:46.574Z</time>
      </trkpt>
      <trkpt lat="45.61915" lon="5.36215">
        <ele>291</ele>
        <time>2022-05-17T05:22:47.574Z</time>
      </trkpt>
      <trkpt lat="45.61912" lon="5.36224">
        <ele>291</ele>
        <time>2022-05-17T05:22:48.575Z</time>
      </trkpt>
      <trkpt lat="45.6191" lon="5.36231">
        <ele>291</ele>
        <time>2022-05-17T05:22:49.575Z</time>
      </trkpt>
      <trkpt lat="45.61908" lon="5.36237">
        <ele>291</ele>
        <time>2022-05-17T05:22:50.574Z</time>
      </trkpt>
      <trkpt lat="45.61906" lon="5.36245">
        <ele>291</ele>
        <time>2022-05-17T05:22:51.575Z</time>
      </trkpt>
      <trkpt lat="45.61903" lon="5.36252">
        <ele>291</ele>
        <time>2022-05-17T05:22:52.575Z</time>
      </trkpt>
      <trkpt lat="45.61901" lon="5.36261">
        <ele>291</ele>
        <time>2022-05-17T05:22:53.575Z</time>
      </trkpt>
      <trkpt lat="45.61899" lon="5.36268">
        <ele>291</ele>
        <time>2022-05-17T05:22:54.575Z</time>
      </trkpt>
      <trkpt lat="45.61897" lon="5.36276">
        <ele>291</ele>
        <time>2022-05-17T05:22:55.574Z</time>
      </trkpt>
      <trkpt lat="45.61895" lon="5.36281">
        <ele>291</ele>
        <time>2022-05-17T05:22:56.575Z</time>
      </trkpt>
      <trkpt lat="45.61893" lon="5.36288">
        <ele>291</ele>
        <time>2022-05-17T05:22:57.575Z</time>
      </trkpt>
      <trkpt lat="45.61891" lon="5.36297">
        <ele>291</ele>
        <time>2022-05-17T05:22:58.574Z</time>
      </trkpt>
      <trkpt lat="45.61889" lon="5.36305">
        <ele>291</ele>
        <time>2022-05-17T05:22:59.575Z</time>
      </trkpt>
      <trkpt lat="45.61887" lon="5.36312">
        <ele>292</ele>
        <time>2022-05-17T05:23:00.575Z</time>
      </trkpt>
      <trkpt lat="45.61885" lon="5.36318">
        <ele>292</ele>
        <time>2022-05-17T05:23:01.574Z</time>
      </trkpt>
      <trkpt lat="45.61884" lon="5.36325">
        <ele>292</ele>
        <time>2022-05-17T05:23:02.575Z</time>
      </trkpt>
      <trkpt lat="45.61882" lon="5.36333">
        <ele>292</ele>
        <time>2022-05-17T05:23:03.574Z</time>
      </trkpt>
      <trkpt lat="45.61879" lon="5.36342">
        <ele>292</ele>
        <time>2022-05-17T05:23:04.574Z</time>
      </trkpt>
      <trkpt lat="45.61878" lon="5.36348">
        <ele>292</ele>
        <time>2022-05-17T05:23:05.575Z</time>
      </trkpt>
      <trkpt lat="45.61876" lon="5.36355">
        <ele>292</ele>
        <time>2022-05-17T05:23:06.575Z</time>
      </trkpt>
      <trkpt lat="45.61874" lon="5.36363">
        <ele>293</ele>
        <time>2022-05-17T05:23:07.574Z</time>
      </trkpt>
      <trkpt lat="45.61872" lon="5.3637">
        <ele>292</ele>
        <time>2022-05-17T05:23:08.574Z</time>
      </trkpt>
      <trkpt lat="45.6187" lon="5.36378">
        <ele>292</ele>
        <time>2022-05-17T05:23:09.574Z</time>
      </trkpt>
      <trkpt lat="45.61868" lon="5.36385">
        <ele>292</ele>
        <time>2022-05-17T05:23:10.575Z</time>
      </trkpt>
      <trkpt lat="45.61866" lon="5.36393">
        <ele>292</ele>
        <time>2022-05-17T05:23:11.575Z</time>
      </trkpt>
      <trkpt lat="45.61864" lon="5.364">
        <ele>293</ele>
        <time>2022-05-17T05:23:12.574Z</time>
      </trkpt>
      <trkpt lat="45.61863" lon="5.36408">
        <ele>293</ele>
        <time>2022-05-17T05:23:13.575Z</time>
      </trkpt>
      <trkpt lat="45.61861" lon="5.36416">
        <ele>293</ele>
        <time>2022-05-17T05:23:14.575Z</time>
      </trkpt>
      <trkpt lat="45.61859" lon="5.36423">
        <ele>294</ele>
        <time>2022-05-17T05:23:15.574Z</time>
      </trkpt>
      <trkpt lat="45.61857" lon="5.36431">
        <ele>294</ele>
        <time>2022-05-17T05:23:16.575Z</time>
      </trkpt>
      <trkpt lat="45.61855" lon="5.36439">
        <ele>294</ele>
        <time>2022-05-17T05:23:17.575Z</time>
      </trkpt>
      <trkpt lat="45.61853" lon="5.36447">
        <ele>294</ele>
        <time>2022-05-17T05:23:18.575Z</time>
      </trkpt>
      <trkpt lat="45.61851" lon="5.36455">
        <ele>294</ele>
        <time>2022-05-17T05:23:19.575Z</time>
      </trkpt>
      <trkpt lat="45.61849" lon="5.36464">
        <ele>294</ele>
        <time>2022-05-17T05:23:20.574Z</time>
      </trkpt>
      <trkpt lat="45.61847" lon="5.3647">
        <ele>294</ele>
        <time>2022-05-17T05:23:21.575Z</time>
      </trkpt>
      <trkpt lat="45.61845" lon="5.36478">
        <ele>294</ele>
        <time>2022-05-17T05:23:22.575Z</time>
      </trkpt>
      <trkpt lat="45.61843" lon="5.36487">
        <ele>294</ele>
        <time>2022-05-17T05:23:23.574Z</time>
      </trkpt>
      <trkpt lat="45.61841" lon="5.36495">
        <ele>294</ele>
        <time>2022-05-17T05:23:24.574Z</time>
      </trkpt>
      <trkpt lat="45.61839" lon="5.36503">
        <ele>295</ele>
        <time>2022-05-17T05:23:25.574Z</time>
      </trkpt>
      <trkpt lat="45.61837" lon="5.36509">
        <ele>295</ele>
        <time>2022-05-17T05:23:26.575Z</time>
      </trkpt>
      <trkpt lat="45.61835" lon="5.36517">
        <ele>295</ele>
        <time>2022-05-17T05:23:27.575Z</time>
      </trkpt>
      <trkpt lat="45.61833" lon="5.36526">
        <ele>295</ele>
        <time>2022-05-17T05:23:28.575Z</time>
      </trkpt>
      <trkpt lat="45.61832" lon="5.36534">
        <ele>295</ele>
        <time>2022-05-17T05:23:29.575Z</time>
      </trkpt>
      <trkpt lat="45.6183" lon="5.36541">
        <ele>295</ele>
        <time>2022-05-17T05:23:30.574Z</time>
      </trkpt>
      <trkpt lat="45.61829" lon="5.36549">
        <ele>295</ele>
        <time>2022-05-17T05:23:31.575Z</time>
      </trkpt>
      <trkpt lat="45.61827" lon="5.36556">
        <ele>294</ele>
        <time>2022-05-17T05:23:32.574Z</time>
      </trkpt>
      <trkpt lat="45.61825" lon="5.36564">
        <ele>294</ele>
        <time>2022-05-17T05:23:33.575Z</time>
      </trkpt>
      <trkpt lat="45.61824" lon="5.36572">
        <ele>294</ele>
        <time>2022-05-17T05:23:34.575Z</time>
      </trkpt>
      <trkpt lat="45.61823" lon="5.3658">
        <ele>294</ele>
        <time>2022-05-17T05:23:35.575Z</time>
      </trkpt>
      <trkpt lat="45.61822" lon="5.36588">
        <ele>295</ele>
        <time>2022-05-17T05:23:36.574Z</time>
      </trkpt>
      <trkpt lat="45.61821" lon="5.36596">
        <ele>295</ele>
        <time>2022-05-17T05:23:37.575Z</time>
      </trkpt>
      <trkpt lat="45.6182" lon="5.36604">
        <ele>295</ele>
        <time>2022-05-17T05:23:38.574Z</time>
      </trkpt>
      <trkpt lat="45.61819" lon="5.36611">
        <ele>295</ele>
        <time>2022-05-17T05:23:39.574Z</time>
      </trkpt>
      <trkpt lat="45.61818" lon="5.36619">
        <ele>295</ele>
        <time>2022-05-17T05:23:40.575Z</time>
      </trkpt>
      <trkpt lat="45.61817" lon="5.36627">
        <ele>295</ele>
        <time>2022-05-17T05:23:41.575Z</time>
      </trkpt>
      <trkpt lat="45.61817" lon="5.36635">
        <ele>295</ele>
        <time>2022-05-17T05:23:42.575Z</time>
      </trkpt>
      <trkpt lat="45.61816" lon="5.36643">
        <ele>296</ele>
        <time>2022-05-17T05:23:43.575Z</time>
      </trkpt>
      <trkpt lat="45.61815" lon="5.36651">
        <ele>296</ele>
        <time>2022-05-17T05:23:44.574Z</time>
      </trkpt>
      <trkpt lat="45.61814" lon="5.36659">
        <ele>296</ele>
        <time>2022-05-17T05:23:45.575Z</time>
      </trkpt>
      <trkpt lat="45.61814" lon="5.36667">
        <ele>295</ele>
        <time>2022-05-17T05:23:46.574Z</time>
      </trkpt>
      <trkpt lat="45.61813" lon="5.36675">
        <ele>295</ele>
        <time>2022-05-17T05:23:47.574Z</time>
      </trkpt>
      <trkpt lat="45.61812" lon="5.36683">
        <ele>295</ele>
        <time>2022-05-17T05:23:48.574Z</time>
      </trkpt>
      <trkpt lat="45.61812" lon="5.36691">
        <ele>295</ele>
        <time>2022-05-17T05:23:49.574Z</time>
      </trkpt>
      <trkpt lat="45.61811" lon="5.36699">
        <ele>296</ele>
        <time>2022-05-17T05:23:50.575Z</time>
      </trkpt>
      <trkpt lat="45.6181" lon="5.36707">
        <ele>296</ele>
        <time>2022-05-17T05:23:51.574Z</time>
      </trkpt>
      <trkpt lat="45.6181" lon="5.36715">
        <ele>296</ele>
        <time>2022-05-17T05:23:52.575Z</time>
      </trkpt>
      <trkpt lat="45.61809" lon="5.36722">
        <ele>296</ele>
        <time>2022-05-17T05:23:53.574Z</time>
      </trkpt>
      <trkpt lat="45.61808" lon="5.3673">
        <ele>297</ele>
        <time>2022-05-17T05:23:54.575Z</time>
      </trkpt>
      <trkpt lat="45.61807" lon="5.36738">
        <ele>297</ele>
        <time>2022-05-17T05:23:55.574Z</time>
      </trkpt>
      <trkpt lat="45.61806" lon="5.36746">
        <ele>297</ele>
        <time>2022-05-17T05:23:56.575Z</time>
      </trkpt>
      <trkpt lat="45.61806" lon="5.36752">
        <ele>298</ele>
        <time>2022-05-17T05:23:57.574Z</time>
      </trkpt>
      <trkpt lat="45.61804" lon="5.36761">
        <ele>298</ele>
        <time>2022-05-17T05:23:58.575Z</time>
      </trkpt>
      <trkpt lat="45.61804" lon="5.36769">
        <ele>298</ele>
        <time>2022-05-17T05:23:59.575Z</time>
      </trkpt>
      <trkpt lat="45.61803" lon="5.36775">
        <ele>298</ele>
        <time>2022-05-17T05:24:00.575Z</time>
      </trkpt>
      <trkpt lat="45.61802" lon="5.36785">
        <ele>298</ele>
        <time>2022-05-17T05:24:01.575Z</time>
      </trkpt>
      <trkpt lat="45.61801" lon="5.36792">
        <ele>298</ele>
        <time>2022-05-17T05:24:02.575Z</time>
      </trkpt>
      <trkpt lat="45.618" lon="5.368">
        <ele>298</ele>
        <time>2022-05-17T05:24:03.574Z</time>
      </trkpt>
      <trkpt lat="45.61799" lon="5.36808">
        <ele>298</ele>
        <time>2022-05-17T05:24:04.575Z</time>
      </trkpt>
      <trkpt lat="45.61798" lon="5.36815">
        <ele>298</ele>
        <time>2022-05-17T05:24:05.574Z</time>
      </trkpt>
      <trkpt lat="45.61797" lon="5.36823">
        <ele>298</ele>
        <time>2022-05-17T05:24:06.575Z</time>
      </trkpt>
      <trkpt lat="45.61796" lon="5.36831">
        <ele>298</ele>
        <time>2022-05-17T05:24:07.574Z</time>
      </trkpt>
      <trkpt lat="45.61795" lon="5.36839">
        <ele>298</ele>
        <time>2022-05-17T05:24:08.575Z</time>
      </trkpt>
      <trkpt lat="45.61794" lon="5.36847">
        <ele>298</ele>
        <time>2022-05-17T05:24:09.575Z</time>
      </trkpt>
      <trkpt lat="45.61793" lon="5.36853">
        <ele>299</ele>
        <time>2022-05-17T05:24:10.575Z</time>
      </trkpt>
      <trkpt lat="45.61793" lon="5.36861">
        <ele>299</ele>
        <time>2022-05-17T05:24:11.574Z</time>
      </trkpt>
      <trkpt lat="45.61792" lon="5.36871">
        <ele>299</ele>
        <time>2022-05-17T05:24:12.575Z</time>
      </trkpt>
      <trkpt lat="45.61791" lon="5.36879">
        <ele>299</ele>
        <time>2022-05-17T05:24:13.575Z</time>
      </trkpt>
      <trkpt lat="45.6179" lon="5.36887">
        <ele>299</ele>
        <time>2022-05-17T05:24:14.575Z</time>
      </trkpt>
      <trkpt lat="45.6179" lon="5.36893">
        <ele>299</ele>
        <time>2022-05-17T05:24:15.574Z</time>
      </trkpt>
      <trkpt lat="45.61789" lon="5.36903">
        <ele>299</ele>
        <time>2022-05-17T05:24:16.575Z</time>
      </trkpt>
      <trkpt lat="45.61788" lon="5.36911">
        <ele>299</ele>
        <time>2022-05-17T05:24:17.575Z</time>
      </trkpt>
      <trkpt lat="45.61788" lon="5.36919">
        <ele>299</ele>
        <time>2022-05-17T05:24:18.575Z</time>
      </trkpt>
      <trkpt lat="45.61787" lon="5.36927">
        <ele>299</ele>
        <time>2022-05-17T05:24:19.574Z</time>
      </trkpt>
      <trkpt lat="45.61787" lon="5.36935">
        <ele>299</ele>
        <time>2022-05-17T05:24:20.574Z</time>
      </trkpt>
      <trkpt lat="45.61786" lon="5.36944">
        <ele>299</ele>
        <time>2022-05-17T05:24:21.575Z</time>
      </trkpt>
      <trkpt lat="45.61786" lon="5.36952">
        <ele>299</ele>
        <time>2022-05-17T05:24:22.575Z</time>
      </trkpt>
      <trkpt lat="45.61785" lon="5.3696">
        <ele>299</ele>
        <time>2022-05-17T05:24:23.575Z</time>
      </trkpt>
      <trkpt lat="45.61785" lon="5.36969">
        <ele>299</ele>
        <time>2022-05-17T05:24:24.575Z</time>
      </trkpt>
      <trkpt lat="45.61784" lon="5.36977">
        <ele>299</ele>
        <time>2022-05-17T05:24:25.575Z</time>
      </trkpt>
      <trkpt lat="45.61784" lon="5.36986">
        <ele>299</ele>
        <time>2022-05-17T05:24:26.575Z</time>
      </trkpt>
      <trkpt lat="45.61784" lon="5.36994">
        <ele>299</ele>
        <time>2022-05-17T05:24:27.575Z</time>
      </trkpt>
      <trkpt lat="45.61784" lon="5.37003">
        <ele>299</ele>
        <time>2022-05-17T05:24:28.575Z</time>
      </trkpt>
      <trkpt lat="45.61783" lon="5.37012">
        <ele>299</ele>
        <time>2022-05-17T05:24:29.575Z</time>
      </trkpt>
      <trkpt lat="45.61783" lon="5.37019">
        <ele>299</ele>
        <time>2022-05-17T05:24:30.574Z</time>
      </trkpt>
      <trkpt lat="45.61783" lon="5.37028">
        <ele>299</ele>
        <time>2022-05-17T05:24:31.575Z</time>
      </trkpt>
      <trkpt lat="45.61782" lon="5.37038">
        <ele>299</ele>
        <time>2022-05-17T05:24:32.575Z</time>
      </trkpt>
      <trkpt lat="45.61782" lon="5.37047">
        <ele>299</ele>
        <time>2022-05-17T05:24:33.574Z</time>
      </trkpt>
      <trkpt lat="45.61782" lon="5.37056">
        <ele>299</ele>
        <time>2022-05-17T05:24:34.575Z</time>
      </trkpt>
      <trkpt lat="45.61782" lon="5.37062">
        <ele>299</ele>
        <time>2022-05-17T05:24:35.574Z</time>
      </trkpt>
      <trkpt lat="45.61782" lon="5.37071">
        <ele>300</ele>
        <time>2022-05-17T05:24:36.575Z</time>
      </trkpt>
      <trkpt lat="45.61781" lon="5.37082">
        <ele>300</ele>
        <time>2022-05-17T05:24:37.574Z</time>
      </trkpt>
      <trkpt lat="45.61781" lon="5.37091">
        <ele>300</ele>
        <time>2022-05-17T05:24:38.575Z</time>
      </trkpt>
      <trkpt lat="45.61781" lon="5.371">
        <ele>300</ele>
        <time>2022-05-17T05:24:39.575Z</time>
      </trkpt>
      <trkpt lat="45.61781" lon="5.37108">
        <ele>300</ele>
        <time>2022-05-17T05:24:40.574Z</time>
      </trkpt>
      <trkpt lat="45.6178" lon="5.37117">
        <ele>300</ele>
        <time>2022-05-17T05:24:41.574Z</time>
      </trkpt>
      <trkpt lat="45.6178" lon="5.37126">
        <ele>301</ele>
        <time>2022-05-17T05:24:42.575Z</time>
      </trkpt>
      <trkpt lat="45.6178" lon="5.37135">
        <ele>301</ele>
        <time>2022-05-17T05:24:43.575Z</time>
      </trkpt>
      <trkpt lat="45.6178" lon="5.37144">
        <ele>302</ele>
        <time>2022-05-17T05:24:44.575Z</time>
      </trkpt>
      <trkpt lat="45.6178" lon="5.37153">
        <ele>302</ele>
        <time>2022-05-17T05:24:45.574Z</time>
      </trkpt>
      <trkpt lat="45.61779" lon="5.37162">
        <ele>302</ele>
        <time>2022-05-17T05:24:46.575Z</time>
      </trkpt>
      <trkpt lat="45.61779" lon="5.37171">
        <ele>303</ele>
        <time>2022-05-17T05:24:47.575Z</time>
      </trkpt>
      <trkpt lat="45.61779" lon="5.3718">
        <ele>303</ele>
        <time>2022-05-17T05:24:48.575Z</time>
      </trkpt>
      <trkpt lat="45.61778" lon="5.37189">
        <ele>303</ele>
        <time>2022-05-17T05:24:49.575Z</time>
      </trkpt>
      <trkpt lat="45.61777" lon="5.37198">
        <ele>303</ele>
        <time>2022-05-17T05:24:50.575Z</time>
      </trkpt>
      <trkpt lat="45.61776" lon="5.37207">
        <ele>303</ele>
        <time>2022-05-17T05:24:51.575Z</time>
      </trkpt>
      <trkpt lat="45.61775" lon="5.37216">
        <ele>303</ele>
        <time>2022-05-17T05:24:52.574Z</time>
      </trkpt>
      <trkpt lat="45.61774" lon="5.37225">
        <ele>303</ele>
        <time>2022-05-17T05:24:53.575Z</time>
      </trkpt>
      <trkpt lat="45.61773" lon="5.37234">
        <ele>303</ele>
        <time>2022-05-17T05:24:54.575Z</time>
      </trkpt>
      <trkpt lat="45.61772" lon="5.37243">
        <ele>302</ele>
        <time>2022-05-17T05:24:55.574Z</time>
      </trkpt>
      <trkpt lat="45.61771" lon="5.37251">
        <ele>302</ele>
        <time>2022-05-17T05:24:56.575Z</time>
      </trkpt>
      <trkpt lat="45.6177" lon="5.3726">
        <ele>302</ele>
        <time>2022-05-17T05:24:57.575Z</time>
      </trkpt>
      <trkpt lat="45.61768" lon="5.37268">
        <ele>302</ele>
        <time>2022-05-17T05:24:58.575Z</time>
      </trkpt>
      <trkpt lat="45.61766" lon="5.37277">
        <ele>302</ele>
        <time>2022-05-17T05:24:59.574Z</time>
      </trkpt>
      <trkpt lat="45.61764" lon="5.37286">
        <ele>302</ele>
        <time>2022-05-17T05:25:00.574Z</time>
      </trkpt>
      <trkpt lat="45.61762" lon="5.37294">
        <ele>302</ele>
        <time>2022-05-17T05:25:01.574Z</time>
      </trkpt>
      <trkpt lat="45.6176" lon="5.37302">
        <ele>303</ele>
        <time>2022-05-17T05:25:02.575Z</time>
      </trkpt>
      <trkpt lat="45.61757" lon="5.37311">
        <ele>303</ele>
        <time>2022-05-17T05:25:03.575Z</time>
      </trkpt>
      <trkpt lat="45.61755" lon="5.37319">
        <ele>303</ele>
        <time>2022-05-17T05:25:04.575Z</time>
      </trkpt>
      <trkpt lat="45.61752" lon="5.37327">
        <ele>303</ele>
        <time>2022-05-17T05:25:05.575Z</time>
      </trkpt>
      <trkpt lat="45.61749" lon="5.37334">
        <ele>304</ele>
        <time>2022-05-17T05:25:06.575Z</time>
      </trkpt>
      <trkpt lat="45.61747" lon="5.37342">
        <ele>304</ele>
        <time>2022-05-17T05:25:07.575Z</time>
      </trkpt>
      <trkpt lat="45.61744" lon="5.37348">
        <ele>304</ele>
        <time>2022-05-17T05:25:08.574Z</time>
      </trkpt>
      <trkpt lat="45.61741" lon="5.37355">
        <ele>304</ele>
        <time>2022-05-17T05:25:09.575Z</time>
      </trkpt>
      <trkpt lat="45.61738" lon="5.37365">
        <ele>304</ele>
        <time>2022-05-17T05:25:10.575Z</time>
      </trkpt>
      <trkpt lat="45.61734" lon="5.37372">
        <ele>304</ele>
        <time>2022-05-17T05:25:11.575Z</time>
      </trkpt>
      <trkpt lat="45.61731" lon="5.3738">
        <ele>305</ele>
        <time>2022-05-17T05:25:12.575Z</time>
      </trkpt>
      <trkpt lat="45.61729" lon="5.37386">
        <ele>305</ele>
        <time>2022-05-17T05:25:13.574Z</time>
      </trkpt>
      <trkpt lat="45.61726" lon="5.37393">
        <ele>306</ele>
        <time>2022-05-17T05:25:14.574Z</time>
      </trkpt>
      <trkpt lat="45.61722" lon="5.374">
        <ele>306</ele>
        <time>2022-05-17T05:25:15.574Z</time>
      </trkpt>
      <trkpt lat="45.61719" lon="5.37409">
        <ele>306</ele>
        <time>2022-05-17T05:25:16.574Z</time>
      </trkpt>
      <trkpt lat="45.61716" lon="5.37416">
        <ele>306</ele>
        <time>2022-05-17T05:25:17.575Z</time>
      </trkpt>
      <trkpt lat="45.61713" lon="5.37423">
        <ele>306</ele>
        <time>2022-05-17T05:25:18.574Z</time>
      </trkpt>
      <trkpt lat="45.6171" lon="5.37429">
        <ele>306</ele>
        <time>2022-05-17T05:25:19.575Z</time>
      </trkpt>
      <trkpt lat="45.61708" lon="5.37436">
        <ele>306</ele>
        <time>2022-05-17T05:25:20.575Z</time>
      </trkpt>
      <trkpt lat="45.61704" lon="5.37445">
        <ele>307</ele>
        <time>2022-05-17T05:25:21.575Z</time>
      </trkpt>
      <trkpt lat="45.61701" lon="5.37452">
        <ele>307</ele>
        <time>2022-05-17T05:25:22.574Z</time>
      </trkpt>
      <trkpt lat="45.61698" lon="5.37459">
        <ele>307</ele>
        <time>2022-05-17T05:25:23.575Z</time>
      </trkpt>
      <trkpt lat="45.61695" lon="5.37464">
        <ele>307</ele>
        <time>2022-05-17T05:25:24.575Z</time>
      </trkpt>
      <trkpt lat="45.61692" lon="5.37471">
        <ele>306</ele>
        <time>2022-05-17T05:25:25.574Z</time>
      </trkpt>
      <trkpt lat="45.61689" lon="5.37479">
        <ele>307</ele>
        <time>2022-05-17T05:25:26.574Z</time>
      </trkpt>
      <trkpt lat="45.61686" lon="5.37487">
        <ele>307</ele>
        <time>2022-05-17T05:25:27.575Z</time>
      </trkpt>
      <trkpt lat="45.61683" lon="5.37493">
        <ele>307</ele>
        <time>2022-05-17T05:25:28.574Z</time>
      </trkpt>
      <trkpt lat="45.6168" lon="5.375">
        <ele>307</ele>
        <time>2022-05-17T05:25:29.575Z</time>
      </trkpt>
      <trkpt lat="45.61677" lon="5.37507">
        <ele>307</ele>
        <time>2022-05-17T05:25:30.575Z</time>
      </trkpt>
      <trkpt lat="45.61674" lon="5.37514">
        <ele>307</ele>
        <time>2022-05-17T05:25:31.574Z</time>
      </trkpt>
      <trkpt lat="45.61671" lon="5.37523">
        <ele>308</ele>
        <time>2022-05-17T05:25:32.574Z</time>
      </trkpt>
      <trkpt lat="45.61669" lon="5.37529">
        <ele>308</ele>
        <time>2022-05-17T05:25:33.575Z</time>
      </trkpt>
      <trkpt lat="45.61666" lon="5.37536">
        <ele>308</ele>
        <time>2022-05-17T05:25:34.574Z</time>
      </trkpt>
      <trkpt lat="45.61663" lon="5.37543">
        <ele>308</ele>
        <time>2022-05-17T05:25:35.575Z</time>
      </trkpt>
      <trkpt lat="45.6166" lon="5.37551">
        <ele>308</ele>
        <time>2022-05-17T05:25:36.574Z</time>
      </trkpt>
      <trkpt lat="45.61658" lon="5.37558">
        <ele>308</ele>
        <time>2022-05-17T05:25:37.575Z</time>
      </trkpt>
      <trkpt lat="45.61655" lon="5.37567">
        <ele>307</ele>
        <time>2022-05-17T05:25:38.575Z</time>
      </trkpt>
      <trkpt lat="45.61653" lon="5.37573">
        <ele>308</ele>
        <time>2022-05-17T05:25:39.575Z</time>
      </trkpt>
      <trkpt lat="45.61651" lon="5.37581">
        <ele>308</ele>
        <time>2022-05-17T05:25:40.575Z</time>
      </trkpt>
      <trkpt lat="45.61649" lon="5.37589">
        <ele>308</ele>
        <time>2022-05-17T05:25:41.575Z</time>
      </trkpt>
      <trkpt lat="45.61646" lon="5.37598">
        <ele>308</ele>
        <time>2022-05-17T05:25:42.575Z</time>
      </trkpt>
      <trkpt lat="45.61643" lon="5.37605">
        <ele>308</ele>
        <time>2022-05-17T05:25:43.574Z</time>
      </trkpt>
      <trkpt lat="45.61642" lon="5.37612">
        <ele>308</ele>
        <time>2022-05-17T05:25:44.575Z</time>
      </trkpt>
      <trkpt lat="45.6164" lon="5.3762">
        <ele>308</ele>
        <time>2022-05-17T05:25:45.575Z</time>
      </trkpt>
      <trkpt lat="45.61638" lon="5.37628">
        <ele>309</ele>
        <time>2022-05-17T05:25:46.574Z</time>
      </trkpt>
      <trkpt lat="45.61636" lon="5.37637">
        <ele>309</ele>
        <time>2022-05-17T05:25:47.574Z</time>
      </trkpt>
      <trkpt lat="45.61634" lon="5.37645">
        <ele>309</ele>
        <time>2022-05-17T05:25:48.574Z</time>
      </trkpt>
      <trkpt lat="45.61632" lon="5.37652">
        <ele>310</ele>
        <time>2022-05-17T05:25:49.575Z</time>
      </trkpt>
      <trkpt lat="45.6163" lon="5.37659">
        <ele>310</ele>
        <time>2022-05-17T05:25:50.574Z</time>
      </trkpt>
      <trkpt lat="45.61627" lon="5.37668">
        <ele>310</ele>
        <time>2022-05-17T05:25:51.575Z</time>
      </trkpt>
      <trkpt lat="45.61624" lon="5.37675">
        <ele>310</ele>
        <time>2022-05-17T05:25:52.575Z</time>
      </trkpt>
      <trkpt lat="45.61622" lon="5.37682">
        <ele>310</ele>
        <time>2022-05-17T05:25:53.574Z</time>
      </trkpt>
      <trkpt lat="45.6162" lon="5.37688">
        <ele>310</ele>
        <time>2022-05-17T05:25:54.574Z</time>
      </trkpt>
      <trkpt lat="45.61618" lon="5.37696">
        <ele>310</ele>
        <time>2022-05-17T05:25:55.574Z</time>
      </trkpt>
      <trkpt lat="45.61615" lon="5.37705">
        <ele>310</ele>
        <time>2022-05-17T05:25:56.575Z</time>
      </trkpt>
      <trkpt lat="45.61612" lon="5.37713">
        <ele>310</ele>
        <time>2022-05-17T05:25:57.575Z</time>
      </trkpt>
      <trkpt lat="45.6161" lon="5.37721">
        <ele>310</ele>
        <time>2022-05-17T05:25:58.575Z</time>
      </trkpt>
      <trkpt lat="45.61608" lon="5.37727">
        <ele>310</ele>
        <time>2022-05-17T05:25:59.575Z</time>
      </trkpt>
      <trkpt lat="45.61606" lon="5.37735">
        <ele>311</ele>
        <time>2022-05-17T05:26:00.575Z</time>
      </trkpt>
      <trkpt lat="45.61604" lon="5.37744">
        <ele>311</ele>
        <time>2022-05-17T05:26:01.575Z</time>
      </trkpt>
      <trkpt lat="45.61602" lon="5.37752">
        <ele>311</ele>
        <time>2022-05-17T05:26:02.575Z</time>
      </trkpt>
      <trkpt lat="45.61599" lon="5.3776">
        <ele>311</ele>
        <time>2022-05-17T05:26:03.575Z</time>
      </trkpt>
      <trkpt lat="45.61598" lon="5.37767">
        <ele>312</ele>
        <time>2022-05-17T05:26:04.575Z</time>
      </trkpt>
      <trkpt lat="45.61595" lon="5.37775">
        <ele>312</ele>
        <time>2022-05-17T05:26:05.574Z</time>
      </trkpt>
      <trkpt lat="45.61593" lon="5.37784">
        <ele>312</ele>
        <time>2022-05-17T05:26:06.575Z</time>
      </trkpt>
      <trkpt lat="45.61591" lon="5.3779">
        <ele>312</ele>
        <time>2022-05-17T05:26:07.575Z</time>
      </trkpt>
      <trkpt lat="45.61589" lon="5.37798">
        <ele>312</ele>
        <time>2022-05-17T05:26:08.574Z</time>
      </trkpt>
      <trkpt lat="45.61587" lon="5.37806">
        <ele>312</ele>
        <time>2022-05-17T05:26:09.575Z</time>
      </trkpt>
      <trkpt lat="45.61584" lon="5.37813">
        <ele>313</ele>
        <time>2022-05-17T05:26:10.575Z</time>
      </trkpt>
      <trkpt lat="45.61582" lon="5.37821">
        <ele>313</ele>
        <time>2022-05-17T05:26:11.575Z</time>
      </trkpt>
      <trkpt lat="45.6158" lon="5.37829">
        <ele>313</ele>
        <time>2022-05-17T05:26:12.575Z</time>
      </trkpt>
      <trkpt lat="45.61578" lon="5.37837">
        <ele>314</ele>
        <time>2022-05-17T05:26:13.575Z</time>
      </trkpt>
      <trkpt lat="45.61576" lon="5.37845">
        <ele>314</ele>
        <time>2022-05-17T05:26:14.575Z</time>
      </trkpt>
      <trkpt lat="45.61574" lon="5.37852">
        <ele>315</ele>
        <time>2022-05-17T05:26:15.575Z</time>
      </trkpt>
      <trkpt lat="45.61572" lon="5.3786">
        <ele>315</ele>
        <time>2022-05-17T05:26:16.574Z</time>
      </trkpt>
      <trkpt lat="45.6157" lon="5.37868">
        <ele>315</ele>
        <time>2022-05-17T05:26:17.575Z</time>
      </trkpt>
      <trkpt lat="45.61568" lon="5.37875">
        <ele>315</ele>
        <time>2022-05-17T05:26:18.575Z</time>
      </trkpt>
      <trkpt lat="45.61566" lon="5.37882">
        <ele>315</ele>
        <time>2022-05-17T05:26:19.574Z</time>
      </trkpt>
      <trkpt lat="45.61564" lon="5.3789">
        <ele>315</ele>
        <time>2022-05-17T05:26:20.575Z</time>
      </trkpt>
      <trkpt lat="45.61562" lon="5.37897">
        <ele>315</ele>
        <time>2022-05-17T05:26:21.575Z</time>
      </trkpt>
      <trkpt lat="45.61559" lon="5.37904">
        <ele>315</ele>
        <time>2022-05-17T05:26:22.575Z</time>
      </trkpt>
      <trkpt lat="45.61557" lon="5.37911">
        <ele>316</ele>
        <time>2022-05-17T05:26:23.575Z</time>
      </trkpt>
      <trkpt lat="45.61555" lon="5.37919">
        <ele>316</ele>
        <time>2022-05-17T05:26:24.575Z</time>
      </trkpt>
      <trkpt lat="45.61552" lon="5.37926">
        <ele>316</ele>
        <time>2022-05-17T05:26:25.575Z</time>
      </trkpt>
      <trkpt lat="45.6155" lon="5.37932">
        <ele>316</ele>
        <time>2022-05-17T05:26:26.574Z</time>
      </trkpt>
      <trkpt lat="45.61548" lon="5.3794">
        <ele>316</ele>
        <time>2022-05-17T05:26:27.574Z</time>
      </trkpt>
      <trkpt lat="45.61547" lon="5.37945">
        <ele>316</ele>
        <time>2022-05-17T05:26:28.575Z</time>
      </trkpt>
      <trkpt lat="45.61546" lon="5.37952">
        <ele>317</ele>
        <time>2022-05-17T05:26:29.575Z</time>
      </trkpt>
      <trkpt lat="45.61544" lon="5.37957">
        <ele>317</ele>
        <time>2022-05-17T05:26:30.575Z</time>
      </trkpt>
      <trkpt lat="45.61543" lon="5.37963">
        <ele>317</ele>
        <time>2022-05-17T05:26:31.575Z</time>
      </trkpt>
      <trkpt lat="45.61542" lon="5.37969">
        <ele>317</ele>
        <time>2022-05-17T05:26:32.574Z</time>
      </trkpt>
      <trkpt lat="45.6154" lon="5.37975">
        <ele>318</ele>
        <time>2022-05-17T05:26:33.575Z</time>
      </trkpt>
      <trkpt lat="45.61538" lon="5.37981">
        <ele>318</ele>
        <time>2022-05-17T05:26:34.575Z</time>
      </trkpt>
      <trkpt lat="45.61536" lon="5.37987">
        <ele>318</ele>
        <time>2022-05-17T05:26:35.575Z</time>
      </trkpt>
      <trkpt lat="45.61534" lon="5.37993">
        <ele>318</ele>
        <time>2022-05-17T05:26:36.574Z</time>
      </trkpt>
      <trkpt lat="45.61533" lon="5.37999">
        <ele>318</ele>
        <time>2022-05-17T05:26:37.575Z</time>
      </trkpt>
      <trkpt lat="45.61532" lon="5.38005">
        <ele>318</ele>
        <time>2022-05-17T05:26:38.574Z</time>
      </trkpt>
      <trkpt lat="45.6153" lon="5.3801">
        <ele>318</ele>
        <time>2022-05-17T05:26:39.575Z</time>
      </trkpt>
      <trkpt lat="45.61528" lon="5.38015">
        <ele>317</ele>
        <time>2022-05-17T05:26:40.575Z</time>
      </trkpt>
      <trkpt lat="45.61526" lon="5.3802">
        <ele>317</ele>
        <time>2022-05-17T05:26:41.575Z</time>
      </trkpt>
      <trkpt lat="45.61525" lon="5.38024">
        <ele>317</ele>
        <time>2022-05-17T05:26:42.575Z</time>
      </trkpt>
      <trkpt lat="45.61522" lon="5.3803">
        <ele>317</ele>
        <time>2022-05-17T05:26:43.575Z</time>
      </trkpt>
      <trkpt lat="45.61521" lon="5.38034">
        <ele>318</ele>
        <time>2022-05-17T05:26:44.575Z</time>
      </trkpt>
      <trkpt lat="45.61518" lon="5.38038">
        <ele>319</ele>
        <time>2022-05-17T05:26:45.575Z</time>
      </trkpt>
      <trkpt lat="45.61517" lon="5.38043">
        <ele>319</ele>
        <time>2022-05-17T05:26:46.575Z</time>
      </trkpt>
      <trkpt lat="45.61514" lon="5.38048">
        <ele>320</ele>
        <time>2022-05-17T05:26:47.575Z</time>
      </trkpt>
      <trkpt lat="45.61512" lon="5.38054">
        <ele>321</ele>
        <time>2022-05-17T05:26:48.574Z</time>
      </trkpt>
      <trkpt lat="45.61509" lon="5.38059">
        <ele>321</ele>
        <time>2022-05-17T05:26:49.575Z</time>
      </trkpt>
      <trkpt lat="45.61507" lon="5.38063">
        <ele>322</ele>
        <time>2022-05-17T05:26:50.575Z</time>
      </trkpt>
      <trkpt lat="45.61505" lon="5.38067">
        <ele>323</ele>
        <time>2022-05-17T05:26:51.575Z</time>
      </trkpt>
      <trkpt lat="45.61502" lon="5.38073">
        <ele>323</ele>
        <time>2022-05-17T05:26:52.575Z</time>
      </trkpt>
      <trkpt lat="45.615" lon="5.38077">
        <ele>324</ele>
        <time>2022-05-17T05:26:53.575Z</time>
      </trkpt>
      <trkpt lat="45.61498" lon="5.38081">
        <ele>324</ele>
        <time>2022-05-17T05:26:54.575Z</time>
      </trkpt>
      <trkpt lat="45.61495" lon="5.38086">
        <ele>325</ele>
        <time>2022-05-17T05:26:55.575Z</time>
      </trkpt>
      <trkpt lat="45.61492" lon="5.38091">
        <ele>326</ele>
        <time>2022-05-17T05:26:56.575Z</time>
      </trkpt>
      <trkpt lat="45.6149" lon="5.38095">
        <ele>327</ele>
        <time>2022-05-17T05:26:57.574Z</time>
      </trkpt>
      <trkpt lat="45.61488" lon="5.381">
        <ele>328</ele>
        <time>2022-05-17T05:26:58.575Z</time>
      </trkpt>
      <trkpt lat="45.61485" lon="5.38105">
        <ele>328</ele>
        <time>2022-05-17T05:26:59.575Z</time>
      </trkpt>
      <trkpt lat="45.61483" lon="5.38109">
        <ele>329</ele>
        <time>2022-05-17T05:27:00.575Z</time>
      </trkpt>
      <trkpt lat="45.6148" lon="5.38114">
        <ele>330</ele>
        <time>2022-05-17T05:27:01.575Z</time>
      </trkpt>
      <trkpt lat="45.61477" lon="5.3812">
        <ele>330</ele>
        <time>2022-05-17T05:27:02.575Z</time>
      </trkpt>
      <trkpt lat="45.61475" lon="5.38127">
        <ele>331</ele>
        <time>2022-05-17T05:27:03.574Z</time>
      </trkpt>
      <trkpt lat="45.61473" lon="5.38133">
        <ele>331</ele>
        <time>2022-05-17T05:27:04.575Z</time>
      </trkpt>
      <trkpt lat="45.61471" lon="5.38138">
        <ele>331</ele>
        <time>2022-05-17T05:27:05.575Z</time>
      </trkpt>
      <trkpt lat="45.61469" lon="5.38145">
        <ele>332</ele>
        <time>2022-05-17T05:27:06.575Z</time>
      </trkpt>
      <trkpt lat="45.61466" lon="5.3815">
        <ele>332</ele>
        <time>2022-05-17T05:27:07.575Z</time>
      </trkpt>
      <trkpt lat="45.61464" lon="5.38156">
        <ele>333</ele>
        <time>2022-05-17T05:27:08.575Z</time>
      </trkpt>
      <trkpt lat="45.61461" lon="5.38163">
        <ele>333</ele>
        <time>2022-05-17T05:27:09.575Z</time>
      </trkpt>
      <trkpt lat="45.61459" lon="5.38168">
        <ele>333</ele>
        <time>2022-05-17T05:27:10.574Z</time>
      </trkpt>
      <trkpt lat="45.61457" lon="5.38174">
        <ele>333</ele>
        <time>2022-05-17T05:27:11.575Z</time>
      </trkpt>
      <trkpt lat="45.61454" lon="5.38182">
        <ele>334</ele>
        <time>2022-05-17T05:27:12.575Z</time>
      </trkpt>
      <trkpt lat="45.61451" lon="5.38188">
        <ele>334</ele>
        <time>2022-05-17T05:27:13.575Z</time>
      </trkpt>
      <trkpt lat="45.61449" lon="5.38193">
        <ele>334</ele>
        <time>2022-05-17T05:27:14.575Z</time>
      </trkpt>
      <trkpt lat="45.61447" lon="5.38199">
        <ele>334</ele>
        <time>2022-05-17T05:27:15.575Z</time>
      </trkpt>
      <trkpt lat="45.61445" lon="5.38205">
        <ele>334</ele>
        <time>2022-05-17T05:27:16.575Z</time>
      </trkpt>
      <trkpt lat="45.61443" lon="5.3821">
        <ele>333</ele>
        <time>2022-05-17T05:27:17.575Z</time>
      </trkpt>
      <trkpt lat="45.61441" lon="5.38216">
        <ele>333</ele>
        <time>2022-05-17T05:27:18.574Z</time>
      </trkpt>
      <trkpt lat="45.61438" lon="5.38223">
        <ele>333</ele>
        <time>2022-05-17T05:27:19.575Z</time>
      </trkpt>
      <trkpt lat="45.61436" lon="5.38229">
        <ele>334</ele>
        <time>2022-05-17T05:27:20.575Z</time>
      </trkpt>
      <trkpt lat="45.61434" lon="5.38236">
        <ele>334</ele>
        <time>2022-05-17T05:27:21.575Z</time>
      </trkpt>
      <trkpt lat="45.61431" lon="5.38242">
        <ele>334</ele>
        <time>2022-05-17T05:27:22.575Z</time>
      </trkpt>
      <trkpt lat="45.61429" lon="5.38248">
        <ele>334</ele>
        <time>2022-05-17T05:27:23.575Z</time>
      </trkpt>
      <trkpt lat="45.61426" lon="5.38256">
        <ele>334</ele>
        <time>2022-05-17T05:27:24.575Z</time>
      </trkpt>
      <trkpt lat="45.61424" lon="5.38263">
        <ele>335</ele>
        <time>2022-05-17T05:27:25.574Z</time>
      </trkpt>
      <trkpt lat="45.61422" lon="5.3827">
        <ele>335</ele>
        <time>2022-05-17T05:27:26.574Z</time>
      </trkpt>
      <trkpt lat="45.61421" lon="5.38275">
        <ele>335</ele>
        <time>2022-05-17T05:27:27.575Z</time>
      </trkpt>
      <trkpt lat="45.6142" lon="5.38282">
        <ele>336</ele>
        <time>2022-05-17T05:27:28.575Z</time>
      </trkpt>
      <trkpt lat="45.61419" lon="5.38288">
        <ele>337</ele>
        <time>2022-05-17T05:27:29.575Z</time>
      </trkpt>
      <trkpt lat="45.61418" lon="5.38292">
        <ele>337</ele>
        <time>2022-05-17T05:27:30.575Z</time>
      </trkpt>
      <trkpt lat="45.61417" lon="5.38298">
        <ele>337</ele>
        <time>2022-05-17T05:27:31.575Z</time>
      </trkpt>
      <trkpt lat="45.61415" lon="5.38305">
        <ele>337</ele>
        <time>2022-05-17T05:27:32.575Z</time>
      </trkpt>
      <trkpt lat="45.61414" lon="5.38312">
        <ele>338</ele>
        <time>2022-05-17T05:27:33.575Z</time>
      </trkpt>
      <trkpt lat="45.61413" lon="5.38318">
        <ele>338</ele>
        <time>2022-05-17T05:27:34.574Z</time>
      </trkpt>
      <trkpt lat="45.61412" lon="5.38325">
        <ele>338</ele>
        <time>2022-05-17T05:27:35.575Z</time>
      </trkpt>
      <trkpt lat="45.61411" lon="5.3833">
        <ele>339</ele>
        <time>2022-05-17T05:27:36.575Z</time>
      </trkpt>
      <trkpt lat="45.6141" lon="5.38336">
        <ele>339</ele>
        <time>2022-05-17T05:27:37.575Z</time>
      </trkpt>
      <trkpt lat="45.61409" lon="5.38342">
        <ele>339</ele>
        <time>2022-05-17T05:27:38.574Z</time>
      </trkpt>
      <trkpt lat="45.61408" lon="5.38347">
        <ele>340</ele>
        <time>2022-05-17T05:27:39.575Z</time>
      </trkpt>
      <trkpt lat="45.61407" lon="5.38352">
        <ele>340</ele>
        <time>2022-05-17T05:27:40.575Z</time>
      </trkpt>
      <trkpt lat="45.61406" lon="5.38358">
        <ele>341</ele>
        <time>2022-05-17T05:27:41.575Z</time>
      </trkpt>
      <trkpt lat="45.61405" lon="5.38364">
        <ele>341</ele>
        <time>2022-05-17T05:27:42.574Z</time>
      </trkpt>
      <trkpt lat="45.61404" lon="5.38371">
        <ele>341</ele>
        <time>2022-05-17T05:27:43.575Z</time>
      </trkpt>
      <trkpt lat="45.61402" lon="5.38379">
        <ele>341</ele>
        <time>2022-05-17T05:27:44.575Z</time>
      </trkpt>
      <trkpt lat="45.61402" lon="5.38385">
        <ele>342</ele>
        <time>2022-05-17T05:27:45.575Z</time>
      </trkpt>
      <trkpt lat="45.61401" lon="5.38392">
        <ele>342</ele>
        <time>2022-05-17T05:27:46.575Z</time>
      </trkpt>
      <trkpt lat="45.614" lon="5.38398">
        <ele>342</ele>
        <time>2022-05-17T05:27:47.575Z</time>
      </trkpt>
      <trkpt lat="45.61399" lon="5.38405">
        <ele>341</ele>
        <time>2022-05-17T05:27:48.574Z</time>
      </trkpt>
      <trkpt lat="45.61398" lon="5.38412">
        <ele>341</ele>
        <time>2022-05-17T05:27:49.575Z</time>
      </trkpt>
      <trkpt lat="45.61397" lon="5.38419">
        <ele>341</ele>
        <time>2022-05-17T05:27:50.575Z</time>
      </trkpt>
      <trkpt lat="45.61396" lon="5.38426">
        <ele>341</ele>
        <time>2022-05-17T05:27:51.575Z</time>
      </trkpt>
      <trkpt lat="45.61395" lon="5.38431">
        <ele>340</ele>
        <time>2022-05-17T05:27:52.575Z</time>
      </trkpt>
      <trkpt lat="45.61394" lon="5.38437">
        <ele>340</ele>
        <time>2022-05-17T05:27:53.574Z</time>
      </trkpt>
      <trkpt lat="45.61393" lon="5.38443">
        <ele>340</ele>
        <time>2022-05-17T05:27:54.575Z</time>
      </trkpt>
      <trkpt lat="45.61392" lon="5.3845">
        <ele>340</ele>
        <time>2022-05-17T05:27:55.575Z</time>
      </trkpt>
      <trkpt lat="45.61391" lon="5.38456">
        <ele>339</ele>
        <time>2022-05-17T05:27:56.575Z</time>
      </trkpt>
      <trkpt lat="45.61391" lon="5.38463">
        <ele>339</ele>
        <time>2022-05-17T05:27:57.574Z</time>
      </trkpt>
      <trkpt lat="45.61389" lon="5.38471">
        <ele>339</ele>
        <time>2022-05-17T05:27:58.574Z</time>
      </trkpt>
      <trkpt lat="45.61388" lon="5.38477">
        <ele>339</ele>
        <time>2022-05-17T05:27:59.574Z</time>
      </trkpt>
      <trkpt lat="45.61387" lon="5.38484">
        <ele>339</ele>
        <time>2022-05-17T05:28:00.575Z</time>
      </trkpt>
      <trkpt lat="45.61386" lon="5.3849">
        <ele>339</ele>
        <time>2022-05-17T05:28:01.575Z</time>
      </trkpt>
      <trkpt lat="45.61385" lon="5.38495">
        <ele>339</ele>
        <time>2022-05-17T05:28:02.575Z</time>
      </trkpt>
      <trkpt lat="45.61385" lon="5.38502">
        <ele>339</ele>
        <time>2022-05-17T05:28:03.575Z</time>
      </trkpt>
      <trkpt lat="45.61384" lon="5.38508">
        <ele>340</ele>
        <time>2022-05-17T05:28:04.575Z</time>
      </trkpt>
      <trkpt lat="45.61383" lon="5.38514">
        <ele>340</ele>
        <time>2022-05-17T05:28:05.575Z</time>
      </trkpt>
      <trkpt lat="45.61382" lon="5.38519">
        <ele>340</ele>
        <time>2022-05-17T05:28:06.574Z</time>
      </trkpt>
      <trkpt lat="45.61381" lon="5.38524">
        <ele>340</ele>
        <time>2022-05-17T05:28:07.575Z</time>
      </trkpt>
      <trkpt lat="45.6138" lon="5.38531">
        <ele>340</ele>
        <time>2022-05-17T05:28:08.575Z</time>
      </trkpt>
      <trkpt lat="45.61379" lon="5.38538">
        <ele>340</ele>
        <time>2022-05-17T05:28:09.575Z</time>
      </trkpt>
      <trkpt lat="45.61377" lon="5.38543">
        <ele>340</ele>
        <time>2022-05-17T05:28:10.575Z</time>
      </trkpt>
      <trkpt lat="45.61376" lon="5.38549">
        <ele>340</ele>
        <time>2022-05-17T05:28:11.575Z</time>
      </trkpt>
      <trkpt lat="45.61375" lon="5.38555">
        <ele>340</ele>
        <time>2022-05-17T05:28:12.575Z</time>
      </trkpt>
      <trkpt lat="45.61374" lon="5.3856">
        <ele>339</ele>
        <time>2022-05-17T05:28:13.575Z</time>
      </trkpt>
      <trkpt lat="45.61373" lon="5.38567">
        <ele>339</ele>
        <time>2022-05-17T05:28:14.575Z</time>
      </trkpt>
      <trkpt lat="45.61371" lon="5.38573">
        <ele>339</ele>
        <time>2022-05-17T05:28:15.574Z</time>
      </trkpt>
      <trkpt lat="45.6137" lon="5.3858">
        <ele>339</ele>
        <time>2022-05-17T05:28:16.575Z</time>
      </trkpt>
      <trkpt lat="45.61369" lon="5.38586">
        <ele>339</ele>
        <time>2022-05-17T05:28:17.575Z</time>
      </trkpt>
      <trkpt lat="45.61367" lon="5.38593">
        <ele>339</ele>
        <time>2022-05-17T05:28:18.575Z</time>
      </trkpt>
      <trkpt lat="45.61366" lon="5.38599">
        <ele>339</ele>
        <time>2022-05-17T05:28:19.575Z</time>
      </trkpt>
      <trkpt lat="45.61365" lon="5.38606">
        <ele>339</ele>
        <time>2022-05-17T05:28:20.575Z</time>
      </trkpt>
      <trkpt lat="45.61363" lon="5.38613">
        <ele>339</ele>
        <time>2022-05-17T05:28:21.575Z</time>
      </trkpt>
      <trkpt lat="45.61362" lon="5.3862">
        <ele>340</ele>
        <time>2022-05-17T05:28:22.574Z</time>
      </trkpt>
      <trkpt lat="45.6136" lon="5.38627">
        <ele>340</ele>
        <time>2022-05-17T05:28:23.575Z</time>
      </trkpt>
      <trkpt lat="45.61359" lon="5.38633">
        <ele>341</ele>
        <time>2022-05-17T05:28:24.574Z</time>
      </trkpt>
      <trkpt lat="45.61357" lon="5.38641">
        <ele>341</ele>
        <time>2022-05-17T05:28:25.574Z</time>
      </trkpt>
      <trkpt lat="45.61356" lon="5.38648">
        <ele>342</ele>
        <time>2022-05-17T05:28:26.575Z</time>
      </trkpt>
      <trkpt lat="45.61354" lon="5.38655">
        <ele>342</ele>
        <time>2022-05-17T05:28:27.574Z</time>
      </trkpt>
      <trkpt lat="45.61353" lon="5.38662">
        <ele>342</ele>
        <time>2022-05-17T05:28:28.575Z</time>
      </trkpt>
      <trkpt lat="45.61351" lon="5.3867">
        <ele>343</ele>
        <time>2022-05-17T05:28:29.575Z</time>
      </trkpt>
      <trkpt lat="45.61349" lon="5.38677">
        <ele>343</ele>
        <time>2022-05-17T05:28:30.575Z</time>
      </trkpt>
      <trkpt lat="45.61347" lon="5.38685">
        <ele>344</ele>
        <time>2022-05-17T05:28:31.575Z</time>
      </trkpt>
      <trkpt lat="45.61346" lon="5.38692">
        <ele>344</ele>
        <time>2022-05-17T05:28:32.575Z</time>
      </trkpt>
      <trkpt lat="45.61345" lon="5.38699">
        <ele>344</ele>
        <time>2022-05-17T05:28:33.575Z</time>
      </trkpt>
      <trkpt lat="45.61344" lon="5.38706">
        <ele>344</ele>
        <time>2022-05-17T05:28:34.574Z</time>
      </trkpt>
      <trkpt lat="45.61343" lon="5.38713">
        <ele>344</ele>
        <time>2022-05-17T05:28:35.575Z</time>
      </trkpt>
      <trkpt lat="45.61341" lon="5.38721">
        <ele>345</ele>
        <time>2022-05-17T05:28:36.575Z</time>
      </trkpt>
      <trkpt lat="45.6134" lon="5.38727">
        <ele>345</ele>
        <time>2022-05-17T05:28:37.575Z</time>
      </trkpt>
      <trkpt lat="45.61338" lon="5.38735">
        <ele>345</ele>
        <time>2022-05-17T05:28:38.574Z</time>
      </trkpt>
      <trkpt lat="45.61336" lon="5.38742">
        <ele>345</ele>
        <time>2022-05-17T05:28:39.575Z</time>
      </trkpt>
      <trkpt lat="45.61335" lon="5.38749">
        <ele>345</ele>
        <time>2022-05-17T05:28:40.574Z</time>
      </trkpt>
      <trkpt lat="45.61334" lon="5.38756">
        <ele>345</ele>
        <time>2022-05-17T05:28:41.575Z</time>
      </trkpt>
      <trkpt lat="45.61333" lon="5.38762">
        <ele>345</ele>
        <time>2022-05-17T05:28:42.574Z</time>
      </trkpt>
      <trkpt lat="45.61332" lon="5.3877">
        <ele>345</ele>
        <time>2022-05-17T05:28:43.575Z</time>
      </trkpt>
      <trkpt lat="45.6133" lon="5.38777">
        <ele>345</ele>
        <time>2022-05-17T05:28:44.574Z</time>
      </trkpt>
      <trkpt lat="45.61329" lon="5.38784">
        <ele>345</ele>
        <time>2022-05-17T05:28:45.575Z</time>
      </trkpt>
      <trkpt lat="45.61327" lon="5.3879">
        <ele>345</ele>
        <time>2022-05-17T05:28:46.575Z</time>
      </trkpt>
      <trkpt lat="45.61326" lon="5.38797">
        <ele>345</ele>
        <time>2022-05-17T05:28:47.575Z</time>
      </trkpt>
      <trkpt lat="45.61325" lon="5.38803">
        <ele>346</ele>
        <time>2022-05-17T05:28:48.575Z</time>
      </trkpt>
      <trkpt lat="45.61323" lon="5.38809">
        <ele>346</ele>
        <time>2022-05-17T05:28:49.574Z</time>
      </trkpt>
      <trkpt lat="45.61322" lon="5.38815">
        <ele>346</ele>
        <time>2022-05-17T05:28:50.575Z</time>
      </trkpt>
      <trkpt lat="45.6132" lon="5.38821">
        <ele>347</ele>
        <time>2022-05-17T05:28:51.575Z</time>
      </trkpt>
      <trkpt lat="45.61319" lon="5.38827">
        <ele>347</ele>
        <time>2022-05-17T05:28:52.575Z</time>
      </trkpt>
      <trkpt lat="45.61318" lon="5.38831">
        <ele>347</ele>
        <time>2022-05-17T05:28:53.574Z</time>
      </trkpt>
      <trkpt lat="45.61316" lon="5.38837">
        <ele>347</ele>
        <time>2022-05-17T05:28:54.574Z</time>
      </trkpt>
      <trkpt lat="45.61315" lon="5.38842">
        <ele>347</ele>
        <time>2022-05-17T05:28:55.575Z</time>
      </trkpt>
      <trkpt lat="45.61314" lon="5.38848">
        <ele>347</ele>
        <time>2022-05-17T05:28:56.575Z</time>
      </trkpt>
      <trkpt lat="45.61312" lon="5.38853">
        <ele>348</ele>
        <time>2022-05-17T05:28:57.575Z</time>
      </trkpt>
      <trkpt lat="45.61311" lon="5.38858">
        <ele>348</ele>
        <time>2022-05-17T05:28:58.575Z</time>
      </trkpt>
      <trkpt lat="45.6131" lon="5.38864">
        <ele>348</ele>
        <time>2022-05-17T05:28:59.575Z</time>
      </trkpt>
      <trkpt lat="45.6131" lon="5.3887">
        <ele>348</ele>
        <time>2022-05-17T05:29:00.575Z</time>
      </trkpt>
      <trkpt lat="45.6131" lon="5.38876">
        <ele>348</ele>
        <time>2022-05-17T05:29:01.575Z</time>
      </trkpt>
      <trkpt lat="45.61311" lon="5.38882">
        <ele>349</ele>
        <time>2022-05-17T05:29:02.575Z</time>
      </trkpt>
      <trkpt lat="45.61312" lon="5.38888">
        <ele>350</ele>
        <time>2022-05-17T05:29:03.575Z</time>
      </trkpt>
      <trkpt lat="45.61313" lon="5.38893">
        <ele>350</ele>
        <time>2022-05-17T05:29:04.574Z</time>
      </trkpt>
      <trkpt lat="45.61315" lon="5.389">
        <ele>351</ele>
        <time>2022-05-17T05:29:05.574Z</time>
      </trkpt>
      <trkpt lat="45.61317" lon="5.38906">
        <ele>351</ele>
        <time>2022-05-17T05:29:06.575Z</time>
      </trkpt>
      <trkpt lat="45.61319" lon="5.38911">
        <ele>351</ele>
        <time>2022-05-17T05:29:07.575Z</time>
      </trkpt>
      <trkpt lat="45.61321" lon="5.38917">
        <ele>352</ele>
        <time>2022-05-17T05:29:08.575Z</time>
      </trkpt>
      <trkpt lat="45.61322" lon="5.38923">
        <ele>352</ele>
        <time>2022-05-17T05:29:09.575Z</time>
      </trkpt>
      <trkpt lat="45.61324" lon="5.38928">
        <ele>352</ele>
        <time>2022-05-17T05:29:10.575Z</time>
      </trkpt>
      <trkpt lat="45.61325" lon="5.38933">
        <ele>353</ele>
        <time>2022-05-17T05:29:11.575Z</time>
      </trkpt>
      <trkpt lat="45.61327" lon="5.38938">
        <ele>353</ele>
        <time>2022-05-17T05:29:12.574Z</time>
      </trkpt>
      <trkpt lat="45.61328" lon="5.38943">
        <ele>353</ele>
        <time>2022-05-17T05:29:13.575Z</time>
      </trkpt>
      <trkpt lat="45.61329" lon="5.38949">
        <ele>354</ele>
        <time>2022-05-17T05:29:14.574Z</time>
      </trkpt>
      <trkpt lat="45.61331" lon="5.38955">
        <ele>354</ele>
        <time>2022-05-17T05:29:15.574Z</time>
      </trkpt>
      <trkpt lat="45.61332" lon="5.3896">
        <ele>355</ele>
        <time>2022-05-17T05:29:16.575Z</time>
      </trkpt>
      <trkpt lat="45.61334" lon="5.38964">
        <ele>355</ele>
        <time>2022-05-17T05:29:17.574Z</time>
      </trkpt>
      <trkpt lat="45.61334" lon="5.38969">
        <ele>355</ele>
        <time>2022-05-17T05:29:18.575Z</time>
      </trkpt>
      <trkpt lat="45.61336" lon="5.38974">
        <ele>355</ele>
        <time>2022-05-17T05:29:19.575Z</time>
      </trkpt>
      <trkpt lat="45.61338" lon="5.3898">
        <ele>355</ele>
        <time>2022-05-17T05:29:20.575Z</time>
      </trkpt>
      <trkpt lat="45.61339" lon="5.38985">
        <ele>355</ele>
        <time>2022-05-17T05:29:21.575Z</time>
      </trkpt>
      <trkpt lat="45.61342" lon="5.3899">
        <ele>356</ele>
        <time>2022-05-17T05:29:22.575Z</time>
      </trkpt>
      <trkpt lat="45.61344" lon="5.38995">
        <ele>356</ele>
        <time>2022-05-17T05:29:23.574Z</time>
      </trkpt>
      <trkpt lat="45.61347" lon="5.39001">
        <ele>357</ele>
        <time>2022-05-17T05:29:24.574Z</time>
      </trkpt>
      <trkpt lat="45.6135" lon="5.39007">
        <ele>357</ele>
        <time>2022-05-17T05:29:25.575Z</time>
      </trkpt>
      <trkpt lat="45.61353" lon="5.39013">
        <ele>357</ele>
        <time>2022-05-17T05:29:26.575Z</time>
      </trkpt>
      <trkpt lat="45.61355" lon="5.39018">
        <ele>357</ele>
        <time>2022-05-17T05:29:27.575Z</time>
      </trkpt>
      <trkpt lat="45.61357" lon="5.39024">
        <ele>358</ele>
        <time>2022-05-17T05:29:28.575Z</time>
      </trkpt>
      <trkpt lat="45.6136" lon="5.3903">
        <ele>358</ele>
        <time>2022-05-17T05:29:29.574Z</time>
      </trkpt>
      <trkpt lat="45.61362" lon="5.39035">
        <ele>358</ele>
        <time>2022-05-17T05:29:30.575Z</time>
      </trkpt>
      <trkpt lat="45.61364" lon="5.39041">
        <ele>358</ele>
        <time>2022-05-17T05:29:31.575Z</time>
      </trkpt>
      <trkpt lat="45.61366" lon="5.39048">
        <ele>358</ele>
        <time>2022-05-17T05:29:32.575Z</time>
      </trkpt>
      <trkpt lat="45.61366" lon="5.39053">
        <ele>359</ele>
        <time>2022-05-17T05:29:33.575Z</time>
      </trkpt>
      <trkpt lat="45.61365" lon="5.39058">
        <ele>359</ele>
        <time>2022-05-17T05:29:34.575Z</time>
      </trkpt>
      <trkpt lat="45.61363" lon="5.3906">
        <ele>359</ele>
        <time>2022-05-17T05:29:35.575Z</time>
      </trkpt>
      <trkpt lat="45.6136" lon="5.39062">
        <ele>360</ele>
        <time>2022-05-17T05:29:36.575Z</time>
      </trkpt>
      <trkpt lat="45.61356" lon="5.39063">
        <ele>361</ele>
        <time>2022-05-17T05:29:37.575Z</time>
      </trkpt>
      <trkpt lat="45.61351" lon="5.39063">
        <ele>361</ele>
        <time>2022-05-17T05:29:38.575Z</time>
      </trkpt>
      <trkpt lat="45.61346" lon="5.39064">
        <ele>361</ele>
        <time>2022-05-17T05:29:39.575Z</time>
      </trkpt>
      <trkpt lat="45.61342" lon="5.39064">
        <ele>361</ele>
        <time>2022-05-17T05:29:40.574Z</time>
      </trkpt>
      <trkpt lat="45.61337" lon="5.39065">
        <ele>361</ele>
        <time>2022-05-17T05:29:41.575Z</time>
      </trkpt>
      <trkpt lat="45.61333" lon="5.39066">
        <ele>361</ele>
        <time>2022-05-17T05:29:42.575Z</time>
      </trkpt>
      <trkpt lat="45.61329" lon="5.39068">
        <ele>362</ele>
        <time>2022-05-17T05:29:43.574Z</time>
      </trkpt>
      <trkpt lat="45.61326" lon="5.39071">
        <ele>362</ele>
        <time>2022-05-17T05:29:44.574Z</time>
      </trkpt>
      <trkpt lat="45.61324" lon="5.39075">
        <ele>362</ele>
        <time>2022-05-17T05:29:45.574Z</time>
      </trkpt>
      <trkpt lat="45.61324" lon="5.3908">
        <ele>362</ele>
        <time>2022-05-17T05:29:46.575Z</time>
      </trkpt>
      <trkpt lat="45.61323" lon="5.39085">
        <ele>362</ele>
        <time>2022-05-17T05:29:47.574Z</time>
      </trkpt>
      <trkpt lat="45.61322" lon="5.3909">
        <ele>362</ele>
        <time>2022-05-17T05:29:48.575Z</time>
      </trkpt>
      <trkpt lat="45.61322" lon="5.39096">
        <ele>362</ele>
        <time>2022-05-17T05:29:49.575Z</time>
      </trkpt>
      <trkpt lat="45.61322" lon="5.39102">
        <ele>361</ele>
        <time>2022-05-17T05:29:50.574Z</time>
      </trkpt>
      <trkpt lat="45.61322" lon="5.39109">
        <ele>361</ele>
        <time>2022-05-17T05:29:51.575Z</time>
      </trkpt>
      <trkpt lat="45.61322" lon="5.39116">
        <ele>361</ele>
        <time>2022-05-17T05:29:52.575Z</time>
      </trkpt>
      <trkpt lat="45.61321" lon="5.39123">
        <ele>362</ele>
        <time>2022-05-17T05:29:53.574Z</time>
      </trkpt>
      <trkpt lat="45.6132" lon="5.39129">
        <ele>363</ele>
        <time>2022-05-17T05:29:54.574Z</time>
      </trkpt>
      <trkpt lat="45.61319" lon="5.39136">
        <ele>363</ele>
        <time>2022-05-17T05:29:55.575Z</time>
      </trkpt>
      <trkpt lat="45.61318" lon="5.39143">
        <ele>364</ele>
        <time>2022-05-17T05:29:56.575Z</time>
      </trkpt>
      <trkpt lat="45.61316" lon="5.39151">
        <ele>364</ele>
        <time>2022-05-17T05:29:57.574Z</time>
      </trkpt>
      <trkpt lat="45.61315" lon="5.39156">
        <ele>364</ele>
        <time>2022-05-17T05:29:58.575Z</time>
      </trkpt>
      <trkpt lat="45.61313" lon="5.39162">
        <ele>365</ele>
        <time>2022-05-17T05:29:59.574Z</time>
      </trkpt>
      <trkpt lat="45.61312" lon="5.39169">
        <ele>365</ele>
        <time>2022-05-17T05:30:00.574Z</time>
      </trkpt>
      <trkpt lat="45.6131" lon="5.39177">
        <ele>365</ele>
        <time>2022-05-17T05:30:01.575Z</time>
      </trkpt>
      <trkpt lat="45.61309" lon="5.39183">
        <ele>365</ele>
        <time>2022-05-17T05:30:02.575Z</time>
      </trkpt>
      <trkpt lat="45.61308" lon="5.39189">
        <ele>365</ele>
        <time>2022-05-17T05:30:03.574Z</time>
      </trkpt>
      <trkpt lat="45.61307" lon="5.39194">
        <ele>365</ele>
        <time>2022-05-17T05:30:04.575Z</time>
      </trkpt>
      <trkpt lat="45.61306" lon="5.392">
        <ele>365</ele>
        <time>2022-05-17T05:30:05.575Z</time>
      </trkpt>
      <trkpt lat="45.61303" lon="5.39207">
        <ele>366</ele>
        <time>2022-05-17T05:30:06.575Z</time>
      </trkpt>
      <trkpt lat="45.61301" lon="5.39215">
        <ele>366</ele>
        <time>2022-05-17T05:30:07.574Z</time>
      </trkpt>
      <trkpt lat="45.613" lon="5.3922">
        <ele>367</ele>
        <time>2022-05-17T05:30:08.575Z</time>
      </trkpt>
      <trkpt lat="45.61298" lon="5.39226">
        <ele>367</ele>
        <time>2022-05-17T05:30:09.575Z</time>
      </trkpt>
      <trkpt lat="45.61297" lon="5.39233">
        <ele>367</ele>
        <time>2022-05-17T05:30:10.575Z</time>
      </trkpt>
      <trkpt lat="45.61295" lon="5.39239">
        <ele>368</ele>
        <time>2022-05-17T05:30:11.575Z</time>
      </trkpt>
      <trkpt lat="45.61294" lon="5.39245">
        <ele>368</ele>
        <time>2022-05-17T05:30:12.574Z</time>
      </trkpt>
      <trkpt lat="45.61292" lon="5.39252">
        <ele>368</ele>
        <time>2022-05-17T05:30:13.575Z</time>
      </trkpt>
      <trkpt lat="45.6129" lon="5.39258">
        <ele>369</ele>
        <time>2022-05-17T05:30:14.575Z</time>
      </trkpt>
      <trkpt lat="45.61288" lon="5.39265">
        <ele>369</ele>
        <time>2022-05-17T05:30:15.575Z</time>
      </trkpt>
      <trkpt lat="45.61287" lon="5.39271">
        <ele>369</ele>
        <time>2022-05-17T05:30:16.574Z</time>
      </trkpt>
      <trkpt lat="45.61285" lon="5.39277">
        <ele>369</ele>
        <time>2022-05-17T05:30:17.574Z</time>
      </trkpt>
      <trkpt lat="45.61284" lon="5.39284">
        <ele>369</ele>
        <time>2022-05-17T05:30:18.575Z</time>
      </trkpt>
      <trkpt lat="45.61282" lon="5.39291">
        <ele>369</ele>
        <time>2022-05-17T05:30:19.575Z</time>
      </trkpt>
      <trkpt lat="45.6128" lon="5.39297">
        <ele>369</ele>
        <time>2022-05-17T05:30:20.575Z</time>
      </trkpt>
      <trkpt lat="45.61278" lon="5.39303">
        <ele>369</ele>
        <time>2022-05-17T05:30:21.575Z</time>
      </trkpt>
      <trkpt lat="45.61275" lon="5.3931">
        <ele>369</ele>
        <time>2022-05-17T05:30:22.575Z</time>
      </trkpt>
      <trkpt lat="45.61273" lon="5.39317">
        <ele>370</ele>
        <time>2022-05-17T05:30:23.574Z</time>
      </trkpt>
      <trkpt lat="45.61272" lon="5.39324">
        <ele>371</ele>
        <time>2022-05-17T05:30:24.575Z</time>
      </trkpt>
      <trkpt lat="45.61271" lon="5.3933">
        <ele>371</ele>
        <time>2022-05-17T05:30:25.575Z</time>
      </trkpt>
      <trkpt lat="45.6127" lon="5.39335">
        <ele>371</ele>
        <time>2022-05-17T05:30:26.575Z</time>
      </trkpt>
      <trkpt lat="45.61269" lon="5.39341">
        <ele>371</ele>
        <time>2022-05-17T05:30:27.575Z</time>
      </trkpt>
      <trkpt lat="45.61267" lon="5.39347">
        <ele>371</ele>
        <time>2022-05-17T05:30:28.575Z</time>
      </trkpt>
      <trkpt lat="45.61266" lon="5.39353">
        <ele>370</ele>
        <time>2022-05-17T05:30:29.575Z</time>
      </trkpt>
      <trkpt lat="45.61264" lon="5.39358">
        <ele>370</ele>
        <time>2022-05-17T05:30:30.575Z</time>
      </trkpt>
      <trkpt lat="45.61263" lon="5.39364">
        <ele>370</ele>
        <time>2022-05-17T05:30:31.575Z</time>
      </trkpt>
      <trkpt lat="45.61262" lon="5.39369">
        <ele>370</ele>
        <time>2022-05-17T05:30:32.575Z</time>
      </trkpt>
      <trkpt lat="45.61261" lon="5.39375">
        <ele>371</ele>
        <time>2022-05-17T05:30:33.575Z</time>
      </trkpt>
      <trkpt lat="45.6126" lon="5.3938">
        <ele>371</ele>
        <time>2022-05-17T05:30:34.575Z</time>
      </trkpt>
      <trkpt lat="45.61259" lon="5.39386">
        <ele>372</ele>
        <time>2022-05-17T05:30:35.575Z</time>
      </trkpt>
      <trkpt lat="45.61258" lon="5.39391">
        <ele>373</ele>
        <time>2022-05-17T05:30:36.574Z</time>
      </trkpt>
      <trkpt lat="45.61257" lon="5.39397">
        <ele>373</ele>
        <time>2022-05-17T05:30:37.575Z</time>
      </trkpt>
      <trkpt lat="45.61256" lon="5.39402">
        <ele>374</ele>
        <time>2022-05-17T05:30:38.575Z</time>
      </trkpt>
      <trkpt lat="45.61255" lon="5.39408">
        <ele>375</ele>
        <time>2022-05-17T05:30:39.575Z</time>
      </trkpt>
      <trkpt lat="45.61254" lon="5.39413">
        <ele>376</ele>
        <time>2022-05-17T05:30:40.575Z</time>
      </trkpt>
      <trkpt lat="45.61254" lon="5.39418">
        <ele>376</ele>
        <time>2022-05-17T05:30:41.575Z</time>
      </trkpt>
      <trkpt lat="45.61254" lon="5.39424">
        <ele>376</ele>
        <time>2022-05-17T05:30:42.575Z</time>
      </trkpt>
      <trkpt lat="45.61253" lon="5.39428">
        <ele>377</ele>
        <time>2022-05-17T05:30:43.575Z</time>
      </trkpt>
      <trkpt lat="45.61253" lon="5.39434">
        <ele>377</ele>
        <time>2022-05-17T05:30:44.575Z</time>
      </trkpt>
      <trkpt lat="45.61253" lon="5.39439">
        <ele>377</ele>
        <time>2022-05-17T05:30:45.574Z</time>
      </trkpt>
      <trkpt lat="45.61252" lon="5.39446">
        <ele>377</ele>
        <time>2022-05-17T05:30:46.575Z</time>
      </trkpt>
      <trkpt lat="45.61252" lon="5.39453">
        <ele>377</ele>
        <time>2022-05-17T05:30:47.575Z</time>
      </trkpt>
      <trkpt lat="45.61252" lon="5.39459">
        <ele>377</ele>
        <time>2022-05-17T05:30:48.575Z</time>
      </trkpt>
      <trkpt lat="45.61252" lon="5.39466">
        <ele>377</ele>
        <time>2022-05-17T05:30:49.574Z</time>
      </trkpt>
      <trkpt lat="45.61253" lon="5.39472">
        <ele>377</ele>
        <time>2022-05-17T05:30:50.574Z</time>
      </trkpt>
      <trkpt lat="45.61253" lon="5.39477">
        <ele>377</ele>
        <time>2022-05-17T05:30:51.574Z</time>
      </trkpt>
      <trkpt lat="45.61254" lon="5.39485">
        <ele>378</ele>
        <time>2022-05-17T05:30:52.575Z</time>
      </trkpt>
      <trkpt lat="45.61255" lon="5.39491">
        <ele>378</ele>
        <time>2022-05-17T05:30:53.575Z</time>
      </trkpt>
      <trkpt lat="45.61255" lon="5.39497">
        <ele>378</ele>
        <time>2022-05-17T05:30:54.575Z</time>
      </trkpt>
      <trkpt lat="45.61255" lon="5.39504">
        <ele>377</ele>
        <time>2022-05-17T05:30:55.575Z</time>
      </trkpt>
      <trkpt lat="45.61255" lon="5.39511">
        <ele>377</ele>
        <time>2022-05-17T05:30:56.574Z</time>
      </trkpt>
      <trkpt lat="45.61255" lon="5.3952">
        <ele>377</ele>
        <time>2022-05-17T05:30:57.575Z</time>
      </trkpt>
      <trkpt lat="45.61255" lon="5.39528">
        <ele>378</ele>
        <time>2022-05-17T05:30:58.575Z</time>
      </trkpt>
      <trkpt lat="45.61255" lon="5.39536">
        <ele>378</ele>
        <time>2022-05-17T05:30:59.575Z</time>
      </trkpt>
      <trkpt lat="45.61255" lon="5.39543">
        <ele>379</ele>
        <time>2022-05-17T05:31:00.575Z</time>
      </trkpt>
      <trkpt lat="45.61254" lon="5.39552">
        <ele>379</ele>
        <time>2022-05-17T05:31:01.575Z</time>
      </trkpt>
      <trkpt lat="45.61253" lon="5.39562">
        <ele>379</ele>
        <time>2022-05-17T05:31:02.575Z</time>
      </trkpt>
      <trkpt lat="45.61252" lon="5.39572">
        <ele>379</ele>
        <time>2022-05-17T05:31:03.575Z</time>
      </trkpt>
      <trkpt lat="45.61252" lon="5.3958">
        <ele>379</ele>
        <time>2022-05-17T05:31:04.575Z</time>
      </trkpt>
      <trkpt lat="45.61252" lon="5.39589">
        <ele>379</ele>
        <time>2022-05-17T05:31:05.575Z</time>
      </trkpt>
      <trkpt lat="45.61253" lon="5.396">
        <ele>379</ele>
        <time>2022-05-17T05:31:06.575Z</time>
      </trkpt>
      <trkpt lat="45.61253" lon="5.39613">
        <ele>378</ele>
        <time>2022-05-17T05:31:07.575Z</time>
      </trkpt>
      <trkpt lat="45.61253" lon="5.39623">
        <ele>378</ele>
        <time>2022-05-17T05:31:08.575Z</time>
      </trkpt>
      <trkpt lat="45.61254" lon="5.39634">
        <ele>378</ele>
        <time>2022-05-17T05:31:09.575Z</time>
      </trkpt>
      <trkpt lat="45.61255" lon="5.39645">
        <ele>378</ele>
        <time>2022-05-17T05:31:10.575Z</time>
      </trkpt>
      <trkpt lat="45.61256" lon="5.39657">
        <ele>378</ele>
        <time>2022-05-17T05:31:11.575Z</time>
      </trkpt>
      <trkpt lat="45.61256" lon="5.39668">
        <ele>378</ele>
        <time>2022-05-17T05:31:12.575Z</time>
      </trkpt>
      <trkpt lat="45.61257" lon="5.39679">
        <ele>378</ele>
        <time>2022-05-17T05:31:13.575Z</time>
      </trkpt>
      <trkpt lat="45.61257" lon="5.39689">
        <ele>378</ele>
        <time>2022-05-17T05:31:14.574Z</time>
      </trkpt>
      <trkpt lat="45.61258" lon="5.397">
        <ele>377</ele>
        <time>2022-05-17T05:31:15.575Z</time>
      </trkpt>
      <trkpt lat="45.61258" lon="5.39711">
        <ele>376</ele>
        <time>2022-05-17T05:31:16.575Z</time>
      </trkpt>
      <trkpt lat="45.61259" lon="5.39722">
        <ele>376</ele>
        <time>2022-05-17T05:31:17.575Z</time>
      </trkpt>
      <trkpt lat="45.6126" lon="5.39733">
        <ele>375</ele>
        <time>2022-05-17T05:31:18.575Z</time>
      </trkpt>
      <trkpt lat="45.6126" lon="5.39743">
        <ele>375</ele>
        <time>2022-05-17T05:31:19.575Z</time>
      </trkpt>
      <trkpt lat="45.61261" lon="5.39754">
        <ele>375</ele>
        <time>2022-05-17T05:31:20.575Z</time>
      </trkpt>
      <trkpt lat="45.61262" lon="5.39764">
        <ele>375</ele>
        <time>2022-05-17T05:31:21.575Z</time>
      </trkpt>
      <trkpt lat="45.61263" lon="5.39774">
        <ele>375</ele>
        <time>2022-05-17T05:31:22.575Z</time>
      </trkpt>
      <trkpt lat="45.61264" lon="5.39784">
        <ele>374</ele>
        <time>2022-05-17T05:31:23.575Z</time>
      </trkpt>
      <trkpt lat="45.61264" lon="5.39794">
        <ele>374</ele>
        <time>2022-05-17T05:31:24.575Z</time>
      </trkpt>
      <trkpt lat="45.61264" lon="5.39802">
        <ele>374</ele>
        <time>2022-05-17T05:31:25.575Z</time>
      </trkpt>
      <trkpt lat="45.61265" lon="5.39812">
        <ele>374</ele>
        <time>2022-05-17T05:31:26.575Z</time>
      </trkpt>
      <trkpt lat="45.61266" lon="5.39824">
        <ele>373</ele>
        <time>2022-05-17T05:31:27.575Z</time>
      </trkpt>
      <trkpt lat="45.61266" lon="5.39833">
        <ele>373</ele>
        <time>2022-05-17T05:31:28.574Z</time>
      </trkpt>
      <trkpt lat="45.61267" lon="5.39843">
        <ele>373</ele>
        <time>2022-05-17T05:31:29.575Z</time>
      </trkpt>
      <trkpt lat="45.61267" lon="5.39852">
        <ele>373</ele>
        <time>2022-05-17T05:31:30.575Z</time>
      </trkpt>
      <trkpt lat="45.61266" lon="5.39862">
        <ele>373</ele>
        <time>2022-05-17T05:31:31.574Z</time>
      </trkpt>
      <trkpt lat="45.61266" lon="5.39871">
        <ele>373</ele>
        <time>2022-05-17T05:31:32.575Z</time>
      </trkpt>
      <trkpt lat="45.61265" lon="5.39881">
        <ele>373</ele>
        <time>2022-05-17T05:31:33.574Z</time>
      </trkpt>
      <trkpt lat="45.61265" lon="5.3989">
        <ele>373</ele>
        <time>2022-05-17T05:31:34.575Z</time>
      </trkpt>
      <trkpt lat="45.61264" lon="5.399">
        <ele>374</ele>
        <time>2022-05-17T05:31:35.575Z</time>
      </trkpt>
      <trkpt lat="45.61264" lon="5.39907">
        <ele>374</ele>
        <time>2022-05-17T05:31:36.575Z</time>
      </trkpt>
      <trkpt lat="45.61263" lon="5.39918">
        <ele>373</ele>
        <time>2022-05-17T05:31:37.575Z</time>
      </trkpt>
      <trkpt lat="45.61263" lon="5.39927">
        <ele>373</ele>
        <time>2022-05-17T05:31:38.574Z</time>
      </trkpt>
      <trkpt lat="45.61263" lon="5.39937">
        <ele>374</ele>
        <time>2022-05-17T05:31:39.574Z</time>
      </trkpt>
      <trkpt lat="45.61263" lon="5.39946">
        <ele>374</ele>
        <time>2022-05-17T05:31:40.575Z</time>
      </trkpt>
      <trkpt lat="45.61264" lon="5.39955">
        <ele>374</ele>
        <time>2022-05-17T05:31:41.574Z</time>
      </trkpt>
      <trkpt lat="45.61265" lon="5.39964">
        <ele>374</ele>
        <time>2022-05-17T05:31:42.574Z</time>
      </trkpt>
      <trkpt lat="45.61266" lon="5.39973">
        <ele>375</ele>
        <time>2022-05-17T05:31:43.575Z</time>
      </trkpt>
      <trkpt lat="45.61268" lon="5.39982">
        <ele>375</ele>
        <time>2022-05-17T05:31:44.575Z</time>
      </trkpt>
      <trkpt lat="45.6127" lon="5.39991">
        <ele>376</ele>
        <time>2022-05-17T05:31:45.575Z</time>
      </trkpt>
      <trkpt lat="45.61272" lon="5.4">
        <ele>376</ele>
        <time>2022-05-17T05:31:46.575Z</time>
      </trkpt>
      <trkpt lat="45.61275" lon="5.40008">
        <ele>377</ele>
        <time>2022-05-17T05:31:47.575Z</time>
      </trkpt>
      <trkpt lat="45.61277" lon="5.40017">
        <ele>378</ele>
        <time>2022-05-17T05:31:48.575Z</time>
      </trkpt>
      <trkpt lat="45.61279" lon="5.40027">
        <ele>378</ele>
        <time>2022-05-17T05:31:49.575Z</time>
      </trkpt>
      <trkpt lat="45.61281" lon="5.40036">
        <ele>379</ele>
        <time>2022-05-17T05:31:50.575Z</time>
      </trkpt>
      <trkpt lat="45.61283" lon="5.40045">
        <ele>379</ele>
        <time>2022-05-17T05:31:51.575Z</time>
      </trkpt>
      <trkpt lat="45.61286" lon="5.40054">
        <ele>379</ele>
        <time>2022-05-17T05:31:52.574Z</time>
      </trkpt>
      <trkpt lat="45.61288" lon="5.40063">
        <ele>379</ele>
        <time>2022-05-17T05:31:53.575Z</time>
      </trkpt>
      <trkpt lat="45.61291" lon="5.40073">
        <ele>379</ele>
        <time>2022-05-17T05:31:54.575Z</time>
      </trkpt>
      <trkpt lat="45.61294" lon="5.40082">
        <ele>379</ele>
        <time>2022-05-17T05:31:55.575Z</time>
      </trkpt>
      <trkpt lat="45.61297" lon="5.40091">
        <ele>379</ele>
        <time>2022-05-17T05:31:56.575Z</time>
      </trkpt>
      <trkpt lat="45.613" lon="5.401">
        <ele>379</ele>
        <time>2022-05-17T05:31:57.575Z</time>
      </trkpt>
      <trkpt lat="45.61303" lon="5.4011">
        <ele>379</ele>
        <time>2022-05-17T05:31:58.575Z</time>
      </trkpt>
      <trkpt lat="45.61306" lon="5.40119">
        <ele>379</ele>
        <time>2022-05-17T05:31:59.575Z</time>
      </trkpt>
      <trkpt lat="45.61309" lon="5.40127">
        <ele>379</ele>
        <time>2022-05-17T05:32:00.574Z</time>
      </trkpt>
      <trkpt lat="45.61313" lon="5.40136">
        <ele>379</ele>
        <time>2022-05-17T05:32:01.575Z</time>
      </trkpt>
      <trkpt lat="45.61316" lon="5.40145">
        <ele>378</ele>
        <time>2022-05-17T05:32:02.574Z</time>
      </trkpt>
      <trkpt lat="45.61319" lon="5.40154">
        <ele>378</ele>
        <time>2022-05-17T05:32:03.575Z</time>
      </trkpt>
      <trkpt lat="45.61323" lon="5.40162">
        <ele>378</ele>
        <time>2022-05-17T05:32:04.575Z</time>
      </trkpt>
      <trkpt lat="45.61326" lon="5.4017">
        <ele>378</ele>
        <time>2022-05-17T05:32:05.575Z</time>
      </trkpt>
      <trkpt lat="45.61329" lon="5.40178">
        <ele>379</ele>
        <time>2022-05-17T05:32:06.575Z</time>
      </trkpt>
      <trkpt lat="45.61332" lon="5.40186">
        <ele>379</ele>
        <time>2022-05-17T05:32:07.574Z</time>
      </trkpt>
      <trkpt lat="45.61335" lon="5.40194">
        <ele>379</ele>
        <time>2022-05-17T05:32:08.574Z</time>
      </trkpt>
      <trkpt lat="45.61338" lon="5.40201">
        <ele>378</ele>
        <time>2022-05-17T05:32:09.575Z</time>
      </trkpt>
      <trkpt lat="45.6134" lon="5.40208">
        <ele>378</ele>
        <time>2022-05-17T05:32:10.575Z</time>
      </trkpt>
      <trkpt lat="45.61344" lon="5.40216">
        <ele>378</ele>
        <time>2022-05-17T05:32:11.575Z</time>
      </trkpt>
      <trkpt lat="45.61347" lon="5.40223">
        <ele>377</ele>
        <time>2022-05-17T05:32:12.574Z</time>
      </trkpt>
      <trkpt lat="45.6135" lon="5.40231">
        <ele>377</ele>
        <time>2022-05-17T05:32:13.575Z</time>
      </trkpt>
      <trkpt lat="45.61353" lon="5.4024">
        <ele>377</ele>
        <time>2022-05-17T05:32:14.575Z</time>
      </trkpt>
      <trkpt lat="45.61356" lon="5.40248">
        <ele>377</ele>
        <time>2022-05-17T05:32:15.575Z</time>
      </trkpt>
      <trkpt lat="45.61359" lon="5.40256">
        <ele>377</ele>
        <time>2022-05-17T05:32:16.575Z</time>
      </trkpt>
      <trkpt lat="45.61362" lon="5.40265">
        <ele>377</ele>
        <time>2022-05-17T05:32:17.575Z</time>
      </trkpt>
      <trkpt lat="45.61366" lon="5.40273">
        <ele>377</ele>
        <time>2022-05-17T05:32:18.574Z</time>
      </trkpt>
      <trkpt lat="45.61369" lon="5.40282">
        <ele>377</ele>
        <time>2022-05-17T05:32:19.574Z</time>
      </trkpt>
      <trkpt lat="45.61372" lon="5.40291">
        <ele>377</ele>
        <time>2022-05-17T05:32:20.575Z</time>
      </trkpt>
      <trkpt lat="45.61375" lon="5.403">
        <ele>376</ele>
        <time>2022-05-17T05:32:21.574Z</time>
      </trkpt>
      <trkpt lat="45.61378" lon="5.40309">
        <ele>376</ele>
        <time>2022-05-17T05:32:22.575Z</time>
      </trkpt>
      <trkpt lat="45.61381" lon="5.40319">
        <ele>377</ele>
        <time>2022-05-17T05:32:23.575Z</time>
      </trkpt>
      <trkpt lat="45.61383" lon="5.40329">
        <ele>377</ele>
        <time>2022-05-17T05:32:24.575Z</time>
      </trkpt>
      <trkpt lat="45.61385" lon="5.40339">
        <ele>377</ele>
        <time>2022-05-17T05:32:25.575Z</time>
      </trkpt>
      <trkpt lat="45.61385" lon="5.40349">
        <ele>377</ele>
        <time>2022-05-17T05:32:26.575Z</time>
      </trkpt>
      <trkpt lat="45.61386" lon="5.40359">
        <ele>377</ele>
        <time>2022-05-17T05:32:27.575Z</time>
      </trkpt>
      <trkpt lat="45.61385" lon="5.40369">
        <ele>377</ele>
        <time>2022-05-17T05:32:28.575Z</time>
      </trkpt>
      <trkpt lat="45.61384" lon="5.40379">
        <ele>376</ele>
        <time>2022-05-17T05:32:29.575Z</time>
      </trkpt>
      <trkpt lat="45.61382" lon="5.40388">
        <ele>376</ele>
        <time>2022-05-17T05:32:30.575Z</time>
      </trkpt>
      <trkpt lat="45.61379" lon="5.40398">
        <ele>377</ele>
        <time>2022-05-17T05:32:31.574Z</time>
      </trkpt>
      <trkpt lat="45.61376" lon="5.40407">
        <ele>377</ele>
        <time>2022-05-17T05:32:32.575Z</time>
      </trkpt>
      <trkpt lat="45.61373" lon="5.40417">
        <ele>377</ele>
        <time>2022-05-17T05:32:33.575Z</time>
      </trkpt>
      <trkpt lat="45.6137" lon="5.40426">
        <ele>378</ele>
        <time>2022-05-17T05:32:34.575Z</time>
      </trkpt>
      <trkpt lat="45.61367" lon="5.40435">
        <ele>378</ele>
        <time>2022-05-17T05:32:35.574Z</time>
      </trkpt>
      <trkpt lat="45.61363" lon="5.40443">
        <ele>378</ele>
        <time>2022-05-17T05:32:36.574Z</time>
      </trkpt>
      <trkpt lat="45.6136" lon="5.4045">
        <ele>378</ele>
        <time>2022-05-17T05:32:37.575Z</time>
      </trkpt>
      <trkpt lat="45.61356" lon="5.40459">
        <ele>378</ele>
        <time>2022-05-17T05:32:38.575Z</time>
      </trkpt>
      <trkpt lat="45.61353" lon="5.40467">
        <ele>378</ele>
        <time>2022-05-17T05:32:39.574Z</time>
      </trkpt>
      <trkpt lat="45.61348" lon="5.40478">
        <ele>378</ele>
        <time>2022-05-17T05:32:40.575Z</time>
      </trkpt>
      <trkpt lat="45.61345" lon="5.40486">
        <ele>379</ele>
        <time>2022-05-17T05:32:41.575Z</time>
      </trkpt>
      <trkpt lat="45.61341" lon="5.40494">
        <ele>379</ele>
        <time>2022-05-17T05:32:42.575Z</time>
      </trkpt>
      <trkpt lat="45.61338" lon="5.40501">
        <ele>379</ele>
        <time>2022-05-17T05:32:43.575Z</time>
      </trkpt>
      <trkpt lat="45.61335" lon="5.4051">
        <ele>379</ele>
        <time>2022-05-17T05:32:44.575Z</time>
      </trkpt>
      <trkpt lat="45.61331" lon="5.40518">
        <ele>379</ele>
        <time>2022-05-17T05:32:45.575Z</time>
      </trkpt>
      <trkpt lat="45.61329" lon="5.40526">
        <ele>379</ele>
        <time>2022-05-17T05:32:46.575Z</time>
      </trkpt>
      <trkpt lat="45.61326" lon="5.40533">
        <ele>380</ele>
        <time>2022-05-17T05:32:47.575Z</time>
      </trkpt>
      <trkpt lat="45.61324" lon="5.40541">
        <ele>380</ele>
        <time>2022-05-17T05:32:48.574Z</time>
      </trkpt>
      <trkpt lat="45.61322" lon="5.40551">
        <ele>379</ele>
        <time>2022-05-17T05:32:49.575Z</time>
      </trkpt>
      <trkpt lat="45.6132" lon="5.40559">
        <ele>379</ele>
        <time>2022-05-17T05:32:50.575Z</time>
      </trkpt>
      <trkpt lat="45.61318" lon="5.40568">
        <ele>379</ele>
        <time>2022-05-17T05:32:51.575Z</time>
      </trkpt>
      <trkpt lat="45.61318" lon="5.40574">
        <ele>379</ele>
        <time>2022-05-17T05:32:52.575Z</time>
      </trkpt>
      <trkpt lat="45.61317" lon="5.40584">
        <ele>380</ele>
        <time>2022-05-17T05:32:53.574Z</time>
      </trkpt>
      <trkpt lat="45.61316" lon="5.40595">
        <ele>380</ele>
        <time>2022-05-17T05:32:54.574Z</time>
      </trkpt>
      <trkpt lat="45.61315" lon="5.40604">
        <ele>380</ele>
        <time>2022-05-17T05:32:55.574Z</time>
      </trkpt>
      <trkpt lat="45.61314" lon="5.40614">
        <ele>380</ele>
        <time>2022-05-17T05:32:56.575Z</time>
      </trkpt>
      <trkpt lat="45.61313" lon="5.40622">
        <ele>380</ele>
        <time>2022-05-17T05:32:57.575Z</time>
      </trkpt>
      <trkpt lat="45.61313" lon="5.40631">
        <ele>380</ele>
        <time>2022-05-17T05:32:58.575Z</time>
      </trkpt>
      <trkpt lat="45.61313" lon="5.4064">
        <ele>380</ele>
        <time>2022-05-17T05:32:59.574Z</time>
      </trkpt>
      <trkpt lat="45.61313" lon="5.40652">
        <ele>380</ele>
        <time>2022-05-17T05:33:00.575Z</time>
      </trkpt>
      <trkpt lat="45.61312" lon="5.40661">
        <ele>380</ele>
        <time>2022-05-17T05:33:01.575Z</time>
      </trkpt>
      <trkpt lat="45.61312" lon="5.4067">
        <ele>380</ele>
        <time>2022-05-17T05:33:02.575Z</time>
      </trkpt>
      <trkpt lat="45.61311" lon="5.40682">
        <ele>380</ele>
        <time>2022-05-17T05:33:03.575Z</time>
      </trkpt>
      <trkpt lat="45.61312" lon="5.40692">
        <ele>381</ele>
        <time>2022-05-17T05:33:04.575Z</time>
      </trkpt>
      <trkpt lat="45.61312" lon="5.40701">
        <ele>381</ele>
        <time>2022-05-17T05:33:05.575Z</time>
      </trkpt>
      <trkpt lat="45.61312" lon="5.40709">
        <ele>381</ele>
        <time>2022-05-17T05:33:06.575Z</time>
      </trkpt>
      <trkpt lat="45.61311" lon="5.4072">
        <ele>380</ele>
        <time>2022-05-17T05:33:07.575Z</time>
      </trkpt>
      <trkpt lat="45.61311" lon="5.40732">
        <ele>380</ele>
        <time>2022-05-17T05:33:08.575Z</time>
      </trkpt>
      <trkpt lat="45.6131" lon="5.40743">
        <ele>380</ele>
        <time>2022-05-17T05:33:09.574Z</time>
      </trkpt>
      <trkpt lat="45.6131" lon="5.40752">
        <ele>380</ele>
        <time>2022-05-17T05:33:10.575Z</time>
      </trkpt>
      <trkpt lat="45.6131" lon="5.40762">
        <ele>380</ele>
        <time>2022-05-17T05:33:11.574Z</time>
      </trkpt>
      <trkpt lat="45.6131" lon="5.40773">
        <ele>380</ele>
        <time>2022-05-17T05:33:12.575Z</time>
      </trkpt>
      <trkpt lat="45.61309" lon="5.40784">
        <ele>381</ele>
        <time>2022-05-17T05:33:13.575Z</time>
      </trkpt>
      <trkpt lat="45.61309" lon="5.40797">
        <ele>381</ele>
        <time>2022-05-17T05:33:14.574Z</time>
      </trkpt>
      <trkpt lat="45.61309" lon="5.40805">
        <ele>380</ele>
        <time>2022-05-17T05:33:15.575Z</time>
      </trkpt>
      <trkpt lat="45.61309" lon="5.40816">
        <ele>381</ele>
        <time>2022-05-17T05:33:16.574Z</time>
      </trkpt>
      <trkpt lat="45.61309" lon="5.40827">
        <ele>381</ele>
        <time>2022-05-17T05:33:17.575Z</time>
      </trkpt>
      <trkpt lat="45.61308" lon="5.4084">
        <ele>381</ele>
        <time>2022-05-17T05:33:18.575Z</time>
      </trkpt>
      <trkpt lat="45.61308" lon="5.40851">
        <ele>381</ele>
        <time>2022-05-17T05:33:19.575Z</time>
      </trkpt>
      <trkpt lat="45.61308" lon="5.40862">
        <ele>381</ele>
        <time>2022-05-17T05:33:20.575Z</time>
      </trkpt>
      <trkpt lat="45.61307" lon="5.40871">
        <ele>382</ele>
        <time>2022-05-17T05:33:21.575Z</time>
      </trkpt>
      <trkpt lat="45.61307" lon="5.40882">
        <ele>382</ele>
        <time>2022-05-17T05:33:22.575Z</time>
      </trkpt>
      <trkpt lat="45.61306" lon="5.40895">
        <ele>382</ele>
        <time>2022-05-17T05:33:23.574Z</time>
      </trkpt>
      <trkpt lat="45.61305" lon="5.40906">
        <ele>381</ele>
        <time>2022-05-17T05:33:24.574Z</time>
      </trkpt>
      <trkpt lat="45.61305" lon="5.40917">
        <ele>381</ele>
        <time>2022-05-17T05:33:25.575Z</time>
      </trkpt>
      <trkpt lat="45.61305" lon="5.40928">
        <ele>381</ele>
        <time>2022-05-17T05:33:26.574Z</time>
      </trkpt>
      <trkpt lat="45.61304" lon="5.40937">
        <ele>380</ele>
        <time>2022-05-17T05:33:27.575Z</time>
      </trkpt>
      <trkpt lat="45.61304" lon="5.4095">
        <ele>380</ele>
        <time>2022-05-17T05:33:28.575Z</time>
      </trkpt>
      <trkpt lat="45.61304" lon="5.4096">
        <ele>379</ele>
        <time>2022-05-17T05:33:29.575Z</time>
      </trkpt>
      <trkpt lat="45.61304" lon="5.40971">
        <ele>379</ele>
        <time>2022-05-17T05:33:30.575Z</time>
      </trkpt>
      <trkpt lat="45.61303" lon="5.4098">
        <ele>379</ele>
        <time>2022-05-17T05:33:31.575Z</time>
      </trkpt>
      <trkpt lat="45.61302" lon="5.40991">
        <ele>379</ele>
        <time>2022-05-17T05:33:32.575Z</time>
      </trkpt>
      <trkpt lat="45.61302" lon="5.41003">
        <ele>379</ele>
        <time>2022-05-17T05:33:33.574Z</time>
      </trkpt>
      <trkpt lat="45.61301" lon="5.41016">
        <ele>379</ele>
        <time>2022-05-17T05:33:34.575Z</time>
      </trkpt>
      <trkpt lat="45.61301" lon="5.41027">
        <ele>379</ele>
        <time>2022-05-17T05:33:35.575Z</time>
      </trkpt>
      <trkpt lat="45.61301" lon="5.41037">
        <ele>378</ele>
        <time>2022-05-17T05:33:36.575Z</time>
      </trkpt>
      <trkpt lat="45.613" lon="5.41046">
        <ele>378</ele>
        <time>2022-05-17T05:33:37.575Z</time>
      </trkpt>
      <trkpt lat="45.613" lon="5.41057">
        <ele>378</ele>
        <time>2022-05-17T05:33:38.574Z</time>
      </trkpt>
      <trkpt lat="45.61299" lon="5.4107">
        <ele>378</ele>
        <time>2022-05-17T05:33:39.575Z</time>
      </trkpt>
      <trkpt lat="45.61299" lon="5.41081">
        <ele>378</ele>
        <time>2022-05-17T05:33:40.574Z</time>
      </trkpt>
      <trkpt lat="45.61299" lon="5.41092">
        <ele>378</ele>
        <time>2022-05-17T05:33:41.575Z</time>
      </trkpt>
      <trkpt lat="45.61298" lon="5.411">
        <ele>378</ele>
        <time>2022-05-17T05:33:42.575Z</time>
      </trkpt>
      <trkpt lat="45.61298" lon="5.41113">
        <ele>378</ele>
        <time>2022-05-17T05:33:43.574Z</time>
      </trkpt>
      <trkpt lat="45.61297" lon="5.41123">
        <ele>378</ele>
        <time>2022-05-17T05:33:44.575Z</time>
      </trkpt>
      <trkpt lat="45.61297" lon="5.41134">
        <ele>378</ele>
        <time>2022-05-17T05:33:45.575Z</time>
      </trkpt>
      <trkpt lat="45.61296" lon="5.41144">
        <ele>377</ele>
        <time>2022-05-17T05:33:46.575Z</time>
      </trkpt>
      <trkpt lat="45.61296" lon="5.41153">
        <ele>377</ele>
        <time>2022-05-17T05:33:47.575Z</time>
      </trkpt>
      <trkpt lat="45.61295" lon="5.41163">
        <ele>377</ele>
        <time>2022-05-17T05:33:48.575Z</time>
      </trkpt>
      <trkpt lat="45.61295" lon="5.41176">
        <ele>377</ele>
        <time>2022-05-17T05:33:49.575Z</time>
      </trkpt>
      <trkpt lat="45.61294" lon="5.41187">
        <ele>377</ele>
        <time>2022-05-17T05:33:50.575Z</time>
      </trkpt>
      <trkpt lat="45.61294" lon="5.41197">
        <ele>377</ele>
        <time>2022-05-17T05:33:51.575Z</time>
      </trkpt>
      <trkpt lat="45.61293" lon="5.41206">
        <ele>377</ele>
        <time>2022-05-17T05:33:52.575Z</time>
      </trkpt>
      <trkpt lat="45.61293" lon="5.41216">
        <ele>377</ele>
        <time>2022-05-17T05:33:53.575Z</time>
      </trkpt>
      <trkpt lat="45.61292" lon="5.41229">
        <ele>377</ele>
        <time>2022-05-17T05:33:54.574Z</time>
      </trkpt>
      <trkpt lat="45.61292" lon="5.41238">
        <ele>376</ele>
        <time>2022-05-17T05:33:55.575Z</time>
      </trkpt>
      <trkpt lat="45.61291" lon="5.4125">
        <ele>376</ele>
        <time>2022-05-17T05:33:56.575Z</time>
      </trkpt>
      <trkpt lat="45.61291" lon="5.41259">
        <ele>376</ele>
        <time>2022-05-17T05:33:57.574Z</time>
      </trkpt>
      <trkpt lat="45.6129" lon="5.41271">
        <ele>376</ele>
        <time>2022-05-17T05:33:58.575Z</time>
      </trkpt>
      <trkpt lat="45.6129" lon="5.41282">
        <ele>376</ele>
        <time>2022-05-17T05:33:59.574Z</time>
      </trkpt>
      <trkpt lat="45.6129" lon="5.41292">
        <ele>376</ele>
        <time>2022-05-17T05:34:00.574Z</time>
      </trkpt>
      <trkpt lat="45.6129" lon="5.41303">
        <ele>376</ele>
        <time>2022-05-17T05:34:01.574Z</time>
      </trkpt>
      <trkpt lat="45.6129" lon="5.41311">
        <ele>376</ele>
        <time>2022-05-17T05:34:02.575Z</time>
      </trkpt>
      <trkpt lat="45.61289" lon="5.41321">
        <ele>377</ele>
        <time>2022-05-17T05:34:03.575Z</time>
      </trkpt>
      <trkpt lat="45.61289" lon="5.41334">
        <ele>377</ele>
        <time>2022-05-17T05:34:04.574Z</time>
      </trkpt>
      <trkpt lat="45.61289" lon="5.41344">
        <ele>377</ele>
        <time>2022-05-17T05:34:05.575Z</time>
      </trkpt>
      <trkpt lat="45.61289" lon="5.41354">
        <ele>378</ele>
        <time>2022-05-17T05:34:06.575Z</time>
      </trkpt>
      <trkpt lat="45.6129" lon="5.41362">
        <ele>378</ele>
        <time>2022-05-17T05:34:07.575Z</time>
      </trkpt>
      <trkpt lat="45.61291" lon="5.41374">
        <ele>378</ele>
        <time>2022-05-17T05:34:08.575Z</time>
      </trkpt>
      <trkpt lat="45.61292" lon="5.41384">
        <ele>378</ele>
        <time>2022-05-17T05:34:09.575Z</time>
      </trkpt>
      <trkpt lat="45.61293" lon="5.41393">
        <ele>378</ele>
        <time>2022-05-17T05:34:10.575Z</time>
      </trkpt>
      <trkpt lat="45.61295" lon="5.41401">
        <ele>379</ele>
        <time>2022-05-17T05:34:11.575Z</time>
      </trkpt>
      <trkpt lat="45.61297" lon="5.41409">
        <ele>379</ele>
        <time>2022-05-17T05:34:12.575Z</time>
      </trkpt>
      <trkpt lat="45.61299" lon="5.41417">
        <ele>378</ele>
        <time>2022-05-17T05:34:13.575Z</time>
      </trkpt>
      <trkpt lat="45.613" lon="5.41424">
        <ele>378</ele>
        <time>2022-05-17T05:34:14.575Z</time>
      </trkpt>
      <trkpt lat="45.61303" lon="5.41431">
        <ele>378</ele>
        <time>2022-05-17T05:34:15.575Z</time>
      </trkpt>
      <trkpt lat="45.61305" lon="5.41438">
        <ele>378</ele>
        <time>2022-05-17T05:34:16.575Z</time>
      </trkpt>
      <trkpt lat="45.61307" lon="5.41443">
        <ele>378</ele>
        <time>2022-05-17T05:34:17.575Z</time>
      </trkpt>
      <trkpt lat="45.61309" lon="5.4145">
        <ele>378</ele>
        <time>2022-05-17T05:34:18.575Z</time>
      </trkpt>
      <trkpt lat="45.61313" lon="5.41457">
        <ele>378</ele>
        <time>2022-05-17T05:34:19.575Z</time>
      </trkpt>
      <trkpt lat="45.61315" lon="5.41464">
        <ele>378</ele>
        <time>2022-05-17T05:34:20.575Z</time>
      </trkpt>
      <trkpt lat="45.61318" lon="5.41469">
        <ele>378</ele>
        <time>2022-05-17T05:34:21.575Z</time>
      </trkpt>
      <trkpt lat="45.61321" lon="5.41475">
        <ele>378</ele>
        <time>2022-05-17T05:34:22.575Z</time>
      </trkpt>
      <trkpt lat="45.61324" lon="5.41483">
        <ele>379</ele>
        <time>2022-05-17T05:34:23.574Z</time>
      </trkpt>
      <trkpt lat="45.61327" lon="5.41489">
        <ele>379</ele>
        <time>2022-05-17T05:34:24.575Z</time>
      </trkpt>
      <trkpt lat="45.6133" lon="5.41495">
        <ele>379</ele>
        <time>2022-05-17T05:34:25.575Z</time>
      </trkpt>
      <trkpt lat="45.61332" lon="5.415">
        <ele>379</ele>
        <time>2022-05-17T05:34:26.575Z</time>
      </trkpt>
      <trkpt lat="45.61335" lon="5.41507">
        <ele>380</ele>
        <time>2022-05-17T05:34:27.575Z</time>
      </trkpt>
      <trkpt lat="45.61339" lon="5.41514">
        <ele>380</ele>
        <time>2022-05-17T05:34:28.575Z</time>
      </trkpt>
      <trkpt lat="45.61342" lon="5.4152">
        <ele>380</ele>
        <time>2022-05-17T05:34:29.575Z</time>
      </trkpt>
      <trkpt lat="45.61345" lon="5.41526">
        <ele>380</ele>
        <time>2022-05-17T05:34:30.575Z</time>
      </trkpt>
      <trkpt lat="45.61347" lon="5.41531">
        <ele>381</ele>
        <time>2022-05-17T05:34:31.574Z</time>
      </trkpt>
      <trkpt lat="45.6135" lon="5.41538">
        <ele>381</ele>
        <time>2022-05-17T05:34:32.574Z</time>
      </trkpt>
      <trkpt lat="45.61354" lon="5.41545">
        <ele>381</ele>
        <time>2022-05-17T05:34:33.575Z</time>
      </trkpt>
      <trkpt lat="45.61357" lon="5.41552">
        <ele>382</ele>
        <time>2022-05-17T05:34:34.575Z</time>
      </trkpt>
      <trkpt lat="45.6136" lon="5.41558">
        <ele>382</ele>
        <time>2022-05-17T05:34:35.575Z</time>
      </trkpt>
      <trkpt lat="45.61362" lon="5.41565">
        <ele>383</ele>
        <time>2022-05-17T05:34:36.575Z</time>
      </trkpt>
      <trkpt lat="45.61364" lon="5.4157">
        <ele>384</ele>
        <time>2022-05-17T05:34:37.575Z</time>
      </trkpt>
      <trkpt lat="45.61366" lon="5.41577">
        <ele>384</ele>
        <time>2022-05-17T05:34:38.575Z</time>
      </trkpt>
      <trkpt lat="45.61367" lon="5.41585">
        <ele>384</ele>
        <time>2022-05-17T05:34:39.574Z</time>
      </trkpt>
      <trkpt lat="45.61369" lon="5.41592">
        <ele>384</ele>
        <time>2022-05-17T05:34:40.575Z</time>
      </trkpt>
      <trkpt lat="45.6137" lon="5.41599">
        <ele>384</ele>
        <time>2022-05-17T05:34:41.575Z</time>
      </trkpt>
      <trkpt lat="45.6137" lon="5.41607">
        <ele>384</ele>
        <time>2022-05-17T05:34:42.574Z</time>
      </trkpt>
      <trkpt lat="45.61371" lon="5.41614">
        <ele>384</ele>
        <time>2022-05-17T05:34:43.574Z</time>
      </trkpt>
      <trkpt lat="45.61372" lon="5.41621">
        <ele>384</ele>
        <time>2022-05-17T05:34:44.575Z</time>
      </trkpt>
      <trkpt lat="45.61372" lon="5.41627">
        <ele>384</ele>
        <time>2022-05-17T05:34:45.574Z</time>
      </trkpt>
      <trkpt lat="45.61372" lon="5.41634">
        <ele>384</ele>
        <time>2022-05-17T05:34:46.575Z</time>
      </trkpt>
      <trkpt lat="45.61373" lon="5.41641">
        <ele>384</ele>
        <time>2022-05-17T05:34:47.575Z</time>
      </trkpt>
      <trkpt lat="45.61373" lon="5.41648">
        <ele>384</ele>
        <time>2022-05-17T05:34:48.575Z</time>
      </trkpt>
      <trkpt lat="45.61372" lon="5.41657">
        <ele>385</ele>
        <time>2022-05-17T05:34:49.575Z</time>
      </trkpt>
      <trkpt lat="45.61371" lon="5.41663">
        <ele>385</ele>
        <time>2022-05-17T05:34:50.575Z</time>
      </trkpt>
      <trkpt lat="45.61371" lon="5.41671">
        <ele>386</ele>
        <time>2022-05-17T05:34:51.575Z</time>
      </trkpt>
      <trkpt lat="45.61371" lon="5.41677">
        <ele>386</ele>
        <time>2022-05-17T05:34:52.575Z</time>
      </trkpt>
      <trkpt lat="45.61371" lon="5.41684">
        <ele>386</ele>
        <time>2022-05-17T05:34:53.574Z</time>
      </trkpt>
      <trkpt lat="45.61371" lon="5.41693">
        <ele>386</ele>
        <time>2022-05-17T05:34:54.575Z</time>
      </trkpt>
      <trkpt lat="45.61371" lon="5.417">
        <ele>387</ele>
        <time>2022-05-17T05:34:55.574Z</time>
      </trkpt>
      <trkpt lat="45.61372" lon="5.41707">
        <ele>387</ele>
        <time>2022-05-17T05:34:56.574Z</time>
      </trkpt>
      <trkpt lat="45.61373" lon="5.41714">
        <ele>387</ele>
        <time>2022-05-17T05:34:57.574Z</time>
      </trkpt>
      <trkpt lat="45.61375" lon="5.41721">
        <ele>387</ele>
        <time>2022-05-17T05:34:58.574Z</time>
      </trkpt>
      <trkpt lat="45.61378" lon="5.41727">
        <ele>388</ele>
        <time>2022-05-17T05:34:59.574Z</time>
      </trkpt>
      <trkpt lat="45.6138" lon="5.41733">
        <ele>388</ele>
        <time>2022-05-17T05:35:00.575Z</time>
      </trkpt>
      <trkpt lat="45.61383" lon="5.41739">
        <ele>388</ele>
        <time>2022-05-17T05:35:01.575Z</time>
      </trkpt>
      <trkpt lat="45.61387" lon="5.41744">
        <ele>388</ele>
        <time>2022-05-17T05:35:02.575Z</time>
      </trkpt>
      <trkpt lat="45.6139" lon="5.4175">
        <ele>388</ele>
        <time>2022-05-17T05:35:03.575Z</time>
      </trkpt>
      <trkpt lat="45.61393" lon="5.41755">
        <ele>388</ele>
        <time>2022-05-17T05:35:04.575Z</time>
      </trkpt>
      <trkpt lat="45.61396" lon="5.4176">
        <ele>389</ele>
        <time>2022-05-17T05:35:05.575Z</time>
      </trkpt>
      <trkpt lat="45.61399" lon="5.41766">
        <ele>389</ele>
        <time>2022-05-17T05:35:06.575Z</time>
      </trkpt>
      <trkpt lat="45.61403" lon="5.41771">
        <ele>390</ele>
        <time>2022-05-17T05:35:07.575Z</time>
      </trkpt>
      <trkpt lat="45.61405" lon="5.41775">
        <ele>390</ele>
        <time>2022-05-17T05:35:08.575Z</time>
      </trkpt>
      <trkpt lat="45.61409" lon="5.41781">
        <ele>391</ele>
        <time>2022-05-17T05:35:09.574Z</time>
      </trkpt>
      <trkpt lat="45.61411" lon="5.41785">
        <ele>391</ele>
        <time>2022-05-17T05:35:10.575Z</time>
      </trkpt>
      <trkpt lat="45.61415" lon="5.4179">
        <ele>392</ele>
        <time>2022-05-17T05:35:11.575Z</time>
      </trkpt>
      <trkpt lat="45.61418" lon="5.41795">
        <ele>392</ele>
        <time>2022-05-17T05:35:12.575Z</time>
      </trkpt>
      <trkpt lat="45.61422" lon="5.41801">
        <ele>393</ele>
        <time>2022-05-17T05:35:13.575Z</time>
      </trkpt>
      <trkpt lat="45.61425" lon="5.41807">
        <ele>393</ele>
        <time>2022-05-17T05:35:14.575Z</time>
      </trkpt>
      <trkpt lat="45.61428" lon="5.41812">
        <ele>394</ele>
        <time>2022-05-17T05:35:15.575Z</time>
      </trkpt>
      <trkpt lat="45.61431" lon="5.41817">
        <ele>395</ele>
        <time>2022-05-17T05:35:16.575Z</time>
      </trkpt>
      <trkpt lat="45.61433" lon="5.41822">
        <ele>395</ele>
        <time>2022-05-17T05:35:17.575Z</time>
      </trkpt>
      <trkpt lat="45.61435" lon="5.4183">
        <ele>395</ele>
        <time>2022-05-17T05:35:18.575Z</time>
      </trkpt>
      <trkpt lat="45.61437" lon="5.41838">
        <ele>395</ele>
        <time>2022-05-17T05:35:19.574Z</time>
      </trkpt>
      <trkpt lat="45.61439" lon="5.41846">
        <ele>395</ele>
        <time>2022-05-17T05:35:20.575Z</time>
      </trkpt>
      <trkpt lat="45.6144" lon="5.41851">
        <ele>395</ele>
        <time>2022-05-17T05:35:21.575Z</time>
      </trkpt>
      <trkpt lat="45.61441" lon="5.41858">
        <ele>396</ele>
        <time>2022-05-17T05:35:22.575Z</time>
      </trkpt>
      <trkpt lat="45.61442" lon="5.41865">
        <ele>395</ele>
        <time>2022-05-17T05:35:23.575Z</time>
      </trkpt>
      <trkpt lat="45.61443" lon="5.41874">
        <ele>395</ele>
        <time>2022-05-17T05:35:24.575Z</time>
      </trkpt>
      <trkpt lat="45.61444" lon="5.41881">
        <ele>395</ele>
        <time>2022-05-17T05:35:25.575Z</time>
      </trkpt>
      <trkpt lat="45.61444" lon="5.41888">
        <ele>395</ele>
        <time>2022-05-17T05:35:26.574Z</time>
      </trkpt>
      <trkpt lat="45.61445" lon="5.41895">
        <ele>395</ele>
        <time>2022-05-17T05:35:27.575Z</time>
      </trkpt>
      <trkpt lat="45.61445" lon="5.41901">
        <ele>395</ele>
        <time>2022-05-17T05:35:28.574Z</time>
      </trkpt>
      <trkpt lat="45.61445" lon="5.41909">
        <ele>394</ele>
        <time>2022-05-17T05:35:29.575Z</time>
      </trkpt>
      <trkpt lat="45.61446" lon="5.41916">
        <ele>394</ele>
        <time>2022-05-17T05:35:30.575Z</time>
      </trkpt>
      <trkpt lat="45.61447" lon="5.41923">
        <ele>394</ele>
        <time>2022-05-17T05:35:31.575Z</time>
      </trkpt>
      <trkpt lat="45.61447" lon="5.41929">
        <ele>394</ele>
        <time>2022-05-17T05:35:32.575Z</time>
      </trkpt>
      <trkpt lat="45.61448" lon="5.41936">
        <ele>394</ele>
        <time>2022-05-17T05:35:33.574Z</time>
      </trkpt>
      <trkpt lat="45.61448" lon="5.41943">
        <ele>394</ele>
        <time>2022-05-17T05:35:34.575Z</time>
      </trkpt>
      <trkpt lat="45.61449" lon="5.41953">
        <ele>394</ele>
        <time>2022-05-17T05:35:35.575Z</time>
      </trkpt>
      <trkpt lat="45.6145" lon="5.4196">
        <ele>394</ele>
        <time>2022-05-17T05:35:36.574Z</time>
      </trkpt>
      <trkpt lat="45.61451" lon="5.41967">
        <ele>395</ele>
        <time>2022-05-17T05:35:37.575Z</time>
      </trkpt>
      <trkpt lat="45.61451" lon="5.41974">
        <ele>395</ele>
        <time>2022-05-17T05:35:38.575Z</time>
      </trkpt>
      <trkpt lat="45.61452" lon="5.41981">
        <ele>395</ele>
        <time>2022-05-17T05:35:39.574Z</time>
      </trkpt>
      <trkpt lat="45.61453" lon="5.41989">
        <ele>395</ele>
        <time>2022-05-17T05:35:40.575Z</time>
      </trkpt>
      <trkpt lat="45.61454" lon="5.41996">
        <ele>395</ele>
        <time>2022-05-17T05:35:41.574Z</time>
      </trkpt>
      <trkpt lat="45.61454" lon="5.42003">
        <ele>395</ele>
        <time>2022-05-17T05:35:42.575Z</time>
      </trkpt>
      <trkpt lat="45.61455" lon="5.4201">
        <ele>396</ele>
        <time>2022-05-17T05:35:43.575Z</time>
      </trkpt>
      <trkpt lat="45.61456" lon="5.42017">
        <ele>396</ele>
        <time>2022-05-17T05:35:44.575Z</time>
      </trkpt>
      <trkpt lat="45.61457" lon="5.42024">
        <ele>396</ele>
        <time>2022-05-17T05:35:45.575Z</time>
      </trkpt>
      <trkpt lat="45.61458" lon="5.42031">
        <ele>397</ele>
        <time>2022-05-17T05:35:46.575Z</time>
      </trkpt>
      <trkpt lat="45.61459" lon="5.42039">
        <ele>397</ele>
        <time>2022-05-17T05:35:47.575Z</time>
      </trkpt>
      <trkpt lat="45.61459" lon="5.42045">
        <ele>397</ele>
        <time>2022-05-17T05:35:48.574Z</time>
      </trkpt>
      <trkpt lat="45.61459" lon="5.42053">
        <ele>398</ele>
        <time>2022-05-17T05:35:49.574Z</time>
      </trkpt>
      <trkpt lat="45.61458" lon="5.4206">
        <ele>398</ele>
        <time>2022-05-17T05:35:50.575Z</time>
      </trkpt>
      <trkpt lat="45.61458" lon="5.42068">
        <ele>397</ele>
        <time>2022-05-17T05:35:51.575Z</time>
      </trkpt>
      <trkpt lat="45.61457" lon="5.42075">
        <ele>397</ele>
        <time>2022-05-17T05:35:52.575Z</time>
      </trkpt>
      <trkpt lat="45.61456" lon="5.42083">
        <ele>397</ele>
        <time>2022-05-17T05:35:53.574Z</time>
      </trkpt>
      <trkpt lat="45.61455" lon="5.4209">
        <ele>397</ele>
        <time>2022-05-17T05:35:54.575Z</time>
      </trkpt>
      <trkpt lat="45.61453" lon="5.42098">
        <ele>398</ele>
        <time>2022-05-17T05:35:55.575Z</time>
      </trkpt>
      <trkpt lat="45.61452" lon="5.42105">
        <ele>397</ele>
        <time>2022-05-17T05:35:56.575Z</time>
      </trkpt>
      <trkpt lat="45.61451" lon="5.42112">
        <ele>397</ele>
        <time>2022-05-17T05:35:57.574Z</time>
      </trkpt>
      <trkpt lat="45.6145" lon="5.42119">
        <ele>398</ele>
        <time>2022-05-17T05:35:58.575Z</time>
      </trkpt>
      <trkpt lat="45.61449" lon="5.42127">
        <ele>398</ele>
        <time>2022-05-17T05:35:59.574Z</time>
      </trkpt>
      <trkpt lat="45.61448" lon="5.42135">
        <ele>398</ele>
        <time>2022-05-17T05:36:00.575Z</time>
      </trkpt>
      <trkpt lat="45.61447" lon="5.42143">
        <ele>398</ele>
        <time>2022-05-17T05:36:01.574Z</time>
      </trkpt>
      <trkpt lat="45.61446" lon="5.42151">
        <ele>399</ele>
        <time>2022-05-17T05:36:02.574Z</time>
      </trkpt>
      <trkpt lat="45.61445" lon="5.42158">
        <ele>399</ele>
        <time>2022-05-17T05:36:03.575Z</time>
      </trkpt>
      <trkpt lat="45.61444" lon="5.42168">
        <ele>399</ele>
        <time>2022-05-17T05:36:04.575Z</time>
      </trkpt>
      <trkpt lat="45.61443" lon="5.42176">
        <ele>399</ele>
        <time>2022-05-17T05:36:05.574Z</time>
      </trkpt>
      <trkpt lat="45.61442" lon="5.42183">
        <ele>399</ele>
        <time>2022-05-17T05:36:06.575Z</time>
      </trkpt>
      <trkpt lat="45.6144" lon="5.42192">
        <ele>399</ele>
        <time>2022-05-17T05:36:07.574Z</time>
      </trkpt>
      <trkpt lat="45.61439" lon="5.42202">
        <ele>399</ele>
        <time>2022-05-17T05:36:08.575Z</time>
      </trkpt>
      <trkpt lat="45.61438" lon="5.4221">
        <ele>399</ele>
        <time>2022-05-17T05:36:09.574Z</time>
      </trkpt>
      <trkpt lat="45.61437" lon="5.42219">
        <ele>399</ele>
        <time>2022-05-17T05:36:10.575Z</time>
      </trkpt>
      <trkpt lat="45.61436" lon="5.42227">
        <ele>398</ele>
        <time>2022-05-17T05:36:11.575Z</time>
      </trkpt>
      <trkpt lat="45.61435" lon="5.42234">
        <ele>398</ele>
        <time>2022-05-17T05:36:12.575Z</time>
      </trkpt>
      <trkpt lat="45.61433" lon="5.42244">
        <ele>398</ele>
        <time>2022-05-17T05:36:13.575Z</time>
      </trkpt>
      <trkpt lat="45.61432" lon="5.42253">
        <ele>398</ele>
        <time>2022-05-17T05:36:14.574Z</time>
      </trkpt>
      <trkpt lat="45.61431" lon="5.42261">
        <ele>398</ele>
        <time>2022-05-17T05:36:15.575Z</time>
      </trkpt>
      <trkpt lat="45.61429" lon="5.42268">
        <ele>398</ele>
        <time>2022-05-17T05:36:16.574Z</time>
      </trkpt>
      <trkpt lat="45.61428" lon="5.42276">
        <ele>397</ele>
        <time>2022-05-17T05:36:17.575Z</time>
      </trkpt>
      <trkpt lat="45.61427" lon="5.42284">
        <ele>397</ele>
        <time>2022-05-17T05:36:18.575Z</time>
      </trkpt>
      <trkpt lat="45.61425" lon="5.42294">
        <ele>398</ele>
        <time>2022-05-17T05:36:19.575Z</time>
      </trkpt>
      <trkpt lat="45.61423" lon="5.42302">
        <ele>398</ele>
        <time>2022-05-17T05:36:20.575Z</time>
      </trkpt>
      <trkpt lat="45.61422" lon="5.42309">
        <ele>398</ele>
        <time>2022-05-17T05:36:21.575Z</time>
      </trkpt>
      <trkpt lat="45.6142" lon="5.42317">
        <ele>397</ele>
        <time>2022-05-17T05:36:22.575Z</time>
      </trkpt>
      <trkpt lat="45.61418" lon="5.42327">
        <ele>397</ele>
        <time>2022-05-17T05:36:23.575Z</time>
      </trkpt>
      <trkpt lat="45.61417" lon="5.42336">
        <ele>397</ele>
        <time>2022-05-17T05:36:24.575Z</time>
      </trkpt>
      <trkpt lat="45.61415" lon="5.42344">
        <ele>397</ele>
        <time>2022-05-17T05:36:25.575Z</time>
      </trkpt>
      <trkpt lat="45.61414" lon="5.42353">
        <ele>397</ele>
        <time>2022-05-17T05:36:26.575Z</time>
      </trkpt>
      <trkpt lat="45.61414" lon="5.42359">
        <ele>397</ele>
        <time>2022-05-17T05:36:27.574Z</time>
      </trkpt>
      <trkpt lat="45.61413" lon="5.42367">
        <ele>397</ele>
        <time>2022-05-17T05:36:28.574Z</time>
      </trkpt>
      <trkpt lat="45.61413" lon="5.42377">
        <ele>397</ele>
        <time>2022-05-17T05:36:29.575Z</time>
      </trkpt>
      <trkpt lat="45.61412" lon="5.42385">
        <ele>397</ele>
        <time>2022-05-17T05:36:30.575Z</time>
      </trkpt>
      <trkpt lat="45.61412" lon="5.42393">
        <ele>397</ele>
        <time>2022-05-17T05:36:31.575Z</time>
      </trkpt>
      <trkpt lat="45.61412" lon="5.424">
        <ele>397</ele>
        <time>2022-05-17T05:36:32.575Z</time>
      </trkpt>
      <trkpt lat="45.61413" lon="5.42408">
        <ele>397</ele>
        <time>2022-05-17T05:36:33.574Z</time>
      </trkpt>
      <trkpt lat="45.61413" lon="5.42419">
        <ele>397</ele>
        <time>2022-05-17T05:36:34.575Z</time>
      </trkpt>
      <trkpt lat="45.61414" lon="5.42428">
        <ele>397</ele>
        <time>2022-05-17T05:36:35.575Z</time>
      </trkpt>
      <trkpt lat="45.61415" lon="5.42436">
        <ele>397</ele>
        <time>2022-05-17T05:36:36.575Z</time>
      </trkpt>
      <trkpt lat="45.61416" lon="5.42445">
        <ele>398</ele>
        <time>2022-05-17T05:36:37.574Z</time>
      </trkpt>
      <trkpt lat="45.61418" lon="5.42452">
        <ele>398</ele>
        <time>2022-05-17T05:36:38.574Z</time>
      </trkpt>
      <trkpt lat="45.61419" lon="5.42461">
        <ele>398</ele>
        <time>2022-05-17T05:36:39.575Z</time>
      </trkpt>
      <trkpt lat="45.61421" lon="5.42469">
        <ele>398</ele>
        <time>2022-05-17T05:36:40.574Z</time>
      </trkpt>
      <trkpt lat="45.61423" lon="5.42478">
        <ele>398</ele>
        <time>2022-05-17T05:36:41.575Z</time>
      </trkpt>
      <trkpt lat="45.61426" lon="5.42486">
        <ele>399</ele>
        <time>2022-05-17T05:36:42.574Z</time>
      </trkpt>
      <trkpt lat="45.61427" lon="5.42494">
        <ele>399</ele>
        <time>2022-05-17T05:36:43.575Z</time>
      </trkpt>
      <trkpt lat="45.6143" lon="5.42504">
        <ele>399</ele>
        <time>2022-05-17T05:36:44.575Z</time>
      </trkpt>
      <trkpt lat="45.61431" lon="5.42513">
        <ele>399</ele>
        <time>2022-05-17T05:36:45.575Z</time>
      </trkpt>
      <trkpt lat="45.61433" lon="5.42521">
        <ele>400</ele>
        <time>2022-05-17T05:36:46.575Z</time>
      </trkpt>
      <trkpt lat="45.61435" lon="5.42528">
        <ele>400</ele>
        <time>2022-05-17T05:36:47.575Z</time>
      </trkpt>
      <trkpt lat="45.61436" lon="5.42536">
        <ele>400</ele>
        <time>2022-05-17T05:36:48.575Z</time>
      </trkpt>
      <trkpt lat="45.61438" lon="5.42546">
        <ele>400</ele>
        <time>2022-05-17T05:36:49.575Z</time>
      </trkpt>
      <trkpt lat="45.6144" lon="5.42554">
        <ele>400</ele>
        <time>2022-05-17T05:36:50.575Z</time>
      </trkpt>
      <trkpt lat="45.61442" lon="5.42562">
        <ele>400</ele>
        <time>2022-05-17T05:36:51.575Z</time>
      </trkpt>
      <trkpt lat="45.61443" lon="5.42569">
        <ele>400</ele>
        <time>2022-05-17T05:36:52.575Z</time>
      </trkpt>
      <trkpt lat="45.61445" lon="5.42577">
        <ele>400</ele>
        <time>2022-05-17T05:36:53.574Z</time>
      </trkpt>
      <trkpt lat="45.61447" lon="5.42587">
        <ele>400</ele>
        <time>2022-05-17T05:36:54.575Z</time>
      </trkpt>
      <trkpt lat="45.61448" lon="5.42595">
        <ele>400</ele>
        <time>2022-05-17T05:36:55.575Z</time>
      </trkpt>
      <trkpt lat="45.6145" lon="5.42604">
        <ele>400</ele>
        <time>2022-05-17T05:36:56.574Z</time>
      </trkpt>
      <trkpt lat="45.61451" lon="5.42612">
        <ele>400</ele>
        <time>2022-05-17T05:36:57.574Z</time>
      </trkpt>
      <trkpt lat="45.61453" lon="5.42621">
        <ele>399</ele>
        <time>2022-05-17T05:36:58.575Z</time>
      </trkpt>
      <trkpt lat="45.61454" lon="5.42629">
        <ele>399</ele>
        <time>2022-05-17T05:36:59.574Z</time>
      </trkpt>
      <trkpt lat="45.61455" lon="5.42636">
        <ele>399</ele>
        <time>2022-05-17T05:37:00.575Z</time>
      </trkpt>
      <trkpt lat="45.61457" lon="5.42646">
        <ele>399</ele>
        <time>2022-05-17T05:37:01.575Z</time>
      </trkpt>
      <trkpt lat="45.61459" lon="5.42654">
        <ele>399</ele>
        <time>2022-05-17T05:37:02.575Z</time>
      </trkpt>
      <trkpt lat="45.61461" lon="5.42661">
        <ele>399</ele>
        <time>2022-05-17T05:37:03.575Z</time>
      </trkpt>
      <trkpt lat="45.61463" lon="5.4267">
        <ele>399</ele>
        <time>2022-05-17T05:37:04.574Z</time>
      </trkpt>
      <trkpt lat="45.61464" lon="5.42679">
        <ele>399</ele>
        <time>2022-05-17T05:37:05.574Z</time>
      </trkpt>
      <trkpt lat="45.61466" lon="5.42687">
        <ele>400</ele>
        <time>2022-05-17T05:37:06.575Z</time>
      </trkpt>
      <trkpt lat="45.61468" lon="5.42696">
        <ele>400</ele>
        <time>2022-05-17T05:37:07.575Z</time>
      </trkpt>
      <trkpt lat="45.61469" lon="5.42704">
        <ele>400</ele>
        <time>2022-05-17T05:37:08.575Z</time>
      </trkpt>
      <trkpt lat="45.61471" lon="5.42713">
        <ele>400</ele>
        <time>2022-05-17T05:37:09.574Z</time>
      </trkpt>
      <trkpt lat="45.61473" lon="5.42721">
        <ele>401</ele>
        <time>2022-05-17T05:37:10.575Z</time>
      </trkpt>
      <trkpt lat="45.61475" lon="5.42729">
        <ele>401</ele>
        <time>2022-05-17T05:37:11.575Z</time>
      </trkpt>
      <trkpt lat="45.61477" lon="5.42738">
        <ele>401</ele>
        <time>2022-05-17T05:37:12.575Z</time>
      </trkpt>
      <trkpt lat="45.61478" lon="5.42746">
        <ele>401</ele>
        <time>2022-05-17T05:37:13.575Z</time>
      </trkpt>
      <trkpt lat="45.61479" lon="5.42755">
        <ele>401</ele>
        <time>2022-05-17T05:37:14.575Z</time>
      </trkpt>
      <trkpt lat="45.6148" lon="5.42763">
        <ele>401</ele>
        <time>2022-05-17T05:37:15.575Z</time>
      </trkpt>
      <trkpt lat="45.61481" lon="5.42772">
        <ele>401</ele>
        <time>2022-05-17T05:37:16.574Z</time>
      </trkpt>
      <trkpt lat="45.61482" lon="5.42781">
        <ele>401</ele>
        <time>2022-05-17T05:37:17.574Z</time>
      </trkpt>
      <trkpt lat="45.61482" lon="5.42788">
        <ele>401</ele>
        <time>2022-05-17T05:37:18.575Z</time>
      </trkpt>
      <trkpt lat="45.61483" lon="5.42798">
        <ele>401</ele>
        <time>2022-05-17T05:37:19.575Z</time>
      </trkpt>
      <trkpt lat="45.61483" lon="5.42807">
        <ele>401</ele>
        <time>2022-05-17T05:37:20.574Z</time>
      </trkpt>
      <trkpt lat="45.61484" lon="5.42815">
        <ele>400</ele>
        <time>2022-05-17T05:37:21.574Z</time>
      </trkpt>
      <trkpt lat="45.61484" lon="5.42822">
        <ele>400</ele>
        <time>2022-05-17T05:37:22.575Z</time>
      </trkpt>
      <trkpt lat="45.61485" lon="5.4283">
        <ele>400</ele>
        <time>2022-05-17T05:37:23.575Z</time>
      </trkpt>
      <trkpt lat="45.61485" lon="5.42841">
        <ele>400</ele>
        <time>2022-05-17T05:37:24.575Z</time>
      </trkpt>
      <trkpt lat="45.61486" lon="5.42849">
        <ele>400</ele>
        <time>2022-05-17T05:37:25.575Z</time>
      </trkpt>
      <trkpt lat="45.61486" lon="5.42858">
        <ele>400</ele>
        <time>2022-05-17T05:37:26.574Z</time>
      </trkpt>
      <trkpt lat="45.61486" lon="5.42865">
        <ele>400</ele>
        <time>2022-05-17T05:37:27.574Z</time>
      </trkpt>
      <trkpt lat="45.61487" lon="5.42875">
        <ele>399</ele>
        <time>2022-05-17T05:37:28.575Z</time>
      </trkpt>
      <trkpt lat="45.61488" lon="5.42884">
        <ele>399</ele>
        <time>2022-05-17T05:37:29.575Z</time>
      </trkpt>
      <trkpt lat="45.61489" lon="5.42892">
        <ele>399</ele>
        <time>2022-05-17T05:37:30.575Z</time>
      </trkpt>
      <trkpt lat="45.6149" lon="5.42901">
        <ele>399</ele>
        <time>2022-05-17T05:37:31.574Z</time>
      </trkpt>
      <trkpt lat="45.6149" lon="5.4291">
        <ele>399</ele>
        <time>2022-05-17T05:37:32.574Z</time>
      </trkpt>
      <trkpt lat="45.61491" lon="5.42917">
        <ele>399</ele>
        <time>2022-05-17T05:37:33.575Z</time>
      </trkpt>
      <trkpt lat="45.61492" lon="5.42928">
        <ele>398</ele>
        <time>2022-05-17T05:37:34.575Z</time>
      </trkpt>
      <trkpt lat="45.61492" lon="5.42937">
        <ele>398</ele>
        <time>2022-05-17T05:37:35.575Z</time>
      </trkpt>
      <trkpt lat="45.61492" lon="5.42946">
        <ele>398</ele>
        <time>2022-05-17T05:37:36.575Z</time>
      </trkpt>
      <trkpt lat="45.61492" lon="5.42953">
        <ele>398</ele>
        <time>2022-05-17T05:37:37.574Z</time>
      </trkpt>
      <trkpt lat="45.61493" lon="5.42961">
        <ele>398</ele>
        <time>2022-05-17T05:37:38.575Z</time>
      </trkpt>
      <trkpt lat="45.61493" lon="5.42971">
        <ele>399</ele>
        <time>2022-05-17T05:37:39.575Z</time>
      </trkpt>
      <trkpt lat="45.61492" lon="5.4298">
        <ele>399</ele>
        <time>2022-05-17T05:37:40.575Z</time>
      </trkpt>
      <trkpt lat="45.61492" lon="5.42988">
        <ele>399</ele>
        <time>2022-05-17T05:37:41.575Z</time>
      </trkpt>
      <trkpt lat="45.61491" lon="5.42995">
        <ele>399</ele>
        <time>2022-05-17T05:37:42.574Z</time>
      </trkpt>
      <trkpt lat="45.6149" lon="5.43003">
        <ele>399</ele>
        <time>2022-05-17T05:37:43.575Z</time>
      </trkpt>
      <trkpt lat="45.61489" lon="5.43012">
        <ele>400</ele>
        <time>2022-05-17T05:37:44.575Z</time>
      </trkpt>
      <trkpt lat="45.61487" lon="5.43021">
        <ele>400</ele>
        <time>2022-05-17T05:37:45.575Z</time>
      </trkpt>
      <trkpt lat="45.61486" lon="5.43029">
        <ele>400</ele>
        <time>2022-05-17T05:37:46.574Z</time>
      </trkpt>
      <trkpt lat="45.61485" lon="5.43038">
        <ele>401</ele>
        <time>2022-05-17T05:37:47.575Z</time>
      </trkpt>
      <trkpt lat="45.61485" lon="5.43044">
        <ele>401</ele>
        <time>2022-05-17T05:37:48.575Z</time>
      </trkpt>
      <trkpt lat="45.61484" lon="5.43053">
        <ele>401</ele>
        <time>2022-05-17T05:37:49.575Z</time>
      </trkpt>
      <trkpt lat="45.61482" lon="5.43063">
        <ele>402</ele>
        <time>2022-05-17T05:37:50.575Z</time>
      </trkpt>
      <trkpt lat="45.61481" lon="5.43072">
        <ele>402</ele>
        <time>2022-05-17T05:37:51.574Z</time>
      </trkpt>
      <trkpt lat="45.6148" lon="5.4308">
        <ele>402</ele>
        <time>2022-05-17T05:37:52.574Z</time>
      </trkpt>
      <trkpt lat="45.61479" lon="5.43089">
        <ele>402</ele>
        <time>2022-05-17T05:37:53.575Z</time>
      </trkpt>
      <trkpt lat="45.61478" lon="5.43099">
        <ele>402</ele>
        <time>2022-05-17T05:37:54.575Z</time>
      </trkpt>
      <trkpt lat="45.61478" lon="5.43111">
        <ele>401</ele>
        <time>2022-05-17T05:37:55.575Z</time>
      </trkpt>
      <trkpt lat="45.61477" lon="5.43122">
        <ele>401</ele>
        <time>2022-05-17T05:37:56.575Z</time>
      </trkpt>
      <trkpt lat="45.61476" lon="5.43133">
        <ele>401</ele>
        <time>2022-05-17T05:37:57.574Z</time>
      </trkpt>
      <trkpt lat="45.61475" lon="5.43142">
        <ele>401</ele>
        <time>2022-05-17T05:37:58.575Z</time>
      </trkpt>
      <trkpt lat="45.61475" lon="5.43156">
        <ele>401</ele>
        <time>2022-05-17T05:37:59.574Z</time>
      </trkpt>
      <trkpt lat="45.61475" lon="5.43167">
        <ele>401</ele>
        <time>2022-05-17T05:38:00.575Z</time>
      </trkpt>
      <trkpt lat="45.61475" lon="5.43179">
        <ele>401</ele>
        <time>2022-05-17T05:38:01.574Z</time>
      </trkpt>
      <trkpt lat="45.61475" lon="5.43188">
        <ele>400</ele>
        <time>2022-05-17T05:38:02.574Z</time>
      </trkpt>
      <trkpt lat="45.61476" lon="5.432">
        <ele>400</ele>
        <time>2022-05-17T05:38:03.575Z</time>
      </trkpt>
      <trkpt lat="45.61477" lon="5.43214">
        <ele>400</ele>
        <time>2022-05-17T05:38:04.575Z</time>
      </trkpt>
      <trkpt lat="45.61479" lon="5.43226">
        <ele>400</ele>
        <time>2022-05-17T05:38:05.574Z</time>
      </trkpt>
      <trkpt lat="45.61481" lon="5.43238">
        <ele>400</ele>
        <time>2022-05-17T05:38:06.575Z</time>
      </trkpt>
      <trkpt lat="45.61484" lon="5.4325">
        <ele>399</ele>
        <time>2022-05-17T05:38:07.574Z</time>
      </trkpt>
      <trkpt lat="45.61486" lon="5.43259">
        <ele>399</ele>
        <time>2022-05-17T05:38:08.574Z</time>
      </trkpt>
      <trkpt lat="45.61488" lon="5.43274">
        <ele>399</ele>
        <time>2022-05-17T05:38:09.575Z</time>
      </trkpt>
      <trkpt lat="45.6149" lon="5.43287">
        <ele>399</ele>
        <time>2022-05-17T05:38:10.574Z</time>
      </trkpt>
      <trkpt lat="45.61492" lon="5.433">
        <ele>398</ele>
        <time>2022-05-17T05:38:11.574Z</time>
      </trkpt>
      <trkpt lat="45.61493" lon="5.4331">
        <ele>398</ele>
        <time>2022-05-17T05:38:12.575Z</time>
      </trkpt>
      <trkpt lat="45.61495" lon="5.43327">
        <ele>398</ele>
        <time>2022-05-17T05:38:13.575Z</time>
      </trkpt>
      <trkpt lat="45.61496" lon="5.4334">
        <ele>398</ele>
        <time>2022-05-17T05:38:14.575Z</time>
      </trkpt>
      <trkpt lat="45.61497" lon="5.43354">
        <ele>398</ele>
        <time>2022-05-17T05:38:15.574Z</time>
      </trkpt>
      <trkpt lat="45.61498" lon="5.43368">
        <ele>397</ele>
        <time>2022-05-17T05:38:16.574Z</time>
      </trkpt>
      <trkpt lat="45.61499" lon="5.43378">
        <ele>397</ele>
        <time>2022-05-17T05:38:17.575Z</time>
      </trkpt>
      <trkpt lat="45.61499" lon="5.43392">
        <ele>396</ele>
        <time>2022-05-17T05:38:18.575Z</time>
      </trkpt>
      <trkpt lat="45.615" lon="5.43408">
        <ele>396</ele>
        <time>2022-05-17T05:38:19.575Z</time>
      </trkpt>
      <trkpt lat="45.615" lon="5.43421">
        <ele>395</ele>
        <time>2022-05-17T05:38:20.574Z</time>
      </trkpt>
      <trkpt lat="45.615" lon="5.43434">
        <ele>395</ele>
        <time>2022-05-17T05:38:21.574Z</time>
      </trkpt>
      <trkpt lat="45.615" lon="5.43445">
        <ele>394</ele>
        <time>2022-05-17T05:38:22.575Z</time>
      </trkpt>
      <trkpt lat="45.61501" lon="5.4346">
        <ele>394</ele>
        <time>2022-05-17T05:38:23.575Z</time>
      </trkpt>
      <trkpt lat="45.61502" lon="5.43473">
        <ele>394</ele>
        <time>2022-05-17T05:38:24.574Z</time>
      </trkpt>
      <trkpt lat="45.61502" lon="5.43486">
        <ele>394</ele>
        <time>2022-05-17T05:38:25.575Z</time>
      </trkpt>
      <trkpt lat="45.61503" lon="5.43499">
        <ele>394</ele>
        <time>2022-05-17T05:38:26.574Z</time>
      </trkpt>
      <trkpt lat="45.61503" lon="5.43512">
        <ele>393</ele>
        <time>2022-05-17T05:38:27.574Z</time>
      </trkpt>
      <trkpt lat="45.61504" lon="5.43524">
        <ele>393</ele>
        <time>2022-05-17T05:38:28.574Z</time>
      </trkpt>
      <trkpt lat="45.61504" lon="5.43537">
        <ele>393</ele>
        <time>2022-05-17T05:38:29.574Z</time>
      </trkpt>
      <trkpt lat="45.61505" lon="5.43549">
        <ele>393</ele>
        <time>2022-05-17T05:38:30.575Z</time>
      </trkpt>
      <trkpt lat="45.61505" lon="5.43561">
        <ele>393</ele>
        <time>2022-05-17T05:38:31.574Z</time>
      </trkpt>
      <trkpt lat="45.61506" lon="5.43572">
        <ele>393</ele>
        <time>2022-05-17T05:38:32.575Z</time>
      </trkpt>
      <trkpt lat="45.61506" lon="5.43583">
        <ele>393</ele>
        <time>2022-05-17T05:38:33.575Z</time>
      </trkpt>
      <trkpt lat="45.61506" lon="5.43595">
        <ele>392</ele>
        <time>2022-05-17T05:38:34.575Z</time>
      </trkpt>
      <trkpt lat="45.61507" lon="5.43606">
        <ele>392</ele>
        <time>2022-05-17T05:38:35.574Z</time>
      </trkpt>
      <trkpt lat="45.61508" lon="5.43617">
        <ele>392</ele>
        <time>2022-05-17T05:38:36.575Z</time>
      </trkpt>
      <trkpt lat="45.61509" lon="5.43625">
        <ele>392</ele>
        <time>2022-05-17T05:38:37.575Z</time>
      </trkpt>
      <trkpt lat="45.61509" lon="5.43636">
        <ele>392</ele>
        <time>2022-05-17T05:38:38.575Z</time>
      </trkpt>
      <trkpt lat="45.61511" lon="5.43648">
        <ele>393</ele>
        <time>2022-05-17T05:38:39.574Z</time>
      </trkpt>
      <trkpt lat="45.61512" lon="5.43658">
        <ele>393</ele>
        <time>2022-05-17T05:38:40.575Z</time>
      </trkpt>
      <trkpt lat="45.61512" lon="5.43668">
        <ele>394</ele>
        <time>2022-05-17T05:38:41.574Z</time>
      </trkpt>
      <trkpt lat="45.61513" lon="5.43676">
        <ele>394</ele>
        <time>2022-05-17T05:38:42.575Z</time>
      </trkpt>
      <trkpt lat="45.61515" lon="5.43688">
        <ele>394</ele>
        <time>2022-05-17T05:38:43.575Z</time>
      </trkpt>
      <trkpt lat="45.61515" lon="5.43696">
        <ele>394</ele>
        <time>2022-05-17T05:38:44.575Z</time>
      </trkpt>
      <trkpt lat="45.61516" lon="5.43708">
        <ele>394</ele>
        <time>2022-05-17T05:38:45.575Z</time>
      </trkpt>
      <trkpt lat="45.61517" lon="5.43717">
        <ele>395</ele>
        <time>2022-05-17T05:38:46.574Z</time>
      </trkpt>
      <trkpt lat="45.61518" lon="5.43725">
        <ele>395</ele>
        <time>2022-05-17T05:38:47.574Z</time>
      </trkpt>
      <trkpt lat="45.61518" lon="5.43735">
        <ele>395</ele>
        <time>2022-05-17T05:38:48.575Z</time>
      </trkpt>
      <trkpt lat="45.61519" lon="5.43744">
        <ele>395</ele>
        <time>2022-05-17T05:38:49.574Z</time>
      </trkpt>
      <trkpt lat="45.6152" lon="5.43756">
        <ele>395</ele>
        <time>2022-05-17T05:38:50.575Z</time>
      </trkpt>
      <trkpt lat="45.61521" lon="5.43765">
        <ele>396</ele>
        <time>2022-05-17T05:38:51.574Z</time>
      </trkpt>
      <trkpt lat="45.61521" lon="5.43773">
        <ele>396</ele>
        <time>2022-05-17T05:38:52.575Z</time>
      </trkpt>
      <trkpt lat="45.61521" lon="5.43783">
        <ele>397</ele>
        <time>2022-05-17T05:38:53.575Z</time>
      </trkpt>
      <trkpt lat="45.61521" lon="5.43794">
        <ele>397</ele>
        <time>2022-05-17T05:38:54.575Z</time>
      </trkpt>
      <trkpt lat="45.6152" lon="5.43804">
        <ele>397</ele>
        <time>2022-05-17T05:38:55.575Z</time>
      </trkpt>
      <trkpt lat="45.6152" lon="5.43814">
        <ele>397</ele>
        <time>2022-05-17T05:38:56.575Z</time>
      </trkpt>
      <trkpt lat="45.61519" lon="5.43822">
        <ele>397</ele>
        <time>2022-05-17T05:38:57.575Z</time>
      </trkpt>
      <trkpt lat="45.61518" lon="5.43832">
        <ele>397</ele>
        <time>2022-05-17T05:38:58.575Z</time>
      </trkpt>
      <trkpt lat="45.61517" lon="5.43844">
        <ele>398</ele>
        <time>2022-05-17T05:38:59.574Z</time>
      </trkpt>
      <trkpt lat="45.61516" lon="5.43855">
        <ele>398</ele>
        <time>2022-05-17T05:39:00.575Z</time>
      </trkpt>
      <trkpt lat="45.61514" lon="5.43865">
        <ele>398</ele>
        <time>2022-05-17T05:39:01.574Z</time>
      </trkpt>
      <trkpt lat="45.61513" lon="5.43875">
        <ele>398</ele>
        <time>2022-05-17T05:39:02.575Z</time>
      </trkpt>
      <trkpt lat="45.61512" lon="5.43885">
        <ele>397</ele>
        <time>2022-05-17T05:39:03.575Z</time>
      </trkpt>
      <trkpt lat="45.61511" lon="5.43895">
        <ele>397</ele>
        <time>2022-05-17T05:39:04.574Z</time>
      </trkpt>
      <trkpt lat="45.6151" lon="5.43905">
        <ele>397</ele>
        <time>2022-05-17T05:39:05.575Z</time>
      </trkpt>
      <trkpt lat="45.61509" lon="5.43915">
        <ele>397</ele>
        <time>2022-05-17T05:39:06.575Z</time>
      </trkpt>
      <trkpt lat="45.61508" lon="5.43923">
        <ele>397</ele>
        <time>2022-05-17T05:39:07.574Z</time>
      </trkpt>
      <trkpt lat="45.61506" lon="5.43934">
        <ele>397</ele>
        <time>2022-05-17T05:39:08.575Z</time>
      </trkpt>
      <trkpt lat="45.61505" lon="5.43946">
        <ele>397</ele>
        <time>2022-05-17T05:39:09.574Z</time>
      </trkpt>
      <trkpt lat="45.61504" lon="5.43956">
        <ele>397</ele>
        <time>2022-05-17T05:39:10.575Z</time>
      </trkpt>
      <trkpt lat="45.61503" lon="5.43965">
        <ele>398</ele>
        <time>2022-05-17T05:39:11.575Z</time>
      </trkpt>
      <trkpt lat="45.61502" lon="5.43973">
        <ele>398</ele>
        <time>2022-05-17T05:39:12.575Z</time>
      </trkpt>
      <trkpt lat="45.61501" lon="5.43983">
        <ele>398</ele>
        <time>2022-05-17T05:39:13.574Z</time>
      </trkpt>
      <trkpt lat="45.615" lon="5.43992">
        <ele>398</ele>
        <time>2022-05-17T05:39:14.575Z</time>
      </trkpt>
      <trkpt lat="45.61499" lon="5.44004">
        <ele>399</ele>
        <time>2022-05-17T05:39:15.574Z</time>
      </trkpt>
      <trkpt lat="45.61498" lon="5.44013">
        <ele>399</ele>
        <time>2022-05-17T05:39:16.575Z</time>
      </trkpt>
      <trkpt lat="45.61498" lon="5.44021">
        <ele>399</ele>
        <time>2022-05-17T05:39:17.575Z</time>
      </trkpt>
      <trkpt lat="45.61497" lon="5.44031">
        <ele>399</ele>
        <time>2022-05-17T05:39:18.574Z</time>
      </trkpt>
      <trkpt lat="45.61497" lon="5.44041">
        <ele>400</ele>
        <time>2022-05-17T05:39:19.575Z</time>
      </trkpt>
      <trkpt lat="45.61496" lon="5.44053">
        <ele>400</ele>
        <time>2022-05-17T05:39:20.574Z</time>
      </trkpt>
      <trkpt lat="45.61496" lon="5.44063">
        <ele>400</ele>
        <time>2022-05-17T05:39:21.574Z</time>
      </trkpt>
      <trkpt lat="45.61496" lon="5.44071">
        <ele>399</ele>
        <time>2022-05-17T05:39:22.574Z</time>
      </trkpt>
      <trkpt lat="45.61496" lon="5.44082">
        <ele>399</ele>
        <time>2022-05-17T05:39:23.575Z</time>
      </trkpt>
      <trkpt lat="45.61497" lon="5.44094">
        <ele>399</ele>
        <time>2022-05-17T05:39:24.574Z</time>
      </trkpt>
      <trkpt lat="45.61498" lon="5.44105">
        <ele>399</ele>
        <time>2022-05-17T05:39:25.575Z</time>
      </trkpt>
      <trkpt lat="45.61498" lon="5.44115">
        <ele>399</ele>
        <time>2022-05-17T05:39:26.575Z</time>
      </trkpt>
      <trkpt lat="45.615" lon="5.44123">
        <ele>399</ele>
        <time>2022-05-17T05:39:27.574Z</time>
      </trkpt>
      <trkpt lat="45.61501" lon="5.44133">
        <ele>399</ele>
        <time>2022-05-17T05:39:28.574Z</time>
      </trkpt>
      <trkpt lat="45.61503" lon="5.44143">
        <ele>399</ele>
        <time>2022-05-17T05:39:29.575Z</time>
      </trkpt>
      <trkpt lat="45.61505" lon="5.44155">
        <ele>399</ele>
        <time>2022-05-17T05:39:30.574Z</time>
      </trkpt>
      <trkpt lat="45.61507" lon="5.44165">
        <ele>399</ele>
        <time>2022-05-17T05:39:31.575Z</time>
      </trkpt>
      <trkpt lat="45.61509" lon="5.44173">
        <ele>400</ele>
        <time>2022-05-17T05:39:32.575Z</time>
      </trkpt>
      <trkpt lat="45.61511" lon="5.44184">
        <ele>400</ele>
        <time>2022-05-17T05:39:33.575Z</time>
      </trkpt>
      <trkpt lat="45.61513" lon="5.44194">
        <ele>400</ele>
        <time>2022-05-17T05:39:34.575Z</time>
      </trkpt>
      <trkpt lat="45.61515" lon="5.44203">
        <ele>400</ele>
        <time>2022-05-17T05:39:35.575Z</time>
      </trkpt>
      <trkpt lat="45.61518" lon="5.44212">
        <ele>400</ele>
        <time>2022-05-17T05:39:36.575Z</time>
      </trkpt>
      <trkpt lat="45.6152" lon="5.44221">
        <ele>400</ele>
        <time>2022-05-17T05:39:37.575Z</time>
      </trkpt>
      <trkpt lat="45.61522" lon="5.4423">
        <ele>400</ele>
        <time>2022-05-17T05:39:38.575Z</time>
      </trkpt>
      <trkpt lat="45.61525" lon="5.44238">
        <ele>400</ele>
        <time>2022-05-17T05:39:39.574Z</time>
      </trkpt>
      <trkpt lat="45.61527" lon="5.44247">
        <ele>400</ele>
        <time>2022-05-17T05:39:40.575Z</time>
      </trkpt>
      <trkpt lat="45.6153" lon="5.44256">
        <ele>400</ele>
        <time>2022-05-17T05:39:41.575Z</time>
      </trkpt>
      <trkpt lat="45.61532" lon="5.44264">
        <ele>400</ele>
        <time>2022-05-17T05:39:42.575Z</time>
      </trkpt>
      <trkpt lat="45.61535" lon="5.44273">
        <ele>400</ele>
        <time>2022-05-17T05:39:43.574Z</time>
      </trkpt>
      <trkpt lat="45.61537" lon="5.44282">
        <ele>400</ele>
        <time>2022-05-17T05:39:44.575Z</time>
      </trkpt>
      <trkpt lat="45.61539" lon="5.4429">
        <ele>400</ele>
        <time>2022-05-17T05:39:45.575Z</time>
      </trkpt>
      <trkpt lat="45.61542" lon="5.44299">
        <ele>400</ele>
        <time>2022-05-17T05:39:46.575Z</time>
      </trkpt>
      <trkpt lat="45.61544" lon="5.44308">
        <ele>401</ele>
        <time>2022-05-17T05:39:47.574Z</time>
      </trkpt>
      <trkpt lat="45.61546" lon="5.44316">
        <ele>401</ele>
        <time>2022-05-17T05:39:48.575Z</time>
      </trkpt>
      <trkpt lat="45.61547" lon="5.44325">
        <ele>401</ele>
        <time>2022-05-17T05:39:49.575Z</time>
      </trkpt>
      <trkpt lat="45.61549" lon="5.44334">
        <ele>401</ele>
        <time>2022-05-17T05:39:50.575Z</time>
      </trkpt>
      <trkpt lat="45.61551" lon="5.44343">
        <ele>402</ele>
        <time>2022-05-17T05:39:51.574Z</time>
      </trkpt>
      <trkpt lat="45.61552" lon="5.44352">
        <ele>402</ele>
        <time>2022-05-17T05:39:52.575Z</time>
      </trkpt>
      <trkpt lat="45.61554" lon="5.4436">
        <ele>403</ele>
        <time>2022-05-17T05:39:53.575Z</time>
      </trkpt>
      <trkpt lat="45.61555" lon="5.44369">
        <ele>403</ele>
        <time>2022-05-17T05:39:54.575Z</time>
      </trkpt>
      <trkpt lat="45.61556" lon="5.44377">
        <ele>403</ele>
        <time>2022-05-17T05:39:55.575Z</time>
      </trkpt>
      <trkpt lat="45.61557" lon="5.44386">
        <ele>404</ele>
        <time>2022-05-17T05:39:56.574Z</time>
      </trkpt>
      <trkpt lat="45.61558" lon="5.44394">
        <ele>404</ele>
        <time>2022-05-17T05:39:57.575Z</time>
      </trkpt>
      <trkpt lat="45.61559" lon="5.44402">
        <ele>404</ele>
        <time>2022-05-17T05:39:58.575Z</time>
      </trkpt>
      <trkpt lat="45.6156" lon="5.44411">
        <ele>404</ele>
        <time>2022-05-17T05:39:59.574Z</time>
      </trkpt>
      <trkpt lat="45.61561" lon="5.44419">
        <ele>405</ele>
        <time>2022-05-17T05:40:00.575Z</time>
      </trkpt>
      <trkpt lat="45.61562" lon="5.44428">
        <ele>405</ele>
        <time>2022-05-17T05:40:01.575Z</time>
      </trkpt>
      <trkpt lat="45.61562" lon="5.44437">
        <ele>406</ele>
        <time>2022-05-17T05:40:02.575Z</time>
      </trkpt>
      <trkpt lat="45.61563" lon="5.44446">
        <ele>407</ele>
        <time>2022-05-17T05:40:03.574Z</time>
      </trkpt>
      <trkpt lat="45.61563" lon="5.44455">
        <ele>408</ele>
        <time>2022-05-17T05:40:04.575Z</time>
      </trkpt>
      <trkpt lat="45.61563" lon="5.44464">
        <ele>408</ele>
        <time>2022-05-17T05:40:05.575Z</time>
      </trkpt>
      <trkpt lat="45.61563" lon="5.44473">
        <ele>408</ele>
        <time>2022-05-17T05:40:06.574Z</time>
      </trkpt>
      <trkpt lat="45.61563" lon="5.44482">
        <ele>408</ele>
        <time>2022-05-17T05:40:07.575Z</time>
      </trkpt>
      <trkpt lat="45.61562" lon="5.44491">
        <ele>408</ele>
        <time>2022-05-17T05:40:08.575Z</time>
      </trkpt>
      <trkpt lat="45.61562" lon="5.44501">
        <ele>409</ele>
        <time>2022-05-17T05:40:09.574Z</time>
      </trkpt>
      <trkpt lat="45.61561" lon="5.4451">
        <ele>409</ele>
        <time>2022-05-17T05:40:10.575Z</time>
      </trkpt>
      <trkpt lat="45.6156" lon="5.44519">
        <ele>409</ele>
        <time>2022-05-17T05:40:11.575Z</time>
      </trkpt>
      <trkpt lat="45.6156" lon="5.44528">
        <ele>409</ele>
        <time>2022-05-17T05:40:12.574Z</time>
      </trkpt>
      <trkpt lat="45.61559" lon="5.44537">
        <ele>409</ele>
        <time>2022-05-17T05:40:13.574Z</time>
      </trkpt>
      <trkpt lat="45.61558" lon="5.44546">
        <ele>410</ele>
        <time>2022-05-17T05:40:14.574Z</time>
      </trkpt>
      <trkpt lat="45.61557" lon="5.44556">
        <ele>410</ele>
        <time>2022-05-17T05:40:15.575Z</time>
      </trkpt>
      <trkpt lat="45.61556" lon="5.44565">
        <ele>410</ele>
        <time>2022-05-17T05:40:16.575Z</time>
      </trkpt>
      <trkpt lat="45.61556" lon="5.44572">
        <ele>410</ele>
        <time>2022-05-17T05:40:17.575Z</time>
      </trkpt>
      <trkpt lat="45.61555" lon="5.44582">
        <ele>411</ele>
        <time>2022-05-17T05:40:18.575Z</time>
      </trkpt>
      <trkpt lat="45.61554" lon="5.44591">
        <ele>411</ele>
        <time>2022-05-17T05:40:19.575Z</time>
      </trkpt>
      <trkpt lat="45.61553" lon="5.446">
        <ele>411</ele>
        <time>2022-05-17T05:40:20.575Z</time>
      </trkpt>
      <trkpt lat="45.61552" lon="5.44609">
        <ele>412</ele>
        <time>2022-05-17T05:40:21.575Z</time>
      </trkpt>
      <trkpt lat="45.61551" lon="5.44618">
        <ele>412</ele>
        <time>2022-05-17T05:40:22.574Z</time>
      </trkpt>
      <trkpt lat="45.61549" lon="5.44629">
        <ele>412</ele>
        <time>2022-05-17T05:40:23.575Z</time>
      </trkpt>
      <trkpt lat="45.61548" lon="5.44639">
        <ele>411</ele>
        <time>2022-05-17T05:40:24.575Z</time>
      </trkpt>
      <trkpt lat="45.61546" lon="5.44648">
        <ele>411</ele>
        <time>2022-05-17T05:40:25.575Z</time>
      </trkpt>
      <trkpt lat="45.61545" lon="5.44655">
        <ele>411</ele>
        <time>2022-05-17T05:40:26.575Z</time>
      </trkpt>
      <trkpt lat="45.61544" lon="5.44664">
        <ele>411</ele>
        <time>2022-05-17T05:40:27.574Z</time>
      </trkpt>
      <trkpt lat="45.61543" lon="5.44673">
        <ele>411</ele>
        <time>2022-05-17T05:40:28.575Z</time>
      </trkpt>
      <trkpt lat="45.61541" lon="5.44683">
        <ele>411</ele>
        <time>2022-05-17T05:40:29.575Z</time>
      </trkpt>
      <trkpt lat="45.6154" lon="5.44692">
        <ele>410</ele>
        <time>2022-05-17T05:40:30.575Z</time>
      </trkpt>
      <trkpt lat="45.61538" lon="5.44699">
        <ele>410</ele>
        <time>2022-05-17T05:40:31.575Z</time>
      </trkpt>
      <trkpt lat="45.61537" lon="5.4471">
        <ele>410</ele>
        <time>2022-05-17T05:40:32.575Z</time>
      </trkpt>
      <trkpt lat="45.61536" lon="5.44718">
        <ele>410</ele>
        <time>2022-05-17T05:40:33.574Z</time>
      </trkpt>
      <trkpt lat="45.61535" lon="5.44727">
        <ele>410</ele>
        <time>2022-05-17T05:40:34.575Z</time>
      </trkpt>
      <trkpt lat="45.61534" lon="5.44735">
        <ele>411</ele>
        <time>2022-05-17T05:40:35.575Z</time>
      </trkpt>
      <trkpt lat="45.61533" lon="5.44742">
        <ele>411</ele>
        <time>2022-05-17T05:40:36.575Z</time>
      </trkpt>
      <trkpt lat="45.61532" lon="5.44749">
        <ele>411</ele>
        <time>2022-05-17T05:40:37.575Z</time>
      </trkpt>
      <trkpt lat="45.61531" lon="5.44759">
        <ele>411</ele>
        <time>2022-05-17T05:40:38.574Z</time>
      </trkpt>
      <trkpt lat="45.6153" lon="5.44766">
        <ele>412</ele>
        <time>2022-05-17T05:40:39.574Z</time>
      </trkpt>
      <trkpt lat="45.61528" lon="5.44773">
        <ele>412</ele>
        <time>2022-05-17T05:40:40.575Z</time>
      </trkpt>
      <trkpt lat="45.61527" lon="5.44779">
        <ele>412</ele>
        <time>2022-05-17T05:40:41.575Z</time>
      </trkpt>
      <trkpt lat="45.61526" lon="5.44787">
        <ele>413</ele>
        <time>2022-05-17T05:40:42.575Z</time>
      </trkpt>
      <trkpt lat="45.61525" lon="5.44795">
        <ele>413</ele>
        <time>2022-05-17T05:40:43.574Z</time>
      </trkpt>
      <trkpt lat="45.61524" lon="5.44803">
        <ele>413</ele>
        <time>2022-05-17T05:40:44.574Z</time>
      </trkpt>
      <trkpt lat="45.61523" lon="5.4481">
        <ele>413</ele>
        <time>2022-05-17T05:40:45.574Z</time>
      </trkpt>
      <trkpt lat="45.61522" lon="5.44816">
        <ele>413</ele>
        <time>2022-05-17T05:40:46.575Z</time>
      </trkpt>
      <trkpt lat="45.61521" lon="5.44824">
        <ele>413</ele>
        <time>2022-05-17T05:40:47.574Z</time>
      </trkpt>
      <trkpt lat="45.6152" lon="5.44829">
        <ele>413</ele>
        <time>2022-05-17T05:40:48.575Z</time>
      </trkpt>
      <trkpt lat="45.6152" lon="5.44836">
        <ele>413</ele>
        <time>2022-05-17T05:40:49.574Z</time>
      </trkpt>
      <trkpt lat="45.61519" lon="5.44844">
        <ele>413</ele>
        <time>2022-05-17T05:40:50.575Z</time>
      </trkpt>
      <trkpt lat="45.61518" lon="5.44851">
        <ele>413</ele>
        <time>2022-05-17T05:40:51.574Z</time>
      </trkpt>
      <trkpt lat="45.61517" lon="5.44856">
        <ele>413</ele>
        <time>2022-05-17T05:40:52.575Z</time>
      </trkpt>
      <trkpt lat="45.61516" lon="5.44864">
        <ele>413</ele>
        <time>2022-05-17T05:40:53.575Z</time>
      </trkpt>
      <trkpt lat="45.61516" lon="5.44869">
        <ele>413</ele>
        <time>2022-05-17T05:40:54.575Z</time>
      </trkpt>
      <trkpt lat="45.61515" lon="5.44875">
        <ele>413</ele>
        <time>2022-05-17T05:40:55.574Z</time>
      </trkpt>
      <trkpt lat="45.61514" lon="5.4488">
        <ele>413</ele>
        <time>2022-05-17T05:40:56.575Z</time>
      </trkpt>
      <trkpt lat="45.61514" lon="5.44884">
        <ele>414</ele>
        <time>2022-05-17T05:40:57.575Z</time>
      </trkpt>
      <trkpt lat="45.61513" lon="5.4489">
        <ele>414</ele>
        <time>2022-05-17T05:40:58.575Z</time>
      </trkpt>
      <trkpt lat="45.61512" lon="5.44897">
        <ele>414</ele>
        <time>2022-05-17T05:40:59.574Z</time>
      </trkpt>
      <trkpt lat="45.61512" lon="5.44903">
        <ele>415</ele>
        <time>2022-05-17T05:41:00.575Z</time>
      </trkpt>
      <trkpt lat="45.61511" lon="5.44908">
        <ele>415</ele>
        <time>2022-05-17T05:41:01.575Z</time>
      </trkpt>
      <trkpt lat="45.61511" lon="5.44913">
        <ele>416</ele>
        <time>2022-05-17T05:41:02.575Z</time>
      </trkpt>
      <trkpt lat="45.61511" lon="5.44919">
        <ele>416</ele>
        <time>2022-05-17T05:41:03.575Z</time>
      </trkpt>
      <trkpt lat="45.6151" lon="5.44925">
        <ele>416</ele>
        <time>2022-05-17T05:41:04.575Z</time>
      </trkpt>
      <trkpt lat="45.6151" lon="5.44932">
        <ele>417</ele>
        <time>2022-05-17T05:41:05.574Z</time>
      </trkpt>
      <trkpt lat="45.6151" lon="5.44938">
        <ele>417</ele>
        <time>2022-05-17T05:41:06.575Z</time>
      </trkpt>
      <trkpt lat="45.6151" lon="5.44944">
        <ele>418</ele>
        <time>2022-05-17T05:41:07.575Z</time>
      </trkpt>
      <trkpt lat="45.61511" lon="5.44951">
        <ele>419</ele>
        <time>2022-05-17T05:41:08.575Z</time>
      </trkpt>
      <trkpt lat="45.61512" lon="5.44958">
        <ele>419</ele>
        <time>2022-05-17T05:41:09.574Z</time>
      </trkpt>
      <trkpt lat="45.61514" lon="5.44964">
        <ele>419</ele>
        <time>2022-05-17T05:41:10.574Z</time>
      </trkpt>
      <trkpt lat="45.61515" lon="5.4497">
        <ele>419</ele>
        <time>2022-05-17T05:41:11.574Z</time>
      </trkpt>
      <trkpt lat="45.61517" lon="5.44976">
        <ele>419</ele>
        <time>2022-05-17T05:41:12.575Z</time>
      </trkpt>
      <trkpt lat="45.6152" lon="5.44982">
        <ele>419</ele>
        <time>2022-05-17T05:41:13.575Z</time>
      </trkpt>
      <trkpt lat="45.61522" lon="5.44987">
        <ele>419</ele>
        <time>2022-05-17T05:41:14.575Z</time>
      </trkpt>
      <trkpt lat="45.61525" lon="5.44993">
        <ele>419</ele>
        <time>2022-05-17T05:41:15.575Z</time>
      </trkpt>
      <trkpt lat="45.61527" lon="5.44998">
        <ele>419</ele>
        <time>2022-05-17T05:41:16.575Z</time>
      </trkpt>
      <trkpt lat="45.6153" lon="5.45003">
        <ele>420</ele>
        <time>2022-05-17T05:41:17.575Z</time>
      </trkpt>
      <trkpt lat="45.61533" lon="5.45008">
        <ele>420</ele>
        <time>2022-05-17T05:41:18.575Z</time>
      </trkpt>
      <trkpt lat="45.61536" lon="5.45013">
        <ele>420</ele>
        <time>2022-05-17T05:41:19.575Z</time>
      </trkpt>
      <trkpt lat="45.61539" lon="5.45017">
        <ele>420</ele>
        <time>2022-05-17T05:41:20.575Z</time>
      </trkpt>
      <trkpt lat="45.61542" lon="5.45021">
        <ele>420</ele>
        <time>2022-05-17T05:41:21.575Z</time>
      </trkpt>
      <trkpt lat="45.61547" lon="5.45025">
        <ele>420</ele>
        <time>2022-05-17T05:41:22.575Z</time>
      </trkpt>
      <trkpt lat="45.61551" lon="5.4503">
        <ele>420</ele>
        <time>2022-05-17T05:41:23.575Z</time>
      </trkpt>
      <trkpt lat="45.61556" lon="5.45035">
        <ele>420</ele>
        <time>2022-05-17T05:41:24.575Z</time>
      </trkpt>
      <trkpt lat="45.6156" lon="5.45039">
        <ele>420</ele>
        <time>2022-05-17T05:41:25.575Z</time>
      </trkpt>
      <trkpt lat="45.61563" lon="5.45043">
        <ele>420</ele>
        <time>2022-05-17T05:41:26.575Z</time>
      </trkpt>
      <trkpt lat="45.61567" lon="5.45047">
        <ele>420</ele>
        <time>2022-05-17T05:41:27.575Z</time>
      </trkpt>
      <trkpt lat="45.61571" lon="5.45053">
        <ele>421</ele>
        <time>2022-05-17T05:41:28.574Z</time>
      </trkpt>
      <trkpt lat="45.61576" lon="5.45058">
        <ele>421</ele>
        <time>2022-05-17T05:41:29.574Z</time>
      </trkpt>
      <trkpt lat="45.6158" lon="5.45063">
        <ele>421</ele>
        <time>2022-05-17T05:41:30.574Z</time>
      </trkpt>
      <trkpt lat="45.61583" lon="5.45068">
        <ele>421</ele>
        <time>2022-05-17T05:41:31.575Z</time>
      </trkpt>
      <trkpt lat="45.61587" lon="5.45073">
        <ele>422</ele>
        <time>2022-05-17T05:41:32.574Z</time>
      </trkpt>
      <trkpt lat="45.61592" lon="5.45079">
        <ele>422</ele>
        <time>2022-05-17T05:41:33.575Z</time>
      </trkpt>
      <trkpt lat="45.61597" lon="5.45086">
        <ele>423</ele>
        <time>2022-05-17T05:41:34.575Z</time>
      </trkpt>
      <trkpt lat="45.61601" lon="5.45092">
        <ele>423</ele>
        <time>2022-05-17T05:41:35.575Z</time>
      </trkpt>
      <trkpt lat="45.61604" lon="5.45097">
        <ele>423</ele>
        <time>2022-05-17T05:41:36.575Z</time>
      </trkpt>
      <trkpt lat="45.61607" lon="5.45105">
        <ele>423</ele>
        <time>2022-05-17T05:41:37.575Z</time>
      </trkpt>
      <trkpt lat="45.61611" lon="5.45112">
        <ele>423</ele>
        <time>2022-05-17T05:41:38.575Z</time>
      </trkpt>
      <trkpt lat="45.61614" lon="5.4512">
        <ele>423</ele>
        <time>2022-05-17T05:41:39.574Z</time>
      </trkpt>
      <trkpt lat="45.61617" lon="5.45129">
        <ele>423</ele>
        <time>2022-05-17T05:41:40.574Z</time>
      </trkpt>
      <trkpt lat="45.6162" lon="5.4514">
        <ele>422</ele>
        <time>2022-05-17T05:41:41.575Z</time>
      </trkpt>
      <trkpt lat="45.61623" lon="5.45148">
        <ele>422</ele>
        <time>2022-05-17T05:41:42.574Z</time>
      </trkpt>
      <trkpt lat="45.61626" lon="5.45158">
        <ele>422</ele>
        <time>2022-05-17T05:41:43.575Z</time>
      </trkpt>
      <trkpt lat="45.61628" lon="5.45168">
        <ele>421</ele>
        <time>2022-05-17T05:41:44.575Z</time>
      </trkpt>
      <trkpt lat="45.6163" lon="5.45178">
        <ele>421</ele>
        <time>2022-05-17T05:41:45.575Z</time>
      </trkpt>
      <trkpt lat="45.61631" lon="5.45188">
        <ele>421</ele>
        <time>2022-05-17T05:41:46.575Z</time>
      </trkpt>
      <trkpt lat="45.61633" lon="5.45196">
        <ele>421</ele>
        <time>2022-05-17T05:41:47.574Z</time>
      </trkpt>
      <trkpt lat="45.61634" lon="5.45206">
        <ele>421</ele>
        <time>2022-05-17T05:41:48.575Z</time>
      </trkpt>
      <trkpt lat="45.61636" lon="5.45219">
        <ele>421</ele>
        <time>2022-05-17T05:41:49.575Z</time>
      </trkpt>
      <trkpt lat="45.61638" lon="5.45229">
        <ele>421</ele>
        <time>2022-05-17T05:41:50.575Z</time>
      </trkpt>
      <trkpt lat="45.61639" lon="5.4524">
        <ele>421</ele>
        <time>2022-05-17T05:41:51.575Z</time>
      </trkpt>
      <trkpt lat="45.61641" lon="5.4525">
        <ele>422</ele>
        <time>2022-05-17T05:41:52.574Z</time>
      </trkpt>
      <trkpt lat="45.61642" lon="5.45261">
        <ele>421</ele>
        <time>2022-05-17T05:41:53.575Z</time>
      </trkpt>
      <trkpt lat="45.61643" lon="5.45272">
        <ele>421</ele>
        <time>2022-05-17T05:41:54.575Z</time>
      </trkpt>
      <trkpt lat="45.61644" lon="5.45282">
        <ele>421</ele>
        <time>2022-05-17T05:41:55.575Z</time>
      </trkpt>
      <trkpt lat="45.61646" lon="5.45293">
        <ele>421</ele>
        <time>2022-05-17T05:41:56.575Z</time>
      </trkpt>
      <trkpt lat="45.61647" lon="5.45304">
        <ele>421</ele>
        <time>2022-05-17T05:41:57.575Z</time>
      </trkpt>
      <trkpt lat="45.61648" lon="5.45314">
        <ele>421</ele>
        <time>2022-05-17T05:41:58.575Z</time>
      </trkpt>
      <trkpt lat="45.61649" lon="5.45325">
        <ele>421</ele>
        <time>2022-05-17T05:41:59.575Z</time>
      </trkpt>
      <trkpt lat="45.61651" lon="5.45336">
        <ele>422</ele>
        <time>2022-05-17T05:42:00.575Z</time>
      </trkpt>
      <trkpt lat="45.61652" lon="5.45346">
        <ele>422</ele>
        <time>2022-05-17T05:42:01.575Z</time>
      </trkpt>
      <trkpt lat="45.61653" lon="5.45357">
        <ele>422</ele>
        <time>2022-05-17T05:42:02.575Z</time>
      </trkpt>
      <trkpt lat="45.61654" lon="5.45368">
        <ele>422</ele>
        <time>2022-05-17T05:42:03.575Z</time>
      </trkpt>
      <trkpt lat="45.61654" lon="5.45378">
        <ele>423</ele>
        <time>2022-05-17T05:42:04.575Z</time>
      </trkpt>
      <trkpt lat="45.61654" lon="5.45388">
        <ele>423</ele>
        <time>2022-05-17T05:42:05.574Z</time>
      </trkpt>
      <trkpt lat="45.61654" lon="5.45399">
        <ele>423</ele>
        <time>2022-05-17T05:42:06.575Z</time>
      </trkpt>
      <trkpt lat="45.61654" lon="5.4541">
        <ele>424</ele>
        <time>2022-05-17T05:42:07.575Z</time>
      </trkpt>
      <trkpt lat="45.61652" lon="5.4542">
        <ele>424</ele>
        <time>2022-05-17T05:42:08.575Z</time>
      </trkpt>
      <trkpt lat="45.61651" lon="5.45431">
        <ele>424</ele>
        <time>2022-05-17T05:42:09.575Z</time>
      </trkpt>
      <trkpt lat="45.61649" lon="5.45442">
        <ele>424</ele>
        <time>2022-05-17T05:42:10.575Z</time>
      </trkpt>
      <trkpt lat="45.61648" lon="5.45452">
        <ele>424</ele>
        <time>2022-05-17T05:42:11.575Z</time>
      </trkpt>
      <trkpt lat="45.61646" lon="5.45463">
        <ele>424</ele>
        <time>2022-05-17T05:42:12.575Z</time>
      </trkpt>
      <trkpt lat="45.61644" lon="5.45472">
        <ele>424</ele>
        <time>2022-05-17T05:42:13.575Z</time>
      </trkpt>
      <trkpt lat="45.61642" lon="5.45483">
        <ele>425</ele>
        <time>2022-05-17T05:42:14.575Z</time>
      </trkpt>
      <trkpt lat="45.6164" lon="5.45494">
        <ele>425</ele>
        <time>2022-05-17T05:42:15.575Z</time>
      </trkpt>
      <trkpt lat="45.61637" lon="5.45504">
        <ele>425</ele>
        <time>2022-05-17T05:42:16.575Z</time>
      </trkpt>
      <trkpt lat="45.61635" lon="5.45514">
        <ele>425</ele>
        <time>2022-05-17T05:42:17.575Z</time>
      </trkpt>
      <trkpt lat="45.61633" lon="5.45524">
        <ele>425</ele>
        <time>2022-05-17T05:42:18.574Z</time>
      </trkpt>
      <trkpt lat="45.61631" lon="5.45535">
        <ele>425</ele>
        <time>2022-05-17T05:42:19.574Z</time>
      </trkpt>
      <trkpt lat="45.61628" lon="5.45546">
        <ele>425</ele>
        <time>2022-05-17T05:42:20.574Z</time>
      </trkpt>
      <trkpt lat="45.61626" lon="5.45556">
        <ele>425</ele>
        <time>2022-05-17T05:42:21.575Z</time>
      </trkpt>
      <trkpt lat="45.61624" lon="5.45567">
        <ele>424</ele>
        <time>2022-05-17T05:42:22.575Z</time>
      </trkpt>
      <trkpt lat="45.61622" lon="5.45578">
        <ele>424</ele>
        <time>2022-05-17T05:42:23.575Z</time>
      </trkpt>
      <trkpt lat="45.61621" lon="5.45588">
        <ele>424</ele>
        <time>2022-05-17T05:42:24.575Z</time>
      </trkpt>
      <trkpt lat="45.61619" lon="5.45599">
        <ele>425</ele>
        <time>2022-05-17T05:42:25.575Z</time>
      </trkpt>
      <trkpt lat="45.61618" lon="5.4561">
        <ele>425</ele>
        <time>2022-05-17T05:42:26.575Z</time>
      </trkpt>
      <trkpt lat="45.61616" lon="5.45621">
        <ele>425</ele>
        <time>2022-05-17T05:42:27.575Z</time>
      </trkpt>
      <trkpt lat="45.61614" lon="5.45632">
        <ele>425</ele>
        <time>2022-05-17T05:42:28.575Z</time>
      </trkpt>
      <trkpt lat="45.61612" lon="5.45642">
        <ele>425</ele>
        <time>2022-05-17T05:42:29.574Z</time>
      </trkpt>
      <trkpt lat="45.61609" lon="5.45653">
        <ele>425</ele>
        <time>2022-05-17T05:42:30.575Z</time>
      </trkpt>
      <trkpt lat="45.61606" lon="5.45663">
        <ele>425</ele>
        <time>2022-05-17T05:42:31.575Z</time>
      </trkpt>
      <trkpt lat="45.61604" lon="5.45674">
        <ele>425</ele>
        <time>2022-05-17T05:42:32.575Z</time>
      </trkpt>
      <trkpt lat="45.61601" lon="5.45684">
        <ele>425</ele>
        <time>2022-05-17T05:42:33.575Z</time>
      </trkpt>
      <trkpt lat="45.61598" lon="5.45693">
        <ele>425</ele>
        <time>2022-05-17T05:42:34.575Z</time>
      </trkpt>
      <trkpt lat="45.61596" lon="5.45701">
        <ele>425</ele>
        <time>2022-05-17T05:42:35.575Z</time>
      </trkpt>
      <trkpt lat="45.61592" lon="5.45713">
        <ele>425</ele>
        <time>2022-05-17T05:42:36.575Z</time>
      </trkpt>
      <trkpt lat="45.61589" lon="5.45722">
        <ele>425</ele>
        <time>2022-05-17T05:42:37.575Z</time>
      </trkpt>
      <trkpt lat="45.61587" lon="5.45731">
        <ele>424</ele>
        <time>2022-05-17T05:42:38.575Z</time>
      </trkpt>
      <trkpt lat="45.61583" lon="5.45741">
        <ele>424</ele>
        <time>2022-05-17T05:42:39.575Z</time>
      </trkpt>
      <trkpt lat="45.6158" lon="5.4575">
        <ele>424</ele>
        <time>2022-05-17T05:42:40.575Z</time>
      </trkpt>
      <trkpt lat="45.61577" lon="5.45759">
        <ele>424</ele>
        <time>2022-05-17T05:42:41.575Z</time>
      </trkpt>
      <trkpt lat="45.61575" lon="5.45768">
        <ele>423</ele>
        <time>2022-05-17T05:42:42.575Z</time>
      </trkpt>
      <trkpt lat="45.61572" lon="5.45776">
        <ele>423</ele>
        <time>2022-05-17T05:42:43.575Z</time>
      </trkpt>
      <trkpt lat="45.6157" lon="5.45785">
        <ele>423</ele>
        <time>2022-05-17T05:42:44.574Z</time>
      </trkpt>
      <trkpt lat="45.61568" lon="5.45794">
        <ele>423</ele>
        <time>2022-05-17T05:42:45.574Z</time>
      </trkpt>
      <trkpt lat="45.61565" lon="5.45802">
        <ele>423</ele>
        <time>2022-05-17T05:42:46.575Z</time>
      </trkpt>
      <trkpt lat="45.61563" lon="5.45811">
        <ele>424</ele>
        <time>2022-05-17T05:42:47.575Z</time>
      </trkpt>
      <trkpt lat="45.6156" lon="5.4582">
        <ele>425</ele>
        <time>2022-05-17T05:42:48.575Z</time>
      </trkpt>
      <trkpt lat="45.61558" lon="5.45829">
        <ele>425</ele>
        <time>2022-05-17T05:42:49.574Z</time>
      </trkpt>
      <trkpt lat="45.61555" lon="5.45837">
        <ele>426</ele>
        <time>2022-05-17T05:42:50.574Z</time>
      </trkpt>
      <trkpt lat="45.61553" lon="5.45845">
        <ele>425</ele>
        <time>2022-05-17T05:42:51.575Z</time>
      </trkpt>
      <trkpt lat="45.61549" lon="5.45857">
        <ele>425</ele>
        <time>2022-05-17T05:42:52.575Z</time>
      </trkpt>
      <trkpt lat="45.61547" lon="5.45867">
        <ele>425</ele>
        <time>2022-05-17T05:42:53.575Z</time>
      </trkpt>
      <trkpt lat="45.61544" lon="5.45877">
        <ele>425</ele>
        <time>2022-05-17T05:42:54.575Z</time>
      </trkpt>
      <trkpt lat="45.61542" lon="5.45885">
        <ele>425</ele>
        <time>2022-05-17T05:42:55.575Z</time>
      </trkpt>
      <trkpt lat="45.61539" lon="5.45898">
        <ele>425</ele>
        <time>2022-05-17T05:42:56.575Z</time>
      </trkpt>
      <trkpt lat="45.61537" lon="5.45907">
        <ele>425</ele>
        <time>2022-05-17T05:42:57.575Z</time>
      </trkpt>
      <trkpt lat="45.61535" lon="5.4592">
        <ele>425</ele>
        <time>2022-05-17T05:42:58.574Z</time>
      </trkpt>
      <trkpt lat="45.61533" lon="5.45932">
        <ele>425</ele>
        <time>2022-05-17T05:42:59.575Z</time>
      </trkpt>
      <trkpt lat="45.61531" lon="5.45944">
        <ele>425</ele>
        <time>2022-05-17T05:43:00.575Z</time>
      </trkpt>
      <trkpt lat="45.6153" lon="5.45956">
        <ele>425</ele>
        <time>2022-05-17T05:43:01.575Z</time>
      </trkpt>
      <trkpt lat="45.61528" lon="5.45967">
        <ele>425</ele>
        <time>2022-05-17T05:43:02.575Z</time>
      </trkpt>
      <trkpt lat="45.61527" lon="5.4598">
        <ele>425</ele>
        <time>2022-05-17T05:43:03.575Z</time>
      </trkpt>
      <trkpt lat="45.61525" lon="5.45992">
        <ele>425</ele>
        <time>2022-05-17T05:43:04.574Z</time>
      </trkpt>
      <trkpt lat="45.61523" lon="5.46004">
        <ele>424</ele>
        <time>2022-05-17T05:43:05.575Z</time>
      </trkpt>
      <trkpt lat="45.61522" lon="5.46016">
        <ele>424</ele>
        <time>2022-05-17T05:43:06.575Z</time>
      </trkpt>
      <trkpt lat="45.61521" lon="5.46028">
        <ele>423</ele>
        <time>2022-05-17T05:43:07.575Z</time>
      </trkpt>
      <trkpt lat="45.61519" lon="5.46041">
        <ele>423</ele>
        <time>2022-05-17T05:43:08.574Z</time>
      </trkpt>
      <trkpt lat="45.61518" lon="5.46053">
        <ele>423</ele>
        <time>2022-05-17T05:43:09.575Z</time>
      </trkpt>
      <trkpt lat="45.61518" lon="5.46065">
        <ele>423</ele>
        <time>2022-05-17T05:43:10.575Z</time>
      </trkpt>
      <trkpt lat="45.61517" lon="5.46077">
        <ele>423</ele>
        <time>2022-05-17T05:43:11.575Z</time>
      </trkpt>
      <trkpt lat="45.61516" lon="5.46089">
        <ele>423</ele>
        <time>2022-05-17T05:43:12.575Z</time>
      </trkpt>
      <trkpt lat="45.61515" lon="5.461">
        <ele>422</ele>
        <time>2022-05-17T05:43:13.575Z</time>
      </trkpt>
      <trkpt lat="45.61513" lon="5.46112">
        <ele>422</ele>
        <time>2022-05-17T05:43:14.575Z</time>
      </trkpt>
      <trkpt lat="45.61512" lon="5.46121">
        <ele>421</ele>
        <time>2022-05-17T05:43:15.575Z</time>
      </trkpt>
      <trkpt lat="45.6151" lon="5.46135">
        <ele>421</ele>
        <time>2022-05-17T05:43:16.574Z</time>
      </trkpt>
      <trkpt lat="45.61509" lon="5.46146">
        <ele>421</ele>
        <time>2022-05-17T05:43:17.575Z</time>
      </trkpt>
      <trkpt lat="45.61508" lon="5.46157">
        <ele>420</ele>
        <time>2022-05-17T05:43:18.574Z</time>
      </trkpt>
      <trkpt lat="45.61506" lon="5.46169">
        <ele>420</ele>
        <time>2022-05-17T05:43:19.574Z</time>
      </trkpt>
      <trkpt lat="45.61505" lon="5.4618">
        <ele>420</ele>
        <time>2022-05-17T05:43:20.575Z</time>
      </trkpt>
      <trkpt lat="45.61504" lon="5.46189">
        <ele>420</ele>
        <time>2022-05-17T05:43:21.575Z</time>
      </trkpt>
      <trkpt lat="45.61503" lon="5.46202">
        <ele>421</ele>
        <time>2022-05-17T05:43:22.574Z</time>
      </trkpt>
      <trkpt lat="45.61502" lon="5.46214">
        <ele>421</ele>
        <time>2022-05-17T05:43:23.575Z</time>
      </trkpt>
      <trkpt lat="45.61502" lon="5.46225">
        <ele>421</ele>
        <time>2022-05-17T05:43:24.575Z</time>
      </trkpt>
      <trkpt lat="45.61503" lon="5.46234">
        <ele>421</ele>
        <time>2022-05-17T05:43:25.575Z</time>
      </trkpt>
      <trkpt lat="45.61504" lon="5.46248">
        <ele>421</ele>
        <time>2022-05-17T05:43:26.575Z</time>
      </trkpt>
      <trkpt lat="45.61505" lon="5.46259">
        <ele>420</ele>
        <time>2022-05-17T05:43:27.575Z</time>
      </trkpt>
      <trkpt lat="45.61507" lon="5.46271">
        <ele>420</ele>
        <time>2022-05-17T05:43:28.575Z</time>
      </trkpt>
      <trkpt lat="45.61509" lon="5.46282">
        <ele>419</ele>
        <time>2022-05-17T05:43:29.575Z</time>
      </trkpt>
      <trkpt lat="45.61511" lon="5.46291">
        <ele>420</ele>
        <time>2022-05-17T05:43:30.575Z</time>
      </trkpt>
      <trkpt lat="45.61513" lon="5.46303">
        <ele>420</ele>
        <time>2022-05-17T05:43:31.575Z</time>
      </trkpt>
      <trkpt lat="45.61515" lon="5.46317">
        <ele>420</ele>
        <time>2022-05-17T05:43:32.575Z</time>
      </trkpt>
      <trkpt lat="45.61517" lon="5.46328">
        <ele>420</ele>
        <time>2022-05-17T05:43:33.575Z</time>
      </trkpt>
      <trkpt lat="45.61519" lon="5.4634">
        <ele>420</ele>
        <time>2022-05-17T05:43:34.574Z</time>
      </trkpt>
      <trkpt lat="45.6152" lon="5.46349">
        <ele>420</ele>
        <time>2022-05-17T05:43:35.575Z</time>
      </trkpt>
      <trkpt lat="45.61522" lon="5.46361">
        <ele>420</ele>
        <time>2022-05-17T05:43:36.575Z</time>
      </trkpt>
      <trkpt lat="45.61524" lon="5.46375">
        <ele>420</ele>
        <time>2022-05-17T05:43:37.575Z</time>
      </trkpt>
      <trkpt lat="45.61526" lon="5.46387">
        <ele>421</ele>
        <time>2022-05-17T05:43:38.575Z</time>
      </trkpt>
      <trkpt lat="45.61527" lon="5.46399">
        <ele>421</ele>
        <time>2022-05-17T05:43:39.575Z</time>
      </trkpt>
      <trkpt lat="45.61529" lon="5.4641">
        <ele>421</ele>
        <time>2022-05-17T05:43:40.575Z</time>
      </trkpt>
      <trkpt lat="45.6153" lon="5.46422">
        <ele>421</ele>
        <time>2022-05-17T05:43:41.575Z</time>
      </trkpt>
      <trkpt lat="45.61531" lon="5.46433">
        <ele>421</ele>
        <time>2022-05-17T05:43:42.575Z</time>
      </trkpt>
      <trkpt lat="45.61533" lon="5.46444">
        <ele>421</ele>
        <time>2022-05-17T05:43:43.575Z</time>
      </trkpt>
      <trkpt lat="45.61534" lon="5.46455">
        <ele>421</ele>
        <time>2022-05-17T05:43:44.575Z</time>
      </trkpt>
      <trkpt lat="45.61535" lon="5.46466">
        <ele>420</ele>
        <time>2022-05-17T05:43:45.575Z</time>
      </trkpt>
      <trkpt lat="45.61536" lon="5.46476">
        <ele>420</ele>
        <time>2022-05-17T05:43:46.574Z</time>
      </trkpt>
      <trkpt lat="45.61537" lon="5.46486">
        <ele>419</ele>
        <time>2022-05-17T05:43:47.574Z</time>
      </trkpt>
      <trkpt lat="45.61539" lon="5.46495">
        <ele>419</ele>
        <time>2022-05-17T05:43:48.574Z</time>
      </trkpt>
      <trkpt lat="45.6154" lon="5.46503">
        <ele>419</ele>
        <time>2022-05-17T05:43:49.575Z</time>
      </trkpt>
      <trkpt lat="45.61541" lon="5.4651">
        <ele>419</ele>
        <time>2022-05-17T05:43:50.575Z</time>
      </trkpt>
      <trkpt lat="45.61542" lon="5.46515">
        <ele>419</ele>
        <time>2022-05-17T05:43:51.575Z</time>
      </trkpt>
      <trkpt lat="45.61542" lon="5.46519">
        <ele>419</ele>
        <time>2022-05-17T05:43:52.575Z</time>
      </trkpt>
      <trkpt lat="45.61541" lon="5.46521">
        <ele>419</ele>
        <time>2022-05-17T05:43:53.575Z</time>
      </trkpt>
      <trkpt lat="45.61541" lon="5.46523">
        <ele>419</ele>
        <time>2022-05-17T05:43:54.575Z</time>
      </trkpt>
      <trkpt lat="45.6154" lon="5.46525">
        <ele>418</ele>
        <time>2022-05-17T05:43:55.575Z</time>
      </trkpt>
      <trkpt lat="45.6154" lon="5.46526">
        <ele>418</ele>
        <time>2022-05-17T05:43:56.575Z</time>
      </trkpt>
      <trkpt lat="45.61541" lon="5.46529">
        <ele>418</ele>
        <time>2022-05-17T05:43:57.575Z</time>
      </trkpt>
      <trkpt lat="45.61543" lon="5.46532">
        <ele>417</ele>
        <time>2022-05-17T05:43:58.575Z</time>
      </trkpt>
      <trkpt lat="45.61545" lon="5.46538">
        <ele>417</ele>
        <time>2022-05-17T05:43:59.575Z</time>
      </trkpt>
      <trkpt lat="45.61548" lon="5.46544">
        <ele>417</ele>
        <time>2022-05-17T05:44:00.575Z</time>
      </trkpt>
      <trkpt lat="45.61552" lon="5.46554">
        <ele>417</ele>
        <time>2022-05-17T05:44:01.575Z</time>
      </trkpt>
      <trkpt lat="45.61555" lon="5.46563">
        <ele>417</ele>
        <time>2022-05-17T05:44:02.575Z</time>
      </trkpt>
      <trkpt lat="45.61559" lon="5.46573">
        <ele>417</ele>
        <time>2022-05-17T05:44:03.575Z</time>
      </trkpt>
      <trkpt lat="45.61563" lon="5.46583">
        <ele>417</ele>
        <time>2022-05-17T05:44:04.574Z</time>
      </trkpt>
      <trkpt lat="45.61568" lon="5.46593">
        <ele>416</ele>
        <time>2022-05-17T05:44:05.575Z</time>
      </trkpt>
      <trkpt lat="45.61572" lon="5.46602">
        <ele>416</ele>
        <time>2022-05-17T05:44:06.575Z</time>
      </trkpt>
      <trkpt lat="45.61578" lon="5.46615">
        <ele>415</ele>
        <time>2022-05-17T05:44:07.575Z</time>
      </trkpt>
      <trkpt lat="45.61584" lon="5.46626">
        <ele>414</ele>
        <time>2022-05-17T05:44:08.575Z</time>
      </trkpt>
      <trkpt lat="45.6159" lon="5.46637">
        <ele>414</ele>
        <time>2022-05-17T05:44:09.575Z</time>
      </trkpt>
      <trkpt lat="45.61596" lon="5.46649">
        <ele>413</ele>
        <time>2022-05-17T05:44:10.574Z</time>
      </trkpt>
      <trkpt lat="45.61602" lon="5.46661">
        <ele>413</ele>
        <time>2022-05-17T05:44:11.575Z</time>
      </trkpt>
      <trkpt lat="45.61607" lon="5.46674">
        <ele>413</ele>
        <time>2022-05-17T05:44:12.575Z</time>
      </trkpt>
      <trkpt lat="45.61612" lon="5.46686">
        <ele>413</ele>
        <time>2022-05-17T05:44:13.575Z</time>
      </trkpt>
      <trkpt lat="45.61617" lon="5.46699">
        <ele>412</ele>
        <time>2022-05-17T05:44:14.574Z</time>
      </trkpt>
      <trkpt lat="45.61621" lon="5.46709">
        <ele>412</ele>
        <time>2022-05-17T05:44:15.575Z</time>
      </trkpt>
      <trkpt lat="45.61626" lon="5.46724">
        <ele>412</ele>
        <time>2022-05-17T05:44:16.574Z</time>
      </trkpt>
      <trkpt lat="45.6163" lon="5.46737">
        <ele>411</ele>
        <time>2022-05-17T05:44:17.575Z</time>
      </trkpt>
      <trkpt lat="45.61634" lon="5.46749">
        <ele>411</ele>
        <time>2022-05-17T05:44:18.575Z</time>
      </trkpt>
      <trkpt lat="45.61637" lon="5.4676">
        <ele>411</ele>
        <time>2022-05-17T05:44:19.574Z</time>
      </trkpt>
      <trkpt lat="45.6164" lon="5.46773">
        <ele>410</ele>
        <time>2022-05-17T05:44:20.575Z</time>
      </trkpt>
      <trkpt lat="45.61644" lon="5.46786">
        <ele>410</ele>
        <time>2022-05-17T05:44:21.575Z</time>
      </trkpt>
      <trkpt lat="45.61648" lon="5.46802">
        <ele>410</ele>
        <time>2022-05-17T05:44:22.575Z</time>
      </trkpt>
      <trkpt lat="45.61651" lon="5.46815">
        <ele>409</ele>
        <time>2022-05-17T05:44:23.575Z</time>
      </trkpt>
      <trkpt lat="45.61653" lon="5.46829">
        <ele>409</ele>
        <time>2022-05-17T05:44:24.574Z</time>
      </trkpt>
      <trkpt lat="45.61656" lon="5.46842">
        <ele>409</ele>
        <time>2022-05-17T05:44:25.575Z</time>
      </trkpt>
      <trkpt lat="45.61658" lon="5.46856">
        <ele>408</ele>
        <time>2022-05-17T05:44:26.574Z</time>
      </trkpt>
      <trkpt lat="45.61659" lon="5.4687">
        <ele>407</ele>
        <time>2022-05-17T05:44:27.574Z</time>
      </trkpt>
      <trkpt lat="45.61661" lon="5.46884">
        <ele>406</ele>
        <time>2022-05-17T05:44:28.575Z</time>
      </trkpt>
      <trkpt lat="45.61663" lon="5.46898">
        <ele>406</ele>
        <time>2022-05-17T05:44:29.575Z</time>
      </trkpt>
      <trkpt lat="45.61665" lon="5.46912">
        <ele>405</ele>
        <time>2022-05-17T05:44:30.575Z</time>
      </trkpt>
      <trkpt lat="45.61666" lon="5.46923">
        <ele>405</ele>
        <time>2022-05-17T05:44:31.575Z</time>
      </trkpt>
      <trkpt lat="45.61667" lon="5.46939">
        <ele>404</ele>
        <time>2022-05-17T05:44:32.575Z</time>
      </trkpt>
      <trkpt lat="45.61668" lon="5.46953">
        <ele>404</ele>
        <time>2022-05-17T05:44:33.575Z</time>
      </trkpt>
      <trkpt lat="45.61668" lon="5.46967">
        <ele>403</ele>
        <time>2022-05-17T05:44:34.574Z</time>
      </trkpt>
      <trkpt lat="45.61669" lon="5.46978">
        <ele>403</ele>
        <time>2022-05-17T05:44:35.574Z</time>
      </trkpt>
      <trkpt lat="45.61669" lon="5.46994">
        <ele>403</ele>
        <time>2022-05-17T05:44:36.575Z</time>
      </trkpt>
      <trkpt lat="45.6167" lon="5.47005">
        <ele>402</ele>
        <time>2022-05-17T05:44:37.574Z</time>
      </trkpt>
      <trkpt lat="45.61671" lon="5.47021">
        <ele>402</ele>
        <time>2022-05-17T05:44:38.575Z</time>
      </trkpt>
      <trkpt lat="45.61671" lon="5.47032">
        <ele>402</ele>
        <time>2022-05-17T05:44:39.575Z</time>
      </trkpt>
      <trkpt lat="45.61672" lon="5.47048">
        <ele>401</ele>
        <time>2022-05-17T05:44:40.575Z</time>
      </trkpt>
      <trkpt lat="45.61673" lon="5.47061">
        <ele>401</ele>
        <time>2022-05-17T05:44:41.574Z</time>
      </trkpt>
      <trkpt lat="45.61674" lon="5.47073">
        <ele>401</ele>
        <time>2022-05-17T05:44:42.575Z</time>
      </trkpt>
      <trkpt lat="45.61675" lon="5.47086">
        <ele>400</ele>
        <time>2022-05-17T05:44:43.575Z</time>
      </trkpt>
      <trkpt lat="45.61675" lon="5.47099">
        <ele>400</ele>
        <time>2022-05-17T05:44:44.574Z</time>
      </trkpt>
      <trkpt lat="45.61676" lon="5.47112">
        <ele>400</ele>
        <time>2022-05-17T05:44:45.575Z</time>
      </trkpt>
      <trkpt lat="45.61677" lon="5.47124">
        <ele>400</ele>
        <time>2022-05-17T05:44:46.574Z</time>
      </trkpt>
      <trkpt lat="45.61679" lon="5.47136">
        <ele>400</ele>
        <time>2022-05-17T05:44:47.575Z</time>
      </trkpt>
      <trkpt lat="45.6168" lon="5.47148">
        <ele>400</ele>
        <time>2022-05-17T05:44:48.575Z</time>
      </trkpt>
      <trkpt lat="45.6168" lon="5.4716">
        <ele>400</ele>
        <time>2022-05-17T05:44:49.574Z</time>
      </trkpt>
      <trkpt lat="45.61681" lon="5.47169">
        <ele>400</ele>
        <time>2022-05-17T05:44:50.575Z</time>
      </trkpt>
      <trkpt lat="45.61682" lon="5.47183">
        <ele>401</ele>
        <time>2022-05-17T05:44:51.574Z</time>
      </trkpt>
      <trkpt lat="45.61683" lon="5.47195">
        <ele>400</ele>
        <time>2022-05-17T05:44:52.574Z</time>
      </trkpt>
      <trkpt lat="45.61683" lon="5.47206">
        <ele>401</ele>
        <time>2022-05-17T05:44:53.575Z</time>
      </trkpt>
      <trkpt lat="45.61684" lon="5.47217">
        <ele>401</ele>
        <time>2022-05-17T05:44:54.574Z</time>
      </trkpt>
      <trkpt lat="45.61684" lon="5.47226">
        <ele>401</ele>
        <time>2022-05-17T05:44:55.575Z</time>
      </trkpt>
      <trkpt lat="45.61685" lon="5.47239">
        <ele>401</ele>
        <time>2022-05-17T05:44:56.574Z</time>
      </trkpt>
      <trkpt lat="45.61686" lon="5.4725">
        <ele>401</ele>
        <time>2022-05-17T05:44:57.575Z</time>
      </trkpt>
      <trkpt lat="45.61687" lon="5.4726">
        <ele>401</ele>
        <time>2022-05-17T05:44:58.575Z</time>
      </trkpt>
      <trkpt lat="45.61687" lon="5.47269">
        <ele>401</ele>
        <time>2022-05-17T05:44:59.575Z</time>
      </trkpt>
      <trkpt lat="45.61688" lon="5.47279">
        <ele>401</ele>
        <time>2022-05-17T05:45:00.575Z</time>
      </trkpt>
      <trkpt lat="45.61688" lon="5.47292">
        <ele>401</ele>
        <time>2022-05-17T05:45:01.574Z</time>
      </trkpt>
      <trkpt lat="45.61688" lon="5.47302">
        <ele>401</ele>
        <time>2022-05-17T05:45:02.574Z</time>
      </trkpt>
      <trkpt lat="45.61689" lon="5.47312">
        <ele>402</ele>
        <time>2022-05-17T05:45:03.574Z</time>
      </trkpt>
      <trkpt lat="45.6169" lon="5.47321">
        <ele>402</ele>
        <time>2022-05-17T05:45:04.575Z</time>
      </trkpt>
      <trkpt lat="45.6169" lon="5.47331">
        <ele>402</ele>
        <time>2022-05-17T05:45:05.574Z</time>
      </trkpt>
      <trkpt lat="45.61691" lon="5.47344">
        <ele>402</ele>
        <time>2022-05-17T05:45:06.575Z</time>
      </trkpt>
      <trkpt lat="45.61691" lon="5.47354">
        <ele>402</ele>
        <time>2022-05-17T05:45:07.575Z</time>
      </trkpt>
      <trkpt lat="45.61691" lon="5.47365">
        <ele>402</ele>
        <time>2022-05-17T05:45:08.575Z</time>
      </trkpt>
      <trkpt lat="45.61692" lon="5.47373">
        <ele>403</ele>
        <time>2022-05-17T05:45:09.574Z</time>
      </trkpt>
      <trkpt lat="45.61692" lon="5.47386">
        <ele>403</ele>
        <time>2022-05-17T05:45:10.575Z</time>
      </trkpt>
      <trkpt lat="45.61691" lon="5.47397">
        <ele>403</ele>
        <time>2022-05-17T05:45:11.575Z</time>
      </trkpt>
      <trkpt lat="45.6169" lon="5.47407">
        <ele>404</ele>
        <time>2022-05-17T05:45:12.575Z</time>
      </trkpt>
      <trkpt lat="45.61689" lon="5.47418">
        <ele>404</ele>
        <time>2022-05-17T05:45:13.575Z</time>
      </trkpt>
      <trkpt lat="45.61689" lon="5.47426">
        <ele>405</ele>
        <time>2022-05-17T05:45:14.574Z</time>
      </trkpt>
      <trkpt lat="45.61687" lon="5.47437">
        <ele>405</ele>
        <time>2022-05-17T05:45:15.574Z</time>
      </trkpt>
      <trkpt lat="45.61686" lon="5.47447">
        <ele>405</ele>
        <time>2022-05-17T05:45:16.574Z</time>
      </trkpt>
      <trkpt lat="45.61685" lon="5.47457">
        <ele>406</ele>
        <time>2022-05-17T05:45:17.575Z</time>
      </trkpt>
      <trkpt lat="45.61683" lon="5.47467">
        <ele>406</ele>
        <time>2022-05-17T05:45:18.575Z</time>
      </trkpt>
      <trkpt lat="45.61682" lon="5.47477">
        <ele>406</ele>
        <time>2022-05-17T05:45:19.574Z</time>
      </trkpt>
      <trkpt lat="45.6168" lon="5.47487">
        <ele>406</ele>
        <time>2022-05-17T05:45:20.574Z</time>
      </trkpt>
      <trkpt lat="45.61679" lon="5.47496">
        <ele>407</ele>
        <time>2022-05-17T05:45:21.575Z</time>
      </trkpt>
      <trkpt lat="45.61677" lon="5.47507">
        <ele>407</ele>
        <time>2022-05-17T05:45:22.574Z</time>
      </trkpt>
      <trkpt lat="45.61676" lon="5.47515">
        <ele>408</ele>
        <time>2022-05-17T05:45:23.574Z</time>
      </trkpt>
      <trkpt lat="45.61674" lon="5.47524">
        <ele>408</ele>
        <time>2022-05-17T05:45:24.575Z</time>
      </trkpt>
      <trkpt lat="45.61672" lon="5.47536">
        <ele>408</ele>
        <time>2022-05-17T05:45:25.575Z</time>
      </trkpt>
      <trkpt lat="45.61671" lon="5.47544">
        <ele>408</ele>
        <time>2022-05-17T05:45:26.575Z</time>
      </trkpt>
      <trkpt lat="45.61669" lon="5.47553">
        <ele>408</ele>
        <time>2022-05-17T05:45:27.575Z</time>
      </trkpt>
      <trkpt lat="45.61668" lon="5.47563">
        <ele>408</ele>
        <time>2022-05-17T05:45:28.575Z</time>
      </trkpt>
      <trkpt lat="45.61667" lon="5.47573">
        <ele>408</ele>
        <time>2022-05-17T05:45:29.575Z</time>
      </trkpt>
      <trkpt lat="45.61666" lon="5.47583">
        <ele>408</ele>
        <time>2022-05-17T05:45:30.575Z</time>
      </trkpt>
      <trkpt lat="45.61665" lon="5.47596">
        <ele>408</ele>
        <time>2022-05-17T05:45:31.575Z</time>
      </trkpt>
      <trkpt lat="45.61665" lon="5.47607">
        <ele>408</ele>
        <time>2022-05-17T05:45:32.575Z</time>
      </trkpt>
      <trkpt lat="45.61665" lon="5.47615">
        <ele>408</ele>
        <time>2022-05-17T05:45:33.574Z</time>
      </trkpt>
      <trkpt lat="45.61664" lon="5.47626">
        <ele>408</ele>
        <time>2022-05-17T05:45:34.574Z</time>
      </trkpt>
      <trkpt lat="45.61664" lon="5.47637">
        <ele>409</ele>
        <time>2022-05-17T05:45:35.574Z</time>
      </trkpt>
      <trkpt lat="45.61664" lon="5.4765">
        <ele>408</ele>
        <time>2022-05-17T05:45:36.574Z</time>
      </trkpt>
      <trkpt lat="45.61663" lon="5.47661">
        <ele>408</ele>
        <time>2022-05-17T05:45:37.575Z</time>
      </trkpt>
      <trkpt lat="45.61663" lon="5.4767">
        <ele>408</ele>
        <time>2022-05-17T05:45:38.575Z</time>
      </trkpt>
      <trkpt lat="45.61662" lon="5.47681">
        <ele>409</ele>
        <time>2022-05-17T05:45:39.574Z</time>
      </trkpt>
      <trkpt lat="45.61661" lon="5.47692">
        <ele>409</ele>
        <time>2022-05-17T05:45:40.575Z</time>
      </trkpt>
      <trkpt lat="45.61659" lon="5.47702">
        <ele>409</ele>
        <time>2022-05-17T05:45:41.574Z</time>
      </trkpt>
      <trkpt lat="45.61658" lon="5.47713">
        <ele>409</ele>
        <time>2022-05-17T05:45:42.575Z</time>
      </trkpt>
      <trkpt lat="45.61656" lon="5.47724">
        <ele>410</ele>
        <time>2022-05-17T05:45:43.575Z</time>
      </trkpt>
      <trkpt lat="45.61655" lon="5.47735">
        <ele>410</ele>
        <time>2022-05-17T05:45:44.575Z</time>
      </trkpt>
      <trkpt lat="45.61653" lon="5.47746">
        <ele>410</ele>
        <time>2022-05-17T05:45:45.575Z</time>
      </trkpt>
      <trkpt lat="45.61651" lon="5.47756">
        <ele>410</ele>
        <time>2022-05-17T05:45:46.574Z</time>
      </trkpt>
      <trkpt lat="45.61649" lon="5.47767">
        <ele>409</ele>
        <time>2022-05-17T05:45:47.575Z</time>
      </trkpt>
      <trkpt lat="45.61647" lon="5.47778">
        <ele>409</ele>
        <time>2022-05-17T05:45:48.575Z</time>
      </trkpt>
      <trkpt lat="45.61645" lon="5.47789">
        <ele>408</ele>
        <time>2022-05-17T05:45:49.574Z</time>
      </trkpt>
      <trkpt lat="45.61643" lon="5.478">
        <ele>408</ele>
        <time>2022-05-17T05:45:50.575Z</time>
      </trkpt>
      <trkpt lat="45.61641" lon="5.47811">
        <ele>408</ele>
        <time>2022-05-17T05:45:51.575Z</time>
      </trkpt>
      <trkpt lat="45.61639" lon="5.47824">
        <ele>407</ele>
        <time>2022-05-17T05:45:52.575Z</time>
      </trkpt>
      <trkpt lat="45.61637" lon="5.47833">
        <ele>407</ele>
        <time>2022-05-17T05:45:53.575Z</time>
      </trkpt>
      <trkpt lat="45.61635" lon="5.47844">
        <ele>407</ele>
        <time>2022-05-17T05:45:54.574Z</time>
      </trkpt>
      <trkpt lat="45.61634" lon="5.47855">
        <ele>406</ele>
        <time>2022-05-17T05:45:55.575Z</time>
      </trkpt>
      <trkpt lat="45.61632" lon="5.47866">
        <ele>406</ele>
        <time>2022-05-17T05:45:56.574Z</time>
      </trkpt>
      <trkpt lat="45.6163" lon="5.47878">
        <ele>406</ele>
        <time>2022-05-17T05:45:57.575Z</time>
      </trkpt>
      <trkpt lat="45.61629" lon="5.47889">
        <ele>406</ele>
        <time>2022-05-17T05:45:58.574Z</time>
      </trkpt>
      <trkpt lat="45.61627" lon="5.47901">
        <ele>406</ele>
        <time>2022-05-17T05:45:59.575Z</time>
      </trkpt>
      <trkpt lat="45.61626" lon="5.47915">
        <ele>406</ele>
        <time>2022-05-17T05:46:00.575Z</time>
      </trkpt>
      <trkpt lat="45.61626" lon="5.47925">
        <ele>406</ele>
        <time>2022-05-17T05:46:01.575Z</time>
      </trkpt>
      <trkpt lat="45.61626" lon="5.47937">
        <ele>407</ele>
        <time>2022-05-17T05:46:02.575Z</time>
      </trkpt>
      <trkpt lat="45.61627" lon="5.47949">
        <ele>407</ele>
        <time>2022-05-17T05:46:03.575Z</time>
      </trkpt>
      <trkpt lat="45.61629" lon="5.47962">
        <ele>406</ele>
        <time>2022-05-17T05:46:04.575Z</time>
      </trkpt>
      <trkpt lat="45.61632" lon="5.47978">
        <ele>406</ele>
        <time>2022-05-17T05:46:05.575Z</time>
      </trkpt>
      <trkpt lat="45.61635" lon="5.47991">
        <ele>406</ele>
        <time>2022-05-17T05:46:06.575Z</time>
      </trkpt>
      <trkpt lat="45.6164" lon="5.48004">
        <ele>406</ele>
        <time>2022-05-17T05:46:07.574Z</time>
      </trkpt>
      <trkpt lat="45.61644" lon="5.48015">
        <ele>405</ele>
        <time>2022-05-17T05:46:08.575Z</time>
      </trkpt>
      <trkpt lat="45.6165" lon="5.48028">
        <ele>405</ele>
        <time>2022-05-17T05:46:09.575Z</time>
      </trkpt>
      <trkpt lat="45.61657" lon="5.48044">
        <ele>405</ele>
        <time>2022-05-17T05:46:10.575Z</time>
      </trkpt>
      <trkpt lat="45.61663" lon="5.48058">
        <ele>405</ele>
        <time>2022-05-17T05:46:11.574Z</time>
      </trkpt>
      <trkpt lat="45.61669" lon="5.48071">
        <ele>404</ele>
        <time>2022-05-17T05:46:12.574Z</time>
      </trkpt>
      <trkpt lat="45.61674" lon="5.48082">
        <ele>404</ele>
        <time>2022-05-17T05:46:13.575Z</time>
      </trkpt>
      <trkpt lat="45.6168" lon="5.48098">
        <ele>404</ele>
        <time>2022-05-17T05:46:14.575Z</time>
      </trkpt>
      <trkpt lat="45.61686" lon="5.48111">
        <ele>403</ele>
        <time>2022-05-17T05:46:15.574Z</time>
      </trkpt>
      <trkpt lat="45.61691" lon="5.48124">
        <ele>403</ele>
        <time>2022-05-17T05:46:16.574Z</time>
      </trkpt>
      <trkpt lat="45.61697" lon="5.48136">
        <ele>403</ele>
        <time>2022-05-17T05:46:17.575Z</time>
      </trkpt>
      <trkpt lat="45.61703" lon="5.48149">
        <ele>403</ele>
        <time>2022-05-17T05:46:18.575Z</time>
      </trkpt>
      <trkpt lat="45.61708" lon="5.48161">
        <ele>402</ele>
        <time>2022-05-17T05:46:19.575Z</time>
      </trkpt>
      <trkpt lat="45.61714" lon="5.48174">
        <ele>402</ele>
        <time>2022-05-17T05:46:20.575Z</time>
      </trkpt>
      <trkpt lat="45.61719" lon="5.48186">
        <ele>402</ele>
        <time>2022-05-17T05:46:21.575Z</time>
      </trkpt>
      <trkpt lat="45.61724" lon="5.48198">
        <ele>401</ele>
        <time>2022-05-17T05:46:22.575Z</time>
      </trkpt>
      <trkpt lat="45.61729" lon="5.48207">
        <ele>401</ele>
        <time>2022-05-17T05:46:23.574Z</time>
      </trkpt>
      <trkpt lat="45.61734" lon="5.48219">
        <ele>401</ele>
        <time>2022-05-17T05:46:24.575Z</time>
      </trkpt>
      <trkpt lat="45.61741" lon="5.48234">
        <ele>400</ele>
        <time>2022-05-17T05:46:25.575Z</time>
      </trkpt>
      <trkpt lat="45.61746" lon="5.48245">
        <ele>400</ele>
        <time>2022-05-17T05:46:26.575Z</time>
      </trkpt>
      <trkpt lat="45.61751" lon="5.48257">
        <ele>400</ele>
        <time>2022-05-17T05:46:27.575Z</time>
      </trkpt>
      <trkpt lat="45.61756" lon="5.48269">
        <ele>400</ele>
        <time>2022-05-17T05:46:28.574Z</time>
      </trkpt>
      <trkpt lat="45.61762" lon="5.48281">
        <ele>400</ele>
        <time>2022-05-17T05:46:29.574Z</time>
      </trkpt>
      <trkpt lat="45.61767" lon="5.48293">
        <ele>400</ele>
        <time>2022-05-17T05:46:30.575Z</time>
      </trkpt>
      <trkpt lat="45.61772" lon="5.48305">
        <ele>399</ele>
        <time>2022-05-17T05:46:31.575Z</time>
      </trkpt>
      <trkpt lat="45.61777" lon="5.4832">
        <ele>399</ele>
        <time>2022-05-17T05:46:32.574Z</time>
      </trkpt>
      <trkpt lat="45.61781" lon="5.48331">
        <ele>399</ele>
        <time>2022-05-17T05:46:33.574Z</time>
      </trkpt>
      <trkpt lat="45.61785" lon="5.48344">
        <ele>398</ele>
        <time>2022-05-17T05:46:34.575Z</time>
      </trkpt>
      <trkpt lat="45.61788" lon="5.48357">
        <ele>397</ele>
        <time>2022-05-17T05:46:35.574Z</time>
      </trkpt>
      <trkpt lat="45.61792" lon="5.4837">
        <ele>397</ele>
        <time>2022-05-17T05:46:36.574Z</time>
      </trkpt>
      <trkpt lat="45.61795" lon="5.48383">
        <ele>396</ele>
        <time>2022-05-17T05:46:37.574Z</time>
      </trkpt>
      <trkpt lat="45.61798" lon="5.48396">
        <ele>396</ele>
        <time>2022-05-17T05:46:38.574Z</time>
      </trkpt>
      <trkpt lat="45.61801" lon="5.48409">
        <ele>396</ele>
        <time>2022-05-17T05:46:39.575Z</time>
      </trkpt>
      <trkpt lat="45.61804" lon="5.48422">
        <ele>396</ele>
        <time>2022-05-17T05:46:40.574Z</time>
      </trkpt>
      <trkpt lat="45.61806" lon="5.48435">
        <ele>396</ele>
        <time>2022-05-17T05:46:41.575Z</time>
      </trkpt>
      <trkpt lat="45.61809" lon="5.48448">
        <ele>396</ele>
        <time>2022-05-17T05:46:42.574Z</time>
      </trkpt>
      <trkpt lat="45.61811" lon="5.48461">
        <ele>396</ele>
        <time>2022-05-17T05:46:43.574Z</time>
      </trkpt>
      <trkpt lat="45.61813" lon="5.48474">
        <ele>396</ele>
        <time>2022-05-17T05:46:44.574Z</time>
      </trkpt>
      <trkpt lat="45.61815" lon="5.48488">
        <ele>396</ele>
        <time>2022-05-17T05:46:45.574Z</time>
      </trkpt>
      <trkpt lat="45.61817" lon="5.48501">
        <ele>396</ele>
        <time>2022-05-17T05:46:46.574Z</time>
      </trkpt>
      <trkpt lat="45.6182" lon="5.48514">
        <ele>396</ele>
        <time>2022-05-17T05:46:47.575Z</time>
      </trkpt>
      <trkpt lat="45.61822" lon="5.48525">
        <ele>397</ele>
        <time>2022-05-17T05:46:48.574Z</time>
      </trkpt>
      <trkpt lat="45.61825" lon="5.48541">
        <ele>397</ele>
        <time>2022-05-17T05:46:49.574Z</time>
      </trkpt>
      <trkpt lat="45.61827" lon="5.48555">
        <ele>397</ele>
        <time>2022-05-17T05:46:50.575Z</time>
      </trkpt>
      <trkpt lat="45.61829" lon="5.48568">
        <ele>397</ele>
        <time>2022-05-17T05:46:51.575Z</time>
      </trkpt>
      <trkpt lat="45.61831" lon="5.48581">
        <ele>397</ele>
        <time>2022-05-17T05:46:52.575Z</time>
      </trkpt>
      <trkpt lat="45.61833" lon="5.48595">
        <ele>397</ele>
        <time>2022-05-17T05:46:53.575Z</time>
      </trkpt>
      <trkpt lat="45.61835" lon="5.48609">
        <ele>396</ele>
        <time>2022-05-17T05:46:54.575Z</time>
      </trkpt>
      <trkpt lat="45.61837" lon="5.48623">
        <ele>396</ele>
        <time>2022-05-17T05:46:55.575Z</time>
      </trkpt>
      <trkpt lat="45.61839" lon="5.48637">
        <ele>396</ele>
        <time>2022-05-17T05:46:56.574Z</time>
      </trkpt>
      <trkpt lat="45.61842" lon="5.48651">
        <ele>396</ele>
        <time>2022-05-17T05:46:57.575Z</time>
      </trkpt>
      <trkpt lat="45.61844" lon="5.48665">
        <ele>396</ele>
        <time>2022-05-17T05:46:58.575Z</time>
      </trkpt>
      <trkpt lat="45.61846" lon="5.48677">
        <ele>396</ele>
        <time>2022-05-17T05:46:59.574Z</time>
      </trkpt>
      <trkpt lat="45.61848" lon="5.48695">
        <ele>395</ele>
        <time>2022-05-17T05:47:00.574Z</time>
      </trkpt>
      <trkpt lat="45.61849" lon="5.4871">
        <ele>394</ele>
        <time>2022-05-17T05:47:01.575Z</time>
      </trkpt>
      <trkpt lat="45.6185" lon="5.48725">
        <ele>393</ele>
        <time>2022-05-17T05:47:02.574Z</time>
      </trkpt>
      <trkpt lat="45.61851" lon="5.4874">
        <ele>392</ele>
        <time>2022-05-17T05:47:03.574Z</time>
      </trkpt>
      <trkpt lat="45.61851" lon="5.48754">
        <ele>391</ele>
        <time>2022-05-17T05:47:04.574Z</time>
      </trkpt>
      <trkpt lat="45.61851" lon="5.48769">
        <ele>391</ele>
        <time>2022-05-17T05:47:05.575Z</time>
      </trkpt>
      <trkpt lat="45.61851" lon="5.48783">
        <ele>390</ele>
        <time>2022-05-17T05:47:06.574Z</time>
      </trkpt>
      <trkpt lat="45.61851" lon="5.48797">
        <ele>390</ele>
        <time>2022-05-17T05:47:07.575Z</time>
      </trkpt>
      <trkpt lat="45.6185" lon="5.48808">
        <ele>390</ele>
        <time>2022-05-17T05:47:08.574Z</time>
      </trkpt>
      <trkpt lat="45.61851" lon="5.48824">
        <ele>390</ele>
        <time>2022-05-17T05:47:09.575Z</time>
      </trkpt>
      <trkpt lat="45.61851" lon="5.48838">
        <ele>390</ele>
        <time>2022-05-17T05:47:10.574Z</time>
      </trkpt>
      <trkpt lat="45.61851" lon="5.48851">
        <ele>390</ele>
        <time>2022-05-17T05:47:11.575Z</time>
      </trkpt>
      <trkpt lat="45.61851" lon="5.48862">
        <ele>390</ele>
        <time>2022-05-17T05:47:12.575Z</time>
      </trkpt>
      <trkpt lat="45.61851" lon="5.48879">
        <ele>390</ele>
        <time>2022-05-17T05:47:13.575Z</time>
      </trkpt>
      <trkpt lat="45.6185" lon="5.48893">
        <ele>390</ele>
        <time>2022-05-17T05:47:14.575Z</time>
      </trkpt>
      <trkpt lat="45.6185" lon="5.48907">
        <ele>390</ele>
        <time>2022-05-17T05:47:15.575Z</time>
      </trkpt>
      <trkpt lat="45.61849" lon="5.4892">
        <ele>390</ele>
        <time>2022-05-17T05:47:16.574Z</time>
      </trkpt>
      <trkpt lat="45.61848" lon="5.48934">
        <ele>390</ele>
        <time>2022-05-17T05:47:17.574Z</time>
      </trkpt>
      <trkpt lat="45.61846" lon="5.48946">
        <ele>389</ele>
        <time>2022-05-17T05:47:18.575Z</time>
      </trkpt>
      <trkpt lat="45.61844" lon="5.48963">
        <ele>389</ele>
        <time>2022-05-17T05:47:19.575Z</time>
      </trkpt>
      <trkpt lat="45.61842" lon="5.48977">
        <ele>388</ele>
        <time>2022-05-17T05:47:20.575Z</time>
      </trkpt>
      <trkpt lat="45.6184" lon="5.48989">
        <ele>388</ele>
        <time>2022-05-17T05:47:21.574Z</time>
      </trkpt>
      <trkpt lat="45.61838" lon="5.49004">
        <ele>387</ele>
        <time>2022-05-17T05:47:22.575Z</time>
      </trkpt>
      <trkpt lat="45.61835" lon="5.49019">
        <ele>387</ele>
        <time>2022-05-17T05:47:23.575Z</time>
      </trkpt>
      <trkpt lat="45.61832" lon="5.49038">
        <ele>387</ele>
        <time>2022-05-17T05:47:24.575Z</time>
      </trkpt>
      <trkpt lat="45.61829" lon="5.49053">
        <ele>387</ele>
        <time>2022-05-17T05:47:25.575Z</time>
      </trkpt>
      <trkpt lat="45.61825" lon="5.49069">
        <ele>387</ele>
        <time>2022-05-17T05:47:26.575Z</time>
      </trkpt>
      <trkpt lat="45.61821" lon="5.49082">
        <ele>387</ele>
        <time>2022-05-17T05:47:27.574Z</time>
      </trkpt>
      <trkpt lat="45.61817" lon="5.49097">
        <ele>387</ele>
        <time>2022-05-17T05:47:28.575Z</time>
      </trkpt>
      <trkpt lat="45.61812" lon="5.49114">
        <ele>387</ele>
        <time>2022-05-17T05:47:29.575Z</time>
      </trkpt>
      <trkpt lat="45.61806" lon="5.49134">
        <ele>387</ele>
        <time>2022-05-17T05:47:30.575Z</time>
      </trkpt>
      <trkpt lat="45.61801" lon="5.49151">
        <ele>387</ele>
        <time>2022-05-17T05:47:31.575Z</time>
      </trkpt>
      <trkpt lat="45.61798" lon="5.49166">
        <ele>387</ele>
        <time>2022-05-17T05:47:32.574Z</time>
      </trkpt>
      <trkpt lat="45.61793" lon="5.49184">
        <ele>386</ele>
        <time>2022-05-17T05:47:33.574Z</time>
      </trkpt>
      <trkpt lat="45.61788" lon="5.49207">
        <ele>385</ele>
        <time>2022-05-17T05:47:34.575Z</time>
      </trkpt>
      <trkpt lat="45.61786" lon="5.49228">
        <ele>384</ele>
        <time>2022-05-17T05:47:35.574Z</time>
      </trkpt>
      <trkpt lat="45.61785" lon="5.49248">
        <ele>382</ele>
        <time>2022-05-17T05:47:36.574Z</time>
      </trkpt>
      <trkpt lat="45.61785" lon="5.49264">
        <ele>380</ele>
        <time>2022-05-17T05:47:37.575Z</time>
      </trkpt>
      <trkpt lat="45.61786" lon="5.49284">
        <ele>379</ele>
        <time>2022-05-17T05:47:38.574Z</time>
      </trkpt>
      <trkpt lat="45.61788" lon="5.49309">
        <ele>377</ele>
        <time>2022-05-17T05:47:39.575Z</time>
      </trkpt>
      <trkpt lat="45.61789" lon="5.4933">
        <ele>376</ele>
        <time>2022-05-17T05:47:40.575Z</time>
      </trkpt>
      <trkpt lat="45.61791" lon="5.49351">
        <ele>375</ele>
        <time>2022-05-17T05:47:41.575Z</time>
      </trkpt>
      <trkpt lat="45.61793" lon="5.49368">
        <ele>375</ele>
        <time>2022-05-17T05:47:42.575Z</time>
      </trkpt>
      <trkpt lat="45.61794" lon="5.49389">
        <ele>374</ele>
        <time>2022-05-17T05:47:43.574Z</time>
      </trkpt>
      <trkpt lat="45.61796" lon="5.49416">
        <ele>373</ele>
        <time>2022-05-17T05:47:44.574Z</time>
      </trkpt>
      <trkpt lat="45.61798" lon="5.49438">
        <ele>373</ele>
        <time>2022-05-17T05:47:45.575Z</time>
      </trkpt>
      <trkpt lat="45.61799" lon="5.49455">
        <ele>372</ele>
        <time>2022-05-17T05:47:46.574Z</time>
      </trkpt>
      <trkpt lat="45.61799" lon="5.49476">
        <ele>371</ele>
        <time>2022-05-17T05:47:47.575Z</time>
      </trkpt>
      <trkpt lat="45.61799" lon="5.49497">
        <ele>369</ele>
        <time>2022-05-17T05:47:48.575Z</time>
      </trkpt>
      <trkpt lat="45.61797" lon="5.49521">
        <ele>368</ele>
        <time>2022-05-17T05:47:49.575Z</time>
      </trkpt>
      <trkpt lat="45.61795" lon="5.49535">
        <ele>368</ele>
        <time>2022-05-17T05:47:50.575Z</time>
      </trkpt>
      <trkpt lat="45.61792" lon="5.49556">
        <ele>367</ele>
        <time>2022-05-17T05:47:51.574Z</time>
      </trkpt>
      <trkpt lat="45.61789" lon="5.49571">
        <ele>367</ele>
        <time>2022-05-17T05:47:52.574Z</time>
      </trkpt>
      <trkpt lat="45.61786" lon="5.49586">
        <ele>367</ele>
        <time>2022-05-17T05:47:53.574Z</time>
      </trkpt>
      <trkpt lat="45.61783" lon="5.49599">
        <ele>366</ele>
        <time>2022-05-17T05:47:54.574Z</time>
      </trkpt>
      <trkpt lat="45.61779" lon="5.49611">
        <ele>365</ele>
        <time>2022-05-17T05:47:55.575Z</time>
      </trkpt>
      <trkpt lat="45.61776" lon="5.49623">
        <ele>364</ele>
        <time>2022-05-17T05:47:56.575Z</time>
      </trkpt>
      <trkpt lat="45.61773" lon="5.49634">
        <ele>364</ele>
        <time>2022-05-17T05:47:57.575Z</time>
      </trkpt>
      <trkpt lat="45.61771" lon="5.49646">
        <ele>363</ele>
        <time>2022-05-17T05:47:58.575Z</time>
      </trkpt>
      <trkpt lat="45.61768" lon="5.49657">
        <ele>363</ele>
        <time>2022-05-17T05:47:59.575Z</time>
      </trkpt>
      <trkpt lat="45.61765" lon="5.49667">
        <ele>362</ele>
        <time>2022-05-17T05:48:00.575Z</time>
      </trkpt>
      <trkpt lat="45.61763" lon="5.49678">
        <ele>362</ele>
        <time>2022-05-17T05:48:01.575Z</time>
      </trkpt>
      <trkpt lat="45.61761" lon="5.49688">
        <ele>362</ele>
        <time>2022-05-17T05:48:02.575Z</time>
      </trkpt>
      <trkpt lat="45.61759" lon="5.49699">
        <ele>361</ele>
        <time>2022-05-17T05:48:03.575Z</time>
      </trkpt>
      <trkpt lat="45.61757" lon="5.49709">
        <ele>361</ele>
        <time>2022-05-17T05:48:04.575Z</time>
      </trkpt>
      <trkpt lat="45.61755" lon="5.49719">
        <ele>361</ele>
        <time>2022-05-17T05:48:05.575Z</time>
      </trkpt>
      <trkpt lat="45.61753" lon="5.49729">
        <ele>361</ele>
        <time>2022-05-17T05:48:06.575Z</time>
      </trkpt>
      <trkpt lat="45.61751" lon="5.49739">
        <ele>360</ele>
        <time>2022-05-17T05:48:07.574Z</time>
      </trkpt>
      <trkpt lat="45.61749" lon="5.49747">
        <ele>360</ele>
        <time>2022-05-17T05:48:08.575Z</time>
      </trkpt>
      <trkpt lat="45.61746" lon="5.49759">
        <ele>359</ele>
        <time>2022-05-17T05:48:09.574Z</time>
      </trkpt>
      <trkpt lat="45.61744" lon="5.49769">
        <ele>359</ele>
        <time>2022-05-17T05:48:10.575Z</time>
      </trkpt>
      <trkpt lat="45.61742" lon="5.49779">
        <ele>359</ele>
        <time>2022-05-17T05:48:11.575Z</time>
      </trkpt>
      <trkpt lat="45.6174" lon="5.49788">
        <ele>359</ele>
        <time>2022-05-17T05:48:12.574Z</time>
      </trkpt>
      <trkpt lat="45.61739" lon="5.49796">
        <ele>359</ele>
        <time>2022-05-17T05:48:13.574Z</time>
      </trkpt>
      <trkpt lat="45.61737" lon="5.49808">
        <ele>360</ele>
        <time>2022-05-17T05:48:14.575Z</time>
      </trkpt>
      <trkpt lat="45.61735" lon="5.49817">
        <ele>360</ele>
        <time>2022-05-17T05:48:15.575Z</time>
      </trkpt>
      <trkpt lat="45.61734" lon="5.49827">
        <ele>360</ele>
        <time>2022-05-17T05:48:16.575Z</time>
      </trkpt>
      <trkpt lat="45.61732" lon="5.49836">
        <ele>360</ele>
        <time>2022-05-17T05:48:17.575Z</time>
      </trkpt>
      <trkpt lat="45.6173" lon="5.49844">
        <ele>360</ele>
        <time>2022-05-17T05:48:18.575Z</time>
      </trkpt>
      <trkpt lat="45.61728" lon="5.49854">
        <ele>360</ele>
        <time>2022-05-17T05:48:19.575Z</time>
      </trkpt>
      <trkpt lat="45.61726" lon="5.49865">
        <ele>360</ele>
        <time>2022-05-17T05:48:20.575Z</time>
      </trkpt>
      <trkpt lat="45.61724" lon="5.49874">
        <ele>360</ele>
        <time>2022-05-17T05:48:21.575Z</time>
      </trkpt>
      <trkpt lat="45.61722" lon="5.49883">
        <ele>360</ele>
        <time>2022-05-17T05:48:22.574Z</time>
      </trkpt>
      <trkpt lat="45.6172" lon="5.49891">
        <ele>360</ele>
        <time>2022-05-17T05:48:23.575Z</time>
      </trkpt>
      <trkpt lat="45.61718" lon="5.49902">
        <ele>360</ele>
        <time>2022-05-17T05:48:24.575Z</time>
      </trkpt>
      <trkpt lat="45.61716" lon="5.4991">
        <ele>360</ele>
        <time>2022-05-17T05:48:25.575Z</time>
      </trkpt>
      <trkpt lat="45.61714" lon="5.49918">
        <ele>360</ele>
        <time>2022-05-17T05:48:26.574Z</time>
      </trkpt>
      <trkpt lat="45.61713" lon="5.49925">
        <ele>360</ele>
        <time>2022-05-17T05:48:27.575Z</time>
      </trkpt>
      <trkpt lat="45.61711" lon="5.49933">
        <ele>360</ele>
        <time>2022-05-17T05:48:28.574Z</time>
      </trkpt>
      <trkpt lat="45.61709" lon="5.4994">
        <ele>359</ele>
        <time>2022-05-17T05:48:29.574Z</time>
      </trkpt>
      <trkpt lat="45.61707" lon="5.49948">
        <ele>359</ele>
        <time>2022-05-17T05:48:30.574Z</time>
      </trkpt>
      <trkpt lat="45.61706" lon="5.49956">
        <ele>359</ele>
        <time>2022-05-17T05:48:31.574Z</time>
      </trkpt>
      <trkpt lat="45.61705" lon="5.49963">
        <ele>359</ele>
        <time>2022-05-17T05:48:32.574Z</time>
      </trkpt>
      <trkpt lat="45.61704" lon="5.4997">
        <ele>359</ele>
        <time>2022-05-17T05:48:33.575Z</time>
      </trkpt>
      <trkpt lat="45.61703" lon="5.49977">
        <ele>359</ele>
        <time>2022-05-17T05:48:34.575Z</time>
      </trkpt>
      <trkpt lat="45.61701" lon="5.49986">
        <ele>359</ele>
        <time>2022-05-17T05:48:35.575Z</time>
      </trkpt>
      <trkpt lat="45.617" lon="5.49991">
        <ele>360</ele>
        <time>2022-05-17T05:48:36.575Z</time>
      </trkpt>
      <trkpt lat="45.61699" lon="5.49997">
        <ele>360</ele>
        <time>2022-05-17T05:48:37.574Z</time>
      </trkpt>
      <trkpt lat="45.61698" lon="5.50004">
        <ele>360</ele>
        <time>2022-05-17T05:48:38.575Z</time>
      </trkpt>
      <trkpt lat="45.61697" lon="5.50011">
        <ele>360</ele>
        <time>2022-05-17T05:48:39.575Z</time>
      </trkpt>
      <trkpt lat="45.61695" lon="5.50018">
        <ele>360</ele>
        <time>2022-05-17T05:48:40.575Z</time>
      </trkpt>
      <trkpt lat="45.61694" lon="5.50025">
        <ele>360</ele>
        <time>2022-05-17T05:48:41.575Z</time>
      </trkpt>
      <trkpt lat="45.61693" lon="5.50032">
        <ele>360</ele>
        <time>2022-05-17T05:48:42.574Z</time>
      </trkpt>
      <trkpt lat="45.61692" lon="5.50038">
        <ele>360</ele>
        <time>2022-05-17T05:48:43.575Z</time>
      </trkpt>
      <trkpt lat="45.61691" lon="5.50043">
        <ele>360</ele>
        <time>2022-05-17T05:48:44.575Z</time>
      </trkpt>
      <trkpt lat="45.61689" lon="5.50049">
        <ele>360</ele>
        <time>2022-05-17T05:48:45.574Z</time>
      </trkpt>
      <trkpt lat="45.61688" lon="5.50052">
        <ele>360</ele>
        <time>2022-05-17T05:48:46.574Z</time>
      </trkpt>
      <trkpt lat="45.61686" lon="5.50055">
        <ele>360</ele>
        <time>2022-05-17T05:48:47.575Z</time>
      </trkpt>
      <trkpt lat="45.61684" lon="5.50059">
        <ele>360</ele>
        <time>2022-05-17T05:48:48.574Z</time>
      </trkpt>
      <trkpt lat="45.61682" lon="5.50064">
        <ele>360</ele>
        <time>2022-05-17T05:48:49.575Z</time>
      </trkpt>
      <trkpt lat="45.61681" lon="5.50069">
        <ele>360</ele>
        <time>2022-05-17T05:48:50.575Z</time>
      </trkpt>
      <trkpt lat="45.6168" lon="5.50075">
        <ele>360</ele>
        <time>2022-05-17T05:48:51.575Z</time>
      </trkpt>
      <trkpt lat="45.6168" lon="5.5008">
        <ele>360</ele>
        <time>2022-05-17T05:48:52.575Z</time>
      </trkpt>
      <trkpt lat="45.6168" lon="5.50085">
        <ele>360</ele>
        <time>2022-05-17T05:48:53.575Z</time>
      </trkpt>
      <trkpt lat="45.61679" lon="5.50091">
        <ele>361</ele>
        <time>2022-05-17T05:48:54.575Z</time>
      </trkpt>
      <trkpt lat="45.61679" lon="5.50097">
        <ele>361</ele>
        <time>2022-05-17T05:48:55.574Z</time>
      </trkpt>
      <trkpt lat="45.61677" lon="5.50103">
        <ele>361</ele>
        <time>2022-05-17T05:48:56.575Z</time>
      </trkpt>
      <trkpt lat="45.61676" lon="5.5011">
        <ele>361</ele>
        <time>2022-05-17T05:48:57.574Z</time>
      </trkpt>
      <trkpt lat="45.61674" lon="5.50117">
        <ele>361</ele>
        <time>2022-05-17T05:48:58.575Z</time>
      </trkpt>
      <trkpt lat="45.61672" lon="5.50124">
        <ele>361</ele>
        <time>2022-05-17T05:48:59.575Z</time>
      </trkpt>
      <trkpt lat="45.6167" lon="5.50131">
        <ele>360</ele>
        <time>2022-05-17T05:49:00.575Z</time>
      </trkpt>
      <trkpt lat="45.61668" lon="5.50139">
        <ele>360</ele>
        <time>2022-05-17T05:49:01.575Z</time>
      </trkpt>
      <trkpt lat="45.61665" lon="5.50147">
        <ele>360</ele>
        <time>2022-05-17T05:49:02.574Z</time>
      </trkpt>
      <trkpt lat="45.61664" lon="5.50154">
        <ele>361</ele>
        <time>2022-05-17T05:49:03.575Z</time>
      </trkpt>
      <trkpt lat="45.61662" lon="5.50161">
        <ele>361</ele>
        <time>2022-05-17T05:49:04.575Z</time>
      </trkpt>
      <trkpt lat="45.6166" lon="5.50168">
        <ele>361</ele>
        <time>2022-05-17T05:49:05.575Z</time>
      </trkpt>
      <trkpt lat="45.61658" lon="5.50176">
        <ele>361</ele>
        <time>2022-05-17T05:49:06.574Z</time>
      </trkpt>
      <trkpt lat="45.61656" lon="5.50182">
        <ele>361</ele>
        <time>2022-05-17T05:49:07.574Z</time>
      </trkpt>
      <trkpt lat="45.61655" lon="5.50189">
        <ele>362</ele>
        <time>2022-05-17T05:49:08.574Z</time>
      </trkpt>
      <trkpt lat="45.61653" lon="5.50196">
        <ele>362</ele>
        <time>2022-05-17T05:49:09.575Z</time>
      </trkpt>
      <trkpt lat="45.61651" lon="5.50204">
        <ele>362</ele>
        <time>2022-05-17T05:49:10.575Z</time>
      </trkpt>
      <trkpt lat="45.6165" lon="5.50211">
        <ele>363</ele>
        <time>2022-05-17T05:49:11.574Z</time>
      </trkpt>
      <trkpt lat="45.61648" lon="5.50219">
        <ele>363</ele>
        <time>2022-05-17T05:49:12.575Z</time>
      </trkpt>
      <trkpt lat="45.61646" lon="5.50226">
        <ele>363</ele>
        <time>2022-05-17T05:49:13.574Z</time>
      </trkpt>
      <trkpt lat="45.61644" lon="5.50234">
        <ele>364</ele>
        <time>2022-05-17T05:49:14.575Z</time>
      </trkpt>
      <trkpt lat="45.61642" lon="5.50242">
        <ele>364</ele>
        <time>2022-05-17T05:49:15.575Z</time>
      </trkpt>
      <trkpt lat="45.6164" lon="5.50249">
        <ele>364</ele>
        <time>2022-05-17T05:49:16.575Z</time>
      </trkpt>
      <trkpt lat="45.61638" lon="5.50257">
        <ele>364</ele>
        <time>2022-05-17T05:49:17.574Z</time>
      </trkpt>
      <trkpt lat="45.61636" lon="5.50264">
        <ele>364</ele>
        <time>2022-05-17T05:49:18.574Z</time>
      </trkpt>
      <trkpt lat="45.61634" lon="5.50271">
        <ele>364</ele>
        <time>2022-05-17T05:49:19.574Z</time>
      </trkpt>
      <trkpt lat="45.61633" lon="5.50278">
        <ele>364</ele>
        <time>2022-05-17T05:49:20.575Z</time>
      </trkpt>
      <trkpt lat="45.61632" lon="5.50283">
        <ele>364</ele>
        <time>2022-05-17T05:49:21.575Z</time>
      </trkpt>
      <trkpt lat="45.6163" lon="5.50289">
        <ele>364</ele>
        <time>2022-05-17T05:49:22.574Z</time>
      </trkpt>
      <trkpt lat="45.61629" lon="5.50294">
        <ele>364</ele>
        <time>2022-05-17T05:49:23.575Z</time>
      </trkpt>
      <trkpt lat="45.61628" lon="5.50299">
        <ele>365</ele>
        <time>2022-05-17T05:49:24.575Z</time>
      </trkpt>
      <trkpt lat="45.61626" lon="5.50305">
        <ele>365</ele>
        <time>2022-05-17T05:49:25.575Z</time>
      </trkpt>
      <trkpt lat="45.61625" lon="5.50311">
        <ele>364</ele>
        <time>2022-05-17T05:49:26.574Z</time>
      </trkpt>
      <trkpt lat="45.61624" lon="5.50317">
        <ele>364</ele>
        <time>2022-05-17T05:49:27.574Z</time>
      </trkpt>
      <trkpt lat="45.61622" lon="5.50324">
        <ele>364</ele>
        <time>2022-05-17T05:49:28.574Z</time>
      </trkpt>
      <trkpt lat="45.61621" lon="5.50331">
        <ele>364</ele>
        <time>2022-05-17T05:49:29.575Z</time>
      </trkpt>
      <trkpt lat="45.6162" lon="5.50338">
        <ele>365</ele>
        <time>2022-05-17T05:49:30.575Z</time>
      </trkpt>
      <trkpt lat="45.61618" lon="5.50344">
        <ele>365</ele>
        <time>2022-05-17T05:49:31.575Z</time>
      </trkpt>
      <trkpt lat="45.61617" lon="5.50351">
        <ele>366</ele>
        <time>2022-05-17T05:49:32.575Z</time>
      </trkpt>
      <trkpt lat="45.61616" lon="5.50357">
        <ele>367</ele>
        <time>2022-05-17T05:49:33.575Z</time>
      </trkpt>
      <trkpt lat="45.61615" lon="5.50363">
        <ele>367</ele>
        <time>2022-05-17T05:49:34.575Z</time>
      </trkpt>
      <trkpt lat="45.61614" lon="5.50369">
        <ele>368</ele>
        <time>2022-05-17T05:49:35.575Z</time>
      </trkpt>
      <trkpt lat="45.61612" lon="5.50376">
        <ele>369</ele>
        <time>2022-05-17T05:49:36.575Z</time>
      </trkpt>
      <trkpt lat="45.6161" lon="5.50383">
        <ele>369</ele>
        <time>2022-05-17T05:49:37.575Z</time>
      </trkpt>
      <trkpt lat="45.61608" lon="5.5039">
        <ele>369</ele>
        <time>2022-05-17T05:49:38.574Z</time>
      </trkpt>
      <trkpt lat="45.61606" lon="5.50397">
        <ele>369</ele>
        <time>2022-05-17T05:49:39.575Z</time>
      </trkpt>
      <trkpt lat="45.61604" lon="5.50405">
        <ele>369</ele>
        <time>2022-05-17T05:49:40.575Z</time>
      </trkpt>
      <trkpt lat="45.61601" lon="5.50412">
        <ele>369</ele>
        <time>2022-05-17T05:49:41.575Z</time>
      </trkpt>
      <trkpt lat="45.61599" lon="5.5042">
        <ele>369</ele>
        <time>2022-05-17T05:49:42.574Z</time>
      </trkpt>
      <trkpt lat="45.61596" lon="5.50427">
        <ele>369</ele>
        <time>2022-05-17T05:49:43.575Z</time>
      </trkpt>
      <trkpt lat="45.61594" lon="5.50434">
        <ele>369</ele>
        <time>2022-05-17T05:49:44.574Z</time>
      </trkpt>
      <trkpt lat="45.61591" lon="5.50441">
        <ele>369</ele>
        <time>2022-05-17T05:49:45.575Z</time>
      </trkpt>
      <trkpt lat="45.61588" lon="5.50449">
        <ele>369</ele>
        <time>2022-05-17T05:49:46.575Z</time>
      </trkpt>
      <trkpt lat="45.61586" lon="5.50456">
        <ele>368</ele>
        <time>2022-05-17T05:49:47.575Z</time>
      </trkpt>
      <trkpt lat="45.61583" lon="5.50463">
        <ele>368</ele>
        <time>2022-05-17T05:49:48.575Z</time>
      </trkpt>
      <trkpt lat="45.6158" lon="5.50469">
        <ele>368</ele>
        <time>2022-05-17T05:49:49.574Z</time>
      </trkpt>
      <trkpt lat="45.61578" lon="5.50475">
        <ele>367</ele>
        <time>2022-05-17T05:49:50.575Z</time>
      </trkpt>
      <trkpt lat="45.61576" lon="5.50481">
        <ele>367</ele>
        <time>2022-05-17T05:49:51.575Z</time>
      </trkpt>
      <trkpt lat="45.61573" lon="5.50486">
        <ele>367</ele>
        <time>2022-05-17T05:49:52.575Z</time>
      </trkpt>
      <trkpt lat="45.61571" lon="5.50491">
        <ele>367</ele>
        <time>2022-05-17T05:49:53.575Z</time>
      </trkpt>
      <trkpt lat="45.61569" lon="5.50497">
        <ele>367</ele>
        <time>2022-05-17T05:49:54.575Z</time>
      </trkpt>
      <trkpt lat="45.61567" lon="5.50502">
        <ele>367</ele>
        <time>2022-05-17T05:49:55.574Z</time>
      </trkpt>
      <trkpt lat="45.61564" lon="5.50508">
        <ele>366</ele>
        <time>2022-05-17T05:49:56.574Z</time>
      </trkpt>
      <trkpt lat="45.6156" lon="5.50514">
        <ele>366</ele>
        <time>2022-05-17T05:49:57.575Z</time>
      </trkpt>
      <trkpt lat="45.61557" lon="5.5052">
        <ele>366</ele>
        <time>2022-05-17T05:49:58.575Z</time>
      </trkpt>
      <trkpt lat="45.61555" lon="5.50525">
        <ele>366</ele>
        <time>2022-05-17T05:49:59.575Z</time>
      </trkpt>
      <trkpt lat="45.61553" lon="5.5053">
        <ele>366</ele>
        <time>2022-05-17T05:50:00.575Z</time>
      </trkpt>
      <trkpt lat="45.61552" lon="5.50535">
        <ele>366</ele>
        <time>2022-05-17T05:50:01.575Z</time>
      </trkpt>
      <trkpt lat="45.61551" lon="5.5054">
        <ele>366</ele>
        <time>2022-05-17T05:50:02.574Z</time>
      </trkpt>
      <trkpt lat="45.6155" lon="5.50544">
        <ele>367</ele>
        <time>2022-05-17T05:50:03.575Z</time>
      </trkpt>
      <trkpt lat="45.61548" lon="5.50548">
        <ele>367</ele>
        <time>2022-05-17T05:50:04.575Z</time>
      </trkpt>
      <trkpt lat="45.61547" lon="5.50552">
        <ele>368</ele>
        <time>2022-05-17T05:50:05.575Z</time>
      </trkpt>
      <trkpt lat="45.61544" lon="5.50556">
        <ele>368</ele>
        <time>2022-05-17T05:50:06.574Z</time>
      </trkpt>
      <trkpt lat="45.61543" lon="5.50558">
        <ele>368</ele>
        <time>2022-05-17T05:50:07.574Z</time>
      </trkpt>
      <trkpt lat="45.61541" lon="5.50561">
        <ele>368</ele>
        <time>2022-05-17T05:50:08.575Z</time>
      </trkpt>
      <trkpt lat="45.6154" lon="5.50563">
        <ele>367</ele>
        <time>2022-05-17T05:50:09.574Z</time>
      </trkpt>
      <trkpt lat="45.61538" lon="5.50566">
        <ele>367</ele>
        <time>2022-05-17T05:50:10.575Z</time>
      </trkpt>
      <trkpt lat="45.61537" lon="5.50568">
        <ele>367</ele>
        <time>2022-05-17T05:50:11.575Z</time>
      </trkpt>
      <trkpt lat="45.61535" lon="5.50573">
        <ele>367</ele>
        <time>2022-05-17T05:50:12.574Z</time>
      </trkpt>
      <trkpt lat="45.61534" lon="5.50577">
        <ele>367</ele>
        <time>2022-05-17T05:50:13.575Z</time>
      </trkpt>
      <trkpt lat="45.61532" lon="5.50582">
        <ele>367</ele>
        <time>2022-05-17T05:50:14.575Z</time>
      </trkpt>
      <trkpt lat="45.61529" lon="5.50589">
        <ele>367</ele>
        <time>2022-05-17T05:50:15.575Z</time>
      </trkpt>
      <trkpt lat="45.61526" lon="5.50595">
        <ele>367</ele>
        <time>2022-05-17T05:50:16.575Z</time>
      </trkpt>
      <trkpt lat="45.61522" lon="5.50603">
        <ele>367</ele>
        <time>2022-05-17T05:50:17.575Z</time>
      </trkpt>
      <trkpt lat="45.61518" lon="5.50608">
        <ele>367</ele>
        <time>2022-05-17T05:50:18.575Z</time>
      </trkpt>
      <trkpt lat="45.61514" lon="5.50615">
        <ele>367</ele>
        <time>2022-05-17T05:50:19.574Z</time>
      </trkpt>
      <trkpt lat="45.61511" lon="5.50622">
        <ele>367</ele>
        <time>2022-05-17T05:50:20.575Z</time>
      </trkpt>
      <trkpt lat="45.61507" lon="5.5063">
        <ele>367</ele>
        <time>2022-05-17T05:50:21.575Z</time>
      </trkpt>
      <trkpt lat="45.61502" lon="5.5064">
        <ele>367</ele>
        <time>2022-05-17T05:50:22.574Z</time>
      </trkpt>
      <trkpt lat="45.61499" lon="5.50646">
        <ele>367</ele>
        <time>2022-05-17T05:50:23.575Z</time>
      </trkpt>
      <trkpt lat="45.61495" lon="5.50654">
        <ele>368</ele>
        <time>2022-05-17T05:50:24.575Z</time>
      </trkpt>
      <trkpt lat="45.6149" lon="5.50664">
        <ele>368</ele>
        <time>2022-05-17T05:50:25.575Z</time>
      </trkpt>
      <trkpt lat="45.61487" lon="5.50673">
        <ele>368</ele>
        <time>2022-05-17T05:50:26.574Z</time>
      </trkpt>
      <trkpt lat="45.61483" lon="5.50682">
        <ele>368</ele>
        <time>2022-05-17T05:50:27.574Z</time>
      </trkpt>
      <trkpt lat="45.61481" lon="5.50689">
        <ele>369</ele>
        <time>2022-05-17T05:50:28.575Z</time>
      </trkpt>
      <trkpt lat="45.61477" lon="5.50698">
        <ele>369</ele>
        <time>2022-05-17T05:50:29.575Z</time>
      </trkpt>
      <trkpt lat="45.61474" lon="5.50709">
        <ele>369</ele>
        <time>2022-05-17T05:50:30.575Z</time>
      </trkpt>
      <trkpt lat="45.6147" lon="5.5072">
        <ele>370</ele>
        <time>2022-05-17T05:50:31.574Z</time>
      </trkpt>
      <trkpt lat="45.61467" lon="5.5073">
        <ele>370</ele>
        <time>2022-05-17T05:50:32.574Z</time>
      </trkpt>
      <trkpt lat="45.61464" lon="5.50738">
        <ele>370</ele>
        <time>2022-05-17T05:50:33.575Z</time>
      </trkpt>
      <trkpt lat="45.61461" lon="5.50749">
        <ele>370</ele>
        <time>2022-05-17T05:50:34.575Z</time>
      </trkpt>
      <trkpt lat="45.61458" lon="5.50759">
        <ele>370</ele>
        <time>2022-05-17T05:50:35.575Z</time>
      </trkpt>
      <trkpt lat="45.61455" lon="5.5077">
        <ele>370</ele>
        <time>2022-05-17T05:50:36.575Z</time>
      </trkpt>
      <trkpt lat="45.6145" lon="5.50782">
        <ele>370</ele>
        <time>2022-05-17T05:50:37.575Z</time>
      </trkpt>
      <trkpt lat="45.61446" lon="5.50793">
        <ele>370</ele>
        <time>2022-05-17T05:50:38.574Z</time>
      </trkpt>
      <trkpt lat="45.61441" lon="5.50804">
        <ele>370</ele>
        <time>2022-05-17T05:50:39.575Z</time>
      </trkpt>
      <trkpt lat="45.61437" lon="5.50814">
        <ele>371</ele>
        <time>2022-05-17T05:50:40.574Z</time>
      </trkpt>
      <trkpt lat="45.61431" lon="5.50824">
        <ele>371</ele>
        <time>2022-05-17T05:50:41.574Z</time>
      </trkpt>
      <trkpt lat="45.61425" lon="5.50833">
        <ele>371</ele>
        <time>2022-05-17T05:50:42.575Z</time>
      </trkpt>
      <trkpt lat="45.61418" lon="5.50843">
        <ele>371</ele>
        <time>2022-05-17T05:50:43.575Z</time>
      </trkpt>
      <trkpt lat="45.61411" lon="5.50853">
        <ele>370</ele>
        <time>2022-05-17T05:50:44.575Z</time>
      </trkpt>
      <trkpt lat="45.61402" lon="5.50863">
        <ele>370</ele>
        <time>2022-05-17T05:50:45.575Z</time>
      </trkpt>
      <trkpt lat="45.61394" lon="5.50873">
        <ele>370</ele>
        <time>2022-05-17T05:50:46.575Z</time>
      </trkpt>
      <trkpt lat="45.61386" lon="5.50881">
        <ele>369</ele>
        <time>2022-05-17T05:50:47.575Z</time>
      </trkpt>
      <trkpt lat="45.61377" lon="5.50888">
        <ele>369</ele>
        <time>2022-05-17T05:50:48.574Z</time>
      </trkpt>
      <trkpt lat="45.61368" lon="5.50896">
        <ele>368</ele>
        <time>2022-05-17T05:50:49.574Z</time>
      </trkpt>
      <trkpt lat="45.61359" lon="5.50904">
        <ele>367</ele>
        <time>2022-05-17T05:50:50.574Z</time>
      </trkpt>
      <trkpt lat="45.61349" lon="5.50911">
        <ele>367</ele>
        <time>2022-05-17T05:50:51.574Z</time>
      </trkpt>
      <trkpt lat="45.61338" lon="5.50918">
        <ele>366</ele>
        <time>2022-05-17T05:50:52.574Z</time>
      </trkpt>
      <trkpt lat="45.61329" lon="5.50924">
        <ele>366</ele>
        <time>2022-05-17T05:50:53.575Z</time>
      </trkpt>
      <trkpt lat="45.6132" lon="5.5093">
        <ele>365</ele>
        <time>2022-05-17T05:50:54.575Z</time>
      </trkpt>
      <trkpt lat="45.6131" lon="5.50937">
        <ele>365</ele>
        <time>2022-05-17T05:50:55.575Z</time>
      </trkpt>
      <trkpt lat="45.61301" lon="5.50944">
        <ele>364</ele>
        <time>2022-05-17T05:50:56.575Z</time>
      </trkpt>
      <trkpt lat="45.61293" lon="5.50952">
        <ele>364</ele>
        <time>2022-05-17T05:50:57.575Z</time>
      </trkpt>
      <trkpt lat="45.61286" lon="5.50959">
        <ele>363</ele>
        <time>2022-05-17T05:50:58.575Z</time>
      </trkpt>
      <trkpt lat="45.61277" lon="5.50971">
        <ele>363</ele>
        <time>2022-05-17T05:50:59.575Z</time>
      </trkpt>
      <trkpt lat="45.61271" lon="5.50982">
        <ele>363</ele>
        <time>2022-05-17T05:51:00.575Z</time>
      </trkpt>
      <trkpt lat="45.61265" lon="5.50993">
        <ele>362</ele>
        <time>2022-05-17T05:51:01.575Z</time>
      </trkpt>
      <trkpt lat="45.61261" lon="5.51003">
        <ele>362</ele>
        <time>2022-05-17T05:51:02.575Z</time>
      </trkpt>
      <trkpt lat="45.61257" lon="5.51015">
        <ele>363</ele>
        <time>2022-05-17T05:51:03.574Z</time>
      </trkpt>
      <trkpt lat="45.61251" lon="5.51029">
        <ele>363</ele>
        <time>2022-05-17T05:51:04.575Z</time>
      </trkpt>
      <trkpt lat="45.61246" lon="5.51041">
        <ele>363</ele>
        <time>2022-05-17T05:51:05.574Z</time>
      </trkpt>
      <trkpt lat="45.61241" lon="5.51052">
        <ele>363</ele>
        <time>2022-05-17T05:51:06.575Z</time>
      </trkpt>
      <trkpt lat="45.61238" lon="5.51061">
        <ele>363</ele>
        <time>2022-05-17T05:51:07.575Z</time>
      </trkpt>
      <trkpt lat="45.61232" lon="5.51075">
        <ele>363</ele>
        <time>2022-05-17T05:51:08.575Z</time>
      </trkpt>
      <trkpt lat="45.61228" lon="5.51086">
        <ele>362</ele>
        <time>2022-05-17T05:51:09.575Z</time>
      </trkpt>
      <trkpt lat="45.61223" lon="5.51098">
        <ele>362</ele>
        <time>2022-05-17T05:51:10.575Z</time>
      </trkpt>
      <trkpt lat="45.61218" lon="5.51109">
        <ele>362</ele>
        <time>2022-05-17T05:51:11.575Z</time>
      </trkpt>
      <trkpt lat="45.61214" lon="5.5112">
        <ele>362</ele>
        <time>2022-05-17T05:51:12.574Z</time>
      </trkpt>
      <trkpt lat="45.61209" lon="5.51131">
        <ele>361</ele>
        <time>2022-05-17T05:51:13.575Z</time>
      </trkpt>
      <trkpt lat="45.61204" lon="5.51142">
        <ele>361</ele>
        <time>2022-05-17T05:51:14.575Z</time>
      </trkpt>
      <trkpt lat="45.61201" lon="5.51151">
        <ele>361</ele>
        <time>2022-05-17T05:51:15.575Z</time>
      </trkpt>
      <trkpt lat="45.61196" lon="5.51164">
        <ele>362</ele>
        <time>2022-05-17T05:51:16.575Z</time>
      </trkpt>
      <trkpt lat="45.61191" lon="5.51174">
        <ele>362</ele>
        <time>2022-05-17T05:51:17.575Z</time>
      </trkpt>
      <trkpt lat="45.61187" lon="5.51185">
        <ele>362</ele>
        <time>2022-05-17T05:51:18.575Z</time>
      </trkpt>
      <trkpt lat="45.61184" lon="5.51195">
        <ele>361</ele>
        <time>2022-05-17T05:51:19.574Z</time>
      </trkpt>
      <trkpt lat="45.6118" lon="5.51205">
        <ele>361</ele>
        <time>2022-05-17T05:51:20.575Z</time>
      </trkpt>
      <trkpt lat="45.61176" lon="5.51216">
        <ele>361</ele>
        <time>2022-05-17T05:51:21.575Z</time>
      </trkpt>
      <trkpt lat="45.61173" lon="5.51225">
        <ele>361</ele>
        <time>2022-05-17T05:51:22.575Z</time>
      </trkpt>
      <trkpt lat="45.61169" lon="5.51237">
        <ele>361</ele>
        <time>2022-05-17T05:51:23.575Z</time>
      </trkpt>
      <trkpt lat="45.61167" lon="5.51244">
        <ele>360</ele>
        <time>2022-05-17T05:51:24.574Z</time>
      </trkpt>
      <trkpt lat="45.61163" lon="5.51254">
        <ele>360</ele>
        <time>2022-05-17T05:51:25.575Z</time>
      </trkpt>
      <trkpt lat="45.6116" lon="5.51264">
        <ele>361</ele>
        <time>2022-05-17T05:51:26.575Z</time>
      </trkpt>
      <trkpt lat="45.61157" lon="5.51273">
        <ele>361</ele>
        <time>2022-05-17T05:51:27.575Z</time>
      </trkpt>
      <trkpt lat="45.61154" lon="5.51283">
        <ele>362</ele>
        <time>2022-05-17T05:51:28.574Z</time>
      </trkpt>
      <trkpt lat="45.61151" lon="5.51295">
        <ele>362</ele>
        <time>2022-05-17T05:51:29.575Z</time>
      </trkpt>
      <trkpt lat="45.61148" lon="5.51303">
        <ele>363</ele>
        <time>2022-05-17T05:51:30.575Z</time>
      </trkpt>
      <trkpt lat="45.61145" lon="5.51312">
        <ele>363</ele>
        <time>2022-05-17T05:51:31.575Z</time>
      </trkpt>
      <trkpt lat="45.61139" lon="5.51325">
        <ele>364</ele>
        <time>2022-05-17T05:51:32.575Z</time>
      </trkpt>
      <trkpt lat="45.61135" lon="5.51332">
        <ele>364</ele>
        <time>2022-05-17T05:51:33.575Z</time>
      </trkpt>
      <trkpt lat="45.6113" lon="5.51343">
        <ele>364</ele>
        <time>2022-05-17T05:51:34.574Z</time>
      </trkpt>
      <trkpt lat="45.61126" lon="5.51353">
        <ele>364</ele>
        <time>2022-05-17T05:51:35.575Z</time>
      </trkpt>
      <trkpt lat="45.61122" lon="5.51362">
        <ele>365</ele>
        <time>2022-05-17T05:51:36.575Z</time>
      </trkpt>
      <trkpt lat="45.61117" lon="5.51372">
        <ele>365</ele>
        <time>2022-05-17T05:51:37.575Z</time>
      </trkpt>
      <trkpt lat="45.61113" lon="5.5138">
        <ele>364</ele>
        <time>2022-05-17T05:51:38.574Z</time>
      </trkpt>
      <trkpt lat="45.61109" lon="5.5139">
        <ele>364</ele>
        <time>2022-05-17T05:51:39.575Z</time>
      </trkpt>
      <trkpt lat="45.61105" lon="5.51399">
        <ele>364</ele>
        <time>2022-05-17T05:51:40.575Z</time>
      </trkpt>
      <trkpt lat="45.61101" lon="5.51408">
        <ele>364</ele>
        <time>2022-05-17T05:51:41.575Z</time>
      </trkpt>
      <trkpt lat="45.61098" lon="5.51415">
        <ele>364</ele>
        <time>2022-05-17T05:51:42.575Z</time>
      </trkpt>
      <trkpt lat="45.61093" lon="5.51426">
        <ele>364</ele>
        <time>2022-05-17T05:51:43.575Z</time>
      </trkpt>
      <trkpt lat="45.61089" lon="5.51435">
        <ele>364</ele>
        <time>2022-05-17T05:51:44.575Z</time>
      </trkpt>
      <trkpt lat="45.61085" lon="5.51443">
        <ele>364</ele>
        <time>2022-05-17T05:51:45.575Z</time>
      </trkpt>
      <trkpt lat="45.61082" lon="5.51452">
        <ele>364</ele>
        <time>2022-05-17T05:51:46.575Z</time>
      </trkpt>
      <trkpt lat="45.61079" lon="5.51459">
        <ele>364</ele>
        <time>2022-05-17T05:51:47.574Z</time>
      </trkpt>
      <trkpt lat="45.61075" lon="5.5147">
        <ele>363</ele>
        <time>2022-05-17T05:51:48.575Z</time>
      </trkpt>
      <trkpt lat="45.61071" lon="5.51478">
        <ele>363</ele>
        <time>2022-05-17T05:51:49.575Z</time>
      </trkpt>
      <trkpt lat="45.61068" lon="5.51485">
        <ele>363</ele>
        <time>2022-05-17T05:51:50.575Z</time>
      </trkpt>
      <trkpt lat="45.61064" lon="5.51494">
        <ele>363</ele>
        <time>2022-05-17T05:51:51.575Z</time>
      </trkpt>
      <trkpt lat="45.61061" lon="5.51502">
        <ele>362</ele>
        <time>2022-05-17T05:51:52.575Z</time>
      </trkpt>
      <trkpt lat="45.61056" lon="5.51512">
        <ele>362</ele>
        <time>2022-05-17T05:51:53.575Z</time>
      </trkpt>
      <trkpt lat="45.61053" lon="5.5152">
        <ele>362</ele>
        <time>2022-05-17T05:51:54.575Z</time>
      </trkpt>
      <trkpt lat="45.6105" lon="5.51527">
        <ele>362</ele>
        <time>2022-05-17T05:51:55.575Z</time>
      </trkpt>
      <trkpt lat="45.61047" lon="5.51535">
        <ele>362</ele>
        <time>2022-05-17T05:51:56.574Z</time>
      </trkpt>
      <trkpt lat="45.61043" lon="5.51543">
        <ele>362</ele>
        <time>2022-05-17T05:51:57.574Z</time>
      </trkpt>
      <trkpt lat="45.61039" lon="5.51551">
        <ele>362</ele>
        <time>2022-05-17T05:51:58.574Z</time>
      </trkpt>
      <trkpt lat="45.61035" lon="5.51561">
        <ele>361</ele>
        <time>2022-05-17T05:51:59.575Z</time>
      </trkpt>
      <trkpt lat="45.61032" lon="5.51567">
        <ele>361</ele>
        <time>2022-05-17T05:52:00.575Z</time>
      </trkpt>
      <trkpt lat="45.61028" lon="5.51575">
        <ele>361</ele>
        <time>2022-05-17T05:52:01.575Z</time>
      </trkpt>
      <trkpt lat="45.61024" lon="5.51583">
        <ele>361</ele>
        <time>2022-05-17T05:52:02.575Z</time>
      </trkpt>
      <trkpt lat="45.61019" lon="5.51592">
        <ele>362</ele>
        <time>2022-05-17T05:52:03.575Z</time>
      </trkpt>
      <trkpt lat="45.61015" lon="5.516">
        <ele>362</ele>
        <time>2022-05-17T05:52:04.575Z</time>
      </trkpt>
      <trkpt lat="45.61011" lon="5.51605">
        <ele>362</ele>
        <time>2022-05-17T05:52:05.575Z</time>
      </trkpt>
      <trkpt lat="45.61007" lon="5.51613">
        <ele>363</ele>
        <time>2022-05-17T05:52:06.575Z</time>
      </trkpt>
      <trkpt lat="45.61002" lon="5.51622">
        <ele>363</ele>
        <time>2022-05-17T05:52:07.574Z</time>
      </trkpt>
      <trkpt lat="45.60997" lon="5.51629">
        <ele>363</ele>
        <time>2022-05-17T05:52:08.575Z</time>
      </trkpt>
      <trkpt lat="45.60992" lon="5.51637">
        <ele>363</ele>
        <time>2022-05-17T05:52:09.575Z</time>
      </trkpt>
      <trkpt lat="45.60988" lon="5.51643">
        <ele>362</ele>
        <time>2022-05-17T05:52:10.575Z</time>
      </trkpt>
      <trkpt lat="45.60983" lon="5.51651">
        <ele>362</ele>
        <time>2022-05-17T05:52:11.574Z</time>
      </trkpt>
      <trkpt lat="45.60977" lon="5.5166">
        <ele>361</ele>
        <time>2022-05-17T05:52:12.575Z</time>
      </trkpt>
      <trkpt lat="45.60972" lon="5.51668">
        <ele>361</ele>
        <time>2022-05-17T05:52:13.575Z</time>
      </trkpt>
      <trkpt lat="45.60967" lon="5.51677">
        <ele>361</ele>
        <time>2022-05-17T05:52:14.575Z</time>
      </trkpt>
      <trkpt lat="45.60962" lon="5.51684">
        <ele>360</ele>
        <time>2022-05-17T05:52:15.574Z</time>
      </trkpt>
      <trkpt lat="45.60957" lon="5.51693">
        <ele>360</ele>
        <time>2022-05-17T05:52:16.575Z</time>
      </trkpt>
      <trkpt lat="45.60951" lon="5.51702">
        <ele>360</ele>
        <time>2022-05-17T05:52:17.575Z</time>
      </trkpt>
      <trkpt lat="45.60945" lon="5.51712">
        <ele>359</ele>
        <time>2022-05-17T05:52:18.575Z</time>
      </trkpt>
      <trkpt lat="45.60939" lon="5.51723">
        <ele>359</ele>
        <time>2022-05-17T05:52:19.574Z</time>
      </trkpt>
      <trkpt lat="45.60932" lon="5.51733">
        <ele>358</ele>
        <time>2022-05-17T05:52:20.575Z</time>
      </trkpt>
      <trkpt lat="45.60926" lon="5.51744">
        <ele>358</ele>
        <time>2022-05-17T05:52:21.575Z</time>
      </trkpt>
      <trkpt lat="45.60919" lon="5.51755">
        <ele>358</ele>
        <time>2022-05-17T05:52:22.575Z</time>
      </trkpt>
      <trkpt lat="45.6091" lon="5.5177">
        <ele>357</ele>
        <time>2022-05-17T05:52:23.575Z</time>
      </trkpt>
      <trkpt lat="45.60904" lon="5.51779">
        <ele>357</ele>
        <time>2022-05-17T05:52:24.574Z</time>
      </trkpt>
      <trkpt lat="45.60896" lon="5.51791">
        <ele>357</ele>
        <time>2022-05-17T05:52:25.575Z</time>
      </trkpt>
      <trkpt lat="45.60888" lon="5.51804">
        <ele>356</ele>
        <time>2022-05-17T05:52:26.575Z</time>
      </trkpt>
      <trkpt lat="45.6088" lon="5.51817">
        <ele>356</ele>
        <time>2022-05-17T05:52:27.574Z</time>
      </trkpt>
      <trkpt lat="45.60873" lon="5.51829">
        <ele>356</ele>
        <time>2022-05-17T05:52:28.575Z</time>
      </trkpt>
      <trkpt lat="45.60865" lon="5.51841">
        <ele>355</ele>
        <time>2022-05-17T05:52:29.574Z</time>
      </trkpt>
      <trkpt lat="45.60858" lon="5.51853">
        <ele>355</ele>
        <time>2022-05-17T05:52:30.575Z</time>
      </trkpt>
      <trkpt lat="45.6085" lon="5.51864">
        <ele>355</ele>
        <time>2022-05-17T05:52:31.575Z</time>
      </trkpt>
      <trkpt lat="45.60842" lon="5.51876">
        <ele>355</ele>
        <time>2022-05-17T05:52:32.574Z</time>
      </trkpt>
      <trkpt lat="45.60834" lon="5.51887">
        <ele>354</ele>
        <time>2022-05-17T05:52:33.575Z</time>
      </trkpt>
      <trkpt lat="45.60827" lon="5.51898">
        <ele>354</ele>
        <time>2022-05-17T05:52:34.575Z</time>
      </trkpt>
      <trkpt lat="45.6082" lon="5.5191">
        <ele>354</ele>
        <time>2022-05-17T05:52:35.575Z</time>
      </trkpt>
      <trkpt lat="45.60814" lon="5.51922">
        <ele>353</ele>
        <time>2022-05-17T05:52:36.575Z</time>
      </trkpt>
      <trkpt lat="45.60809" lon="5.51936">
        <ele>353</ele>
        <time>2022-05-17T05:52:37.574Z</time>
      </trkpt>
      <trkpt lat="45.60806" lon="5.51945">
        <ele>352</ele>
        <time>2022-05-17T05:52:38.574Z</time>
      </trkpt>
      <trkpt lat="45.60802" lon="5.51958">
        <ele>351</ele>
        <time>2022-05-17T05:52:39.574Z</time>
      </trkpt>
      <trkpt lat="45.60799" lon="5.51971">
        <ele>351</ele>
        <time>2022-05-17T05:52:40.575Z</time>
      </trkpt>
      <trkpt lat="45.60795" lon="5.51986">
        <ele>351</ele>
        <time>2022-05-17T05:52:41.575Z</time>
      </trkpt>
      <trkpt lat="45.60791" lon="5.51998">
        <ele>351</ele>
        <time>2022-05-17T05:52:42.575Z</time>
      </trkpt>
      <trkpt lat="45.60788" lon="5.52011">
        <ele>352</ele>
        <time>2022-05-17T05:52:43.575Z</time>
      </trkpt>
      <trkpt lat="45.60785" lon="5.52024">
        <ele>352</ele>
        <time>2022-05-17T05:52:44.575Z</time>
      </trkpt>
      <trkpt lat="45.60783" lon="5.52037">
        <ele>352</ele>
        <time>2022-05-17T05:52:45.575Z</time>
      </trkpt>
      <trkpt lat="45.6078" lon="5.5205">
        <ele>352</ele>
        <time>2022-05-17T05:52:46.575Z</time>
      </trkpt>
      <trkpt lat="45.60779" lon="5.52063">
        <ele>351</ele>
        <time>2022-05-17T05:52:47.574Z</time>
      </trkpt>
      <trkpt lat="45.60778" lon="5.52076">
        <ele>351</ele>
        <time>2022-05-17T05:52:48.575Z</time>
      </trkpt>
      <trkpt lat="45.60776" lon="5.52089">
        <ele>350</ele>
        <time>2022-05-17T05:52:49.574Z</time>
      </trkpt>
      <trkpt lat="45.60775" lon="5.52103">
        <ele>350</ele>
        <time>2022-05-17T05:52:50.575Z</time>
      </trkpt>
      <trkpt lat="45.60774" lon="5.52116">
        <ele>349</ele>
        <time>2022-05-17T05:52:51.575Z</time>
      </trkpt>
      <trkpt lat="45.60773" lon="5.5213">
        <ele>349</ele>
        <time>2022-05-17T05:52:52.575Z</time>
      </trkpt>
      <trkpt lat="45.60773" lon="5.52143">
        <ele>348</ele>
        <time>2022-05-17T05:52:53.574Z</time>
      </trkpt>
      <trkpt lat="45.60772" lon="5.52155">
        <ele>348</ele>
        <time>2022-05-17T05:52:54.574Z</time>
      </trkpt>
      <trkpt lat="45.60771" lon="5.52167">
        <ele>347</ele>
        <time>2022-05-17T05:52:55.575Z</time>
      </trkpt>
      <trkpt lat="45.60771" lon="5.52179">
        <ele>347</ele>
        <time>2022-05-17T05:52:56.575Z</time>
      </trkpt>
      <trkpt lat="45.6077" lon="5.5219">
        <ele>346</ele>
        <time>2022-05-17T05:52:57.574Z</time>
      </trkpt>
      <trkpt lat="45.60769" lon="5.52201">
        <ele>346</ele>
        <time>2022-05-17T05:52:58.575Z</time>
      </trkpt>
      <trkpt lat="45.60769" lon="5.52212">
        <ele>346</ele>
        <time>2022-05-17T05:52:59.574Z</time>
      </trkpt>
      <trkpt lat="45.60768" lon="5.52223">
        <ele>346</ele>
        <time>2022-05-17T05:53:00.575Z</time>
      </trkpt>
      <trkpt lat="45.60767" lon="5.52235">
        <ele>346</ele>
        <time>2022-05-17T05:53:01.575Z</time>
      </trkpt>
      <trkpt lat="45.60766" lon="5.52246">
        <ele>346</ele>
        <time>2022-05-17T05:53:02.575Z</time>
      </trkpt>
      <trkpt lat="45.60765" lon="5.52259">
        <ele>346</ele>
        <time>2022-05-17T05:53:03.574Z</time>
      </trkpt>
      <trkpt lat="45.60763" lon="5.52271">
        <ele>346</ele>
        <time>2022-05-17T05:53:04.574Z</time>
      </trkpt>
      <trkpt lat="45.60762" lon="5.52284">
        <ele>346</ele>
        <time>2022-05-17T05:53:05.575Z</time>
      </trkpt>
      <trkpt lat="45.6076" lon="5.52298">
        <ele>346</ele>
        <time>2022-05-17T05:53:06.574Z</time>
      </trkpt>
      <trkpt lat="45.60758" lon="5.52312">
        <ele>346</ele>
        <time>2022-05-17T05:53:07.574Z</time>
      </trkpt>
      <trkpt lat="45.60756" lon="5.52327">
        <ele>345</ele>
        <time>2022-05-17T05:53:08.575Z</time>
      </trkpt>
      <trkpt lat="45.60754" lon="5.52342">
        <ele>345</ele>
        <time>2022-05-17T05:53:09.575Z</time>
      </trkpt>
      <trkpt lat="45.60753" lon="5.52358">
        <ele>344</ele>
        <time>2022-05-17T05:53:10.574Z</time>
      </trkpt>
      <trkpt lat="45.60751" lon="5.52374">
        <ele>344</ele>
        <time>2022-05-17T05:53:11.575Z</time>
      </trkpt>
      <trkpt lat="45.6075" lon="5.5239">
        <ele>343</ele>
        <time>2022-05-17T05:53:12.574Z</time>
      </trkpt>
      <trkpt lat="45.60749" lon="5.52406">
        <ele>343</ele>
        <time>2022-05-17T05:53:13.575Z</time>
      </trkpt>
      <trkpt lat="45.60748" lon="5.52421">
        <ele>342</ele>
        <time>2022-05-17T05:53:14.575Z</time>
      </trkpt>
      <trkpt lat="45.60747" lon="5.52437">
        <ele>342</ele>
        <time>2022-05-17T05:53:15.575Z</time>
      </trkpt>
      <trkpt lat="45.60746" lon="5.52451">
        <ele>341</ele>
        <time>2022-05-17T05:53:16.575Z</time>
      </trkpt>
      <trkpt lat="45.60744" lon="5.52466">
        <ele>341</ele>
        <time>2022-05-17T05:53:17.575Z</time>
      </trkpt>
      <trkpt lat="45.60741" lon="5.5248">
        <ele>340</ele>
        <time>2022-05-17T05:53:18.575Z</time>
      </trkpt>
      <trkpt lat="45.60738" lon="5.52494">
        <ele>339</ele>
        <time>2022-05-17T05:53:19.575Z</time>
      </trkpt>
      <trkpt lat="45.60736" lon="5.52507">
        <ele>339</ele>
        <time>2022-05-17T05:53:20.575Z</time>
      </trkpt>
      <trkpt lat="45.60733" lon="5.5252">
        <ele>338</ele>
        <time>2022-05-17T05:53:21.575Z</time>
      </trkpt>
      <trkpt lat="45.6073" lon="5.52532">
        <ele>337</ele>
        <time>2022-05-17T05:53:22.575Z</time>
      </trkpt>
      <trkpt lat="45.60726" lon="5.52543">
        <ele>337</ele>
        <time>2022-05-17T05:53:23.575Z</time>
      </trkpt>
      <trkpt lat="45.60722" lon="5.52554">
        <ele>337</ele>
        <time>2022-05-17T05:53:24.574Z</time>
      </trkpt>
      <trkpt lat="45.60719" lon="5.52564">
        <ele>337</ele>
        <time>2022-05-17T05:53:25.575Z</time>
      </trkpt>
      <trkpt lat="45.60718" lon="5.52573">
        <ele>337</ele>
        <time>2022-05-17T05:53:26.575Z</time>
      </trkpt>
      <trkpt lat="45.60718" lon="5.52582">
        <ele>336</ele>
        <time>2022-05-17T05:53:27.575Z</time>
      </trkpt>
      <trkpt lat="45.6072" lon="5.52589">
        <ele>336</ele>
        <time>2022-05-17T05:53:28.575Z</time>
      </trkpt>
      <trkpt lat="45.60725" lon="5.52594">
        <ele>336</ele>
        <time>2022-05-17T05:53:29.575Z</time>
      </trkpt>
      <trkpt lat="45.60732" lon="5.52598">
        <ele>336</ele>
        <time>2022-05-17T05:53:30.575Z</time>
      </trkpt>
      <trkpt lat="45.6074" lon="5.52602">
        <ele>335</ele>
        <time>2022-05-17T05:53:31.575Z</time>
      </trkpt>
      <trkpt lat="45.60748" lon="5.52605">
        <ele>335</ele>
        <time>2022-05-17T05:53:32.575Z</time>
      </trkpt>
      <trkpt lat="45.60757" lon="5.52608">
        <ele>335</ele>
        <time>2022-05-17T05:53:33.575Z</time>
      </trkpt>
      <trkpt lat="45.60766" lon="5.52612">
        <ele>335</ele>
        <time>2022-05-17T05:53:34.575Z</time>
      </trkpt>
      <trkpt lat="45.60773" lon="5.52615">
        <ele>335</ele>
        <time>2022-05-17T05:53:35.575Z</time>
      </trkpt>
      <trkpt lat="45.60782" lon="5.52619">
        <ele>335</ele>
        <time>2022-05-17T05:53:36.575Z</time>
      </trkpt>
      <trkpt lat="45.6079" lon="5.52623">
        <ele>335</ele>
        <time>2022-05-17T05:53:37.575Z</time>
      </trkpt>
      <trkpt lat="45.60799" lon="5.52629">
        <ele>334</ele>
        <time>2022-05-17T05:53:38.574Z</time>
      </trkpt>
      <trkpt lat="45.60806" lon="5.52633">
        <ele>334</ele>
        <time>2022-05-17T05:53:39.575Z</time>
      </trkpt>
      <trkpt lat="45.60813" lon="5.52638">
        <ele>334</ele>
        <time>2022-05-17T05:53:40.575Z</time>
      </trkpt>
      <trkpt lat="45.60822" lon="5.52644">
        <ele>334</ele>
        <time>2022-05-17T05:53:41.574Z</time>
      </trkpt>
      <trkpt lat="45.60828" lon="5.52649">
        <ele>334</ele>
        <time>2022-05-17T05:53:42.575Z</time>
      </trkpt>
      <trkpt lat="45.60835" lon="5.52655">
        <ele>334</ele>
        <time>2022-05-17T05:53:43.575Z</time>
      </trkpt>
      <trkpt lat="45.60842" lon="5.52662">
        <ele>334</ele>
        <time>2022-05-17T05:53:44.575Z</time>
      </trkpt>
      <trkpt lat="45.60848" lon="5.52669">
        <ele>334</ele>
        <time>2022-05-17T05:53:45.574Z</time>
      </trkpt>
      <trkpt lat="45.60856" lon="5.52678">
        <ele>334</ele>
        <time>2022-05-17T05:53:46.575Z</time>
      </trkpt>
      <trkpt lat="45.60862" lon="5.52686">
        <ele>335</ele>
        <time>2022-05-17T05:53:47.575Z</time>
      </trkpt>
      <trkpt lat="45.60868" lon="5.52694">
        <ele>334</ele>
        <time>2022-05-17T05:53:48.575Z</time>
      </trkpt>
      <trkpt lat="45.60873" lon="5.52701">
        <ele>334</ele>
        <time>2022-05-17T05:53:49.575Z</time>
      </trkpt>
      <trkpt lat="45.60879" lon="5.52709">
        <ele>334</ele>
        <time>2022-05-17T05:53:50.575Z</time>
      </trkpt>
      <trkpt lat="45.60886" lon="5.52719">
        <ele>335</ele>
        <time>2022-05-17T05:53:51.575Z</time>
      </trkpt>
      <trkpt lat="45.60892" lon="5.52727">
        <ele>335</ele>
        <time>2022-05-17T05:53:52.575Z</time>
      </trkpt>
      <trkpt lat="45.60899" lon="5.52736">
        <ele>335</ele>
        <time>2022-05-17T05:53:53.575Z</time>
      </trkpt>
      <trkpt lat="45.60904" lon="5.52745">
        <ele>335</ele>
        <time>2022-05-17T05:53:54.575Z</time>
      </trkpt>
      <trkpt lat="45.60909" lon="5.52751">
        <ele>335</ele>
        <time>2022-05-17T05:53:55.575Z</time>
      </trkpt>
      <trkpt lat="45.60916" lon="5.5276">
        <ele>334</ele>
        <time>2022-05-17T05:53:56.575Z</time>
      </trkpt>
      <trkpt lat="45.60922" lon="5.52764">
        <ele>334</ele>
        <time>2022-05-17T05:53:57.575Z</time>
      </trkpt>
      <trkpt lat="45.60928" lon="5.52765">
        <ele>334</ele>
        <time>2022-05-17T05:53:58.575Z</time>
      </trkpt>
      <trkpt lat="45.60935" lon="5.52765">
        <ele>334</ele>
        <time>2022-05-17T05:53:59.574Z</time>
      </trkpt>
      <trkpt lat="45.60943" lon="5.52763">
        <ele>335</ele>
        <time>2022-05-17T05:54:00.575Z</time>
      </trkpt>
      <trkpt lat="45.60951" lon="5.52759">
        <ele>335</ele>
        <time>2022-05-17T05:54:01.574Z</time>
      </trkpt>
      <trkpt lat="45.60958" lon="5.52755">
        <ele>335</ele>
        <time>2022-05-17T05:54:02.575Z</time>
      </trkpt>
      <trkpt lat="45.60964" lon="5.52753">
        <ele>335</ele>
        <time>2022-05-17T05:54:03.575Z</time>
      </trkpt>
      <trkpt lat="45.6097" lon="5.52751">
        <ele>335</ele>
        <time>2022-05-17T05:54:04.575Z</time>
      </trkpt>
      <trkpt lat="45.60977" lon="5.52748">
        <ele>335</ele>
        <time>2022-05-17T05:54:05.575Z</time>
      </trkpt>
      <trkpt lat="45.60984" lon="5.52746">
        <ele>335</ele>
        <time>2022-05-17T05:54:06.575Z</time>
      </trkpt>
      <trkpt lat="45.60992" lon="5.52744">
        <ele>335</ele>
        <time>2022-05-17T05:54:07.575Z</time>
      </trkpt>
      <trkpt lat="45.60997" lon="5.52744">
        <ele>336</ele>
        <time>2022-05-17T05:54:08.575Z</time>
      </trkpt>
      <trkpt lat="45.61004" lon="5.52743">
        <ele>336</ele>
        <time>2022-05-17T05:54:09.575Z</time>
      </trkpt>
      <trkpt lat="45.6101" lon="5.52743">
        <ele>337</ele>
        <time>2022-05-17T05:54:10.575Z</time>
      </trkpt>
      <trkpt lat="45.61018" lon="5.52744">
        <ele>337</ele>
        <time>2022-05-17T05:54:11.575Z</time>
      </trkpt>
      <trkpt lat="45.61024" lon="5.52745">
        <ele>337</ele>
        <time>2022-05-17T05:54:12.574Z</time>
      </trkpt>
      <trkpt lat="45.61032" lon="5.52747">
        <ele>337</ele>
        <time>2022-05-17T05:54:13.575Z</time>
      </trkpt>
      <trkpt lat="45.61038" lon="5.52749">
        <ele>337</ele>
        <time>2022-05-17T05:54:14.575Z</time>
      </trkpt>
      <trkpt lat="45.61044" lon="5.52753">
        <ele>336</ele>
        <time>2022-05-17T05:54:15.575Z</time>
      </trkpt>
      <trkpt lat="45.6105" lon="5.52758">
        <ele>336</ele>
        <time>2022-05-17T05:54:16.575Z</time>
      </trkpt>
      <trkpt lat="45.61055" lon="5.52765">
        <ele>336</ele>
        <time>2022-05-17T05:54:17.575Z</time>
      </trkpt>
      <trkpt lat="45.61061" lon="5.52773">
        <ele>336</ele>
        <time>2022-05-17T05:54:18.575Z</time>
      </trkpt>
      <trkpt lat="45.61067" lon="5.5278">
        <ele>336</ele>
        <time>2022-05-17T05:54:19.574Z</time>
      </trkpt>
      <trkpt lat="45.61073" lon="5.52788">
        <ele>335</ele>
        <time>2022-05-17T05:54:20.574Z</time>
      </trkpt>
      <trkpt lat="45.61079" lon="5.52796">
        <ele>336</ele>
        <time>2022-05-17T05:54:21.575Z</time>
      </trkpt>
      <trkpt lat="45.61087" lon="5.52802">
        <ele>336</ele>
        <time>2022-05-17T05:54:22.575Z</time>
      </trkpt>
      <trkpt lat="45.61095" lon="5.52808">
        <ele>336</ele>
        <time>2022-05-17T05:54:23.574Z</time>
      </trkpt>
      <trkpt lat="45.61103" lon="5.52814">
        <ele>336</ele>
        <time>2022-05-17T05:54:24.574Z</time>
      </trkpt>
      <trkpt lat="45.61111" lon="5.52819">
        <ele>336</ele>
        <time>2022-05-17T05:54:25.575Z</time>
      </trkpt>
      <trkpt lat="45.61118" lon="5.52825">
        <ele>335</ele>
        <time>2022-05-17T05:54:26.575Z</time>
      </trkpt>
      <trkpt lat="45.61125" lon="5.52831">
        <ele>335</ele>
        <time>2022-05-17T05:54:27.574Z</time>
      </trkpt>
      <trkpt lat="45.61129" lon="5.52838">
        <ele>334</ele>
        <time>2022-05-17T05:54:28.574Z</time>
      </trkpt>
      <trkpt lat="45.61133" lon="5.52845">
        <ele>334</ele>
        <time>2022-05-17T05:54:29.574Z</time>
      </trkpt>
      <trkpt lat="45.61136" lon="5.52857">
        <ele>333</ele>
        <time>2022-05-17T05:54:30.574Z</time>
      </trkpt>
      <trkpt lat="45.61137" lon="5.52872">
        <ele>332</ele>
        <time>2022-05-17T05:54:31.574Z</time>
      </trkpt>
      <trkpt lat="45.61135" lon="5.52885">
        <ele>332</ele>
        <time>2022-05-17T05:54:32.574Z</time>
      </trkpt>
      <trkpt lat="45.61133" lon="5.52896">
        <ele>331</ele>
        <time>2022-05-17T05:54:33.574Z</time>
      </trkpt>
      <trkpt lat="45.6113" lon="5.52909">
        <ele>331</ele>
        <time>2022-05-17T05:54:34.575Z</time>
      </trkpt>
      <trkpt lat="45.61127" lon="5.52925">
        <ele>330</ele>
        <time>2022-05-17T05:54:35.575Z</time>
      </trkpt>
      <trkpt lat="45.61123" lon="5.52938">
        <ele>330</ele>
        <time>2022-05-17T05:54:36.574Z</time>
      </trkpt>
      <trkpt lat="45.61118" lon="5.52952">
        <ele>330</ele>
        <time>2022-05-17T05:54:37.575Z</time>
      </trkpt>
      <trkpt lat="45.61113" lon="5.52966">
        <ele>329</ele>
        <time>2022-05-17T05:54:38.574Z</time>
      </trkpt>
      <trkpt lat="45.61107" lon="5.5298">
        <ele>329</ele>
        <time>2022-05-17T05:54:39.575Z</time>
      </trkpt>
      <trkpt lat="45.61101" lon="5.52995">
        <ele>328</ele>
        <time>2022-05-17T05:54:40.574Z</time>
      </trkpt>
      <trkpt lat="45.61097" lon="5.5301">
        <ele>328</ele>
        <time>2022-05-17T05:54:41.574Z</time>
      </trkpt>
      <trkpt lat="45.61093" lon="5.53025">
        <ele>327</ele>
        <time>2022-05-17T05:54:42.575Z</time>
      </trkpt>
      <trkpt lat="45.61091" lon="5.53042">
        <ele>327</ele>
        <time>2022-05-17T05:54:43.574Z</time>
      </trkpt>
      <trkpt lat="45.61089" lon="5.53057">
        <ele>327</ele>
        <time>2022-05-17T05:54:44.575Z</time>
      </trkpt>
      <trkpt lat="45.61087" lon="5.53073">
        <ele>326</ele>
        <time>2022-05-17T05:54:45.575Z</time>
      </trkpt>
      <trkpt lat="45.61085" lon="5.5309">
        <ele>326</ele>
        <time>2022-05-17T05:54:46.575Z</time>
      </trkpt>
      <trkpt lat="45.61083" lon="5.53106">
        <ele>325</ele>
        <time>2022-05-17T05:54:47.574Z</time>
      </trkpt>
      <trkpt lat="45.61083" lon="5.53122">
        <ele>325</ele>
        <time>2022-05-17T05:54:48.574Z</time>
      </trkpt>
      <trkpt lat="45.61083" lon="5.53138">
        <ele>324</ele>
        <time>2022-05-17T05:54:49.575Z</time>
      </trkpt>
      <trkpt lat="45.61084" lon="5.53154">
        <ele>323</ele>
        <time>2022-05-17T05:54:50.575Z</time>
      </trkpt>
      <trkpt lat="45.61086" lon="5.53168">
        <ele>322</ele>
        <time>2022-05-17T05:54:51.574Z</time>
      </trkpt>
      <trkpt lat="45.61089" lon="5.53182">
        <ele>321</ele>
        <time>2022-05-17T05:54:52.574Z</time>
      </trkpt>
      <trkpt lat="45.61092" lon="5.53194">
        <ele>320</ele>
        <time>2022-05-17T05:54:53.575Z</time>
      </trkpt>
      <trkpt lat="45.61095" lon="5.53206">
        <ele>319</ele>
        <time>2022-05-17T05:54:54.575Z</time>
      </trkpt>
      <trkpt lat="45.61098" lon="5.53216">
        <ele>317</ele>
        <time>2022-05-17T05:54:55.575Z</time>
      </trkpt>
      <trkpt lat="45.611" lon="5.53225">
        <ele>316</ele>
        <time>2022-05-17T05:54:56.575Z</time>
      </trkpt>
      <trkpt lat="45.61101" lon="5.53234">
        <ele>315</ele>
        <time>2022-05-17T05:54:57.574Z</time>
      </trkpt>
      <trkpt lat="45.611" lon="5.5324">
        <ele>314</ele>
        <time>2022-05-17T05:54:58.574Z</time>
      </trkpt>
      <trkpt lat="45.61096" lon="5.53246">
        <ele>313</ele>
        <time>2022-05-17T05:54:59.574Z</time>
      </trkpt>
      <trkpt lat="45.6109" lon="5.53249">
        <ele>313</ele>
        <time>2022-05-17T05:55:00.574Z</time>
      </trkpt>
      <trkpt lat="45.61084" lon="5.53248">
        <ele>312</ele>
        <time>2022-05-17T05:55:01.574Z</time>
      </trkpt>
      <trkpt lat="45.61077" lon="5.53244">
        <ele>312</ele>
        <time>2022-05-17T05:55:02.575Z</time>
      </trkpt>
      <trkpt lat="45.61071" lon="5.53239">
        <ele>311</ele>
        <time>2022-05-17T05:55:03.574Z</time>
      </trkpt>
      <trkpt lat="45.61065" lon="5.5323">
        <ele>311</ele>
        <time>2022-05-17T05:55:04.575Z</time>
      </trkpt>
      <trkpt lat="45.61059" lon="5.53217">
        <ele>310</ele>
        <time>2022-05-17T05:55:05.575Z</time>
      </trkpt>
      <trkpt lat="45.61053" lon="5.53205">
        <ele>310</ele>
        <time>2022-05-17T05:55:06.574Z</time>
      </trkpt>
      <trkpt lat="45.61047" lon="5.53193">
        <ele>309</ele>
        <time>2022-05-17T05:55:07.575Z</time>
      </trkpt>
      <trkpt lat="45.61043" lon="5.53182">
        <ele>309</ele>
        <time>2022-05-17T05:55:08.575Z</time>
      </trkpt>
      <trkpt lat="45.61036" lon="5.53168">
        <ele>308</ele>
        <time>2022-05-17T05:55:09.574Z</time>
      </trkpt>
      <trkpt lat="45.61029" lon="5.53157">
        <ele>308</ele>
        <time>2022-05-17T05:55:10.575Z</time>
      </trkpt>
      <trkpt lat="45.61023" lon="5.53146">
        <ele>308</ele>
        <time>2022-05-17T05:55:11.575Z</time>
      </trkpt>
      <trkpt lat="45.61016" lon="5.53136">
        <ele>307</ele>
        <time>2022-05-17T05:55:12.575Z</time>
      </trkpt>
      <trkpt lat="45.61008" lon="5.53131">
        <ele>307</ele>
        <time>2022-05-17T05:55:13.575Z</time>
      </trkpt>
      <trkpt lat="45.60997" lon="5.53126">
        <ele>306</ele>
        <time>2022-05-17T05:55:14.575Z</time>
      </trkpt>
      <trkpt lat="45.60987" lon="5.53125">
        <ele>306</ele>
        <time>2022-05-17T05:55:15.575Z</time>
      </trkpt>
      <trkpt lat="45.60976" lon="5.53125">
        <ele>305</ele>
        <time>2022-05-17T05:55:16.575Z</time>
      </trkpt>
      <trkpt lat="45.60965" lon="5.53127">
        <ele>305</ele>
        <time>2022-05-17T05:55:17.575Z</time>
      </trkpt>
      <trkpt lat="45.60954" lon="5.53129">
        <ele>304</ele>
        <time>2022-05-17T05:55:18.575Z</time>
      </trkpt>
      <trkpt lat="45.60943" lon="5.53134">
        <ele>304</ele>
        <time>2022-05-17T05:55:19.575Z</time>
      </trkpt>
      <trkpt lat="45.60931" lon="5.53143">
        <ele>303</ele>
        <time>2022-05-17T05:55:20.574Z</time>
      </trkpt>
      <trkpt lat="45.60921" lon="5.53152">
        <ele>303</ele>
        <time>2022-05-17T05:55:21.574Z</time>
      </trkpt>
      <trkpt lat="45.60911" lon="5.53162">
        <ele>302</ele>
        <time>2022-05-17T05:55:22.575Z</time>
      </trkpt>
      <trkpt lat="45.60902" lon="5.53173">
        <ele>302</ele>
        <time>2022-05-17T05:55:23.575Z</time>
      </trkpt>
      <trkpt lat="45.60896" lon="5.53183">
        <ele>302</ele>
        <time>2022-05-17T05:55:24.575Z</time>
      </trkpt>
      <trkpt lat="45.60887" lon="5.53199">
        <ele>302</ele>
        <time>2022-05-17T05:55:25.574Z</time>
      </trkpt>
      <trkpt lat="45.60882" lon="5.53213">
        <ele>302</ele>
        <time>2022-05-17T05:55:26.575Z</time>
      </trkpt>
      <trkpt lat="45.60877" lon="5.53227">
        <ele>302</ele>
        <time>2022-05-17T05:55:27.575Z</time>
      </trkpt>
      <trkpt lat="45.60872" lon="5.53241">
        <ele>302</ele>
        <time>2022-05-17T05:55:28.575Z</time>
      </trkpt>
      <trkpt lat="45.60868" lon="5.53253">
        <ele>303</ele>
        <time>2022-05-17T05:55:29.575Z</time>
      </trkpt>
      <trkpt lat="45.60862" lon="5.53269">
        <ele>302</ele>
        <time>2022-05-17T05:55:30.575Z</time>
      </trkpt>
      <trkpt lat="45.60858" lon="5.5328">
        <ele>302</ele>
        <time>2022-05-17T05:55:31.575Z</time>
      </trkpt>
      <trkpt lat="45.60852" lon="5.53296">
        <ele>301</ele>
        <time>2022-05-17T05:55:32.575Z</time>
      </trkpt>
      <trkpt lat="45.60847" lon="5.53309">
        <ele>301</ele>
        <time>2022-05-17T05:55:33.575Z</time>
      </trkpt>
      <trkpt lat="45.60843" lon="5.5332">
        <ele>300</ele>
        <time>2022-05-17T05:55:34.575Z</time>
      </trkpt>
      <trkpt lat="45.6084" lon="5.53333">
        <ele>298</ele>
        <time>2022-05-17T05:55:35.575Z</time>
      </trkpt>
      <trkpt lat="45.60839" lon="5.53348">
        <ele>297</ele>
        <time>2022-05-17T05:55:36.575Z</time>
      </trkpt>
      <trkpt lat="45.60841" lon="5.5336">
        <ele>296</ele>
        <time>2022-05-17T05:55:37.575Z</time>
      </trkpt>
      <trkpt lat="45.60845" lon="5.53372">
        <ele>295</ele>
        <time>2022-05-17T05:55:38.575Z</time>
      </trkpt>
      <trkpt lat="45.60849" lon="5.53381">
        <ele>294</ele>
        <time>2022-05-17T05:55:39.574Z</time>
      </trkpt>
      <trkpt lat="45.60854" lon="5.53393">
        <ele>292</ele>
        <time>2022-05-17T05:55:40.575Z</time>
      </trkpt>
      <trkpt lat="45.60859" lon="5.53404">
        <ele>291</ele>
        <time>2022-05-17T05:55:41.574Z</time>
      </trkpt>
      <trkpt lat="45.60866" lon="5.53418">
        <ele>290</ele>
        <time>2022-05-17T05:55:42.575Z</time>
      </trkpt>
      <trkpt lat="45.60871" lon="5.53429">
        <ele>289</ele>
        <time>2022-05-17T05:55:43.575Z</time>
      </trkpt>
      <trkpt lat="45.60876" lon="5.53438">
        <ele>288</ele>
        <time>2022-05-17T05:55:44.575Z</time>
      </trkpt>
      <trkpt lat="45.60881" lon="5.5345">
        <ele>287</ele>
        <time>2022-05-17T05:55:45.574Z</time>
      </trkpt>
      <trkpt lat="45.60887" lon="5.53462">
        <ele>287</ele>
        <time>2022-05-17T05:55:46.575Z</time>
      </trkpt>
      <trkpt lat="45.60892" lon="5.53475">
        <ele>286</ele>
        <time>2022-05-17T05:55:47.575Z</time>
      </trkpt>
      <trkpt lat="45.60898" lon="5.5349">
        <ele>285</ele>
        <time>2022-05-17T05:55:48.575Z</time>
      </trkpt>
      <trkpt lat="45.60901" lon="5.535">
        <ele>284</ele>
        <time>2022-05-17T05:55:49.575Z</time>
      </trkpt>
      <trkpt lat="45.60906" lon="5.53513">
        <ele>284</ele>
        <time>2022-05-17T05:55:50.575Z</time>
      </trkpt>
      <trkpt lat="45.6091" lon="5.53525">
        <ele>283</ele>
        <time>2022-05-17T05:55:51.574Z</time>
      </trkpt>
      <trkpt lat="45.60914" lon="5.53538">
        <ele>283</ele>
        <time>2022-05-17T05:55:52.575Z</time>
      </trkpt>
      <trkpt lat="45.60918" lon="5.53551">
        <ele>282</ele>
        <time>2022-05-17T05:55:53.575Z</time>
      </trkpt>
      <trkpt lat="45.60923" lon="5.53566">
        <ele>282</ele>
        <time>2022-05-17T05:55:54.575Z</time>
      </trkpt>
      <trkpt lat="45.60926" lon="5.53576">
        <ele>282</ele>
        <time>2022-05-17T05:55:55.575Z</time>
      </trkpt>
      <trkpt lat="45.6093" lon="5.53588">
        <ele>282</ele>
        <time>2022-05-17T05:55:56.575Z</time>
      </trkpt>
      <trkpt lat="45.60935" lon="5.53601">
        <ele>281</ele>
        <time>2022-05-17T05:55:57.574Z</time>
      </trkpt>
      <trkpt lat="45.60939" lon="5.53615">
        <ele>281</ele>
        <time>2022-05-17T05:55:58.575Z</time>
      </trkpt>
      <trkpt lat="45.60943" lon="5.53626">
        <ele>281</ele>
        <time>2022-05-17T05:55:59.575Z</time>
      </trkpt>
      <trkpt lat="45.60946" lon="5.53637">
        <ele>280</ele>
        <time>2022-05-17T05:56:00.575Z</time>
      </trkpt>
      <trkpt lat="45.6095" lon="5.53645">
        <ele>280</ele>
        <time>2022-05-17T05:56:01.575Z</time>
      </trkpt>
      <trkpt lat="45.60953" lon="5.53652">
        <ele>279</ele>
        <time>2022-05-17T05:56:02.575Z</time>
      </trkpt>
      <trkpt lat="45.60956" lon="5.53658">
        <ele>279</ele>
        <time>2022-05-17T05:56:03.575Z</time>
      </trkpt>
      <trkpt lat="45.60959" lon="5.53662">
        <ele>278</ele>
        <time>2022-05-17T05:56:04.575Z</time>
      </trkpt>
      <trkpt lat="45.60961" lon="5.53665">
        <ele>278</ele>
        <time>2022-05-17T05:56:05.575Z</time>
      </trkpt>
      <trkpt lat="45.60961" lon="5.53667">
        <ele>277</ele>
        <time>2022-05-17T05:56:06.575Z</time>
      </trkpt>
      <trkpt lat="45.60962" lon="5.53669">
        <ele>277</ele>
        <time>2022-05-17T05:56:07.575Z</time>
      </trkpt>
      <trkpt lat="45.60963" lon="5.53669">
        <ele>277</ele>
        <time>2022-05-17T05:56:08.575Z</time>
      </trkpt>
      <trkpt lat="45.60963" lon="5.5367">
        <ele>277</ele>
        <time>2022-05-17T05:56:09.575Z</time>
      </trkpt>
      <trkpt lat="45.60963" lon="5.5367">
        <ele>277</ele>
        <time>2022-05-17T05:56:10.575Z</time>
      </trkpt>
      <trkpt lat="45.60962" lon="5.53671">
        <ele>277</ele>
        <time>2022-05-17T05:56:11.575Z</time>
      </trkpt>
      <trkpt lat="45.60964" lon="5.53672">
        <ele>280</ele>
        <time>2022-05-17T05:56:17.685Z</time>
      </trkpt>
      <trkpt lat="45.60964" lon="5.53674">
        <ele>280</ele>
        <time>2022-05-17T05:56:18.684Z</time>
      </trkpt>
      <trkpt lat="45.60965" lon="5.53677">
        <ele>281</ele>
        <time>2022-05-17T05:56:19.684Z</time>
      </trkpt>
      <trkpt lat="45.60965" lon="5.53681">
        <ele>280</ele>
        <time>2022-05-17T05:56:20.684Z</time>
      </trkpt>
      <trkpt lat="45.60965" lon="5.53685">
        <ele>280</ele>
        <time>2022-05-17T05:56:21.684Z</time>
      </trkpt>
      <trkpt lat="45.60966" lon="5.53691">
        <ele>280</ele>
        <time>2022-05-17T05:56:22.685Z</time>
      </trkpt>
      <trkpt lat="45.60967" lon="5.53698">
        <ele>280</ele>
        <time>2022-05-17T05:56:23.685Z</time>
      </trkpt>
      <trkpt lat="45.6097" lon="5.53707">
        <ele>280</ele>
        <time>2022-05-17T05:56:24.685Z</time>
      </trkpt>
      <trkpt lat="45.60972" lon="5.53713">
        <ele>280</ele>
        <time>2022-05-17T05:56:25.685Z</time>
      </trkpt>
      <trkpt lat="45.60972" lon="5.53721">
        <ele>279</ele>
        <time>2022-05-17T05:56:26.685Z</time>
      </trkpt>
      <trkpt lat="45.60972" lon="5.53729">
        <ele>279</ele>
        <time>2022-05-17T05:56:27.684Z</time>
      </trkpt>
      <trkpt lat="45.60973" lon="5.53737">
        <ele>278</ele>
        <time>2022-05-17T05:56:28.685Z</time>
      </trkpt>
      <trkpt lat="45.60974" lon="5.53745">
        <ele>278</ele>
        <time>2022-05-17T05:56:29.684Z</time>
      </trkpt>
      <trkpt lat="45.60976" lon="5.53752">
        <ele>278</ele>
        <time>2022-05-17T05:56:30.685Z</time>
      </trkpt>
      <trkpt lat="45.60979" lon="5.5376">
        <ele>278</ele>
        <time>2022-05-17T05:56:31.685Z</time>
      </trkpt>
      <trkpt lat="45.60981" lon="5.53767">
        <ele>278</ele>
        <time>2022-05-17T05:56:32.684Z</time>
      </trkpt>
      <trkpt lat="45.60984" lon="5.53776">
        <ele>277</ele>
        <time>2022-05-17T05:56:33.685Z</time>
      </trkpt>
      <trkpt lat="45.60986" lon="5.53785">
        <ele>277</ele>
        <time>2022-05-17T05:56:34.685Z</time>
      </trkpt>
      <trkpt lat="45.60989" lon="5.53795">
        <ele>277</ele>
        <time>2022-05-17T05:56:35.685Z</time>
      </trkpt>
      <trkpt lat="45.60991" lon="5.53805">
        <ele>277</ele>
        <time>2022-05-17T05:56:36.685Z</time>
      </trkpt>
      <trkpt lat="45.60993" lon="5.53816">
        <ele>277</ele>
        <time>2022-05-17T05:56:37.685Z</time>
      </trkpt>
      <trkpt lat="45.60996" lon="5.53827">
        <ele>277</ele>
        <time>2022-05-17T05:56:38.685Z</time>
      </trkpt>
      <trkpt lat="45.60997" lon="5.53839">
        <ele>277</ele>
        <time>2022-05-17T05:56:39.685Z</time>
      </trkpt>
      <trkpt lat="45.61" lon="5.5385">
        <ele>277</ele>
        <time>2022-05-17T05:56:40.685Z</time>
      </trkpt>
      <trkpt lat="45.61002" lon="5.53861">
        <ele>276</ele>
        <time>2022-05-17T05:56:41.685Z</time>
      </trkpt>
      <trkpt lat="45.61003" lon="5.53872">
        <ele>276</ele>
        <time>2022-05-17T05:56:42.685Z</time>
      </trkpt>
      <trkpt lat="45.61005" lon="5.53886">
        <ele>276</ele>
        <time>2022-05-17T05:56:43.684Z</time>
      </trkpt>
      <trkpt lat="45.61006" lon="5.53895">
        <ele>276</ele>
        <time>2022-05-17T05:56:44.685Z</time>
      </trkpt>
      <trkpt lat="45.61008" lon="5.53906">
        <ele>276</ele>
        <time>2022-05-17T05:56:45.685Z</time>
      </trkpt>
      <trkpt lat="45.61009" lon="5.53918">
        <ele>276</ele>
        <time>2022-05-17T05:56:46.685Z</time>
      </trkpt>
      <trkpt lat="45.6101" lon="5.5393">
        <ele>276</ele>
        <time>2022-05-17T05:56:47.685Z</time>
      </trkpt>
      <trkpt lat="45.61012" lon="5.53942">
        <ele>276</ele>
        <time>2022-05-17T05:56:48.684Z</time>
      </trkpt>
      <trkpt lat="45.61013" lon="5.53954">
        <ele>276</ele>
        <time>2022-05-17T05:56:49.685Z</time>
      </trkpt>
      <trkpt lat="45.61013" lon="5.53965">
        <ele>276</ele>
        <time>2022-05-17T05:56:50.685Z</time>
      </trkpt>
      <trkpt lat="45.61013" lon="5.53977">
        <ele>276</ele>
        <time>2022-05-17T05:56:51.684Z</time>
      </trkpt>
      <trkpt lat="45.61014" lon="5.53989">
        <ele>276</ele>
        <time>2022-05-17T05:56:52.685Z</time>
      </trkpt>
      <trkpt lat="45.61015" lon="5.54001">
        <ele>276</ele>
        <time>2022-05-17T05:56:53.684Z</time>
      </trkpt>
      <trkpt lat="45.61016" lon="5.54012">
        <ele>276</ele>
        <time>2022-05-17T05:56:54.685Z</time>
      </trkpt>
      <trkpt lat="45.61018" lon="5.54026">
        <ele>275</ele>
        <time>2022-05-17T05:56:55.685Z</time>
      </trkpt>
      <trkpt lat="45.61019" lon="5.54036">
        <ele>275</ele>
        <time>2022-05-17T05:56:56.684Z</time>
      </trkpt>
      <trkpt lat="45.61021" lon="5.54047">
        <ele>275</ele>
        <time>2022-05-17T05:56:57.685Z</time>
      </trkpt>
      <trkpt lat="45.61022" lon="5.5406">
        <ele>275</ele>
        <time>2022-05-17T05:56:58.685Z</time>
      </trkpt>
      <trkpt lat="45.61024" lon="5.54071">
        <ele>274</ele>
        <time>2022-05-17T05:56:59.684Z</time>
      </trkpt>
      <trkpt lat="45.61026" lon="5.54084">
        <ele>274</ele>
        <time>2022-05-17T05:57:00.684Z</time>
      </trkpt>
      <trkpt lat="45.61027" lon="5.54096">
        <ele>274</ele>
        <time>2022-05-17T05:57:01.685Z</time>
      </trkpt>
      <trkpt lat="45.61028" lon="5.54108">
        <ele>273</ele>
        <time>2022-05-17T05:57:02.685Z</time>
      </trkpt>
      <trkpt lat="45.61028" lon="5.5412">
        <ele>273</ele>
        <time>2022-05-17T05:57:03.685Z</time>
      </trkpt>
      <trkpt lat="45.61028" lon="5.54131">
        <ele>273</ele>
        <time>2022-05-17T05:57:04.685Z</time>
      </trkpt>
      <trkpt lat="45.61026" lon="5.54144">
        <ele>273</ele>
        <time>2022-05-17T05:57:05.684Z</time>
      </trkpt>
      <trkpt lat="45.61023" lon="5.54151">
        <ele>273</ele>
        <time>2022-05-17T05:57:06.685Z</time>
      </trkpt>
      <trkpt lat="45.6102" lon="5.54161">
        <ele>274</ele>
        <time>2022-05-17T05:57:07.685Z</time>
      </trkpt>
      <trkpt lat="45.61016" lon="5.54172">
        <ele>274</ele>
        <time>2022-05-17T05:57:08.685Z</time>
      </trkpt>
      <trkpt lat="45.61013" lon="5.54179">
        <ele>274</ele>
        <time>2022-05-17T05:57:09.685Z</time>
      </trkpt>
      <trkpt lat="45.61009" lon="5.5419">
        <ele>274</ele>
        <time>2022-05-17T05:57:10.684Z</time>
      </trkpt>
      <trkpt lat="45.61006" lon="5.54203">
        <ele>274</ele>
        <time>2022-05-17T05:57:11.685Z</time>
      </trkpt>
      <trkpt lat="45.61003" lon="5.54214">
        <ele>274</ele>
        <time>2022-05-17T05:57:12.684Z</time>
      </trkpt>
      <trkpt lat="45.61001" lon="5.54225">
        <ele>274</ele>
        <time>2022-05-17T05:57:13.684Z</time>
      </trkpt>
      <trkpt lat="45.60999" lon="5.54238">
        <ele>274</ele>
        <time>2022-05-17T05:57:14.684Z</time>
      </trkpt>
      <trkpt lat="45.60996" lon="5.5425">
        <ele>274</ele>
        <time>2022-05-17T05:57:15.685Z</time>
      </trkpt>
      <trkpt lat="45.60994" lon="5.5426">
        <ele>275</ele>
        <time>2022-05-17T05:57:16.685Z</time>
      </trkpt>
      <trkpt lat="45.60992" lon="5.54272">
        <ele>275</ele>
        <time>2022-05-17T05:57:17.685Z</time>
      </trkpt>
      <trkpt lat="45.6099" lon="5.54285">
        <ele>275</ele>
        <time>2022-05-17T05:57:18.685Z</time>
      </trkpt>
      <trkpt lat="45.60987" lon="5.54298">
        <ele>275</ele>
        <time>2022-05-17T05:57:19.685Z</time>
      </trkpt>
      <trkpt lat="45.60984" lon="5.54312">
        <ele>275</ele>
        <time>2022-05-17T05:57:20.685Z</time>
      </trkpt>
      <trkpt lat="45.60981" lon="5.54327">
        <ele>275</ele>
        <time>2022-05-17T05:57:21.685Z</time>
      </trkpt>
      <trkpt lat="45.6098" lon="5.5434">
        <ele>274</ele>
        <time>2022-05-17T05:57:22.685Z</time>
      </trkpt>
      <trkpt lat="45.60981" lon="5.54351">
        <ele>274</ele>
        <time>2022-05-17T05:57:23.685Z</time>
      </trkpt>
      <trkpt lat="45.60983" lon="5.54366">
        <ele>274</ele>
        <time>2022-05-17T05:57:24.685Z</time>
      </trkpt>
      <trkpt lat="45.60985" lon="5.5438">
        <ele>274</ele>
        <time>2022-05-17T05:57:25.684Z</time>
      </trkpt>
      <trkpt lat="45.60988" lon="5.54391">
        <ele>273</ele>
        <time>2022-05-17T05:57:26.685Z</time>
      </trkpt>
      <trkpt lat="45.60991" lon="5.54404">
        <ele>273</ele>
        <time>2022-05-17T05:57:27.685Z</time>
      </trkpt>
      <trkpt lat="45.60994" lon="5.5442">
        <ele>273</ele>
        <time>2022-05-17T05:57:28.684Z</time>
      </trkpt>
      <trkpt lat="45.60996" lon="5.54434">
        <ele>272</ele>
        <time>2022-05-17T05:57:29.685Z</time>
      </trkpt>
      <trkpt lat="45.60997" lon="5.54449">
        <ele>272</ele>
        <time>2022-05-17T05:57:30.685Z</time>
      </trkpt>
      <trkpt lat="45.60998" lon="5.5446">
        <ele>272</ele>
        <time>2022-05-17T05:57:31.685Z</time>
      </trkpt>
      <trkpt lat="45.61" lon="5.54473">
        <ele>272</ele>
        <time>2022-05-17T05:57:32.685Z</time>
      </trkpt>
      <trkpt lat="45.61003" lon="5.54488">
        <ele>272</ele>
        <time>2022-05-17T05:57:33.684Z</time>
      </trkpt>
      <trkpt lat="45.61005" lon="5.54502">
        <ele>272</ele>
        <time>2022-05-17T05:57:34.685Z</time>
      </trkpt>
      <trkpt lat="45.61007" lon="5.54514">
        <ele>272</ele>
        <time>2022-05-17T05:57:35.685Z</time>
      </trkpt>
      <trkpt lat="45.61008" lon="5.54527">
        <ele>272</ele>
        <time>2022-05-17T05:57:36.685Z</time>
      </trkpt>
      <trkpt lat="45.6101" lon="5.54538">
        <ele>272</ele>
        <time>2022-05-17T05:57:37.685Z</time>
      </trkpt>
      <trkpt lat="45.61012" lon="5.54555">
        <ele>272</ele>
        <time>2022-05-17T05:57:38.685Z</time>
      </trkpt>
      <trkpt lat="45.61014" lon="5.54568">
        <ele>272</ele>
        <time>2022-05-17T05:57:39.685Z</time>
      </trkpt>
      <trkpt lat="45.61015" lon="5.54582">
        <ele>272</ele>
        <time>2022-05-17T05:57:40.685Z</time>
      </trkpt>
      <trkpt lat="45.61017" lon="5.54595">
        <ele>272</ele>
        <time>2022-05-17T05:57:41.685Z</time>
      </trkpt>
      <trkpt lat="45.6102" lon="5.54608">
        <ele>272</ele>
        <time>2022-05-17T05:57:42.685Z</time>
      </trkpt>
      <trkpt lat="45.61022" lon="5.54621">
        <ele>272</ele>
        <time>2022-05-17T05:57:43.685Z</time>
      </trkpt>
      <trkpt lat="45.61023" lon="5.54634">
        <ele>272</ele>
        <time>2022-05-17T05:57:44.685Z</time>
      </trkpt>
      <trkpt lat="45.61025" lon="5.54645">
        <ele>272</ele>
        <time>2022-05-17T05:57:45.684Z</time>
      </trkpt>
      <trkpt lat="45.61025" lon="5.54655">
        <ele>272</ele>
        <time>2022-05-17T05:57:46.685Z</time>
      </trkpt>
      <trkpt lat="45.61025" lon="5.54664">
        <ele>271</ele>
        <time>2022-05-17T05:57:47.685Z</time>
      </trkpt>
      <trkpt lat="45.61024" lon="5.54674">
        <ele>271</ele>
        <time>2022-05-17T05:57:48.685Z</time>
      </trkpt>
      <trkpt lat="45.61021" lon="5.54684">
        <ele>271</ele>
        <time>2022-05-17T05:57:49.685Z</time>
      </trkpt>
      <trkpt lat="45.61018" lon="5.54692">
        <ele>270</ele>
        <time>2022-05-17T05:57:50.685Z</time>
      </trkpt>
      <trkpt lat="45.61013" lon="5.54702">
        <ele>270</ele>
        <time>2022-05-17T05:57:51.684Z</time>
      </trkpt>
      <trkpt lat="45.61008" lon="5.54712">
        <ele>270</ele>
        <time>2022-05-17T05:57:52.685Z</time>
      </trkpt>
      <trkpt lat="45.61002" lon="5.54722">
        <ele>269</ele>
        <time>2022-05-17T05:57:53.685Z</time>
      </trkpt>
      <trkpt lat="45.60996" lon="5.54732">
        <ele>269</ele>
        <time>2022-05-17T05:57:54.685Z</time>
      </trkpt>
      <trkpt lat="45.6099" lon="5.54741">
        <ele>269</ele>
        <time>2022-05-17T05:57:55.684Z</time>
      </trkpt>
      <trkpt lat="45.60982" lon="5.54753">
        <ele>269</ele>
        <time>2022-05-17T05:57:56.684Z</time>
      </trkpt>
      <trkpt lat="45.60977" lon="5.54761">
        <ele>269</ele>
        <time>2022-05-17T05:57:57.684Z</time>
      </trkpt>
      <trkpt lat="45.6097" lon="5.5477">
        <ele>269</ele>
        <time>2022-05-17T05:57:58.685Z</time>
      </trkpt>
      <trkpt lat="45.60963" lon="5.54779">
        <ele>269</ele>
        <time>2022-05-17T05:57:59.685Z</time>
      </trkpt>
      <trkpt lat="45.60955" lon="5.5479">
        <ele>269</ele>
        <time>2022-05-17T05:58:00.685Z</time>
      </trkpt>
      <trkpt lat="45.60948" lon="5.54798">
        <ele>269</ele>
        <time>2022-05-17T05:58:01.685Z</time>
      </trkpt>
      <trkpt lat="45.60943" lon="5.54804">
        <ele>269</ele>
        <time>2022-05-17T05:58:02.685Z</time>
      </trkpt>
      <trkpt lat="45.60937" lon="5.54811">
        <ele>269</ele>
        <time>2022-05-17T05:58:03.684Z</time>
      </trkpt>
      <trkpt lat="45.60931" lon="5.54818">
        <ele>269</ele>
        <time>2022-05-17T05:58:04.685Z</time>
      </trkpt>
      <trkpt lat="45.60928" lon="5.54821">
        <ele>269</ele>
        <time>2022-05-17T05:58:05.685Z</time>
      </trkpt>
      <trkpt lat="45.60925" lon="5.54826">
        <ele>270</ele>
        <time>2022-05-17T05:58:06.685Z</time>
      </trkpt>
      <trkpt lat="45.6092" lon="5.54831">
        <ele>270</ele>
        <time>2022-05-17T05:58:07.685Z</time>
      </trkpt>
      <trkpt lat="45.60916" lon="5.54837">
        <ele>269</ele>
        <time>2022-05-17T05:58:08.685Z</time>
      </trkpt>
      <trkpt lat="45.60913" lon="5.54844">
        <ele>269</ele>
        <time>2022-05-17T05:58:09.685Z</time>
      </trkpt>
      <trkpt lat="45.6091" lon="5.54852">
        <ele>268</ele>
        <time>2022-05-17T05:58:10.685Z</time>
      </trkpt>
      <trkpt lat="45.60908" lon="5.54857">
        <ele>268</ele>
        <time>2022-05-17T05:58:11.685Z</time>
      </trkpt>
      <trkpt lat="45.60906" lon="5.54864">
        <ele>267</ele>
        <time>2022-05-17T05:58:12.685Z</time>
      </trkpt>
      <trkpt lat="45.60904" lon="5.54871">
        <ele>267</ele>
        <time>2022-05-17T05:58:13.685Z</time>
      </trkpt>
      <trkpt lat="45.60902" lon="5.54878">
        <ele>267</ele>
        <time>2022-05-17T05:58:14.685Z</time>
      </trkpt>
      <trkpt lat="45.60901" lon="5.54884">
        <ele>267</ele>
        <time>2022-05-17T05:58:15.685Z</time>
      </trkpt>
      <trkpt lat="45.60899" lon="5.5489">
        <ele>267</ele>
        <time>2022-05-17T05:58:16.685Z</time>
      </trkpt>
      <trkpt lat="45.60897" lon="5.54897">
        <ele>268</ele>
        <time>2022-05-17T05:58:17.685Z</time>
      </trkpt>
      <trkpt lat="45.60896" lon="5.54903">
        <ele>268</ele>
        <time>2022-05-17T05:58:18.684Z</time>
      </trkpt>
      <trkpt lat="45.60893" lon="5.5491">
        <ele>268</ele>
        <time>2022-05-17T05:58:19.685Z</time>
      </trkpt>
      <trkpt lat="45.60892" lon="5.54915">
        <ele>268</ele>
        <time>2022-05-17T05:58:20.685Z</time>
      </trkpt>
      <trkpt lat="45.60889" lon="5.54921">
        <ele>269</ele>
        <time>2022-05-17T05:58:21.685Z</time>
      </trkpt>
      <trkpt lat="45.60887" lon="5.54926">
        <ele>270</ele>
        <time>2022-05-17T05:58:22.685Z</time>
      </trkpt>
      <trkpt lat="45.60885" lon="5.54931">
        <ele>270</ele>
        <time>2022-05-17T05:58:23.684Z</time>
      </trkpt>
      <trkpt lat="45.60883" lon="5.54936">
        <ele>271</ele>
        <time>2022-05-17T05:58:24.685Z</time>
      </trkpt>
      <trkpt lat="45.6088" lon="5.54941">
        <ele>271</ele>
        <time>2022-05-17T05:58:25.685Z</time>
      </trkpt>
      <trkpt lat="45.60877" lon="5.54946">
        <ele>272</ele>
        <time>2022-05-17T05:58:26.685Z</time>
      </trkpt>
      <trkpt lat="45.60876" lon="5.54949">
        <ele>273</ele>
        <time>2022-05-17T05:58:27.685Z</time>
      </trkpt>
      <trkpt lat="45.60873" lon="5.54952">
        <ele>273</ele>
        <time>2022-05-17T05:58:28.685Z</time>
      </trkpt>
      <trkpt lat="45.60871" lon="5.54957">
        <ele>274</ele>
        <time>2022-05-17T05:58:29.685Z</time>
      </trkpt>
      <trkpt lat="45.60868" lon="5.54961">
        <ele>274</ele>
        <time>2022-05-17T05:58:30.685Z</time>
      </trkpt>
      <trkpt lat="45.60864" lon="5.54965">
        <ele>275</ele>
        <time>2022-05-17T05:58:31.685Z</time>
      </trkpt>
      <trkpt lat="45.60861" lon="5.54968">
        <ele>275</ele>
        <time>2022-05-17T05:58:32.684Z</time>
      </trkpt>
      <trkpt lat="45.60858" lon="5.54972">
        <ele>276</ele>
        <time>2022-05-17T05:58:33.685Z</time>
      </trkpt>
      <trkpt lat="45.60855" lon="5.54976">
        <ele>277</ele>
        <time>2022-05-17T05:58:34.685Z</time>
      </trkpt>
      <trkpt lat="45.60852" lon="5.5498">
        <ele>277</ele>
        <time>2022-05-17T05:58:35.685Z</time>
      </trkpt>
      <trkpt lat="45.60849" lon="5.54984">
        <ele>277</ele>
        <time>2022-05-17T05:58:36.685Z</time>
      </trkpt>
      <trkpt lat="45.60846" lon="5.54989">
        <ele>277</ele>
        <time>2022-05-17T05:58:37.684Z</time>
      </trkpt>
      <trkpt lat="45.60843" lon="5.54993">
        <ele>277</ele>
        <time>2022-05-17T05:58:38.685Z</time>
      </trkpt>
      <trkpt lat="45.60839" lon="5.54997">
        <ele>277</ele>
        <time>2022-05-17T05:58:39.685Z</time>
      </trkpt>
      <trkpt lat="45.60835" lon="5.55001">
        <ele>277</ele>
        <time>2022-05-17T05:58:40.685Z</time>
      </trkpt>
      <trkpt lat="45.60833" lon="5.55004">
        <ele>277</ele>
        <time>2022-05-17T05:58:41.684Z</time>
      </trkpt>
      <trkpt lat="45.6083" lon="5.55008">
        <ele>277</ele>
        <time>2022-05-17T05:58:42.685Z</time>
      </trkpt>
      <trkpt lat="45.60827" lon="5.55012">
        <ele>277</ele>
        <time>2022-05-17T05:58:43.685Z</time>
      </trkpt>
      <trkpt lat="45.60824" lon="5.55017">
        <ele>277</ele>
        <time>2022-05-17T05:58:44.684Z</time>
      </trkpt>
      <trkpt lat="45.60822" lon="5.55022">
        <ele>277</ele>
        <time>2022-05-17T05:58:45.685Z</time>
      </trkpt>
      <trkpt lat="45.6082" lon="5.55027">
        <ele>277</ele>
        <time>2022-05-17T05:58:46.684Z</time>
      </trkpt>
      <trkpt lat="45.60818" lon="5.55033">
        <ele>276</ele>
        <time>2022-05-17T05:58:47.685Z</time>
      </trkpt>
      <trkpt lat="45.60816" lon="5.55039">
        <ele>276</ele>
        <time>2022-05-17T05:58:48.685Z</time>
      </trkpt>
      <trkpt lat="45.60815" lon="5.55046">
        <ele>276</ele>
        <time>2022-05-17T05:58:49.685Z</time>
      </trkpt>
      <trkpt lat="45.60813" lon="5.55052">
        <ele>276</ele>
        <time>2022-05-17T05:58:50.685Z</time>
      </trkpt>
      <trkpt lat="45.60812" lon="5.55058">
        <ele>276</ele>
        <time>2022-05-17T05:58:51.685Z</time>
      </trkpt>
      <trkpt lat="45.60811" lon="5.55064">
        <ele>276</ele>
        <time>2022-05-17T05:58:52.685Z</time>
      </trkpt>
      <trkpt lat="45.60809" lon="5.5507">
        <ele>276</ele>
        <time>2022-05-17T05:58:53.685Z</time>
      </trkpt>
      <trkpt lat="45.60808" lon="5.55077">
        <ele>276</ele>
        <time>2022-05-17T05:58:54.685Z</time>
      </trkpt>
      <trkpt lat="45.60807" lon="5.55083">
        <ele>275</ele>
        <time>2022-05-17T05:58:55.685Z</time>
      </trkpt>
      <trkpt lat="45.60805" lon="5.55089">
        <ele>275</ele>
        <time>2022-05-17T05:58:56.684Z</time>
      </trkpt>
      <trkpt lat="45.60804" lon="5.55095">
        <ele>276</ele>
        <time>2022-05-17T05:58:57.685Z</time>
      </trkpt>
      <trkpt lat="45.60803" lon="5.55101">
        <ele>276</ele>
        <time>2022-05-17T05:58:58.685Z</time>
      </trkpt>
      <trkpt lat="45.60802" lon="5.55108">
        <ele>276</ele>
        <time>2022-05-17T05:58:59.684Z</time>
      </trkpt>
      <trkpt lat="45.60801" lon="5.55114">
        <ele>276</ele>
        <time>2022-05-17T05:59:00.685Z</time>
      </trkpt>
      <trkpt lat="45.60799" lon="5.5512">
        <ele>276</ele>
        <time>2022-05-17T05:59:01.685Z</time>
      </trkpt>
      <trkpt lat="45.60798" lon="5.55126">
        <ele>276</ele>
        <time>2022-05-17T05:59:02.685Z</time>
      </trkpt>
      <trkpt lat="45.60796" lon="5.55133">
        <ele>276</ele>
        <time>2022-05-17T05:59:03.685Z</time>
      </trkpt>
      <trkpt lat="45.60795" lon="5.55139">
        <ele>276</ele>
        <time>2022-05-17T05:59:04.685Z</time>
      </trkpt>
      <trkpt lat="45.60793" lon="5.55147">
        <ele>276</ele>
        <time>2022-05-17T05:59:05.684Z</time>
      </trkpt>
      <trkpt lat="45.60792" lon="5.55152">
        <ele>276</ele>
        <time>2022-05-17T05:59:06.685Z</time>
      </trkpt>
      <trkpt lat="45.60791" lon="5.55158">
        <ele>276</ele>
        <time>2022-05-17T05:59:07.684Z</time>
      </trkpt>
      <trkpt lat="45.6079" lon="5.55165">
        <ele>277</ele>
        <time>2022-05-17T05:59:08.685Z</time>
      </trkpt>
      <trkpt lat="45.60788" lon="5.55171">
        <ele>277</ele>
        <time>2022-05-17T05:59:09.684Z</time>
      </trkpt>
      <trkpt lat="45.60787" lon="5.55179">
        <ele>278</ele>
        <time>2022-05-17T05:59:10.685Z</time>
      </trkpt>
      <trkpt lat="45.60786" lon="5.55185">
        <ele>278</ele>
        <time>2022-05-17T05:59:11.685Z</time>
      </trkpt>
      <trkpt lat="45.60784" lon="5.55191">
        <ele>278</ele>
        <time>2022-05-17T05:59:12.685Z</time>
      </trkpt>
      <trkpt lat="45.60783" lon="5.55197">
        <ele>278</ele>
        <time>2022-05-17T05:59:13.685Z</time>
      </trkpt>
      <trkpt lat="45.60782" lon="5.55204">
        <ele>279</ele>
        <time>2022-05-17T05:59:14.685Z</time>
      </trkpt>
      <trkpt lat="45.60781" lon="5.5521">
        <ele>279</ele>
        <time>2022-05-17T05:59:15.685Z</time>
      </trkpt>
      <trkpt lat="45.6078" lon="5.55215">
        <ele>279</ele>
        <time>2022-05-17T05:59:16.685Z</time>
      </trkpt>
      <trkpt lat="45.60778" lon="5.55221">
        <ele>279</ele>
        <time>2022-05-17T05:59:17.685Z</time>
      </trkpt>
      <trkpt lat="45.60777" lon="5.55228">
        <ele>280</ele>
        <time>2022-05-17T05:59:18.684Z</time>
      </trkpt>
      <trkpt lat="45.60775" lon="5.55235">
        <ele>280</ele>
        <time>2022-05-17T05:59:19.685Z</time>
      </trkpt>
      <trkpt lat="45.60774" lon="5.55241">
        <ele>280</ele>
        <time>2022-05-17T05:59:20.684Z</time>
      </trkpt>
      <trkpt lat="45.60772" lon="5.55248">
        <ele>281</ele>
        <time>2022-05-17T05:59:21.685Z</time>
      </trkpt>
      <trkpt lat="45.60771" lon="5.55254">
        <ele>282</ele>
        <time>2022-05-17T05:59:22.684Z</time>
      </trkpt>
      <trkpt lat="45.6077" lon="5.5526">
        <ele>282</ele>
        <time>2022-05-17T05:59:23.685Z</time>
      </trkpt>
      <trkpt lat="45.60769" lon="5.55267">
        <ele>283</ele>
        <time>2022-05-17T05:59:24.684Z</time>
      </trkpt>
      <trkpt lat="45.60767" lon="5.55273">
        <ele>283</ele>
        <time>2022-05-17T05:59:25.684Z</time>
      </trkpt>
      <trkpt lat="45.60766" lon="5.55279">
        <ele>284</ele>
        <time>2022-05-17T05:59:26.685Z</time>
      </trkpt>
      <trkpt lat="45.60764" lon="5.55286">
        <ele>284</ele>
        <time>2022-05-17T05:59:27.684Z</time>
      </trkpt>
      <trkpt lat="45.60763" lon="5.55291">
        <ele>285</ele>
        <time>2022-05-17T05:59:28.685Z</time>
      </trkpt>
      <trkpt lat="45.60761" lon="5.55298">
        <ele>285</ele>
        <time>2022-05-17T05:59:29.684Z</time>
      </trkpt>
      <trkpt lat="45.6076" lon="5.55304">
        <ele>285</ele>
        <time>2022-05-17T05:59:30.684Z</time>
      </trkpt>
      <trkpt lat="45.60758" lon="5.55311">
        <ele>286</ele>
        <time>2022-05-17T05:59:31.685Z</time>
      </trkpt>
      <trkpt lat="45.60757" lon="5.55317">
        <ele>286</ele>
        <time>2022-05-17T05:59:32.685Z</time>
      </trkpt>
      <trkpt lat="45.60755" lon="5.55324">
        <ele>287</ele>
        <time>2022-05-17T05:59:33.685Z</time>
      </trkpt>
      <trkpt lat="45.60753" lon="5.55329">
        <ele>287</ele>
        <time>2022-05-17T05:59:34.685Z</time>
      </trkpt>
      <trkpt lat="45.60752" lon="5.55336">
        <ele>287</ele>
        <time>2022-05-17T05:59:35.685Z</time>
      </trkpt>
      <trkpt lat="45.60751" lon="5.55342">
        <ele>287</ele>
        <time>2022-05-17T05:59:36.685Z</time>
      </trkpt>
      <trkpt lat="45.60749" lon="5.55348">
        <ele>287</ele>
        <time>2022-05-17T05:59:37.685Z</time>
      </trkpt>
      <trkpt lat="45.60748" lon="5.55354">
        <ele>286</ele>
        <time>2022-05-17T05:59:38.685Z</time>
      </trkpt>
      <trkpt lat="45.60747" lon="5.5536">
        <ele>286</ele>
        <time>2022-05-17T05:59:39.684Z</time>
      </trkpt>
      <trkpt lat="45.60745" lon="5.55367">
        <ele>286</ele>
        <time>2022-05-17T05:59:40.685Z</time>
      </trkpt>
      <trkpt lat="45.60744" lon="5.55373">
        <ele>286</ele>
        <time>2022-05-17T05:59:41.685Z</time>
      </trkpt>
      <trkpt lat="45.60742" lon="5.55379">
        <ele>286</ele>
        <time>2022-05-17T05:59:42.685Z</time>
      </trkpt>
      <trkpt lat="45.60741" lon="5.55386">
        <ele>286</ele>
        <time>2022-05-17T05:59:43.685Z</time>
      </trkpt>
      <trkpt lat="45.60739" lon="5.55392">
        <ele>286</ele>
        <time>2022-05-17T05:59:44.685Z</time>
      </trkpt>
      <trkpt lat="45.60738" lon="5.55398">
        <ele>285</ele>
        <time>2022-05-17T05:59:45.685Z</time>
      </trkpt>
      <trkpt lat="45.60736" lon="5.55405">
        <ele>285</ele>
        <time>2022-05-17T05:59:46.685Z</time>
      </trkpt>
      <trkpt lat="45.60735" lon="5.55412">
        <ele>285</ele>
        <time>2022-05-17T05:59:47.684Z</time>
      </trkpt>
      <trkpt lat="45.60733" lon="5.55418">
        <ele>285</ele>
        <time>2022-05-17T05:59:48.685Z</time>
      </trkpt>
      <trkpt lat="45.60732" lon="5.55425">
        <ele>285</ele>
        <time>2022-05-17T05:59:49.684Z</time>
      </trkpt>
      <trkpt lat="45.60731" lon="5.55431">
        <ele>285</ele>
        <time>2022-05-17T05:59:50.685Z</time>
      </trkpt>
      <trkpt lat="45.60729" lon="5.55438">
        <ele>285</ele>
        <time>2022-05-17T05:59:51.685Z</time>
      </trkpt>
      <trkpt lat="45.60728" lon="5.55444">
        <ele>285</ele>
        <time>2022-05-17T05:59:52.684Z</time>
      </trkpt>
      <trkpt lat="45.60726" lon="5.55451">
        <ele>285</ele>
        <time>2022-05-17T05:59:53.685Z</time>
      </trkpt>
      <trkpt lat="45.60724" lon="5.55458">
        <ele>285</ele>
        <time>2022-05-17T05:59:54.684Z</time>
      </trkpt>
      <trkpt lat="45.60723" lon="5.55465">
        <ele>285</ele>
        <time>2022-05-17T05:59:55.685Z</time>
      </trkpt>
      <trkpt lat="45.60721" lon="5.55471">
        <ele>286</ele>
        <time>2022-05-17T05:59:56.685Z</time>
      </trkpt>
      <trkpt lat="45.6072" lon="5.55478">
        <ele>286</ele>
        <time>2022-05-17T05:59:57.685Z</time>
      </trkpt>
      <trkpt lat="45.60718" lon="5.55485">
        <ele>287</ele>
        <time>2022-05-17T05:59:58.684Z</time>
      </trkpt>
      <trkpt lat="45.60716" lon="5.55492">
        <ele>287</ele>
        <time>2022-05-17T05:59:59.685Z</time>
      </trkpt>
      <trkpt lat="45.60714" lon="5.55499">
        <ele>287</ele>
        <time>2022-05-17T06:00:00.685Z</time>
      </trkpt>
      <trkpt lat="45.60712" lon="5.55506">
        <ele>288</ele>
        <time>2022-05-17T06:00:01.684Z</time>
      </trkpt>
      <trkpt lat="45.6071" lon="5.55513">
        <ele>288</ele>
        <time>2022-05-17T06:00:02.685Z</time>
      </trkpt>
      <trkpt lat="45.60707" lon="5.5552">
        <ele>288</ele>
        <time>2022-05-17T06:00:03.685Z</time>
      </trkpt>
      <trkpt lat="45.60704" lon="5.55527">
        <ele>289</ele>
        <time>2022-05-17T06:00:04.685Z</time>
      </trkpt>
      <trkpt lat="45.60701" lon="5.55535">
        <ele>289</ele>
        <time>2022-05-17T06:00:05.684Z</time>
      </trkpt>
      <trkpt lat="45.60699" lon="5.55542">
        <ele>290</ele>
        <time>2022-05-17T06:00:06.684Z</time>
      </trkpt>
      <trkpt lat="45.60695" lon="5.55549">
        <ele>290</ele>
        <time>2022-05-17T06:00:07.684Z</time>
      </trkpt>
      <trkpt lat="45.60691" lon="5.55557">
        <ele>290</ele>
        <time>2022-05-17T06:00:08.684Z</time>
      </trkpt>
      <trkpt lat="45.60687" lon="5.55564">
        <ele>291</ele>
        <time>2022-05-17T06:00:09.684Z</time>
      </trkpt>
      <trkpt lat="45.60683" lon="5.5557">
        <ele>291</ele>
        <time>2022-05-17T06:00:10.684Z</time>
      </trkpt>
      <trkpt lat="45.60679" lon="5.55577">
        <ele>291</ele>
        <time>2022-05-17T06:00:11.685Z</time>
      </trkpt>
      <trkpt lat="45.60675" lon="5.55584">
        <ele>291</ele>
        <time>2022-05-17T06:00:12.685Z</time>
      </trkpt>
      <trkpt lat="45.6067" lon="5.5559">
        <ele>292</ele>
        <time>2022-05-17T06:00:13.685Z</time>
      </trkpt>
      <trkpt lat="45.60666" lon="5.55597">
        <ele>292</ele>
        <time>2022-05-17T06:00:14.685Z</time>
      </trkpt>
      <trkpt lat="45.60661" lon="5.55604">
        <ele>292</ele>
        <time>2022-05-17T06:00:15.684Z</time>
      </trkpt>
      <trkpt lat="45.60657" lon="5.55611">
        <ele>293</ele>
        <time>2022-05-17T06:00:16.685Z</time>
      </trkpt>
      <trkpt lat="45.60654" lon="5.55618">
        <ele>293</ele>
        <time>2022-05-17T06:00:17.684Z</time>
      </trkpt>
      <trkpt lat="45.6065" lon="5.55625">
        <ele>293</ele>
        <time>2022-05-17T06:00:18.685Z</time>
      </trkpt>
      <trkpt lat="45.60647" lon="5.55633">
        <ele>293</ele>
        <time>2022-05-17T06:00:19.684Z</time>
      </trkpt>
      <trkpt lat="45.60644" lon="5.5564">
        <ele>294</ele>
        <time>2022-05-17T06:00:20.685Z</time>
      </trkpt>
      <trkpt lat="45.60641" lon="5.55648">
        <ele>294</ele>
        <time>2022-05-17T06:00:21.684Z</time>
      </trkpt>
      <trkpt lat="45.60638" lon="5.55656">
        <ele>293</ele>
        <time>2022-05-17T06:00:22.685Z</time>
      </trkpt>
      <trkpt lat="45.60636" lon="5.55664">
        <ele>293</ele>
        <time>2022-05-17T06:00:23.685Z</time>
      </trkpt>
      <trkpt lat="45.60635" lon="5.55672">
        <ele>292</ele>
        <time>2022-05-17T06:00:24.684Z</time>
      </trkpt>
      <trkpt lat="45.60633" lon="5.5568">
        <ele>292</ele>
        <time>2022-05-17T06:00:25.684Z</time>
      </trkpt>
      <trkpt lat="45.60632" lon="5.55688">
        <ele>292</ele>
        <time>2022-05-17T06:00:26.685Z</time>
      </trkpt>
      <trkpt lat="45.60631" lon="5.55697">
        <ele>292</ele>
        <time>2022-05-17T06:00:27.685Z</time>
      </trkpt>
      <trkpt lat="45.60631" lon="5.55705">
        <ele>291</ele>
        <time>2022-05-17T06:00:28.684Z</time>
      </trkpt>
      <trkpt lat="45.6063" lon="5.55712">
        <ele>291</ele>
        <time>2022-05-17T06:00:29.685Z</time>
      </trkpt>
      <trkpt lat="45.6063" lon="5.5572">
        <ele>291</ele>
        <time>2022-05-17T06:00:30.685Z</time>
      </trkpt>
      <trkpt lat="45.60629" lon="5.55728">
        <ele>291</ele>
        <time>2022-05-17T06:00:31.685Z</time>
      </trkpt>
      <trkpt lat="45.60629" lon="5.55736">
        <ele>290</ele>
        <time>2022-05-17T06:00:32.684Z</time>
      </trkpt>
      <trkpt lat="45.60628" lon="5.55744">
        <ele>290</ele>
        <time>2022-05-17T06:00:33.685Z</time>
      </trkpt>
      <trkpt lat="45.60628" lon="5.55751">
        <ele>290</ele>
        <time>2022-05-17T06:00:34.684Z</time>
      </trkpt>
      <trkpt lat="45.60628" lon="5.55758">
        <ele>289</ele>
        <time>2022-05-17T06:00:35.685Z</time>
      </trkpt>
      <trkpt lat="45.60627" lon="5.55766">
        <ele>289</ele>
        <time>2022-05-17T06:00:36.684Z</time>
      </trkpt>
      <trkpt lat="45.60627" lon="5.55773">
        <ele>288</ele>
        <time>2022-05-17T06:00:37.684Z</time>
      </trkpt>
      <trkpt lat="45.60627" lon="5.5578">
        <ele>288</ele>
        <time>2022-05-17T06:00:38.685Z</time>
      </trkpt>
      <trkpt lat="45.60626" lon="5.55787">
        <ele>288</ele>
        <time>2022-05-17T06:00:39.685Z</time>
      </trkpt>
      <trkpt lat="45.60626" lon="5.55794">
        <ele>288</ele>
        <time>2022-05-17T06:00:40.685Z</time>
      </trkpt>
      <trkpt lat="45.60626" lon="5.55801">
        <ele>288</ele>
        <time>2022-05-17T06:00:41.685Z</time>
      </trkpt>
      <trkpt lat="45.60626" lon="5.55808">
        <ele>288</ele>
        <time>2022-05-17T06:00:42.684Z</time>
      </trkpt>
      <trkpt lat="45.60625" lon="5.55815">
        <ele>287</ele>
        <time>2022-05-17T06:00:43.684Z</time>
      </trkpt>
      <trkpt lat="45.60625" lon="5.55823">
        <ele>288</ele>
        <time>2022-05-17T06:00:44.685Z</time>
      </trkpt>
      <trkpt lat="45.60625" lon="5.5583">
        <ele>288</ele>
        <time>2022-05-17T06:00:45.685Z</time>
      </trkpt>
      <trkpt lat="45.60626" lon="5.55838">
        <ele>288</ele>
        <time>2022-05-17T06:00:46.685Z</time>
      </trkpt>
      <trkpt lat="45.60626" lon="5.55846">
        <ele>289</ele>
        <time>2022-05-17T06:00:47.685Z</time>
      </trkpt>
      <trkpt lat="45.60626" lon="5.55854">
        <ele>289</ele>
        <time>2022-05-17T06:00:48.684Z</time>
      </trkpt>
      <trkpt lat="45.60626" lon="5.55862">
        <ele>289</ele>
        <time>2022-05-17T06:00:49.685Z</time>
      </trkpt>
      <trkpt lat="45.60626" lon="5.5587">
        <ele>289</ele>
        <time>2022-05-17T06:00:50.685Z</time>
      </trkpt>
      <trkpt lat="45.60626" lon="5.55878">
        <ele>290</ele>
        <time>2022-05-17T06:00:51.685Z</time>
      </trkpt>
      <trkpt lat="45.60626" lon="5.55886">
        <ele>290</ele>
        <time>2022-05-17T06:00:52.685Z</time>
      </trkpt>
      <trkpt lat="45.60625" lon="5.55895">
        <ele>290</ele>
        <time>2022-05-17T06:00:53.685Z</time>
      </trkpt>
      <trkpt lat="45.60625" lon="5.55903">
        <ele>289</ele>
        <time>2022-05-17T06:00:54.685Z</time>
      </trkpt>
      <trkpt lat="45.60625" lon="5.55912">
        <ele>289</ele>
        <time>2022-05-17T06:00:55.684Z</time>
      </trkpt>
      <trkpt lat="45.60625" lon="5.55921">
        <ele>289</ele>
        <time>2022-05-17T06:00:56.685Z</time>
      </trkpt>
      <trkpt lat="45.60625" lon="5.5593">
        <ele>289</ele>
        <time>2022-05-17T06:00:57.684Z</time>
      </trkpt>
      <trkpt lat="45.60625" lon="5.55939">
        <ele>289</ele>
        <time>2022-05-17T06:00:58.684Z</time>
      </trkpt>
      <trkpt lat="45.60625" lon="5.55948">
        <ele>290</ele>
        <time>2022-05-17T06:00:59.685Z</time>
      </trkpt>
      <trkpt lat="45.60625" lon="5.55957">
        <ele>289</ele>
        <time>2022-05-17T06:01:00.685Z</time>
      </trkpt>
      <trkpt lat="45.60624" lon="5.55967">
        <ele>289</ele>
        <time>2022-05-17T06:01:01.684Z</time>
      </trkpt>
      <trkpt lat="45.60624" lon="5.55977">
        <ele>289</ele>
        <time>2022-05-17T06:01:02.685Z</time>
      </trkpt>
      <trkpt lat="45.60623" lon="5.55986">
        <ele>289</ele>
        <time>2022-05-17T06:01:03.685Z</time>
      </trkpt>
      <trkpt lat="45.60622" lon="5.55996">
        <ele>289</ele>
        <time>2022-05-17T06:01:04.685Z</time>
      </trkpt>
      <trkpt lat="45.60621" lon="5.56007">
        <ele>289</ele>
        <time>2022-05-17T06:01:05.685Z</time>
      </trkpt>
      <trkpt lat="45.6062" lon="5.56017">
        <ele>289</ele>
        <time>2022-05-17T06:01:06.685Z</time>
      </trkpt>
      <trkpt lat="45.60619" lon="5.56027">
        <ele>289</ele>
        <time>2022-05-17T06:01:07.685Z</time>
      </trkpt>
      <trkpt lat="45.60618" lon="5.56036">
        <ele>289</ele>
        <time>2022-05-17T06:01:08.685Z</time>
      </trkpt>
      <trkpt lat="45.60617" lon="5.56046">
        <ele>289</ele>
        <time>2022-05-17T06:01:09.684Z</time>
      </trkpt>
      <trkpt lat="45.60615" lon="5.56056">
        <ele>290</ele>
        <time>2022-05-17T06:01:10.685Z</time>
      </trkpt>
      <trkpt lat="45.60614" lon="5.56066">
        <ele>290</ele>
        <time>2022-05-17T06:01:11.685Z</time>
      </trkpt>
      <trkpt lat="45.60612" lon="5.56075">
        <ele>291</ele>
        <time>2022-05-17T06:01:12.684Z</time>
      </trkpt>
      <trkpt lat="45.60611" lon="5.56085">
        <ele>291</ele>
        <time>2022-05-17T06:01:13.685Z</time>
      </trkpt>
      <trkpt lat="45.6061" lon="5.56094">
        <ele>291</ele>
        <time>2022-05-17T06:01:14.684Z</time>
      </trkpt>
      <trkpt lat="45.60608" lon="5.56104">
        <ele>292</ele>
        <time>2022-05-17T06:01:15.685Z</time>
      </trkpt>
      <trkpt lat="45.60607" lon="5.56114">
        <ele>292</ele>
        <time>2022-05-17T06:01:16.685Z</time>
      </trkpt>
      <trkpt lat="45.60605" lon="5.56124">
        <ele>291</ele>
        <time>2022-05-17T06:01:17.684Z</time>
      </trkpt>
      <trkpt lat="45.60604" lon="5.56133">
        <ele>291</ele>
        <time>2022-05-17T06:01:18.684Z</time>
      </trkpt>
      <trkpt lat="45.60603" lon="5.56143">
        <ele>291</ele>
        <time>2022-05-17T06:01:19.685Z</time>
      </trkpt>
      <trkpt lat="45.60602" lon="5.56152">
        <ele>291</ele>
        <time>2022-05-17T06:01:20.685Z</time>
      </trkpt>
      <trkpt lat="45.60602" lon="5.56162">
        <ele>291</ele>
        <time>2022-05-17T06:01:21.684Z</time>
      </trkpt>
      <trkpt lat="45.60602" lon="5.56171">
        <ele>291</ele>
        <time>2022-05-17T06:01:22.685Z</time>
      </trkpt>
      <trkpt lat="45.60602" lon="5.56181">
        <ele>291</ele>
        <time>2022-05-17T06:01:23.685Z</time>
      </trkpt>
      <trkpt lat="45.60602" lon="5.56191">
        <ele>291</ele>
        <time>2022-05-17T06:01:24.685Z</time>
      </trkpt>
      <trkpt lat="45.60602" lon="5.56201">
        <ele>291</ele>
        <time>2022-05-17T06:01:25.685Z</time>
      </trkpt>
      <trkpt lat="45.60603" lon="5.56211">
        <ele>291</ele>
        <time>2022-05-17T06:01:26.685Z</time>
      </trkpt>
      <trkpt lat="45.60603" lon="5.56222">
        <ele>291</ele>
        <time>2022-05-17T06:01:27.684Z</time>
      </trkpt>
      <trkpt lat="45.60604" lon="5.56232">
        <ele>291</ele>
        <time>2022-05-17T06:01:28.685Z</time>
      </trkpt>
      <trkpt lat="45.60605" lon="5.56243">
        <ele>290</ele>
        <time>2022-05-17T06:01:29.685Z</time>
      </trkpt>
      <trkpt lat="45.60606" lon="5.56253">
        <ele>290</ele>
        <time>2022-05-17T06:01:30.685Z</time>
      </trkpt>
      <trkpt lat="45.60606" lon="5.56264">
        <ele>290</ele>
        <time>2022-05-17T06:01:31.684Z</time>
      </trkpt>
      <trkpt lat="45.60607" lon="5.56275">
        <ele>290</ele>
        <time>2022-05-17T06:01:32.684Z</time>
      </trkpt>
      <trkpt lat="45.60608" lon="5.56285">
        <ele>290</ele>
        <time>2022-05-17T06:01:33.684Z</time>
      </trkpt>
      <trkpt lat="45.60608" lon="5.56296">
        <ele>290</ele>
        <time>2022-05-17T06:01:34.685Z</time>
      </trkpt>
      <trkpt lat="45.60608" lon="5.56307">
        <ele>290</ele>
        <time>2022-05-17T06:01:35.685Z</time>
      </trkpt>
      <trkpt lat="45.60607" lon="5.56318">
        <ele>290</ele>
        <time>2022-05-17T06:01:36.685Z</time>
      </trkpt>
      <trkpt lat="45.60607" lon="5.56329">
        <ele>291</ele>
        <time>2022-05-17T06:01:37.685Z</time>
      </trkpt>
      <trkpt lat="45.60606" lon="5.5634">
        <ele>291</ele>
        <time>2022-05-17T06:01:38.685Z</time>
      </trkpt>
      <trkpt lat="45.60605" lon="5.56352">
        <ele>292</ele>
        <time>2022-05-17T06:01:39.684Z</time>
      </trkpt>
      <trkpt lat="45.60605" lon="5.56363">
        <ele>292</ele>
        <time>2022-05-17T06:01:40.684Z</time>
      </trkpt>
      <trkpt lat="45.60604" lon="5.56374">
        <ele>292</ele>
        <time>2022-05-17T06:01:41.685Z</time>
      </trkpt>
      <trkpt lat="45.60602" lon="5.56386">
        <ele>292</ele>
        <time>2022-05-17T06:01:42.685Z</time>
      </trkpt>
      <trkpt lat="45.60601" lon="5.56397">
        <ele>292</ele>
        <time>2022-05-17T06:01:43.685Z</time>
      </trkpt>
      <trkpt lat="45.60599" lon="5.56408">
        <ele>292</ele>
        <time>2022-05-17T06:01:44.685Z</time>
      </trkpt>
      <trkpt lat="45.60598" lon="5.56419">
        <ele>292</ele>
        <time>2022-05-17T06:01:45.685Z</time>
      </trkpt>
      <trkpt lat="45.60596" lon="5.5643">
        <ele>292</ele>
        <time>2022-05-17T06:01:46.685Z</time>
      </trkpt>
      <trkpt lat="45.60594" lon="5.56441">
        <ele>292</ele>
        <time>2022-05-17T06:01:47.685Z</time>
      </trkpt>
      <trkpt lat="45.60592" lon="5.56452">
        <ele>291</ele>
        <time>2022-05-17T06:01:48.685Z</time>
      </trkpt>
      <trkpt lat="45.6059" lon="5.56463">
        <ele>291</ele>
        <time>2022-05-17T06:01:49.685Z</time>
      </trkpt>
      <trkpt lat="45.60588" lon="5.56474">
        <ele>291</ele>
        <time>2022-05-17T06:01:50.685Z</time>
      </trkpt>
      <trkpt lat="45.60586" lon="5.56485">
        <ele>291</ele>
        <time>2022-05-17T06:01:51.685Z</time>
      </trkpt>
      <trkpt lat="45.60583" lon="5.56496">
        <ele>292</ele>
        <time>2022-05-17T06:01:52.685Z</time>
      </trkpt>
      <trkpt lat="45.60581" lon="5.56507">
        <ele>292</ele>
        <time>2022-05-17T06:01:53.685Z</time>
      </trkpt>
      <trkpt lat="45.60578" lon="5.56517">
        <ele>292</ele>
        <time>2022-05-17T06:01:54.684Z</time>
      </trkpt>
      <trkpt lat="45.60575" lon="5.56528">
        <ele>293</ele>
        <time>2022-05-17T06:01:55.685Z</time>
      </trkpt>
      <trkpt lat="45.60573" lon="5.56537">
        <ele>294</ele>
        <time>2022-05-17T06:01:56.685Z</time>
      </trkpt>
      <trkpt lat="45.60569" lon="5.56547">
        <ele>294</ele>
        <time>2022-05-17T06:01:57.684Z</time>
      </trkpt>
      <trkpt lat="45.60565" lon="5.56556">
        <ele>295</ele>
        <time>2022-05-17T06:01:58.685Z</time>
      </trkpt>
      <trkpt lat="45.60561" lon="5.56566">
        <ele>295</ele>
        <time>2022-05-17T06:01:59.685Z</time>
      </trkpt>
      <trkpt lat="45.60556" lon="5.56576">
        <ele>295</ele>
        <time>2022-05-17T06:02:00.685Z</time>
      </trkpt>
      <trkpt lat="45.60551" lon="5.56586">
        <ele>295</ele>
        <time>2022-05-17T06:02:01.684Z</time>
      </trkpt>
      <trkpt lat="45.60546" lon="5.56595">
        <ele>294</ele>
        <time>2022-05-17T06:02:02.685Z</time>
      </trkpt>
      <trkpt lat="45.60541" lon="5.56605">
        <ele>294</ele>
        <time>2022-05-17T06:02:03.685Z</time>
      </trkpt>
      <trkpt lat="45.60536" lon="5.56615">
        <ele>294</ele>
        <time>2022-05-17T06:02:04.685Z</time>
      </trkpt>
      <trkpt lat="45.60531" lon="5.56624">
        <ele>294</ele>
        <time>2022-05-17T06:02:05.685Z</time>
      </trkpt>
      <trkpt lat="45.60526" lon="5.56634">
        <ele>294</ele>
        <time>2022-05-17T06:02:06.685Z</time>
      </trkpt>
      <trkpt lat="45.6052" lon="5.56643">
        <ele>294</ele>
        <time>2022-05-17T06:02:07.685Z</time>
      </trkpt>
      <trkpt lat="45.60515" lon="5.56653">
        <ele>294</ele>
        <time>2022-05-17T06:02:08.684Z</time>
      </trkpt>
      <trkpt lat="45.6051" lon="5.56662">
        <ele>294</ele>
        <time>2022-05-17T06:02:09.684Z</time>
      </trkpt>
      <trkpt lat="45.60505" lon="5.56672">
        <ele>293</ele>
        <time>2022-05-17T06:02:10.685Z</time>
      </trkpt>
      <trkpt lat="45.605" lon="5.56681">
        <ele>293</ele>
        <time>2022-05-17T06:02:11.684Z</time>
      </trkpt>
      <trkpt lat="45.60495" lon="5.5669">
        <ele>292</ele>
        <time>2022-05-17T06:02:12.685Z</time>
      </trkpt>
      <trkpt lat="45.6049" lon="5.56699">
        <ele>292</ele>
        <time>2022-05-17T06:02:13.684Z</time>
      </trkpt>
      <trkpt lat="45.60485" lon="5.56709">
        <ele>292</ele>
        <time>2022-05-17T06:02:14.685Z</time>
      </trkpt>
      <trkpt lat="45.6048" lon="5.56719">
        <ele>292</ele>
        <time>2022-05-17T06:02:15.685Z</time>
      </trkpt>
      <trkpt lat="45.60475" lon="5.5673">
        <ele>292</ele>
        <time>2022-05-17T06:02:16.684Z</time>
      </trkpt>
      <trkpt lat="45.6047" lon="5.56741">
        <ele>292</ele>
        <time>2022-05-17T06:02:17.685Z</time>
      </trkpt>
      <trkpt lat="45.60465" lon="5.56751">
        <ele>292</ele>
        <time>2022-05-17T06:02:18.685Z</time>
      </trkpt>
      <trkpt lat="45.6046" lon="5.56762">
        <ele>291</ele>
        <time>2022-05-17T06:02:19.685Z</time>
      </trkpt>
      <trkpt lat="45.60455" lon="5.56772">
        <ele>291</ele>
        <time>2022-05-17T06:02:20.685Z</time>
      </trkpt>
      <trkpt lat="45.6045" lon="5.56782">
        <ele>291</ele>
        <time>2022-05-17T06:02:21.685Z</time>
      </trkpt>
      <trkpt lat="45.60445" lon="5.56793">
        <ele>290</ele>
        <time>2022-05-17T06:02:22.684Z</time>
      </trkpt>
      <trkpt lat="45.6044" lon="5.56805">
        <ele>290</ele>
        <time>2022-05-17T06:02:23.684Z</time>
      </trkpt>
      <trkpt lat="45.60436" lon="5.56816">
        <ele>290</ele>
        <time>2022-05-17T06:02:24.685Z</time>
      </trkpt>
      <trkpt lat="45.60431" lon="5.56826">
        <ele>290</ele>
        <time>2022-05-17T06:02:25.685Z</time>
      </trkpt>
      <trkpt lat="45.60426" lon="5.56836">
        <ele>290</ele>
        <time>2022-05-17T06:02:26.685Z</time>
      </trkpt>
      <trkpt lat="45.60421" lon="5.56846">
        <ele>290</ele>
        <time>2022-05-17T06:02:27.684Z</time>
      </trkpt>
      <trkpt lat="45.60417" lon="5.56857">
        <ele>289</ele>
        <time>2022-05-17T06:02:28.685Z</time>
      </trkpt>
      <trkpt lat="45.60411" lon="5.5687">
        <ele>289</ele>
        <time>2022-05-17T06:02:29.684Z</time>
      </trkpt>
      <trkpt lat="45.60408" lon="5.56878">
        <ele>289</ele>
        <time>2022-05-17T06:02:30.685Z</time>
      </trkpt>
      <trkpt lat="45.60404" lon="5.56889">
        <ele>289</ele>
        <time>2022-05-17T06:02:31.684Z</time>
      </trkpt>
      <trkpt lat="45.604" lon="5.56901">
        <ele>289</ele>
        <time>2022-05-17T06:02:32.685Z</time>
      </trkpt>
      <trkpt lat="45.60397" lon="5.56912">
        <ele>289</ele>
        <time>2022-05-17T06:02:33.684Z</time>
      </trkpt>
      <trkpt lat="45.60394" lon="5.56922">
        <ele>289</ele>
        <time>2022-05-17T06:02:34.684Z</time>
      </trkpt>
      <trkpt lat="45.6039" lon="5.56934">
        <ele>288</ele>
        <time>2022-05-17T06:02:35.685Z</time>
      </trkpt>
      <trkpt lat="45.60387" lon="5.56944">
        <ele>288</ele>
        <time>2022-05-17T06:02:36.685Z</time>
      </trkpt>
      <trkpt lat="45.60384" lon="5.56956">
        <ele>288</ele>
        <time>2022-05-17T06:02:37.684Z</time>
      </trkpt>
      <trkpt lat="45.6038" lon="5.56967">
        <ele>288</ele>
        <time>2022-05-17T06:02:38.685Z</time>
      </trkpt>
      <trkpt lat="45.60377" lon="5.56978">
        <ele>287</ele>
        <time>2022-05-17T06:02:39.685Z</time>
      </trkpt>
      <trkpt lat="45.60373" lon="5.56989">
        <ele>287</ele>
        <time>2022-05-17T06:02:40.684Z</time>
      </trkpt>
      <trkpt lat="45.6037" lon="5.57">
        <ele>286</ele>
        <time>2022-05-17T06:02:41.685Z</time>
      </trkpt>
      <trkpt lat="45.60366" lon="5.57011">
        <ele>286</ele>
        <time>2022-05-17T06:02:42.685Z</time>
      </trkpt>
      <trkpt lat="45.60363" lon="5.57022">
        <ele>286</ele>
        <time>2022-05-17T06:02:43.684Z</time>
      </trkpt>
      <trkpt lat="45.60361" lon="5.57033">
        <ele>286</ele>
        <time>2022-05-17T06:02:44.684Z</time>
      </trkpt>
      <trkpt lat="45.6036" lon="5.57044">
        <ele>286</ele>
        <time>2022-05-17T06:02:45.685Z</time>
      </trkpt>
      <trkpt lat="45.60359" lon="5.57055">
        <ele>286</ele>
        <time>2022-05-17T06:02:46.685Z</time>
      </trkpt>
      <trkpt lat="45.60358" lon="5.57066">
        <ele>286</ele>
        <time>2022-05-17T06:02:47.685Z</time>
      </trkpt>
      <trkpt lat="45.60357" lon="5.57077">
        <ele>286</ele>
        <time>2022-05-17T06:02:48.685Z</time>
      </trkpt>
      <trkpt lat="45.60356" lon="5.57088">
        <ele>286</ele>
        <time>2022-05-17T06:02:49.684Z</time>
      </trkpt>
      <trkpt lat="45.60356" lon="5.57098">
        <ele>286</ele>
        <time>2022-05-17T06:02:50.684Z</time>
      </trkpt>
      <trkpt lat="45.60355" lon="5.57108">
        <ele>286</ele>
        <time>2022-05-17T06:02:51.685Z</time>
      </trkpt>
      <trkpt lat="45.60354" lon="5.57117">
        <ele>286</ele>
        <time>2022-05-17T06:02:52.685Z</time>
      </trkpt>
      <trkpt lat="45.60353" lon="5.57129">
        <ele>285</ele>
        <time>2022-05-17T06:02:53.685Z</time>
      </trkpt>
      <trkpt lat="45.60352" lon="5.57136">
        <ele>285</ele>
        <time>2022-05-17T06:02:54.684Z</time>
      </trkpt>
      <trkpt lat="45.6035" lon="5.57145">
        <ele>285</ele>
        <time>2022-05-17T06:02:55.685Z</time>
      </trkpt>
      <trkpt lat="45.60348" lon="5.57156">
        <ele>285</ele>
        <time>2022-05-17T06:02:56.685Z</time>
      </trkpt>
      <trkpt lat="45.60346" lon="5.57165">
        <ele>284</ele>
        <time>2022-05-17T06:02:57.684Z</time>
      </trkpt>
      <trkpt lat="45.60345" lon="5.57173">
        <ele>284</ele>
        <time>2022-05-17T06:02:58.685Z</time>
      </trkpt>
      <trkpt lat="45.60342" lon="5.57182">
        <ele>284</ele>
        <time>2022-05-17T06:02:59.685Z</time>
      </trkpt>
      <trkpt lat="45.60341" lon="5.57188">
        <ele>283</ele>
        <time>2022-05-17T06:03:00.684Z</time>
      </trkpt>
      <trkpt lat="45.60338" lon="5.57198">
        <ele>283</ele>
        <time>2022-05-17T06:03:01.685Z</time>
      </trkpt>
      <trkpt lat="45.60336" lon="5.57206">
        <ele>283</ele>
        <time>2022-05-17T06:03:02.685Z</time>
      </trkpt>
      <trkpt lat="45.60334" lon="5.57215">
        <ele>284</ele>
        <time>2022-05-17T06:03:03.685Z</time>
      </trkpt>
      <trkpt lat="45.60332" lon="5.57221">
        <ele>284</ele>
        <time>2022-05-17T06:03:04.685Z</time>
      </trkpt>
      <trkpt lat="45.6033" lon="5.57229">
        <ele>285</ele>
        <time>2022-05-17T06:03:05.684Z</time>
      </trkpt>
      <trkpt lat="45.60328" lon="5.57236">
        <ele>285</ele>
        <time>2022-05-17T06:03:06.684Z</time>
      </trkpt>
      <trkpt lat="45.60326" lon="5.57244">
        <ele>286</ele>
        <time>2022-05-17T06:03:07.685Z</time>
      </trkpt>
      <trkpt lat="45.60324" lon="5.57251">
        <ele>287</ele>
        <time>2022-05-17T06:03:08.684Z</time>
      </trkpt>
      <trkpt lat="45.60321" lon="5.57259">
        <ele>287</ele>
        <time>2022-05-17T06:03:09.685Z</time>
      </trkpt>
      <trkpt lat="45.60318" lon="5.57267">
        <ele>287</ele>
        <time>2022-05-17T06:03:10.684Z</time>
      </trkpt>
      <trkpt lat="45.60315" lon="5.57273">
        <ele>287</ele>
        <time>2022-05-17T06:03:11.685Z</time>
      </trkpt>
      <trkpt lat="45.60312" lon="5.57283">
        <ele>288</ele>
        <time>2022-05-17T06:03:12.685Z</time>
      </trkpt>
      <trkpt lat="45.6031" lon="5.57288">
        <ele>288</ele>
        <time>2022-05-17T06:03:13.685Z</time>
      </trkpt>
      <trkpt lat="45.60307" lon="5.57296">
        <ele>288</ele>
        <time>2022-05-17T06:03:14.685Z</time>
      </trkpt>
      <trkpt lat="45.60304" lon="5.57304">
        <ele>288</ele>
        <time>2022-05-17T06:03:15.685Z</time>
      </trkpt>
      <trkpt lat="45.60301" lon="5.57312">
        <ele>288</ele>
        <time>2022-05-17T06:03:16.685Z</time>
      </trkpt>
      <trkpt lat="45.60297" lon="5.57321">
        <ele>288</ele>
        <time>2022-05-17T06:03:17.685Z</time>
      </trkpt>
      <trkpt lat="45.60295" lon="5.57329">
        <ele>289</ele>
        <time>2022-05-17T06:03:18.685Z</time>
      </trkpt>
      <trkpt lat="45.60292" lon="5.57338">
        <ele>289</ele>
        <time>2022-05-17T06:03:19.684Z</time>
      </trkpt>
      <trkpt lat="45.60289" lon="5.57346">
        <ele>289</ele>
        <time>2022-05-17T06:03:20.684Z</time>
      </trkpt>
      <trkpt lat="45.60287" lon="5.57354">
        <ele>290</ele>
        <time>2022-05-17T06:03:21.685Z</time>
      </trkpt>
      <trkpt lat="45.60284" lon="5.57362">
        <ele>290</ele>
        <time>2022-05-17T06:03:22.685Z</time>
      </trkpt>
      <trkpt lat="45.60281" lon="5.5737">
        <ele>291</ele>
        <time>2022-05-17T06:03:23.685Z</time>
      </trkpt>
      <trkpt lat="45.60279" lon="5.57378">
        <ele>291</ele>
        <time>2022-05-17T06:03:24.684Z</time>
      </trkpt>
      <trkpt lat="45.60276" lon="5.57386">
        <ele>292</ele>
        <time>2022-05-17T06:03:25.684Z</time>
      </trkpt>
      <trkpt lat="45.60273" lon="5.57393">
        <ele>292</ele>
        <time>2022-05-17T06:03:26.685Z</time>
      </trkpt>
      <trkpt lat="45.60271" lon="5.57401">
        <ele>292</ele>
        <time>2022-05-17T06:03:27.685Z</time>
      </trkpt>
      <trkpt lat="45.60268" lon="5.57409">
        <ele>293</ele>
        <time>2022-05-17T06:03:28.685Z</time>
      </trkpt>
      <trkpt lat="45.60266" lon="5.57417">
        <ele>293</ele>
        <time>2022-05-17T06:03:29.685Z</time>
      </trkpt>
      <trkpt lat="45.60264" lon="5.57424">
        <ele>293</ele>
        <time>2022-05-17T06:03:30.685Z</time>
      </trkpt>
      <trkpt lat="45.60261" lon="5.57432">
        <ele>292</ele>
        <time>2022-05-17T06:03:31.685Z</time>
      </trkpt>
      <trkpt lat="45.60258" lon="5.57441">
        <ele>292</ele>
        <time>2022-05-17T06:03:32.685Z</time>
      </trkpt>
      <trkpt lat="45.60255" lon="5.57448">
        <ele>292</ele>
        <time>2022-05-17T06:03:33.685Z</time>
      </trkpt>
      <trkpt lat="45.60253" lon="5.57456">
        <ele>292</ele>
        <time>2022-05-17T06:03:34.684Z</time>
      </trkpt>
      <trkpt lat="45.6025" lon="5.57463">
        <ele>292</ele>
        <time>2022-05-17T06:03:35.685Z</time>
      </trkpt>
      <trkpt lat="45.60247" lon="5.57471">
        <ele>291</ele>
        <time>2022-05-17T06:03:36.685Z</time>
      </trkpt>
      <trkpt lat="45.60244" lon="5.57479">
        <ele>291</ele>
        <time>2022-05-17T06:03:37.685Z</time>
      </trkpt>
      <trkpt lat="45.60242" lon="5.57486">
        <ele>291</ele>
        <time>2022-05-17T06:03:38.685Z</time>
      </trkpt>
      <trkpt lat="45.60239" lon="5.57494">
        <ele>292</ele>
        <time>2022-05-17T06:03:39.685Z</time>
      </trkpt>
      <trkpt lat="45.60236" lon="5.57502">
        <ele>292</ele>
        <time>2022-05-17T06:03:40.685Z</time>
      </trkpt>
      <trkpt lat="45.60234" lon="5.5751">
        <ele>293</ele>
        <time>2022-05-17T06:03:41.684Z</time>
      </trkpt>
      <trkpt lat="45.60231" lon="5.57519">
        <ele>293</ele>
        <time>2022-05-17T06:03:42.685Z</time>
      </trkpt>
      <trkpt lat="45.60228" lon="5.57526">
        <ele>293</ele>
        <time>2022-05-17T06:03:43.685Z</time>
      </trkpt>
      <trkpt lat="45.60225" lon="5.57535">
        <ele>294</ele>
        <time>2022-05-17T06:03:44.685Z</time>
      </trkpt>
      <trkpt lat="45.60222" lon="5.57543">
        <ele>294</ele>
        <time>2022-05-17T06:03:45.684Z</time>
      </trkpt>
      <trkpt lat="45.6022" lon="5.57552">
        <ele>295</ele>
        <time>2022-05-17T06:03:46.685Z</time>
      </trkpt>
      <trkpt lat="45.60217" lon="5.57561">
        <ele>295</ele>
        <time>2022-05-17T06:03:47.685Z</time>
      </trkpt>
      <trkpt lat="45.60214" lon="5.57569">
        <ele>296</ele>
        <time>2022-05-17T06:03:48.685Z</time>
      </trkpt>
      <trkpt lat="45.60212" lon="5.57578">
        <ele>296</ele>
        <time>2022-05-17T06:03:49.684Z</time>
      </trkpt>
      <trkpt lat="45.60209" lon="5.57587">
        <ele>296</ele>
        <time>2022-05-17T06:03:50.685Z</time>
      </trkpt>
      <trkpt lat="45.60206" lon="5.57596">
        <ele>296</ele>
        <time>2022-05-17T06:03:51.685Z</time>
      </trkpt>
      <trkpt lat="45.60204" lon="5.57604">
        <ele>296</ele>
        <time>2022-05-17T06:03:52.684Z</time>
      </trkpt>
      <trkpt lat="45.60202" lon="5.57613">
        <ele>296</ele>
        <time>2022-05-17T06:03:53.685Z</time>
      </trkpt>
      <trkpt lat="45.602" lon="5.57622">
        <ele>296</ele>
        <time>2022-05-17T06:03:54.685Z</time>
      </trkpt>
      <trkpt lat="45.602" lon="5.57631">
        <ele>296</ele>
        <time>2022-05-17T06:03:55.685Z</time>
      </trkpt>
      <trkpt lat="45.60199" lon="5.5764">
        <ele>296</ele>
        <time>2022-05-17T06:03:56.685Z</time>
      </trkpt>
      <trkpt lat="45.602" lon="5.57648">
        <ele>296</ele>
        <time>2022-05-17T06:03:57.685Z</time>
      </trkpt>
      <trkpt lat="45.60201" lon="5.57656">
        <ele>296</ele>
        <time>2022-05-17T06:03:58.684Z</time>
      </trkpt>
      <trkpt lat="45.60202" lon="5.57665">
        <ele>296</ele>
        <time>2022-05-17T06:03:59.684Z</time>
      </trkpt>
      <trkpt lat="45.60203" lon="5.57673">
        <ele>296</ele>
        <time>2022-05-17T06:04:00.685Z</time>
      </trkpt>
      <trkpt lat="45.60205" lon="5.57681">
        <ele>296</ele>
        <time>2022-05-17T06:04:01.685Z</time>
      </trkpt>
      <trkpt lat="45.60206" lon="5.57688">
        <ele>296</ele>
        <time>2022-05-17T06:04:02.684Z</time>
      </trkpt>
      <trkpt lat="45.60207" lon="5.57697">
        <ele>296</ele>
        <time>2022-05-17T06:04:03.684Z</time>
      </trkpt>
      <trkpt lat="45.60209" lon="5.57705">
        <ele>296</ele>
        <time>2022-05-17T06:04:04.685Z</time>
      </trkpt>
      <trkpt lat="45.60211" lon="5.57714">
        <ele>296</ele>
        <time>2022-05-17T06:04:05.685Z</time>
      </trkpt>
      <trkpt lat="45.60212" lon="5.57723">
        <ele>296</ele>
        <time>2022-05-17T06:04:06.685Z</time>
      </trkpt>
      <trkpt lat="45.60213" lon="5.57732">
        <ele>296</ele>
        <time>2022-05-17T06:04:07.685Z</time>
      </trkpt>
      <trkpt lat="45.60214" lon="5.57743">
        <ele>296</ele>
        <time>2022-05-17T06:04:08.684Z</time>
      </trkpt>
      <trkpt lat="45.60216" lon="5.57754">
        <ele>296</ele>
        <time>2022-05-17T06:04:09.685Z</time>
      </trkpt>
      <trkpt lat="45.60218" lon="5.57765">
        <ele>296</ele>
        <time>2022-05-17T06:04:10.685Z</time>
      </trkpt>
      <trkpt lat="45.6022" lon="5.57776">
        <ele>295</ele>
        <time>2022-05-17T06:04:11.684Z</time>
      </trkpt>
      <trkpt lat="45.60222" lon="5.57788">
        <ele>295</ele>
        <time>2022-05-17T06:04:12.685Z</time>
      </trkpt>
      <trkpt lat="45.60223" lon="5.578">
        <ele>295</ele>
        <time>2022-05-17T06:04:13.684Z</time>
      </trkpt>
      <trkpt lat="45.60224" lon="5.57812">
        <ele>294</ele>
        <time>2022-05-17T06:04:14.685Z</time>
      </trkpt>
      <trkpt lat="45.60224" lon="5.57823">
        <ele>294</ele>
        <time>2022-05-17T06:04:15.684Z</time>
      </trkpt>
      <trkpt lat="45.60223" lon="5.57836">
        <ele>294</ele>
        <time>2022-05-17T06:04:16.685Z</time>
      </trkpt>
      <trkpt lat="45.60222" lon="5.57848">
        <ele>294</ele>
        <time>2022-05-17T06:04:17.685Z</time>
      </trkpt>
      <trkpt lat="45.6022" lon="5.57862">
        <ele>295</ele>
        <time>2022-05-17T06:04:18.685Z</time>
      </trkpt>
      <trkpt lat="45.60218" lon="5.57875">
        <ele>294</ele>
        <time>2022-05-17T06:04:19.685Z</time>
      </trkpt>
      <trkpt lat="45.60216" lon="5.57889">
        <ele>294</ele>
        <time>2022-05-17T06:04:20.684Z</time>
      </trkpt>
      <trkpt lat="45.60214" lon="5.57902">
        <ele>293</ele>
        <time>2022-05-17T06:04:21.685Z</time>
      </trkpt>
      <trkpt lat="45.60211" lon="5.57917">
        <ele>292</ele>
        <time>2022-05-17T06:04:22.684Z</time>
      </trkpt>
      <trkpt lat="45.6021" lon="5.57931">
        <ele>292</ele>
        <time>2022-05-17T06:04:23.685Z</time>
      </trkpt>
      <trkpt lat="45.60208" lon="5.57946">
        <ele>291</ele>
        <time>2022-05-17T06:04:24.685Z</time>
      </trkpt>
      <trkpt lat="45.60206" lon="5.5796">
        <ele>290</ele>
        <time>2022-05-17T06:04:25.684Z</time>
      </trkpt>
      <trkpt lat="45.60205" lon="5.57975">
        <ele>289</ele>
        <time>2022-05-17T06:04:26.685Z</time>
      </trkpt>
      <trkpt lat="45.60204" lon="5.5799">
        <ele>289</ele>
        <time>2022-05-17T06:04:27.685Z</time>
      </trkpt>
      <trkpt lat="45.60203" lon="5.58005">
        <ele>288</ele>
        <time>2022-05-17T06:04:28.684Z</time>
      </trkpt>
      <trkpt lat="45.60202" lon="5.5802">
        <ele>288</ele>
        <time>2022-05-17T06:04:29.685Z</time>
      </trkpt>
      <trkpt lat="45.60201" lon="5.58036">
        <ele>288</ele>
        <time>2022-05-17T06:04:30.685Z</time>
      </trkpt>
      <trkpt lat="45.60201" lon="5.58052">
        <ele>287</ele>
        <time>2022-05-17T06:04:31.685Z</time>
      </trkpt>
      <trkpt lat="45.60202" lon="5.58068">
        <ele>287</ele>
        <time>2022-05-17T06:04:32.684Z</time>
      </trkpt>
      <trkpt lat="45.60203" lon="5.58083">
        <ele>287</ele>
        <time>2022-05-17T06:04:33.685Z</time>
      </trkpt>
      <trkpt lat="45.60204" lon="5.58098">
        <ele>287</ele>
        <time>2022-05-17T06:04:34.685Z</time>
      </trkpt>
      <trkpt lat="45.60205" lon="5.58114">
        <ele>286</ele>
        <time>2022-05-17T06:04:35.685Z</time>
      </trkpt>
      <trkpt lat="45.60207" lon="5.58129">
        <ele>286</ele>
        <time>2022-05-17T06:04:36.685Z</time>
      </trkpt>
      <trkpt lat="45.60209" lon="5.58145">
        <ele>285</ele>
        <time>2022-05-17T06:04:37.685Z</time>
      </trkpt>
      <trkpt lat="45.6021" lon="5.5816">
        <ele>285</ele>
        <time>2022-05-17T06:04:38.684Z</time>
      </trkpt>
      <trkpt lat="45.6021" lon="5.58175">
        <ele>285</ele>
        <time>2022-05-17T06:04:39.685Z</time>
      </trkpt>
      <trkpt lat="45.6021" lon="5.5819">
        <ele>284</ele>
        <time>2022-05-17T06:04:40.685Z</time>
      </trkpt>
      <trkpt lat="45.60208" lon="5.58205">
        <ele>284</ele>
        <time>2022-05-17T06:04:41.684Z</time>
      </trkpt>
      <trkpt lat="45.60206" lon="5.5822">
        <ele>283</ele>
        <time>2022-05-17T06:04:42.684Z</time>
      </trkpt>
      <trkpt lat="45.60202" lon="5.58235">
        <ele>282</ele>
        <time>2022-05-17T06:04:43.685Z</time>
      </trkpt>
      <trkpt lat="45.60198" lon="5.58249">
        <ele>282</ele>
        <time>2022-05-17T06:04:44.684Z</time>
      </trkpt>
      <trkpt lat="45.60193" lon="5.58264">
        <ele>281</ele>
        <time>2022-05-17T06:04:45.685Z</time>
      </trkpt>
      <trkpt lat="45.60188" lon="5.58278">
        <ele>280</ele>
        <time>2022-05-17T06:04:46.685Z</time>
      </trkpt>
      <trkpt lat="45.60183" lon="5.58292">
        <ele>280</ele>
        <time>2022-05-17T06:04:47.685Z</time>
      </trkpt>
      <trkpt lat="45.60178" lon="5.58306">
        <ele>279</ele>
        <time>2022-05-17T06:04:48.685Z</time>
      </trkpt>
      <trkpt lat="45.60173" lon="5.58321">
        <ele>278</ele>
        <time>2022-05-17T06:04:49.684Z</time>
      </trkpt>
      <trkpt lat="45.60168" lon="5.58335">
        <ele>277</ele>
        <time>2022-05-17T06:04:50.684Z</time>
      </trkpt>
      <trkpt lat="45.60161" lon="5.58352">
        <ele>277</ele>
        <time>2022-05-17T06:04:51.685Z</time>
      </trkpt>
      <trkpt lat="45.60156" lon="5.58366">
        <ele>276</ele>
        <time>2022-05-17T06:04:52.684Z</time>
      </trkpt>
      <trkpt lat="45.6015" lon="5.5838">
        <ele>275</ele>
        <time>2022-05-17T06:04:53.684Z</time>
      </trkpt>
      <trkpt lat="45.60144" lon="5.58394">
        <ele>275</ele>
        <time>2022-05-17T06:04:54.685Z</time>
      </trkpt>
      <trkpt lat="45.60139" lon="5.58408">
        <ele>274</ele>
        <time>2022-05-17T06:04:55.684Z</time>
      </trkpt>
      <trkpt lat="45.60133" lon="5.58421">
        <ele>273</ele>
        <time>2022-05-17T06:04:56.685Z</time>
      </trkpt>
      <trkpt lat="45.60127" lon="5.58435">
        <ele>273</ele>
        <time>2022-05-17T06:04:57.684Z</time>
      </trkpt>
      <trkpt lat="45.60121" lon="5.58448">
        <ele>272</ele>
        <time>2022-05-17T06:04:58.685Z</time>
      </trkpt>
      <trkpt lat="45.60116" lon="5.58459">
        <ele>272</ele>
        <time>2022-05-17T06:04:59.685Z</time>
      </trkpt>
      <trkpt lat="45.60109" lon="5.58475">
        <ele>271</ele>
        <time>2022-05-17T06:05:00.684Z</time>
      </trkpt>
      <trkpt lat="45.60105" lon="5.58485">
        <ele>271</ele>
        <time>2022-05-17T06:05:01.685Z</time>
      </trkpt>
      <trkpt lat="45.60099" lon="5.58498">
        <ele>270</ele>
        <time>2022-05-17T06:05:02.685Z</time>
      </trkpt>
      <trkpt lat="45.60093" lon="5.58511">
        <ele>270</ele>
        <time>2022-05-17T06:05:03.684Z</time>
      </trkpt>
      <trkpt lat="45.60087" lon="5.58524">
        <ele>269</ele>
        <time>2022-05-17T06:05:04.684Z</time>
      </trkpt>
      <trkpt lat="45.6008" lon="5.58536">
        <ele>269</ele>
        <time>2022-05-17T06:05:05.685Z</time>
      </trkpt>
      <trkpt lat="45.60073" lon="5.58548">
        <ele>269</ele>
        <time>2022-05-17T06:05:06.685Z</time>
      </trkpt>
      <trkpt lat="45.60065" lon="5.5856">
        <ele>268</ele>
        <time>2022-05-17T06:05:07.685Z</time>
      </trkpt>
      <trkpt lat="45.60057" lon="5.58571">
        <ele>268</ele>
        <time>2022-05-17T06:05:08.685Z</time>
      </trkpt>
      <trkpt lat="45.6005" lon="5.58582">
        <ele>268</ele>
        <time>2022-05-17T06:05:09.685Z</time>
      </trkpt>
      <trkpt lat="45.60042" lon="5.58592">
        <ele>268</ele>
        <time>2022-05-17T06:05:10.684Z</time>
      </trkpt>
      <trkpt lat="45.60033" lon="5.58603">
        <ele>268</ele>
        <time>2022-05-17T06:05:11.684Z</time>
      </trkpt>
      <trkpt lat="45.60026" lon="5.58613">
        <ele>268</ele>
        <time>2022-05-17T06:05:12.685Z</time>
      </trkpt>
      <trkpt lat="45.60021" lon="5.58618">
        <ele>268</ele>
        <time>2022-05-17T06:05:13.685Z</time>
      </trkpt>
      <trkpt lat="45.60014" lon="5.58626">
        <ele>268</ele>
        <time>2022-05-17T06:05:14.685Z</time>
      </trkpt>
      <trkpt lat="45.60008" lon="5.58634">
        <ele>268</ele>
        <time>2022-05-17T06:05:15.685Z</time>
      </trkpt>
      <trkpt lat="45.60003" lon="5.58641">
        <ele>267</ele>
        <time>2022-05-17T06:05:16.685Z</time>
      </trkpt>
      <trkpt lat="45.59999" lon="5.58648">
        <ele>267</ele>
        <time>2022-05-17T06:05:17.685Z</time>
      </trkpt>
      <trkpt lat="45.59995" lon="5.58654">
        <ele>267</ele>
        <time>2022-05-17T06:05:18.685Z</time>
      </trkpt>
      <trkpt lat="45.5999" lon="5.58662">
        <ele>267</ele>
        <time>2022-05-17T06:05:19.685Z</time>
      </trkpt>
      <trkpt lat="45.59985" lon="5.58672">
        <ele>267</ele>
        <time>2022-05-17T06:05:20.685Z</time>
      </trkpt>
      <trkpt lat="45.59981" lon="5.58679">
        <ele>267</ele>
        <time>2022-05-17T06:05:21.684Z</time>
      </trkpt>
      <trkpt lat="45.59977" lon="5.58687">
        <ele>266</ele>
        <time>2022-05-17T06:05:22.685Z</time>
      </trkpt>
      <trkpt lat="45.59972" lon="5.58694">
        <ele>266</ele>
        <time>2022-05-17T06:05:23.685Z</time>
      </trkpt>
      <trkpt lat="45.59965" lon="5.58702">
        <ele>266</ele>
        <time>2022-05-17T06:05:24.685Z</time>
      </trkpt>
      <trkpt lat="45.59958" lon="5.58709">
        <ele>266</ele>
        <time>2022-05-17T06:05:25.685Z</time>
      </trkpt>
      <trkpt lat="45.59951" lon="5.58715">
        <ele>265</ele>
        <time>2022-05-17T06:05:26.684Z</time>
      </trkpt>
      <trkpt lat="45.59942" lon="5.58721">
        <ele>265</ele>
        <time>2022-05-17T06:05:27.685Z</time>
      </trkpt>
      <trkpt lat="45.59934" lon="5.58727">
        <ele>265</ele>
        <time>2022-05-17T06:05:28.685Z</time>
      </trkpt>
      <trkpt lat="45.59927" lon="5.58732">
        <ele>265</ele>
        <time>2022-05-17T06:05:29.684Z</time>
      </trkpt>
      <trkpt lat="45.59918" lon="5.58738">
        <ele>265</ele>
        <time>2022-05-17T06:05:30.685Z</time>
      </trkpt>
      <trkpt lat="45.59911" lon="5.58742">
        <ele>265</ele>
        <time>2022-05-17T06:05:31.685Z</time>
      </trkpt>
      <trkpt lat="45.59904" lon="5.58745">
        <ele>264</ele>
        <time>2022-05-17T06:05:32.685Z</time>
      </trkpt>
      <trkpt lat="45.59897" lon="5.58746">
        <ele>263</ele>
        <time>2022-05-17T06:05:33.685Z</time>
      </trkpt>
      <trkpt lat="45.59891" lon="5.58745">
        <ele>263</ele>
        <time>2022-05-17T06:05:34.685Z</time>
      </trkpt>
      <trkpt lat="45.59885" lon="5.58744">
        <ele>262</ele>
        <time>2022-05-17T06:05:35.685Z</time>
      </trkpt>
      <trkpt lat="45.59878" lon="5.58743">
        <ele>262</ele>
        <time>2022-05-17T06:05:36.684Z</time>
      </trkpt>
      <trkpt lat="45.59871" lon="5.58744">
        <ele>261</ele>
        <time>2022-05-17T06:05:37.685Z</time>
      </trkpt>
      <trkpt lat="45.59864" lon="5.58747">
        <ele>261</ele>
        <time>2022-05-17T06:05:38.685Z</time>
      </trkpt>
      <trkpt lat="45.59857" lon="5.58752">
        <ele>260</ele>
        <time>2022-05-17T06:05:39.685Z</time>
      </trkpt>
      <trkpt lat="45.59849" lon="5.58758">
        <ele>259</ele>
        <time>2022-05-17T06:05:40.685Z</time>
      </trkpt>
      <trkpt lat="45.59841" lon="5.58766">
        <ele>258</ele>
        <time>2022-05-17T06:05:41.685Z</time>
      </trkpt>
      <trkpt lat="45.59833" lon="5.58774">
        <ele>258</ele>
        <time>2022-05-17T06:05:42.684Z</time>
      </trkpt>
      <trkpt lat="45.59824" lon="5.58782">
        <ele>257</ele>
        <time>2022-05-17T06:05:43.685Z</time>
      </trkpt>
      <trkpt lat="45.59815" lon="5.5879">
        <ele>256</ele>
        <time>2022-05-17T06:05:44.685Z</time>
      </trkpt>
      <trkpt lat="45.59806" lon="5.58798">
        <ele>255</ele>
        <time>2022-05-17T06:05:45.684Z</time>
      </trkpt>
      <trkpt lat="45.59797" lon="5.58807">
        <ele>255</ele>
        <time>2022-05-17T06:05:46.685Z</time>
      </trkpt>
      <trkpt lat="45.59788" lon="5.58815">
        <ele>254</ele>
        <time>2022-05-17T06:05:47.685Z</time>
      </trkpt>
      <trkpt lat="45.59779" lon="5.58823">
        <ele>253</ele>
        <time>2022-05-17T06:05:48.685Z</time>
      </trkpt>
      <trkpt lat="45.59769" lon="5.58831">
        <ele>252</ele>
        <time>2022-05-17T06:05:49.685Z</time>
      </trkpt>
      <trkpt lat="45.5976" lon="5.5884">
        <ele>251</ele>
        <time>2022-05-17T06:05:50.685Z</time>
      </trkpt>
      <trkpt lat="45.59751" lon="5.58848">
        <ele>251</ele>
        <time>2022-05-17T06:05:51.685Z</time>
      </trkpt>
      <trkpt lat="45.59743" lon="5.58856">
        <ele>250</ele>
        <time>2022-05-17T06:05:52.685Z</time>
      </trkpt>
      <trkpt lat="45.59735" lon="5.58862">
        <ele>249</ele>
        <time>2022-05-17T06:05:53.685Z</time>
      </trkpt>
      <trkpt lat="45.59727" lon="5.58869">
        <ele>249</ele>
        <time>2022-05-17T06:05:54.684Z</time>
      </trkpt>
      <trkpt lat="45.59719" lon="5.58876">
        <ele>248</ele>
        <time>2022-05-17T06:05:55.685Z</time>
      </trkpt>
      <trkpt lat="45.5971" lon="5.58885">
        <ele>247</ele>
        <time>2022-05-17T06:05:56.684Z</time>
      </trkpt>
      <trkpt lat="45.59703" lon="5.58892">
        <ele>246</ele>
        <time>2022-05-17T06:05:57.684Z</time>
      </trkpt>
      <trkpt lat="45.59695" lon="5.589">
        <ele>246</ele>
        <time>2022-05-17T06:05:58.685Z</time>
      </trkpt>
      <trkpt lat="45.59688" lon="5.58907">
        <ele>245</ele>
        <time>2022-05-17T06:05:59.684Z</time>
      </trkpt>
      <trkpt lat="45.59681" lon="5.58915">
        <ele>244</ele>
        <time>2022-05-17T06:06:00.684Z</time>
      </trkpt>
      <trkpt lat="45.59675" lon="5.58922">
        <ele>243</ele>
        <time>2022-05-17T06:06:01.684Z</time>
      </trkpt>
      <trkpt lat="45.59669" lon="5.58929">
        <ele>242</ele>
        <time>2022-05-17T06:06:02.685Z</time>
      </trkpt>
      <trkpt lat="45.59663" lon="5.58937">
        <ele>241</ele>
        <time>2022-05-17T06:06:03.685Z</time>
      </trkpt>
      <trkpt lat="45.59658" lon="5.58942">
        <ele>240</ele>
        <time>2022-05-17T06:06:04.685Z</time>
      </trkpt>
      <trkpt lat="45.5965" lon="5.58952">
        <ele>239</ele>
        <time>2022-05-17T06:06:05.684Z</time>
      </trkpt>
      <trkpt lat="45.59644" lon="5.58959">
        <ele>239</ele>
        <time>2022-05-17T06:06:06.685Z</time>
      </trkpt>
      <trkpt lat="45.59637" lon="5.58968">
        <ele>238</ele>
        <time>2022-05-17T06:06:07.685Z</time>
      </trkpt>
      <trkpt lat="45.59629" lon="5.58976">
        <ele>238</ele>
        <time>2022-05-17T06:06:08.685Z</time>
      </trkpt>
      <trkpt lat="45.59622" lon="5.58982">
        <ele>237</ele>
        <time>2022-05-17T06:06:09.684Z</time>
      </trkpt>
      <trkpt lat="45.59614" lon="5.58988">
        <ele>237</ele>
        <time>2022-05-17T06:06:10.684Z</time>
      </trkpt>
      <trkpt lat="45.59605" lon="5.58993">
        <ele>236</ele>
        <time>2022-05-17T06:06:11.684Z</time>
      </trkpt>
      <trkpt lat="45.59597" lon="5.58999">
        <ele>236</ele>
        <time>2022-05-17T06:06:12.685Z</time>
      </trkpt>
      <trkpt lat="45.59588" lon="5.59006">
        <ele>235</ele>
        <time>2022-05-17T06:06:13.685Z</time>
      </trkpt>
      <trkpt lat="45.59578" lon="5.59012">
        <ele>235</ele>
        <time>2022-05-17T06:06:14.684Z</time>
      </trkpt>
      <trkpt lat="45.59569" lon="5.59017">
        <ele>234</ele>
        <time>2022-05-17T06:06:15.684Z</time>
      </trkpt>
      <trkpt lat="45.5956" lon="5.59022">
        <ele>234</ele>
        <time>2022-05-17T06:06:16.685Z</time>
      </trkpt>
      <trkpt lat="45.5955" lon="5.59029">
        <ele>234</ele>
        <time>2022-05-17T06:06:17.684Z</time>
      </trkpt>
      <trkpt lat="45.59544" lon="5.59033">
        <ele>233</ele>
        <time>2022-05-17T06:06:18.684Z</time>
      </trkpt>
      <trkpt lat="45.59533" lon="5.59039">
        <ele>233</ele>
        <time>2022-05-17T06:06:19.685Z</time>
      </trkpt>
      <trkpt lat="45.59525" lon="5.59045">
        <ele>233</ele>
        <time>2022-05-17T06:06:20.685Z</time>
      </trkpt>
      <trkpt lat="45.59519" lon="5.59051">
        <ele>233</ele>
        <time>2022-05-17T06:06:21.685Z</time>
      </trkpt>
      <trkpt lat="45.59511" lon="5.59059">
        <ele>233</ele>
        <time>2022-05-17T06:06:22.685Z</time>
      </trkpt>
      <trkpt lat="45.59504" lon="5.59066">
        <ele>233</ele>
        <time>2022-05-17T06:06:23.685Z</time>
      </trkpt>
      <trkpt lat="45.59497" lon="5.59074">
        <ele>233</ele>
        <time>2022-05-17T06:06:24.684Z</time>
      </trkpt>
      <trkpt lat="45.5949" lon="5.59081">
        <ele>233</ele>
        <time>2022-05-17T06:06:25.684Z</time>
      </trkpt>
      <trkpt lat="45.59483" lon="5.59089">
        <ele>233</ele>
        <time>2022-05-17T06:06:26.684Z</time>
      </trkpt>
      <trkpt lat="45.59476" lon="5.59097">
        <ele>233</ele>
        <time>2022-05-17T06:06:27.684Z</time>
      </trkpt>
      <trkpt lat="45.5947" lon="5.59105">
        <ele>233</ele>
        <time>2022-05-17T06:06:28.684Z</time>
      </trkpt>
      <trkpt lat="45.59463" lon="5.59114">
        <ele>232</ele>
        <time>2022-05-17T06:06:29.685Z</time>
      </trkpt>
      <trkpt lat="45.59456" lon="5.59123">
        <ele>232</ele>
        <time>2022-05-17T06:06:30.685Z</time>
      </trkpt>
      <trkpt lat="45.5945" lon="5.59132">
        <ele>232</ele>
        <time>2022-05-17T06:06:31.685Z</time>
      </trkpt>
      <trkpt lat="45.59444" lon="5.5914">
        <ele>231</ele>
        <time>2022-05-17T06:06:32.684Z</time>
      </trkpt>
      <trkpt lat="45.59438" lon="5.59149">
        <ele>231</ele>
        <time>2022-05-17T06:06:33.684Z</time>
      </trkpt>
      <trkpt lat="45.59431" lon="5.59158">
        <ele>230</ele>
        <time>2022-05-17T06:06:34.685Z</time>
      </trkpt>
      <trkpt lat="45.59425" lon="5.59167">
        <ele>230</ele>
        <time>2022-05-17T06:06:35.685Z</time>
      </trkpt>
      <trkpt lat="45.59419" lon="5.59176">
        <ele>230</ele>
        <time>2022-05-17T06:06:36.685Z</time>
      </trkpt>
      <trkpt lat="45.59413" lon="5.59184">
        <ele>230</ele>
        <time>2022-05-17T06:06:37.685Z</time>
      </trkpt>
      <trkpt lat="45.59407" lon="5.59192">
        <ele>230</ele>
        <time>2022-05-17T06:06:38.685Z</time>
      </trkpt>
      <trkpt lat="45.594" lon="5.592">
        <ele>230</ele>
        <time>2022-05-17T06:06:39.684Z</time>
      </trkpt>
      <trkpt lat="45.59393" lon="5.59209">
        <ele>229</ele>
        <time>2022-05-17T06:06:40.685Z</time>
      </trkpt>
      <trkpt lat="45.59386" lon="5.59217">
        <ele>229</ele>
        <time>2022-05-17T06:06:41.685Z</time>
      </trkpt>
      <trkpt lat="45.5938" lon="5.59223">
        <ele>229</ele>
        <time>2022-05-17T06:06:42.685Z</time>
      </trkpt>
      <trkpt lat="45.59374" lon="5.5923">
        <ele>228</ele>
        <time>2022-05-17T06:06:43.685Z</time>
      </trkpt>
      <trkpt lat="45.59367" lon="5.59236">
        <ele>228</ele>
        <time>2022-05-17T06:06:44.685Z</time>
      </trkpt>
      <trkpt lat="45.59361" lon="5.59243">
        <ele>228</ele>
        <time>2022-05-17T06:06:45.684Z</time>
      </trkpt>
      <trkpt lat="45.59355" lon="5.5925">
        <ele>228</ele>
        <time>2022-05-17T06:06:46.684Z</time>
      </trkpt>
      <trkpt lat="45.59349" lon="5.59257">
        <ele>228</ele>
        <time>2022-05-17T06:06:47.685Z</time>
      </trkpt>
      <trkpt lat="45.59343" lon="5.59264">
        <ele>228</ele>
        <time>2022-05-17T06:06:48.685Z</time>
      </trkpt>
      <trkpt lat="45.59337" lon="5.59271">
        <ele>228</ele>
        <time>2022-05-17T06:06:49.684Z</time>
      </trkpt>
      <trkpt lat="45.59331" lon="5.59278">
        <ele>228</ele>
        <time>2022-05-17T06:06:50.684Z</time>
      </trkpt>
      <trkpt lat="45.59325" lon="5.59286">
        <ele>229</ele>
        <time>2022-05-17T06:06:51.685Z</time>
      </trkpt>
      <trkpt lat="45.59319" lon="5.59293">
        <ele>229</ele>
        <time>2022-05-17T06:06:52.685Z</time>
      </trkpt>
      <trkpt lat="45.59313" lon="5.593">
        <ele>229</ele>
        <time>2022-05-17T06:06:53.685Z</time>
      </trkpt>
      <trkpt lat="45.59306" lon="5.59306">
        <ele>229</ele>
        <time>2022-05-17T06:06:54.685Z</time>
      </trkpt>
      <trkpt lat="45.59299" lon="5.59313">
        <ele>228</ele>
        <time>2022-05-17T06:06:55.684Z</time>
      </trkpt>
      <trkpt lat="45.59292" lon="5.59319">
        <ele>228</ele>
        <time>2022-05-17T06:06:56.684Z</time>
      </trkpt>
      <trkpt lat="45.59285" lon="5.59325">
        <ele>228</ele>
        <time>2022-05-17T06:06:57.684Z</time>
      </trkpt>
      <trkpt lat="45.59277" lon="5.59331">
        <ele>228</ele>
        <time>2022-05-17T06:06:58.685Z</time>
      </trkpt>
      <trkpt lat="45.5927" lon="5.59337">
        <ele>228</ele>
        <time>2022-05-17T06:06:59.685Z</time>
      </trkpt>
      <trkpt lat="45.59263" lon="5.59343">
        <ele>228</ele>
        <time>2022-05-17T06:07:00.685Z</time>
      </trkpt>
      <trkpt lat="45.59256" lon="5.5935">
        <ele>228</ele>
        <time>2022-05-17T06:07:01.685Z</time>
      </trkpt>
      <trkpt lat="45.59249" lon="5.59358">
        <ele>227</ele>
        <time>2022-05-17T06:07:02.685Z</time>
      </trkpt>
      <trkpt lat="45.59243" lon="5.59366">
        <ele>227</ele>
        <time>2022-05-17T06:07:03.685Z</time>
      </trkpt>
      <trkpt lat="45.59237" lon="5.59374">
        <ele>227</ele>
        <time>2022-05-17T06:07:04.685Z</time>
      </trkpt>
      <trkpt lat="45.59232" lon="5.59383">
        <ele>227</ele>
        <time>2022-05-17T06:07:05.685Z</time>
      </trkpt>
      <trkpt lat="45.59226" lon="5.59392">
        <ele>227</ele>
        <time>2022-05-17T06:07:06.684Z</time>
      </trkpt>
      <trkpt lat="45.59221" lon="5.59401">
        <ele>227</ele>
        <time>2022-05-17T06:07:07.685Z</time>
      </trkpt>
      <trkpt lat="45.59215" lon="5.5941">
        <ele>227</ele>
        <time>2022-05-17T06:07:08.685Z</time>
      </trkpt>
      <trkpt lat="45.5921" lon="5.59419">
        <ele>227</ele>
        <time>2022-05-17T06:07:09.685Z</time>
      </trkpt>
      <trkpt lat="45.59204" lon="5.59428">
        <ele>227</ele>
        <time>2022-05-17T06:07:10.685Z</time>
      </trkpt>
      <trkpt lat="45.59198" lon="5.59436">
        <ele>227</ele>
        <time>2022-05-17T06:07:11.685Z</time>
      </trkpt>
      <trkpt lat="45.59192" lon="5.59444">
        <ele>227</ele>
        <time>2022-05-17T06:07:12.685Z</time>
      </trkpt>
      <trkpt lat="45.59186" lon="5.59452">
        <ele>227</ele>
        <time>2022-05-17T06:07:13.685Z</time>
      </trkpt>
      <trkpt lat="45.59179" lon="5.5946">
        <ele>227</ele>
        <time>2022-05-17T06:07:14.685Z</time>
      </trkpt>
      <trkpt lat="45.59173" lon="5.59468">
        <ele>227</ele>
        <time>2022-05-17T06:07:15.685Z</time>
      </trkpt>
      <trkpt lat="45.59167" lon="5.59475">
        <ele>226</ele>
        <time>2022-05-17T06:07:16.685Z</time>
      </trkpt>
      <trkpt lat="45.5916" lon="5.59482">
        <ele>226</ele>
        <time>2022-05-17T06:07:17.684Z</time>
      </trkpt>
      <trkpt lat="45.59153" lon="5.59488">
        <ele>225</ele>
        <time>2022-05-17T06:07:18.685Z</time>
      </trkpt>
      <trkpt lat="45.59146" lon="5.59494">
        <ele>225</ele>
        <time>2022-05-17T06:07:19.685Z</time>
      </trkpt>
      <trkpt lat="45.59139" lon="5.59499">
        <ele>225</ele>
        <time>2022-05-17T06:07:20.685Z</time>
      </trkpt>
      <trkpt lat="45.59132" lon="5.59503">
        <ele>224</ele>
        <time>2022-05-17T06:07:21.685Z</time>
      </trkpt>
      <trkpt lat="45.59125" lon="5.59508">
        <ele>224</ele>
        <time>2022-05-17T06:07:22.684Z</time>
      </trkpt>
      <trkpt lat="45.59118" lon="5.59512">
        <ele>224</ele>
        <time>2022-05-17T06:07:23.684Z</time>
      </trkpt>
      <trkpt lat="45.59111" lon="5.59516">
        <ele>224</ele>
        <time>2022-05-17T06:07:24.685Z</time>
      </trkpt>
      <trkpt lat="45.59104" lon="5.5952">
        <ele>224</ele>
        <time>2022-05-17T06:07:25.684Z</time>
      </trkpt>
      <trkpt lat="45.59096" lon="5.59524">
        <ele>224</ele>
        <time>2022-05-17T06:07:26.684Z</time>
      </trkpt>
      <trkpt lat="45.5909" lon="5.59528">
        <ele>224</ele>
        <time>2022-05-17T06:07:27.684Z</time>
      </trkpt>
      <trkpt lat="45.59083" lon="5.59533">
        <ele>224</ele>
        <time>2022-05-17T06:07:28.685Z</time>
      </trkpt>
      <trkpt lat="45.59077" lon="5.59537">
        <ele>224</ele>
        <time>2022-05-17T06:07:29.685Z</time>
      </trkpt>
      <trkpt lat="45.5907" lon="5.59542">
        <ele>225</ele>
        <time>2022-05-17T06:07:30.684Z</time>
      </trkpt>
      <trkpt lat="45.59063" lon="5.59547">
        <ele>225</ele>
        <time>2022-05-17T06:07:31.685Z</time>
      </trkpt>
      <trkpt lat="45.59056" lon="5.59553">
        <ele>225</ele>
        <time>2022-05-17T06:07:32.685Z</time>
      </trkpt>
      <trkpt lat="45.59049" lon="5.59558">
        <ele>225</ele>
        <time>2022-05-17T06:07:33.684Z</time>
      </trkpt>
      <trkpt lat="45.59042" lon="5.59564">
        <ele>225</ele>
        <time>2022-05-17T06:07:34.685Z</time>
      </trkpt>
      <trkpt lat="45.59035" lon="5.59569">
        <ele>225</ele>
        <time>2022-05-17T06:07:35.685Z</time>
      </trkpt>
      <trkpt lat="45.59028" lon="5.59573">
        <ele>225</ele>
        <time>2022-05-17T06:07:36.685Z</time>
      </trkpt>
      <trkpt lat="45.59021" lon="5.59577">
        <ele>225</ele>
        <time>2022-05-17T06:07:37.685Z</time>
      </trkpt>
      <trkpt lat="45.59013" lon="5.59581">
        <ele>224</ele>
        <time>2022-05-17T06:07:38.684Z</time>
      </trkpt>
      <trkpt lat="45.59006" lon="5.59583">
        <ele>224</ele>
        <time>2022-05-17T06:07:39.685Z</time>
      </trkpt>
      <trkpt lat="45.58998" lon="5.59585">
        <ele>224</ele>
        <time>2022-05-17T06:07:40.685Z</time>
      </trkpt>
      <trkpt lat="45.5899" lon="5.59586">
        <ele>224</ele>
        <time>2022-05-17T06:07:41.685Z</time>
      </trkpt>
      <trkpt lat="45.58981" lon="5.59587">
        <ele>224</ele>
        <time>2022-05-17T06:07:42.685Z</time>
      </trkpt>
      <trkpt lat="45.58973" lon="5.59587">
        <ele>224</ele>
        <time>2022-05-17T06:07:43.685Z</time>
      </trkpt>
      <trkpt lat="45.58966" lon="5.59587">
        <ele>224</ele>
        <time>2022-05-17T06:07:44.684Z</time>
      </trkpt>
      <trkpt lat="45.58958" lon="5.59587">
        <ele>224</ele>
        <time>2022-05-17T06:07:45.685Z</time>
      </trkpt>
      <trkpt lat="45.5895" lon="5.59588">
        <ele>224</ele>
        <time>2022-05-17T06:07:46.685Z</time>
      </trkpt>
      <trkpt lat="45.58942" lon="5.59588">
        <ele>224</ele>
        <time>2022-05-17T06:07:47.684Z</time>
      </trkpt>
      <trkpt lat="45.58934" lon="5.59589">
        <ele>224</ele>
        <time>2022-05-17T06:07:48.685Z</time>
      </trkpt>
      <trkpt lat="45.58926" lon="5.59592">
        <ele>224</ele>
        <time>2022-05-17T06:07:49.685Z</time>
      </trkpt>
      <trkpt lat="45.58918" lon="5.59594">
        <ele>224</ele>
        <time>2022-05-17T06:07:50.685Z</time>
      </trkpt>
      <trkpt lat="45.58911" lon="5.59598">
        <ele>224</ele>
        <time>2022-05-17T06:07:51.685Z</time>
      </trkpt>
      <trkpt lat="45.58905" lon="5.59604">
        <ele>224</ele>
        <time>2022-05-17T06:07:52.685Z</time>
      </trkpt>
      <trkpt lat="45.58898" lon="5.5961">
        <ele>224</ele>
        <time>2022-05-17T06:07:53.685Z</time>
      </trkpt>
      <trkpt lat="45.58893" lon="5.59618">
        <ele>224</ele>
        <time>2022-05-17T06:07:54.684Z</time>
      </trkpt>
      <trkpt lat="45.58887" lon="5.59627">
        <ele>225</ele>
        <time>2022-05-17T06:07:55.685Z</time>
      </trkpt>
      <trkpt lat="45.58881" lon="5.59635">
        <ele>225</ele>
        <time>2022-05-17T06:07:56.685Z</time>
      </trkpt>
      <trkpt lat="45.58875" lon="5.59643">
        <ele>226</ele>
        <time>2022-05-17T06:07:57.684Z</time>
      </trkpt>
      <trkpt lat="45.58869" lon="5.59651">
        <ele>226</ele>
        <time>2022-05-17T06:07:58.684Z</time>
      </trkpt>
      <trkpt lat="45.58863" lon="5.59659">
        <ele>226</ele>
        <time>2022-05-17T06:07:59.685Z</time>
      </trkpt>
      <trkpt lat="45.58856" lon="5.59668">
        <ele>226</ele>
        <time>2022-05-17T06:08:00.685Z</time>
      </trkpt>
      <trkpt lat="45.5885" lon="5.59676">
        <ele>226</ele>
        <time>2022-05-17T06:08:01.685Z</time>
      </trkpt>
      <trkpt lat="45.58844" lon="5.59684">
        <ele>226</ele>
        <time>2022-05-17T06:08:02.685Z</time>
      </trkpt>
      <trkpt lat="45.58838" lon="5.59692">
        <ele>227</ele>
        <time>2022-05-17T06:08:03.684Z</time>
      </trkpt>
      <trkpt lat="45.58832" lon="5.597">
        <ele>227</ele>
        <time>2022-05-17T06:08:04.685Z</time>
      </trkpt>
      <trkpt lat="45.58827" lon="5.59709">
        <ele>228</ele>
        <time>2022-05-17T06:08:05.685Z</time>
      </trkpt>
      <trkpt lat="45.58821" lon="5.59717">
        <ele>228</ele>
        <time>2022-05-17T06:08:06.685Z</time>
      </trkpt>
      <trkpt lat="45.58815" lon="5.59725">
        <ele>229</ele>
        <time>2022-05-17T06:08:07.684Z</time>
      </trkpt>
      <trkpt lat="45.58809" lon="5.59733">
        <ele>229</ele>
        <time>2022-05-17T06:08:08.685Z</time>
      </trkpt>
      <trkpt lat="45.58803" lon="5.59741">
        <ele>229</ele>
        <time>2022-05-17T06:08:09.685Z</time>
      </trkpt>
      <trkpt lat="45.58797" lon="5.59749">
        <ele>229</ele>
        <time>2022-05-17T06:08:10.685Z</time>
      </trkpt>
      <trkpt lat="45.5879" lon="5.5976">
        <ele>228</ele>
        <time>2022-05-17T06:08:11.685Z</time>
      </trkpt>
      <trkpt lat="45.58785" lon="5.59767">
        <ele>228</ele>
        <time>2022-05-17T06:08:12.685Z</time>
      </trkpt>
      <trkpt lat="45.5878" lon="5.59776">
        <ele>227</ele>
        <time>2022-05-17T06:08:13.685Z</time>
      </trkpt>
      <trkpt lat="45.58775" lon="5.59785">
        <ele>226</ele>
        <time>2022-05-17T06:08:14.685Z</time>
      </trkpt>
      <trkpt lat="45.5877" lon="5.59794">
        <ele>226</ele>
        <time>2022-05-17T06:08:15.685Z</time>
      </trkpt>
      <trkpt lat="45.58766" lon="5.59804">
        <ele>226</ele>
        <time>2022-05-17T06:08:16.685Z</time>
      </trkpt>
      <trkpt lat="45.58763" lon="5.59813">
        <ele>225</ele>
        <time>2022-05-17T06:08:17.685Z</time>
      </trkpt>
      <trkpt lat="45.5876" lon="5.59824">
        <ele>225</ele>
        <time>2022-05-17T06:08:18.685Z</time>
      </trkpt>
      <trkpt lat="45.58757" lon="5.59834">
        <ele>225</ele>
        <time>2022-05-17T06:08:19.685Z</time>
      </trkpt>
      <trkpt lat="45.58755" lon="5.59844">
        <ele>225</ele>
        <time>2022-05-17T06:08:20.684Z</time>
      </trkpt>
      <trkpt lat="45.58752" lon="5.59855">
        <ele>225</ele>
        <time>2022-05-17T06:08:21.684Z</time>
      </trkpt>
      <trkpt lat="45.5875" lon="5.59865">
        <ele>225</ele>
        <time>2022-05-17T06:08:22.684Z</time>
      </trkpt>
      <trkpt lat="45.58748" lon="5.59876">
        <ele>225</ele>
        <time>2022-05-17T06:08:23.684Z</time>
      </trkpt>
      <trkpt lat="45.58745" lon="5.59885">
        <ele>225</ele>
        <time>2022-05-17T06:08:24.684Z</time>
      </trkpt>
      <trkpt lat="45.58741" lon="5.59893">
        <ele>224</ele>
        <time>2022-05-17T06:08:25.684Z</time>
      </trkpt>
      <trkpt lat="45.58738" lon="5.59903">
        <ele>223</ele>
        <time>2022-05-17T06:08:26.684Z</time>
      </trkpt>
      <trkpt lat="45.58736" lon="5.59913">
        <ele>222</ele>
        <time>2022-05-17T06:08:27.684Z</time>
      </trkpt>
      <trkpt lat="45.58733" lon="5.59923">
        <ele>221</ele>
        <time>2022-05-17T06:08:28.684Z</time>
      </trkpt>
      <trkpt lat="45.58731" lon="5.59932">
        <ele>221</ele>
        <time>2022-05-17T06:08:29.684Z</time>
      </trkpt>
      <trkpt lat="45.5873" lon="5.59942">
        <ele>220</ele>
        <time>2022-05-17T06:08:30.685Z</time>
      </trkpt>
      <trkpt lat="45.58728" lon="5.59952">
        <ele>220</ele>
        <time>2022-05-17T06:08:31.684Z</time>
      </trkpt>
      <trkpt lat="45.58726" lon="5.59962">
        <ele>221</ele>
        <time>2022-05-17T06:08:32.685Z</time>
      </trkpt>
      <trkpt lat="45.58725" lon="5.59972">
        <ele>221</ele>
        <time>2022-05-17T06:08:33.684Z</time>
      </trkpt>
      <trkpt lat="45.58724" lon="5.59982">
        <ele>221</ele>
        <time>2022-05-17T06:08:34.685Z</time>
      </trkpt>
      <trkpt lat="45.58723" lon="5.59992">
        <ele>222</ele>
        <time>2022-05-17T06:08:35.684Z</time>
      </trkpt>
      <trkpt lat="45.58722" lon="5.60003">
        <ele>222</ele>
        <time>2022-05-17T06:08:36.685Z</time>
      </trkpt>
      <trkpt lat="45.58722" lon="5.60013">
        <ele>222</ele>
        <time>2022-05-17T06:08:37.685Z</time>
      </trkpt>
      <trkpt lat="45.58722" lon="5.60024">
        <ele>222</ele>
        <time>2022-05-17T06:08:38.685Z</time>
      </trkpt>
      <trkpt lat="45.58722" lon="5.60035">
        <ele>223</ele>
        <time>2022-05-17T06:08:39.684Z</time>
      </trkpt>
      <trkpt lat="45.58722" lon="5.60046">
        <ele>223</ele>
        <time>2022-05-17T06:08:40.685Z</time>
      </trkpt>
      <trkpt lat="45.58722" lon="5.60058">
        <ele>223</ele>
        <time>2022-05-17T06:08:41.685Z</time>
      </trkpt>
      <trkpt lat="45.58722" lon="5.6007">
        <ele>224</ele>
        <time>2022-05-17T06:08:42.685Z</time>
      </trkpt>
      <trkpt lat="45.58722" lon="5.60081">
        <ele>224</ele>
        <time>2022-05-17T06:08:43.685Z</time>
      </trkpt>
      <trkpt lat="45.58721" lon="5.60093">
        <ele>224</ele>
        <time>2022-05-17T06:08:44.685Z</time>
      </trkpt>
      <trkpt lat="45.5872" lon="5.60105">
        <ele>224</ele>
        <time>2022-05-17T06:08:45.684Z</time>
      </trkpt>
      <trkpt lat="45.58719" lon="5.60117">
        <ele>224</ele>
        <time>2022-05-17T06:08:46.685Z</time>
      </trkpt>
      <trkpt lat="45.58718" lon="5.60129">
        <ele>225</ele>
        <time>2022-05-17T06:08:47.684Z</time>
      </trkpt>
      <trkpt lat="45.58716" lon="5.60141">
        <ele>225</ele>
        <time>2022-05-17T06:08:48.685Z</time>
      </trkpt>
      <trkpt lat="45.58715" lon="5.60153">
        <ele>225</ele>
        <time>2022-05-17T06:08:49.685Z</time>
      </trkpt>
      <trkpt lat="45.58713" lon="5.60165">
        <ele>226</ele>
        <time>2022-05-17T06:08:50.685Z</time>
      </trkpt>
      <trkpt lat="45.58712" lon="5.60176">
        <ele>226</ele>
        <time>2022-05-17T06:08:51.684Z</time>
      </trkpt>
      <trkpt lat="45.5871" lon="5.60188">
        <ele>225</ele>
        <time>2022-05-17T06:08:52.684Z</time>
      </trkpt>
      <trkpt lat="45.58709" lon="5.60199">
        <ele>225</ele>
        <time>2022-05-17T06:08:53.685Z</time>
      </trkpt>
      <trkpt lat="45.58708" lon="5.6021">
        <ele>225</ele>
        <time>2022-05-17T06:08:54.685Z</time>
      </trkpt>
      <trkpt lat="45.58707" lon="5.60221">
        <ele>225</ele>
        <time>2022-05-17T06:08:55.685Z</time>
      </trkpt>
      <trkpt lat="45.58705" lon="5.60231">
        <ele>225</ele>
        <time>2022-05-17T06:08:56.685Z</time>
      </trkpt>
      <trkpt lat="45.58704" lon="5.60241">
        <ele>225</ele>
        <time>2022-05-17T06:08:57.684Z</time>
      </trkpt>
      <trkpt lat="45.58703" lon="5.6025">
        <ele>225</ele>
        <time>2022-05-17T06:08:58.685Z</time>
      </trkpt>
      <trkpt lat="45.58701" lon="5.60259">
        <ele>225</ele>
        <time>2022-05-17T06:08:59.685Z</time>
      </trkpt>
      <trkpt lat="45.587" lon="5.60267">
        <ele>225</ele>
        <time>2022-05-17T06:09:00.685Z</time>
      </trkpt>
      <trkpt lat="45.58698" lon="5.60274">
        <ele>225</ele>
        <time>2022-05-17T06:09:01.685Z</time>
      </trkpt>
      <trkpt lat="45.58696" lon="5.6028">
        <ele>225</ele>
        <time>2022-05-17T06:09:02.685Z</time>
      </trkpt>
      <trkpt lat="45.58694" lon="5.60284">
        <ele>225</ele>
        <time>2022-05-17T06:09:03.685Z</time>
      </trkpt>
      <trkpt lat="45.58692" lon="5.60288">
        <ele>225</ele>
        <time>2022-05-17T06:09:04.684Z</time>
      </trkpt>
      <trkpt lat="45.5869" lon="5.60292">
        <ele>224</ele>
        <time>2022-05-17T06:09:05.685Z</time>
      </trkpt>
      <trkpt lat="45.58689" lon="5.60298">
        <ele>224</ele>
        <time>2022-05-17T06:09:06.684Z</time>
      </trkpt>
      <trkpt lat="45.58688" lon="5.60304">
        <ele>224</ele>
        <time>2022-05-17T06:09:07.684Z</time>
      </trkpt>
      <trkpt lat="45.58689" lon="5.6031">
        <ele>224</ele>
        <time>2022-05-17T06:09:08.685Z</time>
      </trkpt>
      <trkpt lat="45.5869" lon="5.60317">
        <ele>224</ele>
        <time>2022-05-17T06:09:09.685Z</time>
      </trkpt>
      <trkpt lat="45.5869" lon="5.60324">
        <ele>224</ele>
        <time>2022-05-17T06:09:10.685Z</time>
      </trkpt>
      <trkpt lat="45.5869" lon="5.60331">
        <ele>224</ele>
        <time>2022-05-17T06:09:11.684Z</time>
      </trkpt>
      <trkpt lat="45.5869" lon="5.60339">
        <ele>224</ele>
        <time>2022-05-17T06:09:12.685Z</time>
      </trkpt>
      <trkpt lat="45.5869" lon="5.60347">
        <ele>224</ele>
        <time>2022-05-17T06:09:13.685Z</time>
      </trkpt>
      <trkpt lat="45.58691" lon="5.60355">
        <ele>224</ele>
        <time>2022-05-17T06:09:14.684Z</time>
      </trkpt>
      <trkpt lat="45.58694" lon="5.60362">
        <ele>224</ele>
        <time>2022-05-17T06:09:15.684Z</time>
      </trkpt>
      <trkpt lat="45.58697" lon="5.60369">
        <ele>224</ele>
        <time>2022-05-17T06:09:16.685Z</time>
      </trkpt>
      <trkpt lat="45.58701" lon="5.60376">
        <ele>224</ele>
        <time>2022-05-17T06:09:17.684Z</time>
      </trkpt>
      <trkpt lat="45.58706" lon="5.60385">
        <ele>224</ele>
        <time>2022-05-17T06:09:18.685Z</time>
      </trkpt>
      <trkpt lat="45.5871" lon="5.60392">
        <ele>224</ele>
        <time>2022-05-17T06:09:19.684Z</time>
      </trkpt>
      <trkpt lat="45.58713" lon="5.60401">
        <ele>223</ele>
        <time>2022-05-17T06:09:20.684Z</time>
      </trkpt>
      <trkpt lat="45.58716" lon="5.6041">
        <ele>223</ele>
        <time>2022-05-17T06:09:21.685Z</time>
      </trkpt>
      <trkpt lat="45.58719" lon="5.6042">
        <ele>223</ele>
        <time>2022-05-17T06:09:22.684Z</time>
      </trkpt>
      <trkpt lat="45.58722" lon="5.60431">
        <ele>223</ele>
        <time>2022-05-17T06:09:23.685Z</time>
      </trkpt>
      <trkpt lat="45.58724" lon="5.60441">
        <ele>223</ele>
        <time>2022-05-17T06:09:24.685Z</time>
      </trkpt>
      <trkpt lat="45.58726" lon="5.60451">
        <ele>223</ele>
        <time>2022-05-17T06:09:25.684Z</time>
      </trkpt>
      <trkpt lat="45.58729" lon="5.60461">
        <ele>223</ele>
        <time>2022-05-17T06:09:26.684Z</time>
      </trkpt>
      <trkpt lat="45.58731" lon="5.60474">
        <ele>223</ele>
        <time>2022-05-17T06:09:27.684Z</time>
      </trkpt>
      <trkpt lat="45.58733" lon="5.60484">
        <ele>223</ele>
        <time>2022-05-17T06:09:28.684Z</time>
      </trkpt>
      <trkpt lat="45.58733" lon="5.60493">
        <ele>222</ele>
        <time>2022-05-17T06:09:29.684Z</time>
      </trkpt>
      <trkpt lat="45.58735" lon="5.60503">
        <ele>222</ele>
        <time>2022-05-17T06:09:30.685Z</time>
      </trkpt>
      <trkpt lat="45.58737" lon="5.60515">
        <ele>221</ele>
        <time>2022-05-17T06:09:31.684Z</time>
      </trkpt>
      <trkpt lat="45.58738" lon="5.60525">
        <ele>221</ele>
        <time>2022-05-17T06:09:32.684Z</time>
      </trkpt>
      <trkpt lat="45.5874" lon="5.60532">
        <ele>221</ele>
        <time>2022-05-17T06:09:33.684Z</time>
      </trkpt>
      <trkpt lat="45.58741" lon="5.60541">
        <ele>221</ele>
        <time>2022-05-17T06:09:34.685Z</time>
      </trkpt>
      <trkpt lat="45.58743" lon="5.6055">
        <ele>221</ele>
        <time>2022-05-17T06:09:35.684Z</time>
      </trkpt>
      <trkpt lat="45.58744" lon="5.60559">
        <ele>222</ele>
        <time>2022-05-17T06:09:36.685Z</time>
      </trkpt>
      <trkpt lat="45.58744" lon="5.60567">
        <ele>222</ele>
        <time>2022-05-17T06:09:37.684Z</time>
      </trkpt>
      <trkpt lat="45.58744" lon="5.60575">
        <ele>222</ele>
        <time>2022-05-17T06:09:38.685Z</time>
      </trkpt>
      <trkpt lat="45.58745" lon="5.60583">
        <ele>222</ele>
        <time>2022-05-17T06:09:39.685Z</time>
      </trkpt>
      <trkpt lat="45.58745" lon="5.60591">
        <ele>222</ele>
        <time>2022-05-17T06:09:40.684Z</time>
      </trkpt>
      <trkpt lat="45.58745" lon="5.60598">
        <ele>222</ele>
        <time>2022-05-17T06:09:41.684Z</time>
      </trkpt>
      <trkpt lat="45.58745" lon="5.60606">
        <ele>222</ele>
        <time>2022-05-17T06:09:42.684Z</time>
      </trkpt>
      <trkpt lat="45.58744" lon="5.60615">
        <ele>222</ele>
        <time>2022-05-17T06:09:43.684Z</time>
      </trkpt>
      <trkpt lat="45.58744" lon="5.6062">
        <ele>222</ele>
        <time>2022-05-17T06:09:44.684Z</time>
      </trkpt>
      <trkpt lat="45.58743" lon="5.60627">
        <ele>223</ele>
        <time>2022-05-17T06:09:45.685Z</time>
      </trkpt>
      <trkpt lat="45.58741" lon="5.60635">
        <ele>223</ele>
        <time>2022-05-17T06:09:46.685Z</time>
      </trkpt>
      <trkpt lat="45.58741" lon="5.60642">
        <ele>223</ele>
        <time>2022-05-17T06:09:47.685Z</time>
      </trkpt>
      <trkpt lat="45.58741" lon="5.60647">
        <ele>224</ele>
        <time>2022-05-17T06:09:48.685Z</time>
      </trkpt>
      <trkpt lat="45.58741" lon="5.60654">
        <ele>224</ele>
        <time>2022-05-17T06:09:49.685Z</time>
      </trkpt>
      <trkpt lat="45.58741" lon="5.60662">
        <ele>225</ele>
        <time>2022-05-17T06:09:50.685Z</time>
      </trkpt>
      <trkpt lat="45.58741" lon="5.60667">
        <ele>225</ele>
        <time>2022-05-17T06:09:51.685Z</time>
      </trkpt>
      <trkpt lat="45.58741" lon="5.60671">
        <ele>225</ele>
        <time>2022-05-17T06:09:52.684Z</time>
      </trkpt>
      <trkpt lat="45.58741" lon="5.60676">
        <ele>225</ele>
        <time>2022-05-17T06:09:53.684Z</time>
      </trkpt>
      <trkpt lat="45.58742" lon="5.6068">
        <ele>225</ele>
        <time>2022-05-17T06:09:54.685Z</time>
      </trkpt>
      <trkpt lat="45.58742" lon="5.60684">
        <ele>225</ele>
        <time>2022-05-17T06:09:55.685Z</time>
      </trkpt>
      <trkpt lat="45.58742" lon="5.60687">
        <ele>226</ele>
        <time>2022-05-17T06:09:56.685Z</time>
      </trkpt>
      <trkpt lat="45.58742" lon="5.6069">
        <ele>226</ele>
        <time>2022-05-17T06:09:57.684Z</time>
      </trkpt>
      <trkpt lat="45.58741" lon="5.60694">
        <ele>226</ele>
        <time>2022-05-17T06:09:58.684Z</time>
      </trkpt>
      <trkpt lat="45.58741" lon="5.60699">
        <ele>227</ele>
        <time>2022-05-17T06:09:59.685Z</time>
      </trkpt>
      <trkpt lat="45.58742" lon="5.60704">
        <ele>227</ele>
        <time>2022-05-17T06:10:00.685Z</time>
      </trkpt>
      <trkpt lat="45.58743" lon="5.60709">
        <ele>228</ele>
        <time>2022-05-17T06:10:01.684Z</time>
      </trkpt>
      <trkpt lat="45.58743" lon="5.60713">
        <ele>228</ele>
        <time>2022-05-17T06:10:02.684Z</time>
      </trkpt>
      <trkpt lat="45.58744" lon="5.60717">
        <ele>228</ele>
        <time>2022-05-17T06:10:03.684Z</time>
      </trkpt>
      <trkpt lat="45.58745" lon="5.60722">
        <ele>228</ele>
        <time>2022-05-17T06:10:04.685Z</time>
      </trkpt>
      <trkpt lat="45.58746" lon="5.60729">
        <ele>228</ele>
        <time>2022-05-17T06:10:05.685Z</time>
      </trkpt>
      <trkpt lat="45.58746" lon="5.60736">
        <ele>228</ele>
        <time>2022-05-17T06:10:06.685Z</time>
      </trkpt>
      <trkpt lat="45.58747" lon="5.60744">
        <ele>228</ele>
        <time>2022-05-17T06:10:07.684Z</time>
      </trkpt>
      <trkpt lat="45.58747" lon="5.6075">
        <ele>228</ele>
        <time>2022-05-17T06:10:08.684Z</time>
      </trkpt>
      <trkpt lat="45.58747" lon="5.60759">
        <ele>228</ele>
        <time>2022-05-17T06:10:09.685Z</time>
      </trkpt>
      <trkpt lat="45.58747" lon="5.60768">
        <ele>228</ele>
        <time>2022-05-17T06:10:10.685Z</time>
      </trkpt>
      <trkpt lat="45.58747" lon="5.60778">
        <ele>228</ele>
        <time>2022-05-17T06:10:11.684Z</time>
      </trkpt>
      <trkpt lat="45.58746" lon="5.60786">
        <ele>228</ele>
        <time>2022-05-17T06:10:12.684Z</time>
      </trkpt>
      <trkpt lat="45.58746" lon="5.60795">
        <ele>228</ele>
        <time>2022-05-17T06:10:13.684Z</time>
      </trkpt>
      <trkpt lat="45.58746" lon="5.60807">
        <ele>228</ele>
        <time>2022-05-17T06:10:14.685Z</time>
      </trkpt>
      <trkpt lat="45.58746" lon="5.60816">
        <ele>227</ele>
        <time>2022-05-17T06:10:15.685Z</time>
      </trkpt>
      <trkpt lat="45.58746" lon="5.60826">
        <ele>227</ele>
        <time>2022-05-17T06:10:16.685Z</time>
      </trkpt>
      <trkpt lat="45.58746" lon="5.60837">
        <ele>227</ele>
        <time>2022-05-17T06:10:17.684Z</time>
      </trkpt>
      <trkpt lat="45.58745" lon="5.60847">
        <ele>227</ele>
        <time>2022-05-17T06:10:18.684Z</time>
      </trkpt>
      <trkpt lat="45.58744" lon="5.60861">
        <ele>227</ele>
        <time>2022-05-17T06:10:19.685Z</time>
      </trkpt>
      <trkpt lat="45.58744" lon="5.60873">
        <ele>227</ele>
        <time>2022-05-17T06:10:20.684Z</time>
      </trkpt>
      <trkpt lat="45.58744" lon="5.60884">
        <ele>227</ele>
        <time>2022-05-17T06:10:21.684Z</time>
      </trkpt>
      <trkpt lat="45.58744" lon="5.60893">
        <ele>227</ele>
        <time>2022-05-17T06:10:22.684Z</time>
      </trkpt>
      <trkpt lat="45.58745" lon="5.60904">
        <ele>227</ele>
        <time>2022-05-17T06:10:23.684Z</time>
      </trkpt>
      <trkpt lat="45.58745" lon="5.60915">
        <ele>227</ele>
        <time>2022-05-17T06:10:24.684Z</time>
      </trkpt>
      <trkpt lat="45.58746" lon="5.60928">
        <ele>226</ele>
        <time>2022-05-17T06:10:25.685Z</time>
      </trkpt>
      <trkpt lat="45.58746" lon="5.60936">
        <ele>226</ele>
        <time>2022-05-17T06:10:26.685Z</time>
      </trkpt>
      <trkpt lat="45.58746" lon="5.60947">
        <ele>226</ele>
        <time>2022-05-17T06:10:27.684Z</time>
      </trkpt>
      <trkpt lat="45.58747" lon="5.6096">
        <ele>226</ele>
        <time>2022-05-17T06:10:28.684Z</time>
      </trkpt>
      <trkpt lat="45.58748" lon="5.60971">
        <ele>226</ele>
        <time>2022-05-17T06:10:29.684Z</time>
      </trkpt>
      <trkpt lat="45.58749" lon="5.60982">
        <ele>226</ele>
        <time>2022-05-17T06:10:30.685Z</time>
      </trkpt>
      <trkpt lat="45.5875" lon="5.6099">
        <ele>226</ele>
        <time>2022-05-17T06:10:31.685Z</time>
      </trkpt>
      <trkpt lat="45.58751" lon="5.61">
        <ele>225</ele>
        <time>2022-05-17T06:10:32.684Z</time>
      </trkpt>
      <trkpt lat="45.58752" lon="5.61011">
        <ele>225</ele>
        <time>2022-05-17T06:10:33.684Z</time>
      </trkpt>
      <trkpt lat="45.58754" lon="5.61024">
        <ele>225</ele>
        <time>2022-05-17T06:10:34.684Z</time>
      </trkpt>
      <trkpt lat="45.58755" lon="5.61034">
        <ele>225</ele>
        <time>2022-05-17T06:10:35.684Z</time>
      </trkpt>
      <trkpt lat="45.58756" lon="5.61043">
        <ele>225</ele>
        <time>2022-05-17T06:10:36.684Z</time>
      </trkpt>
      <trkpt lat="45.58758" lon="5.61054">
        <ele>225</ele>
        <time>2022-05-17T06:10:37.684Z</time>
      </trkpt>
      <trkpt lat="45.5876" lon="5.61066">
        <ele>225</ele>
        <time>2022-05-17T06:10:38.684Z</time>
      </trkpt>
      <trkpt lat="45.58762" lon="5.61077">
        <ele>224</ele>
        <time>2022-05-17T06:10:39.685Z</time>
      </trkpt>
      <trkpt lat="45.58764" lon="5.61085">
        <ele>224</ele>
        <time>2022-05-17T06:10:40.684Z</time>
      </trkpt>
      <trkpt lat="45.58767" lon="5.61095">
        <ele>224</ele>
        <time>2022-05-17T06:10:41.684Z</time>
      </trkpt>
      <trkpt lat="45.5877" lon="5.61108">
        <ele>224</ele>
        <time>2022-05-17T06:10:42.684Z</time>
      </trkpt>
      <trkpt lat="45.58773" lon="5.61118">
        <ele>224</ele>
        <time>2022-05-17T06:10:43.684Z</time>
      </trkpt>
      <trkpt lat="45.58777" lon="5.61126">
        <ele>224</ele>
        <time>2022-05-17T06:10:44.684Z</time>
      </trkpt>
      <trkpt lat="45.58781" lon="5.61135">
        <ele>225</ele>
        <time>2022-05-17T06:10:45.684Z</time>
      </trkpt>
      <trkpt lat="45.58785" lon="5.61145">
        <ele>225</ele>
        <time>2022-05-17T06:10:46.684Z</time>
      </trkpt>
      <trkpt lat="45.58788" lon="5.61155">
        <ele>224</ele>
        <time>2022-05-17T06:10:47.684Z</time>
      </trkpt>
      <trkpt lat="45.58792" lon="5.61164">
        <ele>224</ele>
        <time>2022-05-17T06:10:48.685Z</time>
      </trkpt>
      <trkpt lat="45.58796" lon="5.61177">
        <ele>224</ele>
        <time>2022-05-17T06:10:49.684Z</time>
      </trkpt>
      <trkpt lat="45.588" lon="5.61184">
        <ele>224</ele>
        <time>2022-05-17T06:10:50.684Z</time>
      </trkpt>
      <trkpt lat="45.58805" lon="5.61193">
        <ele>225</ele>
        <time>2022-05-17T06:10:51.684Z</time>
      </trkpt>
      <trkpt lat="45.58811" lon="5.61201">
        <ele>225</ele>
        <time>2022-05-17T06:10:52.684Z</time>
      </trkpt>
      <trkpt lat="45.58818" lon="5.61209">
        <ele>225</ele>
        <time>2022-05-17T06:10:53.685Z</time>
      </trkpt>
      <trkpt lat="45.58825" lon="5.61215">
        <ele>225</ele>
        <time>2022-05-17T06:10:54.684Z</time>
      </trkpt>
      <trkpt lat="45.58833" lon="5.61221">
        <ele>224</ele>
        <time>2022-05-17T06:10:55.685Z</time>
      </trkpt>
      <trkpt lat="45.58842" lon="5.61226">
        <ele>224</ele>
        <time>2022-05-17T06:10:56.685Z</time>
      </trkpt>
      <trkpt lat="45.5885" lon="5.6123">
        <ele>224</ele>
        <time>2022-05-17T06:10:57.685Z</time>
      </trkpt>
      <trkpt lat="45.58859" lon="5.61233">
        <ele>223</ele>
        <time>2022-05-17T06:10:58.685Z</time>
      </trkpt>
      <trkpt lat="45.58868" lon="5.61237">
        <ele>223</ele>
        <time>2022-05-17T06:10:59.685Z</time>
      </trkpt>
      <trkpt lat="45.58878" lon="5.6124">
        <ele>222</ele>
        <time>2022-05-17T06:11:00.685Z</time>
      </trkpt>
      <trkpt lat="45.58887" lon="5.61243">
        <ele>222</ele>
        <time>2022-05-17T06:11:01.685Z</time>
      </trkpt>
      <trkpt lat="45.58899" lon="5.61246">
        <ele>222</ele>
        <time>2022-05-17T06:11:02.684Z</time>
      </trkpt>
      <trkpt lat="45.58908" lon="5.61248">
        <ele>222</ele>
        <time>2022-05-17T06:11:03.685Z</time>
      </trkpt>
      <trkpt lat="45.58918" lon="5.61251">
        <ele>222</ele>
        <time>2022-05-17T06:11:04.685Z</time>
      </trkpt>
      <trkpt lat="45.58925" lon="5.61253">
        <ele>222</ele>
        <time>2022-05-17T06:11:05.684Z</time>
      </trkpt>
      <trkpt lat="45.58935" lon="5.61256">
        <ele>221</ele>
        <time>2022-05-17T06:11:06.685Z</time>
      </trkpt>
      <trkpt lat="45.58946" lon="5.61259">
        <ele>221</ele>
        <time>2022-05-17T06:11:07.684Z</time>
      </trkpt>
      <trkpt lat="45.58955" lon="5.61262">
        <ele>221</ele>
        <time>2022-05-17T06:11:08.685Z</time>
      </trkpt>
      <trkpt lat="45.58964" lon="5.61265">
        <ele>221</ele>
        <time>2022-05-17T06:11:09.685Z</time>
      </trkpt>
      <trkpt lat="45.58972" lon="5.61267">
        <ele>221</ele>
        <time>2022-05-17T06:11:10.685Z</time>
      </trkpt>
      <trkpt lat="45.58981" lon="5.6127">
        <ele>220</ele>
        <time>2022-05-17T06:11:11.685Z</time>
      </trkpt>
      <trkpt lat="45.58989" lon="5.61273">
        <ele>220</ele>
        <time>2022-05-17T06:11:12.684Z</time>
      </trkpt>
      <trkpt lat="45.58998" lon="5.61277">
        <ele>220</ele>
        <time>2022-05-17T06:11:13.684Z</time>
      </trkpt>
      <trkpt lat="45.59006" lon="5.61282">
        <ele>220</ele>
        <time>2022-05-17T06:11:14.685Z</time>
      </trkpt>
      <trkpt lat="45.59014" lon="5.61287">
        <ele>220</ele>
        <time>2022-05-17T06:11:15.685Z</time>
      </trkpt>
      <trkpt lat="45.59022" lon="5.61293">
        <ele>221</ele>
        <time>2022-05-17T06:11:16.685Z</time>
      </trkpt>
      <trkpt lat="45.5903" lon="5.61299">
        <ele>221</ele>
        <time>2022-05-17T06:11:17.684Z</time>
      </trkpt>
      <trkpt lat="45.59037" lon="5.61306">
        <ele>221</ele>
        <time>2022-05-17T06:11:18.685Z</time>
      </trkpt>
      <trkpt lat="45.59043" lon="5.61313">
        <ele>220</ele>
        <time>2022-05-17T06:11:19.685Z</time>
      </trkpt>
      <trkpt lat="45.5905" lon="5.61321">
        <ele>220</ele>
        <time>2022-05-17T06:11:20.684Z</time>
      </trkpt>
      <trkpt lat="45.59057" lon="5.61331">
        <ele>220</ele>
        <time>2022-05-17T06:11:21.684Z</time>
      </trkpt>
      <trkpt lat="45.59063" lon="5.6134">
        <ele>220</ele>
        <time>2022-05-17T06:11:22.685Z</time>
      </trkpt>
      <trkpt lat="45.59068" lon="5.6135">
        <ele>220</ele>
        <time>2022-05-17T06:11:23.685Z</time>
      </trkpt>
      <trkpt lat="45.59072" lon="5.6136">
        <ele>220</ele>
        <time>2022-05-17T06:11:24.685Z</time>
      </trkpt>
      <trkpt lat="45.59074" lon="5.61369">
        <ele>220</ele>
        <time>2022-05-17T06:11:25.685Z</time>
      </trkpt>
      <trkpt lat="45.59077" lon="5.6138">
        <ele>220</ele>
        <time>2022-05-17T06:11:26.685Z</time>
      </trkpt>
      <trkpt lat="45.5908" lon="5.6139">
        <ele>219</ele>
        <time>2022-05-17T06:11:27.685Z</time>
      </trkpt>
      <trkpt lat="45.59083" lon="5.61401">
        <ele>219</ele>
        <time>2022-05-17T06:11:28.685Z</time>
      </trkpt>
      <trkpt lat="45.59086" lon="5.61415">
        <ele>219</ele>
        <time>2022-05-17T06:11:29.684Z</time>
      </trkpt>
      <trkpt lat="45.59088" lon="5.61424">
        <ele>219</ele>
        <time>2022-05-17T06:11:30.685Z</time>
      </trkpt>
      <trkpt lat="45.59091" lon="5.61435">
        <ele>219</ele>
        <time>2022-05-17T06:11:31.685Z</time>
      </trkpt>
      <trkpt lat="45.59093" lon="5.61446">
        <ele>219</ele>
        <time>2022-05-17T06:11:32.684Z</time>
      </trkpt>
      <trkpt lat="45.59096" lon="5.61457">
        <ele>219</ele>
        <time>2022-05-17T06:11:33.684Z</time>
      </trkpt>
      <trkpt lat="45.59099" lon="5.61468">
        <ele>220</ele>
        <time>2022-05-17T06:11:34.685Z</time>
      </trkpt>
      <trkpt lat="45.59101" lon="5.61479">
        <ele>220</ele>
        <time>2022-05-17T06:11:35.685Z</time>
      </trkpt>
      <trkpt lat="45.59104" lon="5.6149">
        <ele>220</ele>
        <time>2022-05-17T06:11:36.685Z</time>
      </trkpt>
      <trkpt lat="45.59106" lon="5.61501">
        <ele>220</ele>
        <time>2022-05-17T06:11:37.685Z</time>
      </trkpt>
      <trkpt lat="45.59109" lon="5.61512">
        <ele>220</ele>
        <time>2022-05-17T06:11:38.685Z</time>
      </trkpt>
      <trkpt lat="45.59112" lon="5.61523">
        <ele>220</ele>
        <time>2022-05-17T06:11:39.685Z</time>
      </trkpt>
      <trkpt lat="45.59115" lon="5.61534">
        <ele>220</ele>
        <time>2022-05-17T06:11:40.684Z</time>
      </trkpt>
      <trkpt lat="45.59119" lon="5.61545">
        <ele>221</ele>
        <time>2022-05-17T06:11:41.685Z</time>
      </trkpt>
      <trkpt lat="45.59122" lon="5.61556">
        <ele>221</ele>
        <time>2022-05-17T06:11:42.685Z</time>
      </trkpt>
      <trkpt lat="45.59125" lon="5.61567">
        <ele>221</ele>
        <time>2022-05-17T06:11:43.685Z</time>
      </trkpt>
      <trkpt lat="45.59128" lon="5.61579">
        <ele>221</ele>
        <time>2022-05-17T06:11:44.684Z</time>
      </trkpt>
      <trkpt lat="45.59132" lon="5.6159">
        <ele>221</ele>
        <time>2022-05-17T06:11:45.685Z</time>
      </trkpt>
      <trkpt lat="45.59136" lon="5.61601">
        <ele>221</ele>
        <time>2022-05-17T06:11:46.685Z</time>
      </trkpt>
      <trkpt lat="45.59139" lon="5.61612">
        <ele>221</ele>
        <time>2022-05-17T06:11:47.685Z</time>
      </trkpt>
      <trkpt lat="45.59143" lon="5.61623">
        <ele>221</ele>
        <time>2022-05-17T06:11:48.685Z</time>
      </trkpt>
      <trkpt lat="45.59146" lon="5.61634">
        <ele>221</ele>
        <time>2022-05-17T06:11:49.685Z</time>
      </trkpt>
      <trkpt lat="45.59151" lon="5.61645">
        <ele>221</ele>
        <time>2022-05-17T06:11:50.685Z</time>
      </trkpt>
      <trkpt lat="45.59155" lon="5.61656">
        <ele>221</ele>
        <time>2022-05-17T06:11:51.685Z</time>
      </trkpt>
      <trkpt lat="45.59159" lon="5.61667">
        <ele>221</ele>
        <time>2022-05-17T06:11:52.685Z</time>
      </trkpt>
      <trkpt lat="45.59163" lon="5.61678">
        <ele>221</ele>
        <time>2022-05-17T06:11:53.685Z</time>
      </trkpt>
      <trkpt lat="45.59166" lon="5.61688">
        <ele>221</ele>
        <time>2022-05-17T06:11:54.684Z</time>
      </trkpt>
      <trkpt lat="45.5917" lon="5.61699">
        <ele>221</ele>
        <time>2022-05-17T06:11:55.684Z</time>
      </trkpt>
      <trkpt lat="45.59174" lon="5.61709">
        <ele>221</ele>
        <time>2022-05-17T06:11:56.685Z</time>
      </trkpt>
      <trkpt lat="45.59178" lon="5.6172">
        <ele>220</ele>
        <time>2022-05-17T06:11:57.685Z</time>
      </trkpt>
      <trkpt lat="45.59183" lon="5.6173">
        <ele>220</ele>
        <time>2022-05-17T06:11:58.685Z</time>
      </trkpt>
      <trkpt lat="45.59188" lon="5.6174">
        <ele>220</ele>
        <time>2022-05-17T06:11:59.685Z</time>
      </trkpt>
      <trkpt lat="45.59193" lon="5.61749">
        <ele>221</ele>
        <time>2022-05-17T06:12:00.685Z</time>
      </trkpt>
      <trkpt lat="45.59199" lon="5.61758">
        <ele>221</ele>
        <time>2022-05-17T06:12:01.684Z</time>
      </trkpt>
      <trkpt lat="45.59204" lon="5.61767">
        <ele>221</ele>
        <time>2022-05-17T06:12:02.685Z</time>
      </trkpt>
      <trkpt lat="45.5921" lon="5.61776">
        <ele>220</ele>
        <time>2022-05-17T06:12:03.685Z</time>
      </trkpt>
      <trkpt lat="45.59215" lon="5.61784">
        <ele>220</ele>
        <time>2022-05-17T06:12:04.685Z</time>
      </trkpt>
      <trkpt lat="45.59221" lon="5.61793">
        <ele>220</ele>
        <time>2022-05-17T06:12:05.685Z</time>
      </trkpt>
      <trkpt lat="45.59227" lon="5.61802">
        <ele>220</ele>
        <time>2022-05-17T06:12:06.685Z</time>
      </trkpt>
      <trkpt lat="45.59233" lon="5.6181">
        <ele>221</ele>
        <time>2022-05-17T06:12:07.684Z</time>
      </trkpt>
      <trkpt lat="45.59239" lon="5.61819">
        <ele>221</ele>
        <time>2022-05-17T06:12:08.685Z</time>
      </trkpt>
      <trkpt lat="45.59245" lon="5.61827">
        <ele>221</ele>
        <time>2022-05-17T06:12:09.685Z</time>
      </trkpt>
      <trkpt lat="45.59251" lon="5.61836">
        <ele>221</ele>
        <time>2022-05-17T06:12:10.685Z</time>
      </trkpt>
      <trkpt lat="45.59257" lon="5.61845">
        <ele>221</ele>
        <time>2022-05-17T06:12:11.685Z</time>
      </trkpt>
      <trkpt lat="45.59262" lon="5.61853">
        <ele>221</ele>
        <time>2022-05-17T06:12:12.684Z</time>
      </trkpt>
      <trkpt lat="45.59268" lon="5.61862">
        <ele>221</ele>
        <time>2022-05-17T06:12:13.685Z</time>
      </trkpt>
      <trkpt lat="45.59274" lon="5.61871">
        <ele>221</ele>
        <time>2022-05-17T06:12:14.685Z</time>
      </trkpt>
      <trkpt lat="45.5928" lon="5.61879">
        <ele>221</ele>
        <time>2022-05-17T06:12:15.684Z</time>
      </trkpt>
      <trkpt lat="45.59285" lon="5.61888">
        <ele>221</ele>
        <time>2022-05-17T06:12:16.685Z</time>
      </trkpt>
      <trkpt lat="45.59291" lon="5.61897">
        <ele>221</ele>
        <time>2022-05-17T06:12:17.684Z</time>
      </trkpt>
      <trkpt lat="45.59297" lon="5.61906">
        <ele>221</ele>
        <time>2022-05-17T06:12:18.685Z</time>
      </trkpt>
      <trkpt lat="45.59303" lon="5.61914">
        <ele>220</ele>
        <time>2022-05-17T06:12:19.684Z</time>
      </trkpt>
      <trkpt lat="45.59309" lon="5.61923">
        <ele>220</ele>
        <time>2022-05-17T06:12:20.685Z</time>
      </trkpt>
      <trkpt lat="45.59315" lon="5.61932">
        <ele>220</ele>
        <time>2022-05-17T06:12:21.685Z</time>
      </trkpt>
      <trkpt lat="45.59321" lon="5.6194">
        <ele>221</ele>
        <time>2022-05-17T06:12:22.685Z</time>
      </trkpt>
      <trkpt lat="45.59327" lon="5.61949">
        <ele>221</ele>
        <time>2022-05-17T06:12:23.684Z</time>
      </trkpt>
      <trkpt lat="45.59333" lon="5.61958">
        <ele>222</ele>
        <time>2022-05-17T06:12:24.685Z</time>
      </trkpt>
      <trkpt lat="45.59339" lon="5.61967">
        <ele>222</ele>
        <time>2022-05-17T06:12:25.685Z</time>
      </trkpt>
      <trkpt lat="45.59344" lon="5.61976">
        <ele>222</ele>
        <time>2022-05-17T06:12:26.685Z</time>
      </trkpt>
      <trkpt lat="45.5935" lon="5.61986">
        <ele>222</ele>
        <time>2022-05-17T06:12:27.685Z</time>
      </trkpt>
      <trkpt lat="45.59354" lon="5.61996">
        <ele>222</ele>
        <time>2022-05-17T06:12:28.685Z</time>
      </trkpt>
      <trkpt lat="45.59359" lon="5.62006">
        <ele>222</ele>
        <time>2022-05-17T06:12:29.685Z</time>
      </trkpt>
      <trkpt lat="45.59364" lon="5.62016">
        <ele>221</ele>
        <time>2022-05-17T06:12:30.685Z</time>
      </trkpt>
      <trkpt lat="45.59368" lon="5.62026">
        <ele>221</ele>
        <time>2022-05-17T06:12:31.685Z</time>
      </trkpt>
      <trkpt lat="45.59372" lon="5.62036">
        <ele>221</ele>
        <time>2022-05-17T06:12:32.685Z</time>
      </trkpt>
      <trkpt lat="45.59376" lon="5.62046">
        <ele>221</ele>
        <time>2022-05-17T06:12:33.684Z</time>
      </trkpt>
      <trkpt lat="45.5938" lon="5.62055">
        <ele>221</ele>
        <time>2022-05-17T06:12:34.684Z</time>
      </trkpt>
      <trkpt lat="45.59384" lon="5.62064">
        <ele>221</ele>
        <time>2022-05-17T06:12:35.684Z</time>
      </trkpt>
      <trkpt lat="45.59388" lon="5.62073">
        <ele>221</ele>
        <time>2022-05-17T06:12:36.685Z</time>
      </trkpt>
      <trkpt lat="45.59391" lon="5.62081">
        <ele>221</ele>
        <time>2022-05-17T06:12:37.684Z</time>
      </trkpt>
      <trkpt lat="45.59394" lon="5.62088">
        <ele>221</ele>
        <time>2022-05-17T06:12:38.685Z</time>
      </trkpt>
      <trkpt lat="45.59397" lon="5.62095">
        <ele>221</ele>
        <time>2022-05-17T06:12:39.684Z</time>
      </trkpt>
      <trkpt lat="45.594" lon="5.621">
        <ele>220</ele>
        <time>2022-05-17T06:12:40.685Z</time>
      </trkpt>
      <trkpt lat="45.59402" lon="5.62105">
        <ele>220</ele>
        <time>2022-05-17T06:12:41.684Z</time>
      </trkpt>
      <trkpt lat="45.59405" lon="5.62109">
        <ele>220</ele>
        <time>2022-05-17T06:12:42.685Z</time>
      </trkpt>
      <trkpt lat="45.59407" lon="5.62113">
        <ele>221</ele>
        <time>2022-05-17T06:12:43.685Z</time>
      </trkpt>
      <trkpt lat="45.59408" lon="5.62115">
        <ele>221</ele>
        <time>2022-05-17T06:12:44.685Z</time>
      </trkpt>
      <trkpt lat="45.59409" lon="5.62117">
        <ele>220</ele>
        <time>2022-05-17T06:12:45.685Z</time>
      </trkpt>
      <trkpt lat="45.5941" lon="5.62119">
        <ele>221</ele>
        <time>2022-05-17T06:12:46.684Z</time>
      </trkpt>
      <trkpt lat="45.59411" lon="5.6212">
        <ele>221</ele>
        <time>2022-05-17T06:12:47.685Z</time>
      </trkpt>
      <trkpt lat="45.59412" lon="5.62121">
        <ele>221</ele>
        <time>2022-05-17T06:12:48.685Z</time>
      </trkpt>
      <trkpt lat="45.59412" lon="5.62122">
        <ele>221</ele>
        <time>2022-05-17T06:12:49.685Z</time>
      </trkpt>
      <trkpt lat="45.59412" lon="5.62122">
        <ele>221</ele>
        <time>2022-05-17T06:12:50.684Z</time>
      </trkpt>
      <trkpt lat="45.59413" lon="5.62123">
        <ele>221</ele>
        <time>2022-05-17T06:12:51.685Z</time>
      </trkpt>
      <trkpt lat="45.59414" lon="5.62124">
        <ele>220</ele>
        <time>2022-05-17T06:12:52.685Z</time>
      </trkpt>
      <trkpt lat="45.59415" lon="5.62127">
        <ele>220</ele>
        <time>2022-05-17T06:12:53.685Z</time>
      </trkpt>
      <trkpt lat="45.59418" lon="5.6213">
        <ele>220</ele>
        <time>2022-05-17T06:12:54.685Z</time>
      </trkpt>
      <trkpt lat="45.59421" lon="5.62135">
        <ele>220</ele>
        <time>2022-05-17T06:12:55.685Z</time>
      </trkpt>
      <trkpt lat="45.59424" lon="5.6214">
        <ele>220</ele>
        <time>2022-05-17T06:12:56.685Z</time>
      </trkpt>
      <trkpt lat="45.59428" lon="5.62147">
        <ele>221</ele>
        <time>2022-05-17T06:12:57.685Z</time>
      </trkpt>
      <trkpt lat="45.59431" lon="5.62154">
        <ele>221</ele>
        <time>2022-05-17T06:12:58.684Z</time>
      </trkpt>
      <trkpt lat="45.59435" lon="5.62162">
        <ele>221</ele>
        <time>2022-05-17T06:12:59.685Z</time>
      </trkpt>
      <trkpt lat="45.59439" lon="5.6217">
        <ele>220</ele>
        <time>2022-05-17T06:13:00.685Z</time>
      </trkpt>
      <trkpt lat="45.59443" lon="5.62179">
        <ele>220</ele>
        <time>2022-05-17T06:13:01.685Z</time>
      </trkpt>
      <trkpt lat="45.59446" lon="5.62189">
        <ele>220</ele>
        <time>2022-05-17T06:13:02.685Z</time>
      </trkpt>
      <trkpt lat="45.59449" lon="5.62198">
        <ele>219</ele>
        <time>2022-05-17T06:13:03.685Z</time>
      </trkpt>
      <trkpt lat="45.59453" lon="5.62208">
        <ele>219</ele>
        <time>2022-05-17T06:13:04.685Z</time>
      </trkpt>
      <trkpt lat="45.59455" lon="5.62218">
        <ele>218</ele>
        <time>2022-05-17T06:13:05.685Z</time>
      </trkpt>
      <trkpt lat="45.59458" lon="5.62228">
        <ele>217</ele>
        <time>2022-05-17T06:13:06.684Z</time>
      </trkpt>
      <trkpt lat="45.59462" lon="5.62239">
        <ele>217</ele>
        <time>2022-05-17T06:13:07.685Z</time>
      </trkpt>
      <trkpt lat="45.59465" lon="5.62249">
        <ele>217</ele>
        <time>2022-05-17T06:13:08.685Z</time>
      </trkpt>
      <trkpt lat="45.59469" lon="5.6226">
        <ele>216</ele>
        <time>2022-05-17T06:13:09.684Z</time>
      </trkpt>
      <trkpt lat="45.59472" lon="5.6227">
        <ele>216</ele>
        <time>2022-05-17T06:13:10.685Z</time>
      </trkpt>
      <trkpt lat="45.59476" lon="5.62281">
        <ele>216</ele>
        <time>2022-05-17T06:13:11.685Z</time>
      </trkpt>
      <trkpt lat="45.5948" lon="5.62292">
        <ele>216</ele>
        <time>2022-05-17T06:13:12.685Z</time>
      </trkpt>
      <trkpt lat="45.59484" lon="5.62302">
        <ele>216</ele>
        <time>2022-05-17T06:13:13.685Z</time>
      </trkpt>
      <trkpt lat="45.59487" lon="5.62313">
        <ele>215</ele>
        <time>2022-05-17T06:13:14.684Z</time>
      </trkpt>
      <trkpt lat="45.59491" lon="5.62324">
        <ele>215</ele>
        <time>2022-05-17T06:13:15.685Z</time>
      </trkpt>
      <trkpt lat="45.59495" lon="5.62336">
        <ele>214</ele>
        <time>2022-05-17T06:13:16.685Z</time>
      </trkpt>
      <trkpt lat="45.59499" lon="5.62347">
        <ele>214</ele>
        <time>2022-05-17T06:13:17.685Z</time>
      </trkpt>
      <trkpt lat="45.59503" lon="5.62358">
        <ele>214</ele>
        <time>2022-05-17T06:13:18.685Z</time>
      </trkpt>
      <trkpt lat="45.59507" lon="5.62369">
        <ele>215</ele>
        <time>2022-05-17T06:13:19.684Z</time>
      </trkpt>
      <trkpt lat="45.59511" lon="5.62381">
        <ele>215</ele>
        <time>2022-05-17T06:13:20.685Z</time>
      </trkpt>
      <trkpt lat="45.59515" lon="5.62392">
        <ele>216</ele>
        <time>2022-05-17T06:13:21.685Z</time>
      </trkpt>
      <trkpt lat="45.59519" lon="5.62403">
        <ele>216</ele>
        <time>2022-05-17T06:13:22.685Z</time>
      </trkpt>
      <trkpt lat="45.59523" lon="5.62415">
        <ele>216</ele>
        <time>2022-05-17T06:13:23.685Z</time>
      </trkpt>
      <trkpt lat="45.59527" lon="5.62426">
        <ele>216</ele>
        <time>2022-05-17T06:13:24.685Z</time>
      </trkpt>
      <trkpt lat="45.59531" lon="5.62437">
        <ele>216</ele>
        <time>2022-05-17T06:13:25.684Z</time>
      </trkpt>
      <trkpt lat="45.59535" lon="5.62448">
        <ele>216</ele>
        <time>2022-05-17T06:13:26.684Z</time>
      </trkpt>
      <trkpt lat="45.59539" lon="5.6246">
        <ele>216</ele>
        <time>2022-05-17T06:13:27.685Z</time>
      </trkpt>
      <trkpt lat="45.59543" lon="5.62471">
        <ele>216</ele>
        <time>2022-05-17T06:13:28.685Z</time>
      </trkpt>
      <trkpt lat="45.59547" lon="5.62483">
        <ele>217</ele>
        <time>2022-05-17T06:13:29.685Z</time>
      </trkpt>
      <trkpt lat="45.59551" lon="5.62494">
        <ele>217</ele>
        <time>2022-05-17T06:13:30.685Z</time>
      </trkpt>
      <trkpt lat="45.59556" lon="5.62506">
        <ele>217</ele>
        <time>2022-05-17T06:13:31.685Z</time>
      </trkpt>
      <trkpt lat="45.59559" lon="5.62517">
        <ele>217</ele>
        <time>2022-05-17T06:13:32.685Z</time>
      </trkpt>
      <trkpt lat="45.59564" lon="5.62528">
        <ele>217</ele>
        <time>2022-05-17T06:13:33.685Z</time>
      </trkpt>
      <trkpt lat="45.59568" lon="5.62539">
        <ele>218</ele>
        <time>2022-05-17T06:13:34.685Z</time>
      </trkpt>
      <trkpt lat="45.59572" lon="5.6255">
        <ele>218</ele>
        <time>2022-05-17T06:13:35.685Z</time>
      </trkpt>
      <trkpt lat="45.59577" lon="5.62561">
        <ele>218</ele>
        <time>2022-05-17T06:13:36.685Z</time>
      </trkpt>
      <trkpt lat="45.59581" lon="5.62572">
        <ele>218</ele>
        <time>2022-05-17T06:13:37.685Z</time>
      </trkpt>
      <trkpt lat="45.59585" lon="5.62583">
        <ele>219</ele>
        <time>2022-05-17T06:13:38.685Z</time>
      </trkpt>
      <trkpt lat="45.59589" lon="5.62594">
        <ele>219</ele>
        <time>2022-05-17T06:13:39.685Z</time>
      </trkpt>
      <trkpt lat="45.59593" lon="5.62605">
        <ele>219</ele>
        <time>2022-05-17T06:13:40.684Z</time>
      </trkpt>
      <trkpt lat="45.59596" lon="5.62617">
        <ele>219</ele>
        <time>2022-05-17T06:13:41.685Z</time>
      </trkpt>
      <trkpt lat="45.596" lon="5.62628">
        <ele>219</ele>
        <time>2022-05-17T06:13:42.685Z</time>
      </trkpt>
      <trkpt lat="45.59603" lon="5.62639">
        <ele>218</ele>
        <time>2022-05-17T06:13:43.685Z</time>
      </trkpt>
      <trkpt lat="45.59607" lon="5.62649">
        <ele>218</ele>
        <time>2022-05-17T06:13:44.685Z</time>
      </trkpt>
      <trkpt lat="45.59611" lon="5.6266">
        <ele>218</ele>
        <time>2022-05-17T06:13:45.685Z</time>
      </trkpt>
      <trkpt lat="45.59615" lon="5.62671">
        <ele>217</ele>
        <time>2022-05-17T06:13:46.685Z</time>
      </trkpt>
      <trkpt lat="45.59619" lon="5.62682">
        <ele>217</ele>
        <time>2022-05-17T06:13:47.684Z</time>
      </trkpt>
      <trkpt lat="45.59623" lon="5.62693">
        <ele>218</ele>
        <time>2022-05-17T06:13:48.685Z</time>
      </trkpt>
      <trkpt lat="45.59626" lon="5.62704">
        <ele>217</ele>
        <time>2022-05-17T06:13:49.684Z</time>
      </trkpt>
      <trkpt lat="45.5963" lon="5.62714">
        <ele>217</ele>
        <time>2022-05-17T06:13:50.685Z</time>
      </trkpt>
      <trkpt lat="45.59634" lon="5.62725">
        <ele>217</ele>
        <time>2022-05-17T06:13:51.685Z</time>
      </trkpt>
      <trkpt lat="45.59638" lon="5.62736">
        <ele>216</ele>
        <time>2022-05-17T06:13:52.685Z</time>
      </trkpt>
      <trkpt lat="45.59642" lon="5.62747">
        <ele>216</ele>
        <time>2022-05-17T06:13:53.684Z</time>
      </trkpt>
      <trkpt lat="45.59646" lon="5.62757">
        <ele>216</ele>
        <time>2022-05-17T06:13:54.685Z</time>
      </trkpt>
      <trkpt lat="45.5965" lon="5.62768">
        <ele>216</ele>
        <time>2022-05-17T06:13:55.684Z</time>
      </trkpt>
      <trkpt lat="45.59654" lon="5.62779">
        <ele>216</ele>
        <time>2022-05-17T06:13:56.685Z</time>
      </trkpt>
      <trkpt lat="45.59657" lon="5.62789">
        <ele>216</ele>
        <time>2022-05-17T06:13:57.685Z</time>
      </trkpt>
      <trkpt lat="45.59661" lon="5.628">
        <ele>217</ele>
        <time>2022-05-17T06:13:58.685Z</time>
      </trkpt>
      <trkpt lat="45.59665" lon="5.6281">
        <ele>217</ele>
        <time>2022-05-17T06:13:59.685Z</time>
      </trkpt>
      <trkpt lat="45.59669" lon="5.62821">
        <ele>218</ele>
        <time>2022-05-17T06:14:00.685Z</time>
      </trkpt>
      <trkpt lat="45.59673" lon="5.62831">
        <ele>218</ele>
        <time>2022-05-17T06:14:01.684Z</time>
      </trkpt>
      <trkpt lat="45.59677" lon="5.62841">
        <ele>218</ele>
        <time>2022-05-17T06:14:02.685Z</time>
      </trkpt>
      <trkpt lat="45.5968" lon="5.62851">
        <ele>218</ele>
        <time>2022-05-17T06:14:03.684Z</time>
      </trkpt>
      <trkpt lat="45.59684" lon="5.62861">
        <ele>218</ele>
        <time>2022-05-17T06:14:04.685Z</time>
      </trkpt>
      <trkpt lat="45.59688" lon="5.6287">
        <ele>217</ele>
        <time>2022-05-17T06:14:05.685Z</time>
      </trkpt>
      <trkpt lat="45.59692" lon="5.6288">
        <ele>217</ele>
        <time>2022-05-17T06:14:06.685Z</time>
      </trkpt>
      <trkpt lat="45.59695" lon="5.62889">
        <ele>217</ele>
        <time>2022-05-17T06:14:07.685Z</time>
      </trkpt>
      <trkpt lat="45.59699" lon="5.62899">
        <ele>217</ele>
        <time>2022-05-17T06:14:08.684Z</time>
      </trkpt>
      <trkpt lat="45.59702" lon="5.62909">
        <ele>217</ele>
        <time>2022-05-17T06:14:09.685Z</time>
      </trkpt>
      <trkpt lat="45.59706" lon="5.62919">
        <ele>218</ele>
        <time>2022-05-17T06:14:10.684Z</time>
      </trkpt>
      <trkpt lat="45.59709" lon="5.62928">
        <ele>218</ele>
        <time>2022-05-17T06:14:11.685Z</time>
      </trkpt>
      <trkpt lat="45.59713" lon="5.62937">
        <ele>218</ele>
        <time>2022-05-17T06:14:12.685Z</time>
      </trkpt>
      <trkpt lat="45.59716" lon="5.62946">
        <ele>218</ele>
        <time>2022-05-17T06:14:13.685Z</time>
      </trkpt>
      <trkpt lat="45.5972" lon="5.62955">
        <ele>218</ele>
        <time>2022-05-17T06:14:14.685Z</time>
      </trkpt>
      <trkpt lat="45.59723" lon="5.62963">
        <ele>218</ele>
        <time>2022-05-17T06:14:15.685Z</time>
      </trkpt>
      <trkpt lat="45.59727" lon="5.62971">
        <ele>218</ele>
        <time>2022-05-17T06:14:16.685Z</time>
      </trkpt>
      <trkpt lat="45.59732" lon="5.62978">
        <ele>218</ele>
        <time>2022-05-17T06:14:17.685Z</time>
      </trkpt>
      <trkpt lat="45.59736" lon="5.62984">
        <ele>219</ele>
        <time>2022-05-17T06:14:18.684Z</time>
      </trkpt>
      <trkpt lat="45.5974" lon="5.62991">
        <ele>219</ele>
        <time>2022-05-17T06:14:19.685Z</time>
      </trkpt>
      <trkpt lat="45.59745" lon="5.62997">
        <ele>219</ele>
        <time>2022-05-17T06:14:20.685Z</time>
      </trkpt>
      <trkpt lat="45.59749" lon="5.63003">
        <ele>219</ele>
        <time>2022-05-17T06:14:21.684Z</time>
      </trkpt>
      <trkpt lat="45.59753" lon="5.63009">
        <ele>219</ele>
        <time>2022-05-17T06:14:22.684Z</time>
      </trkpt>
      <trkpt lat="45.59757" lon="5.63016">
        <ele>219</ele>
        <time>2022-05-17T06:14:23.685Z</time>
      </trkpt>
      <trkpt lat="45.5976" lon="5.63023">
        <ele>219</ele>
        <time>2022-05-17T06:14:24.685Z</time>
      </trkpt>
      <trkpt lat="45.59763" lon="5.6303">
        <ele>219</ele>
        <time>2022-05-17T06:14:25.684Z</time>
      </trkpt>
      <trkpt lat="45.59766" lon="5.63037">
        <ele>219</ele>
        <time>2022-05-17T06:14:26.684Z</time>
      </trkpt>
      <trkpt lat="45.59769" lon="5.63045">
        <ele>220</ele>
        <time>2022-05-17T06:14:27.684Z</time>
      </trkpt>
      <trkpt lat="45.59772" lon="5.63051">
        <ele>220</ele>
        <time>2022-05-17T06:14:28.685Z</time>
      </trkpt>
      <trkpt lat="45.59776" lon="5.63057">
        <ele>220</ele>
        <time>2022-05-17T06:14:29.685Z</time>
      </trkpt>
      <trkpt lat="45.59779" lon="5.63063">
        <ele>220</ele>
        <time>2022-05-17T06:14:30.684Z</time>
      </trkpt>
      <trkpt lat="45.59783" lon="5.63069">
        <ele>220</ele>
        <time>2022-05-17T06:14:31.684Z</time>
      </trkpt>
      <trkpt lat="45.59786" lon="5.63075">
        <ele>221</ele>
        <time>2022-05-17T06:14:32.684Z</time>
      </trkpt>
      <trkpt lat="45.59789" lon="5.63081">
        <ele>221</ele>
        <time>2022-05-17T06:14:33.685Z</time>
      </trkpt>
      <trkpt lat="45.59793" lon="5.63087">
        <ele>222</ele>
        <time>2022-05-17T06:14:34.685Z</time>
      </trkpt>
      <trkpt lat="45.59796" lon="5.63092">
        <ele>222</ele>
        <time>2022-05-17T06:14:35.685Z</time>
      </trkpt>
      <trkpt lat="45.59799" lon="5.63098">
        <ele>222</ele>
        <time>2022-05-17T06:14:36.685Z</time>
      </trkpt>
      <trkpt lat="45.59802" lon="5.63103">
        <ele>223</ele>
        <time>2022-05-17T06:14:37.685Z</time>
      </trkpt>
      <trkpt lat="45.59805" lon="5.63108">
        <ele>223</ele>
        <time>2022-05-17T06:14:38.684Z</time>
      </trkpt>
      <trkpt lat="45.59808" lon="5.63114">
        <ele>224</ele>
        <time>2022-05-17T06:14:39.684Z</time>
      </trkpt>
      <trkpt lat="45.59811" lon="5.63119">
        <ele>224</ele>
        <time>2022-05-17T06:14:40.685Z</time>
      </trkpt>
      <trkpt lat="45.59814" lon="5.63125">
        <ele>224</ele>
        <time>2022-05-17T06:14:41.684Z</time>
      </trkpt>
      <trkpt lat="45.59817" lon="5.6313">
        <ele>225</ele>
        <time>2022-05-17T06:14:42.685Z</time>
      </trkpt>
      <trkpt lat="45.5982" lon="5.63135">
        <ele>225</ele>
        <time>2022-05-17T06:14:43.685Z</time>
      </trkpt>
      <trkpt lat="45.59824" lon="5.63141">
        <ele>225</ele>
        <time>2022-05-17T06:14:44.684Z</time>
      </trkpt>
      <trkpt lat="45.59827" lon="5.63146">
        <ele>225</ele>
        <time>2022-05-17T06:14:45.685Z</time>
      </trkpt>
      <trkpt lat="45.5983" lon="5.63152">
        <ele>225</ele>
        <time>2022-05-17T06:14:46.685Z</time>
      </trkpt>
      <trkpt lat="45.59833" lon="5.63157">
        <ele>225</ele>
        <time>2022-05-17T06:14:47.684Z</time>
      </trkpt>
      <trkpt lat="45.59836" lon="5.63163">
        <ele>225</ele>
        <time>2022-05-17T06:14:48.684Z</time>
      </trkpt>
      <trkpt lat="45.59839" lon="5.63168">
        <ele>225</ele>
        <time>2022-05-17T06:14:49.685Z</time>
      </trkpt>
      <trkpt lat="45.59842" lon="5.63174">
        <ele>225</ele>
        <time>2022-05-17T06:14:50.685Z</time>
      </trkpt>
      <trkpt lat="45.59845" lon="5.63179">
        <ele>226</ele>
        <time>2022-05-17T06:14:51.685Z</time>
      </trkpt>
      <trkpt lat="45.59848" lon="5.63185">
        <ele>226</ele>
        <time>2022-05-17T06:14:52.685Z</time>
      </trkpt>
      <trkpt lat="45.59851" lon="5.63191">
        <ele>226</ele>
        <time>2022-05-17T06:14:53.685Z</time>
      </trkpt>
      <trkpt lat="45.59853" lon="5.63197">
        <ele>227</ele>
        <time>2022-05-17T06:14:54.685Z</time>
      </trkpt>
      <trkpt lat="45.59855" lon="5.63202">
        <ele>227</ele>
        <time>2022-05-17T06:14:55.685Z</time>
      </trkpt>
      <trkpt lat="45.59856" lon="5.63208">
        <ele>228</ele>
        <time>2022-05-17T06:14:56.685Z</time>
      </trkpt>
      <trkpt lat="45.59855" lon="5.63213">
        <ele>228</ele>
        <time>2022-05-17T06:14:57.685Z</time>
      </trkpt>
      <trkpt lat="45.59854" lon="5.63218">
        <ele>229</ele>
        <time>2022-05-17T06:14:58.685Z</time>
      </trkpt>
      <trkpt lat="45.59852" lon="5.63224">
        <ele>229</ele>
        <time>2022-05-17T06:14:59.684Z</time>
      </trkpt>
      <trkpt lat="45.5985" lon="5.63229">
        <ele>230</ele>
        <time>2022-05-17T06:15:00.684Z</time>
      </trkpt>
      <trkpt lat="45.59847" lon="5.63235">
        <ele>230</ele>
        <time>2022-05-17T06:15:01.685Z</time>
      </trkpt>
      <trkpt lat="45.59843" lon="5.6324">
        <ele>231</ele>
        <time>2022-05-17T06:15:02.685Z</time>
      </trkpt>
      <trkpt lat="45.59839" lon="5.63244">
        <ele>231</ele>
        <time>2022-05-17T06:15:03.684Z</time>
      </trkpt>
      <trkpt lat="45.59834" lon="5.63248">
        <ele>231</ele>
        <time>2022-05-17T06:15:04.685Z</time>
      </trkpt>
      <trkpt lat="45.59829" lon="5.63252">
        <ele>231</ele>
        <time>2022-05-17T06:15:05.685Z</time>
      </trkpt>
      <trkpt lat="45.59824" lon="5.63255">
        <ele>231</ele>
        <time>2022-05-17T06:15:06.685Z</time>
      </trkpt>
      <trkpt lat="45.59818" lon="5.63258">
        <ele>232</ele>
        <time>2022-05-17T06:15:07.685Z</time>
      </trkpt>
      <trkpt lat="45.59812" lon="5.63261">
        <ele>232</ele>
        <time>2022-05-17T06:15:08.685Z</time>
      </trkpt>
      <trkpt lat="45.59806" lon="5.63265">
        <ele>232</ele>
        <time>2022-05-17T06:15:09.684Z</time>
      </trkpt>
      <trkpt lat="45.59799" lon="5.63269">
        <ele>232</ele>
        <time>2022-05-17T06:15:10.685Z</time>
      </trkpt>
      <trkpt lat="45.59794" lon="5.63275">
        <ele>232</ele>
        <time>2022-05-17T06:15:11.685Z</time>
      </trkpt>
      <trkpt lat="45.59789" lon="5.63281">
        <ele>233</ele>
        <time>2022-05-17T06:15:12.685Z</time>
      </trkpt>
      <trkpt lat="45.59785" lon="5.63289">
        <ele>232</ele>
        <time>2022-05-17T06:15:13.685Z</time>
      </trkpt>
      <trkpt lat="45.59782" lon="5.63297">
        <ele>232</ele>
        <time>2022-05-17T06:15:14.685Z</time>
      </trkpt>
      <trkpt lat="45.5978" lon="5.63306">
        <ele>232</ele>
        <time>2022-05-17T06:15:15.685Z</time>
      </trkpt>
      <trkpt lat="45.59778" lon="5.63314">
        <ele>232</ele>
        <time>2022-05-17T06:15:16.685Z</time>
      </trkpt>
      <trkpt lat="45.59776" lon="5.63322">
        <ele>231</ele>
        <time>2022-05-17T06:15:17.685Z</time>
      </trkpt>
      <trkpt lat="45.59774" lon="5.63331">
        <ele>230</ele>
        <time>2022-05-17T06:15:18.685Z</time>
      </trkpt>
      <trkpt lat="45.59772" lon="5.63339">
        <ele>230</ele>
        <time>2022-05-17T06:15:19.685Z</time>
      </trkpt>
      <trkpt lat="45.5977" lon="5.63348">
        <ele>230</ele>
        <time>2022-05-17T06:15:20.685Z</time>
      </trkpt>
      <trkpt lat="45.5977" lon="5.63356">
        <ele>230</ele>
        <time>2022-05-17T06:15:21.685Z</time>
      </trkpt>
      <trkpt lat="45.59772" lon="5.63363">
        <ele>231</ele>
        <time>2022-05-17T06:15:22.684Z</time>
      </trkpt>
      <trkpt lat="45.59775" lon="5.63367">
        <ele>231</ele>
        <time>2022-05-17T06:15:23.684Z</time>
      </trkpt>
      <trkpt lat="45.5978" lon="5.63369">
        <ele>230</ele>
        <time>2022-05-17T06:15:24.685Z</time>
      </trkpt>
      <trkpt lat="45.59785" lon="5.63369">
        <ele>230</ele>
        <time>2022-05-17T06:15:25.685Z</time>
      </trkpt>
      <trkpt lat="45.59791" lon="5.63367">
        <ele>230</ele>
        <time>2022-05-17T06:15:26.685Z</time>
      </trkpt>
      <trkpt lat="45.59798" lon="5.63366">
        <ele>230</ele>
        <time>2022-05-17T06:15:27.685Z</time>
      </trkpt>
      <trkpt lat="45.59804" lon="5.63366">
        <ele>230</ele>
        <time>2022-05-17T06:15:28.685Z</time>
      </trkpt>
      <trkpt lat="45.59809" lon="5.63367">
        <ele>229</ele>
        <time>2022-05-17T06:15:29.685Z</time>
      </trkpt>
      <trkpt lat="45.59815" lon="5.63368">
        <ele>229</ele>
        <time>2022-05-17T06:15:30.685Z</time>
      </trkpt>
      <trkpt lat="45.59821" lon="5.63369">
        <ele>229</ele>
        <time>2022-05-17T06:15:31.685Z</time>
      </trkpt>
      <trkpt lat="45.59827" lon="5.63371">
        <ele>229</ele>
        <time>2022-05-17T06:15:32.684Z</time>
      </trkpt>
      <trkpt lat="45.59833" lon="5.63372">
        <ele>229</ele>
        <time>2022-05-17T06:15:33.685Z</time>
      </trkpt>
      <trkpt lat="45.59838" lon="5.63373">
        <ele>230</ele>
        <time>2022-05-17T06:15:34.685Z</time>
      </trkpt>
      <trkpt lat="45.59844" lon="5.63374">
        <ele>230</ele>
        <time>2022-05-17T06:15:35.685Z</time>
      </trkpt>
      <trkpt lat="45.5985" lon="5.63375">
        <ele>231</ele>
        <time>2022-05-17T06:15:36.684Z</time>
      </trkpt>
      <trkpt lat="45.59854" lon="5.63376">
        <ele>232</ele>
        <time>2022-05-17T06:15:37.685Z</time>
      </trkpt>
      <trkpt lat="45.59859" lon="5.63377">
        <ele>233</ele>
        <time>2022-05-17T06:15:38.685Z</time>
      </trkpt>
      <trkpt lat="45.59864" lon="5.63379">
        <ele>234</ele>
        <time>2022-05-17T06:15:39.685Z</time>
      </trkpt>
      <trkpt lat="45.59869" lon="5.6338">
        <ele>235</ele>
        <time>2022-05-17T06:15:40.685Z</time>
      </trkpt>
      <trkpt lat="45.59874" lon="5.63382">
        <ele>236</ele>
        <time>2022-05-17T06:15:41.685Z</time>
      </trkpt>
      <trkpt lat="45.59879" lon="5.63384">
        <ele>237</ele>
        <time>2022-05-17T06:15:42.684Z</time>
      </trkpt>
      <trkpt lat="45.59883" lon="5.63386">
        <ele>237</ele>
        <time>2022-05-17T06:15:43.684Z</time>
      </trkpt>
      <trkpt lat="45.59888" lon="5.63388">
        <ele>237</ele>
        <time>2022-05-17T06:15:44.685Z</time>
      </trkpt>
      <trkpt lat="45.59892" lon="5.63389">
        <ele>236</ele>
        <time>2022-05-17T06:15:45.685Z</time>
      </trkpt>
      <trkpt lat="45.59898" lon="5.63391">
        <ele>236</ele>
        <time>2022-05-17T06:15:46.684Z</time>
      </trkpt>
      <trkpt lat="45.59903" lon="5.63392">
        <ele>236</ele>
        <time>2022-05-17T06:15:47.685Z</time>
      </trkpt>
      <trkpt lat="45.59907" lon="5.63394">
        <ele>236</ele>
        <time>2022-05-17T06:15:48.685Z</time>
      </trkpt>
      <trkpt lat="45.59912" lon="5.63395">
        <ele>236</ele>
        <time>2022-05-17T06:15:49.685Z</time>
      </trkpt>
      <trkpt lat="45.59917" lon="5.63397">
        <ele>235</ele>
        <time>2022-05-17T06:15:50.685Z</time>
      </trkpt>
      <trkpt lat="45.59922" lon="5.63398">
        <ele>235</ele>
        <time>2022-05-17T06:15:51.685Z</time>
      </trkpt>
      <trkpt lat="45.59927" lon="5.634">
        <ele>235</ele>
        <time>2022-05-17T06:15:52.684Z</time>
      </trkpt>
      <trkpt lat="45.59933" lon="5.63401">
        <ele>235</ele>
        <time>2022-05-17T06:15:53.685Z</time>
      </trkpt>
      <trkpt lat="45.59938" lon="5.63402">
        <ele>235</ele>
        <time>2022-05-17T06:15:54.685Z</time>
      </trkpt>
      <trkpt lat="45.59944" lon="5.63404">
        <ele>235</ele>
        <time>2022-05-17T06:15:55.684Z</time>
      </trkpt>
      <trkpt lat="45.59949" lon="5.63405">
        <ele>235</ele>
        <time>2022-05-17T06:15:56.685Z</time>
      </trkpt>
      <trkpt lat="45.59956" lon="5.63406">
        <ele>235</ele>
        <time>2022-05-17T06:15:57.684Z</time>
      </trkpt>
      <trkpt lat="45.59961" lon="5.63408">
        <ele>235</ele>
        <time>2022-05-17T06:15:58.684Z</time>
      </trkpt>
      <trkpt lat="45.59968" lon="5.63409">
        <ele>235</ele>
        <time>2022-05-17T06:15:59.684Z</time>
      </trkpt>
      <trkpt lat="45.59974" lon="5.6341">
        <ele>235</ele>
        <time>2022-05-17T06:16:00.684Z</time>
      </trkpt>
      <trkpt lat="45.5998" lon="5.6341">
        <ele>235</ele>
        <time>2022-05-17T06:16:01.685Z</time>
      </trkpt>
      <trkpt lat="45.59986" lon="5.63411">
        <ele>235</ele>
        <time>2022-05-17T06:16:02.684Z</time>
      </trkpt>
      <trkpt lat="45.59992" lon="5.63412">
        <ele>235</ele>
        <time>2022-05-17T06:16:03.685Z</time>
      </trkpt>
      <trkpt lat="45.59997" lon="5.63412">
        <ele>235</ele>
        <time>2022-05-17T06:16:04.684Z</time>
      </trkpt>
      <trkpt lat="45.60003" lon="5.63412">
        <ele>235</ele>
        <time>2022-05-17T06:16:05.685Z</time>
      </trkpt>
      <trkpt lat="45.60008" lon="5.63413">
        <ele>236</ele>
        <time>2022-05-17T06:16:06.685Z</time>
      </trkpt>
      <trkpt lat="45.60013" lon="5.63413">
        <ele>236</ele>
        <time>2022-05-17T06:16:07.685Z</time>
      </trkpt>
      <trkpt lat="45.60017" lon="5.63413">
        <ele>236</ele>
        <time>2022-05-17T06:16:08.685Z</time>
      </trkpt>
      <trkpt lat="45.60022" lon="5.63413">
        <ele>236</ele>
        <time>2022-05-17T06:16:09.685Z</time>
      </trkpt>
      <trkpt lat="45.60026" lon="5.63413">
        <ele>236</ele>
        <time>2022-05-17T06:16:10.685Z</time>
      </trkpt>
      <trkpt lat="45.60029" lon="5.63413">
        <ele>236</ele>
        <time>2022-05-17T06:16:11.684Z</time>
      </trkpt>
      <trkpt lat="45.60031" lon="5.63413">
        <ele>236</ele>
        <time>2022-05-17T06:16:12.684Z</time>
      </trkpt>
      <trkpt lat="45.60033" lon="5.63413">
        <ele>236</ele>
        <time>2022-05-17T06:16:13.685Z</time>
      </trkpt>
      <trkpt lat="45.60033" lon="5.63413">
        <ele>237</ele>
        <time>2022-05-17T06:16:14.685Z</time>
      </trkpt>
      <trkpt lat="45.60033" lon="5.63413">
        <ele>237</ele>
        <time>2022-05-17T06:16:15.684Z</time>
      </trkpt>
      <trkpt lat="45.60033" lon="5.63414">
        <ele>236</ele>
        <time>2022-05-17T06:16:16.685Z</time>
      </trkpt>
      <trkpt lat="45.6004" lon="5.63413">
        <ele>234</ele>
        <time>2022-05-17T06:16:48.798Z</time>
      </trkpt>
      <trkpt lat="45.60044" lon="5.63413">
        <ele>234</ele>
        <time>2022-05-17T06:16:49.797Z</time>
      </trkpt>
      <trkpt lat="45.60048" lon="5.63413">
        <ele>234</ele>
        <time>2022-05-17T06:16:50.797Z</time>
      </trkpt>
      <trkpt lat="45.60051" lon="5.63413">
        <ele>234</ele>
        <time>2022-05-17T06:16:51.797Z</time>
      </trkpt>
      <trkpt lat="45.60055" lon="5.63413">
        <ele>235</ele>
        <time>2022-05-17T06:16:52.797Z</time>
      </trkpt>
      <trkpt lat="45.60059" lon="5.63414">
        <ele>234</ele>
        <time>2022-05-17T06:16:53.797Z</time>
      </trkpt>
      <trkpt lat="45.60063" lon="5.63415">
        <ele>234</ele>
        <time>2022-05-17T06:16:54.798Z</time>
      </trkpt>
      <trkpt lat="45.60068" lon="5.63417">
        <ele>234</ele>
        <time>2022-05-17T06:16:55.798Z</time>
      </trkpt>
      <trkpt lat="45.60072" lon="5.6342">
        <ele>235</ele>
        <time>2022-05-17T06:16:56.798Z</time>
      </trkpt>
      <trkpt lat="45.60076" lon="5.63425">
        <ele>235</ele>
        <time>2022-05-17T06:16:57.798Z</time>
      </trkpt>
      <trkpt lat="45.6008" lon="5.6343">
        <ele>235</ele>
        <time>2022-05-17T06:16:58.798Z</time>
      </trkpt>
      <trkpt lat="45.60084" lon="5.63436">
        <ele>234</ele>
        <time>2022-05-17T06:16:59.797Z</time>
      </trkpt>
      <trkpt lat="45.60087" lon="5.63444">
        <ele>234</ele>
        <time>2022-05-17T06:17:00.797Z</time>
      </trkpt>
      <trkpt lat="45.60089" lon="5.63452">
        <ele>234</ele>
        <time>2022-05-17T06:17:01.797Z</time>
      </trkpt>
      <trkpt lat="45.6009" lon="5.6346">
        <ele>234</ele>
        <time>2022-05-17T06:17:02.798Z</time>
      </trkpt>
      <trkpt lat="45.60091" lon="5.63469">
        <ele>234</ele>
        <time>2022-05-17T06:17:03.798Z</time>
      </trkpt>
      <trkpt lat="45.60093" lon="5.63477">
        <ele>234</ele>
        <time>2022-05-17T06:17:04.798Z</time>
      </trkpt>
      <trkpt lat="45.60094" lon="5.63486">
        <ele>233</ele>
        <time>2022-05-17T06:17:05.798Z</time>
      </trkpt>
      <trkpt lat="45.60096" lon="5.63494">
        <ele>233</ele>
        <time>2022-05-17T06:17:06.798Z</time>
      </trkpt>
      <trkpt lat="45.60097" lon="5.63502">
        <ele>233</ele>
        <time>2022-05-17T06:17:07.797Z</time>
      </trkpt>
      <trkpt lat="45.601" lon="5.63509">
        <ele>233</ele>
        <time>2022-05-17T06:17:08.798Z</time>
      </trkpt>
      <trkpt lat="45.60104" lon="5.63516">
        <ele>234</ele>
        <time>2022-05-17T06:17:09.798Z</time>
      </trkpt>
      <trkpt lat="45.60109" lon="5.63522">
        <ele>234</ele>
        <time>2022-05-17T06:17:10.798Z</time>
      </trkpt>
      <trkpt lat="45.60114" lon="5.63528">
        <ele>234</ele>
        <time>2022-05-17T06:17:11.798Z</time>
      </trkpt>
      <trkpt lat="45.60118" lon="5.63533">
        <ele>235</ele>
        <time>2022-05-17T06:17:12.797Z</time>
      </trkpt>
      <trkpt lat="45.60124" lon="5.63539">
        <ele>235</ele>
        <time>2022-05-17T06:17:13.797Z</time>
      </trkpt>
      <trkpt lat="45.60129" lon="5.63545">
        <ele>236</ele>
        <time>2022-05-17T06:17:14.797Z</time>
      </trkpt>
      <trkpt lat="45.60134" lon="5.63551">
        <ele>236</ele>
        <time>2022-05-17T06:17:15.798Z</time>
      </trkpt>
      <trkpt lat="45.60139" lon="5.63557">
        <ele>236</ele>
        <time>2022-05-17T06:17:16.797Z</time>
      </trkpt>
      <trkpt lat="45.60145" lon="5.63563">
        <ele>236</ele>
        <time>2022-05-17T06:17:17.798Z</time>
      </trkpt>
      <trkpt lat="45.60151" lon="5.63569">
        <ele>237</ele>
        <time>2022-05-17T06:17:18.797Z</time>
      </trkpt>
      <trkpt lat="45.60156" lon="5.63575">
        <ele>237</ele>
        <time>2022-05-17T06:17:19.797Z</time>
      </trkpt>
      <trkpt lat="45.60161" lon="5.63583">
        <ele>237</ele>
        <time>2022-05-17T06:17:20.797Z</time>
      </trkpt>
      <trkpt lat="45.60165" lon="5.63591">
        <ele>236</ele>
        <time>2022-05-17T06:17:21.798Z</time>
      </trkpt>
      <trkpt lat="45.60169" lon="5.636">
        <ele>236</ele>
        <time>2022-05-17T06:17:22.798Z</time>
      </trkpt>
      <trkpt lat="45.60172" lon="5.6361">
        <ele>236</ele>
        <time>2022-05-17T06:17:23.797Z</time>
      </trkpt>
      <trkpt lat="45.60176" lon="5.63619">
        <ele>236</ele>
        <time>2022-05-17T06:17:24.798Z</time>
      </trkpt>
      <trkpt lat="45.60179" lon="5.63629">
        <ele>236</ele>
        <time>2022-05-17T06:17:25.798Z</time>
      </trkpt>
      <trkpt lat="45.60182" lon="5.6364">
        <ele>236</ele>
        <time>2022-05-17T06:17:26.798Z</time>
      </trkpt>
      <trkpt lat="45.60185" lon="5.63651">
        <ele>236</ele>
        <time>2022-05-17T06:17:27.797Z</time>
      </trkpt>
      <trkpt lat="45.60187" lon="5.63662">
        <ele>235</ele>
        <time>2022-05-17T06:17:28.798Z</time>
      </trkpt>
      <trkpt lat="45.60189" lon="5.63674">
        <ele>235</ele>
        <time>2022-05-17T06:17:29.797Z</time>
      </trkpt>
      <trkpt lat="45.60189" lon="5.63686">
        <ele>235</ele>
        <time>2022-05-17T06:17:30.797Z</time>
      </trkpt>
      <trkpt lat="45.60189" lon="5.63699">
        <ele>235</ele>
        <time>2022-05-17T06:17:31.798Z</time>
      </trkpt>
      <trkpt lat="45.60189" lon="5.63712">
        <ele>235</ele>
        <time>2022-05-17T06:17:32.797Z</time>
      </trkpt>
      <trkpt lat="45.60188" lon="5.63725">
        <ele>234</ele>
        <time>2022-05-17T06:17:33.798Z</time>
      </trkpt>
      <trkpt lat="45.60188" lon="5.63738">
        <ele>234</ele>
        <time>2022-05-17T06:17:34.798Z</time>
      </trkpt>
      <trkpt lat="45.60188" lon="5.63751">
        <ele>233</ele>
        <time>2022-05-17T06:17:35.797Z</time>
      </trkpt>
      <trkpt lat="45.60188" lon="5.63765">
        <ele>233</ele>
        <time>2022-05-17T06:17:36.798Z</time>
      </trkpt>
      <trkpt lat="45.60189" lon="5.63778">
        <ele>232</ele>
        <time>2022-05-17T06:17:37.798Z</time>
      </trkpt>
      <trkpt lat="45.60191" lon="5.63792">
        <ele>232</ele>
        <time>2022-05-17T06:17:38.798Z</time>
      </trkpt>
      <trkpt lat="45.60194" lon="5.63805">
        <ele>232</ele>
        <time>2022-05-17T06:17:39.797Z</time>
      </trkpt>
      <trkpt lat="45.60198" lon="5.63818">
        <ele>232</ele>
        <time>2022-05-17T06:17:40.797Z</time>
      </trkpt>
      <trkpt lat="45.60202" lon="5.63831">
        <ele>233</ele>
        <time>2022-05-17T06:17:41.798Z</time>
      </trkpt>
      <trkpt lat="45.60205" lon="5.63844">
        <ele>233</ele>
        <time>2022-05-17T06:17:42.797Z</time>
      </trkpt>
      <trkpt lat="45.60209" lon="5.63857">
        <ele>233</ele>
        <time>2022-05-17T06:17:43.798Z</time>
      </trkpt>
      <trkpt lat="45.60212" lon="5.6387">
        <ele>233</ele>
        <time>2022-05-17T06:17:44.798Z</time>
      </trkpt>
      <trkpt lat="45.60217" lon="5.63883">
        <ele>233</ele>
        <time>2022-05-17T06:17:45.798Z</time>
      </trkpt>
      <trkpt lat="45.60223" lon="5.63895">
        <ele>233</ele>
        <time>2022-05-17T06:17:46.797Z</time>
      </trkpt>
      <trkpt lat="45.6023" lon="5.63909">
        <ele>233</ele>
        <time>2022-05-17T06:17:47.798Z</time>
      </trkpt>
      <trkpt lat="45.60238" lon="5.63919">
        <ele>233</ele>
        <time>2022-05-17T06:17:48.798Z</time>
      </trkpt>
      <trkpt lat="45.60245" lon="5.63926">
        <ele>233</ele>
        <time>2022-05-17T06:17:49.798Z</time>
      </trkpt>
      <trkpt lat="45.60255" lon="5.63937">
        <ele>233</ele>
        <time>2022-05-17T06:17:50.798Z</time>
      </trkpt>
      <trkpt lat="45.60264" lon="5.63946">
        <ele>232</ele>
        <time>2022-05-17T06:17:51.797Z</time>
      </trkpt>
      <trkpt lat="45.60272" lon="5.63954">
        <ele>232</ele>
        <time>2022-05-17T06:17:52.797Z</time>
      </trkpt>
      <trkpt lat="45.60281" lon="5.63963">
        <ele>232</ele>
        <time>2022-05-17T06:17:53.798Z</time>
      </trkpt>
      <trkpt lat="45.6029" lon="5.63971">
        <ele>232</ele>
        <time>2022-05-17T06:17:54.798Z</time>
      </trkpt>
      <trkpt lat="45.60299" lon="5.6398">
        <ele>232</ele>
        <time>2022-05-17T06:17:55.798Z</time>
      </trkpt>
      <trkpt lat="45.60307" lon="5.63989">
        <ele>231</ele>
        <time>2022-05-17T06:17:56.798Z</time>
      </trkpt>
      <trkpt lat="45.60316" lon="5.63998">
        <ele>231</ele>
        <time>2022-05-17T06:17:57.797Z</time>
      </trkpt>
      <trkpt lat="45.60324" lon="5.64006">
        <ele>231</ele>
        <time>2022-05-17T06:17:58.798Z</time>
      </trkpt>
      <trkpt lat="45.60335" lon="5.64017">
        <ele>230</ele>
        <time>2022-05-17T06:17:59.797Z</time>
      </trkpt>
      <trkpt lat="45.60342" lon="5.64024">
        <ele>230</ele>
        <time>2022-05-17T06:18:00.798Z</time>
      </trkpt>
      <trkpt lat="45.60352" lon="5.64036">
        <ele>229</ele>
        <time>2022-05-17T06:18:01.797Z</time>
      </trkpt>
      <trkpt lat="45.60359" lon="5.64043">
        <ele>228</ele>
        <time>2022-05-17T06:18:02.798Z</time>
      </trkpt>
      <trkpt lat="45.60368" lon="5.64052">
        <ele>227</ele>
        <time>2022-05-17T06:18:03.798Z</time>
      </trkpt>
      <trkpt lat="45.60377" lon="5.64062">
        <ele>227</ele>
        <time>2022-05-17T06:18:04.797Z</time>
      </trkpt>
      <trkpt lat="45.60386" lon="5.64071">
        <ele>227</ele>
        <time>2022-05-17T06:18:05.798Z</time>
      </trkpt>
      <trkpt lat="45.60394" lon="5.6408">
        <ele>227</ele>
        <time>2022-05-17T06:18:06.797Z</time>
      </trkpt>
      <trkpt lat="45.60403" lon="5.64089">
        <ele>227</ele>
        <time>2022-05-17T06:18:07.798Z</time>
      </trkpt>
      <trkpt lat="45.60412" lon="5.64098">
        <ele>227</ele>
        <time>2022-05-17T06:18:08.797Z</time>
      </trkpt>
      <trkpt lat="45.6042" lon="5.64107">
        <ele>226</ele>
        <time>2022-05-17T06:18:09.798Z</time>
      </trkpt>
      <trkpt lat="45.60429" lon="5.64115">
        <ele>227</ele>
        <time>2022-05-17T06:18:10.798Z</time>
      </trkpt>
      <trkpt lat="45.60437" lon="5.64123">
        <ele>227</ele>
        <time>2022-05-17T06:18:11.798Z</time>
      </trkpt>
      <trkpt lat="45.60445" lon="5.64132">
        <ele>227</ele>
        <time>2022-05-17T06:18:12.797Z</time>
      </trkpt>
      <trkpt lat="45.60453" lon="5.6414">
        <ele>227</ele>
        <time>2022-05-17T06:18:13.797Z</time>
      </trkpt>
      <trkpt lat="45.6046" lon="5.64149">
        <ele>226</ele>
        <time>2022-05-17T06:18:14.798Z</time>
      </trkpt>
      <trkpt lat="45.60467" lon="5.64158">
        <ele>226</ele>
        <time>2022-05-17T06:18:15.798Z</time>
      </trkpt>
      <trkpt lat="45.60473" lon="5.64167">
        <ele>226</ele>
        <time>2022-05-17T06:18:16.797Z</time>
      </trkpt>
      <trkpt lat="45.60479" lon="5.64176">
        <ele>225</ele>
        <time>2022-05-17T06:18:17.798Z</time>
      </trkpt>
      <trkpt lat="45.60486" lon="5.64181">
        <ele>225</ele>
        <time>2022-05-17T06:18:18.798Z</time>
      </trkpt>
      <trkpt lat="45.60493" lon="5.64184">
        <ele>225</ele>
        <time>2022-05-17T06:18:19.797Z</time>
      </trkpt>
      <trkpt lat="45.60501" lon="5.64187">
        <ele>225</ele>
        <time>2022-05-17T06:18:20.798Z</time>
      </trkpt>
      <trkpt lat="45.6051" lon="5.64191">
        <ele>224</ele>
        <time>2022-05-17T06:18:21.798Z</time>
      </trkpt>
      <trkpt lat="45.60515" lon="5.64196">
        <ele>224</ele>
        <time>2022-05-17T06:18:22.798Z</time>
      </trkpt>
      <trkpt lat="45.60522" lon="5.64204">
        <ele>224</ele>
        <time>2022-05-17T06:18:23.797Z</time>
      </trkpt>
      <trkpt lat="45.6053" lon="5.64213">
        <ele>224</ele>
        <time>2022-05-17T06:18:24.797Z</time>
      </trkpt>
      <trkpt lat="45.60537" lon="5.64221">
        <ele>224</ele>
        <time>2022-05-17T06:18:25.798Z</time>
      </trkpt>
      <trkpt lat="45.60542" lon="5.64226">
        <ele>224</ele>
        <time>2022-05-17T06:18:26.797Z</time>
      </trkpt>
      <trkpt lat="45.6055" lon="5.64233">
        <ele>223</ele>
        <time>2022-05-17T06:18:27.798Z</time>
      </trkpt>
      <trkpt lat="45.60557" lon="5.64239">
        <ele>223</ele>
        <time>2022-05-17T06:18:28.798Z</time>
      </trkpt>
      <trkpt lat="45.60566" lon="5.64245">
        <ele>223</ele>
        <time>2022-05-17T06:18:29.798Z</time>
      </trkpt>
      <trkpt lat="45.60574" lon="5.64249">
        <ele>223</ele>
        <time>2022-05-17T06:18:30.797Z</time>
      </trkpt>
      <trkpt lat="45.60583" lon="5.64253">
        <ele>223</ele>
        <time>2022-05-17T06:18:31.798Z</time>
      </trkpt>
      <trkpt lat="45.60592" lon="5.64256">
        <ele>223</ele>
        <time>2022-05-17T06:18:32.798Z</time>
      </trkpt>
      <trkpt lat="45.60601" lon="5.6426">
        <ele>223</ele>
        <time>2022-05-17T06:18:33.798Z</time>
      </trkpt>
      <trkpt lat="45.6061" lon="5.64265">
        <ele>223</ele>
        <time>2022-05-17T06:18:34.797Z</time>
      </trkpt>
      <trkpt lat="45.60619" lon="5.64269">
        <ele>223</ele>
        <time>2022-05-17T06:18:35.797Z</time>
      </trkpt>
      <trkpt lat="45.60628" lon="5.64274">
        <ele>223</ele>
        <time>2022-05-17T06:18:36.798Z</time>
      </trkpt>
      <trkpt lat="45.60637" lon="5.64278">
        <ele>223</ele>
        <time>2022-05-17T06:18:37.798Z</time>
      </trkpt>
      <trkpt lat="45.60646" lon="5.64283">
        <ele>222</ele>
        <time>2022-05-17T06:18:38.798Z</time>
      </trkpt>
      <trkpt lat="45.60655" lon="5.64287">
        <ele>222</ele>
        <time>2022-05-17T06:18:39.798Z</time>
      </trkpt>
      <trkpt lat="45.60664" lon="5.64291">
        <ele>221</ele>
        <time>2022-05-17T06:18:40.798Z</time>
      </trkpt>
      <trkpt lat="45.60673" lon="5.64294">
        <ele>221</ele>
        <time>2022-05-17T06:18:41.798Z</time>
      </trkpt>
      <trkpt lat="45.60682" lon="5.64298">
        <ele>220</ele>
        <time>2022-05-17T06:18:42.798Z</time>
      </trkpt>
      <trkpt lat="45.60691" lon="5.64302">
        <ele>220</ele>
        <time>2022-05-17T06:18:43.797Z</time>
      </trkpt>
      <trkpt lat="45.60699" lon="5.64307">
        <ele>219</ele>
        <time>2022-05-17T06:18:44.798Z</time>
      </trkpt>
      <trkpt lat="45.60707" lon="5.64313">
        <ele>219</ele>
        <time>2022-05-17T06:18:45.798Z</time>
      </trkpt>
      <trkpt lat="45.60716" lon="5.6432">
        <ele>219</ele>
        <time>2022-05-17T06:18:46.798Z</time>
      </trkpt>
      <trkpt lat="45.60724" lon="5.64329">
        <ele>219</ele>
        <time>2022-05-17T06:18:47.797Z</time>
      </trkpt>
      <trkpt lat="45.60732" lon="5.64338">
        <ele>220</ele>
        <time>2022-05-17T06:18:48.798Z</time>
      </trkpt>
      <trkpt lat="45.60739" lon="5.64348">
        <ele>220</ele>
        <time>2022-05-17T06:18:49.798Z</time>
      </trkpt>
      <trkpt lat="45.60746" lon="5.64359">
        <ele>220</ele>
        <time>2022-05-17T06:18:50.797Z</time>
      </trkpt>
      <trkpt lat="45.60753" lon="5.6437">
        <ele>220</ele>
        <time>2022-05-17T06:18:51.798Z</time>
      </trkpt>
      <trkpt lat="45.60759" lon="5.64382">
        <ele>220</ele>
        <time>2022-05-17T06:18:52.798Z</time>
      </trkpt>
      <trkpt lat="45.60765" lon="5.64394">
        <ele>220</ele>
        <time>2022-05-17T06:18:53.798Z</time>
      </trkpt>
      <trkpt lat="45.6077" lon="5.64406">
        <ele>220</ele>
        <time>2022-05-17T06:18:54.798Z</time>
      </trkpt>
      <trkpt lat="45.60775" lon="5.64418">
        <ele>220</ele>
        <time>2022-05-17T06:18:55.797Z</time>
      </trkpt>
      <trkpt lat="45.6078" lon="5.6443">
        <ele>220</ele>
        <time>2022-05-17T06:18:56.798Z</time>
      </trkpt>
      <trkpt lat="45.60785" lon="5.64441">
        <ele>220</ele>
        <time>2022-05-17T06:18:57.798Z</time>
      </trkpt>
      <trkpt lat="45.60789" lon="5.64452">
        <ele>220</ele>
        <time>2022-05-17T06:18:58.798Z</time>
      </trkpt>
      <trkpt lat="45.60793" lon="5.64463">
        <ele>219</ele>
        <time>2022-05-17T06:18:59.798Z</time>
      </trkpt>
      <trkpt lat="45.60798" lon="5.64474">
        <ele>219</ele>
        <time>2022-05-17T06:19:00.798Z</time>
      </trkpt>
      <trkpt lat="45.60802" lon="5.64485">
        <ele>219</ele>
        <time>2022-05-17T06:19:01.797Z</time>
      </trkpt>
      <trkpt lat="45.60806" lon="5.64495">
        <ele>219</ele>
        <time>2022-05-17T06:19:02.798Z</time>
      </trkpt>
      <trkpt lat="45.60811" lon="5.64505">
        <ele>219</ele>
        <time>2022-05-17T06:19:03.797Z</time>
      </trkpt>
      <trkpt lat="45.60815" lon="5.64515">
        <ele>219</ele>
        <time>2022-05-17T06:19:04.798Z</time>
      </trkpt>
      <trkpt lat="45.60819" lon="5.64525">
        <ele>219</ele>
        <time>2022-05-17T06:19:05.797Z</time>
      </trkpt>
      <trkpt lat="45.60824" lon="5.64535">
        <ele>219</ele>
        <time>2022-05-17T06:19:06.798Z</time>
      </trkpt>
      <trkpt lat="45.60828" lon="5.64545">
        <ele>219</ele>
        <time>2022-05-17T06:19:07.798Z</time>
      </trkpt>
      <trkpt lat="45.60832" lon="5.64555">
        <ele>219</ele>
        <time>2022-05-17T06:19:08.797Z</time>
      </trkpt>
      <trkpt lat="45.60836" lon="5.64565">
        <ele>219</ele>
        <time>2022-05-17T06:19:09.797Z</time>
      </trkpt>
      <trkpt lat="45.6084" lon="5.64575">
        <ele>219</ele>
        <time>2022-05-17T06:19:10.798Z</time>
      </trkpt>
      <trkpt lat="45.60845" lon="5.64585">
        <ele>219</ele>
        <time>2022-05-17T06:19:11.798Z</time>
      </trkpt>
      <trkpt lat="45.60849" lon="5.64595">
        <ele>219</ele>
        <time>2022-05-17T06:19:12.798Z</time>
      </trkpt>
      <trkpt lat="45.60853" lon="5.64604">
        <ele>219</ele>
        <time>2022-05-17T06:19:13.798Z</time>
      </trkpt>
      <trkpt lat="45.60858" lon="5.64614">
        <ele>220</ele>
        <time>2022-05-17T06:19:14.797Z</time>
      </trkpt>
      <trkpt lat="45.60862" lon="5.64624">
        <ele>220</ele>
        <time>2022-05-17T06:19:15.798Z</time>
      </trkpt>
      <trkpt lat="45.60866" lon="5.64634">
        <ele>219</ele>
        <time>2022-05-17T06:19:16.798Z</time>
      </trkpt>
      <trkpt lat="45.6087" lon="5.64643">
        <ele>219</ele>
        <time>2022-05-17T06:19:17.798Z</time>
      </trkpt>
      <trkpt lat="45.60875" lon="5.64653">
        <ele>219</ele>
        <time>2022-05-17T06:19:18.798Z</time>
      </trkpt>
      <trkpt lat="45.60879" lon="5.64662">
        <ele>219</ele>
        <time>2022-05-17T06:19:19.797Z</time>
      </trkpt>
      <trkpt lat="45.60883" lon="5.64672">
        <ele>220</ele>
        <time>2022-05-17T06:19:20.798Z</time>
      </trkpt>
      <trkpt lat="45.60888" lon="5.64681">
        <ele>220</ele>
        <time>2022-05-17T06:19:21.798Z</time>
      </trkpt>
      <trkpt lat="45.60892" lon="5.6469">
        <ele>220</ele>
        <time>2022-05-17T06:19:22.797Z</time>
      </trkpt>
      <trkpt lat="45.60896" lon="5.647">
        <ele>220</ele>
        <time>2022-05-17T06:19:23.798Z</time>
      </trkpt>
      <trkpt lat="45.609" lon="5.64709">
        <ele>220</ele>
        <time>2022-05-17T06:19:24.798Z</time>
      </trkpt>
      <trkpt lat="45.60904" lon="5.64718">
        <ele>220</ele>
        <time>2022-05-17T06:19:25.797Z</time>
      </trkpt>
      <trkpt lat="45.60909" lon="5.64726">
        <ele>221</ele>
        <time>2022-05-17T06:19:26.798Z</time>
      </trkpt>
      <trkpt lat="45.60914" lon="5.64735">
        <ele>221</ele>
        <time>2022-05-17T06:19:27.798Z</time>
      </trkpt>
      <trkpt lat="45.60919" lon="5.64743">
        <ele>221</ele>
        <time>2022-05-17T06:19:28.798Z</time>
      </trkpt>
      <trkpt lat="45.60924" lon="5.64751">
        <ele>222</ele>
        <time>2022-05-17T06:19:29.797Z</time>
      </trkpt>
      <trkpt lat="45.60929" lon="5.64759">
        <ele>222</ele>
        <time>2022-05-17T06:19:30.798Z</time>
      </trkpt>
      <trkpt lat="45.60935" lon="5.64765">
        <ele>222</ele>
        <time>2022-05-17T06:19:31.798Z</time>
      </trkpt>
      <trkpt lat="45.60942" lon="5.64772">
        <ele>222</ele>
        <time>2022-05-17T06:19:32.798Z</time>
      </trkpt>
      <trkpt lat="45.60948" lon="5.64778">
        <ele>222</ele>
        <time>2022-05-17T06:19:33.798Z</time>
      </trkpt>
      <trkpt lat="45.60954" lon="5.64784">
        <ele>222</ele>
        <time>2022-05-17T06:19:34.798Z</time>
      </trkpt>
      <trkpt lat="45.60961" lon="5.64789">
        <ele>222</ele>
        <time>2022-05-17T06:19:35.798Z</time>
      </trkpt>
      <trkpt lat="45.60968" lon="5.64793">
        <ele>221</ele>
        <time>2022-05-17T06:19:36.798Z</time>
      </trkpt>
      <trkpt lat="45.60975" lon="5.64797">
        <ele>221</ele>
        <time>2022-05-17T06:19:37.798Z</time>
      </trkpt>
      <trkpt lat="45.60983" lon="5.64801">
        <ele>220</ele>
        <time>2022-05-17T06:19:38.798Z</time>
      </trkpt>
      <trkpt lat="45.6099" lon="5.64805">
        <ele>220</ele>
        <time>2022-05-17T06:19:39.798Z</time>
      </trkpt>
      <trkpt lat="45.60998" lon="5.6481">
        <ele>220</ele>
        <time>2022-05-17T06:19:40.798Z</time>
      </trkpt>
      <trkpt lat="45.61006" lon="5.64814">
        <ele>220</ele>
        <time>2022-05-17T06:19:41.798Z</time>
      </trkpt>
      <trkpt lat="45.61013" lon="5.64817">
        <ele>219</ele>
        <time>2022-05-17T06:19:42.798Z</time>
      </trkpt>
      <trkpt lat="45.61021" lon="5.64821">
        <ele>219</ele>
        <time>2022-05-17T06:19:43.798Z</time>
      </trkpt>
      <trkpt lat="45.61028" lon="5.64824">
        <ele>219</ele>
        <time>2022-05-17T06:19:44.798Z</time>
      </trkpt>
      <trkpt lat="45.61036" lon="5.64827">
        <ele>219</ele>
        <time>2022-05-17T06:19:45.798Z</time>
      </trkpt>
      <trkpt lat="45.61045" lon="5.64831">
        <ele>219</ele>
        <time>2022-05-17T06:19:46.798Z</time>
      </trkpt>
      <trkpt lat="45.61051" lon="5.64833">
        <ele>220</ele>
        <time>2022-05-17T06:19:47.798Z</time>
      </trkpt>
      <trkpt lat="45.61058" lon="5.64835">
        <ele>221</ele>
        <time>2022-05-17T06:19:48.798Z</time>
      </trkpt>
      <trkpt lat="45.61065" lon="5.64837">
        <ele>222</ele>
        <time>2022-05-17T06:19:49.798Z</time>
      </trkpt>
      <trkpt lat="45.61072" lon="5.64839">
        <ele>222</ele>
        <time>2022-05-17T06:19:50.798Z</time>
      </trkpt>
      <trkpt lat="45.6108" lon="5.64842">
        <ele>223</ele>
        <time>2022-05-17T06:19:51.798Z</time>
      </trkpt>
      <trkpt lat="45.61087" lon="5.64844">
        <ele>224</ele>
        <time>2022-05-17T06:19:52.797Z</time>
      </trkpt>
      <trkpt lat="45.61094" lon="5.64846">
        <ele>225</ele>
        <time>2022-05-17T06:19:53.798Z</time>
      </trkpt>
      <trkpt lat="45.61104" lon="5.6485">
        <ele>225</ele>
        <time>2022-05-17T06:19:54.798Z</time>
      </trkpt>
      <trkpt lat="45.6111" lon="5.64852">
        <ele>226</ele>
        <time>2022-05-17T06:19:55.798Z</time>
      </trkpt>
      <trkpt lat="45.61117" lon="5.64857">
        <ele>226</ele>
        <time>2022-05-17T06:19:56.798Z</time>
      </trkpt>
      <trkpt lat="45.61124" lon="5.64862">
        <ele>226</ele>
        <time>2022-05-17T06:19:57.797Z</time>
      </trkpt>
      <trkpt lat="45.61131" lon="5.64869">
        <ele>226</ele>
        <time>2022-05-17T06:19:58.798Z</time>
      </trkpt>
      <trkpt lat="45.61137" lon="5.64876">
        <ele>225</ele>
        <time>2022-05-17T06:19:59.798Z</time>
      </trkpt>
      <trkpt lat="45.61143" lon="5.64883">
        <ele>225</ele>
        <time>2022-05-17T06:20:00.797Z</time>
      </trkpt>
      <trkpt lat="45.6115" lon="5.64891">
        <ele>224</ele>
        <time>2022-05-17T06:20:01.797Z</time>
      </trkpt>
      <trkpt lat="45.61157" lon="5.64898">
        <ele>224</ele>
        <time>2022-05-17T06:20:02.798Z</time>
      </trkpt>
      <trkpt lat="45.61163" lon="5.64905">
        <ele>224</ele>
        <time>2022-05-17T06:20:03.797Z</time>
      </trkpt>
      <trkpt lat="45.61169" lon="5.64913">
        <ele>224</ele>
        <time>2022-05-17T06:20:04.798Z</time>
      </trkpt>
      <trkpt lat="45.61175" lon="5.64921">
        <ele>223</ele>
        <time>2022-05-17T06:20:05.798Z</time>
      </trkpt>
      <trkpt lat="45.61181" lon="5.64929">
        <ele>223</ele>
        <time>2022-05-17T06:20:06.798Z</time>
      </trkpt>
      <trkpt lat="45.61188" lon="5.64938">
        <ele>223</ele>
        <time>2022-05-17T06:20:07.798Z</time>
      </trkpt>
      <trkpt lat="45.61195" lon="5.64946">
        <ele>223</ele>
        <time>2022-05-17T06:20:08.798Z</time>
      </trkpt>
      <trkpt lat="45.61202" lon="5.64954">
        <ele>222</ele>
        <time>2022-05-17T06:20:09.798Z</time>
      </trkpt>
      <trkpt lat="45.61208" lon="5.64962">
        <ele>222</ele>
        <time>2022-05-17T06:20:10.798Z</time>
      </trkpt>
      <trkpt lat="45.61215" lon="5.6497">
        <ele>222</ele>
        <time>2022-05-17T06:20:11.797Z</time>
      </trkpt>
      <trkpt lat="45.61222" lon="5.64978">
        <ele>222</ele>
        <time>2022-05-17T06:20:12.798Z</time>
      </trkpt>
      <trkpt lat="45.61228" lon="5.64985">
        <ele>222</ele>
        <time>2022-05-17T06:20:13.798Z</time>
      </trkpt>
      <trkpt lat="45.61234" lon="5.64993">
        <ele>222</ele>
        <time>2022-05-17T06:20:14.798Z</time>
      </trkpt>
      <trkpt lat="45.61241" lon="5.65001">
        <ele>222</ele>
        <time>2022-05-17T06:20:15.798Z</time>
      </trkpt>
      <trkpt lat="45.61247" lon="5.65009">
        <ele>221</ele>
        <time>2022-05-17T06:20:16.798Z</time>
      </trkpt>
      <trkpt lat="45.61253" lon="5.65015">
        <ele>221</ele>
        <time>2022-05-17T06:20:17.798Z</time>
      </trkpt>
      <trkpt lat="45.61261" lon="5.65025">
        <ele>221</ele>
        <time>2022-05-17T06:20:18.798Z</time>
      </trkpt>
      <trkpt lat="45.61266" lon="5.65032">
        <ele>221</ele>
        <time>2022-05-17T06:20:19.797Z</time>
      </trkpt>
      <trkpt lat="45.61272" lon="5.65041">
        <ele>221</ele>
        <time>2022-05-17T06:20:20.798Z</time>
      </trkpt>
      <trkpt lat="45.61278" lon="5.6505">
        <ele>222</ele>
        <time>2022-05-17T06:20:21.797Z</time>
      </trkpt>
      <trkpt lat="45.61284" lon="5.65059">
        <ele>222</ele>
        <time>2022-05-17T06:20:22.798Z</time>
      </trkpt>
      <trkpt lat="45.61289" lon="5.65069">
        <ele>222</ele>
        <time>2022-05-17T06:20:23.798Z</time>
      </trkpt>
      <trkpt lat="45.61294" lon="5.65078">
        <ele>223</ele>
        <time>2022-05-17T06:20:24.797Z</time>
      </trkpt>
      <trkpt lat="45.61299" lon="5.65088">
        <ele>223</ele>
        <time>2022-05-17T06:20:25.798Z</time>
      </trkpt>
      <trkpt lat="45.61303" lon="5.65099">
        <ele>223</ele>
        <time>2022-05-17T06:20:26.798Z</time>
      </trkpt>
      <trkpt lat="45.61308" lon="5.65109">
        <ele>223</ele>
        <time>2022-05-17T06:20:27.797Z</time>
      </trkpt>
      <trkpt lat="45.61312" lon="5.65119">
        <ele>224</ele>
        <time>2022-05-17T06:20:28.798Z</time>
      </trkpt>
      <trkpt lat="45.61316" lon="5.65129">
        <ele>224</ele>
        <time>2022-05-17T06:20:29.797Z</time>
      </trkpt>
      <trkpt lat="45.6132" lon="5.6514">
        <ele>224</ele>
        <time>2022-05-17T06:20:30.798Z</time>
      </trkpt>
      <trkpt lat="45.61323" lon="5.6515">
        <ele>224</ele>
        <time>2022-05-17T06:20:31.798Z</time>
      </trkpt>
      <trkpt lat="45.61326" lon="5.65161">
        <ele>224</ele>
        <time>2022-05-17T06:20:32.797Z</time>
      </trkpt>
      <trkpt lat="45.61329" lon="5.65172">
        <ele>224</ele>
        <time>2022-05-17T06:20:33.797Z</time>
      </trkpt>
      <trkpt lat="45.61331" lon="5.65183">
        <ele>224</ele>
        <time>2022-05-17T06:20:34.798Z</time>
      </trkpt>
      <trkpt lat="45.61334" lon="5.65194">
        <ele>224</ele>
        <time>2022-05-17T06:20:35.798Z</time>
      </trkpt>
      <trkpt lat="45.61336" lon="5.65207">
        <ele>224</ele>
        <time>2022-05-17T06:20:36.798Z</time>
      </trkpt>
      <trkpt lat="45.61338" lon="5.65218">
        <ele>224</ele>
        <time>2022-05-17T06:20:37.797Z</time>
      </trkpt>
      <trkpt lat="45.6134" lon="5.65226">
        <ele>223</ele>
        <time>2022-05-17T06:20:38.798Z</time>
      </trkpt>
      <trkpt lat="45.61344" lon="5.65239">
        <ele>224</ele>
        <time>2022-05-17T06:20:39.797Z</time>
      </trkpt>
      <trkpt lat="45.61348" lon="5.65249">
        <ele>224</ele>
        <time>2022-05-17T06:20:40.797Z</time>
      </trkpt>
      <trkpt lat="45.61352" lon="5.65258">
        <ele>224</ele>
        <time>2022-05-17T06:20:41.798Z</time>
      </trkpt>
      <trkpt lat="45.61356" lon="5.65267">
        <ele>225</ele>
        <time>2022-05-17T06:20:42.797Z</time>
      </trkpt>
      <trkpt lat="45.6136" lon="5.65275">
        <ele>225</ele>
        <time>2022-05-17T06:20:43.798Z</time>
      </trkpt>
      <trkpt lat="45.61365" lon="5.65286">
        <ele>225</ele>
        <time>2022-05-17T06:20:44.797Z</time>
      </trkpt>
      <trkpt lat="45.6137" lon="5.65295">
        <ele>226</ele>
        <time>2022-05-17T06:20:45.797Z</time>
      </trkpt>
      <trkpt lat="45.61376" lon="5.65303">
        <ele>226</ele>
        <time>2022-05-17T06:20:46.798Z</time>
      </trkpt>
      <trkpt lat="45.61381" lon="5.65311">
        <ele>226</ele>
        <time>2022-05-17T06:20:47.798Z</time>
      </trkpt>
      <trkpt lat="45.61386" lon="5.6532">
        <ele>227</ele>
        <time>2022-05-17T06:20:48.798Z</time>
      </trkpt>
      <trkpt lat="45.61392" lon="5.65328">
        <ele>227</ele>
        <time>2022-05-17T06:20:49.798Z</time>
      </trkpt>
      <trkpt lat="45.61398" lon="5.65336">
        <ele>227</ele>
        <time>2022-05-17T06:20:50.798Z</time>
      </trkpt>
      <trkpt lat="45.61403" lon="5.65345">
        <ele>227</ele>
        <time>2022-05-17T06:20:51.797Z</time>
      </trkpt>
      <trkpt lat="45.61408" lon="5.65355">
        <ele>228</ele>
        <time>2022-05-17T06:20:52.798Z</time>
      </trkpt>
      <trkpt lat="45.61412" lon="5.65364">
        <ele>228</ele>
        <time>2022-05-17T06:20:53.797Z</time>
      </trkpt>
      <trkpt lat="45.61417" lon="5.65373">
        <ele>228</ele>
        <time>2022-05-17T06:20:54.797Z</time>
      </trkpt>
      <trkpt lat="45.61421" lon="5.65382">
        <ele>228</ele>
        <time>2022-05-17T06:20:55.798Z</time>
      </trkpt>
      <trkpt lat="45.61425" lon="5.65391">
        <ele>228</ele>
        <time>2022-05-17T06:20:56.798Z</time>
      </trkpt>
      <trkpt lat="45.6143" lon="5.654">
        <ele>228</ele>
        <time>2022-05-17T06:20:57.798Z</time>
      </trkpt>
      <trkpt lat="45.61434" lon="5.65409">
        <ele>227</ele>
        <time>2022-05-17T06:20:58.798Z</time>
      </trkpt>
      <trkpt lat="45.61438" lon="5.65418">
        <ele>228</ele>
        <time>2022-05-17T06:20:59.798Z</time>
      </trkpt>
      <trkpt lat="45.61442" lon="5.65427">
        <ele>228</ele>
        <time>2022-05-17T06:21:00.797Z</time>
      </trkpt>
      <trkpt lat="45.61445" lon="5.65436">
        <ele>228</ele>
        <time>2022-05-17T06:21:01.798Z</time>
      </trkpt>
      <trkpt lat="45.61449" lon="5.65445">
        <ele>228</ele>
        <time>2022-05-17T06:21:02.797Z</time>
      </trkpt>
      <trkpt lat="45.61453" lon="5.65454">
        <ele>228</ele>
        <time>2022-05-17T06:21:03.798Z</time>
      </trkpt>
      <trkpt lat="45.61455" lon="5.65464">
        <ele>229</ele>
        <time>2022-05-17T06:21:04.798Z</time>
      </trkpt>
      <trkpt lat="45.61458" lon="5.65473">
        <ele>229</ele>
        <time>2022-05-17T06:21:05.797Z</time>
      </trkpt>
      <trkpt lat="45.61461" lon="5.6548">
        <ele>229</ele>
        <time>2022-05-17T06:21:06.798Z</time>
      </trkpt>
      <trkpt lat="45.61464" lon="5.65492">
        <ele>229</ele>
        <time>2022-05-17T06:21:07.798Z</time>
      </trkpt>
      <trkpt lat="45.61465" lon="5.65499">
        <ele>229</ele>
        <time>2022-05-17T06:21:08.798Z</time>
      </trkpt>
      <trkpt lat="45.61468" lon="5.65511">
        <ele>229</ele>
        <time>2022-05-17T06:21:09.798Z</time>
      </trkpt>
      <trkpt lat="45.6147" lon="5.65521">
        <ele>229</ele>
        <time>2022-05-17T06:21:10.797Z</time>
      </trkpt>
      <trkpt lat="45.61472" lon="5.65528">
        <ele>229</ele>
        <time>2022-05-17T06:21:11.798Z</time>
      </trkpt>
      <trkpt lat="45.61475" lon="5.65537">
        <ele>229</ele>
        <time>2022-05-17T06:21:12.798Z</time>
      </trkpt>
      <trkpt lat="45.61477" lon="5.65546">
        <ele>229</ele>
        <time>2022-05-17T06:21:13.798Z</time>
      </trkpt>
      <trkpt lat="45.6148" lon="5.65555">
        <ele>230</ele>
        <time>2022-05-17T06:21:14.798Z</time>
      </trkpt>
      <trkpt lat="45.61482" lon="5.65565">
        <ele>230</ele>
        <time>2022-05-17T06:21:15.798Z</time>
      </trkpt>
      <trkpt lat="45.61485" lon="5.65574">
        <ele>230</ele>
        <time>2022-05-17T06:21:16.798Z</time>
      </trkpt>
      <trkpt lat="45.61487" lon="5.65583">
        <ele>230</ele>
        <time>2022-05-17T06:21:17.798Z</time>
      </trkpt>
      <trkpt lat="45.6149" lon="5.65592">
        <ele>230</ele>
        <time>2022-05-17T06:21:18.798Z</time>
      </trkpt>
      <trkpt lat="45.61492" lon="5.65602">
        <ele>230</ele>
        <time>2022-05-17T06:21:19.798Z</time>
      </trkpt>
      <trkpt lat="45.61494" lon="5.65611">
        <ele>230</ele>
        <time>2022-05-17T06:21:20.798Z</time>
      </trkpt>
      <trkpt lat="45.61497" lon="5.65622">
        <ele>230</ele>
        <time>2022-05-17T06:21:21.797Z</time>
      </trkpt>
      <trkpt lat="45.61499" lon="5.65632">
        <ele>230</ele>
        <time>2022-05-17T06:21:22.797Z</time>
      </trkpt>
      <trkpt lat="45.61501" lon="5.65639">
        <ele>229</ele>
        <time>2022-05-17T06:21:23.798Z</time>
      </trkpt>
      <trkpt lat="45.61504" lon="5.65648">
        <ele>229</ele>
        <time>2022-05-17T06:21:24.798Z</time>
      </trkpt>
      <trkpt lat="45.61506" lon="5.65657">
        <ele>230</ele>
        <time>2022-05-17T06:21:25.798Z</time>
      </trkpt>
      <trkpt lat="45.61509" lon="5.65666">
        <ele>231</ele>
        <time>2022-05-17T06:21:26.798Z</time>
      </trkpt>
      <trkpt lat="45.61512" lon="5.65677">
        <ele>231</ele>
        <time>2022-05-17T06:21:27.798Z</time>
      </trkpt>
      <trkpt lat="45.61514" lon="5.65685">
        <ele>231</ele>
        <time>2022-05-17T06:21:28.798Z</time>
      </trkpt>
      <trkpt lat="45.61516" lon="5.65694">
        <ele>231</ele>
        <time>2022-05-17T06:21:29.798Z</time>
      </trkpt>
      <trkpt lat="45.61519" lon="5.65703">
        <ele>232</ele>
        <time>2022-05-17T06:21:30.797Z</time>
      </trkpt>
      <trkpt lat="45.61522" lon="5.65713">
        <ele>233</ele>
        <time>2022-05-17T06:21:31.797Z</time>
      </trkpt>
      <trkpt lat="45.61524" lon="5.65722">
        <ele>233</ele>
        <time>2022-05-17T06:21:32.798Z</time>
      </trkpt>
      <trkpt lat="45.61527" lon="5.65731">
        <ele>233</ele>
        <time>2022-05-17T06:21:33.797Z</time>
      </trkpt>
      <trkpt lat="45.6153" lon="5.6574">
        <ele>233</ele>
        <time>2022-05-17T06:21:34.797Z</time>
      </trkpt>
      <trkpt lat="45.61533" lon="5.65749">
        <ele>233</ele>
        <time>2022-05-17T06:21:35.798Z</time>
      </trkpt>
      <trkpt lat="45.61536" lon="5.65758">
        <ele>234</ele>
        <time>2022-05-17T06:21:36.798Z</time>
      </trkpt>
      <trkpt lat="45.61538" lon="5.65766">
        <ele>234</ele>
        <time>2022-05-17T06:21:37.798Z</time>
      </trkpt>
      <trkpt lat="45.61541" lon="5.65775">
        <ele>233</ele>
        <time>2022-05-17T06:21:38.798Z</time>
      </trkpt>
      <trkpt lat="45.61544" lon="5.65784">
        <ele>233</ele>
        <time>2022-05-17T06:21:39.797Z</time>
      </trkpt>
      <trkpt lat="45.61547" lon="5.65793">
        <ele>233</ele>
        <time>2022-05-17T06:21:40.798Z</time>
      </trkpt>
      <trkpt lat="45.6155" lon="5.65801">
        <ele>233</ele>
        <time>2022-05-17T06:21:41.798Z</time>
      </trkpt>
      <trkpt lat="45.61552" lon="5.6581">
        <ele>232</ele>
        <time>2022-05-17T06:21:42.798Z</time>
      </trkpt>
      <trkpt lat="45.61556" lon="5.65819">
        <ele>232</ele>
        <time>2022-05-17T06:21:43.797Z</time>
      </trkpt>
      <trkpt lat="45.61559" lon="5.65827">
        <ele>232</ele>
        <time>2022-05-17T06:21:44.798Z</time>
      </trkpt>
      <trkpt lat="45.61562" lon="5.65836">
        <ele>232</ele>
        <time>2022-05-17T06:21:45.798Z</time>
      </trkpt>
      <trkpt lat="45.61565" lon="5.65845">
        <ele>232</ele>
        <time>2022-05-17T06:21:46.798Z</time>
      </trkpt>
      <trkpt lat="45.61568" lon="5.65853">
        <ele>232</ele>
        <time>2022-05-17T06:21:47.798Z</time>
      </trkpt>
      <trkpt lat="45.61571" lon="5.65862">
        <ele>232</ele>
        <time>2022-05-17T06:21:48.798Z</time>
      </trkpt>
      <trkpt lat="45.61574" lon="5.65871">
        <ele>232</ele>
        <time>2022-05-17T06:21:49.798Z</time>
      </trkpt>
      <trkpt lat="45.61577" lon="5.65879">
        <ele>233</ele>
        <time>2022-05-17T06:21:50.797Z</time>
      </trkpt>
      <trkpt lat="45.6158" lon="5.65888">
        <ele>233</ele>
        <time>2022-05-17T06:21:51.798Z</time>
      </trkpt>
      <trkpt lat="45.61583" lon="5.65897">
        <ele>233</ele>
        <time>2022-05-17T06:21:52.798Z</time>
      </trkpt>
      <trkpt lat="45.61586" lon="5.65905">
        <ele>234</ele>
        <time>2022-05-17T06:21:53.798Z</time>
      </trkpt>
      <trkpt lat="45.61589" lon="5.65914">
        <ele>234</ele>
        <time>2022-05-17T06:21:54.798Z</time>
      </trkpt>
      <trkpt lat="45.61592" lon="5.65923">
        <ele>234</ele>
        <time>2022-05-17T06:21:55.797Z</time>
      </trkpt>
      <trkpt lat="45.61595" lon="5.65932">
        <ele>234</ele>
        <time>2022-05-17T06:21:56.797Z</time>
      </trkpt>
      <trkpt lat="45.61599" lon="5.65941">
        <ele>234</ele>
        <time>2022-05-17T06:21:57.798Z</time>
      </trkpt>
      <trkpt lat="45.61602" lon="5.6595">
        <ele>234</ele>
        <time>2022-05-17T06:21:58.798Z</time>
      </trkpt>
      <trkpt lat="45.61606" lon="5.6596">
        <ele>234</ele>
        <time>2022-05-17T06:21:59.797Z</time>
      </trkpt>
      <trkpt lat="45.61609" lon="5.65969">
        <ele>234</ele>
        <time>2022-05-17T06:22:00.797Z</time>
      </trkpt>
      <trkpt lat="45.61613" lon="5.65978">
        <ele>234</ele>
        <time>2022-05-17T06:22:01.797Z</time>
      </trkpt>
      <trkpt lat="45.61617" lon="5.65987">
        <ele>234</ele>
        <time>2022-05-17T06:22:02.798Z</time>
      </trkpt>
      <trkpt lat="45.61621" lon="5.65996">
        <ele>234</ele>
        <time>2022-05-17T06:22:03.797Z</time>
      </trkpt>
      <trkpt lat="45.61626" lon="5.66004">
        <ele>234</ele>
        <time>2022-05-17T06:22:04.798Z</time>
      </trkpt>
      <trkpt lat="45.61631" lon="5.66013">
        <ele>235</ele>
        <time>2022-05-17T06:22:05.798Z</time>
      </trkpt>
      <trkpt lat="45.61637" lon="5.66021">
        <ele>235</ele>
        <time>2022-05-17T06:22:06.798Z</time>
      </trkpt>
      <trkpt lat="45.61643" lon="5.66029">
        <ele>236</ele>
        <time>2022-05-17T06:22:07.797Z</time>
      </trkpt>
      <trkpt lat="45.61648" lon="5.66038">
        <ele>237</ele>
        <time>2022-05-17T06:22:08.798Z</time>
      </trkpt>
      <trkpt lat="45.61654" lon="5.66047">
        <ele>237</ele>
        <time>2022-05-17T06:22:09.797Z</time>
      </trkpt>
      <trkpt lat="45.61659" lon="5.66057">
        <ele>237</ele>
        <time>2022-05-17T06:22:10.798Z</time>
      </trkpt>
      <trkpt lat="45.61663" lon="5.66064">
        <ele>237</ele>
        <time>2022-05-17T06:22:11.798Z</time>
      </trkpt>
      <trkpt lat="45.6167" lon="5.66076">
        <ele>237</ele>
        <time>2022-05-17T06:22:12.797Z</time>
      </trkpt>
      <trkpt lat="45.61676" lon="5.66086">
        <ele>237</ele>
        <time>2022-05-17T06:22:13.798Z</time>
      </trkpt>
      <trkpt lat="45.61682" lon="5.66096">
        <ele>237</ele>
        <time>2022-05-17T06:22:14.798Z</time>
      </trkpt>
      <trkpt lat="45.61688" lon="5.66105">
        <ele>237</ele>
        <time>2022-05-17T06:22:15.798Z</time>
      </trkpt>
      <trkpt lat="45.61694" lon="5.66115">
        <ele>237</ele>
        <time>2022-05-17T06:22:16.798Z</time>
      </trkpt>
      <trkpt lat="45.61701" lon="5.66125">
        <ele>237</ele>
        <time>2022-05-17T06:22:17.798Z</time>
      </trkpt>
      <trkpt lat="45.61708" lon="5.66136">
        <ele>237</ele>
        <time>2022-05-17T06:22:18.797Z</time>
      </trkpt>
      <trkpt lat="45.61714" lon="5.66146">
        <ele>237</ele>
        <time>2022-05-17T06:22:19.797Z</time>
      </trkpt>
      <trkpt lat="45.6172" lon="5.66156">
        <ele>237</ele>
        <time>2022-05-17T06:22:20.798Z</time>
      </trkpt>
      <trkpt lat="45.61726" lon="5.66167">
        <ele>237</ele>
        <time>2022-05-17T06:22:21.797Z</time>
      </trkpt>
      <trkpt lat="45.61732" lon="5.66177">
        <ele>236</ele>
        <time>2022-05-17T06:22:22.798Z</time>
      </trkpt>
      <trkpt lat="45.61739" lon="5.66187">
        <ele>236</ele>
        <time>2022-05-17T06:22:23.797Z</time>
      </trkpt>
      <trkpt lat="45.61745" lon="5.66195">
        <ele>235</ele>
        <time>2022-05-17T06:22:24.797Z</time>
      </trkpt>
      <trkpt lat="45.61754" lon="5.66206">
        <ele>235</ele>
        <time>2022-05-17T06:22:25.797Z</time>
      </trkpt>
      <trkpt lat="45.61762" lon="5.66215">
        <ele>234</ele>
        <time>2022-05-17T06:22:26.797Z</time>
      </trkpt>
      <trkpt lat="45.6177" lon="5.66224">
        <ele>234</ele>
        <time>2022-05-17T06:22:27.798Z</time>
      </trkpt>
      <trkpt lat="45.61778" lon="5.66233">
        <ele>234</ele>
        <time>2022-05-17T06:22:28.798Z</time>
      </trkpt>
      <trkpt lat="45.61787" lon="5.66241">
        <ele>234</ele>
        <time>2022-05-17T06:22:29.797Z</time>
      </trkpt>
      <trkpt lat="45.61795" lon="5.66251">
        <ele>233</ele>
        <time>2022-05-17T06:22:30.797Z</time>
      </trkpt>
      <trkpt lat="45.61804" lon="5.6626">
        <ele>233</ele>
        <time>2022-05-17T06:22:31.798Z</time>
      </trkpt>
      <trkpt lat="45.61812" lon="5.6627">
        <ele>233</ele>
        <time>2022-05-17T06:22:32.797Z</time>
      </trkpt>
      <trkpt lat="45.61819" lon="5.66277">
        <ele>232</ele>
        <time>2022-05-17T06:22:33.797Z</time>
      </trkpt>
      <trkpt lat="45.61829" lon="5.66289">
        <ele>232</ele>
        <time>2022-05-17T06:22:34.798Z</time>
      </trkpt>
      <trkpt lat="45.61838" lon="5.66298">
        <ele>231</ele>
        <time>2022-05-17T06:22:35.797Z</time>
      </trkpt>
      <trkpt lat="45.61847" lon="5.66308">
        <ele>231</ele>
        <time>2022-05-17T06:22:36.798Z</time>
      </trkpt>
      <trkpt lat="45.61856" lon="5.66318">
        <ele>231</ele>
        <time>2022-05-17T06:22:37.797Z</time>
      </trkpt>
      <trkpt lat="45.61865" lon="5.66327">
        <ele>230</ele>
        <time>2022-05-17T06:22:38.797Z</time>
      </trkpt>
      <trkpt lat="45.61874" lon="5.66336">
        <ele>230</ele>
        <time>2022-05-17T06:22:39.798Z</time>
      </trkpt>
      <trkpt lat="45.61884" lon="5.66344">
        <ele>229</ele>
        <time>2022-05-17T06:22:40.798Z</time>
      </trkpt>
      <trkpt lat="45.61894" lon="5.66351">
        <ele>229</ele>
        <time>2022-05-17T06:22:41.798Z</time>
      </trkpt>
      <trkpt lat="45.61904" lon="5.66358">
        <ele>228</ele>
        <time>2022-05-17T06:22:42.798Z</time>
      </trkpt>
      <trkpt lat="45.61915" lon="5.66365">
        <ele>227</ele>
        <time>2022-05-17T06:22:43.797Z</time>
      </trkpt>
      <trkpt lat="45.61923" lon="5.66369">
        <ele>227</ele>
        <time>2022-05-17T06:22:44.798Z</time>
      </trkpt>
      <trkpt lat="45.61933" lon="5.66375">
        <ele>226</ele>
        <time>2022-05-17T06:22:45.798Z</time>
      </trkpt>
      <trkpt lat="45.61943" lon="5.66381">
        <ele>225</ele>
        <time>2022-05-17T06:22:46.798Z</time>
      </trkpt>
      <trkpt lat="45.61954" lon="5.66386">
        <ele>224</ele>
        <time>2022-05-17T06:22:47.797Z</time>
      </trkpt>
      <trkpt lat="45.61965" lon="5.66391">
        <ele>223</ele>
        <time>2022-05-17T06:22:48.798Z</time>
      </trkpt>
      <trkpt lat="45.61975" lon="5.66395">
        <ele>223</ele>
        <time>2022-05-17T06:22:49.798Z</time>
      </trkpt>
      <trkpt lat="45.61985" lon="5.664">
        <ele>222</ele>
        <time>2022-05-17T06:22:50.798Z</time>
      </trkpt>
      <trkpt lat="45.61995" lon="5.66403">
        <ele>222</ele>
        <time>2022-05-17T06:22:51.797Z</time>
      </trkpt>
      <trkpt lat="45.62005" lon="5.66407">
        <ele>223</ele>
        <time>2022-05-17T06:22:52.797Z</time>
      </trkpt>
      <trkpt lat="45.62014" lon="5.66411">
        <ele>223</ele>
        <time>2022-05-17T06:22:53.798Z</time>
      </trkpt>
      <trkpt lat="45.62024" lon="5.66415">
        <ele>223</ele>
        <time>2022-05-17T06:22:54.798Z</time>
      </trkpt>
      <trkpt lat="45.62033" lon="5.66419">
        <ele>223</ele>
        <time>2022-05-17T06:22:55.798Z</time>
      </trkpt>
      <trkpt lat="45.62041" lon="5.66423">
        <ele>222</ele>
        <time>2022-05-17T06:22:56.798Z</time>
      </trkpt>
      <trkpt lat="45.6205" lon="5.66427">
        <ele>222</ele>
        <time>2022-05-17T06:22:57.797Z</time>
      </trkpt>
      <trkpt lat="45.62058" lon="5.66432">
        <ele>222</ele>
        <time>2022-05-17T06:22:58.798Z</time>
      </trkpt>
      <trkpt lat="45.62067" lon="5.66437">
        <ele>222</ele>
        <time>2022-05-17T06:22:59.797Z</time>
      </trkpt>
      <trkpt lat="45.62076" lon="5.66443">
        <ele>222</ele>
        <time>2022-05-17T06:23:00.798Z</time>
      </trkpt>
      <trkpt lat="45.62082" lon="5.66448">
        <ele>222</ele>
        <time>2022-05-17T06:23:01.798Z</time>
      </trkpt>
      <trkpt lat="45.62089" lon="5.66454">
        <ele>222</ele>
        <time>2022-05-17T06:23:02.798Z</time>
      </trkpt>
      <trkpt lat="45.62098" lon="5.66462">
        <ele>221</ele>
        <time>2022-05-17T06:23:03.798Z</time>
      </trkpt>
      <trkpt lat="45.62104" lon="5.66467">
        <ele>221</ele>
        <time>2022-05-17T06:23:04.798Z</time>
      </trkpt>
      <trkpt lat="45.6211" lon="5.66473">
        <ele>221</ele>
        <time>2022-05-17T06:23:05.797Z</time>
      </trkpt>
      <trkpt lat="45.62116" lon="5.66479">
        <ele>221</ele>
        <time>2022-05-17T06:23:06.798Z</time>
      </trkpt>
      <trkpt lat="45.62122" lon="5.66485">
        <ele>221</ele>
        <time>2022-05-17T06:23:07.798Z</time>
      </trkpt>
      <trkpt lat="45.62129" lon="5.66491">
        <ele>221</ele>
        <time>2022-05-17T06:23:08.798Z</time>
      </trkpt>
      <trkpt lat="45.62134" lon="5.66498">
        <ele>221</ele>
        <time>2022-05-17T06:23:09.797Z</time>
      </trkpt>
      <trkpt lat="45.6214" lon="5.66505">
        <ele>222</ele>
        <time>2022-05-17T06:23:10.797Z</time>
      </trkpt>
      <trkpt lat="45.62146" lon="5.66512">
        <ele>222</ele>
        <time>2022-05-17T06:23:11.797Z</time>
      </trkpt>
      <trkpt lat="45.62152" lon="5.6652">
        <ele>223</ele>
        <time>2022-05-17T06:23:12.798Z</time>
      </trkpt>
      <trkpt lat="45.62158" lon="5.66527">
        <ele>223</ele>
        <time>2022-05-17T06:23:13.798Z</time>
      </trkpt>
      <trkpt lat="45.62163" lon="5.66535">
        <ele>223</ele>
        <time>2022-05-17T06:23:14.797Z</time>
      </trkpt>
      <trkpt lat="45.6217" lon="5.66542">
        <ele>223</ele>
        <time>2022-05-17T06:23:15.797Z</time>
      </trkpt>
      <trkpt lat="45.62176" lon="5.66549">
        <ele>224</ele>
        <time>2022-05-17T06:23:16.797Z</time>
      </trkpt>
      <trkpt lat="45.62184" lon="5.66558">
        <ele>224</ele>
        <time>2022-05-17T06:23:17.798Z</time>
      </trkpt>
      <trkpt lat="45.62188" lon="5.66564">
        <ele>225</ele>
        <time>2022-05-17T06:23:18.798Z</time>
      </trkpt>
      <trkpt lat="45.62194" lon="5.66571">
        <ele>225</ele>
        <time>2022-05-17T06:23:19.798Z</time>
      </trkpt>
      <trkpt lat="45.622" lon="5.66578">
        <ele>225</ele>
        <time>2022-05-17T06:23:20.798Z</time>
      </trkpt>
      <trkpt lat="45.62206" lon="5.66586">
        <ele>225</ele>
        <time>2022-05-17T06:23:21.798Z</time>
      </trkpt>
      <trkpt lat="45.62212" lon="5.66592">
        <ele>225</ele>
        <time>2022-05-17T06:23:22.798Z</time>
      </trkpt>
      <trkpt lat="45.62219" lon="5.66599">
        <ele>225</ele>
        <time>2022-05-17T06:23:23.797Z</time>
      </trkpt>
      <trkpt lat="45.62225" lon="5.66606">
        <ele>226</ele>
        <time>2022-05-17T06:23:24.797Z</time>
      </trkpt>
      <trkpt lat="45.62232" lon="5.66612">
        <ele>226</ele>
        <time>2022-05-17T06:23:25.797Z</time>
      </trkpt>
      <trkpt lat="45.62239" lon="5.66618">
        <ele>226</ele>
        <time>2022-05-17T06:23:26.798Z</time>
      </trkpt>
      <trkpt lat="45.62246" lon="5.66625">
        <ele>226</ele>
        <time>2022-05-17T06:23:27.798Z</time>
      </trkpt>
      <trkpt lat="45.62253" lon="5.66632">
        <ele>226</ele>
        <time>2022-05-17T06:23:28.798Z</time>
      </trkpt>
      <trkpt lat="45.62259" lon="5.66639">
        <ele>226</ele>
        <time>2022-05-17T06:23:29.798Z</time>
      </trkpt>
      <trkpt lat="45.62266" lon="5.66646">
        <ele>225</ele>
        <time>2022-05-17T06:23:30.797Z</time>
      </trkpt>
      <trkpt lat="45.62272" lon="5.66654">
        <ele>225</ele>
        <time>2022-05-17T06:23:31.798Z</time>
      </trkpt>
      <trkpt lat="45.62278" lon="5.66662">
        <ele>225</ele>
        <time>2022-05-17T06:23:32.797Z</time>
      </trkpt>
      <trkpt lat="45.62284" lon="5.66671">
        <ele>225</ele>
        <time>2022-05-17T06:23:33.797Z</time>
      </trkpt>
      <trkpt lat="45.62289" lon="5.66681">
        <ele>225</ele>
        <time>2022-05-17T06:23:34.797Z</time>
      </trkpt>
      <trkpt lat="45.62294" lon="5.66691">
        <ele>225</ele>
        <time>2022-05-17T06:23:35.798Z</time>
      </trkpt>
      <trkpt lat="45.62298" lon="5.66702">
        <ele>225</ele>
        <time>2022-05-17T06:23:36.798Z</time>
      </trkpt>
      <trkpt lat="45.62302" lon="5.66712">
        <ele>225</ele>
        <time>2022-05-17T06:23:37.798Z</time>
      </trkpt>
      <trkpt lat="45.62306" lon="5.66723">
        <ele>225</ele>
        <time>2022-05-17T06:23:38.798Z</time>
      </trkpt>
      <trkpt lat="45.6231" lon="5.66734">
        <ele>225</ele>
        <time>2022-05-17T06:23:39.798Z</time>
      </trkpt>
      <trkpt lat="45.62314" lon="5.66745">
        <ele>225</ele>
        <time>2022-05-17T06:23:40.798Z</time>
      </trkpt>
      <trkpt lat="45.62319" lon="5.66755">
        <ele>224</ele>
        <time>2022-05-17T06:23:41.798Z</time>
      </trkpt>
      <trkpt lat="45.62324" lon="5.66766">
        <ele>224</ele>
        <time>2022-05-17T06:23:42.798Z</time>
      </trkpt>
      <trkpt lat="45.6233" lon="5.66776">
        <ele>224</ele>
        <time>2022-05-17T06:23:43.798Z</time>
      </trkpt>
      <trkpt lat="45.62336" lon="5.66786">
        <ele>223</ele>
        <time>2022-05-17T06:23:44.798Z</time>
      </trkpt>
      <trkpt lat="45.62341" lon="5.66797">
        <ele>223</ele>
        <time>2022-05-17T06:23:45.797Z</time>
      </trkpt>
      <trkpt lat="45.62347" lon="5.66807">
        <ele>223</ele>
        <time>2022-05-17T06:23:46.798Z</time>
      </trkpt>
      <trkpt lat="45.62354" lon="5.66818">
        <ele>223</ele>
        <time>2022-05-17T06:23:47.798Z</time>
      </trkpt>
      <trkpt lat="45.6236" lon="5.66828">
        <ele>223</ele>
        <time>2022-05-17T06:23:48.798Z</time>
      </trkpt>
      <trkpt lat="45.62365" lon="5.66839">
        <ele>224</ele>
        <time>2022-05-17T06:23:49.798Z</time>
      </trkpt>
      <trkpt lat="45.62371" lon="5.66849">
        <ele>224</ele>
        <time>2022-05-17T06:23:50.798Z</time>
      </trkpt>
      <trkpt lat="45.62376" lon="5.66859">
        <ele>224</ele>
        <time>2022-05-17T06:23:51.798Z</time>
      </trkpt>
      <trkpt lat="45.62381" lon="5.6687">
        <ele>224</ele>
        <time>2022-05-17T06:23:52.798Z</time>
      </trkpt>
      <trkpt lat="45.62386" lon="5.6688">
        <ele>223</ele>
        <time>2022-05-17T06:23:53.798Z</time>
      </trkpt>
      <trkpt lat="45.62391" lon="5.66892">
        <ele>223</ele>
        <time>2022-05-17T06:23:54.798Z</time>
      </trkpt>
      <trkpt lat="45.62396" lon="5.66902">
        <ele>222</ele>
        <time>2022-05-17T06:23:55.797Z</time>
      </trkpt>
      <trkpt lat="45.624" lon="5.6691">
        <ele>222</ele>
        <time>2022-05-17T06:23:56.798Z</time>
      </trkpt>
      <trkpt lat="45.62406" lon="5.66922">
        <ele>222</ele>
        <time>2022-05-17T06:23:57.798Z</time>
      </trkpt>
      <trkpt lat="45.62409" lon="5.66931">
        <ele>221</ele>
        <time>2022-05-17T06:23:58.797Z</time>
      </trkpt>
      <trkpt lat="45.62414" lon="5.6694">
        <ele>221</ele>
        <time>2022-05-17T06:23:59.798Z</time>
      </trkpt>
      <trkpt lat="45.62419" lon="5.6695">
        <ele>221</ele>
        <time>2022-05-17T06:24:00.797Z</time>
      </trkpt>
      <trkpt lat="45.62424" lon="5.66959">
        <ele>221</ele>
        <time>2022-05-17T06:24:01.798Z</time>
      </trkpt>
      <trkpt lat="45.62431" lon="5.6697">
        <ele>221</ele>
        <time>2022-05-17T06:24:02.798Z</time>
      </trkpt>
      <trkpt lat="45.62437" lon="5.66978">
        <ele>221</ele>
        <time>2022-05-17T06:24:03.798Z</time>
      </trkpt>
      <trkpt lat="45.62443" lon="5.66987">
        <ele>220</ele>
        <time>2022-05-17T06:24:04.798Z</time>
      </trkpt>
      <trkpt lat="45.62447" lon="5.66993">
        <ele>220</ele>
        <time>2022-05-17T06:24:05.797Z</time>
      </trkpt>
      <trkpt lat="45.62454" lon="5.67001">
        <ele>219</ele>
        <time>2022-05-17T06:24:06.798Z</time>
      </trkpt>
      <trkpt lat="45.62461" lon="5.67011">
        <ele>219</ele>
        <time>2022-05-17T06:24:07.797Z</time>
      </trkpt>
      <trkpt lat="45.62467" lon="5.67019">
        <ele>219</ele>
        <time>2022-05-17T06:24:08.798Z</time>
      </trkpt>
      <trkpt lat="45.62472" lon="5.67025">
        <ele>219</ele>
        <time>2022-05-17T06:24:09.797Z</time>
      </trkpt>
      <trkpt lat="45.62479" lon="5.67033">
        <ele>219</ele>
        <time>2022-05-17T06:24:10.798Z</time>
      </trkpt>
      <trkpt lat="45.62485" lon="5.67039">
        <ele>219</ele>
        <time>2022-05-17T06:24:11.797Z</time>
      </trkpt>
      <trkpt lat="45.62492" lon="5.67045">
        <ele>219</ele>
        <time>2022-05-17T06:24:12.797Z</time>
      </trkpt>
      <trkpt lat="45.625" lon="5.67052">
        <ele>219</ele>
        <time>2022-05-17T06:24:13.798Z</time>
      </trkpt>
      <trkpt lat="45.62506" lon="5.67056">
        <ele>219</ele>
        <time>2022-05-17T06:24:14.798Z</time>
      </trkpt>
      <trkpt lat="45.62513" lon="5.67061">
        <ele>219</ele>
        <time>2022-05-17T06:24:15.798Z</time>
      </trkpt>
      <trkpt lat="45.62521" lon="5.67067">
        <ele>219</ele>
        <time>2022-05-17T06:24:16.798Z</time>
      </trkpt>
      <trkpt lat="45.62528" lon="5.67071">
        <ele>219</ele>
        <time>2022-05-17T06:24:17.798Z</time>
      </trkpt>
      <trkpt lat="45.62534" lon="5.67076">
        <ele>219</ele>
        <time>2022-05-17T06:24:18.797Z</time>
      </trkpt>
      <trkpt lat="45.6254" lon="5.6708">
        <ele>219</ele>
        <time>2022-05-17T06:24:19.798Z</time>
      </trkpt>
      <trkpt lat="45.62546" lon="5.67084">
        <ele>219</ele>
        <time>2022-05-17T06:24:20.798Z</time>
      </trkpt>
      <trkpt lat="45.62553" lon="5.67089">
        <ele>219</ele>
        <time>2022-05-17T06:24:21.797Z</time>
      </trkpt>
      <trkpt lat="45.6256" lon="5.67095">
        <ele>219</ele>
        <time>2022-05-17T06:24:22.797Z</time>
      </trkpt>
      <trkpt lat="45.62566" lon="5.671">
        <ele>219</ele>
        <time>2022-05-17T06:24:23.797Z</time>
      </trkpt>
      <trkpt lat="45.62572" lon="5.67107">
        <ele>219</ele>
        <time>2022-05-17T06:24:24.797Z</time>
      </trkpt>
      <trkpt lat="45.62578" lon="5.67114">
        <ele>219</ele>
        <time>2022-05-17T06:24:25.797Z</time>
      </trkpt>
      <trkpt lat="45.62584" lon="5.67122">
        <ele>219</ele>
        <time>2022-05-17T06:24:26.798Z</time>
      </trkpt>
      <trkpt lat="45.62591" lon="5.6713">
        <ele>219</ele>
        <time>2022-05-17T06:24:27.798Z</time>
      </trkpt>
      <trkpt lat="45.62596" lon="5.67136">
        <ele>219</ele>
        <time>2022-05-17T06:24:28.798Z</time>
      </trkpt>
      <trkpt lat="45.62603" lon="5.67144">
        <ele>219</ele>
        <time>2022-05-17T06:24:29.797Z</time>
      </trkpt>
      <trkpt lat="45.6261" lon="5.67151">
        <ele>219</ele>
        <time>2022-05-17T06:24:30.798Z</time>
      </trkpt>
      <trkpt lat="45.62617" lon="5.67157">
        <ele>220</ele>
        <time>2022-05-17T06:24:31.797Z</time>
      </trkpt>
      <trkpt lat="45.62625" lon="5.67163">
        <ele>220</ele>
        <time>2022-05-17T06:24:32.798Z</time>
      </trkpt>
      <trkpt lat="45.62633" lon="5.67168">
        <ele>220</ele>
        <time>2022-05-17T06:24:33.798Z</time>
      </trkpt>
      <trkpt lat="45.62642" lon="5.67173">
        <ele>220</ele>
        <time>2022-05-17T06:24:34.798Z</time>
      </trkpt>
      <trkpt lat="45.62649" lon="5.67177">
        <ele>220</ele>
        <time>2022-05-17T06:24:35.798Z</time>
      </trkpt>
      <trkpt lat="45.62657" lon="5.67181">
        <ele>219</ele>
        <time>2022-05-17T06:24:36.798Z</time>
      </trkpt>
      <trkpt lat="45.62666" lon="5.67185">
        <ele>219</ele>
        <time>2022-05-17T06:24:37.797Z</time>
      </trkpt>
      <trkpt lat="45.62675" lon="5.6719">
        <ele>219</ele>
        <time>2022-05-17T06:24:38.798Z</time>
      </trkpt>
      <trkpt lat="45.62681" lon="5.67193">
        <ele>219</ele>
        <time>2022-05-17T06:24:39.798Z</time>
      </trkpt>
      <trkpt lat="45.62689" lon="5.67197">
        <ele>219</ele>
        <time>2022-05-17T06:24:40.798Z</time>
      </trkpt>
      <trkpt lat="45.62696" lon="5.67201">
        <ele>219</ele>
        <time>2022-05-17T06:24:41.798Z</time>
      </trkpt>
      <trkpt lat="45.62703" lon="5.67205">
        <ele>219</ele>
        <time>2022-05-17T06:24:42.797Z</time>
      </trkpt>
      <trkpt lat="45.62712" lon="5.6721">
        <ele>218</ele>
        <time>2022-05-17T06:24:43.798Z</time>
      </trkpt>
      <trkpt lat="45.62718" lon="5.67213">
        <ele>218</ele>
        <time>2022-05-17T06:24:44.798Z</time>
      </trkpt>
      <trkpt lat="45.62726" lon="5.67218">
        <ele>218</ele>
        <time>2022-05-17T06:24:45.797Z</time>
      </trkpt>
      <trkpt lat="45.62731" lon="5.67222">
        <ele>218</ele>
        <time>2022-05-17T06:24:46.797Z</time>
      </trkpt>
      <trkpt lat="45.62739" lon="5.67228">
        <ele>218</ele>
        <time>2022-05-17T06:24:47.798Z</time>
      </trkpt>
      <trkpt lat="45.62745" lon="5.67234">
        <ele>218</ele>
        <time>2022-05-17T06:24:48.798Z</time>
      </trkpt>
      <trkpt lat="45.6275" lon="5.67239">
        <ele>218</ele>
        <time>2022-05-17T06:24:49.798Z</time>
      </trkpt>
      <trkpt lat="45.62756" lon="5.67246">
        <ele>218</ele>
        <time>2022-05-17T06:24:50.798Z</time>
      </trkpt>
      <trkpt lat="45.62761" lon="5.67253">
        <ele>218</ele>
        <time>2022-05-17T06:24:51.798Z</time>
      </trkpt>
      <trkpt lat="45.62766" lon="5.6726">
        <ele>218</ele>
        <time>2022-05-17T06:24:52.797Z</time>
      </trkpt>
      <trkpt lat="45.62772" lon="5.67267">
        <ele>219</ele>
        <time>2022-05-17T06:24:53.798Z</time>
      </trkpt>
      <trkpt lat="45.62777" lon="5.67274">
        <ele>219</ele>
        <time>2022-05-17T06:24:54.798Z</time>
      </trkpt>
      <trkpt lat="45.62782" lon="5.67281">
        <ele>219</ele>
        <time>2022-05-17T06:24:55.798Z</time>
      </trkpt>
      <trkpt lat="45.62787" lon="5.67288">
        <ele>219</ele>
        <time>2022-05-17T06:24:56.797Z</time>
      </trkpt>
      <trkpt lat="45.62791" lon="5.67296">
        <ele>219</ele>
        <time>2022-05-17T06:24:57.798Z</time>
      </trkpt>
      <trkpt lat="45.62797" lon="5.67303">
        <ele>219</ele>
        <time>2022-05-17T06:24:58.798Z</time>
      </trkpt>
      <trkpt lat="45.62802" lon="5.67311">
        <ele>219</ele>
        <time>2022-05-17T06:24:59.798Z</time>
      </trkpt>
      <trkpt lat="45.62807" lon="5.6732">
        <ele>219</ele>
        <time>2022-05-17T06:25:00.798Z</time>
      </trkpt>
      <trkpt lat="45.62813" lon="5.67328">
        <ele>219</ele>
        <time>2022-05-17T06:25:01.798Z</time>
      </trkpt>
      <trkpt lat="45.62818" lon="5.67336">
        <ele>219</ele>
        <time>2022-05-17T06:25:02.798Z</time>
      </trkpt>
      <trkpt lat="45.62823" lon="5.67345">
        <ele>219</ele>
        <time>2022-05-17T06:25:03.798Z</time>
      </trkpt>
      <trkpt lat="45.62829" lon="5.67353">
        <ele>218</ele>
        <time>2022-05-17T06:25:04.798Z</time>
      </trkpt>
      <trkpt lat="45.62834" lon="5.67362">
        <ele>218</ele>
        <time>2022-05-17T06:25:05.797Z</time>
      </trkpt>
      <trkpt lat="45.62839" lon="5.6737">
        <ele>218</ele>
        <time>2022-05-17T06:25:06.798Z</time>
      </trkpt>
      <trkpt lat="45.62844" lon="5.67379">
        <ele>218</ele>
        <time>2022-05-17T06:25:07.797Z</time>
      </trkpt>
      <trkpt lat="45.62849" lon="5.67388">
        <ele>218</ele>
        <time>2022-05-17T06:25:08.798Z</time>
      </trkpt>
      <trkpt lat="45.62853" lon="5.67397">
        <ele>218</ele>
        <time>2022-05-17T06:25:09.798Z</time>
      </trkpt>
      <trkpt lat="45.62857" lon="5.67406">
        <ele>218</ele>
        <time>2022-05-17T06:25:10.798Z</time>
      </trkpt>
      <trkpt lat="45.62861" lon="5.67415">
        <ele>217</ele>
        <time>2022-05-17T06:25:11.797Z</time>
      </trkpt>
      <trkpt lat="45.62865" lon="5.67423">
        <ele>218</ele>
        <time>2022-05-17T06:25:12.798Z</time>
      </trkpt>
      <trkpt lat="45.62868" lon="5.6743">
        <ele>218</ele>
        <time>2022-05-17T06:25:13.798Z</time>
      </trkpt>
      <trkpt lat="45.62873" lon="5.67438">
        <ele>218</ele>
        <time>2022-05-17T06:25:14.797Z</time>
      </trkpt>
      <trkpt lat="45.62877" lon="5.67445">
        <ele>218</ele>
        <time>2022-05-17T06:25:15.797Z</time>
      </trkpt>
      <trkpt lat="45.62881" lon="5.67453">
        <ele>218</ele>
        <time>2022-05-17T06:25:16.798Z</time>
      </trkpt>
      <trkpt lat="45.62884" lon="5.6746">
        <ele>218</ele>
        <time>2022-05-17T06:25:17.798Z</time>
      </trkpt>
      <trkpt lat="45.62887" lon="5.67467">
        <ele>218</ele>
        <time>2022-05-17T06:25:18.798Z</time>
      </trkpt>
      <trkpt lat="45.6289" lon="5.67475">
        <ele>218</ele>
        <time>2022-05-17T06:25:19.798Z</time>
      </trkpt>
      <trkpt lat="45.62893" lon="5.67483">
        <ele>218</ele>
        <time>2022-05-17T06:25:20.798Z</time>
      </trkpt>
      <trkpt lat="45.62896" lon="5.67492">
        <ele>218</ele>
        <time>2022-05-17T06:25:21.798Z</time>
      </trkpt>
      <trkpt lat="45.62899" lon="5.67502">
        <ele>217</ele>
        <time>2022-05-17T06:25:22.798Z</time>
      </trkpt>
      <trkpt lat="45.62901" lon="5.67512">
        <ele>217</ele>
        <time>2022-05-17T06:25:23.797Z</time>
      </trkpt>
      <trkpt lat="45.62904" lon="5.67521">
        <ele>217</ele>
        <time>2022-05-17T06:25:24.798Z</time>
      </trkpt>
      <trkpt lat="45.62906" lon="5.67532">
        <ele>217</ele>
        <time>2022-05-17T06:25:25.798Z</time>
      </trkpt>
      <trkpt lat="45.62908" lon="5.67542">
        <ele>216</ele>
        <time>2022-05-17T06:25:26.798Z</time>
      </trkpt>
      <trkpt lat="45.62911" lon="5.67553">
        <ele>216</ele>
        <time>2022-05-17T06:25:27.798Z</time>
      </trkpt>
      <trkpt lat="45.62913" lon="5.67564">
        <ele>216</ele>
        <time>2022-05-17T06:25:28.797Z</time>
      </trkpt>
      <trkpt lat="45.62916" lon="5.67574">
        <ele>216</ele>
        <time>2022-05-17T06:25:29.798Z</time>
      </trkpt>
      <trkpt lat="45.62918" lon="5.67585">
        <ele>217</ele>
        <time>2022-05-17T06:25:30.798Z</time>
      </trkpt>
      <trkpt lat="45.6292" lon="5.67596">
        <ele>217</ele>
        <time>2022-05-17T06:25:31.798Z</time>
      </trkpt>
      <trkpt lat="45.62924" lon="5.67607">
        <ele>217</ele>
        <time>2022-05-17T06:25:32.798Z</time>
      </trkpt>
      <trkpt lat="45.62927" lon="5.67616">
        <ele>217</ele>
        <time>2022-05-17T06:25:33.797Z</time>
      </trkpt>
      <trkpt lat="45.62932" lon="5.67625">
        <ele>217</ele>
        <time>2022-05-17T06:25:34.797Z</time>
      </trkpt>
      <trkpt lat="45.62937" lon="5.67634">
        <ele>217</ele>
        <time>2022-05-17T06:25:35.797Z</time>
      </trkpt>
      <trkpt lat="45.62943" lon="5.67642">
        <ele>217</ele>
        <time>2022-05-17T06:25:36.798Z</time>
      </trkpt>
      <trkpt lat="45.62949" lon="5.67649">
        <ele>217</ele>
        <time>2022-05-17T06:25:37.798Z</time>
      </trkpt>
      <trkpt lat="45.62954" lon="5.67657">
        <ele>217</ele>
        <time>2022-05-17T06:25:38.797Z</time>
      </trkpt>
      <trkpt lat="45.6296" lon="5.67664">
        <ele>217</ele>
        <time>2022-05-17T06:25:39.798Z</time>
      </trkpt>
      <trkpt lat="45.62966" lon="5.67671">
        <ele>217</ele>
        <time>2022-05-17T06:25:40.797Z</time>
      </trkpt>
      <trkpt lat="45.62972" lon="5.67678">
        <ele>217</ele>
        <time>2022-05-17T06:25:41.798Z</time>
      </trkpt>
      <trkpt lat="45.62978" lon="5.67684">
        <ele>217</ele>
        <time>2022-05-17T06:25:42.798Z</time>
      </trkpt>
      <trkpt lat="45.62985" lon="5.6769">
        <ele>217</ele>
        <time>2022-05-17T06:25:43.798Z</time>
      </trkpt>
      <trkpt lat="45.62991" lon="5.67696">
        <ele>216</ele>
        <time>2022-05-17T06:25:44.798Z</time>
      </trkpt>
      <trkpt lat="45.62997" lon="5.67702">
        <ele>216</ele>
        <time>2022-05-17T06:25:45.798Z</time>
      </trkpt>
      <trkpt lat="45.63003" lon="5.67709">
        <ele>216</ele>
        <time>2022-05-17T06:25:46.797Z</time>
      </trkpt>
      <trkpt lat="45.63009" lon="5.67715">
        <ele>216</ele>
        <time>2022-05-17T06:25:47.797Z</time>
      </trkpt>
      <trkpt lat="45.63016" lon="5.67722">
        <ele>217</ele>
        <time>2022-05-17T06:25:48.798Z</time>
      </trkpt>
      <trkpt lat="45.63022" lon="5.67728">
        <ele>217</ele>
        <time>2022-05-17T06:25:49.798Z</time>
      </trkpt>
      <trkpt lat="45.63027" lon="5.67734">
        <ele>217</ele>
        <time>2022-05-17T06:25:50.798Z</time>
      </trkpt>
      <trkpt lat="45.63033" lon="5.67741">
        <ele>217</ele>
        <time>2022-05-17T06:25:51.798Z</time>
      </trkpt>
      <trkpt lat="45.63038" lon="5.67748">
        <ele>216</ele>
        <time>2022-05-17T06:25:52.798Z</time>
      </trkpt>
      <trkpt lat="45.63043" lon="5.67754">
        <ele>216</ele>
        <time>2022-05-17T06:25:53.798Z</time>
      </trkpt>
      <trkpt lat="45.63048" lon="5.67762">
        <ele>217</ele>
        <time>2022-05-17T06:25:54.797Z</time>
      </trkpt>
      <trkpt lat="45.63053" lon="5.67769">
        <ele>216</ele>
        <time>2022-05-17T06:25:55.797Z</time>
      </trkpt>
      <trkpt lat="45.63058" lon="5.67777">
        <ele>216</ele>
        <time>2022-05-17T06:25:56.797Z</time>
      </trkpt>
      <trkpt lat="45.63063" lon="5.67785">
        <ele>216</ele>
        <time>2022-05-17T06:25:57.797Z</time>
      </trkpt>
      <trkpt lat="45.63067" lon="5.67793">
        <ele>216</ele>
        <time>2022-05-17T06:25:58.798Z</time>
      </trkpt>
      <trkpt lat="45.63072" lon="5.67801">
        <ele>216</ele>
        <time>2022-05-17T06:25:59.797Z</time>
      </trkpt>
      <trkpt lat="45.63076" lon="5.6781">
        <ele>215</ele>
        <time>2022-05-17T06:26:00.797Z</time>
      </trkpt>
      <trkpt lat="45.63081" lon="5.67818">
        <ele>215</ele>
        <time>2022-05-17T06:26:01.798Z</time>
      </trkpt>
      <trkpt lat="45.63085" lon="5.67827">
        <ele>215</ele>
        <time>2022-05-17T06:26:02.798Z</time>
      </trkpt>
      <trkpt lat="45.6309" lon="5.67835">
        <ele>216</ele>
        <time>2022-05-17T06:26:03.798Z</time>
      </trkpt>
      <trkpt lat="45.63094" lon="5.67844">
        <ele>217</ele>
        <time>2022-05-17T06:26:04.797Z</time>
      </trkpt>
      <trkpt lat="45.63099" lon="5.67852">
        <ele>217</ele>
        <time>2022-05-17T06:26:05.798Z</time>
      </trkpt>
      <trkpt lat="45.63103" lon="5.67861">
        <ele>217</ele>
        <time>2022-05-17T06:26:06.798Z</time>
      </trkpt>
      <trkpt lat="45.63107" lon="5.67869">
        <ele>217</ele>
        <time>2022-05-17T06:26:07.798Z</time>
      </trkpt>
      <trkpt lat="45.63111" lon="5.67878">
        <ele>217</ele>
        <time>2022-05-17T06:26:08.798Z</time>
      </trkpt>
      <trkpt lat="45.63114" lon="5.67887">
        <ele>216</ele>
        <time>2022-05-17T06:26:09.798Z</time>
      </trkpt>
      <trkpt lat="45.63118" lon="5.67896">
        <ele>216</ele>
        <time>2022-05-17T06:26:10.798Z</time>
      </trkpt>
      <trkpt lat="45.63122" lon="5.67904">
        <ele>216</ele>
        <time>2022-05-17T06:26:11.798Z</time>
      </trkpt>
      <trkpt lat="45.63126" lon="5.67913">
        <ele>216</ele>
        <time>2022-05-17T06:26:12.798Z</time>
      </trkpt>
      <trkpt lat="45.6313" lon="5.67921">
        <ele>216</ele>
        <time>2022-05-17T06:26:13.798Z</time>
      </trkpt>
      <trkpt lat="45.63133" lon="5.6793">
        <ele>216</ele>
        <time>2022-05-17T06:26:14.798Z</time>
      </trkpt>
      <trkpt lat="45.63137" lon="5.67938">
        <ele>216</ele>
        <time>2022-05-17T06:26:15.798Z</time>
      </trkpt>
      <trkpt lat="45.6314" lon="5.67946">
        <ele>216</ele>
        <time>2022-05-17T06:26:16.798Z</time>
      </trkpt>
      <trkpt lat="45.63143" lon="5.67954">
        <ele>216</ele>
        <time>2022-05-17T06:26:17.798Z</time>
      </trkpt>
      <trkpt lat="45.63147" lon="5.67962">
        <ele>216</ele>
        <time>2022-05-17T06:26:18.798Z</time>
      </trkpt>
      <trkpt lat="45.63151" lon="5.67969">
        <ele>217</ele>
        <time>2022-05-17T06:26:19.798Z</time>
      </trkpt>
      <trkpt lat="45.63156" lon="5.67976">
        <ele>217</ele>
        <time>2022-05-17T06:26:20.798Z</time>
      </trkpt>
      <trkpt lat="45.63161" lon="5.67983">
        <ele>218</ele>
        <time>2022-05-17T06:26:21.798Z</time>
      </trkpt>
      <trkpt lat="45.63167" lon="5.6799">
        <ele>218</ele>
        <time>2022-05-17T06:26:22.798Z</time>
      </trkpt>
      <trkpt lat="45.63172" lon="5.67996">
        <ele>219</ele>
        <time>2022-05-17T06:26:23.797Z</time>
      </trkpt>
      <trkpt lat="45.63177" lon="5.68002">
        <ele>219</ele>
        <time>2022-05-17T06:26:24.797Z</time>
      </trkpt>
      <trkpt lat="45.63182" lon="5.68008">
        <ele>218</ele>
        <time>2022-05-17T06:26:25.798Z</time>
      </trkpt>
      <trkpt lat="45.63188" lon="5.68012">
        <ele>219</ele>
        <time>2022-05-17T06:26:26.798Z</time>
      </trkpt>
      <trkpt lat="45.63194" lon="5.68017">
        <ele>219</ele>
        <time>2022-05-17T06:26:27.798Z</time>
      </trkpt>
      <trkpt lat="45.632" lon="5.68021">
        <ele>219</ele>
        <time>2022-05-17T06:26:28.798Z</time>
      </trkpt>
      <trkpt lat="45.63206" lon="5.68025">
        <ele>219</ele>
        <time>2022-05-17T06:26:29.798Z</time>
      </trkpt>
      <trkpt lat="45.63212" lon="5.68028">
        <ele>220</ele>
        <time>2022-05-17T06:26:30.797Z</time>
      </trkpt>
      <trkpt lat="45.63219" lon="5.68032">
        <ele>221</ele>
        <time>2022-05-17T06:26:31.798Z</time>
      </trkpt>
      <trkpt lat="45.63225" lon="5.68035">
        <ele>222</ele>
        <time>2022-05-17T06:26:32.797Z</time>
      </trkpt>
      <trkpt lat="45.63232" lon="5.68039">
        <ele>223</ele>
        <time>2022-05-17T06:26:33.797Z</time>
      </trkpt>
      <trkpt lat="45.63239" lon="5.68043">
        <ele>223</ele>
        <time>2022-05-17T06:26:34.798Z</time>
      </trkpt>
      <trkpt lat="45.63245" lon="5.68047">
        <ele>223</ele>
        <time>2022-05-17T06:26:35.798Z</time>
      </trkpt>
      <trkpt lat="45.6325" lon="5.68052">
        <ele>224</ele>
        <time>2022-05-17T06:26:36.798Z</time>
      </trkpt>
      <trkpt lat="45.63256" lon="5.68058">
        <ele>223</ele>
        <time>2022-05-17T06:26:37.798Z</time>
      </trkpt>
      <trkpt lat="45.63262" lon="5.68064">
        <ele>223</ele>
        <time>2022-05-17T06:26:38.797Z</time>
      </trkpt>
      <trkpt lat="45.63267" lon="5.6807">
        <ele>223</ele>
        <time>2022-05-17T06:26:39.797Z</time>
      </trkpt>
      <trkpt lat="45.63272" lon="5.68078">
        <ele>223</ele>
        <time>2022-05-17T06:26:40.798Z</time>
      </trkpt>
      <trkpt lat="45.63276" lon="5.68087">
        <ele>223</ele>
        <time>2022-05-17T06:26:41.798Z</time>
      </trkpt>
      <trkpt lat="45.6328" lon="5.68096">
        <ele>224</ele>
        <time>2022-05-17T06:26:42.798Z</time>
      </trkpt>
      <trkpt lat="45.63283" lon="5.68105">
        <ele>224</ele>
        <time>2022-05-17T06:26:43.797Z</time>
      </trkpt>
      <trkpt lat="45.63286" lon="5.68115">
        <ele>224</ele>
        <time>2022-05-17T06:26:44.798Z</time>
      </trkpt>
      <trkpt lat="45.63289" lon="5.68125">
        <ele>224</ele>
        <time>2022-05-17T06:26:45.798Z</time>
      </trkpt>
      <trkpt lat="45.63291" lon="5.68134">
        <ele>224</ele>
        <time>2022-05-17T06:26:46.798Z</time>
      </trkpt>
      <trkpt lat="45.63294" lon="5.68144">
        <ele>223</ele>
        <time>2022-05-17T06:26:47.798Z</time>
      </trkpt>
      <trkpt lat="45.63297" lon="5.68153">
        <ele>223</ele>
        <time>2022-05-17T06:26:48.798Z</time>
      </trkpt>
      <trkpt lat="45.63301" lon="5.68163">
        <ele>222</ele>
        <time>2022-05-17T06:26:49.798Z</time>
      </trkpt>
      <trkpt lat="45.63305" lon="5.68172">
        <ele>222</ele>
        <time>2022-05-17T06:26:50.797Z</time>
      </trkpt>
      <trkpt lat="45.63309" lon="5.6818">
        <ele>222</ele>
        <time>2022-05-17T06:26:51.798Z</time>
      </trkpt>
      <trkpt lat="45.63315" lon="5.68189">
        <ele>221</ele>
        <time>2022-05-17T06:26:52.798Z</time>
      </trkpt>
      <trkpt lat="45.63321" lon="5.68196">
        <ele>221</ele>
        <time>2022-05-17T06:26:53.798Z</time>
      </trkpt>
      <trkpt lat="45.63327" lon="5.68204">
        <ele>221</ele>
        <time>2022-05-17T06:26:54.798Z</time>
      </trkpt>
      <trkpt lat="45.63333" lon="5.6821">
        <ele>221</ele>
        <time>2022-05-17T06:26:55.797Z</time>
      </trkpt>
      <trkpt lat="45.63339" lon="5.68217">
        <ele>221</ele>
        <time>2022-05-17T06:26:56.797Z</time>
      </trkpt>
      <trkpt lat="45.63345" lon="5.68224">
        <ele>221</ele>
        <time>2022-05-17T06:26:57.797Z</time>
      </trkpt>
      <trkpt lat="45.63352" lon="5.6823">
        <ele>221</ele>
        <time>2022-05-17T06:26:58.797Z</time>
      </trkpt>
      <trkpt lat="45.63358" lon="5.68236">
        <ele>221</ele>
        <time>2022-05-17T06:26:59.798Z</time>
      </trkpt>
      <trkpt lat="45.63364" lon="5.68243">
        <ele>220</ele>
        <time>2022-05-17T06:27:00.798Z</time>
      </trkpt>
      <trkpt lat="45.63371" lon="5.68248">
        <ele>219</ele>
        <time>2022-05-17T06:27:01.798Z</time>
      </trkpt>
      <trkpt lat="45.63378" lon="5.68254">
        <ele>219</ele>
        <time>2022-05-17T06:27:02.797Z</time>
      </trkpt>
      <trkpt lat="45.63385" lon="5.68259">
        <ele>218</ele>
        <time>2022-05-17T06:27:03.798Z</time>
      </trkpt>
      <trkpt lat="45.63392" lon="5.68265">
        <ele>218</ele>
        <time>2022-05-17T06:27:04.797Z</time>
      </trkpt>
      <trkpt lat="45.63399" lon="5.6827">
        <ele>217</ele>
        <time>2022-05-17T06:27:05.797Z</time>
      </trkpt>
      <trkpt lat="45.63406" lon="5.68275">
        <ele>217</ele>
        <time>2022-05-17T06:27:06.797Z</time>
      </trkpt>
      <trkpt lat="45.63412" lon="5.6828">
        <ele>217</ele>
        <time>2022-05-17T06:27:07.798Z</time>
      </trkpt>
      <trkpt lat="45.63419" lon="5.68285">
        <ele>217</ele>
        <time>2022-05-17T06:27:08.797Z</time>
      </trkpt>
      <trkpt lat="45.63426" lon="5.6829">
        <ele>217</ele>
        <time>2022-05-17T06:27:09.798Z</time>
      </trkpt>
      <trkpt lat="45.63434" lon="5.68295">
        <ele>217</ele>
        <time>2022-05-17T06:27:10.798Z</time>
      </trkpt>
      <trkpt lat="45.63441" lon="5.68301">
        <ele>217</ele>
        <time>2022-05-17T06:27:11.798Z</time>
      </trkpt>
      <trkpt lat="45.63448" lon="5.68306">
        <ele>217</ele>
        <time>2022-05-17T06:27:12.798Z</time>
      </trkpt>
      <trkpt lat="45.63456" lon="5.68312">
        <ele>217</ele>
        <time>2022-05-17T06:27:13.798Z</time>
      </trkpt>
      <trkpt lat="45.63463" lon="5.68318">
        <ele>217</ele>
        <time>2022-05-17T06:27:14.798Z</time>
      </trkpt>
      <trkpt lat="45.6347" lon="5.68324">
        <ele>218</ele>
        <time>2022-05-17T06:27:15.798Z</time>
      </trkpt>
      <trkpt lat="45.63477" lon="5.68331">
        <ele>218</ele>
        <time>2022-05-17T06:27:16.798Z</time>
      </trkpt>
      <trkpt lat="45.63484" lon="5.68338">
        <ele>218</ele>
        <time>2022-05-17T06:27:17.798Z</time>
      </trkpt>
      <trkpt lat="45.63491" lon="5.68345">
        <ele>218</ele>
        <time>2022-05-17T06:27:18.798Z</time>
      </trkpt>
      <trkpt lat="45.63497" lon="5.68352">
        <ele>219</ele>
        <time>2022-05-17T06:27:19.798Z</time>
      </trkpt>
      <trkpt lat="45.63504" lon="5.6836">
        <ele>219</ele>
        <time>2022-05-17T06:27:20.798Z</time>
      </trkpt>
      <trkpt lat="45.6351" lon="5.68367">
        <ele>219</ele>
        <time>2022-05-17T06:27:21.797Z</time>
      </trkpt>
      <trkpt lat="45.63518" lon="5.68375">
        <ele>219</ele>
        <time>2022-05-17T06:27:22.798Z</time>
      </trkpt>
      <trkpt lat="45.63524" lon="5.68382">
        <ele>219</ele>
        <time>2022-05-17T06:27:23.797Z</time>
      </trkpt>
      <trkpt lat="45.63529" lon="5.68387">
        <ele>219</ele>
        <time>2022-05-17T06:27:24.798Z</time>
      </trkpt>
      <trkpt lat="45.63536" lon="5.68394">
        <ele>219</ele>
        <time>2022-05-17T06:27:25.798Z</time>
      </trkpt>
      <trkpt lat="45.63543" lon="5.684">
        <ele>219</ele>
        <time>2022-05-17T06:27:26.798Z</time>
      </trkpt>
      <trkpt lat="45.63549" lon="5.68405">
        <ele>219</ele>
        <time>2022-05-17T06:27:27.797Z</time>
      </trkpt>
      <trkpt lat="45.63555" lon="5.68411">
        <ele>219</ele>
        <time>2022-05-17T06:27:28.798Z</time>
      </trkpt>
      <trkpt lat="45.63562" lon="5.68416">
        <ele>219</ele>
        <time>2022-05-17T06:27:29.798Z</time>
      </trkpt>
      <trkpt lat="45.63569" lon="5.68421">
        <ele>219</ele>
        <time>2022-05-17T06:27:30.798Z</time>
      </trkpt>
      <trkpt lat="45.63575" lon="5.68426">
        <ele>219</ele>
        <time>2022-05-17T06:27:31.798Z</time>
      </trkpt>
      <trkpt lat="45.63582" lon="5.68431">
        <ele>218</ele>
        <time>2022-05-17T06:27:32.798Z</time>
      </trkpt>
      <trkpt lat="45.63589" lon="5.68435">
        <ele>218</ele>
        <time>2022-05-17T06:27:33.797Z</time>
      </trkpt>
      <trkpt lat="45.63596" lon="5.68439">
        <ele>218</ele>
        <time>2022-05-17T06:27:34.798Z</time>
      </trkpt>
      <trkpt lat="45.63604" lon="5.68443">
        <ele>219</ele>
        <time>2022-05-17T06:27:35.798Z</time>
      </trkpt>
      <trkpt lat="45.63611" lon="5.68447">
        <ele>219</ele>
        <time>2022-05-17T06:27:36.798Z</time>
      </trkpt>
      <trkpt lat="45.63618" lon="5.68451">
        <ele>219</ele>
        <time>2022-05-17T06:27:37.798Z</time>
      </trkpt>
      <trkpt lat="45.63626" lon="5.68455">
        <ele>218</ele>
        <time>2022-05-17T06:27:38.797Z</time>
      </trkpt>
      <trkpt lat="45.63633" lon="5.6846">
        <ele>218</ele>
        <time>2022-05-17T06:27:39.797Z</time>
      </trkpt>
      <trkpt lat="45.6364" lon="5.68464">
        <ele>218</ele>
        <time>2022-05-17T06:27:40.797Z</time>
      </trkpt>
      <trkpt lat="45.63647" lon="5.68469">
        <ele>218</ele>
        <time>2022-05-17T06:27:41.797Z</time>
      </trkpt>
      <trkpt lat="45.63654" lon="5.68475">
        <ele>217</ele>
        <time>2022-05-17T06:27:42.797Z</time>
      </trkpt>
      <trkpt lat="45.6366" lon="5.68481">
        <ele>217</ele>
        <time>2022-05-17T06:27:43.798Z</time>
      </trkpt>
      <trkpt lat="45.63666" lon="5.68488">
        <ele>217</ele>
        <time>2022-05-17T06:27:44.798Z</time>
      </trkpt>
      <trkpt lat="45.63672" lon="5.68495">
        <ele>217</ele>
        <time>2022-05-17T06:27:45.798Z</time>
      </trkpt>
      <trkpt lat="45.63679" lon="5.68504">
        <ele>217</ele>
        <time>2022-05-17T06:27:46.797Z</time>
      </trkpt>
      <trkpt lat="45.63684" lon="5.68511">
        <ele>217</ele>
        <time>2022-05-17T06:27:47.798Z</time>
      </trkpt>
      <trkpt lat="45.63688" lon="5.68516">
        <ele>217</ele>
        <time>2022-05-17T06:27:48.798Z</time>
      </trkpt>
      <trkpt lat="45.63695" lon="5.68525">
        <ele>217</ele>
        <time>2022-05-17T06:27:49.798Z</time>
      </trkpt>
      <trkpt lat="45.637" lon="5.68532">
        <ele>216</ele>
        <time>2022-05-17T06:27:50.798Z</time>
      </trkpt>
      <trkpt lat="45.63705" lon="5.68539">
        <ele>216</ele>
        <time>2022-05-17T06:27:51.798Z</time>
      </trkpt>
      <trkpt lat="45.63709" lon="5.68545">
        <ele>217</ele>
        <time>2022-05-17T06:27:52.798Z</time>
      </trkpt>
      <trkpt lat="45.63714" lon="5.68552">
        <ele>217</ele>
        <time>2022-05-17T06:27:53.798Z</time>
      </trkpt>
      <trkpt lat="45.6372" lon="5.68559">
        <ele>217</ele>
        <time>2022-05-17T06:27:54.797Z</time>
      </trkpt>
      <trkpt lat="45.63726" lon="5.68567">
        <ele>217</ele>
        <time>2022-05-17T06:27:55.798Z</time>
      </trkpt>
      <trkpt lat="45.63731" lon="5.68574">
        <ele>218</ele>
        <time>2022-05-17T06:27:56.798Z</time>
      </trkpt>
      <trkpt lat="45.63735" lon="5.6858">
        <ele>219</ele>
        <time>2022-05-17T06:27:57.798Z</time>
      </trkpt>
      <trkpt lat="45.63741" lon="5.68588">
        <ele>219</ele>
        <time>2022-05-17T06:27:58.798Z</time>
      </trkpt>
      <trkpt lat="45.63746" lon="5.68595">
        <ele>220</ele>
        <time>2022-05-17T06:27:59.798Z</time>
      </trkpt>
      <trkpt lat="45.63751" lon="5.68602">
        <ele>221</ele>
        <time>2022-05-17T06:28:00.797Z</time>
      </trkpt>
      <trkpt lat="45.63756" lon="5.68608">
        <ele>221</ele>
        <time>2022-05-17T06:28:01.798Z</time>
      </trkpt>
      <trkpt lat="45.63762" lon="5.68615">
        <ele>221</ele>
        <time>2022-05-17T06:28:02.798Z</time>
      </trkpt>
      <trkpt lat="45.63767" lon="5.68622">
        <ele>222</ele>
        <time>2022-05-17T06:28:03.797Z</time>
      </trkpt>
      <trkpt lat="45.63772" lon="5.68628">
        <ele>221</ele>
        <time>2022-05-17T06:28:04.797Z</time>
      </trkpt>
      <trkpt lat="45.63777" lon="5.68635">
        <ele>221</ele>
        <time>2022-05-17T06:28:05.798Z</time>
      </trkpt>
      <trkpt lat="45.63781" lon="5.68641">
        <ele>221</ele>
        <time>2022-05-17T06:28:06.798Z</time>
      </trkpt>
      <trkpt lat="45.63786" lon="5.68648">
        <ele>221</ele>
        <time>2022-05-17T06:28:07.797Z</time>
      </trkpt>
      <trkpt lat="45.63791" lon="5.68655">
        <ele>221</ele>
        <time>2022-05-17T06:28:08.798Z</time>
      </trkpt>
      <trkpt lat="45.63798" lon="5.68663">
        <ele>222</ele>
        <time>2022-05-17T06:28:09.797Z</time>
      </trkpt>
      <trkpt lat="45.63802" lon="5.68669">
        <ele>222</ele>
        <time>2022-05-17T06:28:10.798Z</time>
      </trkpt>
      <trkpt lat="45.63807" lon="5.68676">
        <ele>222</ele>
        <time>2022-05-17T06:28:11.797Z</time>
      </trkpt>
      <trkpt lat="45.63812" lon="5.68683">
        <ele>222</ele>
        <time>2022-05-17T06:28:12.798Z</time>
      </trkpt>
      <trkpt lat="45.63818" lon="5.68691">
        <ele>222</ele>
        <time>2022-05-17T06:28:13.798Z</time>
      </trkpt>
      <trkpt lat="45.63823" lon="5.68698">
        <ele>222</ele>
        <time>2022-05-17T06:28:14.798Z</time>
      </trkpt>
      <trkpt lat="45.63829" lon="5.68705">
        <ele>222</ele>
        <time>2022-05-17T06:28:15.798Z</time>
      </trkpt>
      <trkpt lat="45.63835" lon="5.68712">
        <ele>222</ele>
        <time>2022-05-17T06:28:16.797Z</time>
      </trkpt>
      <trkpt lat="45.6384" lon="5.6872">
        <ele>223</ele>
        <time>2022-05-17T06:28:17.798Z</time>
      </trkpt>
      <trkpt lat="45.63847" lon="5.68729">
        <ele>222</ele>
        <time>2022-05-17T06:28:18.798Z</time>
      </trkpt>
      <trkpt lat="45.63852" lon="5.68736">
        <ele>222</ele>
        <time>2022-05-17T06:28:19.797Z</time>
      </trkpt>
      <trkpt lat="45.63857" lon="5.68742">
        <ele>223</ele>
        <time>2022-05-17T06:28:20.798Z</time>
      </trkpt>
      <trkpt lat="45.63864" lon="5.68751">
        <ele>223</ele>
        <time>2022-05-17T06:28:21.797Z</time>
      </trkpt>
      <trkpt lat="45.63869" lon="5.68759">
        <ele>222</ele>
        <time>2022-05-17T06:28:22.798Z</time>
      </trkpt>
      <trkpt lat="45.63875" lon="5.68766">
        <ele>222</ele>
        <time>2022-05-17T06:28:23.798Z</time>
      </trkpt>
      <trkpt lat="45.63879" lon="5.68772">
        <ele>222</ele>
        <time>2022-05-17T06:28:24.798Z</time>
      </trkpt>
      <trkpt lat="45.63885" lon="5.68779">
        <ele>222</ele>
        <time>2022-05-17T06:28:25.798Z</time>
      </trkpt>
      <trkpt lat="45.6389" lon="5.68786">
        <ele>222</ele>
        <time>2022-05-17T06:28:26.798Z</time>
      </trkpt>
      <trkpt lat="45.63896" lon="5.68793">
        <ele>222</ele>
        <time>2022-05-17T06:28:27.798Z</time>
      </trkpt>
      <trkpt lat="45.63902" lon="5.68799">
        <ele>222</ele>
        <time>2022-05-17T06:28:28.798Z</time>
      </trkpt>
      <trkpt lat="45.63907" lon="5.68806">
        <ele>222</ele>
        <time>2022-05-17T06:28:29.798Z</time>
      </trkpt>
      <trkpt lat="45.63913" lon="5.68813">
        <ele>222</ele>
        <time>2022-05-17T06:28:30.797Z</time>
      </trkpt>
      <trkpt lat="45.6392" lon="5.68821">
        <ele>222</ele>
        <time>2022-05-17T06:28:31.798Z</time>
      </trkpt>
      <trkpt lat="45.63925" lon="5.68826">
        <ele>222</ele>
        <time>2022-05-17T06:28:32.798Z</time>
      </trkpt>
      <trkpt lat="45.6393" lon="5.68833">
        <ele>221</ele>
        <time>2022-05-17T06:28:33.798Z</time>
      </trkpt>
      <trkpt lat="45.63936" lon="5.6884">
        <ele>221</ele>
        <time>2022-05-17T06:28:34.798Z</time>
      </trkpt>
      <trkpt lat="45.63942" lon="5.68846">
        <ele>222</ele>
        <time>2022-05-17T06:28:35.798Z</time>
      </trkpt>
      <trkpt lat="45.63949" lon="5.68855">
        <ele>222</ele>
        <time>2022-05-17T06:28:36.797Z</time>
      </trkpt>
      <trkpt lat="45.63953" lon="5.6886">
        <ele>223</ele>
        <time>2022-05-17T06:28:37.798Z</time>
      </trkpt>
      <trkpt lat="45.63959" lon="5.68867">
        <ele>223</ele>
        <time>2022-05-17T06:28:38.797Z</time>
      </trkpt>
      <trkpt lat="45.63966" lon="5.68875">
        <ele>224</ele>
        <time>2022-05-17T06:28:39.798Z</time>
      </trkpt>
      <trkpt lat="45.63972" lon="5.68882">
        <ele>224</ele>
        <time>2022-05-17T06:28:40.798Z</time>
      </trkpt>
      <trkpt lat="45.63978" lon="5.68889">
        <ele>224</ele>
        <time>2022-05-17T06:28:41.798Z</time>
      </trkpt>
      <trkpt lat="45.63983" lon="5.68895">
        <ele>224</ele>
        <time>2022-05-17T06:28:42.797Z</time>
      </trkpt>
      <trkpt lat="45.6399" lon="5.68901">
        <ele>224</ele>
        <time>2022-05-17T06:28:43.798Z</time>
      </trkpt>
      <trkpt lat="45.63996" lon="5.68909">
        <ele>223</ele>
        <time>2022-05-17T06:28:44.798Z</time>
      </trkpt>
      <trkpt lat="45.64001" lon="5.68916">
        <ele>223</ele>
        <time>2022-05-17T06:28:45.797Z</time>
      </trkpt>
      <trkpt lat="45.64008" lon="5.68923">
        <ele>223</ele>
        <time>2022-05-17T06:28:46.797Z</time>
      </trkpt>
      <trkpt lat="45.64014" lon="5.6893">
        <ele>223</ele>
        <time>2022-05-17T06:28:47.797Z</time>
      </trkpt>
      <trkpt lat="45.6402" lon="5.68937">
        <ele>222</ele>
        <time>2022-05-17T06:28:48.797Z</time>
      </trkpt>
      <trkpt lat="45.64027" lon="5.68945">
        <ele>222</ele>
        <time>2022-05-17T06:28:49.798Z</time>
      </trkpt>
      <trkpt lat="45.64033" lon="5.68952">
        <ele>222</ele>
        <time>2022-05-17T06:28:50.798Z</time>
      </trkpt>
      <trkpt lat="45.64039" lon="5.68959">
        <ele>223</ele>
        <time>2022-05-17T06:28:51.798Z</time>
      </trkpt>
      <trkpt lat="45.64045" lon="5.68967">
        <ele>223</ele>
        <time>2022-05-17T06:28:52.798Z</time>
      </trkpt>
      <trkpt lat="45.64052" lon="5.68974">
        <ele>223</ele>
        <time>2022-05-17T06:28:53.798Z</time>
      </trkpt>
      <trkpt lat="45.64058" lon="5.68982">
        <ele>222</ele>
        <time>2022-05-17T06:28:54.798Z</time>
      </trkpt>
      <trkpt lat="45.64065" lon="5.68989">
        <ele>222</ele>
        <time>2022-05-17T06:28:55.798Z</time>
      </trkpt>
      <trkpt lat="45.64072" lon="5.68997">
        <ele>223</ele>
        <time>2022-05-17T06:28:56.798Z</time>
      </trkpt>
      <trkpt lat="45.64078" lon="5.69004">
        <ele>222</ele>
        <time>2022-05-17T06:28:57.798Z</time>
      </trkpt>
      <trkpt lat="45.64086" lon="5.69014">
        <ele>222</ele>
        <time>2022-05-17T06:28:58.798Z</time>
      </trkpt>
      <trkpt lat="45.64093" lon="5.69022">
        <ele>222</ele>
        <time>2022-05-17T06:28:59.797Z</time>
      </trkpt>
      <trkpt lat="45.64098" lon="5.69028">
        <ele>223</ele>
        <time>2022-05-17T06:29:00.798Z</time>
      </trkpt>
      <trkpt lat="45.64104" lon="5.69035">
        <ele>223</ele>
        <time>2022-05-17T06:29:01.798Z</time>
      </trkpt>
      <trkpt lat="45.64112" lon="5.69044">
        <ele>223</ele>
        <time>2022-05-17T06:29:02.798Z</time>
      </trkpt>
      <trkpt lat="45.64117" lon="5.6905">
        <ele>223</ele>
        <time>2022-05-17T06:29:03.797Z</time>
      </trkpt>
      <trkpt lat="45.64125" lon="5.6906">
        <ele>223</ele>
        <time>2022-05-17T06:29:04.797Z</time>
      </trkpt>
      <trkpt lat="45.6413" lon="5.69066">
        <ele>223</ele>
        <time>2022-05-17T06:29:05.798Z</time>
      </trkpt>
      <trkpt lat="45.64136" lon="5.69073">
        <ele>223</ele>
        <time>2022-05-17T06:29:06.798Z</time>
      </trkpt>
      <trkpt lat="45.64144" lon="5.69083">
        <ele>222</ele>
        <time>2022-05-17T06:29:07.798Z</time>
      </trkpt>
      <trkpt lat="45.64149" lon="5.69089">
        <ele>222</ele>
        <time>2022-05-17T06:29:08.798Z</time>
      </trkpt>
      <trkpt lat="45.64155" lon="5.69097">
        <ele>222</ele>
        <time>2022-05-17T06:29:09.798Z</time>
      </trkpt>
      <trkpt lat="45.64161" lon="5.69106">
        <ele>222</ele>
        <time>2022-05-17T06:29:10.797Z</time>
      </trkpt>
      <trkpt lat="45.64167" lon="5.69115">
        <ele>223</ele>
        <time>2022-05-17T06:29:11.798Z</time>
      </trkpt>
      <trkpt lat="45.64172" lon="5.69125">
        <ele>223</ele>
        <time>2022-05-17T06:29:12.798Z</time>
      </trkpt>
      <trkpt lat="45.64176" lon="5.69135">
        <ele>223</ele>
        <time>2022-05-17T06:29:13.798Z</time>
      </trkpt>
      <trkpt lat="45.64179" lon="5.69146">
        <ele>223</ele>
        <time>2022-05-17T06:29:14.797Z</time>
      </trkpt>
      <trkpt lat="45.64182" lon="5.69157">
        <ele>223</ele>
        <time>2022-05-17T06:29:15.798Z</time>
      </trkpt>
      <trkpt lat="45.64185" lon="5.69171">
        <ele>224</ele>
        <time>2022-05-17T06:29:16.797Z</time>
      </trkpt>
      <trkpt lat="45.64186" lon="5.6918">
        <ele>224</ele>
        <time>2022-05-17T06:29:17.798Z</time>
      </trkpt>
      <trkpt lat="45.64188" lon="5.69192">
        <ele>224</ele>
        <time>2022-05-17T06:29:18.797Z</time>
      </trkpt>
      <trkpt lat="45.6419" lon="5.69203">
        <ele>224</ele>
        <time>2022-05-17T06:29:19.798Z</time>
      </trkpt>
      <trkpt lat="45.64192" lon="5.69215">
        <ele>224</ele>
        <time>2022-05-17T06:29:20.797Z</time>
      </trkpt>
      <trkpt lat="45.64194" lon="5.69228">
        <ele>225</ele>
        <time>2022-05-17T06:29:21.798Z</time>
      </trkpt>
      <trkpt lat="45.64195" lon="5.69237">
        <ele>225</ele>
        <time>2022-05-17T06:29:22.798Z</time>
      </trkpt>
      <trkpt lat="45.64197" lon="5.69248">
        <ele>225</ele>
        <time>2022-05-17T06:29:23.797Z</time>
      </trkpt>
      <trkpt lat="45.64199" lon="5.69258">
        <ele>225</ele>
        <time>2022-05-17T06:29:24.798Z</time>
      </trkpt>
      <trkpt lat="45.64201" lon="5.69268">
        <ele>225</ele>
        <time>2022-05-17T06:29:25.798Z</time>
      </trkpt>
      <trkpt lat="45.64204" lon="5.69279">
        <ele>225</ele>
        <time>2022-05-17T06:29:26.798Z</time>
      </trkpt>
      <trkpt lat="45.64207" lon="5.69289">
        <ele>224</ele>
        <time>2022-05-17T06:29:27.798Z</time>
      </trkpt>
      <trkpt lat="45.64211" lon="5.69299">
        <ele>224</ele>
        <time>2022-05-17T06:29:28.798Z</time>
      </trkpt>
      <trkpt lat="45.64214" lon="5.69309">
        <ele>223</ele>
        <time>2022-05-17T06:29:29.798Z</time>
      </trkpt>
      <trkpt lat="45.64218" lon="5.69319">
        <ele>223</ele>
        <time>2022-05-17T06:29:30.798Z</time>
      </trkpt>
      <trkpt lat="45.64222" lon="5.69329">
        <ele>223</ele>
        <time>2022-05-17T06:29:31.798Z</time>
      </trkpt>
      <trkpt lat="45.64226" lon="5.69339">
        <ele>222</ele>
        <time>2022-05-17T06:29:32.798Z</time>
      </trkpt>
      <trkpt lat="45.6423" lon="5.69349">
        <ele>222</ele>
        <time>2022-05-17T06:29:33.797Z</time>
      </trkpt>
      <trkpt lat="45.64234" lon="5.69359">
        <ele>222</ele>
        <time>2022-05-17T06:29:34.798Z</time>
      </trkpt>
      <trkpt lat="45.64239" lon="5.69369">
        <ele>222</ele>
        <time>2022-05-17T06:29:35.798Z</time>
      </trkpt>
      <trkpt lat="45.64243" lon="5.69379">
        <ele>222</ele>
        <time>2022-05-17T06:29:36.798Z</time>
      </trkpt>
      <trkpt lat="45.64247" lon="5.69389">
        <ele>222</ele>
        <time>2022-05-17T06:29:37.798Z</time>
      </trkpt>
      <trkpt lat="45.6425" lon="5.69399">
        <ele>221</ele>
        <time>2022-05-17T06:29:38.798Z</time>
      </trkpt>
      <trkpt lat="45.64254" lon="5.69409">
        <ele>221</ele>
        <time>2022-05-17T06:29:39.798Z</time>
      </trkpt>
      <trkpt lat="45.64258" lon="5.69419">
        <ele>220</ele>
        <time>2022-05-17T06:29:40.798Z</time>
      </trkpt>
      <trkpt lat="45.64263" lon="5.69428">
        <ele>220</ele>
        <time>2022-05-17T06:29:41.797Z</time>
      </trkpt>
      <trkpt lat="45.64268" lon="5.69438">
        <ele>220</ele>
        <time>2022-05-17T06:29:42.798Z</time>
      </trkpt>
      <trkpt lat="45.64273" lon="5.69446">
        <ele>220</ele>
        <time>2022-05-17T06:29:43.797Z</time>
      </trkpt>
      <trkpt lat="45.64279" lon="5.69455">
        <ele>220</ele>
        <time>2022-05-17T06:29:44.798Z</time>
      </trkpt>
      <trkpt lat="45.64284" lon="5.69462">
        <ele>221</ele>
        <time>2022-05-17T06:29:45.797Z</time>
      </trkpt>
      <trkpt lat="45.6429" lon="5.69469">
        <ele>221</ele>
        <time>2022-05-17T06:29:46.798Z</time>
      </trkpt>
      <trkpt lat="45.64297" lon="5.69475">
        <ele>222</ele>
        <time>2022-05-17T06:29:47.797Z</time>
      </trkpt>
      <trkpt lat="45.64305" lon="5.69479">
        <ele>222</ele>
        <time>2022-05-17T06:29:48.798Z</time>
      </trkpt>
      <trkpt lat="45.64311" lon="5.69482">
        <ele>223</ele>
        <time>2022-05-17T06:29:49.798Z</time>
      </trkpt>
      <trkpt lat="45.64319" lon="5.69484">
        <ele>223</ele>
        <time>2022-05-17T06:29:50.798Z</time>
      </trkpt>
      <trkpt lat="45.64327" lon="5.69486">
        <ele>223</ele>
        <time>2022-05-17T06:29:51.798Z</time>
      </trkpt>
      <trkpt lat="45.64334" lon="5.69487">
        <ele>224</ele>
        <time>2022-05-17T06:29:52.798Z</time>
      </trkpt>
      <trkpt lat="45.64344" lon="5.69488">
        <ele>224</ele>
        <time>2022-05-17T06:29:53.798Z</time>
      </trkpt>
      <trkpt lat="45.6435" lon="5.69489">
        <ele>224</ele>
        <time>2022-05-17T06:29:54.798Z</time>
      </trkpt>
      <trkpt lat="45.64359" lon="5.6949">
        <ele>224</ele>
        <time>2022-05-17T06:29:55.797Z</time>
      </trkpt>
      <trkpt lat="45.64367" lon="5.69491">
        <ele>225</ele>
        <time>2022-05-17T06:29:56.798Z</time>
      </trkpt>
      <trkpt lat="45.64374" lon="5.69491">
        <ele>225</ele>
        <time>2022-05-17T06:29:57.798Z</time>
      </trkpt>
      <trkpt lat="45.64382" lon="5.69492">
        <ele>225</ele>
        <time>2022-05-17T06:29:58.798Z</time>
      </trkpt>
      <trkpt lat="45.64389" lon="5.69493">
        <ele>226</ele>
        <time>2022-05-17T06:29:59.798Z</time>
      </trkpt>
      <trkpt lat="45.64397" lon="5.69494">
        <ele>226</ele>
        <time>2022-05-17T06:30:00.798Z</time>
      </trkpt>
      <trkpt lat="45.64405" lon="5.69494">
        <ele>226</ele>
        <time>2022-05-17T06:30:01.798Z</time>
      </trkpt>
      <trkpt lat="45.64413" lon="5.69496">
        <ele>227</ele>
        <time>2022-05-17T06:30:02.798Z</time>
      </trkpt>
      <trkpt lat="45.64422" lon="5.69497">
        <ele>226</ele>
        <time>2022-05-17T06:30:03.798Z</time>
      </trkpt>
      <trkpt lat="45.64429" lon="5.69498">
        <ele>226</ele>
        <time>2022-05-17T06:30:04.798Z</time>
      </trkpt>
      <trkpt lat="45.64437" lon="5.69499">
        <ele>226</ele>
        <time>2022-05-17T06:30:05.797Z</time>
      </trkpt>
      <trkpt lat="45.64445" lon="5.695">
        <ele>226</ele>
        <time>2022-05-17T06:30:06.798Z</time>
      </trkpt>
      <trkpt lat="45.64453" lon="5.69501">
        <ele>226</ele>
        <time>2022-05-17T06:30:07.797Z</time>
      </trkpt>
      <trkpt lat="45.64461" lon="5.69503">
        <ele>227</ele>
        <time>2022-05-17T06:30:08.798Z</time>
      </trkpt>
      <trkpt lat="45.64469" lon="5.69505">
        <ele>228</ele>
        <time>2022-05-17T06:30:09.797Z</time>
      </trkpt>
      <trkpt lat="45.64477" lon="5.69507">
        <ele>228</ele>
        <time>2022-05-17T06:30:10.798Z</time>
      </trkpt>
      <trkpt lat="45.64484" lon="5.69509">
        <ele>229</ele>
        <time>2022-05-17T06:30:11.798Z</time>
      </trkpt>
      <trkpt lat="45.64491" lon="5.69511">
        <ele>229</ele>
        <time>2022-05-17T06:30:12.798Z</time>
      </trkpt>
      <trkpt lat="45.645" lon="5.69516">
        <ele>230</ele>
        <time>2022-05-17T06:30:13.798Z</time>
      </trkpt>
      <trkpt lat="45.64508" lon="5.69518">
        <ele>231</ele>
        <time>2022-05-17T06:30:14.798Z</time>
      </trkpt>
      <trkpt lat="45.64515" lon="5.6952">
        <ele>231</ele>
        <time>2022-05-17T06:30:15.797Z</time>
      </trkpt>
      <trkpt lat="45.64524" lon="5.69525">
        <ele>232</ele>
        <time>2022-05-17T06:30:16.798Z</time>
      </trkpt>
      <trkpt lat="45.64532" lon="5.69528">
        <ele>233</ele>
        <time>2022-05-17T06:30:17.798Z</time>
      </trkpt>
      <trkpt lat="45.64539" lon="5.69531">
        <ele>234</ele>
        <time>2022-05-17T06:30:18.798Z</time>
      </trkpt>
      <trkpt lat="45.64547" lon="5.69534">
        <ele>235</ele>
        <time>2022-05-17T06:30:19.797Z</time>
      </trkpt>
      <trkpt lat="45.64555" lon="5.69537">
        <ele>235</ele>
        <time>2022-05-17T06:30:20.798Z</time>
      </trkpt>
      <trkpt lat="45.64561" lon="5.69541">
        <ele>235</ele>
        <time>2022-05-17T06:30:21.798Z</time>
      </trkpt>
      <trkpt lat="45.64568" lon="5.69546">
        <ele>235</ele>
        <time>2022-05-17T06:30:22.797Z</time>
      </trkpt>
      <trkpt lat="45.64575" lon="5.6955">
        <ele>235</ele>
        <time>2022-05-17T06:30:23.798Z</time>
      </trkpt>
      <trkpt lat="45.64583" lon="5.69555">
        <ele>234</ele>
        <time>2022-05-17T06:30:24.798Z</time>
      </trkpt>
      <trkpt lat="45.64589" lon="5.6956">
        <ele>234</ele>
        <time>2022-05-17T06:30:25.798Z</time>
      </trkpt>
      <trkpt lat="45.64597" lon="5.69566">
        <ele>234</ele>
        <time>2022-05-17T06:30:26.798Z</time>
      </trkpt>
      <trkpt lat="45.64604" lon="5.69572">
        <ele>233</ele>
        <time>2022-05-17T06:30:27.798Z</time>
      </trkpt>
      <trkpt lat="45.64612" lon="5.69579">
        <ele>232</ele>
        <time>2022-05-17T06:30:28.798Z</time>
      </trkpt>
      <trkpt lat="45.64619" lon="5.69586">
        <ele>232</ele>
        <time>2022-05-17T06:30:29.797Z</time>
      </trkpt>
      <trkpt lat="45.64627" lon="5.69593">
        <ele>232</ele>
        <time>2022-05-17T06:30:30.798Z</time>
      </trkpt>
      <trkpt lat="45.64633" lon="5.69601">
        <ele>231</ele>
        <time>2022-05-17T06:30:31.798Z</time>
      </trkpt>
      <trkpt lat="45.64639" lon="5.69609">
        <ele>231</ele>
        <time>2022-05-17T06:30:32.798Z</time>
      </trkpt>
      <trkpt lat="45.64646" lon="5.69617">
        <ele>230</ele>
        <time>2022-05-17T06:30:33.798Z</time>
      </trkpt>
      <trkpt lat="45.64652" lon="5.69625">
        <ele>229</ele>
        <time>2022-05-17T06:30:34.798Z</time>
      </trkpt>
      <trkpt lat="45.64659" lon="5.69633">
        <ele>229</ele>
        <time>2022-05-17T06:30:35.798Z</time>
      </trkpt>
      <trkpt lat="45.64665" lon="5.69641">
        <ele>229</ele>
        <time>2022-05-17T06:30:36.798Z</time>
      </trkpt>
      <trkpt lat="45.64672" lon="5.69649">
        <ele>228</ele>
        <time>2022-05-17T06:30:37.798Z</time>
      </trkpt>
      <trkpt lat="45.64678" lon="5.69656">
        <ele>228</ele>
        <time>2022-05-17T06:30:38.797Z</time>
      </trkpt>
      <trkpt lat="45.64685" lon="5.69663">
        <ele>228</ele>
        <time>2022-05-17T06:30:39.797Z</time>
      </trkpt>
      <trkpt lat="45.64692" lon="5.69669">
        <ele>228</ele>
        <time>2022-05-17T06:30:40.798Z</time>
      </trkpt>
      <trkpt lat="45.647" lon="5.69675">
        <ele>228</ele>
        <time>2022-05-17T06:30:41.797Z</time>
      </trkpt>
      <trkpt lat="45.64707" lon="5.6968">
        <ele>228</ele>
        <time>2022-05-17T06:30:42.797Z</time>
      </trkpt>
      <trkpt lat="45.64715" lon="5.69683">
        <ele>228</ele>
        <time>2022-05-17T06:30:43.798Z</time>
      </trkpt>
      <trkpt lat="45.64723" lon="5.69687">
        <ele>228</ele>
        <time>2022-05-17T06:30:44.798Z</time>
      </trkpt>
      <trkpt lat="45.64731" lon="5.69689">
        <ele>229</ele>
        <time>2022-05-17T06:30:45.798Z</time>
      </trkpt>
      <trkpt lat="45.64739" lon="5.69692">
        <ele>229</ele>
        <time>2022-05-17T06:30:46.797Z</time>
      </trkpt>
      <trkpt lat="45.64747" lon="5.69695">
        <ele>229</ele>
        <time>2022-05-17T06:30:47.798Z</time>
      </trkpt>
      <trkpt lat="45.64755" lon="5.69697">
        <ele>230</ele>
        <time>2022-05-17T06:30:48.798Z</time>
      </trkpt>
      <trkpt lat="45.64763" lon="5.69699">
        <ele>230</ele>
        <time>2022-05-17T06:30:49.798Z</time>
      </trkpt>
      <trkpt lat="45.64772" lon="5.69701">
        <ele>231</ele>
        <time>2022-05-17T06:30:50.798Z</time>
      </trkpt>
      <trkpt lat="45.6478" lon="5.69703">
        <ele>231</ele>
        <time>2022-05-17T06:30:51.798Z</time>
      </trkpt>
      <trkpt lat="45.64788" lon="5.69706">
        <ele>232</ele>
        <time>2022-05-17T06:30:52.797Z</time>
      </trkpt>
      <trkpt lat="45.64796" lon="5.69709">
        <ele>232</ele>
        <time>2022-05-17T06:30:53.798Z</time>
      </trkpt>
      <trkpt lat="45.64803" lon="5.69712">
        <ele>232</ele>
        <time>2022-05-17T06:30:54.798Z</time>
      </trkpt>
      <trkpt lat="45.64812" lon="5.69715">
        <ele>232</ele>
        <time>2022-05-17T06:30:55.798Z</time>
      </trkpt>
      <trkpt lat="45.64819" lon="5.69717">
        <ele>232</ele>
        <time>2022-05-17T06:30:56.797Z</time>
      </trkpt>
      <trkpt lat="45.64828" lon="5.69719">
        <ele>232</ele>
        <time>2022-05-17T06:30:57.798Z</time>
      </trkpt>
      <trkpt lat="45.64836" lon="5.69722">
        <ele>232</ele>
        <time>2022-05-17T06:30:58.798Z</time>
      </trkpt>
      <trkpt lat="45.64843" lon="5.69725">
        <ele>232</ele>
        <time>2022-05-17T06:30:59.797Z</time>
      </trkpt>
      <trkpt lat="45.64851" lon="5.69727">
        <ele>232</ele>
        <time>2022-05-17T06:31:00.797Z</time>
      </trkpt>
      <trkpt lat="45.64858" lon="5.69729">
        <ele>232</ele>
        <time>2022-05-17T06:31:01.798Z</time>
      </trkpt>
      <trkpt lat="45.64865" lon="5.69732">
        <ele>232</ele>
        <time>2022-05-17T06:31:02.798Z</time>
      </trkpt>
      <trkpt lat="45.64872" lon="5.69736">
        <ele>231</ele>
        <time>2022-05-17T06:31:03.798Z</time>
      </trkpt>
      <trkpt lat="45.6488" lon="5.69739">
        <ele>231</ele>
        <time>2022-05-17T06:31:04.797Z</time>
      </trkpt>
      <trkpt lat="45.64888" lon="5.69742">
        <ele>230</ele>
        <time>2022-05-17T06:31:05.797Z</time>
      </trkpt>
      <trkpt lat="45.64895" lon="5.69745">
        <ele>230</ele>
        <time>2022-05-17T06:31:06.798Z</time>
      </trkpt>
      <trkpt lat="45.64903" lon="5.69748">
        <ele>230</ele>
        <time>2022-05-17T06:31:07.798Z</time>
      </trkpt>
      <trkpt lat="45.6491" lon="5.69751">
        <ele>229</ele>
        <time>2022-05-17T06:31:08.798Z</time>
      </trkpt>
      <trkpt lat="45.64918" lon="5.69754">
        <ele>229</ele>
        <time>2022-05-17T06:31:09.798Z</time>
      </trkpt>
      <trkpt lat="45.64925" lon="5.69758">
        <ele>228</ele>
        <time>2022-05-17T06:31:10.798Z</time>
      </trkpt>
      <trkpt lat="45.64933" lon="5.69761">
        <ele>228</ele>
        <time>2022-05-17T06:31:11.797Z</time>
      </trkpt>
      <trkpt lat="45.64941" lon="5.69764">
        <ele>228</ele>
        <time>2022-05-17T06:31:12.798Z</time>
      </trkpt>
      <trkpt lat="45.64948" lon="5.69768">
        <ele>228</ele>
        <time>2022-05-17T06:31:13.797Z</time>
      </trkpt>
      <trkpt lat="45.64955" lon="5.69771">
        <ele>227</ele>
        <time>2022-05-17T06:31:14.798Z</time>
      </trkpt>
      <trkpt lat="45.64963" lon="5.69775">
        <ele>227</ele>
        <time>2022-05-17T06:31:15.797Z</time>
      </trkpt>
      <trkpt lat="45.64971" lon="5.69779">
        <ele>227</ele>
        <time>2022-05-17T06:31:16.797Z</time>
      </trkpt>
      <trkpt lat="45.6498" lon="5.69783">
        <ele>227</ele>
        <time>2022-05-17T06:31:17.798Z</time>
      </trkpt>
      <trkpt lat="45.64987" lon="5.69787">
        <ele>227</ele>
        <time>2022-05-17T06:31:18.798Z</time>
      </trkpt>
      <trkpt lat="45.64993" lon="5.6979">
        <ele>227</ele>
        <time>2022-05-17T06:31:19.798Z</time>
      </trkpt>
      <trkpt lat="45.65001" lon="5.69794">
        <ele>226</ele>
        <time>2022-05-17T06:31:20.798Z</time>
      </trkpt>
      <trkpt lat="45.65008" lon="5.69798">
        <ele>226</ele>
        <time>2022-05-17T06:31:21.798Z</time>
      </trkpt>
      <trkpt lat="45.65016" lon="5.69802">
        <ele>226</ele>
        <time>2022-05-17T06:31:22.798Z</time>
      </trkpt>
      <trkpt lat="45.65025" lon="5.69806">
        <ele>226</ele>
        <time>2022-05-17T06:31:23.797Z</time>
      </trkpt>
      <trkpt lat="45.65032" lon="5.6981">
        <ele>225</ele>
        <time>2022-05-17T06:31:24.797Z</time>
      </trkpt>
      <trkpt lat="45.65038" lon="5.69813">
        <ele>225</ele>
        <time>2022-05-17T06:31:25.797Z</time>
      </trkpt>
      <trkpt lat="45.65045" lon="5.69816">
        <ele>225</ele>
        <time>2022-05-17T06:31:26.798Z</time>
      </trkpt>
      <trkpt lat="45.65054" lon="5.69819">
        <ele>225</ele>
        <time>2022-05-17T06:31:27.797Z</time>
      </trkpt>
      <trkpt lat="45.6506" lon="5.69822">
        <ele>224</ele>
        <time>2022-05-17T06:31:28.798Z</time>
      </trkpt>
      <trkpt lat="45.65067" lon="5.69824">
        <ele>224</ele>
        <time>2022-05-17T06:31:29.798Z</time>
      </trkpt>
      <trkpt lat="45.65075" lon="5.69827">
        <ele>224</ele>
        <time>2022-05-17T06:31:30.797Z</time>
      </trkpt>
      <trkpt lat="45.65084" lon="5.69829">
        <ele>223</ele>
        <time>2022-05-17T06:31:31.798Z</time>
      </trkpt>
      <trkpt lat="45.65092" lon="5.69831">
        <ele>223</ele>
        <time>2022-05-17T06:31:32.798Z</time>
      </trkpt>
      <trkpt lat="45.65098" lon="5.69833">
        <ele>223</ele>
        <time>2022-05-17T06:31:33.798Z</time>
      </trkpt>
      <trkpt lat="45.65106" lon="5.69835">
        <ele>223</ele>
        <time>2022-05-17T06:31:34.798Z</time>
      </trkpt>
      <trkpt lat="45.65114" lon="5.69836">
        <ele>223</ele>
        <time>2022-05-17T06:31:35.797Z</time>
      </trkpt>
      <trkpt lat="45.65123" lon="5.69839">
        <ele>223</ele>
        <time>2022-05-17T06:31:36.798Z</time>
      </trkpt>
      <trkpt lat="45.65129" lon="5.6984">
        <ele>223</ele>
        <time>2022-05-17T06:31:37.798Z</time>
      </trkpt>
      <trkpt lat="45.65138" lon="5.69843">
        <ele>223</ele>
        <time>2022-05-17T06:31:38.797Z</time>
      </trkpt>
      <trkpt lat="45.65144" lon="5.69844">
        <ele>223</ele>
        <time>2022-05-17T06:31:39.797Z</time>
      </trkpt>
      <trkpt lat="45.65153" lon="5.69846">
        <ele>223</ele>
        <time>2022-05-17T06:31:40.797Z</time>
      </trkpt>
      <trkpt lat="45.65161" lon="5.69848">
        <ele>223</ele>
        <time>2022-05-17T06:31:41.798Z</time>
      </trkpt>
      <trkpt lat="45.65168" lon="5.69851">
        <ele>223</ele>
        <time>2022-05-17T06:31:42.798Z</time>
      </trkpt>
      <trkpt lat="45.65175" lon="5.69853">
        <ele>223</ele>
        <time>2022-05-17T06:31:43.798Z</time>
      </trkpt>
      <trkpt lat="45.65182" lon="5.69857">
        <ele>223</ele>
        <time>2022-05-17T06:31:44.797Z</time>
      </trkpt>
      <trkpt lat="45.65189" lon="5.6986">
        <ele>223</ele>
        <time>2022-05-17T06:31:45.798Z</time>
      </trkpt>
      <trkpt lat="45.65196" lon="5.69864">
        <ele>223</ele>
        <time>2022-05-17T06:31:46.798Z</time>
      </trkpt>
      <trkpt lat="45.65203" lon="5.69867">
        <ele>223</ele>
        <time>2022-05-17T06:31:47.798Z</time>
      </trkpt>
      <trkpt lat="45.65209" lon="5.69872">
        <ele>223</ele>
        <time>2022-05-17T06:31:48.798Z</time>
      </trkpt>
      <trkpt lat="45.65214" lon="5.69875">
        <ele>223</ele>
        <time>2022-05-17T06:31:49.798Z</time>
      </trkpt>
      <trkpt lat="45.65222" lon="5.69881">
        <ele>223</ele>
        <time>2022-05-17T06:31:50.798Z</time>
      </trkpt>
      <trkpt lat="45.65228" lon="5.69886">
        <ele>223</ele>
        <time>2022-05-17T06:31:51.798Z</time>
      </trkpt>
      <trkpt lat="45.65234" lon="5.6989">
        <ele>223</ele>
        <time>2022-05-17T06:31:52.798Z</time>
      </trkpt>
      <trkpt lat="45.65241" lon="5.69895">
        <ele>224</ele>
        <time>2022-05-17T06:31:53.798Z</time>
      </trkpt>
      <trkpt lat="45.65247" lon="5.69898">
        <ele>224</ele>
        <time>2022-05-17T06:31:54.798Z</time>
      </trkpt>
      <trkpt lat="45.65255" lon="5.69904">
        <ele>224</ele>
        <time>2022-05-17T06:31:55.797Z</time>
      </trkpt>
      <trkpt lat="45.65262" lon="5.69908">
        <ele>224</ele>
        <time>2022-05-17T06:31:56.798Z</time>
      </trkpt>
      <trkpt lat="45.65269" lon="5.69913">
        <ele>224</ele>
        <time>2022-05-17T06:31:57.798Z</time>
      </trkpt>
      <trkpt lat="45.65276" lon="5.69917">
        <ele>223</ele>
        <time>2022-05-17T06:31:58.798Z</time>
      </trkpt>
      <trkpt lat="45.65284" lon="5.69922">
        <ele>223</ele>
        <time>2022-05-17T06:31:59.798Z</time>
      </trkpt>
      <trkpt lat="45.65292" lon="5.69925">
        <ele>223</ele>
        <time>2022-05-17T06:32:00.798Z</time>
      </trkpt>
      <trkpt lat="45.653" lon="5.69928">
        <ele>222</ele>
        <time>2022-05-17T06:32:01.798Z</time>
      </trkpt>
      <trkpt lat="45.65306" lon="5.6993">
        <ele>222</ele>
        <time>2022-05-17T06:32:02.798Z</time>
      </trkpt>
      <trkpt lat="45.65315" lon="5.69932">
        <ele>221</ele>
        <time>2022-05-17T06:32:03.798Z</time>
      </trkpt>
      <trkpt lat="45.65325" lon="5.69933">
        <ele>220</ele>
        <time>2022-05-17T06:32:04.797Z</time>
      </trkpt>
      <trkpt lat="45.65333" lon="5.69934">
        <ele>220</ele>
        <time>2022-05-17T06:32:05.797Z</time>
      </trkpt>
      <trkpt lat="45.65341" lon="5.69934">
        <ele>219</ele>
        <time>2022-05-17T06:32:06.798Z</time>
      </trkpt>
      <trkpt lat="45.65348" lon="5.69934">
        <ele>219</ele>
        <time>2022-05-17T06:32:07.798Z</time>
      </trkpt>
      <trkpt lat="45.65356" lon="5.69934">
        <ele>218</ele>
        <time>2022-05-17T06:32:08.798Z</time>
      </trkpt>
      <trkpt lat="45.65366" lon="5.69934">
        <ele>218</ele>
        <time>2022-05-17T06:32:09.798Z</time>
      </trkpt>
      <trkpt lat="45.65374" lon="5.69935">
        <ele>218</ele>
        <time>2022-05-17T06:32:10.798Z</time>
      </trkpt>
      <trkpt lat="45.65382" lon="5.69935">
        <ele>217</ele>
        <time>2022-05-17T06:32:11.798Z</time>
      </trkpt>
      <trkpt lat="45.65388" lon="5.69935">
        <ele>217</ele>
        <time>2022-05-17T06:32:12.797Z</time>
      </trkpt>
      <trkpt lat="45.65397" lon="5.69937">
        <ele>217</ele>
        <time>2022-05-17T06:32:13.798Z</time>
      </trkpt>
      <trkpt lat="45.65405" lon="5.69938">
        <ele>217</ele>
        <time>2022-05-17T06:32:14.798Z</time>
      </trkpt>
      <trkpt lat="45.65413" lon="5.69939">
        <ele>217</ele>
        <time>2022-05-17T06:32:15.797Z</time>
      </trkpt>
      <trkpt lat="45.65421" lon="5.69941">
        <ele>217</ele>
        <time>2022-05-17T06:32:16.798Z</time>
      </trkpt>
      <trkpt lat="45.65429" lon="5.69943">
        <ele>217</ele>
        <time>2022-05-17T06:32:17.798Z</time>
      </trkpt>
      <trkpt lat="45.65436" lon="5.69945">
        <ele>217</ele>
        <time>2022-05-17T06:32:18.798Z</time>
      </trkpt>
      <trkpt lat="45.65444" lon="5.69947">
        <ele>217</ele>
        <time>2022-05-17T06:32:19.797Z</time>
      </trkpt>
      <trkpt lat="45.6545" lon="5.69948">
        <ele>217</ele>
        <time>2022-05-17T06:32:20.797Z</time>
      </trkpt>
      <trkpt lat="45.65458" lon="5.6995">
        <ele>217</ele>
        <time>2022-05-17T06:32:21.798Z</time>
      </trkpt>
      <trkpt lat="45.65467" lon="5.69951">
        <ele>218</ele>
        <time>2022-05-17T06:32:22.798Z</time>
      </trkpt>
      <trkpt lat="45.65475" lon="5.69953">
        <ele>218</ele>
        <time>2022-05-17T06:32:23.798Z</time>
      </trkpt>
      <trkpt lat="45.65482" lon="5.69953">
        <ele>218</ele>
        <time>2022-05-17T06:32:24.797Z</time>
      </trkpt>
      <trkpt lat="45.6549" lon="5.69954">
        <ele>219</ele>
        <time>2022-05-17T06:32:25.797Z</time>
      </trkpt>
      <trkpt lat="45.65497" lon="5.69955">
        <ele>219</ele>
        <time>2022-05-17T06:32:26.798Z</time>
      </trkpt>
      <trkpt lat="45.65505" lon="5.69955">
        <ele>220</ele>
        <time>2022-05-17T06:32:27.798Z</time>
      </trkpt>
      <trkpt lat="45.65512" lon="5.69955">
        <ele>220</ele>
        <time>2022-05-17T06:32:28.798Z</time>
      </trkpt>
      <trkpt lat="45.65518" lon="5.69954">
        <ele>220</ele>
        <time>2022-05-17T06:32:29.798Z</time>
      </trkpt>
      <trkpt lat="45.65526" lon="5.69953">
        <ele>220</ele>
        <time>2022-05-17T06:32:30.797Z</time>
      </trkpt>
      <trkpt lat="45.65534" lon="5.69952">
        <ele>221</ele>
        <time>2022-05-17T06:32:31.798Z</time>
      </trkpt>
      <trkpt lat="45.6554" lon="5.69951">
        <ele>221</ele>
        <time>2022-05-17T06:32:32.798Z</time>
      </trkpt>
      <trkpt lat="45.65547" lon="5.69949">
        <ele>221</ele>
        <time>2022-05-17T06:32:33.798Z</time>
      </trkpt>
      <trkpt lat="45.65554" lon="5.69949">
        <ele>221</ele>
        <time>2022-05-17T06:32:34.798Z</time>
      </trkpt>
      <trkpt lat="45.65562" lon="5.69948">
        <ele>222</ele>
        <time>2022-05-17T06:32:35.798Z</time>
      </trkpt>
      <trkpt lat="45.65568" lon="5.69948">
        <ele>222</ele>
        <time>2022-05-17T06:32:36.798Z</time>
      </trkpt>
      <trkpt lat="45.65575" lon="5.69949">
        <ele>222</ele>
        <time>2022-05-17T06:32:37.798Z</time>
      </trkpt>
      <trkpt lat="45.65583" lon="5.6995">
        <ele>223</ele>
        <time>2022-05-17T06:32:38.798Z</time>
      </trkpt>
      <trkpt lat="45.65589" lon="5.69952">
        <ele>223</ele>
        <time>2022-05-17T06:32:39.798Z</time>
      </trkpt>
      <trkpt lat="45.65596" lon="5.69955">
        <ele>223</ele>
        <time>2022-05-17T06:32:40.797Z</time>
      </trkpt>
      <trkpt lat="45.65603" lon="5.69959">
        <ele>223</ele>
        <time>2022-05-17T06:32:41.798Z</time>
      </trkpt>
      <trkpt lat="45.65608" lon="5.69963">
        <ele>223</ele>
        <time>2022-05-17T06:32:42.798Z</time>
      </trkpt>
      <trkpt lat="45.65616" lon="5.69969">
        <ele>223</ele>
        <time>2022-05-17T06:32:43.797Z</time>
      </trkpt>
      <trkpt lat="45.65621" lon="5.69973">
        <ele>223</ele>
        <time>2022-05-17T06:32:44.797Z</time>
      </trkpt>
      <trkpt lat="45.65627" lon="5.69978">
        <ele>223</ele>
        <time>2022-05-17T06:32:45.797Z</time>
      </trkpt>
      <trkpt lat="45.65635" lon="5.69984">
        <ele>223</ele>
        <time>2022-05-17T06:32:46.798Z</time>
      </trkpt>
      <trkpt lat="45.65642" lon="5.69989">
        <ele>223</ele>
        <time>2022-05-17T06:32:47.798Z</time>
      </trkpt>
      <trkpt lat="45.65647" lon="5.69993">
        <ele>224</ele>
        <time>2022-05-17T06:32:48.797Z</time>
      </trkpt>
      <trkpt lat="45.65654" lon="5.69998">
        <ele>224</ele>
        <time>2022-05-17T06:32:49.797Z</time>
      </trkpt>
      <trkpt lat="45.65661" lon="5.70002">
        <ele>223</ele>
        <time>2022-05-17T06:32:50.797Z</time>
      </trkpt>
      <trkpt lat="45.6567" lon="5.70006">
        <ele>224</ele>
        <time>2022-05-17T06:32:51.797Z</time>
      </trkpt>
      <trkpt lat="45.65678" lon="5.70008">
        <ele>224</ele>
        <time>2022-05-17T06:32:52.797Z</time>
      </trkpt>
      <trkpt lat="45.65685" lon="5.70009">
        <ele>224</ele>
        <time>2022-05-17T06:32:53.798Z</time>
      </trkpt>
      <trkpt lat="45.65695" lon="5.7001">
        <ele>224</ele>
        <time>2022-05-17T06:32:54.797Z</time>
      </trkpt>
      <trkpt lat="45.65703" lon="5.70011">
        <ele>224</ele>
        <time>2022-05-17T06:32:55.798Z</time>
      </trkpt>
      <trkpt lat="45.65711" lon="5.70011">
        <ele>224</ele>
        <time>2022-05-17T06:32:56.798Z</time>
      </trkpt>
      <trkpt lat="45.65719" lon="5.70011">
        <ele>224</ele>
        <time>2022-05-17T06:32:57.797Z</time>
      </trkpt>
      <trkpt lat="45.65726" lon="5.7001">
        <ele>223</ele>
        <time>2022-05-17T06:32:58.798Z</time>
      </trkpt>
      <trkpt lat="45.65736" lon="5.7001">
        <ele>223</ele>
        <time>2022-05-17T06:32:59.798Z</time>
      </trkpt>
      <trkpt lat="45.65743" lon="5.7001">
        <ele>223</ele>
        <time>2022-05-17T06:33:00.798Z</time>
      </trkpt>
      <trkpt lat="45.65751" lon="5.7001">
        <ele>223</ele>
        <time>2022-05-17T06:33:01.798Z</time>
      </trkpt>
      <trkpt lat="45.6576" lon="5.70011">
        <ele>222</ele>
        <time>2022-05-17T06:33:02.798Z</time>
      </trkpt>
      <trkpt lat="45.6577" lon="5.70013">
        <ele>222</ele>
        <time>2022-05-17T06:33:03.798Z</time>
      </trkpt>
      <trkpt lat="45.65778" lon="5.70014">
        <ele>222</ele>
        <time>2022-05-17T06:33:04.798Z</time>
      </trkpt>
      <trkpt lat="45.65786" lon="5.70016">
        <ele>222</ele>
        <time>2022-05-17T06:33:05.798Z</time>
      </trkpt>
      <trkpt lat="45.65794" lon="5.70019">
        <ele>222</ele>
        <time>2022-05-17T06:33:06.798Z</time>
      </trkpt>
      <trkpt lat="45.658" lon="5.7002">
        <ele>222</ele>
        <time>2022-05-17T06:33:07.798Z</time>
      </trkpt>
      <trkpt lat="45.65808" lon="5.70023">
        <ele>222</ele>
        <time>2022-05-17T06:33:08.798Z</time>
      </trkpt>
      <trkpt lat="45.65816" lon="5.70025">
        <ele>222</ele>
        <time>2022-05-17T06:33:09.797Z</time>
      </trkpt>
      <trkpt lat="45.65824" lon="5.70028">
        <ele>222</ele>
        <time>2022-05-17T06:33:10.797Z</time>
      </trkpt>
      <trkpt lat="45.65831" lon="5.70032">
        <ele>222</ele>
        <time>2022-05-17T06:33:11.798Z</time>
      </trkpt>
      <trkpt lat="45.65839" lon="5.70036">
        <ele>222</ele>
        <time>2022-05-17T06:33:12.798Z</time>
      </trkpt>
      <trkpt lat="45.65846" lon="5.7004">
        <ele>222</ele>
        <time>2022-05-17T06:33:13.797Z</time>
      </trkpt>
      <trkpt lat="45.65853" lon="5.70046">
        <ele>222</ele>
        <time>2022-05-17T06:33:14.797Z</time>
      </trkpt>
      <trkpt lat="45.6586" lon="5.70051">
        <ele>223</ele>
        <time>2022-05-17T06:33:15.798Z</time>
      </trkpt>
      <trkpt lat="45.65867" lon="5.70057">
        <ele>223</ele>
        <time>2022-05-17T06:33:16.798Z</time>
      </trkpt>
      <trkpt lat="45.65875" lon="5.70064">
        <ele>223</ele>
        <time>2022-05-17T06:33:17.798Z</time>
      </trkpt>
      <trkpt lat="45.65879" lon="5.7007">
        <ele>223</ele>
        <time>2022-05-17T06:33:18.798Z</time>
      </trkpt>
      <trkpt lat="45.65886" lon="5.70076">
        <ele>223</ele>
        <time>2022-05-17T06:33:19.797Z</time>
      </trkpt>
      <trkpt lat="45.65892" lon="5.70083">
        <ele>223</ele>
        <time>2022-05-17T06:33:20.798Z</time>
      </trkpt>
      <trkpt lat="45.65898" lon="5.70089">
        <ele>223</ele>
        <time>2022-05-17T06:33:21.798Z</time>
      </trkpt>
      <trkpt lat="45.65905" lon="5.70095">
        <ele>223</ele>
        <time>2022-05-17T06:33:22.798Z</time>
      </trkpt>
      <trkpt lat="45.65911" lon="5.701">
        <ele>224</ele>
        <time>2022-05-17T06:33:23.798Z</time>
      </trkpt>
      <trkpt lat="45.65918" lon="5.70105">
        <ele>224</ele>
        <time>2022-05-17T06:33:24.798Z</time>
      </trkpt>
      <trkpt lat="45.65925" lon="5.7011">
        <ele>224</ele>
        <time>2022-05-17T06:33:25.798Z</time>
      </trkpt>
      <trkpt lat="45.65932" lon="5.70115">
        <ele>225</ele>
        <time>2022-05-17T06:33:26.798Z</time>
      </trkpt>
      <trkpt lat="45.65938" lon="5.7012">
        <ele>225</ele>
        <time>2022-05-17T06:33:27.798Z</time>
      </trkpt>
      <trkpt lat="45.65945" lon="5.70125">
        <ele>225</ele>
        <time>2022-05-17T06:33:28.798Z</time>
      </trkpt>
      <trkpt lat="45.65952" lon="5.7013">
        <ele>226</ele>
        <time>2022-05-17T06:33:29.798Z</time>
      </trkpt>
      <trkpt lat="45.65959" lon="5.70134">
        <ele>226</ele>
        <time>2022-05-17T06:33:30.797Z</time>
      </trkpt>
      <trkpt lat="45.65966" lon="5.70139">
        <ele>226</ele>
        <time>2022-05-17T06:33:31.798Z</time>
      </trkpt>
      <trkpt lat="45.65973" lon="5.70144">
        <ele>226</ele>
        <time>2022-05-17T06:33:32.797Z</time>
      </trkpt>
      <trkpt lat="45.65979" lon="5.70148">
        <ele>226</ele>
        <time>2022-05-17T06:33:33.798Z</time>
      </trkpt>
      <trkpt lat="45.65985" lon="5.70153">
        <ele>225</ele>
        <time>2022-05-17T06:33:34.797Z</time>
      </trkpt>
      <trkpt lat="45.65992" lon="5.70158">
        <ele>224</ele>
        <time>2022-05-17T06:33:35.797Z</time>
      </trkpt>
      <trkpt lat="45.65999" lon="5.70162">
        <ele>224</ele>
        <time>2022-05-17T06:33:36.798Z</time>
      </trkpt>
      <trkpt lat="45.66006" lon="5.70166">
        <ele>224</ele>
        <time>2022-05-17T06:33:37.797Z</time>
      </trkpt>
      <trkpt lat="45.66015" lon="5.70171">
        <ele>223</ele>
        <time>2022-05-17T06:33:38.797Z</time>
      </trkpt>
      <trkpt lat="45.6602" lon="5.70175">
        <ele>223</ele>
        <time>2022-05-17T06:33:39.798Z</time>
      </trkpt>
      <trkpt lat="45.66028" lon="5.70179">
        <ele>223</ele>
        <time>2022-05-17T06:33:40.797Z</time>
      </trkpt>
      <trkpt lat="45.66035" lon="5.70182">
        <ele>224</ele>
        <time>2022-05-17T06:33:41.798Z</time>
      </trkpt>
      <trkpt lat="45.66044" lon="5.70186">
        <ele>224</ele>
        <time>2022-05-17T06:33:42.798Z</time>
      </trkpt>
      <trkpt lat="45.6605" lon="5.70187">
        <ele>224</ele>
        <time>2022-05-17T06:33:43.798Z</time>
      </trkpt>
      <trkpt lat="45.66058" lon="5.7019">
        <ele>225</ele>
        <time>2022-05-17T06:33:44.797Z</time>
      </trkpt>
      <trkpt lat="45.66065" lon="5.70192">
        <ele>225</ele>
        <time>2022-05-17T06:33:45.798Z</time>
      </trkpt>
      <trkpt lat="45.66074" lon="5.70195">
        <ele>226</ele>
        <time>2022-05-17T06:33:46.797Z</time>
      </trkpt>
      <trkpt lat="45.6608" lon="5.70196">
        <ele>227</ele>
        <time>2022-05-17T06:33:47.798Z</time>
      </trkpt>
      <trkpt lat="45.66088" lon="5.70199">
        <ele>228</ele>
        <time>2022-05-17T06:33:48.797Z</time>
      </trkpt>
      <trkpt lat="45.66096" lon="5.70201">
        <ele>228</ele>
        <time>2022-05-17T06:33:49.798Z</time>
      </trkpt>
      <trkpt lat="45.66103" lon="5.70203">
        <ele>228</ele>
        <time>2022-05-17T06:33:50.797Z</time>
      </trkpt>
      <trkpt lat="45.66111" lon="5.70205">
        <ele>228</ele>
        <time>2022-05-17T06:33:51.797Z</time>
      </trkpt>
      <trkpt lat="45.66118" lon="5.70208">
        <ele>228</ele>
        <time>2022-05-17T06:33:52.798Z</time>
      </trkpt>
      <trkpt lat="45.66126" lon="5.70211">
        <ele>228</ele>
        <time>2022-05-17T06:33:53.798Z</time>
      </trkpt>
      <trkpt lat="45.66134" lon="5.70214">
        <ele>228</ele>
        <time>2022-05-17T06:33:54.798Z</time>
      </trkpt>
      <trkpt lat="45.66141" lon="5.70218">
        <ele>228</ele>
        <time>2022-05-17T06:33:55.798Z</time>
      </trkpt>
      <trkpt lat="45.6615" lon="5.70225">
        <ele>228</ele>
        <time>2022-05-17T06:33:56.798Z</time>
      </trkpt>
      <trkpt lat="45.66155" lon="5.70229">
        <ele>228</ele>
        <time>2022-05-17T06:33:57.797Z</time>
      </trkpt>
      <trkpt lat="45.66162" lon="5.70235">
        <ele>227</ele>
        <time>2022-05-17T06:33:58.798Z</time>
      </trkpt>
      <trkpt lat="45.66169" lon="5.70242">
        <ele>227</ele>
        <time>2022-05-17T06:33:59.798Z</time>
      </trkpt>
      <trkpt lat="45.66175" lon="5.70248">
        <ele>227</ele>
        <time>2022-05-17T06:34:00.798Z</time>
      </trkpt>
      <trkpt lat="45.66184" lon="5.70255">
        <ele>227</ele>
        <time>2022-05-17T06:34:01.798Z</time>
      </trkpt>
      <trkpt lat="45.6619" lon="5.7026">
        <ele>227</ele>
        <time>2022-05-17T06:34:02.798Z</time>
      </trkpt>
      <trkpt lat="45.66196" lon="5.70266">
        <ele>227</ele>
        <time>2022-05-17T06:34:03.798Z</time>
      </trkpt>
      <trkpt lat="45.66203" lon="5.70271">
        <ele>227</ele>
        <time>2022-05-17T06:34:04.798Z</time>
      </trkpt>
      <trkpt lat="45.6621" lon="5.70277">
        <ele>227</ele>
        <time>2022-05-17T06:34:05.798Z</time>
      </trkpt>
      <trkpt lat="45.66218" lon="5.70283">
        <ele>228</ele>
        <time>2022-05-17T06:34:06.798Z</time>
      </trkpt>
      <trkpt lat="45.66225" lon="5.70289">
        <ele>228</ele>
        <time>2022-05-17T06:34:07.798Z</time>
      </trkpt>
      <trkpt lat="45.66232" lon="5.70294">
        <ele>228</ele>
        <time>2022-05-17T06:34:08.798Z</time>
      </trkpt>
      <trkpt lat="45.66239" lon="5.70299">
        <ele>228</ele>
        <time>2022-05-17T06:34:09.797Z</time>
      </trkpt>
      <trkpt lat="45.66246" lon="5.70306">
        <ele>228</ele>
        <time>2022-05-17T06:34:10.797Z</time>
      </trkpt>
      <trkpt lat="45.66252" lon="5.70313">
        <ele>228</ele>
        <time>2022-05-17T06:34:11.797Z</time>
      </trkpt>
      <trkpt lat="45.66259" lon="5.7032">
        <ele>228</ele>
        <time>2022-05-17T06:34:12.798Z</time>
      </trkpt>
      <trkpt lat="45.66265" lon="5.70328">
        <ele>228</ele>
        <time>2022-05-17T06:34:13.798Z</time>
      </trkpt>
      <trkpt lat="45.66271" lon="5.70336">
        <ele>228</ele>
        <time>2022-05-17T06:34:14.798Z</time>
      </trkpt>
      <trkpt lat="45.66277" lon="5.70344">
        <ele>228</ele>
        <time>2022-05-17T06:34:15.798Z</time>
      </trkpt>
      <trkpt lat="45.66282" lon="5.70353">
        <ele>228</ele>
        <time>2022-05-17T06:34:16.798Z</time>
      </trkpt>
      <trkpt lat="45.66288" lon="5.70361">
        <ele>228</ele>
        <time>2022-05-17T06:34:17.798Z</time>
      </trkpt>
      <trkpt lat="45.66293" lon="5.70369">
        <ele>228</ele>
        <time>2022-05-17T06:34:18.798Z</time>
      </trkpt>
      <trkpt lat="45.66299" lon="5.70379">
        <ele>227</ele>
        <time>2022-05-17T06:34:19.798Z</time>
      </trkpt>
      <trkpt lat="45.66305" lon="5.70387">
        <ele>227</ele>
        <time>2022-05-17T06:34:20.797Z</time>
      </trkpt>
      <trkpt lat="45.66309" lon="5.70393">
        <ele>227</ele>
        <time>2022-05-17T06:34:21.798Z</time>
      </trkpt>
      <trkpt lat="45.66314" lon="5.704">
        <ele>227</ele>
        <time>2022-05-17T06:34:22.797Z</time>
      </trkpt>
      <trkpt lat="45.66321" lon="5.7041">
        <ele>227</ele>
        <time>2022-05-17T06:34:23.797Z</time>
      </trkpt>
      <trkpt lat="45.66325" lon="5.70416">
        <ele>227</ele>
        <time>2022-05-17T06:34:24.798Z</time>
      </trkpt>
      <trkpt lat="45.6633" lon="5.70423">
        <ele>227</ele>
        <time>2022-05-17T06:34:25.798Z</time>
      </trkpt>
      <trkpt lat="45.66335" lon="5.70431">
        <ele>226</ele>
        <time>2022-05-17T06:34:26.798Z</time>
      </trkpt>
      <trkpt lat="45.66342" lon="5.70439">
        <ele>227</ele>
        <time>2022-05-17T06:34:27.798Z</time>
      </trkpt>
      <trkpt lat="45.66347" lon="5.70445">
        <ele>227</ele>
        <time>2022-05-17T06:34:28.797Z</time>
      </trkpt>
      <trkpt lat="45.66353" lon="5.70452">
        <ele>227</ele>
        <time>2022-05-17T06:34:29.798Z</time>
      </trkpt>
      <trkpt lat="45.6636" lon="5.70459">
        <ele>227</ele>
        <time>2022-05-17T06:34:30.798Z</time>
      </trkpt>
      <trkpt lat="45.66366" lon="5.70466">
        <ele>227</ele>
        <time>2022-05-17T06:34:31.798Z</time>
      </trkpt>
      <trkpt lat="45.66373" lon="5.70472">
        <ele>227</ele>
        <time>2022-05-17T06:34:32.797Z</time>
      </trkpt>
      <trkpt lat="45.66379" lon="5.70478">
        <ele>227</ele>
        <time>2022-05-17T06:34:33.798Z</time>
      </trkpt>
      <trkpt lat="45.66385" lon="5.70484">
        <ele>226</ele>
        <time>2022-05-17T06:34:34.798Z</time>
      </trkpt>
      <trkpt lat="45.66391" lon="5.70491">
        <ele>225</ele>
        <time>2022-05-17T06:34:35.797Z</time>
      </trkpt>
      <trkpt lat="45.66398" lon="5.70497">
        <ele>225</ele>
        <time>2022-05-17T06:34:36.797Z</time>
      </trkpt>
      <trkpt lat="45.66405" lon="5.70502">
        <ele>224</ele>
        <time>2022-05-17T06:34:37.797Z</time>
      </trkpt>
      <trkpt lat="45.66413" lon="5.70507">
        <ele>224</ele>
        <time>2022-05-17T06:34:38.798Z</time>
      </trkpt>
      <trkpt lat="45.6642" lon="5.70512">
        <ele>224</ele>
        <time>2022-05-17T06:34:39.797Z</time>
      </trkpt>
      <trkpt lat="45.66427" lon="5.70517">
        <ele>224</ele>
        <time>2022-05-17T06:34:40.798Z</time>
      </trkpt>
      <trkpt lat="45.66434" lon="5.70522">
        <ele>224</ele>
        <time>2022-05-17T06:34:41.798Z</time>
      </trkpt>
      <trkpt lat="45.66441" lon="5.70527">
        <ele>224</ele>
        <time>2022-05-17T06:34:42.798Z</time>
      </trkpt>
      <trkpt lat="45.66447" lon="5.70533">
        <ele>224</ele>
        <time>2022-05-17T06:34:43.798Z</time>
      </trkpt>
      <trkpt lat="45.66454" lon="5.70538">
        <ele>224</ele>
        <time>2022-05-17T06:34:44.797Z</time>
      </trkpt>
      <trkpt lat="45.66461" lon="5.70543">
        <ele>224</ele>
        <time>2022-05-17T06:34:45.798Z</time>
      </trkpt>
      <trkpt lat="45.66467" lon="5.70549">
        <ele>223</ele>
        <time>2022-05-17T06:34:46.797Z</time>
      </trkpt>
      <trkpt lat="45.66474" lon="5.70554">
        <ele>223</ele>
        <time>2022-05-17T06:34:47.798Z</time>
      </trkpt>
      <trkpt lat="45.66481" lon="5.70558">
        <ele>224</ele>
        <time>2022-05-17T06:34:48.798Z</time>
      </trkpt>
      <trkpt lat="45.66489" lon="5.70563">
        <ele>224</ele>
        <time>2022-05-17T06:34:49.798Z</time>
      </trkpt>
      <trkpt lat="45.66496" lon="5.70567">
        <ele>225</ele>
        <time>2022-05-17T06:34:50.798Z</time>
      </trkpt>
      <trkpt lat="45.66504" lon="5.7057">
        <ele>225</ele>
        <time>2022-05-17T06:34:51.798Z</time>
      </trkpt>
      <trkpt lat="45.66512" lon="5.70573">
        <ele>226</ele>
        <time>2022-05-17T06:34:52.798Z</time>
      </trkpt>
      <trkpt lat="45.66519" lon="5.70577">
        <ele>226</ele>
        <time>2022-05-17T06:34:53.798Z</time>
      </trkpt>
      <trkpt lat="45.66526" lon="5.70579">
        <ele>226</ele>
        <time>2022-05-17T06:34:54.798Z</time>
      </trkpt>
      <trkpt lat="45.66534" lon="5.70583">
        <ele>226</ele>
        <time>2022-05-17T06:34:55.798Z</time>
      </trkpt>
      <trkpt lat="45.66542" lon="5.70586">
        <ele>225</ele>
        <time>2022-05-17T06:34:56.797Z</time>
      </trkpt>
      <trkpt lat="45.6655" lon="5.70589">
        <ele>225</ele>
        <time>2022-05-17T06:34:57.797Z</time>
      </trkpt>
      <trkpt lat="45.66558" lon="5.70591">
        <ele>225</ele>
        <time>2022-05-17T06:34:58.798Z</time>
      </trkpt>
      <trkpt lat="45.66566" lon="5.70594">
        <ele>225</ele>
        <time>2022-05-17T06:34:59.798Z</time>
      </trkpt>
      <trkpt lat="45.66573" lon="5.70597">
        <ele>225</ele>
        <time>2022-05-17T06:35:00.797Z</time>
      </trkpt>
      <trkpt lat="45.66581" lon="5.70599">
        <ele>224</ele>
        <time>2022-05-17T06:35:01.798Z</time>
      </trkpt>
      <trkpt lat="45.66589" lon="5.70601">
        <ele>225</ele>
        <time>2022-05-17T06:35:02.797Z</time>
      </trkpt>
      <trkpt lat="45.66596" lon="5.70602">
        <ele>225</ele>
        <time>2022-05-17T06:35:03.798Z</time>
      </trkpt>
      <trkpt lat="45.66604" lon="5.70603">
        <ele>225</ele>
        <time>2022-05-17T06:35:04.797Z</time>
      </trkpt>
      <trkpt lat="45.66612" lon="5.70604">
        <ele>225</ele>
        <time>2022-05-17T06:35:05.798Z</time>
      </trkpt>
      <trkpt lat="45.66619" lon="5.70605">
        <ele>225</ele>
        <time>2022-05-17T06:35:06.797Z</time>
      </trkpt>
      <trkpt lat="45.66627" lon="5.70606">
        <ele>225</ele>
        <time>2022-05-17T06:35:07.798Z</time>
      </trkpt>
      <trkpt lat="45.66634" lon="5.70607">
        <ele>224</ele>
        <time>2022-05-17T06:35:08.798Z</time>
      </trkpt>
      <trkpt lat="45.66642" lon="5.70608">
        <ele>224</ele>
        <time>2022-05-17T06:35:09.797Z</time>
      </trkpt>
      <trkpt lat="45.6665" lon="5.70609">
        <ele>224</ele>
        <time>2022-05-17T06:35:10.798Z</time>
      </trkpt>
      <trkpt lat="45.66659" lon="5.7061">
        <ele>224</ele>
        <time>2022-05-17T06:35:11.798Z</time>
      </trkpt>
      <trkpt lat="45.66665" lon="5.7061">
        <ele>224</ele>
        <time>2022-05-17T06:35:12.797Z</time>
      </trkpt>
      <trkpt lat="45.66672" lon="5.70611">
        <ele>224</ele>
        <time>2022-05-17T06:35:13.798Z</time>
      </trkpt>
      <trkpt lat="45.6668" lon="5.70612">
        <ele>224</ele>
        <time>2022-05-17T06:35:14.798Z</time>
      </trkpt>
      <trkpt lat="45.66689" lon="5.70613">
        <ele>225</ele>
        <time>2022-05-17T06:35:15.798Z</time>
      </trkpt>
      <trkpt lat="45.66696" lon="5.70614">
        <ele>225</ele>
        <time>2022-05-17T06:35:16.797Z</time>
      </trkpt>
      <trkpt lat="45.66702" lon="5.70616">
        <ele>226</ele>
        <time>2022-05-17T06:35:17.797Z</time>
      </trkpt>
      <trkpt lat="45.66709" lon="5.70619">
        <ele>226</ele>
        <time>2022-05-17T06:35:18.798Z</time>
      </trkpt>
      <trkpt lat="45.66716" lon="5.70622">
        <ele>226</ele>
        <time>2022-05-17T06:35:19.798Z</time>
      </trkpt>
      <trkpt lat="45.66724" lon="5.70625">
        <ele>227</ele>
        <time>2022-05-17T06:35:20.797Z</time>
      </trkpt>
      <trkpt lat="45.66731" lon="5.70629">
        <ele>227</ele>
        <time>2022-05-17T06:35:21.797Z</time>
      </trkpt>
      <trkpt lat="45.66736" lon="5.70631">
        <ele>227</ele>
        <time>2022-05-17T06:35:22.798Z</time>
      </trkpt>
      <trkpt lat="45.66745" lon="5.70634">
        <ele>228</ele>
        <time>2022-05-17T06:35:23.798Z</time>
      </trkpt>
      <trkpt lat="45.66752" lon="5.70637">
        <ele>228</ele>
        <time>2022-05-17T06:35:24.797Z</time>
      </trkpt>
      <trkpt lat="45.66759" lon="5.70641">
        <ele>228</ele>
        <time>2022-05-17T06:35:25.797Z</time>
      </trkpt>
      <trkpt lat="45.66765" lon="5.70643">
        <ele>229</ele>
        <time>2022-05-17T06:35:26.798Z</time>
      </trkpt>
      <trkpt lat="45.66772" lon="5.70647">
        <ele>229</ele>
        <time>2022-05-17T06:35:27.798Z</time>
      </trkpt>
      <trkpt lat="45.66778" lon="5.70651">
        <ele>229</ele>
        <time>2022-05-17T06:35:28.797Z</time>
      </trkpt>
      <trkpt lat="45.66787" lon="5.70655">
        <ele>230</ele>
        <time>2022-05-17T06:35:29.798Z</time>
      </trkpt>
      <trkpt lat="45.66793" lon="5.70658">
        <ele>230</ele>
        <time>2022-05-17T06:35:30.798Z</time>
      </trkpt>
      <trkpt lat="45.66799" lon="5.7066">
        <ele>230</ele>
        <time>2022-05-17T06:35:31.798Z</time>
      </trkpt>
      <trkpt lat="45.66806" lon="5.70663">
        <ele>230</ele>
        <time>2022-05-17T06:35:32.797Z</time>
      </trkpt>
      <trkpt lat="45.66814" lon="5.70667">
        <ele>230</ele>
        <time>2022-05-17T06:35:33.797Z</time>
      </trkpt>
      <trkpt lat="45.66821" lon="5.7067">
        <ele>231</ele>
        <time>2022-05-17T06:35:34.798Z</time>
      </trkpt>
      <trkpt lat="45.66828" lon="5.70674">
        <ele>231</ele>
        <time>2022-05-17T06:35:35.798Z</time>
      </trkpt>
      <trkpt lat="45.66835" lon="5.70677">
        <ele>231</ele>
        <time>2022-05-17T06:35:36.797Z</time>
      </trkpt>
      <trkpt lat="45.66842" lon="5.7068">
        <ele>231</ele>
        <time>2022-05-17T06:35:37.798Z</time>
      </trkpt>
      <trkpt lat="45.66848" lon="5.70684">
        <ele>231</ele>
        <time>2022-05-17T06:35:38.798Z</time>
      </trkpt>
      <trkpt lat="45.66855" lon="5.70688">
        <ele>231</ele>
        <time>2022-05-17T06:35:39.798Z</time>
      </trkpt>
      <trkpt lat="45.66862" lon="5.70691">
        <ele>231</ele>
        <time>2022-05-17T06:35:40.798Z</time>
      </trkpt>
      <trkpt lat="45.66867" lon="5.70694">
        <ele>231</ele>
        <time>2022-05-17T06:35:41.797Z</time>
      </trkpt>
      <trkpt lat="45.66876" lon="5.70698">
        <ele>230</ele>
        <time>2022-05-17T06:35:42.797Z</time>
      </trkpt>
      <trkpt lat="45.66882" lon="5.70701">
        <ele>230</ele>
        <time>2022-05-17T06:35:43.797Z</time>
      </trkpt>
      <trkpt lat="45.66889" lon="5.70703">
        <ele>230</ele>
        <time>2022-05-17T06:35:44.797Z</time>
      </trkpt>
      <trkpt lat="45.66896" lon="5.70706">
        <ele>229</ele>
        <time>2022-05-17T06:35:45.798Z</time>
      </trkpt>
      <trkpt lat="45.66904" lon="5.70708">
        <ele>229</ele>
        <time>2022-05-17T06:35:46.797Z</time>
      </trkpt>
      <trkpt lat="45.66911" lon="5.70711">
        <ele>229</ele>
        <time>2022-05-17T06:35:47.798Z</time>
      </trkpt>
      <trkpt lat="45.66919" lon="5.70713">
        <ele>229</ele>
        <time>2022-05-17T06:35:48.797Z</time>
      </trkpt>
      <trkpt lat="45.66927" lon="5.70715">
        <ele>229</ele>
        <time>2022-05-17T06:35:49.798Z</time>
      </trkpt>
      <trkpt lat="45.66935" lon="5.70717">
        <ele>229</ele>
        <time>2022-05-17T06:35:50.797Z</time>
      </trkpt>
      <trkpt lat="45.66944" lon="5.7072">
        <ele>228</ele>
        <time>2022-05-17T06:35:51.798Z</time>
      </trkpt>
      <trkpt lat="45.66952" lon="5.70722">
        <ele>228</ele>
        <time>2022-05-17T06:35:52.798Z</time>
      </trkpt>
      <trkpt lat="45.66961" lon="5.70724">
        <ele>228</ele>
        <time>2022-05-17T06:35:53.798Z</time>
      </trkpt>
      <trkpt lat="45.6697" lon="5.70726">
        <ele>228</ele>
        <time>2022-05-17T06:35:54.798Z</time>
      </trkpt>
      <trkpt lat="45.66979" lon="5.70728">
        <ele>228</ele>
        <time>2022-05-17T06:35:55.798Z</time>
      </trkpt>
      <trkpt lat="45.66989" lon="5.7073">
        <ele>228</ele>
        <time>2022-05-17T06:35:56.798Z</time>
      </trkpt>
      <trkpt lat="45.66998" lon="5.70731">
        <ele>228</ele>
        <time>2022-05-17T06:35:57.798Z</time>
      </trkpt>
      <trkpt lat="45.67007" lon="5.70732">
        <ele>227</ele>
        <time>2022-05-17T06:35:58.797Z</time>
      </trkpt>
      <trkpt lat="45.67015" lon="5.70732">
        <ele>227</ele>
        <time>2022-05-17T06:35:59.797Z</time>
      </trkpt>
      <trkpt lat="45.67024" lon="5.70733">
        <ele>227</ele>
        <time>2022-05-17T06:36:00.798Z</time>
      </trkpt>
      <trkpt lat="45.67033" lon="5.70733">
        <ele>226</ele>
        <time>2022-05-17T06:36:01.798Z</time>
      </trkpt>
      <trkpt lat="45.67042" lon="5.70733">
        <ele>226</ele>
        <time>2022-05-17T06:36:02.798Z</time>
      </trkpt>
      <trkpt lat="45.67052" lon="5.70734">
        <ele>226</ele>
        <time>2022-05-17T06:36:03.798Z</time>
      </trkpt>
      <trkpt lat="45.67061" lon="5.70734">
        <ele>226</ele>
        <time>2022-05-17T06:36:04.798Z</time>
      </trkpt>
      <trkpt lat="45.6707" lon="5.70734">
        <ele>226</ele>
        <time>2022-05-17T06:36:05.798Z</time>
      </trkpt>
      <trkpt lat="45.67078" lon="5.70735">
        <ele>225</ele>
        <time>2022-05-17T06:36:06.798Z</time>
      </trkpt>
      <trkpt lat="45.67088" lon="5.70736">
        <ele>225</ele>
        <time>2022-05-17T06:36:07.798Z</time>
      </trkpt>
      <trkpt lat="45.67097" lon="5.70737">
        <ele>225</ele>
        <time>2022-05-17T06:36:08.797Z</time>
      </trkpt>
      <trkpt lat="45.67106" lon="5.70738">
        <ele>225</ele>
        <time>2022-05-17T06:36:09.798Z</time>
      </trkpt>
      <trkpt lat="45.67115" lon="5.7074">
        <ele>225</ele>
        <time>2022-05-17T06:36:10.798Z</time>
      </trkpt>
      <trkpt lat="45.67123" lon="5.70742">
        <ele>225</ele>
        <time>2022-05-17T06:36:11.798Z</time>
      </trkpt>
      <trkpt lat="45.67132" lon="5.70744">
        <ele>225</ele>
        <time>2022-05-17T06:36:12.797Z</time>
      </trkpt>
      <trkpt lat="45.67141" lon="5.70745">
        <ele>225</ele>
        <time>2022-05-17T06:36:13.797Z</time>
      </trkpt>
      <trkpt lat="45.6715" lon="5.70746">
        <ele>225</ele>
        <time>2022-05-17T06:36:14.798Z</time>
      </trkpt>
      <trkpt lat="45.67158" lon="5.70746">
        <ele>225</ele>
        <time>2022-05-17T06:36:15.798Z</time>
      </trkpt>
      <trkpt lat="45.67167" lon="5.70745">
        <ele>225</ele>
        <time>2022-05-17T06:36:16.797Z</time>
      </trkpt>
      <trkpt lat="45.67175" lon="5.70743">
        <ele>225</ele>
        <time>2022-05-17T06:36:17.798Z</time>
      </trkpt>
      <trkpt lat="45.67184" lon="5.7074">
        <ele>225</ele>
        <time>2022-05-17T06:36:18.798Z</time>
      </trkpt>
      <trkpt lat="45.67192" lon="5.70736">
        <ele>225</ele>
        <time>2022-05-17T06:36:19.797Z</time>
      </trkpt>
      <trkpt lat="45.67199" lon="5.7073">
        <ele>225</ele>
        <time>2022-05-17T06:36:20.798Z</time>
      </trkpt>
      <trkpt lat="45.67207" lon="5.70725">
        <ele>224</ele>
        <time>2022-05-17T06:36:21.797Z</time>
      </trkpt>
      <trkpt lat="45.67214" lon="5.70719">
        <ele>224</ele>
        <time>2022-05-17T06:36:22.798Z</time>
      </trkpt>
      <trkpt lat="45.67221" lon="5.70712">
        <ele>223</ele>
        <time>2022-05-17T06:36:23.798Z</time>
      </trkpt>
      <trkpt lat="45.67229" lon="5.70704">
        <ele>223</ele>
        <time>2022-05-17T06:36:24.798Z</time>
      </trkpt>
      <trkpt lat="45.67237" lon="5.70697">
        <ele>223</ele>
        <time>2022-05-17T06:36:25.798Z</time>
      </trkpt>
      <trkpt lat="45.67244" lon="5.70691">
        <ele>223</ele>
        <time>2022-05-17T06:36:26.798Z</time>
      </trkpt>
      <trkpt lat="45.67249" lon="5.70686">
        <ele>223</ele>
        <time>2022-05-17T06:36:27.798Z</time>
      </trkpt>
      <trkpt lat="45.67257" lon="5.70679">
        <ele>223</ele>
        <time>2022-05-17T06:36:28.798Z</time>
      </trkpt>
      <trkpt lat="45.67264" lon="5.70673">
        <ele>223</ele>
        <time>2022-05-17T06:36:29.798Z</time>
      </trkpt>
      <trkpt lat="45.67271" lon="5.70667">
        <ele>223</ele>
        <time>2022-05-17T06:36:30.798Z</time>
      </trkpt>
      <trkpt lat="45.67279" lon="5.70662">
        <ele>223</ele>
        <time>2022-05-17T06:36:31.798Z</time>
      </trkpt>
      <trkpt lat="45.67286" lon="5.70658">
        <ele>223</ele>
        <time>2022-05-17T06:36:32.798Z</time>
      </trkpt>
      <trkpt lat="45.67294" lon="5.70655">
        <ele>223</ele>
        <time>2022-05-17T06:36:33.797Z</time>
      </trkpt>
      <trkpt lat="45.67302" lon="5.70652">
        <ele>222</ele>
        <time>2022-05-17T06:36:34.798Z</time>
      </trkpt>
      <trkpt lat="45.6731" lon="5.70648">
        <ele>222</ele>
        <time>2022-05-17T06:36:35.798Z</time>
      </trkpt>
      <trkpt lat="45.67318" lon="5.70645">
        <ele>221</ele>
        <time>2022-05-17T06:36:36.797Z</time>
      </trkpt>
      <trkpt lat="45.67326" lon="5.70641">
        <ele>221</ele>
        <time>2022-05-17T06:36:37.797Z</time>
      </trkpt>
      <trkpt lat="45.67334" lon="5.70636">
        <ele>220</ele>
        <time>2022-05-17T06:36:38.797Z</time>
      </trkpt>
      <trkpt lat="45.67342" lon="5.70629">
        <ele>220</ele>
        <time>2022-05-17T06:36:39.797Z</time>
      </trkpt>
      <trkpt lat="45.67348" lon="5.70621">
        <ele>220</ele>
        <time>2022-05-17T06:36:40.798Z</time>
      </trkpt>
      <trkpt lat="45.67356" lon="5.70614">
        <ele>219</ele>
        <time>2022-05-17T06:36:41.798Z</time>
      </trkpt>
      <trkpt lat="45.67363" lon="5.70607">
        <ele>219</ele>
        <time>2022-05-17T06:36:42.798Z</time>
      </trkpt>
      <trkpt lat="45.67372" lon="5.70603">
        <ele>219</ele>
        <time>2022-05-17T06:36:43.798Z</time>
      </trkpt>
      <trkpt lat="45.6738" lon="5.70601">
        <ele>219</ele>
        <time>2022-05-17T06:36:44.798Z</time>
      </trkpt>
      <trkpt lat="45.67389" lon="5.706">
        <ele>218</ele>
        <time>2022-05-17T06:36:45.798Z</time>
      </trkpt>
      <trkpt lat="45.67397" lon="5.70601">
        <ele>218</ele>
        <time>2022-05-17T06:36:46.798Z</time>
      </trkpt>
      <trkpt lat="45.67406" lon="5.70602">
        <ele>218</ele>
        <time>2022-05-17T06:36:47.797Z</time>
      </trkpt>
      <trkpt lat="45.67414" lon="5.70603">
        <ele>218</ele>
        <time>2022-05-17T06:36:48.798Z</time>
      </trkpt>
      <trkpt lat="45.67422" lon="5.70605">
        <ele>218</ele>
        <time>2022-05-17T06:36:49.797Z</time>
      </trkpt>
      <trkpt lat="45.67431" lon="5.70606">
        <ele>218</ele>
        <time>2022-05-17T06:36:50.798Z</time>
      </trkpt>
      <trkpt lat="45.67439" lon="5.70609">
        <ele>218</ele>
        <time>2022-05-17T06:36:51.798Z</time>
      </trkpt>
      <trkpt lat="45.67447" lon="5.70611">
        <ele>218</ele>
        <time>2022-05-17T06:36:52.798Z</time>
      </trkpt>
      <trkpt lat="45.67455" lon="5.70613">
        <ele>218</ele>
        <time>2022-05-17T06:36:53.798Z</time>
      </trkpt>
      <trkpt lat="45.67464" lon="5.70615">
        <ele>217</ele>
        <time>2022-05-17T06:36:54.798Z</time>
      </trkpt>
      <trkpt lat="45.67472" lon="5.70618">
        <ele>217</ele>
        <time>2022-05-17T06:36:55.798Z</time>
      </trkpt>
      <trkpt lat="45.6748" lon="5.7062">
        <ele>217</ele>
        <time>2022-05-17T06:36:56.798Z</time>
      </trkpt>
      <trkpt lat="45.67488" lon="5.70622">
        <ele>217</ele>
        <time>2022-05-17T06:36:57.797Z</time>
      </trkpt>
      <trkpt lat="45.67496" lon="5.70623">
        <ele>217</ele>
        <time>2022-05-17T06:36:58.797Z</time>
      </trkpt>
      <trkpt lat="45.67504" lon="5.70624">
        <ele>217</ele>
        <time>2022-05-17T06:36:59.798Z</time>
      </trkpt>
      <trkpt lat="45.67512" lon="5.70624">
        <ele>217</ele>
        <time>2022-05-17T06:37:00.798Z</time>
      </trkpt>
      <trkpt lat="45.67521" lon="5.70625">
        <ele>218</ele>
        <time>2022-05-17T06:37:01.797Z</time>
      </trkpt>
      <trkpt lat="45.67529" lon="5.70625">
        <ele>218</ele>
        <time>2022-05-17T06:37:02.798Z</time>
      </trkpt>
      <trkpt lat="45.67537" lon="5.70624">
        <ele>218</ele>
        <time>2022-05-17T06:37:03.798Z</time>
      </trkpt>
      <trkpt lat="45.67546" lon="5.70623">
        <ele>218</ele>
        <time>2022-05-17T06:37:04.798Z</time>
      </trkpt>
      <trkpt lat="45.67553" lon="5.70622">
        <ele>218</ele>
        <time>2022-05-17T06:37:05.798Z</time>
      </trkpt>
      <trkpt lat="45.67561" lon="5.7062">
        <ele>219</ele>
        <time>2022-05-17T06:37:06.798Z</time>
      </trkpt>
      <trkpt lat="45.6757" lon="5.70619">
        <ele>220</ele>
        <time>2022-05-17T06:37:07.798Z</time>
      </trkpt>
      <trkpt lat="45.67578" lon="5.70617">
        <ele>220</ele>
        <time>2022-05-17T06:37:08.798Z</time>
      </trkpt>
      <trkpt lat="45.67586" lon="5.70615">
        <ele>221</ele>
        <time>2022-05-17T06:37:09.798Z</time>
      </trkpt>
      <trkpt lat="45.67594" lon="5.70613">
        <ele>221</ele>
        <time>2022-05-17T06:37:10.797Z</time>
      </trkpt>
      <trkpt lat="45.67601" lon="5.70611">
        <ele>221</ele>
        <time>2022-05-17T06:37:11.798Z</time>
      </trkpt>
      <trkpt lat="45.67609" lon="5.70608">
        <ele>221</ele>
        <time>2022-05-17T06:37:12.798Z</time>
      </trkpt>
      <trkpt lat="45.67617" lon="5.70606">
        <ele>222</ele>
        <time>2022-05-17T06:37:13.798Z</time>
      </trkpt>
      <trkpt lat="45.67624" lon="5.70603">
        <ele>222</ele>
        <time>2022-05-17T06:37:14.798Z</time>
      </trkpt>
      <trkpt lat="45.67632" lon="5.70601">
        <ele>223</ele>
        <time>2022-05-17T06:37:15.797Z</time>
      </trkpt>
      <trkpt lat="45.6764" lon="5.70599">
        <ele>223</ele>
        <time>2022-05-17T06:37:16.798Z</time>
      </trkpt>
      <trkpt lat="45.67647" lon="5.70597">
        <ele>224</ele>
        <time>2022-05-17T06:37:17.798Z</time>
      </trkpt>
      <trkpt lat="45.67655" lon="5.70595">
        <ele>224</ele>
        <time>2022-05-17T06:37:18.798Z</time>
      </trkpt>
      <trkpt lat="45.67663" lon="5.70594">
        <ele>224</ele>
        <time>2022-05-17T06:37:19.798Z</time>
      </trkpt>
      <trkpt lat="45.6767" lon="5.70593">
        <ele>224</ele>
        <time>2022-05-17T06:37:20.797Z</time>
      </trkpt>
      <trkpt lat="45.67678" lon="5.70593">
        <ele>224</ele>
        <time>2022-05-17T06:37:21.797Z</time>
      </trkpt>
      <trkpt lat="45.67685" lon="5.70593">
        <ele>224</ele>
        <time>2022-05-17T06:37:22.798Z</time>
      </trkpt>
      <trkpt lat="45.67693" lon="5.70594">
        <ele>223</ele>
        <time>2022-05-17T06:37:23.798Z</time>
      </trkpt>
      <trkpt lat="45.67701" lon="5.70596">
        <ele>223</ele>
        <time>2022-05-17T06:37:24.798Z</time>
      </trkpt>
      <trkpt lat="45.67709" lon="5.70597">
        <ele>222</ele>
        <time>2022-05-17T06:37:25.798Z</time>
      </trkpt>
      <trkpt lat="45.67716" lon="5.70599">
        <ele>221</ele>
        <time>2022-05-17T06:37:26.797Z</time>
      </trkpt>
      <trkpt lat="45.67724" lon="5.70601">
        <ele>221</ele>
        <time>2022-05-17T06:37:27.798Z</time>
      </trkpt>
      <trkpt lat="45.67733" lon="5.70603">
        <ele>221</ele>
        <time>2022-05-17T06:37:28.798Z</time>
      </trkpt>
      <trkpt lat="45.67741" lon="5.70606">
        <ele>222</ele>
        <time>2022-05-17T06:37:29.798Z</time>
      </trkpt>
      <trkpt lat="45.67749" lon="5.7061">
        <ele>221</ele>
        <time>2022-05-17T06:37:30.798Z</time>
      </trkpt>
      <trkpt lat="45.67759" lon="5.70615">
        <ele>221</ele>
        <time>2022-05-17T06:37:31.798Z</time>
      </trkpt>
      <trkpt lat="45.67767" lon="5.70621">
        <ele>221</ele>
        <time>2022-05-17T06:37:32.798Z</time>
      </trkpt>
      <trkpt lat="45.67773" lon="5.70626">
        <ele>220</ele>
        <time>2022-05-17T06:37:33.798Z</time>
      </trkpt>
      <trkpt lat="45.6778" lon="5.70633">
        <ele>220</ele>
        <time>2022-05-17T06:37:34.798Z</time>
      </trkpt>
      <trkpt lat="45.67786" lon="5.70641">
        <ele>220</ele>
        <time>2022-05-17T06:37:35.797Z</time>
      </trkpt>
      <trkpt lat="45.67793" lon="5.70651">
        <ele>220</ele>
        <time>2022-05-17T06:37:36.797Z</time>
      </trkpt>
      <trkpt lat="45.67798" lon="5.70658">
        <ele>220</ele>
        <time>2022-05-17T06:37:37.797Z</time>
      </trkpt>
      <trkpt lat="45.67804" lon="5.70667">
        <ele>220</ele>
        <time>2022-05-17T06:37:38.798Z</time>
      </trkpt>
      <trkpt lat="45.67809" lon="5.70675">
        <ele>220</ele>
        <time>2022-05-17T06:37:39.797Z</time>
      </trkpt>
      <trkpt lat="45.67815" lon="5.70683">
        <ele>219</ele>
        <time>2022-05-17T06:37:40.798Z</time>
      </trkpt>
      <trkpt lat="45.6782" lon="5.70691">
        <ele>219</ele>
        <time>2022-05-17T06:37:41.798Z</time>
      </trkpt>
      <trkpt lat="45.67825" lon="5.70699">
        <ele>220</ele>
        <time>2022-05-17T06:37:42.798Z</time>
      </trkpt>
      <trkpt lat="45.67831" lon="5.70705">
        <ele>220</ele>
        <time>2022-05-17T06:37:43.798Z</time>
      </trkpt>
      <trkpt lat="45.67837" lon="5.70712">
        <ele>220</ele>
        <time>2022-05-17T06:37:44.798Z</time>
      </trkpt>
      <trkpt lat="45.67843" lon="5.70718">
        <ele>221</ele>
        <time>2022-05-17T06:37:45.798Z</time>
      </trkpt>
      <trkpt lat="45.67849" lon="5.70724">
        <ele>221</ele>
        <time>2022-05-17T06:37:46.798Z</time>
      </trkpt>
      <trkpt lat="45.67855" lon="5.7073">
        <ele>222</ele>
        <time>2022-05-17T06:37:47.797Z</time>
      </trkpt>
      <trkpt lat="45.67861" lon="5.70736">
        <ele>222</ele>
        <time>2022-05-17T06:37:48.798Z</time>
      </trkpt>
      <trkpt lat="45.67868" lon="5.70741">
        <ele>222</ele>
        <time>2022-05-17T06:37:49.797Z</time>
      </trkpt>
      <trkpt lat="45.67874" lon="5.70746">
        <ele>222</ele>
        <time>2022-05-17T06:37:50.798Z</time>
      </trkpt>
      <trkpt lat="45.67881" lon="5.7075">
        <ele>222</ele>
        <time>2022-05-17T06:37:51.798Z</time>
      </trkpt>
      <trkpt lat="45.67887" lon="5.70754">
        <ele>222</ele>
        <time>2022-05-17T06:37:52.797Z</time>
      </trkpt>
      <trkpt lat="45.67894" lon="5.70758">
        <ele>222</ele>
        <time>2022-05-17T06:37:53.798Z</time>
      </trkpt>
      <trkpt lat="45.67901" lon="5.70761">
        <ele>223</ele>
        <time>2022-05-17T06:37:54.797Z</time>
      </trkpt>
      <trkpt lat="45.67908" lon="5.70764">
        <ele>223</ele>
        <time>2022-05-17T06:37:55.797Z</time>
      </trkpt>
      <trkpt lat="45.67916" lon="5.70766">
        <ele>223</ele>
        <time>2022-05-17T06:37:56.797Z</time>
      </trkpt>
      <trkpt lat="45.67923" lon="5.70767">
        <ele>223</ele>
        <time>2022-05-17T06:37:57.797Z</time>
      </trkpt>
      <trkpt lat="45.67931" lon="5.70767">
        <ele>222</ele>
        <time>2022-05-17T06:37:58.797Z</time>
      </trkpt>
      <trkpt lat="45.67938" lon="5.70767">
        <ele>222</ele>
        <time>2022-05-17T06:37:59.798Z</time>
      </trkpt>
      <trkpt lat="45.67946" lon="5.70768">
        <ele>222</ele>
        <time>2022-05-17T06:38:00.798Z</time>
      </trkpt>
      <trkpt lat="45.67954" lon="5.70768">
        <ele>222</ele>
        <time>2022-05-17T06:38:01.798Z</time>
      </trkpt>
      <trkpt lat="45.67962" lon="5.70769">
        <ele>222</ele>
        <time>2022-05-17T06:38:02.798Z</time>
      </trkpt>
      <trkpt lat="45.6797" lon="5.7077">
        <ele>222</ele>
        <time>2022-05-17T06:38:03.798Z</time>
      </trkpt>
      <trkpt lat="45.6798" lon="5.70771">
        <ele>222</ele>
        <time>2022-05-17T06:38:04.797Z</time>
      </trkpt>
      <trkpt lat="45.67986" lon="5.70772">
        <ele>222</ele>
        <time>2022-05-17T06:38:05.798Z</time>
      </trkpt>
      <trkpt lat="45.67994" lon="5.70774">
        <ele>222</ele>
        <time>2022-05-17T06:38:06.798Z</time>
      </trkpt>
      <trkpt lat="45.68002" lon="5.70776">
        <ele>222</ele>
        <time>2022-05-17T06:38:07.798Z</time>
      </trkpt>
      <trkpt lat="45.6801" lon="5.70779">
        <ele>222</ele>
        <time>2022-05-17T06:38:08.797Z</time>
      </trkpt>
      <trkpt lat="45.68017" lon="5.70782">
        <ele>222</ele>
        <time>2022-05-17T06:38:09.797Z</time>
      </trkpt>
      <trkpt lat="45.68026" lon="5.70786">
        <ele>222</ele>
        <time>2022-05-17T06:38:10.798Z</time>
      </trkpt>
      <trkpt lat="45.68032" lon="5.7079">
        <ele>222</ele>
        <time>2022-05-17T06:38:11.797Z</time>
      </trkpt>
      <trkpt lat="45.68039" lon="5.70794">
        <ele>222</ele>
        <time>2022-05-17T06:38:12.798Z</time>
      </trkpt>
      <trkpt lat="45.68046" lon="5.70799">
        <ele>222</ele>
        <time>2022-05-17T06:38:13.798Z</time>
      </trkpt>
      <trkpt lat="45.68053" lon="5.70804">
        <ele>222</ele>
        <time>2022-05-17T06:38:14.797Z</time>
      </trkpt>
      <trkpt lat="45.6806" lon="5.70809">
        <ele>222</ele>
        <time>2022-05-17T06:38:15.797Z</time>
      </trkpt>
      <trkpt lat="45.68067" lon="5.70814">
        <ele>221</ele>
        <time>2022-05-17T06:38:16.797Z</time>
      </trkpt>
      <trkpt lat="45.68074" lon="5.7082">
        <ele>221</ele>
        <time>2022-05-17T06:38:17.798Z</time>
      </trkpt>
      <trkpt lat="45.6808" lon="5.70824">
        <ele>221</ele>
        <time>2022-05-17T06:38:18.798Z</time>
      </trkpt>
      <trkpt lat="45.68088" lon="5.70829">
        <ele>221</ele>
        <time>2022-05-17T06:38:19.798Z</time>
      </trkpt>
      <trkpt lat="45.68095" lon="5.70834">
        <ele>221</ele>
        <time>2022-05-17T06:38:20.797Z</time>
      </trkpt>
      <trkpt lat="45.68102" lon="5.70839">
        <ele>221</ele>
        <time>2022-05-17T06:38:21.797Z</time>
      </trkpt>
      <trkpt lat="45.68109" lon="5.70844">
        <ele>221</ele>
        <time>2022-05-17T06:38:22.798Z</time>
      </trkpt>
      <trkpt lat="45.68116" lon="5.70848">
        <ele>222</ele>
        <time>2022-05-17T06:38:23.798Z</time>
      </trkpt>
      <trkpt lat="45.68124" lon="5.70852">
        <ele>222</ele>
        <time>2022-05-17T06:38:24.797Z</time>
      </trkpt>
      <trkpt lat="45.68131" lon="5.70857">
        <ele>222</ele>
        <time>2022-05-17T06:38:25.798Z</time>
      </trkpt>
      <trkpt lat="45.68139" lon="5.70861">
        <ele>222</ele>
        <time>2022-05-17T06:38:26.797Z</time>
      </trkpt>
      <trkpt lat="45.68146" lon="5.70865">
        <ele>222</ele>
        <time>2022-05-17T06:38:27.798Z</time>
      </trkpt>
      <trkpt lat="45.68153" lon="5.7087">
        <ele>222</ele>
        <time>2022-05-17T06:38:28.797Z</time>
      </trkpt>
      <trkpt lat="45.68161" lon="5.70874">
        <ele>222</ele>
        <time>2022-05-17T06:38:29.798Z</time>
      </trkpt>
      <trkpt lat="45.68169" lon="5.70878">
        <ele>222</ele>
        <time>2022-05-17T06:38:30.798Z</time>
      </trkpt>
      <trkpt lat="45.68177" lon="5.70882">
        <ele>222</ele>
        <time>2022-05-17T06:38:31.798Z</time>
      </trkpt>
      <trkpt lat="45.68185" lon="5.70886">
        <ele>223</ele>
        <time>2022-05-17T06:38:32.797Z</time>
      </trkpt>
      <trkpt lat="45.68193" lon="5.70889">
        <ele>223</ele>
        <time>2022-05-17T06:38:33.797Z</time>
      </trkpt>
      <trkpt lat="45.68201" lon="5.70892">
        <ele>224</ele>
        <time>2022-05-17T06:38:34.797Z</time>
      </trkpt>
      <trkpt lat="45.68209" lon="5.70894">
        <ele>224</ele>
        <time>2022-05-17T06:38:35.797Z</time>
      </trkpt>
      <trkpt lat="45.68218" lon="5.70896">
        <ele>224</ele>
        <time>2022-05-17T06:38:36.797Z</time>
      </trkpt>
      <trkpt lat="45.68226" lon="5.70897">
        <ele>224</ele>
        <time>2022-05-17T06:38:37.798Z</time>
      </trkpt>
      <trkpt lat="45.68235" lon="5.70898">
        <ele>224</ele>
        <time>2022-05-17T06:38:38.798Z</time>
      </trkpt>
      <trkpt lat="45.68243" lon="5.70899">
        <ele>223</ele>
        <time>2022-05-17T06:38:39.798Z</time>
      </trkpt>
      <trkpt lat="45.68251" lon="5.70901">
        <ele>223</ele>
        <time>2022-05-17T06:38:40.797Z</time>
      </trkpt>
      <trkpt lat="45.68259" lon="5.70902">
        <ele>222</ele>
        <time>2022-05-17T06:38:41.797Z</time>
      </trkpt>
      <trkpt lat="45.68268" lon="5.70902">
        <ele>222</ele>
        <time>2022-05-17T06:38:42.797Z</time>
      </trkpt>
      <trkpt lat="45.68276" lon="5.70903">
        <ele>222</ele>
        <time>2022-05-17T06:38:43.797Z</time>
      </trkpt>
      <trkpt lat="45.68285" lon="5.70904">
        <ele>221</ele>
        <time>2022-05-17T06:38:44.798Z</time>
      </trkpt>
      <trkpt lat="45.68292" lon="5.70905">
        <ele>221</ele>
        <time>2022-05-17T06:38:45.798Z</time>
      </trkpt>
      <trkpt lat="45.68301" lon="5.70905">
        <ele>221</ele>
        <time>2022-05-17T06:38:46.798Z</time>
      </trkpt>
      <trkpt lat="45.68309" lon="5.70906">
        <ele>221</ele>
        <time>2022-05-17T06:38:47.798Z</time>
      </trkpt>
      <trkpt lat="45.68316" lon="5.70907">
        <ele>221</ele>
        <time>2022-05-17T06:38:48.798Z</time>
      </trkpt>
      <trkpt lat="45.68324" lon="5.70908">
        <ele>222</ele>
        <time>2022-05-17T06:38:49.797Z</time>
      </trkpt>
      <trkpt lat="45.68332" lon="5.70909">
        <ele>222</ele>
        <time>2022-05-17T06:38:50.798Z</time>
      </trkpt>
      <trkpt lat="45.6834" lon="5.7091">
        <ele>222</ele>
        <time>2022-05-17T06:38:51.798Z</time>
      </trkpt>
      <trkpt lat="45.68349" lon="5.70911">
        <ele>223</ele>
        <time>2022-05-17T06:38:52.798Z</time>
      </trkpt>
      <trkpt lat="45.68355" lon="5.70912">
        <ele>223</ele>
        <time>2022-05-17T06:38:53.798Z</time>
      </trkpt>
      <trkpt lat="45.68363" lon="5.70913">
        <ele>223</ele>
        <time>2022-05-17T06:38:54.798Z</time>
      </trkpt>
      <trkpt lat="45.6837" lon="5.70913">
        <ele>223</ele>
        <time>2022-05-17T06:38:55.798Z</time>
      </trkpt>
      <trkpt lat="45.68377" lon="5.70914">
        <ele>223</ele>
        <time>2022-05-17T06:38:56.798Z</time>
      </trkpt>
      <trkpt lat="45.68384" lon="5.70916">
        <ele>223</ele>
        <time>2022-05-17T06:38:57.798Z</time>
      </trkpt>
      <trkpt lat="45.68391" lon="5.70917">
        <ele>223</ele>
        <time>2022-05-17T06:38:58.798Z</time>
      </trkpt>
      <trkpt lat="45.68399" lon="5.7092">
        <ele>223</ele>
        <time>2022-05-17T06:38:59.798Z</time>
      </trkpt>
      <trkpt lat="45.68406" lon="5.70922">
        <ele>222</ele>
        <time>2022-05-17T06:39:00.798Z</time>
      </trkpt>
      <trkpt lat="45.68413" lon="5.70925">
        <ele>222</ele>
        <time>2022-05-17T06:39:01.797Z</time>
      </trkpt>
      <trkpt lat="45.6842" lon="5.70929">
        <ele>222</ele>
        <time>2022-05-17T06:39:02.798Z</time>
      </trkpt>
      <trkpt lat="45.68426" lon="5.70932">
        <ele>222</ele>
        <time>2022-05-17T06:39:03.798Z</time>
      </trkpt>
      <trkpt lat="45.68433" lon="5.70935">
        <ele>222</ele>
        <time>2022-05-17T06:39:04.798Z</time>
      </trkpt>
      <trkpt lat="45.6844" lon="5.70939">
        <ele>222</ele>
        <time>2022-05-17T06:39:05.797Z</time>
      </trkpt>
      <trkpt lat="45.68447" lon="5.70943">
        <ele>223</ele>
        <time>2022-05-17T06:39:06.797Z</time>
      </trkpt>
      <trkpt lat="45.68454" lon="5.70947">
        <ele>223</ele>
        <time>2022-05-17T06:39:07.798Z</time>
      </trkpt>
      <trkpt lat="45.68462" lon="5.70952">
        <ele>224</ele>
        <time>2022-05-17T06:39:08.798Z</time>
      </trkpt>
      <trkpt lat="45.68468" lon="5.70956">
        <ele>224</ele>
        <time>2022-05-17T06:39:09.797Z</time>
      </trkpt>
      <trkpt lat="45.68474" lon="5.7096">
        <ele>224</ele>
        <time>2022-05-17T06:39:10.797Z</time>
      </trkpt>
      <trkpt lat="45.68481" lon="5.70965">
        <ele>224</ele>
        <time>2022-05-17T06:39:11.798Z</time>
      </trkpt>
      <trkpt lat="45.68487" lon="5.7097">
        <ele>225</ele>
        <time>2022-05-17T06:39:12.798Z</time>
      </trkpt>
      <trkpt lat="45.68494" lon="5.70975">
        <ele>225</ele>
        <time>2022-05-17T06:39:13.798Z</time>
      </trkpt>
      <trkpt lat="45.685" lon="5.7098">
        <ele>225</ele>
        <time>2022-05-17T06:39:14.798Z</time>
      </trkpt>
      <trkpt lat="45.68507" lon="5.70984">
        <ele>225</ele>
        <time>2022-05-17T06:39:15.798Z</time>
      </trkpt>
      <trkpt lat="45.68514" lon="5.70989">
        <ele>225</ele>
        <time>2022-05-17T06:39:16.798Z</time>
      </trkpt>
      <trkpt lat="45.68521" lon="5.70993">
        <ele>225</ele>
        <time>2022-05-17T06:39:17.798Z</time>
      </trkpt>
      <trkpt lat="45.68527" lon="5.70998">
        <ele>225</ele>
        <time>2022-05-17T06:39:18.797Z</time>
      </trkpt>
      <trkpt lat="45.68535" lon="5.71002">
        <ele>225</ele>
        <time>2022-05-17T06:39:19.797Z</time>
      </trkpt>
      <trkpt lat="45.68542" lon="5.71006">
        <ele>226</ele>
        <time>2022-05-17T06:39:20.798Z</time>
      </trkpt>
      <trkpt lat="45.6855" lon="5.71011">
        <ele>226</ele>
        <time>2022-05-17T06:39:21.797Z</time>
      </trkpt>
      <trkpt lat="45.68556" lon="5.71014">
        <ele>227</ele>
        <time>2022-05-17T06:39:22.798Z</time>
      </trkpt>
      <trkpt lat="45.68563" lon="5.71018">
        <ele>227</ele>
        <time>2022-05-17T06:39:23.798Z</time>
      </trkpt>
      <trkpt lat="45.6857" lon="5.71022">
        <ele>228</ele>
        <time>2022-05-17T06:39:24.798Z</time>
      </trkpt>
      <trkpt lat="45.68577" lon="5.71026">
        <ele>228</ele>
        <time>2022-05-17T06:39:25.798Z</time>
      </trkpt>
      <trkpt lat="45.68584" lon="5.7103">
        <ele>229</ele>
        <time>2022-05-17T06:39:26.797Z</time>
      </trkpt>
      <trkpt lat="45.68591" lon="5.71034">
        <ele>229</ele>
        <time>2022-05-17T06:39:27.798Z</time>
      </trkpt>
      <trkpt lat="45.68598" lon="5.71038">
        <ele>229</ele>
        <time>2022-05-17T06:39:28.798Z</time>
      </trkpt>
      <trkpt lat="45.68605" lon="5.71041">
        <ele>229</ele>
        <time>2022-05-17T06:39:29.798Z</time>
      </trkpt>
      <trkpt lat="45.68612" lon="5.71045">
        <ele>229</ele>
        <time>2022-05-17T06:39:30.798Z</time>
      </trkpt>
      <trkpt lat="45.68619" lon="5.71048">
        <ele>229</ele>
        <time>2022-05-17T06:39:31.798Z</time>
      </trkpt>
      <trkpt lat="45.68626" lon="5.71052">
        <ele>229</ele>
        <time>2022-05-17T06:39:32.798Z</time>
      </trkpt>
      <trkpt lat="45.68633" lon="5.71056">
        <ele>228</ele>
        <time>2022-05-17T06:39:33.798Z</time>
      </trkpt>
      <trkpt lat="45.6864" lon="5.7106">
        <ele>228</ele>
        <time>2022-05-17T06:39:34.797Z</time>
      </trkpt>
      <trkpt lat="45.68647" lon="5.71063">
        <ele>227</ele>
        <time>2022-05-17T06:39:35.797Z</time>
      </trkpt>
      <trkpt lat="45.68655" lon="5.71066">
        <ele>227</ele>
        <time>2022-05-17T06:39:36.798Z</time>
      </trkpt>
      <trkpt lat="45.68661" lon="5.71068">
        <ele>226</ele>
        <time>2022-05-17T06:39:37.798Z</time>
      </trkpt>
      <trkpt lat="45.68668" lon="5.71071">
        <ele>226</ele>
        <time>2022-05-17T06:39:38.798Z</time>
      </trkpt>
      <trkpt lat="45.68675" lon="5.71073">
        <ele>226</ele>
        <time>2022-05-17T06:39:39.797Z</time>
      </trkpt>
      <trkpt lat="45.68683" lon="5.71076">
        <ele>226</ele>
        <time>2022-05-17T06:39:40.798Z</time>
      </trkpt>
      <trkpt lat="45.6869" lon="5.71078">
        <ele>226</ele>
        <time>2022-05-17T06:39:41.798Z</time>
      </trkpt>
      <trkpt lat="45.68697" lon="5.71081">
        <ele>226</ele>
        <time>2022-05-17T06:39:42.798Z</time>
      </trkpt>
      <trkpt lat="45.68703" lon="5.71084">
        <ele>227</ele>
        <time>2022-05-17T06:39:43.798Z</time>
      </trkpt>
      <trkpt lat="45.6871" lon="5.71087">
        <ele>227</ele>
        <time>2022-05-17T06:39:44.798Z</time>
      </trkpt>
      <trkpt lat="45.68717" lon="5.7109">
        <ele>227</ele>
        <time>2022-05-17T06:39:45.797Z</time>
      </trkpt>
      <trkpt lat="45.68723" lon="5.71094">
        <ele>228</ele>
        <time>2022-05-17T06:39:46.798Z</time>
      </trkpt>
      <trkpt lat="45.6873" lon="5.71098">
        <ele>228</ele>
        <time>2022-05-17T06:39:47.797Z</time>
      </trkpt>
      <trkpt lat="45.68737" lon="5.71102">
        <ele>228</ele>
        <time>2022-05-17T06:39:48.798Z</time>
      </trkpt>
      <trkpt lat="45.68743" lon="5.71106">
        <ele>229</ele>
        <time>2022-05-17T06:39:49.797Z</time>
      </trkpt>
      <trkpt lat="45.68749" lon="5.7111">
        <ele>229</ele>
        <time>2022-05-17T06:39:50.798Z</time>
      </trkpt>
      <trkpt lat="45.68756" lon="5.71115">
        <ele>230</ele>
        <time>2022-05-17T06:39:51.797Z</time>
      </trkpt>
      <trkpt lat="45.68762" lon="5.71119">
        <ele>230</ele>
        <time>2022-05-17T06:39:52.798Z</time>
      </trkpt>
      <trkpt lat="45.68768" lon="5.71123">
        <ele>230</ele>
        <time>2022-05-17T06:39:53.797Z</time>
      </trkpt>
      <trkpt lat="45.68775" lon="5.71127">
        <ele>231</ele>
        <time>2022-05-17T06:39:54.798Z</time>
      </trkpt>
      <trkpt lat="45.68781" lon="5.71131">
        <ele>231</ele>
        <time>2022-05-17T06:39:55.798Z</time>
      </trkpt>
      <trkpt lat="45.68788" lon="5.71134">
        <ele>231</ele>
        <time>2022-05-17T06:39:56.798Z</time>
      </trkpt>
      <trkpt lat="45.68795" lon="5.71138">
        <ele>232</ele>
        <time>2022-05-17T06:39:57.798Z</time>
      </trkpt>
      <trkpt lat="45.68803" lon="5.71141">
        <ele>232</ele>
        <time>2022-05-17T06:39:58.798Z</time>
      </trkpt>
      <trkpt lat="45.6881" lon="5.71144">
        <ele>232</ele>
        <time>2022-05-17T06:39:59.798Z</time>
      </trkpt>
      <trkpt lat="45.68818" lon="5.71147">
        <ele>232</ele>
        <time>2022-05-17T06:40:00.798Z</time>
      </trkpt>
      <trkpt lat="45.68826" lon="5.71151">
        <ele>232</ele>
        <time>2022-05-17T06:40:01.798Z</time>
      </trkpt>
      <trkpt lat="45.68834" lon="5.71154">
        <ele>232</ele>
        <time>2022-05-17T06:40:02.798Z</time>
      </trkpt>
      <trkpt lat="45.68842" lon="5.71157">
        <ele>232</ele>
        <time>2022-05-17T06:40:03.798Z</time>
      </trkpt>
      <trkpt lat="45.6885" lon="5.7116">
        <ele>232</ele>
        <time>2022-05-17T06:40:04.798Z</time>
      </trkpt>
      <trkpt lat="45.68858" lon="5.71163">
        <ele>231</ele>
        <time>2022-05-17T06:40:05.798Z</time>
      </trkpt>
      <trkpt lat="45.68866" lon="5.71167">
        <ele>231</ele>
        <time>2022-05-17T06:40:06.798Z</time>
      </trkpt>
      <trkpt lat="45.68874" lon="5.7117">
        <ele>231</ele>
        <time>2022-05-17T06:40:07.798Z</time>
      </trkpt>
      <trkpt lat="45.68882" lon="5.71174">
        <ele>231</ele>
        <time>2022-05-17T06:40:08.798Z</time>
      </trkpt>
      <trkpt lat="45.6889" lon="5.71177">
        <ele>230</ele>
        <time>2022-05-17T06:40:09.797Z</time>
      </trkpt>
      <trkpt lat="45.68898" lon="5.7118">
        <ele>230</ele>
        <time>2022-05-17T06:40:10.798Z</time>
      </trkpt>
      <trkpt lat="45.68905" lon="5.71184">
        <ele>230</ele>
        <time>2022-05-17T06:40:11.797Z</time>
      </trkpt>
      <trkpt lat="45.68913" lon="5.71187">
        <ele>229</ele>
        <time>2022-05-17T06:40:12.798Z</time>
      </trkpt>
      <trkpt lat="45.68921" lon="5.7119">
        <ele>229</ele>
        <time>2022-05-17T06:40:13.797Z</time>
      </trkpt>
      <trkpt lat="45.68929" lon="5.71193">
        <ele>229</ele>
        <time>2022-05-17T06:40:14.798Z</time>
      </trkpt>
      <trkpt lat="45.68937" lon="5.71195">
        <ele>228</ele>
        <time>2022-05-17T06:40:15.798Z</time>
      </trkpt>
      <trkpt lat="45.68945" lon="5.71198">
        <ele>228</ele>
        <time>2022-05-17T06:40:16.798Z</time>
      </trkpt>
      <trkpt lat="45.68953" lon="5.71201">
        <ele>228</ele>
        <time>2022-05-17T06:40:17.798Z</time>
      </trkpt>
      <trkpt lat="45.68962" lon="5.71204">
        <ele>227</ele>
        <time>2022-05-17T06:40:18.798Z</time>
      </trkpt>
      <trkpt lat="45.6897" lon="5.71206">
        <ele>227</ele>
        <time>2022-05-17T06:40:19.797Z</time>
      </trkpt>
      <trkpt lat="45.68978" lon="5.71209">
        <ele>227</ele>
        <time>2022-05-17T06:40:20.798Z</time>
      </trkpt>
      <trkpt lat="45.68987" lon="5.71212">
        <ele>226</ele>
        <time>2022-05-17T06:40:21.798Z</time>
      </trkpt>
      <trkpt lat="45.68995" lon="5.71215">
        <ele>226</ele>
        <time>2022-05-17T06:40:22.798Z</time>
      </trkpt>
      <trkpt lat="45.69003" lon="5.71218">
        <ele>226</ele>
        <time>2022-05-17T06:40:23.798Z</time>
      </trkpt>
      <trkpt lat="45.69011" lon="5.7122">
        <ele>226</ele>
        <time>2022-05-17T06:40:24.798Z</time>
      </trkpt>
      <trkpt lat="45.69019" lon="5.71224">
        <ele>227</ele>
        <time>2022-05-17T06:40:25.798Z</time>
      </trkpt>
      <trkpt lat="45.69027" lon="5.71227">
        <ele>227</ele>
        <time>2022-05-17T06:40:26.798Z</time>
      </trkpt>
      <trkpt lat="45.69036" lon="5.71231">
        <ele>228</ele>
        <time>2022-05-17T06:40:27.798Z</time>
      </trkpt>
      <trkpt lat="45.69044" lon="5.71235">
        <ele>228</ele>
        <time>2022-05-17T06:40:28.798Z</time>
      </trkpt>
      <trkpt lat="45.69052" lon="5.71239">
        <ele>228</ele>
        <time>2022-05-17T06:40:29.798Z</time>
      </trkpt>
      <trkpt lat="45.69061" lon="5.71245">
        <ele>229</ele>
        <time>2022-05-17T06:40:30.798Z</time>
      </trkpt>
      <trkpt lat="45.69067" lon="5.71249">
        <ele>230</ele>
        <time>2022-05-17T06:40:31.798Z</time>
      </trkpt>
      <trkpt lat="45.69075" lon="5.71254">
        <ele>230</ele>
        <time>2022-05-17T06:40:32.798Z</time>
      </trkpt>
      <trkpt lat="45.69082" lon="5.71259">
        <ele>230</ele>
        <time>2022-05-17T06:40:33.798Z</time>
      </trkpt>
      <trkpt lat="45.69089" lon="5.71265">
        <ele>230</ele>
        <time>2022-05-17T06:40:34.798Z</time>
      </trkpt>
      <trkpt lat="45.69097" lon="5.7127">
        <ele>229</ele>
        <time>2022-05-17T06:40:35.798Z</time>
      </trkpt>
      <trkpt lat="45.69104" lon="5.71275">
        <ele>229</ele>
        <time>2022-05-17T06:40:36.798Z</time>
      </trkpt>
      <trkpt lat="45.69112" lon="5.7128">
        <ele>229</ele>
        <time>2022-05-17T06:40:37.798Z</time>
      </trkpt>
      <trkpt lat="45.69119" lon="5.71285">
        <ele>228</ele>
        <time>2022-05-17T06:40:38.798Z</time>
      </trkpt>
      <trkpt lat="45.69126" lon="5.7129">
        <ele>228</ele>
        <time>2022-05-17T06:40:39.798Z</time>
      </trkpt>
      <trkpt lat="45.69133" lon="5.71296">
        <ele>228</ele>
        <time>2022-05-17T06:40:40.798Z</time>
      </trkpt>
      <trkpt lat="45.6914" lon="5.71302">
        <ele>228</ele>
        <time>2022-05-17T06:40:41.798Z</time>
      </trkpt>
      <trkpt lat="45.69147" lon="5.71308">
        <ele>228</ele>
        <time>2022-05-17T06:40:42.797Z</time>
      </trkpt>
      <trkpt lat="45.69155" lon="5.71315">
        <ele>228</ele>
        <time>2022-05-17T06:40:43.798Z</time>
      </trkpt>
      <trkpt lat="45.69162" lon="5.71321">
        <ele>228</ele>
        <time>2022-05-17T06:40:44.798Z</time>
      </trkpt>
      <trkpt lat="45.69168" lon="5.71328">
        <ele>228</ele>
        <time>2022-05-17T06:40:45.798Z</time>
      </trkpt>
      <trkpt lat="45.69174" lon="5.71334">
        <ele>227</ele>
        <time>2022-05-17T06:40:46.798Z</time>
      </trkpt>
      <trkpt lat="45.69181" lon="5.7134">
        <ele>227</ele>
        <time>2022-05-17T06:40:47.798Z</time>
      </trkpt>
      <trkpt lat="45.69187" lon="5.71346">
        <ele>227</ele>
        <time>2022-05-17T06:40:48.797Z</time>
      </trkpt>
      <trkpt lat="45.69193" lon="5.71352">
        <ele>226</ele>
        <time>2022-05-17T06:40:49.798Z</time>
      </trkpt>
      <trkpt lat="45.69199" lon="5.71358">
        <ele>225</ele>
        <time>2022-05-17T06:40:50.797Z</time>
      </trkpt>
      <trkpt lat="45.69205" lon="5.71364">
        <ele>225</ele>
        <time>2022-05-17T06:40:51.798Z</time>
      </trkpt>
      <trkpt lat="45.6921" lon="5.71368">
        <ele>225</ele>
        <time>2022-05-17T06:40:52.798Z</time>
      </trkpt>
      <trkpt lat="45.69217" lon="5.71373">
        <ele>225</ele>
        <time>2022-05-17T06:40:53.798Z</time>
      </trkpt>
      <trkpt lat="45.69225" lon="5.7138">
        <ele>225</ele>
        <time>2022-05-17T06:40:54.798Z</time>
      </trkpt>
      <trkpt lat="45.69231" lon="5.71385">
        <ele>225</ele>
        <time>2022-05-17T06:40:55.798Z</time>
      </trkpt>
      <trkpt lat="45.69238" lon="5.71391">
        <ele>226</ele>
        <time>2022-05-17T06:40:56.798Z</time>
      </trkpt>
      <trkpt lat="45.69243" lon="5.71396">
        <ele>226</ele>
        <time>2022-05-17T06:40:57.798Z</time>
      </trkpt>
      <trkpt lat="45.69251" lon="5.71403">
        <ele>226</ele>
        <time>2022-05-17T06:40:58.797Z</time>
      </trkpt>
      <trkpt lat="45.69258" lon="5.71409">
        <ele>226</ele>
        <time>2022-05-17T06:40:59.797Z</time>
      </trkpt>
      <trkpt lat="45.69264" lon="5.71415">
        <ele>226</ele>
        <time>2022-05-17T06:41:00.797Z</time>
      </trkpt>
      <trkpt lat="45.69271" lon="5.71421">
        <ele>226</ele>
        <time>2022-05-17T06:41:01.798Z</time>
      </trkpt>
      <trkpt lat="45.69278" lon="5.71427">
        <ele>226</ele>
        <time>2022-05-17T06:41:02.798Z</time>
      </trkpt>
      <trkpt lat="45.69285" lon="5.71432">
        <ele>226</ele>
        <time>2022-05-17T06:41:03.798Z</time>
      </trkpt>
      <trkpt lat="45.69293" lon="5.71438">
        <ele>226</ele>
        <time>2022-05-17T06:41:04.798Z</time>
      </trkpt>
      <trkpt lat="45.693" lon="5.71444">
        <ele>226</ele>
        <time>2022-05-17T06:41:05.797Z</time>
      </trkpt>
      <trkpt lat="45.69306" lon="5.7145">
        <ele>226</ele>
        <time>2022-05-17T06:41:06.798Z</time>
      </trkpt>
      <trkpt lat="45.69313" lon="5.71455">
        <ele>225</ele>
        <time>2022-05-17T06:41:07.798Z</time>
      </trkpt>
      <trkpt lat="45.6932" lon="5.71461">
        <ele>225</ele>
        <time>2022-05-17T06:41:08.798Z</time>
      </trkpt>
      <trkpt lat="45.69327" lon="5.71467">
        <ele>225</ele>
        <time>2022-05-17T06:41:09.798Z</time>
      </trkpt>
      <trkpt lat="45.69332" lon="5.71472">
        <ele>225</ele>
        <time>2022-05-17T06:41:10.798Z</time>
      </trkpt>
      <trkpt lat="45.69339" lon="5.71477">
        <ele>225</ele>
        <time>2022-05-17T06:41:11.798Z</time>
      </trkpt>
      <trkpt lat="45.69346" lon="5.71483">
        <ele>225</ele>
        <time>2022-05-17T06:41:12.798Z</time>
      </trkpt>
      <trkpt lat="45.69353" lon="5.71489">
        <ele>225</ele>
        <time>2022-05-17T06:41:13.798Z</time>
      </trkpt>
      <trkpt lat="45.69361" lon="5.71494">
        <ele>225</ele>
        <time>2022-05-17T06:41:14.798Z</time>
      </trkpt>
      <trkpt lat="45.69368" lon="5.715">
        <ele>225</ele>
        <time>2022-05-17T06:41:15.798Z</time>
      </trkpt>
      <trkpt lat="45.69377" lon="5.71506">
        <ele>225</ele>
        <time>2022-05-17T06:41:16.798Z</time>
      </trkpt>
      <trkpt lat="45.69385" lon="5.71511">
        <ele>225</ele>
        <time>2022-05-17T06:41:17.798Z</time>
      </trkpt>
      <trkpt lat="45.69391" lon="5.71516">
        <ele>225</ele>
        <time>2022-05-17T06:41:18.797Z</time>
      </trkpt>
      <trkpt lat="45.69401" lon="5.71522">
        <ele>226</ele>
        <time>2022-05-17T06:41:19.797Z</time>
      </trkpt>
      <trkpt lat="45.69407" lon="5.71526">
        <ele>226</ele>
        <time>2022-05-17T06:41:20.798Z</time>
      </trkpt>
      <trkpt lat="45.69417" lon="5.71532">
        <ele>227</ele>
        <time>2022-05-17T06:41:21.798Z</time>
      </trkpt>
      <trkpt lat="45.69425" lon="5.71537">
        <ele>227</ele>
        <time>2022-05-17T06:41:22.798Z</time>
      </trkpt>
      <trkpt lat="45.69432" lon="5.71541">
        <ele>227</ele>
        <time>2022-05-17T06:41:23.798Z</time>
      </trkpt>
      <trkpt lat="45.6944" lon="5.71546">
        <ele>227</ele>
        <time>2022-05-17T06:41:24.798Z</time>
      </trkpt>
      <trkpt lat="45.69449" lon="5.71552">
        <ele>227</ele>
        <time>2022-05-17T06:41:25.798Z</time>
      </trkpt>
      <trkpt lat="45.69455" lon="5.71556">
        <ele>226</ele>
        <time>2022-05-17T06:41:26.798Z</time>
      </trkpt>
      <trkpt lat="45.69463" lon="5.71561">
        <ele>226</ele>
        <time>2022-05-17T06:41:27.797Z</time>
      </trkpt>
      <trkpt lat="45.69471" lon="5.71566">
        <ele>226</ele>
        <time>2022-05-17T06:41:28.798Z</time>
      </trkpt>
      <trkpt lat="45.69481" lon="5.71573">
        <ele>226</ele>
        <time>2022-05-17T06:41:29.798Z</time>
      </trkpt>
      <trkpt lat="45.69488" lon="5.71579">
        <ele>225</ele>
        <time>2022-05-17T06:41:30.798Z</time>
      </trkpt>
      <trkpt lat="45.69496" lon="5.71585">
        <ele>225</ele>
        <time>2022-05-17T06:41:31.798Z</time>
      </trkpt>
      <trkpt lat="45.69501" lon="5.71591">
        <ele>224</ele>
        <time>2022-05-17T06:41:32.797Z</time>
      </trkpt>
      <trkpt lat="45.69509" lon="5.71598">
        <ele>223</ele>
        <time>2022-05-17T06:41:33.797Z</time>
      </trkpt>
      <trkpt lat="45.69516" lon="5.71604">
        <ele>223</ele>
        <time>2022-05-17T06:41:34.798Z</time>
      </trkpt>
      <trkpt lat="45.69523" lon="5.71611">
        <ele>222</ele>
        <time>2022-05-17T06:41:35.798Z</time>
      </trkpt>
      <trkpt lat="45.6953" lon="5.71617">
        <ele>222</ele>
        <time>2022-05-17T06:41:36.798Z</time>
      </trkpt>
      <trkpt lat="45.69537" lon="5.71624">
        <ele>222</ele>
        <time>2022-05-17T06:41:37.798Z</time>
      </trkpt>
      <trkpt lat="45.69544" lon="5.7163">
        <ele>222</ele>
        <time>2022-05-17T06:41:38.798Z</time>
      </trkpt>
      <trkpt lat="45.69552" lon="5.71636">
        <ele>222</ele>
        <time>2022-05-17T06:41:39.798Z</time>
      </trkpt>
      <trkpt lat="45.69559" lon="5.71642">
        <ele>222</ele>
        <time>2022-05-17T06:41:40.798Z</time>
      </trkpt>
      <trkpt lat="45.69566" lon="5.71648">
        <ele>222</ele>
        <time>2022-05-17T06:41:41.798Z</time>
      </trkpt>
      <trkpt lat="45.69575" lon="5.71655">
        <ele>222</ele>
        <time>2022-05-17T06:41:42.798Z</time>
      </trkpt>
      <trkpt lat="45.69582" lon="5.7166">
        <ele>223</ele>
        <time>2022-05-17T06:41:43.798Z</time>
      </trkpt>
      <trkpt lat="45.69589" lon="5.71666">
        <ele>222</ele>
        <time>2022-05-17T06:41:44.797Z</time>
      </trkpt>
      <trkpt lat="45.69596" lon="5.71671">
        <ele>222</ele>
        <time>2022-05-17T06:41:45.798Z</time>
      </trkpt>
      <trkpt lat="45.69604" lon="5.71676">
        <ele>222</ele>
        <time>2022-05-17T06:41:46.798Z</time>
      </trkpt>
      <trkpt lat="45.69611" lon="5.7168">
        <ele>222</ele>
        <time>2022-05-17T06:41:47.798Z</time>
      </trkpt>
      <trkpt lat="45.69617" lon="5.71684">
        <ele>223</ele>
        <time>2022-05-17T06:41:48.798Z</time>
      </trkpt>
      <trkpt lat="45.69626" lon="5.71689">
        <ele>223</ele>
        <time>2022-05-17T06:41:49.798Z</time>
      </trkpt>
      <trkpt lat="45.69634" lon="5.71694">
        <ele>223</ele>
        <time>2022-05-17T06:41:50.797Z</time>
      </trkpt>
      <trkpt lat="45.69641" lon="5.71698">
        <ele>224</ele>
        <time>2022-05-17T06:41:51.798Z</time>
      </trkpt>
      <trkpt lat="45.69648" lon="5.71702">
        <ele>224</ele>
        <time>2022-05-17T06:41:52.798Z</time>
      </trkpt>
      <trkpt lat="45.69657" lon="5.71707">
        <ele>224</ele>
        <time>2022-05-17T06:41:53.797Z</time>
      </trkpt>
      <trkpt lat="45.69664" lon="5.71712">
        <ele>224</ele>
        <time>2022-05-17T06:41:54.798Z</time>
      </trkpt>
      <trkpt lat="45.69672" lon="5.71717">
        <ele>224</ele>
        <time>2022-05-17T06:41:55.798Z</time>
      </trkpt>
      <trkpt lat="45.6968" lon="5.71721">
        <ele>224</ele>
        <time>2022-05-17T06:41:56.798Z</time>
      </trkpt>
      <trkpt lat="45.69688" lon="5.71725">
        <ele>224</ele>
        <time>2022-05-17T06:41:57.798Z</time>
      </trkpt>
      <trkpt lat="45.69696" lon="5.7173">
        <ele>224</ele>
        <time>2022-05-17T06:41:58.798Z</time>
      </trkpt>
      <trkpt lat="45.69703" lon="5.71733">
        <ele>224</ele>
        <time>2022-05-17T06:41:59.798Z</time>
      </trkpt>
      <trkpt lat="45.69711" lon="5.71737">
        <ele>224</ele>
        <time>2022-05-17T06:42:00.797Z</time>
      </trkpt>
      <trkpt lat="45.69719" lon="5.71741">
        <ele>224</ele>
        <time>2022-05-17T06:42:01.798Z</time>
      </trkpt>
      <trkpt lat="45.69727" lon="5.71745">
        <ele>224</ele>
        <time>2022-05-17T06:42:02.798Z</time>
      </trkpt>
      <trkpt lat="45.69735" lon="5.71748">
        <ele>223</ele>
        <time>2022-05-17T06:42:03.798Z</time>
      </trkpt>
      <trkpt lat="45.69743" lon="5.71752">
        <ele>223</ele>
        <time>2022-05-17T06:42:04.797Z</time>
      </trkpt>
      <trkpt lat="45.69752" lon="5.71755">
        <ele>223</ele>
        <time>2022-05-17T06:42:05.797Z</time>
      </trkpt>
      <trkpt lat="45.6976" lon="5.71758">
        <ele>223</ele>
        <time>2022-05-17T06:42:06.798Z</time>
      </trkpt>
      <trkpt lat="45.69768" lon="5.71761">
        <ele>224</ele>
        <time>2022-05-17T06:42:07.798Z</time>
      </trkpt>
      <trkpt lat="45.69777" lon="5.71764">
        <ele>224</ele>
        <time>2022-05-17T06:42:08.797Z</time>
      </trkpt>
      <trkpt lat="45.69785" lon="5.71767">
        <ele>224</ele>
        <time>2022-05-17T06:42:09.798Z</time>
      </trkpt>
      <trkpt lat="45.69793" lon="5.71769">
        <ele>225</ele>
        <time>2022-05-17T06:42:10.797Z</time>
      </trkpt>
      <trkpt lat="45.69802" lon="5.71771">
        <ele>225</ele>
        <time>2022-05-17T06:42:11.798Z</time>
      </trkpt>
      <trkpt lat="45.6981" lon="5.71773">
        <ele>225</ele>
        <time>2022-05-17T06:42:12.797Z</time>
      </trkpt>
      <trkpt lat="45.69818" lon="5.71774">
        <ele>225</ele>
        <time>2022-05-17T06:42:13.798Z</time>
      </trkpt>
      <trkpt lat="45.69825" lon="5.71775">
        <ele>225</ele>
        <time>2022-05-17T06:42:14.798Z</time>
      </trkpt>
      <trkpt lat="45.69833" lon="5.71777">
        <ele>224</ele>
        <time>2022-05-17T06:42:15.798Z</time>
      </trkpt>
      <trkpt lat="45.69842" lon="5.71779">
        <ele>223</ele>
        <time>2022-05-17T06:42:16.798Z</time>
      </trkpt>
      <trkpt lat="45.6985" lon="5.7178">
        <ele>222</ele>
        <time>2022-05-17T06:42:17.798Z</time>
      </trkpt>
      <trkpt lat="45.69859" lon="5.71781">
        <ele>222</ele>
        <time>2022-05-17T06:42:18.798Z</time>
      </trkpt>
      <trkpt lat="45.69867" lon="5.71782">
        <ele>222</ele>
        <time>2022-05-17T06:42:19.797Z</time>
      </trkpt>
      <trkpt lat="45.69876" lon="5.71784">
        <ele>222</ele>
        <time>2022-05-17T06:42:20.798Z</time>
      </trkpt>
      <trkpt lat="45.69884" lon="5.71785">
        <ele>221</ele>
        <time>2022-05-17T06:42:21.798Z</time>
      </trkpt>
      <trkpt lat="45.69892" lon="5.71786">
        <ele>221</ele>
        <time>2022-05-17T06:42:22.798Z</time>
      </trkpt>
      <trkpt lat="45.69901" lon="5.71788">
        <ele>221</ele>
        <time>2022-05-17T06:42:23.797Z</time>
      </trkpt>
      <trkpt lat="45.6991" lon="5.71789">
        <ele>221</ele>
        <time>2022-05-17T06:42:24.798Z</time>
      </trkpt>
      <trkpt lat="45.69918" lon="5.7179">
        <ele>222</ele>
        <time>2022-05-17T06:42:25.798Z</time>
      </trkpt>
      <trkpt lat="45.69927" lon="5.71791">
        <ele>222</ele>
        <time>2022-05-17T06:42:26.798Z</time>
      </trkpt>
      <trkpt lat="45.69936" lon="5.71791">
        <ele>222</ele>
        <time>2022-05-17T06:42:27.797Z</time>
      </trkpt>
      <trkpt lat="45.69944" lon="5.71791">
        <ele>222</ele>
        <time>2022-05-17T06:42:28.798Z</time>
      </trkpt>
      <trkpt lat="45.69953" lon="5.71791">
        <ele>222</ele>
        <time>2022-05-17T06:42:29.797Z</time>
      </trkpt>
      <trkpt lat="45.69962" lon="5.71791">
        <ele>223</ele>
        <time>2022-05-17T06:42:30.798Z</time>
      </trkpt>
      <trkpt lat="45.69971" lon="5.7179">
        <ele>223</ele>
        <time>2022-05-17T06:42:31.798Z</time>
      </trkpt>
      <trkpt lat="45.69981" lon="5.7179">
        <ele>224</ele>
        <time>2022-05-17T06:42:32.797Z</time>
      </trkpt>
      <trkpt lat="45.6999" lon="5.7179">
        <ele>224</ele>
        <time>2022-05-17T06:42:33.798Z</time>
      </trkpt>
      <trkpt lat="45.69999" lon="5.7179">
        <ele>224</ele>
        <time>2022-05-17T06:42:34.798Z</time>
      </trkpt>
      <trkpt lat="45.70007" lon="5.7179">
        <ele>224</ele>
        <time>2022-05-17T06:42:35.798Z</time>
      </trkpt>
      <trkpt lat="45.70016" lon="5.7179">
        <ele>224</ele>
        <time>2022-05-17T06:42:36.798Z</time>
      </trkpt>
      <trkpt lat="45.70025" lon="5.7179">
        <ele>224</ele>
        <time>2022-05-17T06:42:37.797Z</time>
      </trkpt>
      <trkpt lat="45.70034" lon="5.7179">
        <ele>224</ele>
        <time>2022-05-17T06:42:38.797Z</time>
      </trkpt>
      <trkpt lat="45.70041" lon="5.7179">
        <ele>224</ele>
        <time>2022-05-17T06:42:39.798Z</time>
      </trkpt>
      <trkpt lat="45.7005" lon="5.7179">
        <ele>223</ele>
        <time>2022-05-17T06:42:40.798Z</time>
      </trkpt>
      <trkpt lat="45.70061" lon="5.71791">
        <ele>223</ele>
        <time>2022-05-17T06:42:41.797Z</time>
      </trkpt>
      <trkpt lat="45.70069" lon="5.71791">
        <ele>222</ele>
        <time>2022-05-17T06:42:42.797Z</time>
      </trkpt>
      <trkpt lat="45.70076" lon="5.71792">
        <ele>222</ele>
        <time>2022-05-17T06:42:43.798Z</time>
      </trkpt>
      <trkpt lat="45.70085" lon="5.71794">
        <ele>222</ele>
        <time>2022-05-17T06:42:44.797Z</time>
      </trkpt>
      <trkpt lat="45.70095" lon="5.71796">
        <ele>222</ele>
        <time>2022-05-17T06:42:45.798Z</time>
      </trkpt>
      <trkpt lat="45.70104" lon="5.71798">
        <ele>222</ele>
        <time>2022-05-17T06:42:46.798Z</time>
      </trkpt>
      <trkpt lat="45.70112" lon="5.718">
        <ele>223</ele>
        <time>2022-05-17T06:42:47.798Z</time>
      </trkpt>
      <trkpt lat="45.70119" lon="5.71802">
        <ele>223</ele>
        <time>2022-05-17T06:42:48.797Z</time>
      </trkpt>
      <trkpt lat="45.70127" lon="5.71804">
        <ele>224</ele>
        <time>2022-05-17T06:42:49.798Z</time>
      </trkpt>
      <trkpt lat="45.70137" lon="5.71807">
        <ele>224</ele>
        <time>2022-05-17T06:42:50.798Z</time>
      </trkpt>
      <trkpt lat="45.70145" lon="5.71809">
        <ele>224</ele>
        <time>2022-05-17T06:42:51.798Z</time>
      </trkpt>
      <trkpt lat="45.70153" lon="5.71812">
        <ele>224</ele>
        <time>2022-05-17T06:42:52.797Z</time>
      </trkpt>
      <trkpt lat="45.7016" lon="5.71814">
        <ele>225</ele>
        <time>2022-05-17T06:42:53.797Z</time>
      </trkpt>
      <trkpt lat="45.70169" lon="5.71817">
        <ele>225</ele>
        <time>2022-05-17T06:42:54.798Z</time>
      </trkpt>
      <trkpt lat="45.70178" lon="5.71819">
        <ele>224</ele>
        <time>2022-05-17T06:42:55.798Z</time>
      </trkpt>
      <trkpt lat="45.70186" lon="5.71821">
        <ele>224</ele>
        <time>2022-05-17T06:42:56.798Z</time>
      </trkpt>
      <trkpt lat="45.70193" lon="5.71823">
        <ele>224</ele>
        <time>2022-05-17T06:42:57.798Z</time>
      </trkpt>
      <trkpt lat="45.70201" lon="5.71826">
        <ele>224</ele>
        <time>2022-05-17T06:42:58.797Z</time>
      </trkpt>
      <trkpt lat="45.70209" lon="5.71828">
        <ele>224</ele>
        <time>2022-05-17T06:42:59.797Z</time>
      </trkpt>
      <trkpt lat="45.70219" lon="5.71831">
        <ele>224</ele>
        <time>2022-05-17T06:43:00.798Z</time>
      </trkpt>
      <trkpt lat="45.70227" lon="5.71834">
        <ele>224</ele>
        <time>2022-05-17T06:43:01.798Z</time>
      </trkpt>
      <trkpt lat="45.70234" lon="5.71836">
        <ele>224</ele>
        <time>2022-05-17T06:43:02.798Z</time>
      </trkpt>
      <trkpt lat="45.70242" lon="5.71838">
        <ele>223</ele>
        <time>2022-05-17T06:43:03.798Z</time>
      </trkpt>
      <trkpt lat="45.70252" lon="5.71841">
        <ele>222</ele>
        <time>2022-05-17T06:43:04.798Z</time>
      </trkpt>
      <trkpt lat="45.70261" lon="5.71844">
        <ele>222</ele>
        <time>2022-05-17T06:43:05.798Z</time>
      </trkpt>
      <trkpt lat="45.7027" lon="5.71846">
        <ele>222</ele>
        <time>2022-05-17T06:43:06.798Z</time>
      </trkpt>
      <trkpt lat="45.70276" lon="5.71848">
        <ele>222</ele>
        <time>2022-05-17T06:43:07.798Z</time>
      </trkpt>
      <trkpt lat="45.70286" lon="5.71851">
        <ele>222</ele>
        <time>2022-05-17T06:43:08.798Z</time>
      </trkpt>
      <trkpt lat="45.70295" lon="5.71853">
        <ele>222</ele>
        <time>2022-05-17T06:43:09.798Z</time>
      </trkpt>
      <trkpt lat="45.70303" lon="5.71856">
        <ele>222</ele>
        <time>2022-05-17T06:43:10.797Z</time>
      </trkpt>
      <trkpt lat="45.7031" lon="5.71858">
        <ele>223</ele>
        <time>2022-05-17T06:43:11.798Z</time>
      </trkpt>
      <trkpt lat="45.70318" lon="5.7186">
        <ele>223</ele>
        <time>2022-05-17T06:43:12.798Z</time>
      </trkpt>
      <trkpt lat="45.70327" lon="5.71863">
        <ele>222</ele>
        <time>2022-05-17T06:43:13.798Z</time>
      </trkpt>
      <trkpt lat="45.70337" lon="5.71866">
        <ele>222</ele>
        <time>2022-05-17T06:43:14.798Z</time>
      </trkpt>
      <trkpt lat="45.70345" lon="5.71869">
        <ele>222</ele>
        <time>2022-05-17T06:43:15.798Z</time>
      </trkpt>
      <trkpt lat="45.70351" lon="5.71872">
        <ele>222</ele>
        <time>2022-05-17T06:43:16.798Z</time>
      </trkpt>
      <trkpt lat="45.70361" lon="5.71875">
        <ele>222</ele>
        <time>2022-05-17T06:43:17.797Z</time>
      </trkpt>
      <trkpt lat="45.70368" lon="5.71878">
        <ele>223</ele>
        <time>2022-05-17T06:43:18.797Z</time>
      </trkpt>
      <trkpt lat="45.70376" lon="5.71881">
        <ele>223</ele>
        <time>2022-05-17T06:43:19.798Z</time>
      </trkpt>
      <trkpt lat="45.70386" lon="5.71885">
        <ele>223</ele>
        <time>2022-05-17T06:43:20.797Z</time>
      </trkpt>
      <trkpt lat="45.70394" lon="5.71888">
        <ele>224</ele>
        <time>2022-05-17T06:43:21.797Z</time>
      </trkpt>
      <trkpt lat="45.70402" lon="5.71891">
        <ele>224</ele>
        <time>2022-05-17T06:43:22.797Z</time>
      </trkpt>
      <trkpt lat="45.70411" lon="5.71894">
        <ele>224</ele>
        <time>2022-05-17T06:43:23.797Z</time>
      </trkpt>
      <trkpt lat="45.70419" lon="5.71897">
        <ele>224</ele>
        <time>2022-05-17T06:43:24.797Z</time>
      </trkpt>
      <trkpt lat="45.70426" lon="5.71899">
        <ele>224</ele>
        <time>2022-05-17T06:43:25.798Z</time>
      </trkpt>
      <trkpt lat="45.70436" lon="5.71903">
        <ele>224</ele>
        <time>2022-05-17T06:43:26.798Z</time>
      </trkpt>
      <trkpt lat="45.70444" lon="5.71905">
        <ele>224</ele>
        <time>2022-05-17T06:43:27.798Z</time>
      </trkpt>
      <trkpt lat="45.70452" lon="5.71908">
        <ele>225</ele>
        <time>2022-05-17T06:43:28.798Z</time>
      </trkpt>
      <trkpt lat="45.7046" lon="5.7191">
        <ele>225</ele>
        <time>2022-05-17T06:43:29.798Z</time>
      </trkpt>
      <trkpt lat="45.70468" lon="5.71912">
        <ele>225</ele>
        <time>2022-05-17T06:43:30.797Z</time>
      </trkpt>
      <trkpt lat="45.70476" lon="5.71914">
        <ele>225</ele>
        <time>2022-05-17T06:43:31.797Z</time>
      </trkpt>
      <trkpt lat="45.70482" lon="5.71915">
        <ele>226</ele>
        <time>2022-05-17T06:43:32.797Z</time>
      </trkpt>
      <trkpt lat="45.7049" lon="5.71917">
        <ele>226</ele>
        <time>2022-05-17T06:43:33.798Z</time>
      </trkpt>
      <trkpt lat="45.70498" lon="5.71917">
        <ele>226</ele>
        <time>2022-05-17T06:43:34.797Z</time>
      </trkpt>
      <trkpt lat="45.70508" lon="5.71917">
        <ele>226</ele>
        <time>2022-05-17T06:43:35.797Z</time>
      </trkpt>
      <trkpt lat="45.70516" lon="5.71916">
        <ele>226</ele>
        <time>2022-05-17T06:43:36.798Z</time>
      </trkpt>
      <trkpt lat="45.70524" lon="5.71915">
        <ele>226</ele>
        <time>2022-05-17T06:43:37.798Z</time>
      </trkpt>
      <trkpt lat="45.70532" lon="5.71914">
        <ele>226</ele>
        <time>2022-05-17T06:43:38.797Z</time>
      </trkpt>
      <trkpt lat="45.70538" lon="5.71913">
        <ele>226</ele>
        <time>2022-05-17T06:43:39.797Z</time>
      </trkpt>
      <trkpt lat="45.70546" lon="5.71911">
        <ele>227</ele>
        <time>2022-05-17T06:43:40.797Z</time>
      </trkpt>
      <trkpt lat="45.70555" lon="5.7191">
        <ele>227</ele>
        <time>2022-05-17T06:43:41.798Z</time>
      </trkpt>
      <trkpt lat="45.70563" lon="5.71908">
        <ele>227</ele>
        <time>2022-05-17T06:43:42.797Z</time>
      </trkpt>
      <trkpt lat="45.70571" lon="5.71906">
        <ele>227</ele>
        <time>2022-05-17T06:43:43.797Z</time>
      </trkpt>
      <trkpt lat="45.70577" lon="5.71905">
        <ele>226</ele>
        <time>2022-05-17T06:43:44.797Z</time>
      </trkpt>
      <trkpt lat="45.70586" lon="5.71903">
        <ele>226</ele>
        <time>2022-05-17T06:43:45.797Z</time>
      </trkpt>
      <trkpt lat="45.70593" lon="5.71902">
        <ele>226</ele>
        <time>2022-05-17T06:43:46.797Z</time>
      </trkpt>
      <trkpt lat="45.70601" lon="5.71901">
        <ele>226</ele>
        <time>2022-05-17T06:43:47.797Z</time>
      </trkpt>
      <trkpt lat="45.70608" lon="5.71901">
        <ele>226</ele>
        <time>2022-05-17T06:43:48.797Z</time>
      </trkpt>
      <trkpt lat="45.70616" lon="5.71903">
        <ele>225</ele>
        <time>2022-05-17T06:43:49.797Z</time>
      </trkpt>
      <trkpt lat="45.70624" lon="5.71906">
        <ele>225</ele>
        <time>2022-05-17T06:43:50.797Z</time>
      </trkpt>
      <trkpt lat="45.7063" lon="5.71909">
        <ele>225</ele>
        <time>2022-05-17T06:43:51.798Z</time>
      </trkpt>
      <trkpt lat="45.70637" lon="5.71914">
        <ele>225</ele>
        <time>2022-05-17T06:43:52.797Z</time>
      </trkpt>
      <trkpt lat="45.70641" lon="5.71917">
        <ele>225</ele>
        <time>2022-05-17T06:43:53.797Z</time>
      </trkpt>
      <trkpt lat="45.70647" lon="5.71922">
        <ele>225</ele>
        <time>2022-05-17T06:43:54.797Z</time>
      </trkpt>
      <trkpt lat="45.70653" lon="5.71928">
        <ele>225</ele>
        <time>2022-05-17T06:43:55.797Z</time>
      </trkpt>
      <trkpt lat="45.70659" lon="5.71933">
        <ele>225</ele>
        <time>2022-05-17T06:43:56.798Z</time>
      </trkpt>
      <trkpt lat="45.70664" lon="5.71938">
        <ele>224</ele>
        <time>2022-05-17T06:43:57.798Z</time>
      </trkpt>
      <trkpt lat="45.7067" lon="5.71943">
        <ele>224</ele>
        <time>2022-05-17T06:43:58.797Z</time>
      </trkpt>
      <trkpt lat="45.70677" lon="5.71949">
        <ele>224</ele>
        <time>2022-05-17T06:43:59.797Z</time>
      </trkpt>
      <trkpt lat="45.70683" lon="5.71954">
        <ele>224</ele>
        <time>2022-05-17T06:44:00.797Z</time>
      </trkpt>
      <trkpt lat="45.70688" lon="5.71961">
        <ele>224</ele>
        <time>2022-05-17T06:44:01.798Z</time>
      </trkpt>
      <trkpt lat="45.70694" lon="5.71968">
        <ele>225</ele>
        <time>2022-05-17T06:44:02.797Z</time>
      </trkpt>
      <trkpt lat="45.707" lon="5.71973">
        <ele>225</ele>
        <time>2022-05-17T06:44:03.798Z</time>
      </trkpt>
      <trkpt lat="45.70705" lon="5.71978">
        <ele>225</ele>
        <time>2022-05-17T06:44:04.797Z</time>
      </trkpt>
      <trkpt lat="45.7071" lon="5.71983">
        <ele>225</ele>
        <time>2022-05-17T06:44:05.797Z</time>
      </trkpt>
      <trkpt lat="45.70715" lon="5.7199">
        <ele>225</ele>
        <time>2022-05-17T06:44:06.798Z</time>
      </trkpt>
      <trkpt lat="45.70717" lon="5.71995">
        <ele>225</ele>
        <time>2022-05-17T06:44:07.798Z</time>
      </trkpt>
      <trkpt lat="45.7072" lon="5.72001">
        <ele>225</ele>
        <time>2022-05-17T06:44:08.798Z</time>
      </trkpt>
      <trkpt lat="45.70723" lon="5.72008">
        <ele>224</ele>
        <time>2022-05-17T06:44:09.798Z</time>
      </trkpt>
      <trkpt lat="45.70725" lon="5.72016">
        <ele>224</ele>
        <time>2022-05-17T06:44:10.798Z</time>
      </trkpt>
      <trkpt lat="45.70727" lon="5.72024">
        <ele>224</ele>
        <time>2022-05-17T06:44:11.797Z</time>
      </trkpt>
      <trkpt lat="45.70729" lon="5.72032">
        <ele>224</ele>
        <time>2022-05-17T06:44:12.797Z</time>
      </trkpt>
      <trkpt lat="45.70731" lon="5.72041">
        <ele>224</ele>
        <time>2022-05-17T06:44:13.798Z</time>
      </trkpt>
      <trkpt lat="45.70732" lon="5.72049">
        <ele>224</ele>
        <time>2022-05-17T06:44:14.798Z</time>
      </trkpt>
      <trkpt lat="45.70733" lon="5.72058">
        <ele>223</ele>
        <time>2022-05-17T06:44:15.798Z</time>
      </trkpt>
      <trkpt lat="45.70734" lon="5.72068">
        <ele>223</ele>
        <time>2022-05-17T06:44:16.797Z</time>
      </trkpt>
      <trkpt lat="45.70737" lon="5.72077">
        <ele>223</ele>
        <time>2022-05-17T06:44:17.798Z</time>
      </trkpt>
      <trkpt lat="45.70739" lon="5.72087">
        <ele>223</ele>
        <time>2022-05-17T06:44:18.798Z</time>
      </trkpt>
      <trkpt lat="45.70742" lon="5.72098">
        <ele>223</ele>
        <time>2022-05-17T06:44:19.798Z</time>
      </trkpt>
      <trkpt lat="45.70745" lon="5.72109">
        <ele>223</ele>
        <time>2022-05-17T06:44:20.798Z</time>
      </trkpt>
      <trkpt lat="45.70747" lon="5.7212">
        <ele>224</ele>
        <time>2022-05-17T06:44:21.798Z</time>
      </trkpt>
      <trkpt lat="45.7075" lon="5.7213">
        <ele>224</ele>
        <time>2022-05-17T06:44:22.797Z</time>
      </trkpt>
      <trkpt lat="45.70753" lon="5.72141">
        <ele>224</ele>
        <time>2022-05-17T06:44:23.798Z</time>
      </trkpt>
      <trkpt lat="45.70755" lon="5.72151">
        <ele>225</ele>
        <time>2022-05-17T06:44:24.798Z</time>
      </trkpt>
      <trkpt lat="45.70757" lon="5.72162">
        <ele>225</ele>
        <time>2022-05-17T06:44:25.797Z</time>
      </trkpt>
      <trkpt lat="45.70758" lon="5.72173">
        <ele>225</ele>
        <time>2022-05-17T06:44:26.798Z</time>
      </trkpt>
      <trkpt lat="45.7076" lon="5.72184">
        <ele>225</ele>
        <time>2022-05-17T06:44:27.797Z</time>
      </trkpt>
      <trkpt lat="45.70762" lon="5.72195">
        <ele>226</ele>
        <time>2022-05-17T06:44:28.798Z</time>
      </trkpt>
      <trkpt lat="45.70763" lon="5.72206">
        <ele>226</ele>
        <time>2022-05-17T06:44:29.798Z</time>
      </trkpt>
      <trkpt lat="45.70764" lon="5.72218">
        <ele>227</ele>
        <time>2022-05-17T06:44:30.798Z</time>
      </trkpt>
      <trkpt lat="45.70765" lon="5.72228">
        <ele>227</ele>
        <time>2022-05-17T06:44:31.798Z</time>
      </trkpt>
      <trkpt lat="45.70765" lon="5.72239">
        <ele>227</ele>
        <time>2022-05-17T06:44:32.798Z</time>
      </trkpt>
      <trkpt lat="45.70766" lon="5.7225">
        <ele>227</ele>
        <time>2022-05-17T06:44:33.798Z</time>
      </trkpt>
      <trkpt lat="45.70767" lon="5.72261">
        <ele>228</ele>
        <time>2022-05-17T06:44:34.797Z</time>
      </trkpt>
      <trkpt lat="45.70768" lon="5.72271">
        <ele>228</ele>
        <time>2022-05-17T06:44:35.798Z</time>
      </trkpt>
      <trkpt lat="45.70769" lon="5.72282">
        <ele>228</ele>
        <time>2022-05-17T06:44:36.797Z</time>
      </trkpt>
      <trkpt lat="45.70771" lon="5.72292">
        <ele>228</ele>
        <time>2022-05-17T06:44:37.797Z</time>
      </trkpt>
      <trkpt lat="45.70773" lon="5.72302">
        <ele>229</ele>
        <time>2022-05-17T06:44:38.798Z</time>
      </trkpt>
      <trkpt lat="45.70775" lon="5.72313">
        <ele>229</ele>
        <time>2022-05-17T06:44:39.797Z</time>
      </trkpt>
      <trkpt lat="45.70777" lon="5.72323">
        <ele>229</ele>
        <time>2022-05-17T06:44:40.797Z</time>
      </trkpt>
      <trkpt lat="45.70778" lon="5.72334">
        <ele>229</ele>
        <time>2022-05-17T06:44:41.797Z</time>
      </trkpt>
      <trkpt lat="45.70781" lon="5.72346">
        <ele>230</ele>
        <time>2022-05-17T06:44:42.798Z</time>
      </trkpt>
      <trkpt lat="45.70783" lon="5.72356">
        <ele>230</ele>
        <time>2022-05-17T06:44:43.797Z</time>
      </trkpt>
      <trkpt lat="45.70785" lon="5.72366">
        <ele>231</ele>
        <time>2022-05-17T06:44:44.798Z</time>
      </trkpt>
      <trkpt lat="45.70787" lon="5.72377">
        <ele>231</ele>
        <time>2022-05-17T06:44:45.797Z</time>
      </trkpt>
      <trkpt lat="45.70791" lon="5.72386">
        <ele>231</ele>
        <time>2022-05-17T06:44:46.798Z</time>
      </trkpt>
      <trkpt lat="45.70795" lon="5.72397">
        <ele>232</ele>
        <time>2022-05-17T06:44:47.797Z</time>
      </trkpt>
      <trkpt lat="45.70798" lon="5.7241">
        <ele>232</ele>
        <time>2022-05-17T06:44:48.798Z</time>
      </trkpt>
      <trkpt lat="45.70802" lon="5.72418">
        <ele>232</ele>
        <time>2022-05-17T06:44:49.798Z</time>
      </trkpt>
      <trkpt lat="45.70808" lon="5.72437">
        <ele>232</ele>
        <time>2022-05-17T06:44:51.798Z</time>
      </trkpt>
      <trkpt lat="45.70809" lon="5.72447">
        <ele>233</ele>
        <time>2022-05-17T06:44:52.798Z</time>
      </trkpt>
      <trkpt lat="45.7081" lon="5.72456">
        <ele>233</ele>
        <time>2022-05-17T06:44:53.798Z</time>
      </trkpt>
      <trkpt lat="45.70812" lon="5.72465">
        <ele>233</ele>
        <time>2022-05-17T06:44:54.798Z</time>
      </trkpt>
      <trkpt lat="45.70815" lon="5.72474">
        <ele>233</ele>
        <time>2022-05-17T06:44:55.798Z</time>
      </trkpt>
      <trkpt lat="45.70817" lon="5.72483">
        <ele>233</ele>
        <time>2022-05-17T06:44:56.798Z</time>
      </trkpt>
      <trkpt lat="45.7082" lon="5.72491">
        <ele>233</ele>
        <time>2022-05-17T06:44:57.797Z</time>
      </trkpt>
      <trkpt lat="45.70823" lon="5.72499">
        <ele>233</ele>
        <time>2022-05-17T06:44:58.797Z</time>
      </trkpt>
      <trkpt lat="45.70825" lon="5.72507">
        <ele>233</ele>
        <time>2022-05-17T06:44:59.797Z</time>
      </trkpt>
      <trkpt lat="45.70828" lon="5.72515">
        <ele>233</ele>
        <time>2022-05-17T06:45:00.798Z</time>
      </trkpt>
      <trkpt lat="45.7083" lon="5.72523">
        <ele>233</ele>
        <time>2022-05-17T06:45:01.798Z</time>
      </trkpt>
      <trkpt lat="45.70833" lon="5.7253">
        <ele>233</ele>
        <time>2022-05-17T06:45:02.798Z</time>
      </trkpt>
      <trkpt lat="45.70836" lon="5.72538">
        <ele>233</ele>
        <time>2022-05-17T06:45:03.798Z</time>
      </trkpt>
      <trkpt lat="45.70838" lon="5.72546">
        <ele>233</ele>
        <time>2022-05-17T06:45:04.798Z</time>
      </trkpt>
      <trkpt lat="45.70841" lon="5.72553">
        <ele>233</ele>
        <time>2022-05-17T06:45:05.797Z</time>
      </trkpt>
      <trkpt lat="45.70843" lon="5.72561">
        <ele>234</ele>
        <time>2022-05-17T06:45:06.798Z</time>
      </trkpt>
      <trkpt lat="45.70846" lon="5.7257">
        <ele>234</ele>
        <time>2022-05-17T06:45:07.798Z</time>
      </trkpt>
      <trkpt lat="45.70847" lon="5.72578">
        <ele>234</ele>
        <time>2022-05-17T06:45:08.798Z</time>
      </trkpt>
      <trkpt lat="45.70847" lon="5.72587">
        <ele>234</ele>
        <time>2022-05-17T06:45:09.798Z</time>
      </trkpt>
      <trkpt lat="45.70847" lon="5.72595">
        <ele>234</ele>
        <time>2022-05-17T06:45:10.797Z</time>
      </trkpt>
      <trkpt lat="45.70847" lon="5.72603">
        <ele>234</ele>
        <time>2022-05-17T06:45:11.798Z</time>
      </trkpt>
      <trkpt lat="45.70846" lon="5.72611">
        <ele>234</ele>
        <time>2022-05-17T06:45:12.797Z</time>
      </trkpt>
      <trkpt lat="45.70846" lon="5.72619">
        <ele>234</ele>
        <time>2022-05-17T06:45:13.797Z</time>
      </trkpt>
      <trkpt lat="45.70846" lon="5.72627">
        <ele>234</ele>
        <time>2022-05-17T06:45:14.798Z</time>
      </trkpt>
      <trkpt lat="45.70847" lon="5.72635">
        <ele>234</ele>
        <time>2022-05-17T06:45:15.798Z</time>
      </trkpt>
      <trkpt lat="45.70847" lon="5.72643">
        <ele>234</ele>
        <time>2022-05-17T06:45:16.798Z</time>
      </trkpt>
      <trkpt lat="45.70847" lon="5.72651">
        <ele>234</ele>
        <time>2022-05-17T06:45:17.798Z</time>
      </trkpt>
      <trkpt lat="45.70846" lon="5.72659">
        <ele>234</ele>
        <time>2022-05-17T06:45:18.798Z</time>
      </trkpt>
      <trkpt lat="45.70846" lon="5.72667">
        <ele>234</ele>
        <time>2022-05-17T06:45:19.798Z</time>
      </trkpt>
      <trkpt lat="45.70847" lon="5.72675">
        <ele>234</ele>
        <time>2022-05-17T06:45:20.798Z</time>
      </trkpt>
      <trkpt lat="45.70848" lon="5.72683">
        <ele>234</ele>
        <time>2022-05-17T06:45:21.797Z</time>
      </trkpt>
      <trkpt lat="45.70849" lon="5.72691">
        <ele>234</ele>
        <time>2022-05-17T06:45:22.798Z</time>
      </trkpt>
      <trkpt lat="45.7085" lon="5.72698">
        <ele>234</ele>
        <time>2022-05-17T06:45:23.798Z</time>
      </trkpt>
      <trkpt lat="45.70851" lon="5.72705">
        <ele>235</ele>
        <time>2022-05-17T06:45:24.798Z</time>
      </trkpt>
      <trkpt lat="45.70853" lon="5.72712">
        <ele>235</ele>
        <time>2022-05-17T06:45:25.798Z</time>
      </trkpt>
      <trkpt lat="45.70855" lon="5.72718">
        <ele>235</ele>
        <time>2022-05-17T06:45:26.798Z</time>
      </trkpt>
      <trkpt lat="45.70857" lon="5.72723">
        <ele>235</ele>
        <time>2022-05-17T06:45:27.798Z</time>
      </trkpt>
      <trkpt lat="45.70859" lon="5.72727">
        <ele>235</ele>
        <time>2022-05-17T06:45:28.797Z</time>
      </trkpt>
      <trkpt lat="45.7086" lon="5.7273">
        <ele>235</ele>
        <time>2022-05-17T06:45:29.798Z</time>
      </trkpt>
      <trkpt lat="45.70861" lon="5.72732">
        <ele>235</ele>
        <time>2022-05-17T06:45:30.797Z</time>
      </trkpt>
      <trkpt lat="45.70862" lon="5.72736">
        <ele>235</ele>
        <time>2022-05-17T06:45:31.798Z</time>
      </trkpt>
      <trkpt lat="45.70863" lon="5.7274">
        <ele>235</ele>
        <time>2022-05-17T06:45:32.798Z</time>
      </trkpt>
      <trkpt lat="45.70863" lon="5.72746">
        <ele>236</ele>
        <time>2022-05-17T06:45:33.798Z</time>
      </trkpt>
      <trkpt lat="45.70864" lon="5.72753">
        <ele>236</ele>
        <time>2022-05-17T06:45:34.798Z</time>
      </trkpt>
      <trkpt lat="45.70865" lon="5.72761">
        <ele>237</ele>
        <time>2022-05-17T06:45:35.797Z</time>
      </trkpt>
      <trkpt lat="45.70867" lon="5.7277">
        <ele>237</ele>
        <time>2022-05-17T06:45:36.798Z</time>
      </trkpt>
      <trkpt lat="45.7087" lon="5.72779">
        <ele>238</ele>
        <time>2022-05-17T06:45:37.798Z</time>
      </trkpt>
      <trkpt lat="45.70873" lon="5.72787">
        <ele>238</ele>
        <time>2022-05-17T06:45:38.798Z</time>
      </trkpt>
      <trkpt lat="45.70877" lon="5.72796">
        <ele>239</ele>
        <time>2022-05-17T06:45:39.798Z</time>
      </trkpt>
      <trkpt lat="45.70881" lon="5.72805">
        <ele>239</ele>
        <time>2022-05-17T06:45:40.798Z</time>
      </trkpt>
      <trkpt lat="45.70886" lon="5.72817">
        <ele>240</ele>
        <time>2022-05-17T06:45:41.798Z</time>
      </trkpt>
      <trkpt lat="45.70889" lon="5.72827">
        <ele>240</ele>
        <time>2022-05-17T06:45:42.798Z</time>
      </trkpt>
      <trkpt lat="45.70893" lon="5.72835">
        <ele>241</ele>
        <time>2022-05-17T06:45:43.798Z</time>
      </trkpt>
      <trkpt lat="45.70898" lon="5.72847">
        <ele>241</ele>
        <time>2022-05-17T06:45:44.798Z</time>
      </trkpt>
      <trkpt lat="45.709" lon="5.72856">
        <ele>242</ele>
        <time>2022-05-17T06:45:45.798Z</time>
      </trkpt>
      <trkpt lat="45.70904" lon="5.72867">
        <ele>242</ele>
        <time>2022-05-17T06:45:46.798Z</time>
      </trkpt>
      <trkpt lat="45.70907" lon="5.72879">
        <ele>243</ele>
        <time>2022-05-17T06:45:47.798Z</time>
      </trkpt>
      <trkpt lat="45.70911" lon="5.7289">
        <ele>243</ele>
        <time>2022-05-17T06:45:48.798Z</time>
      </trkpt>
      <trkpt lat="45.70915" lon="5.72902">
        <ele>243</ele>
        <time>2022-05-17T06:45:49.797Z</time>
      </trkpt>
      <trkpt lat="45.70918" lon="5.72914">
        <ele>243</ele>
        <time>2022-05-17T06:45:50.797Z</time>
      </trkpt>
      <trkpt lat="45.70922" lon="5.72927">
        <ele>243</ele>
        <time>2022-05-17T06:45:51.798Z</time>
      </trkpt>
      <trkpt lat="45.70925" lon="5.72939">
        <ele>243</ele>
        <time>2022-05-17T06:45:52.797Z</time>
      </trkpt>
      <trkpt lat="45.70928" lon="5.72952">
        <ele>243</ele>
        <time>2022-05-17T06:45:53.798Z</time>
      </trkpt>
      <trkpt lat="45.70932" lon="5.72965">
        <ele>242</ele>
        <time>2022-05-17T06:45:54.798Z</time>
      </trkpt>
      <trkpt lat="45.70935" lon="5.72979">
        <ele>242</ele>
        <time>2022-05-17T06:45:55.798Z</time>
      </trkpt>
      <trkpt lat="45.70938" lon="5.72995">
        <ele>242</ele>
        <time>2022-05-17T06:45:56.798Z</time>
      </trkpt>
      <trkpt lat="45.7094" lon="5.73006">
        <ele>241</ele>
        <time>2022-05-17T06:45:57.798Z</time>
      </trkpt>
      <trkpt lat="45.70942" lon="5.73019">
        <ele>241</ele>
        <time>2022-05-17T06:45:58.798Z</time>
      </trkpt>
      <trkpt lat="45.70944" lon="5.73033">
        <ele>241</ele>
        <time>2022-05-17T06:45:59.797Z</time>
      </trkpt>
      <trkpt lat="45.70945" lon="5.73047">
        <ele>240</ele>
        <time>2022-05-17T06:46:00.798Z</time>
      </trkpt>
      <trkpt lat="45.70945" lon="5.73061">
        <ele>240</ele>
        <time>2022-05-17T06:46:01.798Z</time>
      </trkpt>
      <trkpt lat="45.70945" lon="5.73074">
        <ele>240</ele>
        <time>2022-05-17T06:46:02.797Z</time>
      </trkpt>
      <trkpt lat="45.70945" lon="5.73088">
        <ele>240</ele>
        <time>2022-05-17T06:46:03.798Z</time>
      </trkpt>
      <trkpt lat="45.70944" lon="5.73101">
        <ele>239</ele>
        <time>2022-05-17T06:46:04.798Z</time>
      </trkpt>
      <trkpt lat="45.70943" lon="5.73113">
        <ele>239</ele>
        <time>2022-05-17T06:46:05.797Z</time>
      </trkpt>
      <trkpt lat="45.70941" lon="5.73126">
        <ele>239</ele>
        <time>2022-05-17T06:46:06.798Z</time>
      </trkpt>
      <trkpt lat="45.70937" lon="5.73137">
        <ele>238</ele>
        <time>2022-05-17T06:46:07.798Z</time>
      </trkpt>
      <trkpt lat="45.70933" lon="5.73148">
        <ele>238</ele>
        <time>2022-05-17T06:46:08.797Z</time>
      </trkpt>
      <trkpt lat="45.70928" lon="5.73158">
        <ele>238</ele>
        <time>2022-05-17T06:46:09.798Z</time>
      </trkpt>
      <trkpt lat="45.70923" lon="5.73169">
        <ele>238</ele>
        <time>2022-05-17T06:46:10.798Z</time>
      </trkpt>
      <trkpt lat="45.70919" lon="5.73179">
        <ele>238</ele>
        <time>2022-05-17T06:46:11.798Z</time>
      </trkpt>
      <trkpt lat="45.70914" lon="5.73189">
        <ele>238</ele>
        <time>2022-05-17T06:46:12.798Z</time>
      </trkpt>
      <trkpt lat="45.70909" lon="5.73199">
        <ele>238</ele>
        <time>2022-05-17T06:46:13.797Z</time>
      </trkpt>
      <trkpt lat="45.70905" lon="5.73209">
        <ele>238</ele>
        <time>2022-05-17T06:46:14.798Z</time>
      </trkpt>
      <trkpt lat="45.70901" lon="5.7322">
        <ele>238</ele>
        <time>2022-05-17T06:46:15.798Z</time>
      </trkpt>
      <trkpt lat="45.70898" lon="5.73231">
        <ele>237</ele>
        <time>2022-05-17T06:46:16.798Z</time>
      </trkpt>
      <trkpt lat="45.70895" lon="5.73241">
        <ele>237</ele>
        <time>2022-05-17T06:46:17.797Z</time>
      </trkpt>
      <trkpt lat="45.70893" lon="5.73252">
        <ele>236</ele>
        <time>2022-05-17T06:46:18.798Z</time>
      </trkpt>
      <trkpt lat="45.7089" lon="5.73262">
        <ele>236</ele>
        <time>2022-05-17T06:46:19.798Z</time>
      </trkpt>
      <trkpt lat="45.70888" lon="5.73273">
        <ele>236</ele>
        <time>2022-05-17T06:46:20.798Z</time>
      </trkpt>
      <trkpt lat="45.70884" lon="5.73284">
        <ele>236</ele>
        <time>2022-05-17T06:46:21.798Z</time>
      </trkpt>
      <trkpt lat="45.70881" lon="5.73294">
        <ele>236</ele>
        <time>2022-05-17T06:46:22.798Z</time>
      </trkpt>
      <trkpt lat="45.70878" lon="5.73305">
        <ele>236</ele>
        <time>2022-05-17T06:46:23.798Z</time>
      </trkpt>
      <trkpt lat="45.70875" lon="5.73319">
        <ele>236</ele>
        <time>2022-05-17T06:46:24.798Z</time>
      </trkpt>
      <trkpt lat="45.70873" lon="5.73328">
        <ele>236</ele>
        <time>2022-05-17T06:46:25.798Z</time>
      </trkpt>
      <trkpt lat="45.70871" lon="5.7334">
        <ele>235</ele>
        <time>2022-05-17T06:46:26.798Z</time>
      </trkpt>
      <trkpt lat="45.70868" lon="5.73355">
        <ele>235</ele>
        <time>2022-05-17T06:46:27.797Z</time>
      </trkpt>
      <trkpt lat="45.70864" lon="5.73367">
        <ele>235</ele>
        <time>2022-05-17T06:46:28.798Z</time>
      </trkpt>
      <trkpt lat="45.7086" lon="5.73376">
        <ele>235</ele>
        <time>2022-05-17T06:46:29.798Z</time>
      </trkpt>
      <trkpt lat="45.70853" lon="5.73388">
        <ele>235</ele>
        <time>2022-05-17T06:46:30.797Z</time>
      </trkpt>
      <trkpt lat="45.70846" lon="5.73397">
        <ele>235</ele>
        <time>2022-05-17T06:46:31.798Z</time>
      </trkpt>
      <trkpt lat="45.7084" lon="5.73404">
        <ele>235</ele>
        <time>2022-05-17T06:46:32.797Z</time>
      </trkpt>
      <trkpt lat="45.70832" lon="5.73417">
        <ele>235</ele>
        <time>2022-05-17T06:46:33.798Z</time>
      </trkpt>
      <trkpt lat="45.70827" lon="5.73425">
        <ele>235</ele>
        <time>2022-05-17T06:46:34.798Z</time>
      </trkpt>
      <trkpt lat="45.70821" lon="5.73435">
        <ele>235</ele>
        <time>2022-05-17T06:46:35.798Z</time>
      </trkpt>
      <trkpt lat="45.70813" lon="5.73446">
        <ele>235</ele>
        <time>2022-05-17T06:46:36.797Z</time>
      </trkpt>
      <trkpt lat="45.70806" lon="5.73455">
        <ele>235</ele>
        <time>2022-05-17T06:46:37.798Z</time>
      </trkpt>
      <trkpt lat="45.70801" lon="5.73462">
        <ele>235</ele>
        <time>2022-05-17T06:46:38.798Z</time>
      </trkpt>
      <trkpt lat="45.70794" lon="5.73471">
        <ele>235</ele>
        <time>2022-05-17T06:46:39.798Z</time>
      </trkpt>
      <trkpt lat="45.70788" lon="5.73479">
        <ele>235</ele>
        <time>2022-05-17T06:46:40.798Z</time>
      </trkpt>
      <trkpt lat="45.70781" lon="5.73487">
        <ele>236</ele>
        <time>2022-05-17T06:46:41.798Z</time>
      </trkpt>
      <trkpt lat="45.70775" lon="5.73496">
        <ele>236</ele>
        <time>2022-05-17T06:46:42.798Z</time>
      </trkpt>
      <trkpt lat="45.70768" lon="5.73504">
        <ele>236</ele>
        <time>2022-05-17T06:46:43.798Z</time>
      </trkpt>
      <trkpt lat="45.70762" lon="5.73514">
        <ele>236</ele>
        <time>2022-05-17T06:46:44.797Z</time>
      </trkpt>
      <trkpt lat="45.70755" lon="5.73525">
        <ele>236</ele>
        <time>2022-05-17T06:46:45.797Z</time>
      </trkpt>
      <trkpt lat="45.7075" lon="5.73531">
        <ele>237</ele>
        <time>2022-05-17T06:46:46.797Z</time>
      </trkpt>
      <trkpt lat="45.70744" lon="5.73538">
        <ele>237</ele>
        <time>2022-05-17T06:46:47.798Z</time>
      </trkpt>
      <trkpt lat="45.70739" lon="5.73549">
        <ele>237</ele>
        <time>2022-05-17T06:46:48.798Z</time>
      </trkpt>
      <trkpt lat="45.70733" lon="5.73557">
        <ele>237</ele>
        <time>2022-05-17T06:46:49.798Z</time>
      </trkpt>
      <trkpt lat="45.70727" lon="5.73566">
        <ele>237</ele>
        <time>2022-05-17T06:46:50.797Z</time>
      </trkpt>
      <trkpt lat="45.70721" lon="5.73575">
        <ele>237</ele>
        <time>2022-05-17T06:46:51.798Z</time>
      </trkpt>
      <trkpt lat="45.70715" lon="5.73585">
        <ele>238</ele>
        <time>2022-05-17T06:46:52.797Z</time>
      </trkpt>
      <trkpt lat="45.7071" lon="5.73594">
        <ele>238</ele>
        <time>2022-05-17T06:46:53.797Z</time>
      </trkpt>
      <trkpt lat="45.70704" lon="5.73604">
        <ele>238</ele>
        <time>2022-05-17T06:46:54.798Z</time>
      </trkpt>
      <trkpt lat="45.70699" lon="5.73614">
        <ele>238</ele>
        <time>2022-05-17T06:46:55.797Z</time>
      </trkpt>
      <trkpt lat="45.70694" lon="5.73624">
        <ele>237</ele>
        <time>2022-05-17T06:46:56.798Z</time>
      </trkpt>
      <trkpt lat="45.70689" lon="5.73634">
        <ele>237</ele>
        <time>2022-05-17T06:46:57.797Z</time>
      </trkpt>
      <trkpt lat="45.70683" lon="5.73643">
        <ele>237</ele>
        <time>2022-05-17T06:46:58.797Z</time>
      </trkpt>
      <trkpt lat="45.70677" lon="5.73653">
        <ele>237</ele>
        <time>2022-05-17T06:46:59.798Z</time>
      </trkpt>
      <trkpt lat="45.70672" lon="5.73663">
        <ele>237</ele>
        <time>2022-05-17T06:47:00.798Z</time>
      </trkpt>
      <trkpt lat="45.70667" lon="5.73672">
        <ele>236</ele>
        <time>2022-05-17T06:47:01.798Z</time>
      </trkpt>
      <trkpt lat="45.70662" lon="5.73682">
        <ele>236</ele>
        <time>2022-05-17T06:47:02.797Z</time>
      </trkpt>
      <trkpt lat="45.70656" lon="5.73691">
        <ele>236</ele>
        <time>2022-05-17T06:47:03.798Z</time>
      </trkpt>
      <trkpt lat="45.70651" lon="5.73701">
        <ele>236</ele>
        <time>2022-05-17T06:47:04.797Z</time>
      </trkpt>
      <trkpt lat="45.70645" lon="5.7371">
        <ele>236</ele>
        <time>2022-05-17T06:47:05.798Z</time>
      </trkpt>
      <trkpt lat="45.7064" lon="5.7372">
        <ele>236</ele>
        <time>2022-05-17T06:47:06.798Z</time>
      </trkpt>
      <trkpt lat="45.70635" lon="5.7373">
        <ele>236</ele>
        <time>2022-05-17T06:47:07.798Z</time>
      </trkpt>
      <trkpt lat="45.70629" lon="5.7374">
        <ele>236</ele>
        <time>2022-05-17T06:47:08.797Z</time>
      </trkpt>
      <trkpt lat="45.70624" lon="5.7375">
        <ele>236</ele>
        <time>2022-05-17T06:47:09.798Z</time>
      </trkpt>
      <trkpt lat="45.7062" lon="5.73761">
        <ele>237</ele>
        <time>2022-05-17T06:47:10.798Z</time>
      </trkpt>
      <trkpt lat="45.70615" lon="5.73772">
        <ele>237</ele>
        <time>2022-05-17T06:47:11.798Z</time>
      </trkpt>
      <trkpt lat="45.70611" lon="5.73785">
        <ele>237</ele>
        <time>2022-05-17T06:47:12.797Z</time>
      </trkpt>
      <trkpt lat="45.70607" lon="5.73796">
        <ele>237</ele>
        <time>2022-05-17T06:47:13.798Z</time>
      </trkpt>
      <trkpt lat="45.70603" lon="5.73809">
        <ele>237</ele>
        <time>2022-05-17T06:47:14.798Z</time>
      </trkpt>
      <trkpt lat="45.706" lon="5.73821">
        <ele>236</ele>
        <time>2022-05-17T06:47:15.797Z</time>
      </trkpt>
      <trkpt lat="45.70597" lon="5.73834">
        <ele>236</ele>
        <time>2022-05-17T06:47:16.798Z</time>
      </trkpt>
      <trkpt lat="45.70595" lon="5.73848">
        <ele>236</ele>
        <time>2022-05-17T06:47:17.797Z</time>
      </trkpt>
      <trkpt lat="45.70594" lon="5.73863">
        <ele>236</ele>
        <time>2022-05-17T06:47:18.798Z</time>
      </trkpt>
      <trkpt lat="45.70593" lon="5.73878">
        <ele>235</ele>
        <time>2022-05-17T06:47:19.798Z</time>
      </trkpt>
      <trkpt lat="45.70591" lon="5.73892">
        <ele>235</ele>
        <time>2022-05-17T06:47:20.797Z</time>
      </trkpt>
      <trkpt lat="45.70591" lon="5.73906">
        <ele>234</ele>
        <time>2022-05-17T06:47:21.798Z</time>
      </trkpt>
      <trkpt lat="45.70592" lon="5.73921">
        <ele>234</ele>
        <time>2022-05-17T06:47:22.798Z</time>
      </trkpt>
      <trkpt lat="45.70595" lon="5.73935">
        <ele>233</ele>
        <time>2022-05-17T06:47:23.798Z</time>
      </trkpt>
      <trkpt lat="45.70597" lon="5.73951">
        <ele>233</ele>
        <time>2022-05-17T06:47:24.797Z</time>
      </trkpt>
      <trkpt lat="45.70599" lon="5.73968">
        <ele>233</ele>
        <time>2022-05-17T06:47:25.798Z</time>
      </trkpt>
      <trkpt lat="45.70604" lon="5.73984">
        <ele>233</ele>
        <time>2022-05-17T06:47:26.798Z</time>
      </trkpt>
      <trkpt lat="45.70608" lon="5.73999">
        <ele>233</ele>
        <time>2022-05-17T06:47:27.798Z</time>
      </trkpt>
      <trkpt lat="45.70606" lon="5.74013">
        <ele>233</ele>
        <time>2022-05-17T06:47:28.798Z</time>
      </trkpt>
      <trkpt lat="45.70603" lon="5.74027">
        <ele>234</ele>
        <time>2022-05-17T06:47:29.798Z</time>
      </trkpt>
      <trkpt lat="45.70604" lon="5.74041">
        <ele>234</ele>
        <time>2022-05-17T06:47:30.797Z</time>
      </trkpt>
      <trkpt lat="45.70605" lon="5.74055">
        <ele>234</ele>
        <time>2022-05-17T06:47:31.798Z</time>
      </trkpt>
      <trkpt lat="45.70606" lon="5.74069">
        <ele>235</ele>
        <time>2022-05-17T06:47:32.798Z</time>
      </trkpt>
      <trkpt lat="45.70607" lon="5.74082">
        <ele>235</ele>
        <time>2022-05-17T06:47:33.798Z</time>
      </trkpt>
      <trkpt lat="45.70606" lon="5.74096">
        <ele>235</ele>
        <time>2022-05-17T06:47:34.798Z</time>
      </trkpt>
      <trkpt lat="45.70605" lon="5.74109">
        <ele>235</ele>
        <time>2022-05-17T06:47:35.798Z</time>
      </trkpt>
      <trkpt lat="45.70604" lon="5.74121">
        <ele>235</ele>
        <time>2022-05-17T06:47:36.797Z</time>
      </trkpt>
      <trkpt lat="45.70603" lon="5.74133">
        <ele>235</ele>
        <time>2022-05-17T06:47:37.798Z</time>
      </trkpt>
      <trkpt lat="45.70603" lon="5.74144">
        <ele>234</ele>
        <time>2022-05-17T06:47:38.798Z</time>
      </trkpt>
      <trkpt lat="45.70602" lon="5.74156">
        <ele>234</ele>
        <time>2022-05-17T06:47:39.798Z</time>
      </trkpt>
      <trkpt lat="45.70602" lon="5.74168">
        <ele>234</ele>
        <time>2022-05-17T06:47:40.798Z</time>
      </trkpt>
      <trkpt lat="45.706" lon="5.7418">
        <ele>233</ele>
        <time>2022-05-17T06:47:41.797Z</time>
      </trkpt>
      <trkpt lat="45.706" lon="5.74191">
        <ele>233</ele>
        <time>2022-05-17T06:47:42.798Z</time>
      </trkpt>
      <trkpt lat="45.70598" lon="5.74202">
        <ele>232</ele>
        <time>2022-05-17T06:47:43.798Z</time>
      </trkpt>
      <trkpt lat="45.70596" lon="5.74212">
        <ele>232</ele>
        <time>2022-05-17T06:47:44.797Z</time>
      </trkpt>
      <trkpt lat="45.70593" lon="5.74223">
        <ele>232</ele>
        <time>2022-05-17T06:47:45.798Z</time>
      </trkpt>
      <trkpt lat="45.7059" lon="5.74233">
        <ele>232</ele>
        <time>2022-05-17T06:47:46.798Z</time>
      </trkpt>
      <trkpt lat="45.70588" lon="5.74244">
        <ele>232</ele>
        <time>2022-05-17T06:47:47.798Z</time>
      </trkpt>
      <trkpt lat="45.70586" lon="5.74254">
        <ele>232</ele>
        <time>2022-05-17T06:47:48.797Z</time>
      </trkpt>
      <trkpt lat="45.70584" lon="5.74265">
        <ele>232</ele>
        <time>2022-05-17T06:47:49.798Z</time>
      </trkpt>
      <trkpt lat="45.70583" lon="5.74276">
        <ele>232</ele>
        <time>2022-05-17T06:47:50.798Z</time>
      </trkpt>
      <trkpt lat="45.70581" lon="5.74287">
        <ele>232</ele>
        <time>2022-05-17T06:47:51.798Z</time>
      </trkpt>
      <trkpt lat="45.7058" lon="5.74299">
        <ele>232</ele>
        <time>2022-05-17T06:47:52.798Z</time>
      </trkpt>
      <trkpt lat="45.70578" lon="5.7431">
        <ele>232</ele>
        <time>2022-05-17T06:47:53.797Z</time>
      </trkpt>
      <trkpt lat="45.70577" lon="5.74322">
        <ele>232</ele>
        <time>2022-05-17T06:47:54.798Z</time>
      </trkpt>
      <trkpt lat="45.70575" lon="5.74333">
        <ele>232</ele>
        <time>2022-05-17T06:47:55.798Z</time>
      </trkpt>
      <trkpt lat="45.70574" lon="5.74345">
        <ele>233</ele>
        <time>2022-05-17T06:47:56.798Z</time>
      </trkpt>
      <trkpt lat="45.70574" lon="5.74358">
        <ele>233</ele>
        <time>2022-05-17T06:47:57.797Z</time>
      </trkpt>
      <trkpt lat="45.70573" lon="5.74369">
        <ele>233</ele>
        <time>2022-05-17T06:47:58.798Z</time>
      </trkpt>
      <trkpt lat="45.70572" lon="5.74382">
        <ele>233</ele>
        <time>2022-05-17T06:47:59.798Z</time>
      </trkpt>
      <trkpt lat="45.70571" lon="5.74395">
        <ele>233</ele>
        <time>2022-05-17T06:48:00.798Z</time>
      </trkpt>
      <trkpt lat="45.70568" lon="5.74406">
        <ele>233</ele>
        <time>2022-05-17T06:48:01.797Z</time>
      </trkpt>
      <trkpt lat="45.70566" lon="5.74418">
        <ele>233</ele>
        <time>2022-05-17T06:48:02.798Z</time>
      </trkpt>
      <trkpt lat="45.70564" lon="5.7443">
        <ele>233</ele>
        <time>2022-05-17T06:48:03.797Z</time>
      </trkpt>
      <trkpt lat="45.70561" lon="5.74442">
        <ele>232</ele>
        <time>2022-05-17T06:48:04.798Z</time>
      </trkpt>
      <trkpt lat="45.70559" lon="5.74457">
        <ele>232</ele>
        <time>2022-05-17T06:48:05.797Z</time>
      </trkpt>
      <trkpt lat="45.70557" lon="5.74469">
        <ele>232</ele>
        <time>2022-05-17T06:48:06.798Z</time>
      </trkpt>
      <trkpt lat="45.70556" lon="5.74478">
        <ele>232</ele>
        <time>2022-05-17T06:48:07.797Z</time>
      </trkpt>
      <trkpt lat="45.70555" lon="5.74491">
        <ele>233</ele>
        <time>2022-05-17T06:48:08.797Z</time>
      </trkpt>
      <trkpt lat="45.70554" lon="5.74503">
        <ele>233</ele>
        <time>2022-05-17T06:48:09.797Z</time>
      </trkpt>
      <trkpt lat="45.70553" lon="5.74516">
        <ele>233</ele>
        <time>2022-05-17T06:48:10.798Z</time>
      </trkpt>
      <trkpt lat="45.70551" lon="5.74528">
        <ele>232</ele>
        <time>2022-05-17T06:48:11.797Z</time>
      </trkpt>
      <trkpt lat="45.70548" lon="5.7454">
        <ele>232</ele>
        <time>2022-05-17T06:48:12.798Z</time>
      </trkpt>
      <trkpt lat="45.70544" lon="5.74552">
        <ele>232</ele>
        <time>2022-05-17T06:48:13.797Z</time>
      </trkpt>
      <trkpt lat="45.70539" lon="5.74563">
        <ele>232</ele>
        <time>2022-05-17T06:48:14.798Z</time>
      </trkpt>
      <trkpt lat="45.70535" lon="5.74574">
        <ele>233</ele>
        <time>2022-05-17T06:48:15.798Z</time>
      </trkpt>
      <trkpt lat="45.70529" lon="5.74584">
        <ele>233</ele>
        <time>2022-05-17T06:48:16.797Z</time>
      </trkpt>
      <trkpt lat="45.70525" lon="5.74595">
        <ele>233</ele>
        <time>2022-05-17T06:48:17.798Z</time>
      </trkpt>
      <trkpt lat="45.7052" lon="5.74606">
        <ele>233</ele>
        <time>2022-05-17T06:48:18.797Z</time>
      </trkpt>
      <trkpt lat="45.70516" lon="5.74617">
        <ele>233</ele>
        <time>2022-05-17T06:48:19.798Z</time>
      </trkpt>
      <trkpt lat="45.70513" lon="5.74628">
        <ele>233</ele>
        <time>2022-05-17T06:48:20.797Z</time>
      </trkpt>
      <trkpt lat="45.70509" lon="5.7464">
        <ele>233</ele>
        <time>2022-05-17T06:48:21.798Z</time>
      </trkpt>
      <trkpt lat="45.70506" lon="5.74651">
        <ele>233</ele>
        <time>2022-05-17T06:48:22.798Z</time>
      </trkpt>
      <trkpt lat="45.70503" lon="5.74663">
        <ele>233</ele>
        <time>2022-05-17T06:48:23.798Z</time>
      </trkpt>
      <trkpt lat="45.705" lon="5.74674">
        <ele>232</ele>
        <time>2022-05-17T06:48:24.798Z</time>
      </trkpt>
      <trkpt lat="45.70497" lon="5.74686">
        <ele>232</ele>
        <time>2022-05-17T06:48:25.798Z</time>
      </trkpt>
      <trkpt lat="45.70494" lon="5.74697">
        <ele>232</ele>
        <time>2022-05-17T06:48:26.798Z</time>
      </trkpt>
      <trkpt lat="45.7049" lon="5.74708">
        <ele>232</ele>
        <time>2022-05-17T06:48:27.797Z</time>
      </trkpt>
      <trkpt lat="45.70487" lon="5.74719">
        <ele>231</ele>
        <time>2022-05-17T06:48:28.798Z</time>
      </trkpt>
      <trkpt lat="45.70484" lon="5.7473">
        <ele>231</ele>
        <time>2022-05-17T06:48:29.797Z</time>
      </trkpt>
      <trkpt lat="45.70481" lon="5.74741">
        <ele>231</ele>
        <time>2022-05-17T06:48:30.797Z</time>
      </trkpt>
      <trkpt lat="45.70477" lon="5.74752">
        <ele>231</ele>
        <time>2022-05-17T06:48:31.798Z</time>
      </trkpt>
      <trkpt lat="45.70474" lon="5.74763">
        <ele>230</ele>
        <time>2022-05-17T06:48:32.797Z</time>
      </trkpt>
      <trkpt lat="45.70471" lon="5.74774">
        <ele>230</ele>
        <time>2022-05-17T06:48:33.798Z</time>
      </trkpt>
      <trkpt lat="45.70468" lon="5.74786">
        <ele>230</ele>
        <time>2022-05-17T06:48:34.798Z</time>
      </trkpt>
      <trkpt lat="45.70467" lon="5.74797">
        <ele>230</ele>
        <time>2022-05-17T06:48:35.798Z</time>
      </trkpt>
      <trkpt lat="45.70466" lon="5.74809">
        <ele>230</ele>
        <time>2022-05-17T06:48:36.798Z</time>
      </trkpt>
      <trkpt lat="45.70467" lon="5.74821">
        <ele>230</ele>
        <time>2022-05-17T06:48:37.798Z</time>
      </trkpt>
      <trkpt lat="45.70469" lon="5.74833">
        <ele>230</ele>
        <time>2022-05-17T06:48:38.797Z</time>
      </trkpt>
      <trkpt lat="45.70472" lon="5.74845">
        <ele>230</ele>
        <time>2022-05-17T06:48:39.798Z</time>
      </trkpt>
      <trkpt lat="45.70476" lon="5.74856">
        <ele>230</ele>
        <time>2022-05-17T06:48:40.798Z</time>
      </trkpt>
      <trkpt lat="45.7048" lon="5.74867">
        <ele>230</ele>
        <time>2022-05-17T06:48:41.797Z</time>
      </trkpt>
      <trkpt lat="45.70485" lon="5.74879">
        <ele>231</ele>
        <time>2022-05-17T06:48:42.798Z</time>
      </trkpt>
      <trkpt lat="45.7049" lon="5.7489">
        <ele>231</ele>
        <time>2022-05-17T06:48:43.798Z</time>
      </trkpt>
      <trkpt lat="45.70493" lon="5.74901">
        <ele>231</ele>
        <time>2022-05-17T06:48:44.797Z</time>
      </trkpt>
      <trkpt lat="45.70497" lon="5.74913">
        <ele>231</ele>
        <time>2022-05-17T06:48:45.798Z</time>
      </trkpt>
      <trkpt lat="45.70501" lon="5.74925">
        <ele>231</ele>
        <time>2022-05-17T06:48:46.798Z</time>
      </trkpt>
      <trkpt lat="45.70505" lon="5.74936">
        <ele>231</ele>
        <time>2022-05-17T06:48:47.798Z</time>
      </trkpt>
      <trkpt lat="45.70508" lon="5.74947">
        <ele>231</ele>
        <time>2022-05-17T06:48:48.797Z</time>
      </trkpt>
      <trkpt lat="45.70512" lon="5.74958">
        <ele>231</ele>
        <time>2022-05-17T06:48:49.798Z</time>
      </trkpt>
      <trkpt lat="45.70516" lon="5.74969">
        <ele>231</ele>
        <time>2022-05-17T06:48:50.798Z</time>
      </trkpt>
      <trkpt lat="45.7052" lon="5.7498">
        <ele>230</ele>
        <time>2022-05-17T06:48:51.798Z</time>
      </trkpt>
      <trkpt lat="45.70525" lon="5.74991">
        <ele>231</ele>
        <time>2022-05-17T06:48:52.798Z</time>
      </trkpt>
      <trkpt lat="45.70528" lon="5.75002">
        <ele>231</ele>
        <time>2022-05-17T06:48:53.798Z</time>
      </trkpt>
      <trkpt lat="45.70531" lon="5.75014">
        <ele>231</ele>
        <time>2022-05-17T06:48:54.797Z</time>
      </trkpt>
      <trkpt lat="45.70532" lon="5.75025">
        <ele>231</ele>
        <time>2022-05-17T06:48:55.798Z</time>
      </trkpt>
      <trkpt lat="45.70534" lon="5.75037">
        <ele>231</ele>
        <time>2022-05-17T06:48:56.798Z</time>
      </trkpt>
      <trkpt lat="45.70535" lon="5.75049">
        <ele>231</ele>
        <time>2022-05-17T06:48:57.797Z</time>
      </trkpt>
      <trkpt lat="45.70536" lon="5.75061">
        <ele>231</ele>
        <time>2022-05-17T06:48:58.798Z</time>
      </trkpt>
      <trkpt lat="45.70536" lon="5.75073">
        <ele>230</ele>
        <time>2022-05-17T06:48:59.798Z</time>
      </trkpt>
      <trkpt lat="45.70536" lon="5.75085">
        <ele>230</ele>
        <time>2022-05-17T06:49:00.798Z</time>
      </trkpt>
      <trkpt lat="45.70535" lon="5.75097">
        <ele>230</ele>
        <time>2022-05-17T06:49:01.798Z</time>
      </trkpt>
      <trkpt lat="45.70534" lon="5.75109">
        <ele>230</ele>
        <time>2022-05-17T06:49:02.798Z</time>
      </trkpt>
      <trkpt lat="45.70534" lon="5.75121">
        <ele>230</ele>
        <time>2022-05-17T06:49:03.797Z</time>
      </trkpt>
      <trkpt lat="45.70533" lon="5.75133">
        <ele>230</ele>
        <time>2022-05-17T06:49:04.797Z</time>
      </trkpt>
      <trkpt lat="45.70532" lon="5.75145">
        <ele>230</ele>
        <time>2022-05-17T06:49:05.798Z</time>
      </trkpt>
      <trkpt lat="45.70532" lon="5.75158">
        <ele>230</ele>
        <time>2022-05-17T06:49:06.798Z</time>
      </trkpt>
      <trkpt lat="45.70531" lon="5.7517">
        <ele>230</ele>
        <time>2022-05-17T06:49:07.798Z</time>
      </trkpt>
      <trkpt lat="45.70531" lon="5.75182">
        <ele>230</ele>
        <time>2022-05-17T06:49:08.797Z</time>
      </trkpt>
      <trkpt lat="45.7053" lon="5.75195">
        <ele>230</ele>
        <time>2022-05-17T06:49:09.798Z</time>
      </trkpt>
      <trkpt lat="45.7053" lon="5.75207">
        <ele>230</ele>
        <time>2022-05-17T06:49:10.797Z</time>
      </trkpt>
      <trkpt lat="45.7053" lon="5.75219">
        <ele>230</ele>
        <time>2022-05-17T06:49:11.798Z</time>
      </trkpt>
      <trkpt lat="45.7053" lon="5.75232">
        <ele>230</ele>
        <time>2022-05-17T06:49:12.798Z</time>
      </trkpt>
      <trkpt lat="45.70529" lon="5.75244">
        <ele>230</ele>
        <time>2022-05-17T06:49:13.798Z</time>
      </trkpt>
      <trkpt lat="45.70529" lon="5.75256">
        <ele>230</ele>
        <time>2022-05-17T06:49:14.798Z</time>
      </trkpt>
      <trkpt lat="45.70529" lon="5.75268">
        <ele>231</ele>
        <time>2022-05-17T06:49:15.798Z</time>
      </trkpt>
      <trkpt lat="45.7053" lon="5.75281">
        <ele>231</ele>
        <time>2022-05-17T06:49:16.798Z</time>
      </trkpt>
      <trkpt lat="45.7053" lon="5.75293">
        <ele>231</ele>
        <time>2022-05-17T06:49:17.798Z</time>
      </trkpt>
      <trkpt lat="45.70531" lon="5.75305">
        <ele>232</ele>
        <time>2022-05-17T06:49:18.797Z</time>
      </trkpt>
      <trkpt lat="45.70531" lon="5.75317">
        <ele>232</ele>
        <time>2022-05-17T06:49:19.797Z</time>
      </trkpt>
      <trkpt lat="45.70532" lon="5.75329">
        <ele>232</ele>
        <time>2022-05-17T06:49:20.798Z</time>
      </trkpt>
      <trkpt lat="45.70533" lon="5.75341">
        <ele>232</ele>
        <time>2022-05-17T06:49:21.797Z</time>
      </trkpt>
      <trkpt lat="45.70534" lon="5.75352">
        <ele>232</ele>
        <time>2022-05-17T06:49:22.798Z</time>
      </trkpt>
      <trkpt lat="45.70535" lon="5.75364">
        <ele>232</ele>
        <time>2022-05-17T06:49:23.798Z</time>
      </trkpt>
      <trkpt lat="45.70536" lon="5.75376">
        <ele>231</ele>
        <time>2022-05-17T06:49:24.798Z</time>
      </trkpt>
      <trkpt lat="45.70537" lon="5.75385">
        <ele>231</ele>
        <time>2022-05-17T06:49:25.797Z</time>
      </trkpt>
      <trkpt lat="45.70539" lon="5.75399">
        <ele>231</ele>
        <time>2022-05-17T06:49:26.797Z</time>
      </trkpt>
      <trkpt lat="45.70541" lon="5.75411">
        <ele>231</ele>
        <time>2022-05-17T06:49:27.798Z</time>
      </trkpt>
      <trkpt lat="45.70542" lon="5.75423">
        <ele>231</ele>
        <time>2022-05-17T06:49:28.797Z</time>
      </trkpt>
      <trkpt lat="45.70544" lon="5.75435">
        <ele>231</ele>
        <time>2022-05-17T06:49:29.798Z</time>
      </trkpt>
      <trkpt lat="45.70546" lon="5.75447">
        <ele>231</ele>
        <time>2022-05-17T06:49:30.798Z</time>
      </trkpt>
      <trkpt lat="45.70548" lon="5.75459">
        <ele>231</ele>
        <time>2022-05-17T06:49:31.797Z</time>
      </trkpt>
      <trkpt lat="45.7055" lon="5.75471">
        <ele>231</ele>
        <time>2022-05-17T06:49:32.797Z</time>
      </trkpt>
      <trkpt lat="45.70551" lon="5.7548">
        <ele>231</ele>
        <time>2022-05-17T06:49:33.798Z</time>
      </trkpt>
      <trkpt lat="45.70553" lon="5.75492">
        <ele>231</ele>
        <time>2022-05-17T06:49:34.798Z</time>
      </trkpt>
      <trkpt lat="45.70555" lon="5.75505">
        <ele>231</ele>
        <time>2022-05-17T06:49:35.797Z</time>
      </trkpt>
      <trkpt lat="45.70558" lon="5.75519">
        <ele>231</ele>
        <time>2022-05-17T06:49:36.797Z</time>
      </trkpt>
      <trkpt lat="45.7056" lon="5.75532">
        <ele>231</ele>
        <time>2022-05-17T06:49:37.798Z</time>
      </trkpt>
      <trkpt lat="45.70562" lon="5.75544">
        <ele>231</ele>
        <time>2022-05-17T06:49:38.797Z</time>
      </trkpt>
      <trkpt lat="45.70563" lon="5.75554">
        <ele>231</ele>
        <time>2022-05-17T06:49:39.798Z</time>
      </trkpt>
      <trkpt lat="45.70565" lon="5.75566">
        <ele>231</ele>
        <time>2022-05-17T06:49:40.797Z</time>
      </trkpt>
      <trkpt lat="45.70568" lon="5.75581">
        <ele>231</ele>
        <time>2022-05-17T06:49:41.798Z</time>
      </trkpt>
      <trkpt lat="45.70569" lon="5.75594">
        <ele>231</ele>
        <time>2022-05-17T06:49:42.798Z</time>
      </trkpt>
      <trkpt lat="45.70571" lon="5.75606">
        <ele>231</ele>
        <time>2022-05-17T06:49:43.798Z</time>
      </trkpt>
      <trkpt lat="45.70573" lon="5.75616">
        <ele>231</ele>
        <time>2022-05-17T06:49:44.798Z</time>
      </trkpt>
      <trkpt lat="45.70575" lon="5.75628">
        <ele>231</ele>
        <time>2022-05-17T06:49:45.797Z</time>
      </trkpt>
      <trkpt lat="45.70577" lon="5.75643">
        <ele>231</ele>
        <time>2022-05-17T06:49:46.798Z</time>
      </trkpt>
      <trkpt lat="45.70579" lon="5.75655">
        <ele>231</ele>
        <time>2022-05-17T06:49:47.798Z</time>
      </trkpt>
      <trkpt lat="45.70581" lon="5.75667">
        <ele>231</ele>
        <time>2022-05-17T06:49:48.797Z</time>
      </trkpt>
      <trkpt lat="45.70582" lon="5.75677">
        <ele>230</ele>
        <time>2022-05-17T06:49:49.797Z</time>
      </trkpt>
      <trkpt lat="45.70584" lon="5.75689">
        <ele>230</ele>
        <time>2022-05-17T06:49:50.797Z</time>
      </trkpt>
      <trkpt lat="45.70586" lon="5.75701">
        <ele>230</ele>
        <time>2022-05-17T06:49:51.797Z</time>
      </trkpt>
      <trkpt lat="45.70588" lon="5.75716">
        <ele>231</ele>
        <time>2022-05-17T06:49:52.798Z</time>
      </trkpt>
      <trkpt lat="45.7059" lon="5.75727">
        <ele>230</ele>
        <time>2022-05-17T06:49:53.798Z</time>
      </trkpt>
      <trkpt lat="45.70592" lon="5.75739">
        <ele>230</ele>
        <time>2022-05-17T06:49:54.798Z</time>
      </trkpt>
      <trkpt lat="45.70593" lon="5.75748">
        <ele>230</ele>
        <time>2022-05-17T06:49:55.798Z</time>
      </trkpt>
      <trkpt lat="45.70595" lon="5.7576">
        <ele>229</ele>
        <time>2022-05-17T06:49:56.798Z</time>
      </trkpt>
      <trkpt lat="45.70597" lon="5.75774">
        <ele>229</ele>
        <time>2022-05-17T06:49:57.798Z</time>
      </trkpt>
      <trkpt lat="45.70599" lon="5.75786">
        <ele>229</ele>
        <time>2022-05-17T06:49:58.798Z</time>
      </trkpt>
      <trkpt lat="45.70601" lon="5.75797">
        <ele>229</ele>
        <time>2022-05-17T06:49:59.798Z</time>
      </trkpt>
      <trkpt lat="45.70602" lon="5.75809">
        <ele>229</ele>
        <time>2022-05-17T06:50:00.797Z</time>
      </trkpt>
      <trkpt lat="45.70604" lon="5.75821">
        <ele>229</ele>
        <time>2022-05-17T06:50:01.797Z</time>
      </trkpt>
      <trkpt lat="45.70606" lon="5.75833">
        <ele>229</ele>
        <time>2022-05-17T06:50:02.797Z</time>
      </trkpt>
      <trkpt lat="45.70608" lon="5.75845">
        <ele>229</ele>
        <time>2022-05-17T06:50:03.797Z</time>
      </trkpt>
      <trkpt lat="45.70609" lon="5.75857">
        <ele>229</ele>
        <time>2022-05-17T06:50:04.798Z</time>
      </trkpt>
      <trkpt lat="45.70611" lon="5.75869">
        <ele>229</ele>
        <time>2022-05-17T06:50:05.797Z</time>
      </trkpt>
      <trkpt lat="45.70613" lon="5.75881">
        <ele>229</ele>
        <time>2022-05-17T06:50:06.797Z</time>
      </trkpt>
      <trkpt lat="45.70614" lon="5.75893">
        <ele>229</ele>
        <time>2022-05-17T06:50:07.798Z</time>
      </trkpt>
      <trkpt lat="45.70615" lon="5.75905">
        <ele>230</ele>
        <time>2022-05-17T06:50:08.797Z</time>
      </trkpt>
      <trkpt lat="45.70617" lon="5.75918">
        <ele>230</ele>
        <time>2022-05-17T06:50:09.797Z</time>
      </trkpt>
      <trkpt lat="45.70618" lon="5.7593">
        <ele>230</ele>
        <time>2022-05-17T06:50:10.797Z</time>
      </trkpt>
      <trkpt lat="45.7062" lon="5.7594">
        <ele>230</ele>
        <time>2022-05-17T06:50:11.798Z</time>
      </trkpt>
      <trkpt lat="45.70622" lon="5.75954">
        <ele>231</ele>
        <time>2022-05-17T06:50:12.798Z</time>
      </trkpt>
      <trkpt lat="45.70623" lon="5.75966">
        <ele>231</ele>
        <time>2022-05-17T06:50:13.798Z</time>
      </trkpt>
      <trkpt lat="45.70625" lon="5.75979">
        <ele>231</ele>
        <time>2022-05-17T06:50:14.798Z</time>
      </trkpt>
      <trkpt lat="45.70626" lon="5.75988">
        <ele>230</ele>
        <time>2022-05-17T06:50:15.798Z</time>
      </trkpt>
      <trkpt lat="45.70628" lon="5.76">
        <ele>230</ele>
        <time>2022-05-17T06:50:16.798Z</time>
      </trkpt>
      <trkpt lat="45.7063" lon="5.76014">
        <ele>230</ele>
        <time>2022-05-17T06:50:17.798Z</time>
      </trkpt>
      <trkpt lat="45.70631" lon="5.76026">
        <ele>230</ele>
        <time>2022-05-17T06:50:18.798Z</time>
      </trkpt>
      <trkpt lat="45.70633" lon="5.76037">
        <ele>230</ele>
        <time>2022-05-17T06:50:19.798Z</time>
      </trkpt>
      <trkpt lat="45.70634" lon="5.76048">
        <ele>230</ele>
        <time>2022-05-17T06:50:20.798Z</time>
      </trkpt>
      <trkpt lat="45.70635" lon="5.76057">
        <ele>230</ele>
        <time>2022-05-17T06:50:21.798Z</time>
      </trkpt>
      <trkpt lat="45.70634" lon="5.7607">
        <ele>230</ele>
        <time>2022-05-17T06:50:22.798Z</time>
      </trkpt>
      <trkpt lat="45.70631" lon="5.76081">
        <ele>230</ele>
        <time>2022-05-17T06:50:23.797Z</time>
      </trkpt>
      <trkpt lat="45.70628" lon="5.76091">
        <ele>230</ele>
        <time>2022-05-17T06:50:24.798Z</time>
      </trkpt>
      <trkpt lat="45.70626" lon="5.76102">
        <ele>230</ele>
        <time>2022-05-17T06:50:25.798Z</time>
      </trkpt>
      <trkpt lat="45.70625" lon="5.7611">
        <ele>230</ele>
        <time>2022-05-17T06:50:26.798Z</time>
      </trkpt>
      <trkpt lat="45.70626" lon="5.76123">
        <ele>230</ele>
        <time>2022-05-17T06:50:27.798Z</time>
      </trkpt>
      <trkpt lat="45.70629" lon="5.76133">
        <ele>230</ele>
        <time>2022-05-17T06:50:28.798Z</time>
      </trkpt>
      <trkpt lat="45.70632" lon="5.76143">
        <ele>230</ele>
        <time>2022-05-17T06:50:29.798Z</time>
      </trkpt>
      <trkpt lat="45.70634" lon="5.76154">
        <ele>229</ele>
        <time>2022-05-17T06:50:30.798Z</time>
      </trkpt>
      <trkpt lat="45.70636" lon="5.76165">
        <ele>229</ele>
        <time>2022-05-17T06:50:31.798Z</time>
      </trkpt>
      <trkpt lat="45.70636" lon="5.76176">
        <ele>229</ele>
        <time>2022-05-17T06:50:32.798Z</time>
      </trkpt>
      <trkpt lat="45.70636" lon="5.76188">
        <ele>229</ele>
        <time>2022-05-17T06:50:33.798Z</time>
      </trkpt>
      <trkpt lat="45.70635" lon="5.762">
        <ele>229</ele>
        <time>2022-05-17T06:50:34.798Z</time>
      </trkpt>
      <trkpt lat="45.70635" lon="5.76209">
        <ele>229</ele>
        <time>2022-05-17T06:50:35.798Z</time>
      </trkpt>
      <trkpt lat="45.70634" lon="5.76221">
        <ele>229</ele>
        <time>2022-05-17T06:50:36.797Z</time>
      </trkpt>
      <trkpt lat="45.70633" lon="5.76235">
        <ele>229</ele>
        <time>2022-05-17T06:50:37.797Z</time>
      </trkpt>
      <trkpt lat="45.70632" lon="5.76246">
        <ele>229</ele>
        <time>2022-05-17T06:50:38.798Z</time>
      </trkpt>
      <trkpt lat="45.70631" lon="5.76258">
        <ele>229</ele>
        <time>2022-05-17T06:50:39.798Z</time>
      </trkpt>
      <trkpt lat="45.7063" lon="5.76267">
        <ele>229</ele>
        <time>2022-05-17T06:50:40.798Z</time>
      </trkpt>
      <trkpt lat="45.70628" lon="5.76279">
        <ele>229</ele>
        <time>2022-05-17T06:50:41.797Z</time>
      </trkpt>
      <trkpt lat="45.70627" lon="5.76293">
        <ele>230</ele>
        <time>2022-05-17T06:50:42.798Z</time>
      </trkpt>
      <trkpt lat="45.70626" lon="5.76304">
        <ele>230</ele>
        <time>2022-05-17T06:50:43.798Z</time>
      </trkpt>
      <trkpt lat="45.70624" lon="5.76316">
        <ele>230</ele>
        <time>2022-05-17T06:50:44.798Z</time>
      </trkpt>
      <trkpt lat="45.70623" lon="5.76327">
        <ele>230</ele>
        <time>2022-05-17T06:50:45.798Z</time>
      </trkpt>
      <trkpt lat="45.70622" lon="5.76336">
        <ele>230</ele>
        <time>2022-05-17T06:50:46.798Z</time>
      </trkpt>
      <trkpt lat="45.7062" lon="5.76348">
        <ele>230</ele>
        <time>2022-05-17T06:50:47.798Z</time>
      </trkpt>
      <trkpt lat="45.70618" lon="5.76361">
        <ele>230</ele>
        <time>2022-05-17T06:50:48.798Z</time>
      </trkpt>
      <trkpt lat="45.70617" lon="5.76372">
        <ele>229</ele>
        <time>2022-05-17T06:50:49.798Z</time>
      </trkpt>
      <trkpt lat="45.70615" lon="5.76383">
        <ele>229</ele>
        <time>2022-05-17T06:50:50.798Z</time>
      </trkpt>
      <trkpt lat="45.70614" lon="5.76394">
        <ele>229</ele>
        <time>2022-05-17T06:50:51.798Z</time>
      </trkpt>
      <trkpt lat="45.70612" lon="5.76405">
        <ele>229</ele>
        <time>2022-05-17T06:50:52.797Z</time>
      </trkpt>
      <trkpt lat="45.70611" lon="5.76416">
        <ele>229</ele>
        <time>2022-05-17T06:50:53.798Z</time>
      </trkpt>
      <trkpt lat="45.70609" lon="5.76427">
        <ele>229</ele>
        <time>2022-05-17T06:50:54.798Z</time>
      </trkpt>
      <trkpt lat="45.70608" lon="5.76438">
        <ele>228</ele>
        <time>2022-05-17T06:50:55.798Z</time>
      </trkpt>
      <trkpt lat="45.70606" lon="5.76448">
        <ele>228</ele>
        <time>2022-05-17T06:50:56.798Z</time>
      </trkpt>
      <trkpt lat="45.70605" lon="5.76457">
        <ele>228</ele>
        <time>2022-05-17T06:50:57.798Z</time>
      </trkpt>
      <trkpt lat="45.70603" lon="5.7647">
        <ele>228</ele>
        <time>2022-05-17T06:50:58.798Z</time>
      </trkpt>
      <trkpt lat="45.70602" lon="5.7648">
        <ele>228</ele>
        <time>2022-05-17T06:50:59.797Z</time>
      </trkpt>
      <trkpt lat="45.706" lon="5.76491">
        <ele>227</ele>
        <time>2022-05-17T06:51:00.798Z</time>
      </trkpt>
      <trkpt lat="45.70599" lon="5.76502">
        <ele>227</ele>
        <time>2022-05-17T06:51:01.797Z</time>
      </trkpt>
      <trkpt lat="45.70597" lon="5.76512">
        <ele>227</ele>
        <time>2022-05-17T06:51:02.798Z</time>
      </trkpt>
      <trkpt lat="45.70596" lon="5.76523">
        <ele>227</ele>
        <time>2022-05-17T06:51:03.798Z</time>
      </trkpt>
      <trkpt lat="45.70594" lon="5.76534">
        <ele>227</ele>
        <time>2022-05-17T06:51:04.798Z</time>
      </trkpt>
      <trkpt lat="45.70593" lon="5.76545">
        <ele>227</ele>
        <time>2022-05-17T06:51:05.797Z</time>
      </trkpt>
      <trkpt lat="45.70591" lon="5.76555">
        <ele>227</ele>
        <time>2022-05-17T06:51:06.798Z</time>
      </trkpt>
      <trkpt lat="45.7059" lon="5.76565">
        <ele>227</ele>
        <time>2022-05-17T06:51:07.798Z</time>
      </trkpt>
      <trkpt lat="45.70589" lon="5.76576">
        <ele>227</ele>
        <time>2022-05-17T06:51:08.798Z</time>
      </trkpt>
      <trkpt lat="45.70587" lon="5.76586">
        <ele>227</ele>
        <time>2022-05-17T06:51:09.798Z</time>
      </trkpt>
      <trkpt lat="45.70586" lon="5.76597">
        <ele>227</ele>
        <time>2022-05-17T06:51:10.798Z</time>
      </trkpt>
      <trkpt lat="45.70584" lon="5.76607">
        <ele>227</ele>
        <time>2022-05-17T06:51:11.798Z</time>
      </trkpt>
      <trkpt lat="45.70583" lon="5.76615">
        <ele>227</ele>
        <time>2022-05-17T06:51:12.797Z</time>
      </trkpt>
      <trkpt lat="45.70581" lon="5.76628">
        <ele>228</ele>
        <time>2022-05-17T06:51:13.798Z</time>
      </trkpt>
      <trkpt lat="45.7058" lon="5.76638">
        <ele>228</ele>
        <time>2022-05-17T06:51:14.798Z</time>
      </trkpt>
      <trkpt lat="45.70579" lon="5.76647">
        <ele>228</ele>
        <time>2022-05-17T06:51:15.797Z</time>
      </trkpt>
      <trkpt lat="45.70577" lon="5.76659">
        <ele>228</ele>
        <time>2022-05-17T06:51:16.798Z</time>
      </trkpt>
      <trkpt lat="45.70575" lon="5.76669">
        <ele>228</ele>
        <time>2022-05-17T06:51:17.798Z</time>
      </trkpt>
      <trkpt lat="45.70574" lon="5.76679">
        <ele>228</ele>
        <time>2022-05-17T06:51:18.798Z</time>
      </trkpt>
      <trkpt lat="45.70573" lon="5.76689">
        <ele>228</ele>
        <time>2022-05-17T06:51:19.798Z</time>
      </trkpt>
      <trkpt lat="45.70571" lon="5.76699">
        <ele>228</ele>
        <time>2022-05-17T06:51:20.798Z</time>
      </trkpt>
      <trkpt lat="45.7057" lon="5.76707">
        <ele>228</ele>
        <time>2022-05-17T06:51:21.798Z</time>
      </trkpt>
      <trkpt lat="45.70568" lon="5.76719">
        <ele>229</ele>
        <time>2022-05-17T06:51:22.798Z</time>
      </trkpt>
      <trkpt lat="45.70567" lon="5.76729">
        <ele>228</ele>
        <time>2022-05-17T06:51:23.798Z</time>
      </trkpt>
      <trkpt lat="45.70566" lon="5.76738">
        <ele>228</ele>
        <time>2022-05-17T06:51:24.798Z</time>
      </trkpt>
      <trkpt lat="45.70564" lon="5.76748">
        <ele>228</ele>
        <time>2022-05-17T06:51:25.798Z</time>
      </trkpt>
      <trkpt lat="45.70563" lon="5.76758">
        <ele>228</ele>
        <time>2022-05-17T06:51:26.797Z</time>
      </trkpt>
      <trkpt lat="45.70562" lon="5.76767">
        <ele>228</ele>
        <time>2022-05-17T06:51:27.798Z</time>
      </trkpt>
      <trkpt lat="45.7056" lon="5.76777">
        <ele>228</ele>
        <time>2022-05-17T06:51:28.798Z</time>
      </trkpt>
      <trkpt lat="45.70559" lon="5.76786">
        <ele>228</ele>
        <time>2022-05-17T06:51:29.798Z</time>
      </trkpt>
      <trkpt lat="45.70558" lon="5.76793">
        <ele>229</ele>
        <time>2022-05-17T06:51:30.797Z</time>
      </trkpt>
      <trkpt lat="45.70557" lon="5.76802">
        <ele>229</ele>
        <time>2022-05-17T06:51:31.798Z</time>
      </trkpt>
      <trkpt lat="45.70555" lon="5.76812">
        <ele>229</ele>
        <time>2022-05-17T06:51:32.797Z</time>
      </trkpt>
      <trkpt lat="45.70553" lon="5.76821">
        <ele>229</ele>
        <time>2022-05-17T06:51:33.798Z</time>
      </trkpt>
      <trkpt lat="45.70552" lon="5.76829">
        <ele>229</ele>
        <time>2022-05-17T06:51:34.798Z</time>
      </trkpt>
      <trkpt lat="45.70551" lon="5.76836">
        <ele>230</ele>
        <time>2022-05-17T06:51:35.798Z</time>
      </trkpt>
      <trkpt lat="45.70549" lon="5.76845">
        <ele>230</ele>
        <time>2022-05-17T06:51:36.797Z</time>
      </trkpt>
      <trkpt lat="45.70547" lon="5.76853">
        <ele>230</ele>
        <time>2022-05-17T06:51:37.798Z</time>
      </trkpt>
      <trkpt lat="45.70546" lon="5.76862">
        <ele>230</ele>
        <time>2022-05-17T06:51:38.798Z</time>
      </trkpt>
      <trkpt lat="45.70544" lon="5.76869">
        <ele>230</ele>
        <time>2022-05-17T06:51:39.798Z</time>
      </trkpt>
      <trkpt lat="45.70542" lon="5.76877">
        <ele>230</ele>
        <time>2022-05-17T06:51:40.798Z</time>
      </trkpt>
      <trkpt lat="45.7054" lon="5.76885">
        <ele>230</ele>
        <time>2022-05-17T06:51:41.798Z</time>
      </trkpt>
      <trkpt lat="45.70538" lon="5.76893">
        <ele>230</ele>
        <time>2022-05-17T06:51:42.798Z</time>
      </trkpt>
      <trkpt lat="45.70537" lon="5.76901">
        <ele>230</ele>
        <time>2022-05-17T06:51:43.798Z</time>
      </trkpt>
      <trkpt lat="45.70535" lon="5.76909">
        <ele>230</ele>
        <time>2022-05-17T06:51:44.797Z</time>
      </trkpt>
      <trkpt lat="45.70532" lon="5.76916">
        <ele>230</ele>
        <time>2022-05-17T06:51:45.798Z</time>
      </trkpt>
      <trkpt lat="45.7053" lon="5.76924">
        <ele>231</ele>
        <time>2022-05-17T06:51:46.798Z</time>
      </trkpt>
      <trkpt lat="45.70528" lon="5.76932">
        <ele>231</ele>
        <time>2022-05-17T06:51:47.798Z</time>
      </trkpt>
      <trkpt lat="45.70525" lon="5.76939">
        <ele>231</ele>
        <time>2022-05-17T06:51:48.798Z</time>
      </trkpt>
      <trkpt lat="45.70523" lon="5.76947">
        <ele>232</ele>
        <time>2022-05-17T06:51:49.798Z</time>
      </trkpt>
      <trkpt lat="45.70521" lon="5.76954">
        <ele>232</ele>
        <time>2022-05-17T06:51:50.798Z</time>
      </trkpt>
      <trkpt lat="45.70518" lon="5.76962">
        <ele>232</ele>
        <time>2022-05-17T06:51:51.797Z</time>
      </trkpt>
      <trkpt lat="45.70515" lon="5.7697">
        <ele>233</ele>
        <time>2022-05-17T06:51:52.797Z</time>
      </trkpt>
      <trkpt lat="45.70512" lon="5.76978">
        <ele>233</ele>
        <time>2022-05-17T06:51:53.797Z</time>
      </trkpt>
      <trkpt lat="45.7051" lon="5.76985">
        <ele>233</ele>
        <time>2022-05-17T06:51:54.798Z</time>
      </trkpt>
      <trkpt lat="45.70507" lon="5.76993">
        <ele>233</ele>
        <time>2022-05-17T06:51:55.798Z</time>
      </trkpt>
      <trkpt lat="45.70504" lon="5.77">
        <ele>233</ele>
        <time>2022-05-17T06:51:56.797Z</time>
      </trkpt>
      <trkpt lat="45.70501" lon="5.77007">
        <ele>234</ele>
        <time>2022-05-17T06:51:57.798Z</time>
      </trkpt>
      <trkpt lat="45.70498" lon="5.77015">
        <ele>234</ele>
        <time>2022-05-17T06:51:58.798Z</time>
      </trkpt>
      <trkpt lat="45.70496" lon="5.7702">
        <ele>234</ele>
        <time>2022-05-17T06:51:59.798Z</time>
      </trkpt>
      <trkpt lat="45.70492" lon="5.77029">
        <ele>234</ele>
        <time>2022-05-17T06:52:00.798Z</time>
      </trkpt>
      <trkpt lat="45.70489" lon="5.77035">
        <ele>234</ele>
        <time>2022-05-17T06:52:01.798Z</time>
      </trkpt>
      <trkpt lat="45.70486" lon="5.77042">
        <ele>234</ele>
        <time>2022-05-17T06:52:02.798Z</time>
      </trkpt>
      <trkpt lat="45.70482" lon="5.77049">
        <ele>234</ele>
        <time>2022-05-17T06:52:03.798Z</time>
      </trkpt>
      <trkpt lat="45.70479" lon="5.77056">
        <ele>234</ele>
        <time>2022-05-17T06:52:04.798Z</time>
      </trkpt>
      <trkpt lat="45.70476" lon="5.77062">
        <ele>234</ele>
        <time>2022-05-17T06:52:05.798Z</time>
      </trkpt>
      <trkpt lat="45.70472" lon="5.77069">
        <ele>234</ele>
        <time>2022-05-17T06:52:06.798Z</time>
      </trkpt>
      <trkpt lat="45.70468" lon="5.77075">
        <ele>234</ele>
        <time>2022-05-17T06:52:07.798Z</time>
      </trkpt>
      <trkpt lat="45.70465" lon="5.77082">
        <ele>234</ele>
        <time>2022-05-17T06:52:08.798Z</time>
      </trkpt>
      <trkpt lat="45.70462" lon="5.77088">
        <ele>234</ele>
        <time>2022-05-17T06:52:09.798Z</time>
      </trkpt>
      <trkpt lat="45.70458" lon="5.77095">
        <ele>234</ele>
        <time>2022-05-17T06:52:10.798Z</time>
      </trkpt>
      <trkpt lat="45.70455" lon="5.77101">
        <ele>235</ele>
        <time>2022-05-17T06:52:11.797Z</time>
      </trkpt>
      <trkpt lat="45.70451" lon="5.77108">
        <ele>235</ele>
        <time>2022-05-17T06:52:12.797Z</time>
      </trkpt>
      <trkpt lat="45.70448" lon="5.77113">
        <ele>234</ele>
        <time>2022-05-17T06:52:13.797Z</time>
      </trkpt>
      <trkpt lat="45.70444" lon="5.77119">
        <ele>234</ele>
        <time>2022-05-17T06:52:14.798Z</time>
      </trkpt>
      <trkpt lat="45.7044" lon="5.77127">
        <ele>234</ele>
        <time>2022-05-17T06:52:15.798Z</time>
      </trkpt>
      <trkpt lat="45.70437" lon="5.77134">
        <ele>235</ele>
        <time>2022-05-17T06:52:16.797Z</time>
      </trkpt>
      <trkpt lat="45.70433" lon="5.77141">
        <ele>235</ele>
        <time>2022-05-17T06:52:17.798Z</time>
      </trkpt>
      <trkpt lat="45.7043" lon="5.77148">
        <ele>235</ele>
        <time>2022-05-17T06:52:18.798Z</time>
      </trkpt>
      <trkpt lat="45.70427" lon="5.77154">
        <ele>235</ele>
        <time>2022-05-17T06:52:19.797Z</time>
      </trkpt>
      <trkpt lat="45.70422" lon="5.77162">
        <ele>236</ele>
        <time>2022-05-17T06:52:20.797Z</time>
      </trkpt>
      <trkpt lat="45.70418" lon="5.77168">
        <ele>236</ele>
        <time>2022-05-17T06:52:21.798Z</time>
      </trkpt>
      <trkpt lat="45.70414" lon="5.77173">
        <ele>237</ele>
        <time>2022-05-17T06:52:22.798Z</time>
      </trkpt>
      <trkpt lat="45.7041" lon="5.77176">
        <ele>237</ele>
        <time>2022-05-17T06:52:23.798Z</time>
      </trkpt>
      <trkpt lat="45.70403" lon="5.77179">
        <ele>237</ele>
        <time>2022-05-17T06:52:24.798Z</time>
      </trkpt>
      <trkpt lat="45.70398" lon="5.7718">
        <ele>237</ele>
        <time>2022-05-17T06:52:25.798Z</time>
      </trkpt>
      <trkpt lat="45.70392" lon="5.77179">
        <ele>236</ele>
        <time>2022-05-17T06:52:26.798Z</time>
      </trkpt>
      <trkpt lat="45.70386" lon="5.77179">
        <ele>236</ele>
        <time>2022-05-17T06:52:27.797Z</time>
      </trkpt>
      <trkpt lat="45.70382" lon="5.77181">
        <ele>236</ele>
        <time>2022-05-17T06:52:28.798Z</time>
      </trkpt>
      <trkpt lat="45.70376" lon="5.77186">
        <ele>236</ele>
        <time>2022-05-17T06:52:29.797Z</time>
      </trkpt>
      <trkpt lat="45.70374" lon="5.77193">
        <ele>236</ele>
        <time>2022-05-17T06:52:30.798Z</time>
      </trkpt>
      <trkpt lat="45.70372" lon="5.77201">
        <ele>235</ele>
        <time>2022-05-17T06:52:31.798Z</time>
      </trkpt>
      <trkpt lat="45.7037" lon="5.77209">
        <ele>235</ele>
        <time>2022-05-17T06:52:32.798Z</time>
      </trkpt>
      <trkpt lat="45.70368" lon="5.77216">
        <ele>236</ele>
        <time>2022-05-17T06:52:33.798Z</time>
      </trkpt>
      <trkpt lat="45.70365" lon="5.77224">
        <ele>236</ele>
        <time>2022-05-17T06:52:34.798Z</time>
      </trkpt>
      <trkpt lat="45.70363" lon="5.7723">
        <ele>236</ele>
        <time>2022-05-17T06:52:35.798Z</time>
      </trkpt>
      <trkpt lat="45.7036" lon="5.77237">
        <ele>236</ele>
        <time>2022-05-17T06:52:36.798Z</time>
      </trkpt>
      <trkpt lat="45.70357" lon="5.77245">
        <ele>236</ele>
        <time>2022-05-17T06:52:37.798Z</time>
      </trkpt>
      <trkpt lat="45.70355" lon="5.77251">
        <ele>236</ele>
        <time>2022-05-17T06:52:38.798Z</time>
      </trkpt>
      <trkpt lat="45.70352" lon="5.77261">
        <ele>236</ele>
        <time>2022-05-17T06:52:39.797Z</time>
      </trkpt>
      <trkpt lat="45.7035" lon="5.77269">
        <ele>236</ele>
        <time>2022-05-17T06:52:40.797Z</time>
      </trkpt>
      <trkpt lat="45.70348" lon="5.77277">
        <ele>236</ele>
        <time>2022-05-17T06:52:41.798Z</time>
      </trkpt>
      <trkpt lat="45.70346" lon="5.77283">
        <ele>237</ele>
        <time>2022-05-17T06:52:42.798Z</time>
      </trkpt>
      <trkpt lat="45.70344" lon="5.77293">
        <ele>237</ele>
        <time>2022-05-17T06:52:43.798Z</time>
      </trkpt>
      <trkpt lat="45.70343" lon="5.77301">
        <ele>237</ele>
        <time>2022-05-17T06:52:44.798Z</time>
      </trkpt>
      <trkpt lat="45.70342" lon="5.77309">
        <ele>237</ele>
        <time>2022-05-17T06:52:45.797Z</time>
      </trkpt>
      <trkpt lat="45.7034" lon="5.77317">
        <ele>237</ele>
        <time>2022-05-17T06:52:46.798Z</time>
      </trkpt>
      <trkpt lat="45.70339" lon="5.77326">
        <ele>237</ele>
        <time>2022-05-17T06:52:47.797Z</time>
      </trkpt>
      <trkpt lat="45.70337" lon="5.77334">
        <ele>237</ele>
        <time>2022-05-17T06:52:48.798Z</time>
      </trkpt>
      <trkpt lat="45.70336" lon="5.77342">
        <ele>237</ele>
        <time>2022-05-17T06:52:49.797Z</time>
      </trkpt>
      <trkpt lat="45.70334" lon="5.7735">
        <ele>237</ele>
        <time>2022-05-17T06:52:50.798Z</time>
      </trkpt>
      <trkpt lat="45.70333" lon="5.77358">
        <ele>237</ele>
        <time>2022-05-17T06:52:51.798Z</time>
      </trkpt>
      <trkpt lat="45.70331" lon="5.77367">
        <ele>238</ele>
        <time>2022-05-17T06:52:52.798Z</time>
      </trkpt>
      <trkpt lat="45.7033" lon="5.77375">
        <ele>238</ele>
        <time>2022-05-17T06:52:53.798Z</time>
      </trkpt>
      <trkpt lat="45.70328" lon="5.77384">
        <ele>239</ele>
        <time>2022-05-17T06:52:54.798Z</time>
      </trkpt>
      <trkpt lat="45.70327" lon="5.77392">
        <ele>239</ele>
        <time>2022-05-17T06:52:55.798Z</time>
      </trkpt>
      <trkpt lat="45.70325" lon="5.77398">
        <ele>240</ele>
        <time>2022-05-17T06:52:56.797Z</time>
      </trkpt>
      <trkpt lat="45.70324" lon="5.77407">
        <ele>240</ele>
        <time>2022-05-17T06:52:57.798Z</time>
      </trkpt>
      <trkpt lat="45.70322" lon="5.77416">
        <ele>240</ele>
        <time>2022-05-17T06:52:58.798Z</time>
      </trkpt>
      <trkpt lat="45.7032" lon="5.77425">
        <ele>240</ele>
        <time>2022-05-17T06:52:59.798Z</time>
      </trkpt>
      <trkpt lat="45.70318" lon="5.77433">
        <ele>240</ele>
        <time>2022-05-17T06:53:00.797Z</time>
      </trkpt>
      <trkpt lat="45.70317" lon="5.77442">
        <ele>240</ele>
        <time>2022-05-17T06:53:01.797Z</time>
      </trkpt>
      <trkpt lat="45.70316" lon="5.77449">
        <ele>240</ele>
        <time>2022-05-17T06:53:02.797Z</time>
      </trkpt>
      <trkpt lat="45.70314" lon="5.77459">
        <ele>241</ele>
        <time>2022-05-17T06:53:03.798Z</time>
      </trkpt>
      <trkpt lat="45.70313" lon="5.77468">
        <ele>241</ele>
        <time>2022-05-17T06:53:04.798Z</time>
      </trkpt>
      <trkpt lat="45.70311" lon="5.77476">
        <ele>241</ele>
        <time>2022-05-17T06:53:05.798Z</time>
      </trkpt>
      <trkpt lat="45.7031" lon="5.77485">
        <ele>241</ele>
        <time>2022-05-17T06:53:06.797Z</time>
      </trkpt>
      <trkpt lat="45.70309" lon="5.77494">
        <ele>241</ele>
        <time>2022-05-17T06:53:07.798Z</time>
      </trkpt>
      <trkpt lat="45.70308" lon="5.77503">
        <ele>241</ele>
        <time>2022-05-17T06:53:08.797Z</time>
      </trkpt>
      <trkpt lat="45.70306" lon="5.77512">
        <ele>241</ele>
        <time>2022-05-17T06:53:09.798Z</time>
      </trkpt>
      <trkpt lat="45.70305" lon="5.77521">
        <ele>241</ele>
        <time>2022-05-17T06:53:10.798Z</time>
      </trkpt>
      <trkpt lat="45.70304" lon="5.77531">
        <ele>241</ele>
        <time>2022-05-17T06:53:11.797Z</time>
      </trkpt>
      <trkpt lat="45.70303" lon="5.7754">
        <ele>241</ele>
        <time>2022-05-17T06:53:12.797Z</time>
      </trkpt>
      <trkpt lat="45.70302" lon="5.77549">
        <ele>242</ele>
        <time>2022-05-17T06:53:13.798Z</time>
      </trkpt>
      <trkpt lat="45.70301" lon="5.77559">
        <ele>242</ele>
        <time>2022-05-17T06:53:14.798Z</time>
      </trkpt>
      <trkpt lat="45.703" lon="5.77568">
        <ele>242</ele>
        <time>2022-05-17T06:53:15.798Z</time>
      </trkpt>
      <trkpt lat="45.70299" lon="5.77578">
        <ele>242</ele>
        <time>2022-05-17T06:53:16.798Z</time>
      </trkpt>
      <trkpt lat="45.70298" lon="5.77587">
        <ele>241</ele>
        <time>2022-05-17T06:53:17.798Z</time>
      </trkpt>
      <trkpt lat="45.70297" lon="5.77597">
        <ele>241</ele>
        <time>2022-05-17T06:53:18.798Z</time>
      </trkpt>
      <trkpt lat="45.70296" lon="5.77606">
        <ele>241</ele>
        <time>2022-05-17T06:53:19.798Z</time>
      </trkpt>
      <trkpt lat="45.70295" lon="5.77616">
        <ele>242</ele>
        <time>2022-05-17T06:53:20.798Z</time>
      </trkpt>
      <trkpt lat="45.70294" lon="5.77625">
        <ele>242</ele>
        <time>2022-05-17T06:53:21.797Z</time>
      </trkpt>
      <trkpt lat="45.70293" lon="5.77635">
        <ele>243</ele>
        <time>2022-05-17T06:53:22.798Z</time>
      </trkpt>
      <trkpt lat="45.70291" lon="5.77644">
        <ele>243</ele>
        <time>2022-05-17T06:53:23.798Z</time>
      </trkpt>
      <trkpt lat="45.70291" lon="5.77654">
        <ele>243</ele>
        <time>2022-05-17T06:53:24.798Z</time>
      </trkpt>
      <trkpt lat="45.7029" lon="5.77663">
        <ele>243</ele>
        <time>2022-05-17T06:53:25.797Z</time>
      </trkpt>
      <trkpt lat="45.70289" lon="5.77672">
        <ele>244</ele>
        <time>2022-05-17T06:53:26.797Z</time>
      </trkpt>
      <trkpt lat="45.70289" lon="5.77681">
        <ele>244</ele>
        <time>2022-05-17T06:53:27.797Z</time>
      </trkpt>
      <trkpt lat="45.70289" lon="5.77691">
        <ele>244</ele>
        <time>2022-05-17T06:53:28.797Z</time>
      </trkpt>
      <trkpt lat="45.70289" lon="5.777">
        <ele>244</ele>
        <time>2022-05-17T06:53:29.798Z</time>
      </trkpt>
      <trkpt lat="45.70289" lon="5.77709">
        <ele>244</ele>
        <time>2022-05-17T06:53:30.798Z</time>
      </trkpt>
      <trkpt lat="45.70291" lon="5.77719">
        <ele>244</ele>
        <time>2022-05-17T06:53:31.798Z</time>
      </trkpt>
      <trkpt lat="45.70292" lon="5.77728">
        <ele>244</ele>
        <time>2022-05-17T06:53:32.798Z</time>
      </trkpt>
      <trkpt lat="45.70293" lon="5.77737">
        <ele>244</ele>
        <time>2022-05-17T06:53:33.798Z</time>
      </trkpt>
      <trkpt lat="45.70296" lon="5.77746">
        <ele>245</ele>
        <time>2022-05-17T06:53:34.798Z</time>
      </trkpt>
      <trkpt lat="45.70297" lon="5.77756">
        <ele>245</ele>
        <time>2022-05-17T06:53:35.797Z</time>
      </trkpt>
      <trkpt lat="45.70299" lon="5.77765">
        <ele>246</ele>
        <time>2022-05-17T06:53:36.798Z</time>
      </trkpt>
      <trkpt lat="45.703" lon="5.77774">
        <ele>246</ele>
        <time>2022-05-17T06:53:37.798Z</time>
      </trkpt>
      <trkpt lat="45.703" lon="5.77783">
        <ele>246</ele>
        <time>2022-05-17T06:53:38.798Z</time>
      </trkpt>
      <trkpt lat="45.70301" lon="5.77793">
        <ele>246</ele>
        <time>2022-05-17T06:53:39.798Z</time>
      </trkpt>
      <trkpt lat="45.70303" lon="5.77802">
        <ele>246</ele>
        <time>2022-05-17T06:53:40.798Z</time>
      </trkpt>
      <trkpt lat="45.70304" lon="5.7781">
        <ele>246</ele>
        <time>2022-05-17T06:53:41.798Z</time>
      </trkpt>
      <trkpt lat="45.70306" lon="5.77819">
        <ele>246</ele>
        <time>2022-05-17T06:53:42.797Z</time>
      </trkpt>
      <trkpt lat="45.70309" lon="5.77828">
        <ele>246</ele>
        <time>2022-05-17T06:53:43.798Z</time>
      </trkpt>
      <trkpt lat="45.70311" lon="5.77837">
        <ele>246</ele>
        <time>2022-05-17T06:53:44.797Z</time>
      </trkpt>
      <trkpt lat="45.70312" lon="5.77845">
        <ele>246</ele>
        <time>2022-05-17T06:53:45.798Z</time>
      </trkpt>
      <trkpt lat="45.70313" lon="5.77854">
        <ele>246</ele>
        <time>2022-05-17T06:53:46.797Z</time>
      </trkpt>
      <trkpt lat="45.70314" lon="5.77863">
        <ele>246</ele>
        <time>2022-05-17T06:53:47.798Z</time>
      </trkpt>
      <trkpt lat="45.70315" lon="5.7787">
        <ele>246</ele>
        <time>2022-05-17T06:53:48.798Z</time>
      </trkpt>
      <trkpt lat="45.70316" lon="5.7788">
        <ele>246</ele>
        <time>2022-05-17T06:53:49.798Z</time>
      </trkpt>
      <trkpt lat="45.70318" lon="5.77889">
        <ele>247</ele>
        <time>2022-05-17T06:53:50.797Z</time>
      </trkpt>
      <trkpt lat="45.70318" lon="5.77898">
        <ele>247</ele>
        <time>2022-05-17T06:53:51.797Z</time>
      </trkpt>
      <trkpt lat="45.7032" lon="5.77906">
        <ele>247</ele>
        <time>2022-05-17T06:53:52.798Z</time>
      </trkpt>
      <trkpt lat="45.70321" lon="5.77913">
        <ele>247</ele>
        <time>2022-05-17T06:53:53.798Z</time>
      </trkpt>
      <trkpt lat="45.70323" lon="5.77923">
        <ele>247</ele>
        <time>2022-05-17T06:53:54.798Z</time>
      </trkpt>
      <trkpt lat="45.70324" lon="5.77931">
        <ele>247</ele>
        <time>2022-05-17T06:53:55.797Z</time>
      </trkpt>
      <trkpt lat="45.70325" lon="5.77939">
        <ele>247</ele>
        <time>2022-05-17T06:53:56.798Z</time>
      </trkpt>
      <trkpt lat="45.70326" lon="5.77946">
        <ele>247</ele>
        <time>2022-05-17T06:53:57.797Z</time>
      </trkpt>
      <trkpt lat="45.70327" lon="5.77954">
        <ele>247</ele>
        <time>2022-05-17T06:53:58.798Z</time>
      </trkpt>
      <trkpt lat="45.70329" lon="5.77964">
        <ele>247</ele>
        <time>2022-05-17T06:53:59.798Z</time>
      </trkpt>
      <trkpt lat="45.70331" lon="5.77972">
        <ele>247</ele>
        <time>2022-05-17T06:54:00.798Z</time>
      </trkpt>
      <trkpt lat="45.70332" lon="5.77981">
        <ele>247</ele>
        <time>2022-05-17T06:54:01.798Z</time>
      </trkpt>
      <trkpt lat="45.70333" lon="5.77989">
        <ele>248</ele>
        <time>2022-05-17T06:54:02.797Z</time>
      </trkpt>
      <trkpt lat="45.70335" lon="5.77997">
        <ele>248</ele>
        <time>2022-05-17T06:54:03.798Z</time>
      </trkpt>
      <trkpt lat="45.70336" lon="5.78006">
        <ele>248</ele>
        <time>2022-05-17T06:54:04.798Z</time>
      </trkpt>
      <trkpt lat="45.70337" lon="5.78014">
        <ele>249</ele>
        <time>2022-05-17T06:54:05.798Z</time>
      </trkpt>
      <trkpt lat="45.70338" lon="5.78023">
        <ele>249</ele>
        <time>2022-05-17T06:54:06.798Z</time>
      </trkpt>
      <trkpt lat="45.70339" lon="5.7803">
        <ele>249</ele>
        <time>2022-05-17T06:54:07.797Z</time>
      </trkpt>
      <trkpt lat="45.70341" lon="5.78038">
        <ele>249</ele>
        <time>2022-05-17T06:54:08.798Z</time>
      </trkpt>
      <trkpt lat="45.70342" lon="5.78048">
        <ele>249</ele>
        <time>2022-05-17T06:54:09.798Z</time>
      </trkpt>
      <trkpt lat="45.70344" lon="5.78057">
        <ele>249</ele>
        <time>2022-05-17T06:54:10.798Z</time>
      </trkpt>
      <trkpt lat="45.70345" lon="5.78065">
        <ele>249</ele>
        <time>2022-05-17T06:54:11.797Z</time>
      </trkpt>
      <trkpt lat="45.70346" lon="5.78073">
        <ele>249</ele>
        <time>2022-05-17T06:54:12.798Z</time>
      </trkpt>
      <trkpt lat="45.70348" lon="5.78082">
        <ele>250</ele>
        <time>2022-05-17T06:54:13.798Z</time>
      </trkpt>
      <trkpt lat="45.70349" lon="5.7809">
        <ele>250</ele>
        <time>2022-05-17T06:54:14.797Z</time>
      </trkpt>
      <trkpt lat="45.7035" lon="5.78099">
        <ele>250</ele>
        <time>2022-05-17T06:54:15.797Z</time>
      </trkpt>
      <trkpt lat="45.70351" lon="5.78107">
        <ele>250</ele>
        <time>2022-05-17T06:54:16.797Z</time>
      </trkpt>
      <trkpt lat="45.70353" lon="5.78116">
        <ele>250</ele>
        <time>2022-05-17T06:54:17.798Z</time>
      </trkpt>
      <trkpt lat="45.70354" lon="5.78125">
        <ele>250</ele>
        <time>2022-05-17T06:54:18.798Z</time>
      </trkpt>
      <trkpt lat="45.70356" lon="5.78133">
        <ele>249</ele>
        <time>2022-05-17T06:54:19.798Z</time>
      </trkpt>
      <trkpt lat="45.70357" lon="5.78142">
        <ele>249</ele>
        <time>2022-05-17T06:54:20.797Z</time>
      </trkpt>
      <trkpt lat="45.70359" lon="5.7815">
        <ele>250</ele>
        <time>2022-05-17T06:54:21.798Z</time>
      </trkpt>
      <trkpt lat="45.7036" lon="5.78159">
        <ele>250</ele>
        <time>2022-05-17T06:54:22.798Z</time>
      </trkpt>
      <trkpt lat="45.70361" lon="5.78168">
        <ele>250</ele>
        <time>2022-05-17T06:54:23.798Z</time>
      </trkpt>
      <trkpt lat="45.70363" lon="5.78177">
        <ele>251</ele>
        <time>2022-05-17T06:54:24.798Z</time>
      </trkpt>
      <trkpt lat="45.70364" lon="5.78186">
        <ele>251</ele>
        <time>2022-05-17T06:54:25.798Z</time>
      </trkpt>
      <trkpt lat="45.70365" lon="5.78195">
        <ele>251</ele>
        <time>2022-05-17T06:54:26.797Z</time>
      </trkpt>
      <trkpt lat="45.70366" lon="5.78203">
        <ele>251</ele>
        <time>2022-05-17T06:54:27.797Z</time>
      </trkpt>
      <trkpt lat="45.70367" lon="5.78212">
        <ele>251</ele>
        <time>2022-05-17T06:54:28.798Z</time>
      </trkpt>
      <trkpt lat="45.70368" lon="5.78221">
        <ele>251</ele>
        <time>2022-05-17T06:54:29.797Z</time>
      </trkpt>
      <trkpt lat="45.7037" lon="5.7823">
        <ele>251</ele>
        <time>2022-05-17T06:54:30.798Z</time>
      </trkpt>
      <trkpt lat="45.70371" lon="5.78236">
        <ele>251</ele>
        <time>2022-05-17T06:54:31.798Z</time>
      </trkpt>
      <trkpt lat="45.70372" lon="5.78247">
        <ele>252</ele>
        <time>2022-05-17T06:54:32.798Z</time>
      </trkpt>
      <trkpt lat="45.70373" lon="5.78256">
        <ele>252</ele>
        <time>2022-05-17T06:54:33.797Z</time>
      </trkpt>
      <trkpt lat="45.70374" lon="5.78265">
        <ele>252</ele>
        <time>2022-05-17T06:54:34.798Z</time>
      </trkpt>
      <trkpt lat="45.70375" lon="5.78274">
        <ele>252</ele>
        <time>2022-05-17T06:54:35.797Z</time>
      </trkpt>
      <trkpt lat="45.70375" lon="5.78281">
        <ele>252</ele>
        <time>2022-05-17T06:54:36.797Z</time>
      </trkpt>
      <trkpt lat="45.70375" lon="5.7829">
        <ele>253</ele>
        <time>2022-05-17T06:54:37.797Z</time>
      </trkpt>
      <trkpt lat="45.70375" lon="5.783">
        <ele>253</ele>
        <time>2022-05-17T06:54:38.798Z</time>
      </trkpt>
      <trkpt lat="45.70375" lon="5.78309">
        <ele>253</ele>
        <time>2022-05-17T06:54:39.798Z</time>
      </trkpt>
      <trkpt lat="45.70375" lon="5.78317">
        <ele>253</ele>
        <time>2022-05-17T06:54:40.797Z</time>
      </trkpt>
      <trkpt lat="45.70374" lon="5.78324">
        <ele>253</ele>
        <time>2022-05-17T06:54:41.798Z</time>
      </trkpt>
      <trkpt lat="45.70374" lon="5.78333">
        <ele>253</ele>
        <time>2022-05-17T06:54:42.798Z</time>
      </trkpt>
      <trkpt lat="45.70373" lon="5.78342">
        <ele>254</ele>
        <time>2022-05-17T06:54:43.798Z</time>
      </trkpt>
      <trkpt lat="45.70372" lon="5.78352">
        <ele>254</ele>
        <time>2022-05-17T06:54:44.798Z</time>
      </trkpt>
      <trkpt lat="45.70371" lon="5.78361">
        <ele>254</ele>
        <time>2022-05-17T06:54:45.797Z</time>
      </trkpt>
      <trkpt lat="45.70369" lon="5.78369">
        <ele>255</ele>
        <time>2022-05-17T06:54:46.798Z</time>
      </trkpt>
      <trkpt lat="45.70368" lon="5.78378">
        <ele>255</ele>
        <time>2022-05-17T06:54:47.798Z</time>
      </trkpt>
      <trkpt lat="45.70367" lon="5.78386">
        <ele>255</ele>
        <time>2022-05-17T06:54:48.798Z</time>
      </trkpt>
      <trkpt lat="45.70365" lon="5.78394">
        <ele>256</ele>
        <time>2022-05-17T06:54:49.797Z</time>
      </trkpt>
      <trkpt lat="45.70364" lon="5.78402">
        <ele>256</ele>
        <time>2022-05-17T06:54:50.798Z</time>
      </trkpt>
      <trkpt lat="45.70362" lon="5.7841">
        <ele>256</ele>
        <time>2022-05-17T06:54:51.797Z</time>
      </trkpt>
      <trkpt lat="45.70361" lon="5.78418">
        <ele>256</ele>
        <time>2022-05-17T06:54:52.798Z</time>
      </trkpt>
      <trkpt lat="45.7036" lon="5.78426">
        <ele>257</ele>
        <time>2022-05-17T06:54:53.798Z</time>
      </trkpt>
      <trkpt lat="45.70358" lon="5.78434">
        <ele>257</ele>
        <time>2022-05-17T06:54:54.798Z</time>
      </trkpt>
      <trkpt lat="45.70357" lon="5.78443">
        <ele>257</ele>
        <time>2022-05-17T06:54:55.798Z</time>
      </trkpt>
      <trkpt lat="45.70356" lon="5.78451">
        <ele>258</ele>
        <time>2022-05-17T06:54:56.797Z</time>
      </trkpt>
      <trkpt lat="45.70354" lon="5.78459">
        <ele>258</ele>
        <time>2022-05-17T06:54:57.798Z</time>
      </trkpt>
      <trkpt lat="45.70353" lon="5.78467">
        <ele>258</ele>
        <time>2022-05-17T06:54:58.798Z</time>
      </trkpt>
      <trkpt lat="45.70352" lon="5.78475">
        <ele>258</ele>
        <time>2022-05-17T06:54:59.798Z</time>
      </trkpt>
      <trkpt lat="45.70351" lon="5.78483">
        <ele>258</ele>
        <time>2022-05-17T06:55:00.798Z</time>
      </trkpt>
      <trkpt lat="45.70349" lon="5.78491">
        <ele>258</ele>
        <time>2022-05-17T06:55:01.798Z</time>
      </trkpt>
      <trkpt lat="45.70348" lon="5.785">
        <ele>259</ele>
        <time>2022-05-17T06:55:02.798Z</time>
      </trkpt>
      <trkpt lat="45.70347" lon="5.78508">
        <ele>259</ele>
        <time>2022-05-17T06:55:03.797Z</time>
      </trkpt>
      <trkpt lat="45.70346" lon="5.78516">
        <ele>260</ele>
        <time>2022-05-17T06:55:04.798Z</time>
      </trkpt>
      <trkpt lat="45.70345" lon="5.78524">
        <ele>260</ele>
        <time>2022-05-17T06:55:05.798Z</time>
      </trkpt>
      <trkpt lat="45.70343" lon="5.78532">
        <ele>260</ele>
        <time>2022-05-17T06:55:06.798Z</time>
      </trkpt>
      <trkpt lat="45.70342" lon="5.7854">
        <ele>260</ele>
        <time>2022-05-17T06:55:07.798Z</time>
      </trkpt>
      <trkpt lat="45.70342" lon="5.78546">
        <ele>260</ele>
        <time>2022-05-17T06:55:08.798Z</time>
      </trkpt>
      <trkpt lat="45.70341" lon="5.78554">
        <ele>260</ele>
        <time>2022-05-17T06:55:09.798Z</time>
      </trkpt>
      <trkpt lat="45.7034" lon="5.78564">
        <ele>259</ele>
        <time>2022-05-17T06:55:10.798Z</time>
      </trkpt>
      <trkpt lat="45.70339" lon="5.78572">
        <ele>259</ele>
        <time>2022-05-17T06:55:11.798Z</time>
      </trkpt>
      <trkpt lat="45.70339" lon="5.78581">
        <ele>259</ele>
        <time>2022-05-17T06:55:12.797Z</time>
      </trkpt>
      <trkpt lat="45.70338" lon="5.78588">
        <ele>260</ele>
        <time>2022-05-17T06:55:13.797Z</time>
      </trkpt>
      <trkpt lat="45.70338" lon="5.78598">
        <ele>260</ele>
        <time>2022-05-17T06:55:14.797Z</time>
      </trkpt>
      <trkpt lat="45.70338" lon="5.78608">
        <ele>261</ele>
        <time>2022-05-17T06:55:15.798Z</time>
      </trkpt>
      <trkpt lat="45.70338" lon="5.78616">
        <ele>261</ele>
        <time>2022-05-17T06:55:16.797Z</time>
      </trkpt>
      <trkpt lat="45.70337" lon="5.78625">
        <ele>262</ele>
        <time>2022-05-17T06:55:17.798Z</time>
      </trkpt>
      <trkpt lat="45.70337" lon="5.78634">
        <ele>262</ele>
        <time>2022-05-17T06:55:18.798Z</time>
      </trkpt>
      <trkpt lat="45.70337" lon="5.78643">
        <ele>263</ele>
        <time>2022-05-17T06:55:19.798Z</time>
      </trkpt>
      <trkpt lat="45.70337" lon="5.78652">
        <ele>263</ele>
        <time>2022-05-17T06:55:20.798Z</time>
      </trkpt>
      <trkpt lat="45.70337" lon="5.78661">
        <ele>263</ele>
        <time>2022-05-17T06:55:21.798Z</time>
      </trkpt>
      <trkpt lat="45.70337" lon="5.7867">
        <ele>263</ele>
        <time>2022-05-17T06:55:22.798Z</time>
      </trkpt>
      <trkpt lat="45.70337" lon="5.7868">
        <ele>263</ele>
        <time>2022-05-17T06:55:23.798Z</time>
      </trkpt>
      <trkpt lat="45.70337" lon="5.78689">
        <ele>263</ele>
        <time>2022-05-17T06:55:24.797Z</time>
      </trkpt>
      <trkpt lat="45.70336" lon="5.78698">
        <ele>263</ele>
        <time>2022-05-17T06:55:25.797Z</time>
      </trkpt>
      <trkpt lat="45.70336" lon="5.78707">
        <ele>263</ele>
        <time>2022-05-17T06:55:26.798Z</time>
      </trkpt>
      <trkpt lat="45.70335" lon="5.78716">
        <ele>263</ele>
        <time>2022-05-17T06:55:27.798Z</time>
      </trkpt>
      <trkpt lat="45.70334" lon="5.78725">
        <ele>263</ele>
        <time>2022-05-17T06:55:28.798Z</time>
      </trkpt>
      <trkpt lat="45.70333" lon="5.78734">
        <ele>264</ele>
        <time>2022-05-17T06:55:29.798Z</time>
      </trkpt>
      <trkpt lat="45.70332" lon="5.78743">
        <ele>264</ele>
        <time>2022-05-17T06:55:30.798Z</time>
      </trkpt>
      <trkpt lat="45.7033" lon="5.78752">
        <ele>264</ele>
        <time>2022-05-17T06:55:31.798Z</time>
      </trkpt>
      <trkpt lat="45.70329" lon="5.78761">
        <ele>265</ele>
        <time>2022-05-17T06:55:32.798Z</time>
      </trkpt>
      <trkpt lat="45.70327" lon="5.7877">
        <ele>265</ele>
        <time>2022-05-17T06:55:33.797Z</time>
      </trkpt>
      <trkpt lat="45.70325" lon="5.78779">
        <ele>265</ele>
        <time>2022-05-17T06:55:34.798Z</time>
      </trkpt>
      <trkpt lat="45.70323" lon="5.78788">
        <ele>265</ele>
        <time>2022-05-17T06:55:35.798Z</time>
      </trkpt>
      <trkpt lat="45.7032" lon="5.78796">
        <ele>265</ele>
        <time>2022-05-17T06:55:36.798Z</time>
      </trkpt>
      <trkpt lat="45.70318" lon="5.78805">
        <ele>265</ele>
        <time>2022-05-17T06:55:37.798Z</time>
      </trkpt>
      <trkpt lat="45.70316" lon="5.78812">
        <ele>266</ele>
        <time>2022-05-17T06:55:38.798Z</time>
      </trkpt>
      <trkpt lat="45.70313" lon="5.78822">
        <ele>266</ele>
        <time>2022-05-17T06:55:39.798Z</time>
      </trkpt>
      <trkpt lat="45.7031" lon="5.78831">
        <ele>267</ele>
        <time>2022-05-17T06:55:40.797Z</time>
      </trkpt>
      <trkpt lat="45.70307" lon="5.78839">
        <ele>267</ele>
        <time>2022-05-17T06:55:41.797Z</time>
      </trkpt>
      <trkpt lat="45.70305" lon="5.78848">
        <ele>266</ele>
        <time>2022-05-17T06:55:42.797Z</time>
      </trkpt>
      <trkpt lat="45.70302" lon="5.78856">
        <ele>266</ele>
        <time>2022-05-17T06:55:43.798Z</time>
      </trkpt>
      <trkpt lat="45.70299" lon="5.78865">
        <ele>267</ele>
        <time>2022-05-17T06:55:44.798Z</time>
      </trkpt>
      <trkpt lat="45.70297" lon="5.78873">
        <ele>267</ele>
        <time>2022-05-17T06:55:45.798Z</time>
      </trkpt>
      <trkpt lat="45.70294" lon="5.78882">
        <ele>267</ele>
        <time>2022-05-17T06:55:46.798Z</time>
      </trkpt>
      <trkpt lat="45.70292" lon="5.78891">
        <ele>267</ele>
        <time>2022-05-17T06:55:47.798Z</time>
      </trkpt>
      <trkpt lat="45.7029" lon="5.78899">
        <ele>266</ele>
        <time>2022-05-17T06:55:48.798Z</time>
      </trkpt>
      <trkpt lat="45.70287" lon="5.78907">
        <ele>266</ele>
        <time>2022-05-17T06:55:49.798Z</time>
      </trkpt>
      <trkpt lat="45.70285" lon="5.78915">
        <ele>266</ele>
        <time>2022-05-17T06:55:50.798Z</time>
      </trkpt>
      <trkpt lat="45.70282" lon="5.78923">
        <ele>266</ele>
        <time>2022-05-17T06:55:51.798Z</time>
      </trkpt>
      <trkpt lat="45.7028" lon="5.78931">
        <ele>266</ele>
        <time>2022-05-17T06:55:52.797Z</time>
      </trkpt>
      <trkpt lat="45.70278" lon="5.78938">
        <ele>266</ele>
        <time>2022-05-17T06:55:53.798Z</time>
      </trkpt>
      <trkpt lat="45.70275" lon="5.78948">
        <ele>267</ele>
        <time>2022-05-17T06:55:54.798Z</time>
      </trkpt>
      <trkpt lat="45.70273" lon="5.78956">
        <ele>267</ele>
        <time>2022-05-17T06:55:55.797Z</time>
      </trkpt>
      <trkpt lat="45.70271" lon="5.78965">
        <ele>268</ele>
        <time>2022-05-17T06:55:56.798Z</time>
      </trkpt>
      <trkpt lat="45.70268" lon="5.78973">
        <ele>268</ele>
        <time>2022-05-17T06:55:57.797Z</time>
      </trkpt>
      <trkpt lat="45.70266" lon="5.78981">
        <ele>269</ele>
        <time>2022-05-17T06:55:58.798Z</time>
      </trkpt>
      <trkpt lat="45.70264" lon="5.78989">
        <ele>269</ele>
        <time>2022-05-17T06:55:59.798Z</time>
      </trkpt>
      <trkpt lat="45.70261" lon="5.78998">
        <ele>269</ele>
        <time>2022-05-17T06:56:00.798Z</time>
      </trkpt>
      <trkpt lat="45.70259" lon="5.79006">
        <ele>270</ele>
        <time>2022-05-17T06:56:01.797Z</time>
      </trkpt>
      <trkpt lat="45.70257" lon="5.79012">
        <ele>270</ele>
        <time>2022-05-17T06:56:02.798Z</time>
      </trkpt>
      <trkpt lat="45.70254" lon="5.79022">
        <ele>270</ele>
        <time>2022-05-17T06:56:03.797Z</time>
      </trkpt>
      <trkpt lat="45.70252" lon="5.79031">
        <ele>271</ele>
        <time>2022-05-17T06:56:04.798Z</time>
      </trkpt>
      <trkpt lat="45.7025" lon="5.79039">
        <ele>272</ele>
        <time>2022-05-17T06:56:05.798Z</time>
      </trkpt>
      <trkpt lat="45.70248" lon="5.79046">
        <ele>273</ele>
        <time>2022-05-17T06:56:06.798Z</time>
      </trkpt>
      <trkpt lat="45.70246" lon="5.79054">
        <ele>273</ele>
        <time>2022-05-17T06:56:07.798Z</time>
      </trkpt>
      <trkpt lat="45.70243" lon="5.79064">
        <ele>274</ele>
        <time>2022-05-17T06:56:08.797Z</time>
      </trkpt>
      <trkpt lat="45.7024" lon="5.79072">
        <ele>274</ele>
        <time>2022-05-17T06:56:09.798Z</time>
      </trkpt>
      <trkpt lat="45.70238" lon="5.7908">
        <ele>274</ele>
        <time>2022-05-17T06:56:10.798Z</time>
      </trkpt>
      <trkpt lat="45.70236" lon="5.79086">
        <ele>275</ele>
        <time>2022-05-17T06:56:11.798Z</time>
      </trkpt>
      <trkpt lat="45.70233" lon="5.79095">
        <ele>275</ele>
        <time>2022-05-17T06:56:12.798Z</time>
      </trkpt>
      <trkpt lat="45.70231" lon="5.79103">
        <ele>275</ele>
        <time>2022-05-17T06:56:13.798Z</time>
      </trkpt>
      <trkpt lat="45.70229" lon="5.7911">
        <ele>274</ele>
        <time>2022-05-17T06:56:14.798Z</time>
      </trkpt>
      <trkpt lat="45.70227" lon="5.79118">
        <ele>274</ele>
        <time>2022-05-17T06:56:15.797Z</time>
      </trkpt>
      <trkpt lat="45.70225" lon="5.79126">
        <ele>274</ele>
        <time>2022-05-17T06:56:16.798Z</time>
      </trkpt>
      <trkpt lat="45.70223" lon="5.79133">
        <ele>273</ele>
        <time>2022-05-17T06:56:17.798Z</time>
      </trkpt>
      <trkpt lat="45.70221" lon="5.79141">
        <ele>273</ele>
        <time>2022-05-17T06:56:18.798Z</time>
      </trkpt>
      <trkpt lat="45.70219" lon="5.79149">
        <ele>273</ele>
        <time>2022-05-17T06:56:19.798Z</time>
      </trkpt>
      <trkpt lat="45.70217" lon="5.79157">
        <ele>273</ele>
        <time>2022-05-17T06:56:20.798Z</time>
      </trkpt>
      <trkpt lat="45.70215" lon="5.79164">
        <ele>273</ele>
        <time>2022-05-17T06:56:21.798Z</time>
      </trkpt>
      <trkpt lat="45.70213" lon="5.79172">
        <ele>273</ele>
        <time>2022-05-17T06:56:22.797Z</time>
      </trkpt>
      <trkpt lat="45.7021" lon="5.7918">
        <ele>274</ele>
        <time>2022-05-17T06:56:23.797Z</time>
      </trkpt>
      <trkpt lat="45.70208" lon="5.79187">
        <ele>274</ele>
        <time>2022-05-17T06:56:24.798Z</time>
      </trkpt>
      <trkpt lat="45.70206" lon="5.79194">
        <ele>274</ele>
        <time>2022-05-17T06:56:25.798Z</time>
      </trkpt>
      <trkpt lat="45.70204" lon="5.792">
        <ele>274</ele>
        <time>2022-05-17T06:56:26.798Z</time>
      </trkpt>
      <trkpt lat="45.70201" lon="5.79207">
        <ele>274</ele>
        <time>2022-05-17T06:56:27.797Z</time>
      </trkpt>
      <trkpt lat="45.70198" lon="5.79215">
        <ele>274</ele>
        <time>2022-05-17T06:56:28.798Z</time>
      </trkpt>
      <trkpt lat="45.70195" lon="5.79222">
        <ele>274</ele>
        <time>2022-05-17T06:56:29.798Z</time>
      </trkpt>
      <trkpt lat="45.70193" lon="5.79227">
        <ele>274</ele>
        <time>2022-05-17T06:56:30.798Z</time>
      </trkpt>
      <trkpt lat="45.70189" lon="5.79234">
        <ele>275</ele>
        <time>2022-05-17T06:56:31.797Z</time>
      </trkpt>
      <trkpt lat="45.70185" lon="5.79239">
        <ele>275</ele>
        <time>2022-05-17T06:56:32.798Z</time>
      </trkpt>
      <trkpt lat="45.70181" lon="5.79246">
        <ele>275</ele>
        <time>2022-05-17T06:56:33.798Z</time>
      </trkpt>
      <trkpt lat="45.70176" lon="5.79251">
        <ele>276</ele>
        <time>2022-05-17T06:56:34.798Z</time>
      </trkpt>
      <trkpt lat="45.70173" lon="5.79255">
        <ele>276</ele>
        <time>2022-05-17T06:56:35.798Z</time>
      </trkpt>
      <trkpt lat="45.70168" lon="5.79259">
        <ele>276</ele>
        <time>2022-05-17T06:56:36.798Z</time>
      </trkpt>
      <trkpt lat="45.70163" lon="5.79262">
        <ele>276</ele>
        <time>2022-05-17T06:56:37.798Z</time>
      </trkpt>
      <trkpt lat="45.70157" lon="5.79266">
        <ele>277</ele>
        <time>2022-05-17T06:56:38.798Z</time>
      </trkpt>
      <trkpt lat="45.70152" lon="5.79269">
        <ele>278</ele>
        <time>2022-05-17T06:56:39.798Z</time>
      </trkpt>
      <trkpt lat="45.70148" lon="5.79271">
        <ele>278</ele>
        <time>2022-05-17T06:56:40.798Z</time>
      </trkpt>
      <trkpt lat="45.70142" lon="5.79274">
        <ele>279</ele>
        <time>2022-05-17T06:56:41.798Z</time>
      </trkpt>
      <trkpt lat="45.70137" lon="5.79278">
        <ele>280</ele>
        <time>2022-05-17T06:56:42.798Z</time>
      </trkpt>
      <trkpt lat="45.70132" lon="5.7928">
        <ele>280</ele>
        <time>2022-05-17T06:56:43.797Z</time>
      </trkpt>
      <trkpt lat="45.70127" lon="5.79284">
        <ele>281</ele>
        <time>2022-05-17T06:56:44.798Z</time>
      </trkpt>
      <trkpt lat="45.7012" lon="5.79288">
        <ele>282</ele>
        <time>2022-05-17T06:56:45.797Z</time>
      </trkpt>
      <trkpt lat="45.70115" lon="5.79292">
        <ele>284</ele>
        <time>2022-05-17T06:56:46.798Z</time>
      </trkpt>
      <trkpt lat="45.7011" lon="5.79296">
        <ele>285</ele>
        <time>2022-05-17T06:56:47.798Z</time>
      </trkpt>
      <trkpt lat="45.70104" lon="5.79301">
        <ele>286</ele>
        <time>2022-05-17T06:56:48.798Z</time>
      </trkpt>
      <trkpt lat="45.70099" lon="5.79307">
        <ele>287</ele>
        <time>2022-05-17T06:56:49.798Z</time>
      </trkpt>
      <trkpt lat="45.70093" lon="5.79313">
        <ele>289</ele>
        <time>2022-05-17T06:56:50.798Z</time>
      </trkpt>
      <trkpt lat="45.70089" lon="5.79319">
        <ele>290</ele>
        <time>2022-05-17T06:56:51.798Z</time>
      </trkpt>
      <trkpt lat="45.70084" lon="5.79325">
        <ele>291</ele>
        <time>2022-05-17T06:56:52.798Z</time>
      </trkpt>
      <trkpt lat="45.7008" lon="5.79329">
        <ele>292</ele>
        <time>2022-05-17T06:56:53.798Z</time>
      </trkpt>
      <trkpt lat="45.70075" lon="5.79334">
        <ele>292</ele>
        <time>2022-05-17T06:56:54.797Z</time>
      </trkpt>
      <trkpt lat="45.7007" lon="5.79339">
        <ele>292</ele>
        <time>2022-05-17T06:56:55.798Z</time>
      </trkpt>
      <trkpt lat="45.70066" lon="5.79344">
        <ele>292</ele>
        <time>2022-05-17T06:56:56.798Z</time>
      </trkpt>
      <trkpt lat="45.70062" lon="5.79349">
        <ele>292</ele>
        <time>2022-05-17T06:56:57.798Z</time>
      </trkpt>
      <trkpt lat="45.70057" lon="5.79354">
        <ele>292</ele>
        <time>2022-05-17T06:56:58.798Z</time>
      </trkpt>
      <trkpt lat="45.70053" lon="5.7936">
        <ele>292</ele>
        <time>2022-05-17T06:56:59.798Z</time>
      </trkpt>
      <trkpt lat="45.70049" lon="5.79365">
        <ele>292</ele>
        <time>2022-05-17T06:57:00.798Z</time>
      </trkpt>
      <trkpt lat="45.70045" lon="5.79369">
        <ele>292</ele>
        <time>2022-05-17T06:57:01.798Z</time>
      </trkpt>
      <trkpt lat="45.7004" lon="5.79374">
        <ele>292</ele>
        <time>2022-05-17T06:57:02.798Z</time>
      </trkpt>
      <trkpt lat="45.70035" lon="5.79379">
        <ele>292</ele>
        <time>2022-05-17T06:57:03.798Z</time>
      </trkpt>
      <trkpt lat="45.7003" lon="5.79384">
        <ele>292</ele>
        <time>2022-05-17T06:57:04.798Z</time>
      </trkpt>
      <trkpt lat="45.70025" lon="5.79388">
        <ele>293</ele>
        <time>2022-05-17T06:57:05.798Z</time>
      </trkpt>
      <trkpt lat="45.7002" lon="5.79391">
        <ele>293</ele>
        <time>2022-05-17T06:57:06.798Z</time>
      </trkpt>
      <trkpt lat="45.70015" lon="5.79394">
        <ele>293</ele>
        <time>2022-05-17T06:57:07.798Z</time>
      </trkpt>
      <trkpt lat="45.70009" lon="5.79398">
        <ele>293</ele>
        <time>2022-05-17T06:57:08.798Z</time>
      </trkpt>
      <trkpt lat="45.70004" lon="5.794">
        <ele>293</ele>
        <time>2022-05-17T06:57:09.798Z</time>
      </trkpt>
      <trkpt lat="45.69998" lon="5.79401">
        <ele>294</ele>
        <time>2022-05-17T06:57:10.798Z</time>
      </trkpt>
      <trkpt lat="45.69993" lon="5.79402">
        <ele>294</ele>
        <time>2022-05-17T06:57:11.798Z</time>
      </trkpt>
      <trkpt lat="45.69987" lon="5.79403">
        <ele>293</ele>
        <time>2022-05-17T06:57:12.798Z</time>
      </trkpt>
      <trkpt lat="45.69982" lon="5.79402">
        <ele>293</ele>
        <time>2022-05-17T06:57:13.798Z</time>
      </trkpt>
      <trkpt lat="45.69977" lon="5.79402">
        <ele>293</ele>
        <time>2022-05-17T06:57:14.798Z</time>
      </trkpt>
      <trkpt lat="45.69971" lon="5.794">
        <ele>293</ele>
        <time>2022-05-17T06:57:15.798Z</time>
      </trkpt>
      <trkpt lat="45.69966" lon="5.79399">
        <ele>293</ele>
        <time>2022-05-17T06:57:16.798Z</time>
      </trkpt>
      <trkpt lat="45.6996" lon="5.79398">
        <ele>292</ele>
        <time>2022-05-17T06:57:17.798Z</time>
      </trkpt>
      <trkpt lat="45.69954" lon="5.79397">
        <ele>292</ele>
        <time>2022-05-17T06:57:18.798Z</time>
      </trkpt>
      <trkpt lat="45.69949" lon="5.79395">
        <ele>292</ele>
        <time>2022-05-17T06:57:19.797Z</time>
      </trkpt>
      <trkpt lat="45.69943" lon="5.79393">
        <ele>291</ele>
        <time>2022-05-17T06:57:20.798Z</time>
      </trkpt>
      <trkpt lat="45.69939" lon="5.79392">
        <ele>291</ele>
        <time>2022-05-17T06:57:21.798Z</time>
      </trkpt>
      <trkpt lat="45.69933" lon="5.79391">
        <ele>290</ele>
        <time>2022-05-17T06:57:22.798Z</time>
      </trkpt>
      <trkpt lat="45.69926" lon="5.79391">
        <ele>290</ele>
        <time>2022-05-17T06:57:23.798Z</time>
      </trkpt>
      <trkpt lat="45.6992" lon="5.79391">
        <ele>290</ele>
        <time>2022-05-17T06:57:24.797Z</time>
      </trkpt>
      <trkpt lat="45.69914" lon="5.79392">
        <ele>290</ele>
        <time>2022-05-17T06:57:25.798Z</time>
      </trkpt>
      <trkpt lat="45.69908" lon="5.79393">
        <ele>290</ele>
        <time>2022-05-17T06:57:26.797Z</time>
      </trkpt>
      <trkpt lat="45.69902" lon="5.79395">
        <ele>290</ele>
        <time>2022-05-17T06:57:27.798Z</time>
      </trkpt>
      <trkpt lat="45.69896" lon="5.79397">
        <ele>290</ele>
        <time>2022-05-17T06:57:28.798Z</time>
      </trkpt>
      <trkpt lat="45.6989" lon="5.79399">
        <ele>290</ele>
        <time>2022-05-17T06:57:29.797Z</time>
      </trkpt>
      <trkpt lat="45.69884" lon="5.79403">
        <ele>290</ele>
        <time>2022-05-17T06:57:30.798Z</time>
      </trkpt>
      <trkpt lat="45.69878" lon="5.79405">
        <ele>290</ele>
        <time>2022-05-17T06:57:31.798Z</time>
      </trkpt>
      <trkpt lat="45.69872" lon="5.79408">
        <ele>291</ele>
        <time>2022-05-17T06:57:32.798Z</time>
      </trkpt>
      <trkpt lat="45.69867" lon="5.7941">
        <ele>291</ele>
        <time>2022-05-17T06:57:33.797Z</time>
      </trkpt>
      <trkpt lat="45.69859" lon="5.79411">
        <ele>292</ele>
        <time>2022-05-17T06:57:34.798Z</time>
      </trkpt>
      <trkpt lat="45.69854" lon="5.79412">
        <ele>292</ele>
        <time>2022-05-17T06:57:35.797Z</time>
      </trkpt>
      <trkpt lat="45.69848" lon="5.79413">
        <ele>293</ele>
        <time>2022-05-17T06:57:36.798Z</time>
      </trkpt>
      <trkpt lat="45.6984" lon="5.79412">
        <ele>293</ele>
        <time>2022-05-17T06:57:37.797Z</time>
      </trkpt>
      <trkpt lat="45.69834" lon="5.79411">
        <ele>294</ele>
        <time>2022-05-17T06:57:38.797Z</time>
      </trkpt>
      <trkpt lat="45.69828" lon="5.79409">
        <ele>294</ele>
        <time>2022-05-17T06:57:39.798Z</time>
      </trkpt>
      <trkpt lat="45.69823" lon="5.79407">
        <ele>294</ele>
        <time>2022-05-17T06:57:40.798Z</time>
      </trkpt>
      <trkpt lat="45.69817" lon="5.79405">
        <ele>293</ele>
        <time>2022-05-17T06:57:41.798Z</time>
      </trkpt>
      <trkpt lat="45.6981" lon="5.794">
        <ele>293</ele>
        <time>2022-05-17T06:57:42.798Z</time>
      </trkpt>
      <trkpt lat="45.69804" lon="5.79398">
        <ele>293</ele>
        <time>2022-05-17T06:57:43.798Z</time>
      </trkpt>
      <trkpt lat="45.69799" lon="5.79394">
        <ele>293</ele>
        <time>2022-05-17T06:57:44.797Z</time>
      </trkpt>
      <trkpt lat="45.69795" lon="5.79388">
        <ele>293</ele>
        <time>2022-05-17T06:57:45.798Z</time>
      </trkpt>
      <trkpt lat="45.69791" lon="5.79382">
        <ele>293</ele>
        <time>2022-05-17T06:57:46.797Z</time>
      </trkpt>
      <trkpt lat="45.69786" lon="5.79374">
        <ele>293</ele>
        <time>2022-05-17T06:57:47.798Z</time>
      </trkpt>
      <trkpt lat="45.69782" lon="5.79367">
        <ele>293</ele>
        <time>2022-05-17T06:57:48.798Z</time>
      </trkpt>
      <trkpt lat="45.69779" lon="5.79361">
        <ele>293</ele>
        <time>2022-05-17T06:57:49.798Z</time>
      </trkpt>
      <trkpt lat="45.69776" lon="5.79355">
        <ele>292</ele>
        <time>2022-05-17T06:57:50.798Z</time>
      </trkpt>
      <trkpt lat="45.69771" lon="5.79349">
        <ele>292</ele>
        <time>2022-05-17T06:57:51.797Z</time>
      </trkpt>
      <trkpt lat="45.69767" lon="5.79344">
        <ele>292</ele>
        <time>2022-05-17T06:57:52.798Z</time>
      </trkpt>
      <trkpt lat="45.69761" lon="5.79338">
        <ele>292</ele>
        <time>2022-05-17T06:57:53.798Z</time>
      </trkpt>
      <trkpt lat="45.69755" lon="5.79334">
        <ele>291</ele>
        <time>2022-05-17T06:57:54.797Z</time>
      </trkpt>
      <trkpt lat="45.69749" lon="5.79331">
        <ele>291</ele>
        <time>2022-05-17T06:57:55.798Z</time>
      </trkpt>
      <trkpt lat="45.69744" lon="5.7933">
        <ele>291</ele>
        <time>2022-05-17T06:57:56.798Z</time>
      </trkpt>
      <trkpt lat="45.69738" lon="5.79328">
        <ele>291</ele>
        <time>2022-05-17T06:57:57.797Z</time>
      </trkpt>
      <trkpt lat="45.6973" lon="5.79327">
        <ele>292</ele>
        <time>2022-05-17T06:57:58.798Z</time>
      </trkpt>
      <trkpt lat="45.69723" lon="5.79327">
        <ele>292</ele>
        <time>2022-05-17T06:57:59.798Z</time>
      </trkpt>
      <trkpt lat="45.69717" lon="5.79327">
        <ele>292</ele>
        <time>2022-05-17T06:58:00.798Z</time>
      </trkpt>
      <trkpt lat="45.69712" lon="5.79327">
        <ele>292</ele>
        <time>2022-05-17T06:58:01.798Z</time>
      </trkpt>
      <trkpt lat="45.69704" lon="5.79327">
        <ele>292</ele>
        <time>2022-05-17T06:58:02.798Z</time>
      </trkpt>
      <trkpt lat="45.69698" lon="5.79329">
        <ele>292</ele>
        <time>2022-05-17T06:58:03.798Z</time>
      </trkpt>
      <trkpt lat="45.69691" lon="5.79331">
        <ele>293</ele>
        <time>2022-05-17T06:58:04.797Z</time>
      </trkpt>
      <trkpt lat="45.69685" lon="5.79333">
        <ele>293</ele>
        <time>2022-05-17T06:58:05.798Z</time>
      </trkpt>
      <trkpt lat="45.69679" lon="5.79336">
        <ele>293</ele>
        <time>2022-05-17T06:58:06.798Z</time>
      </trkpt>
      <trkpt lat="45.69674" lon="5.79339">
        <ele>293</ele>
        <time>2022-05-17T06:58:07.798Z</time>
      </trkpt>
      <trkpt lat="45.69668" lon="5.79344">
        <ele>293</ele>
        <time>2022-05-17T06:58:08.798Z</time>
      </trkpt>
      <trkpt lat="45.69662" lon="5.7935">
        <ele>293</ele>
        <time>2022-05-17T06:58:09.798Z</time>
      </trkpt>
      <trkpt lat="45.69656" lon="5.79355">
        <ele>293</ele>
        <time>2022-05-17T06:58:10.798Z</time>
      </trkpt>
      <trkpt lat="45.69652" lon="5.7936">
        <ele>294</ele>
        <time>2022-05-17T06:58:11.798Z</time>
      </trkpt>
      <trkpt lat="45.69646" lon="5.79367">
        <ele>294</ele>
        <time>2022-05-17T06:58:12.798Z</time>
      </trkpt>
      <trkpt lat="45.69642" lon="5.79374">
        <ele>293</ele>
        <time>2022-05-17T06:58:13.798Z</time>
      </trkpt>
      <trkpt lat="45.69639" lon="5.79382">
        <ele>293</ele>
        <time>2022-05-17T06:58:14.798Z</time>
      </trkpt>
      <trkpt lat="45.69636" lon="5.79391">
        <ele>293</ele>
        <time>2022-05-17T06:58:15.798Z</time>
      </trkpt>
      <trkpt lat="45.69634" lon="5.79398">
        <ele>293</ele>
        <time>2022-05-17T06:58:16.797Z</time>
      </trkpt>
      <trkpt lat="45.69631" lon="5.79408">
        <ele>292</ele>
        <time>2022-05-17T06:58:17.798Z</time>
      </trkpt>
      <trkpt lat="45.6963" lon="5.79416">
        <ele>292</ele>
        <time>2022-05-17T06:58:18.798Z</time>
      </trkpt>
      <trkpt lat="45.69629" lon="5.79425">
        <ele>291</ele>
        <time>2022-05-17T06:58:19.797Z</time>
      </trkpt>
      <trkpt lat="45.69629" lon="5.79434">
        <ele>291</ele>
        <time>2022-05-17T06:58:20.798Z</time>
      </trkpt>
      <trkpt lat="45.69628" lon="5.79442">
        <ele>290</ele>
        <time>2022-05-17T06:58:21.798Z</time>
      </trkpt>
      <trkpt lat="45.69628" lon="5.79451">
        <ele>290</ele>
        <time>2022-05-17T06:58:22.798Z</time>
      </trkpt>
      <trkpt lat="45.69628" lon="5.79461">
        <ele>290</ele>
        <time>2022-05-17T06:58:23.798Z</time>
      </trkpt>
      <trkpt lat="45.69629" lon="5.7947">
        <ele>290</ele>
        <time>2022-05-17T06:58:24.798Z</time>
      </trkpt>
      <trkpt lat="45.6963" lon="5.79478">
        <ele>289</ele>
        <time>2022-05-17T06:58:25.798Z</time>
      </trkpt>
      <trkpt lat="45.69631" lon="5.79485">
        <ele>289</ele>
        <time>2022-05-17T06:58:26.798Z</time>
      </trkpt>
      <trkpt lat="45.69634" lon="5.79496">
        <ele>288</ele>
        <time>2022-05-17T06:58:27.798Z</time>
      </trkpt>
      <trkpt lat="45.69635" lon="5.79504">
        <ele>288</ele>
        <time>2022-05-17T06:58:28.798Z</time>
      </trkpt>
      <trkpt lat="45.69638" lon="5.79513">
        <ele>288</ele>
        <time>2022-05-17T06:58:29.798Z</time>
      </trkpt>
      <trkpt lat="45.69641" lon="5.79521">
        <ele>288</ele>
        <time>2022-05-17T06:58:30.798Z</time>
      </trkpt>
      <trkpt lat="45.69642" lon="5.79528">
        <ele>287</ele>
        <time>2022-05-17T06:58:31.798Z</time>
      </trkpt>
      <trkpt lat="45.69644" lon="5.79537">
        <ele>288</ele>
        <time>2022-05-17T06:58:32.798Z</time>
      </trkpt>
      <trkpt lat="45.69644" lon="5.79545">
        <ele>288</ele>
        <time>2022-05-17T06:58:33.798Z</time>
      </trkpt>
      <trkpt lat="45.69645" lon="5.79555">
        <ele>288</ele>
        <time>2022-05-17T06:58:34.798Z</time>
      </trkpt>
      <trkpt lat="45.69646" lon="5.79563">
        <ele>288</ele>
        <time>2022-05-17T06:58:35.797Z</time>
      </trkpt>
      <trkpt lat="45.69647" lon="5.7957">
        <ele>288</ele>
        <time>2022-05-17T06:58:36.797Z</time>
      </trkpt>
      <trkpt lat="45.69648" lon="5.79578">
        <ele>287</ele>
        <time>2022-05-17T06:58:37.798Z</time>
      </trkpt>
      <trkpt lat="45.69649" lon="5.79588">
        <ele>287</ele>
        <time>2022-05-17T06:58:38.798Z</time>
      </trkpt>
      <trkpt lat="45.69649" lon="5.79596">
        <ele>287</ele>
        <time>2022-05-17T06:58:39.798Z</time>
      </trkpt>
      <trkpt lat="45.69651" lon="5.79604">
        <ele>286</ele>
        <time>2022-05-17T06:58:40.798Z</time>
      </trkpt>
      <trkpt lat="45.69652" lon="5.79613">
        <ele>286</ele>
        <time>2022-05-17T06:58:41.798Z</time>
      </trkpt>
      <trkpt lat="45.69653" lon="5.7962">
        <ele>286</ele>
        <time>2022-05-17T06:58:42.798Z</time>
      </trkpt>
      <trkpt lat="45.69654" lon="5.79631">
        <ele>285</ele>
        <time>2022-05-17T06:58:43.798Z</time>
      </trkpt>
      <trkpt lat="45.69655" lon="5.79639">
        <ele>285</ele>
        <time>2022-05-17T06:58:44.798Z</time>
      </trkpt>
      <trkpt lat="45.69656" lon="5.79648">
        <ele>285</ele>
        <time>2022-05-17T06:58:45.798Z</time>
      </trkpt>
      <trkpt lat="45.69657" lon="5.79656">
        <ele>285</ele>
        <time>2022-05-17T06:58:46.798Z</time>
      </trkpt>
      <trkpt lat="45.69657" lon="5.79663">
        <ele>285</ele>
        <time>2022-05-17T06:58:47.798Z</time>
      </trkpt>
      <trkpt lat="45.69658" lon="5.79671">
        <ele>286</ele>
        <time>2022-05-17T06:58:48.798Z</time>
      </trkpt>
      <trkpt lat="45.69659" lon="5.79681">
        <ele>286</ele>
        <time>2022-05-17T06:58:49.798Z</time>
      </trkpt>
      <trkpt lat="45.69659" lon="5.79689">
        <ele>287</ele>
        <time>2022-05-17T06:58:50.798Z</time>
      </trkpt>
      <trkpt lat="45.6966" lon="5.79697">
        <ele>287</ele>
        <time>2022-05-17T06:58:51.797Z</time>
      </trkpt>
      <trkpt lat="45.69661" lon="5.79704">
        <ele>287</ele>
        <time>2022-05-17T06:58:52.798Z</time>
      </trkpt>
      <trkpt lat="45.69662" lon="5.79713">
        <ele>287</ele>
        <time>2022-05-17T06:58:53.798Z</time>
      </trkpt>
      <trkpt lat="45.69663" lon="5.79723">
        <ele>287</ele>
        <time>2022-05-17T06:58:54.798Z</time>
      </trkpt>
      <trkpt lat="45.69664" lon="5.79731">
        <ele>287</ele>
        <time>2022-05-17T06:58:55.797Z</time>
      </trkpt>
      <trkpt lat="45.69664" lon="5.7974">
        <ele>287</ele>
        <time>2022-05-17T06:58:56.798Z</time>
      </trkpt>
      <trkpt lat="45.69665" lon="5.79747">
        <ele>287</ele>
        <time>2022-05-17T06:58:57.798Z</time>
      </trkpt>
      <trkpt lat="45.69666" lon="5.79755">
        <ele>287</ele>
        <time>2022-05-17T06:58:58.798Z</time>
      </trkpt>
      <trkpt lat="45.69666" lon="5.79766">
        <ele>287</ele>
        <time>2022-05-17T06:58:59.798Z</time>
      </trkpt>
      <trkpt lat="45.69667" lon="5.79774">
        <ele>287</ele>
        <time>2022-05-17T06:59:00.798Z</time>
      </trkpt>
      <trkpt lat="45.69667" lon="5.79783">
        <ele>288</ele>
        <time>2022-05-17T06:59:01.798Z</time>
      </trkpt>
      <trkpt lat="45.69668" lon="5.79792">
        <ele>288</ele>
        <time>2022-05-17T06:59:02.798Z</time>
      </trkpt>
      <trkpt lat="45.69669" lon="5.798">
        <ele>288</ele>
        <time>2022-05-17T06:59:03.798Z</time>
      </trkpt>
      <trkpt lat="45.69669" lon="5.79807">
        <ele>288</ele>
        <time>2022-05-17T06:59:04.797Z</time>
      </trkpt>
      <trkpt lat="45.69669" lon="5.79817">
        <ele>289</ele>
        <time>2022-05-17T06:59:05.798Z</time>
      </trkpt>
      <trkpt lat="45.6967" lon="5.79825">
        <ele>289</ele>
        <time>2022-05-17T06:59:06.798Z</time>
      </trkpt>
      <trkpt lat="45.6967" lon="5.79831">
        <ele>290</ele>
        <time>2022-05-17T06:59:07.797Z</time>
      </trkpt>
      <trkpt lat="45.69671" lon="5.7984">
        <ele>290</ele>
        <time>2022-05-17T06:59:08.797Z</time>
      </trkpt>
      <trkpt lat="45.69672" lon="5.79848">
        <ele>290</ele>
        <time>2022-05-17T06:59:09.798Z</time>
      </trkpt>
      <trkpt lat="45.69672" lon="5.79858">
        <ele>291</ele>
        <time>2022-05-17T06:59:10.798Z</time>
      </trkpt>
      <trkpt lat="45.69673" lon="5.79866">
        <ele>291</ele>
        <time>2022-05-17T06:59:11.798Z</time>
      </trkpt>
      <trkpt lat="45.69674" lon="5.79874">
        <ele>292</ele>
        <time>2022-05-17T06:59:12.797Z</time>
      </trkpt>
      <trkpt lat="45.69675" lon="5.79882">
        <ele>292</ele>
        <time>2022-05-17T06:59:13.797Z</time>
      </trkpt>
      <trkpt lat="45.69676" lon="5.79889">
        <ele>292</ele>
        <time>2022-05-17T06:59:14.798Z</time>
      </trkpt>
      <trkpt lat="45.69677" lon="5.79897">
        <ele>293</ele>
        <time>2022-05-17T06:59:15.797Z</time>
      </trkpt>
      <trkpt lat="45.69678" lon="5.79907">
        <ele>294</ele>
        <time>2022-05-17T06:59:16.797Z</time>
      </trkpt>
      <trkpt lat="45.69679" lon="5.79915">
        <ele>294</ele>
        <time>2022-05-17T06:59:17.798Z</time>
      </trkpt>
      <trkpt lat="45.69679" lon="5.79921">
        <ele>294</ele>
        <time>2022-05-17T06:59:18.798Z</time>
      </trkpt>
      <trkpt lat="45.6968" lon="5.79929">
        <ele>294</ele>
        <time>2022-05-17T06:59:19.798Z</time>
      </trkpt>
      <trkpt lat="45.69681" lon="5.79939">
        <ele>294</ele>
        <time>2022-05-17T06:59:20.798Z</time>
      </trkpt>
      <trkpt lat="45.69681" lon="5.79948">
        <ele>294</ele>
        <time>2022-05-17T06:59:21.798Z</time>
      </trkpt>
      <trkpt lat="45.69682" lon="5.79956">
        <ele>294</ele>
        <time>2022-05-17T06:59:22.798Z</time>
      </trkpt>
      <trkpt lat="45.69682" lon="5.79962">
        <ele>294</ele>
        <time>2022-05-17T06:59:23.798Z</time>
      </trkpt>
      <trkpt lat="45.69683" lon="5.79971">
        <ele>294</ele>
        <time>2022-05-17T06:59:24.798Z</time>
      </trkpt>
      <trkpt lat="45.69683" lon="5.79981">
        <ele>294</ele>
        <time>2022-05-17T06:59:25.798Z</time>
      </trkpt>
      <trkpt lat="45.69684" lon="5.79989">
        <ele>294</ele>
        <time>2022-05-17T06:59:26.797Z</time>
      </trkpt>
      <trkpt lat="45.69685" lon="5.79997">
        <ele>295</ele>
        <time>2022-05-17T06:59:27.798Z</time>
      </trkpt>
      <trkpt lat="45.69685" lon="5.80005">
        <ele>295</ele>
        <time>2022-05-17T06:59:28.798Z</time>
      </trkpt>
      <trkpt lat="45.69686" lon="5.80012">
        <ele>295</ele>
        <time>2022-05-17T06:59:29.797Z</time>
      </trkpt>
      <trkpt lat="45.69687" lon="5.80021">
        <ele>296</ele>
        <time>2022-05-17T06:59:30.798Z</time>
      </trkpt>
      <trkpt lat="45.69688" lon="5.8003">
        <ele>296</ele>
        <time>2022-05-17T06:59:31.798Z</time>
      </trkpt>
      <trkpt lat="45.69689" lon="5.80038">
        <ele>296</ele>
        <time>2022-05-17T06:59:32.798Z</time>
      </trkpt>
      <trkpt lat="45.6969" lon="5.80046">
        <ele>296</ele>
        <time>2022-05-17T06:59:33.797Z</time>
      </trkpt>
      <trkpt lat="45.69691" lon="5.80052">
        <ele>296</ele>
        <time>2022-05-17T06:59:34.798Z</time>
      </trkpt>
      <trkpt lat="45.69692" lon="5.80061">
        <ele>296</ele>
        <time>2022-05-17T06:59:35.798Z</time>
      </trkpt>
      <trkpt lat="45.69694" lon="5.80069">
        <ele>296</ele>
        <time>2022-05-17T06:59:36.798Z</time>
      </trkpt>
      <trkpt lat="45.69695" lon="5.80077">
        <ele>296</ele>
        <time>2022-05-17T06:59:37.797Z</time>
      </trkpt>
      <trkpt lat="45.69697" lon="5.80083">
        <ele>296</ele>
        <time>2022-05-17T06:59:38.797Z</time>
      </trkpt>
      <trkpt lat="45.69699" lon="5.80092">
        <ele>296</ele>
        <time>2022-05-17T06:59:39.798Z</time>
      </trkpt>
      <trkpt lat="45.69701" lon="5.80101">
        <ele>297</ele>
        <time>2022-05-17T06:59:40.797Z</time>
      </trkpt>
      <trkpt lat="45.69703" lon="5.80109">
        <ele>297</ele>
        <time>2022-05-17T06:59:41.798Z</time>
      </trkpt>
      <trkpt lat="45.69706" lon="5.80118">
        <ele>298</ele>
        <time>2022-05-17T06:59:42.798Z</time>
      </trkpt>
      <trkpt lat="45.69707" lon="5.80124">
        <ele>298</ele>
        <time>2022-05-17T06:59:43.798Z</time>
      </trkpt>
      <trkpt lat="45.69709" lon="5.80133">
        <ele>299</ele>
        <time>2022-05-17T06:59:44.798Z</time>
      </trkpt>
      <trkpt lat="45.69711" lon="5.80143">
        <ele>299</ele>
        <time>2022-05-17T06:59:45.798Z</time>
      </trkpt>
      <trkpt lat="45.69713" lon="5.80152">
        <ele>299</ele>
        <time>2022-05-17T06:59:46.798Z</time>
      </trkpt>
      <trkpt lat="45.69714" lon="5.80161">
        <ele>299</ele>
        <time>2022-05-17T06:59:47.797Z</time>
      </trkpt>
      <trkpt lat="45.69714" lon="5.80168">
        <ele>299</ele>
        <time>2022-05-17T06:59:48.798Z</time>
      </trkpt>
      <trkpt lat="45.69714" lon="5.80177">
        <ele>298</ele>
        <time>2022-05-17T06:59:49.798Z</time>
      </trkpt>
      <trkpt lat="45.69712" lon="5.80188">
        <ele>298</ele>
        <time>2022-05-17T06:59:50.798Z</time>
      </trkpt>
      <trkpt lat="45.69711" lon="5.80197">
        <ele>299</ele>
        <time>2022-05-17T06:59:51.798Z</time>
      </trkpt>
      <trkpt lat="45.69708" lon="5.80206">
        <ele>299</ele>
        <time>2022-05-17T06:59:52.797Z</time>
      </trkpt>
      <trkpt lat="45.69706" lon="5.80213">
        <ele>299</ele>
        <time>2022-05-17T06:59:53.798Z</time>
      </trkpt>
      <trkpt lat="45.69703" lon="5.80221">
        <ele>299</ele>
        <time>2022-05-17T06:59:54.798Z</time>
      </trkpt>
      <trkpt lat="45.69699" lon="5.80228">
        <ele>299</ele>
        <time>2022-05-17T06:59:55.797Z</time>
      </trkpt>
      <trkpt lat="45.69695" lon="5.80237">
        <ele>299</ele>
        <time>2022-05-17T06:59:56.797Z</time>
      </trkpt>
      <trkpt lat="45.69691" lon="5.80246">
        <ele>299</ele>
        <time>2022-05-17T06:59:57.797Z</time>
      </trkpt>
      <trkpt lat="45.69687" lon="5.80253">
        <ele>299</ele>
        <time>2022-05-17T06:59:58.797Z</time>
      </trkpt>
      <trkpt lat="45.69683" lon="5.80259">
        <ele>299</ele>
        <time>2022-05-17T06:59:59.798Z</time>
      </trkpt>
      <trkpt lat="45.69679" lon="5.80267">
        <ele>298</ele>
        <time>2022-05-17T07:00:00.798Z</time>
      </trkpt>
      <trkpt lat="45.69675" lon="5.80275">
        <ele>298</ele>
        <time>2022-05-17T07:00:01.797Z</time>
      </trkpt>
      <trkpt lat="45.69671" lon="5.80283">
        <ele>298</ele>
        <time>2022-05-17T07:00:02.798Z</time>
      </trkpt>
      <trkpt lat="45.69667" lon="5.8029">
        <ele>298</ele>
        <time>2022-05-17T07:00:03.798Z</time>
      </trkpt>
      <trkpt lat="45.69664" lon="5.80296">
        <ele>298</ele>
        <time>2022-05-17T07:00:04.798Z</time>
      </trkpt>
      <trkpt lat="45.6966" lon="5.80304">
        <ele>298</ele>
        <time>2022-05-17T07:00:05.798Z</time>
      </trkpt>
      <trkpt lat="45.69656" lon="5.80311">
        <ele>299</ele>
        <time>2022-05-17T07:00:06.798Z</time>
      </trkpt>
      <trkpt lat="45.69651" lon="5.8032">
        <ele>300</ele>
        <time>2022-05-17T07:00:07.798Z</time>
      </trkpt>
      <trkpt lat="45.69647" lon="5.80328">
        <ele>301</ele>
        <time>2022-05-17T07:00:08.798Z</time>
      </trkpt>
      <trkpt lat="45.69644" lon="5.80334">
        <ele>301</ele>
        <time>2022-05-17T07:00:09.798Z</time>
      </trkpt>
      <trkpt lat="45.69639" lon="5.80343">
        <ele>301</ele>
        <time>2022-05-17T07:00:10.798Z</time>
      </trkpt>
      <trkpt lat="45.69636" lon="5.80349">
        <ele>301</ele>
        <time>2022-05-17T07:00:11.798Z</time>
      </trkpt>
      <trkpt lat="45.69631" lon="5.80358">
        <ele>302</ele>
        <time>2022-05-17T07:00:12.798Z</time>
      </trkpt>
      <trkpt lat="45.69627" lon="5.80366">
        <ele>302</ele>
        <time>2022-05-17T07:00:13.798Z</time>
      </trkpt>
      <trkpt lat="45.69624" lon="5.80372">
        <ele>302</ele>
        <time>2022-05-17T07:00:14.798Z</time>
      </trkpt>
      <trkpt lat="45.6962" lon="5.80379">
        <ele>302</ele>
        <time>2022-05-17T07:00:15.797Z</time>
      </trkpt>
      <trkpt lat="45.69615" lon="5.80388">
        <ele>303</ele>
        <time>2022-05-17T07:00:16.798Z</time>
      </trkpt>
      <trkpt lat="45.69611" lon="5.80395">
        <ele>303</ele>
        <time>2022-05-17T07:00:17.797Z</time>
      </trkpt>
      <trkpt lat="45.69607" lon="5.80402">
        <ele>303</ele>
        <time>2022-05-17T07:00:18.797Z</time>
      </trkpt>
      <trkpt lat="45.69604" lon="5.80408">
        <ele>304</ele>
        <time>2022-05-17T07:00:19.797Z</time>
      </trkpt>
      <trkpt lat="45.696" lon="5.80415">
        <ele>303</ele>
        <time>2022-05-17T07:00:20.798Z</time>
      </trkpt>
      <trkpt lat="45.69596" lon="5.80422">
        <ele>303</ele>
        <time>2022-05-17T07:00:21.798Z</time>
      </trkpt>
      <trkpt lat="45.69593" lon="5.8043">
        <ele>303</ele>
        <time>2022-05-17T07:00:22.798Z</time>
      </trkpt>
      <trkpt lat="45.69588" lon="5.80438">
        <ele>303</ele>
        <time>2022-05-17T07:00:23.797Z</time>
      </trkpt>
      <trkpt lat="45.69584" lon="5.80446">
        <ele>303</ele>
        <time>2022-05-17T07:00:24.798Z</time>
      </trkpt>
      <trkpt lat="45.6958" lon="5.80453">
        <ele>303</ele>
        <time>2022-05-17T07:00:25.798Z</time>
      </trkpt>
      <trkpt lat="45.69577" lon="5.80458">
        <ele>303</ele>
        <time>2022-05-17T07:00:26.797Z</time>
      </trkpt>
      <trkpt lat="45.69572" lon="5.80467">
        <ele>303</ele>
        <time>2022-05-17T07:00:27.798Z</time>
      </trkpt>
      <trkpt lat="45.69568" lon="5.80474">
        <ele>302</ele>
        <time>2022-05-17T07:00:28.798Z</time>
      </trkpt>
      <trkpt lat="45.69564" lon="5.8048">
        <ele>302</ele>
        <time>2022-05-17T07:00:29.798Z</time>
      </trkpt>
      <trkpt lat="45.69561" lon="5.80486">
        <ele>302</ele>
        <time>2022-05-17T07:00:30.797Z</time>
      </trkpt>
      <trkpt lat="45.69557" lon="5.80494">
        <ele>302</ele>
        <time>2022-05-17T07:00:31.798Z</time>
      </trkpt>
      <trkpt lat="45.69552" lon="5.80503">
        <ele>302</ele>
        <time>2022-05-17T07:00:32.798Z</time>
      </trkpt>
      <trkpt lat="45.69549" lon="5.80509">
        <ele>302</ele>
        <time>2022-05-17T07:00:33.798Z</time>
      </trkpt>
      <trkpt lat="45.69545" lon="5.80516">
        <ele>302</ele>
        <time>2022-05-17T07:00:34.798Z</time>
      </trkpt>
      <trkpt lat="45.69542" lon="5.80524">
        <ele>302</ele>
        <time>2022-05-17T07:00:35.797Z</time>
      </trkpt>
      <trkpt lat="45.69539" lon="5.80531">
        <ele>302</ele>
        <time>2022-05-17T07:00:36.797Z</time>
      </trkpt>
      <trkpt lat="45.69535" lon="5.80539">
        <ele>302</ele>
        <time>2022-05-17T07:00:37.798Z</time>
      </trkpt>
      <trkpt lat="45.69531" lon="5.80547">
        <ele>302</ele>
        <time>2022-05-17T07:00:38.797Z</time>
      </trkpt>
      <trkpt lat="45.69528" lon="5.80555">
        <ele>303</ele>
        <time>2022-05-17T07:00:39.797Z</time>
      </trkpt>
      <trkpt lat="45.69525" lon="5.80561">
        <ele>303</ele>
        <time>2022-05-17T07:00:40.798Z</time>
      </trkpt>
      <trkpt lat="45.69522" lon="5.80568">
        <ele>303</ele>
        <time>2022-05-17T07:00:41.798Z</time>
      </trkpt>
      <trkpt lat="45.69517" lon="5.80577">
        <ele>303</ele>
        <time>2022-05-17T07:00:42.798Z</time>
      </trkpt>
      <trkpt lat="45.69513" lon="5.80584">
        <ele>304</ele>
        <time>2022-05-17T07:00:43.798Z</time>
      </trkpt>
      <trkpt lat="45.69509" lon="5.8059">
        <ele>304</ele>
        <time>2022-05-17T07:00:44.798Z</time>
      </trkpt>
      <trkpt lat="45.69506" lon="5.80595">
        <ele>304</ele>
        <time>2022-05-17T07:00:45.798Z</time>
      </trkpt>
      <trkpt lat="45.69502" lon="5.80603">
        <ele>304</ele>
        <time>2022-05-17T07:00:46.798Z</time>
      </trkpt>
      <trkpt lat="45.69498" lon="5.8061">
        <ele>304</ele>
        <time>2022-05-17T07:00:47.797Z</time>
      </trkpt>
      <trkpt lat="45.69495" lon="5.80616">
        <ele>305</ele>
        <time>2022-05-17T07:00:48.798Z</time>
      </trkpt>
      <trkpt lat="45.69491" lon="5.80622">
        <ele>305</ele>
        <time>2022-05-17T07:00:49.797Z</time>
      </trkpt>
      <trkpt lat="45.69489" lon="5.80626">
        <ele>305</ele>
        <time>2022-05-17T07:00:50.798Z</time>
      </trkpt>
      <trkpt lat="45.69485" lon="5.80632">
        <ele>304</ele>
        <time>2022-05-17T07:00:51.798Z</time>
      </trkpt>
      <trkpt lat="45.6948" lon="5.8064">
        <ele>305</ele>
        <time>2022-05-17T07:00:52.798Z</time>
      </trkpt>
      <trkpt lat="45.69477" lon="5.80647">
        <ele>305</ele>
        <time>2022-05-17T07:00:53.797Z</time>
      </trkpt>
      <trkpt lat="45.69474" lon="5.80653">
        <ele>305</ele>
        <time>2022-05-17T07:00:54.798Z</time>
      </trkpt>
      <trkpt lat="45.69471" lon="5.80659">
        <ele>305</ele>
        <time>2022-05-17T07:00:55.798Z</time>
      </trkpt>
      <trkpt lat="45.69469" lon="5.80664">
        <ele>305</ele>
        <time>2022-05-17T07:00:56.798Z</time>
      </trkpt>
      <trkpt lat="45.69466" lon="5.8067">
        <ele>305</ele>
        <time>2022-05-17T07:00:57.798Z</time>
      </trkpt>
      <trkpt lat="45.69463" lon="5.80677">
        <ele>305</ele>
        <time>2022-05-17T07:00:58.797Z</time>
      </trkpt>
      <trkpt lat="45.69459" lon="5.80683">
        <ele>305</ele>
        <time>2022-05-17T07:00:59.798Z</time>
      </trkpt>
      <trkpt lat="45.69457" lon="5.80688">
        <ele>305</ele>
        <time>2022-05-17T07:01:00.798Z</time>
      </trkpt>
      <trkpt lat="45.69453" lon="5.80693">
        <ele>306</ele>
        <time>2022-05-17T07:01:01.797Z</time>
      </trkpt>
      <trkpt lat="45.6945" lon="5.80699">
        <ele>306</ele>
        <time>2022-05-17T07:01:02.798Z</time>
      </trkpt>
      <trkpt lat="45.69446" lon="5.80706">
        <ele>306</ele>
        <time>2022-05-17T07:01:03.798Z</time>
      </trkpt>
      <trkpt lat="45.69443" lon="5.80712">
        <ele>307</ele>
        <time>2022-05-17T07:01:04.798Z</time>
      </trkpt>
      <trkpt lat="45.6944" lon="5.80718">
        <ele>307</ele>
        <time>2022-05-17T07:01:05.798Z</time>
      </trkpt>
      <trkpt lat="45.69437" lon="5.80723">
        <ele>307</ele>
        <time>2022-05-17T07:01:06.798Z</time>
      </trkpt>
      <trkpt lat="45.69434" lon="5.80729">
        <ele>307</ele>
        <time>2022-05-17T07:01:07.798Z</time>
      </trkpt>
      <trkpt lat="45.69431" lon="5.80735">
        <ele>308</ele>
        <time>2022-05-17T07:01:08.798Z</time>
      </trkpt>
      <trkpt lat="45.69428" lon="5.80742">
        <ele>308</ele>
        <time>2022-05-17T07:01:09.798Z</time>
      </trkpt>
      <trkpt lat="45.69424" lon="5.80748">
        <ele>308</ele>
        <time>2022-05-17T07:01:10.798Z</time>
      </trkpt>
      <trkpt lat="45.69422" lon="5.80752">
        <ele>308</ele>
        <time>2022-05-17T07:01:11.797Z</time>
      </trkpt>
      <trkpt lat="45.69419" lon="5.80758">
        <ele>308</ele>
        <time>2022-05-17T07:01:12.797Z</time>
      </trkpt>
      <trkpt lat="45.69415" lon="5.80766">
        <ele>308</ele>
        <time>2022-05-17T07:01:13.797Z</time>
      </trkpt>
      <trkpt lat="45.69412" lon="5.80772">
        <ele>308</ele>
        <time>2022-05-17T07:01:14.798Z</time>
      </trkpt>
      <trkpt lat="45.6941" lon="5.80777">
        <ele>308</ele>
        <time>2022-05-17T07:01:15.797Z</time>
      </trkpt>
      <trkpt lat="45.69406" lon="5.80783">
        <ele>309</ele>
        <time>2022-05-17T07:01:16.797Z</time>
      </trkpt>
      <trkpt lat="45.69403" lon="5.80789">
        <ele>309</ele>
        <time>2022-05-17T07:01:17.798Z</time>
      </trkpt>
      <trkpt lat="45.694" lon="5.80796">
        <ele>309</ele>
        <time>2022-05-17T07:01:18.798Z</time>
      </trkpt>
      <trkpt lat="45.69396" lon="5.80802">
        <ele>309</ele>
        <time>2022-05-17T07:01:19.798Z</time>
      </trkpt>
      <trkpt lat="45.69393" lon="5.80808">
        <ele>309</ele>
        <time>2022-05-17T07:01:20.798Z</time>
      </trkpt>
      <trkpt lat="45.69391" lon="5.80813">
        <ele>309</ele>
        <time>2022-05-17T07:01:21.798Z</time>
      </trkpt>
      <trkpt lat="45.69387" lon="5.8082">
        <ele>310</ele>
        <time>2022-05-17T07:01:22.798Z</time>
      </trkpt>
      <trkpt lat="45.69384" lon="5.80826">
        <ele>310</ele>
        <time>2022-05-17T07:01:23.798Z</time>
      </trkpt>
      <trkpt lat="45.69381" lon="5.80832">
        <ele>309</ele>
        <time>2022-05-17T07:01:24.798Z</time>
      </trkpt>
      <trkpt lat="45.69378" lon="5.80837">
        <ele>309</ele>
        <time>2022-05-17T07:01:25.798Z</time>
      </trkpt>
      <trkpt lat="45.69375" lon="5.80843">
        <ele>310</ele>
        <time>2022-05-17T07:01:26.797Z</time>
      </trkpt>
      <trkpt lat="45.69372" lon="5.80849">
        <ele>310</ele>
        <time>2022-05-17T07:01:27.798Z</time>
      </trkpt>
      <trkpt lat="45.69369" lon="5.80855">
        <ele>310</ele>
        <time>2022-05-17T07:01:28.798Z</time>
      </trkpt>
      <trkpt lat="45.69366" lon="5.80861">
        <ele>310</ele>
        <time>2022-05-17T07:01:29.797Z</time>
      </trkpt>
      <trkpt lat="45.69363" lon="5.80867">
        <ele>310</ele>
        <time>2022-05-17T07:01:30.797Z</time>
      </trkpt>
      <trkpt lat="45.6936" lon="5.80872">
        <ele>310</ele>
        <time>2022-05-17T07:01:31.798Z</time>
      </trkpt>
      <trkpt lat="45.69357" lon="5.80878">
        <ele>311</ele>
        <time>2022-05-17T07:01:32.798Z</time>
      </trkpt>
      <trkpt lat="45.69354" lon="5.80884">
        <ele>311</ele>
        <time>2022-05-17T07:01:33.798Z</time>
      </trkpt>
      <trkpt lat="45.69351" lon="5.80889">
        <ele>312</ele>
        <time>2022-05-17T07:01:34.798Z</time>
      </trkpt>
      <trkpt lat="45.69349" lon="5.80894">
        <ele>312</ele>
        <time>2022-05-17T07:01:35.798Z</time>
      </trkpt>
      <trkpt lat="45.69346" lon="5.809">
        <ele>313</ele>
        <time>2022-05-17T07:01:36.798Z</time>
      </trkpt>
      <trkpt lat="45.69343" lon="5.80905">
        <ele>313</ele>
        <time>2022-05-17T07:01:37.797Z</time>
      </trkpt>
      <trkpt lat="45.6934" lon="5.80911">
        <ele>313</ele>
        <time>2022-05-17T07:01:38.798Z</time>
      </trkpt>
      <trkpt lat="45.69337" lon="5.80916">
        <ele>313</ele>
        <time>2022-05-17T07:01:39.798Z</time>
      </trkpt>
      <trkpt lat="45.69334" lon="5.80922">
        <ele>314</ele>
        <time>2022-05-17T07:01:40.798Z</time>
      </trkpt>
      <trkpt lat="45.69331" lon="5.80928">
        <ele>314</ele>
        <time>2022-05-17T07:01:41.798Z</time>
      </trkpt>
      <trkpt lat="45.69329" lon="5.80934">
        <ele>314</ele>
        <time>2022-05-17T07:01:42.798Z</time>
      </trkpt>
      <trkpt lat="45.69326" lon="5.8094">
        <ele>315</ele>
        <time>2022-05-17T07:01:43.798Z</time>
      </trkpt>
      <trkpt lat="45.69323" lon="5.80946">
        <ele>315</ele>
        <time>2022-05-17T07:01:44.798Z</time>
      </trkpt>
      <trkpt lat="45.6932" lon="5.80952">
        <ele>315</ele>
        <time>2022-05-17T07:01:45.798Z</time>
      </trkpt>
      <trkpt lat="45.69317" lon="5.80958">
        <ele>315</ele>
        <time>2022-05-17T07:01:46.797Z</time>
      </trkpt>
      <trkpt lat="45.69314" lon="5.80964">
        <ele>315</ele>
        <time>2022-05-17T07:01:47.798Z</time>
      </trkpt>
      <trkpt lat="45.69311" lon="5.8097">
        <ele>315</ele>
        <time>2022-05-17T07:01:48.797Z</time>
      </trkpt>
      <trkpt lat="45.69307" lon="5.80976">
        <ele>316</ele>
        <time>2022-05-17T07:01:49.798Z</time>
      </trkpt>
      <trkpt lat="45.69304" lon="5.80982">
        <ele>316</ele>
        <time>2022-05-17T07:01:50.797Z</time>
      </trkpt>
      <trkpt lat="45.69301" lon="5.80988">
        <ele>316</ele>
        <time>2022-05-17T07:01:51.797Z</time>
      </trkpt>
      <trkpt lat="45.69298" lon="5.80994">
        <ele>316</ele>
        <time>2022-05-17T07:01:52.798Z</time>
      </trkpt>
      <trkpt lat="45.69295" lon="5.81">
        <ele>315</ele>
        <time>2022-05-17T07:01:53.798Z</time>
      </trkpt>
      <trkpt lat="45.69292" lon="5.81006">
        <ele>316</ele>
        <time>2022-05-17T07:01:54.798Z</time>
      </trkpt>
      <trkpt lat="45.69289" lon="5.81012">
        <ele>316</ele>
        <time>2022-05-17T07:01:55.797Z</time>
      </trkpt>
      <trkpt lat="45.69286" lon="5.81018">
        <ele>316</ele>
        <time>2022-05-17T07:01:56.798Z</time>
      </trkpt>
      <trkpt lat="45.69282" lon="5.81025">
        <ele>316</ele>
        <time>2022-05-17T07:01:57.798Z</time>
      </trkpt>
      <trkpt lat="45.69279" lon="5.81031">
        <ele>316</ele>
        <time>2022-05-17T07:01:58.798Z</time>
      </trkpt>
      <trkpt lat="45.69276" lon="5.81037">
        <ele>315</ele>
        <time>2022-05-17T07:01:59.798Z</time>
      </trkpt>
      <trkpt lat="45.69272" lon="5.81043">
        <ele>315</ele>
        <time>2022-05-17T07:02:00.798Z</time>
      </trkpt>
      <trkpt lat="45.69269" lon="5.81049">
        <ele>315</ele>
        <time>2022-05-17T07:02:01.798Z</time>
      </trkpt>
      <trkpt lat="45.69266" lon="5.81056">
        <ele>315</ele>
        <time>2022-05-17T07:02:02.798Z</time>
      </trkpt>
      <trkpt lat="45.69262" lon="5.81063">
        <ele>315</ele>
        <time>2022-05-17T07:02:03.797Z</time>
      </trkpt>
      <trkpt lat="45.69259" lon="5.8107">
        <ele>315</ele>
        <time>2022-05-17T07:02:04.798Z</time>
      </trkpt>
      <trkpt lat="45.69255" lon="5.81077">
        <ele>315</ele>
        <time>2022-05-17T07:02:05.798Z</time>
      </trkpt>
      <trkpt lat="45.69252" lon="5.81084">
        <ele>315</ele>
        <time>2022-05-17T07:02:06.798Z</time>
      </trkpt>
      <trkpt lat="45.69248" lon="5.81091">
        <ele>315</ele>
        <time>2022-05-17T07:02:07.798Z</time>
      </trkpt>
      <trkpt lat="45.69244" lon="5.81098">
        <ele>315</ele>
        <time>2022-05-17T07:02:08.797Z</time>
      </trkpt>
      <trkpt lat="45.69241" lon="5.81105">
        <ele>315</ele>
        <time>2022-05-17T07:02:09.798Z</time>
      </trkpt>
      <trkpt lat="45.69237" lon="5.81112">
        <ele>315</ele>
        <time>2022-05-17T07:02:10.798Z</time>
      </trkpt>
      <trkpt lat="45.69234" lon="5.81118">
        <ele>315</ele>
        <time>2022-05-17T07:02:11.797Z</time>
      </trkpt>
      <trkpt lat="45.6923" lon="5.81125">
        <ele>315</ele>
        <time>2022-05-17T07:02:12.797Z</time>
      </trkpt>
      <trkpt lat="45.69227" lon="5.81132">
        <ele>315</ele>
        <time>2022-05-17T07:02:13.798Z</time>
      </trkpt>
      <trkpt lat="45.69223" lon="5.81139">
        <ele>315</ele>
        <time>2022-05-17T07:02:14.798Z</time>
      </trkpt>
      <trkpt lat="45.6922" lon="5.81145">
        <ele>315</ele>
        <time>2022-05-17T07:02:15.797Z</time>
      </trkpt>
      <trkpt lat="45.69216" lon="5.81152">
        <ele>316</ele>
        <time>2022-05-17T07:02:16.798Z</time>
      </trkpt>
      <trkpt lat="45.69213" lon="5.81159">
        <ele>316</ele>
        <time>2022-05-17T07:02:17.798Z</time>
      </trkpt>
      <trkpt lat="45.69209" lon="5.81166">
        <ele>316</ele>
        <time>2022-05-17T07:02:18.797Z</time>
      </trkpt>
      <trkpt lat="45.69206" lon="5.81173">
        <ele>317</ele>
        <time>2022-05-17T07:02:19.797Z</time>
      </trkpt>
      <trkpt lat="45.69202" lon="5.8118">
        <ele>318</ele>
        <time>2022-05-17T07:02:20.797Z</time>
      </trkpt>
      <trkpt lat="45.69198" lon="5.81187">
        <ele>318</ele>
        <time>2022-05-17T07:02:21.797Z</time>
      </trkpt>
      <trkpt lat="45.69195" lon="5.81195">
        <ele>318</ele>
        <time>2022-05-17T07:02:22.798Z</time>
      </trkpt>
      <trkpt lat="45.69191" lon="5.81202">
        <ele>318</ele>
        <time>2022-05-17T07:02:23.798Z</time>
      </trkpt>
      <trkpt lat="45.69187" lon="5.8121">
        <ele>319</ele>
        <time>2022-05-17T07:02:24.798Z</time>
      </trkpt>
      <trkpt lat="45.69183" lon="5.81217">
        <ele>319</ele>
        <time>2022-05-17T07:02:25.798Z</time>
      </trkpt>
      <trkpt lat="45.69179" lon="5.81224">
        <ele>319</ele>
        <time>2022-05-17T07:02:26.798Z</time>
      </trkpt>
      <trkpt lat="45.69175" lon="5.81231">
        <ele>319</ele>
        <time>2022-05-17T07:02:27.798Z</time>
      </trkpt>
      <trkpt lat="45.69172" lon="5.81238">
        <ele>319</ele>
        <time>2022-05-17T07:02:28.797Z</time>
      </trkpt>
      <trkpt lat="45.69168" lon="5.81245">
        <ele>319</ele>
        <time>2022-05-17T07:02:29.798Z</time>
      </trkpt>
      <trkpt lat="45.69164" lon="5.81252">
        <ele>319</ele>
        <time>2022-05-17T07:02:30.797Z</time>
      </trkpt>
      <trkpt lat="45.69161" lon="5.81258">
        <ele>318</ele>
        <time>2022-05-17T07:02:31.797Z</time>
      </trkpt>
      <trkpt lat="45.69157" lon="5.81265">
        <ele>318</ele>
        <time>2022-05-17T07:02:32.798Z</time>
      </trkpt>
      <trkpt lat="45.69154" lon="5.81272">
        <ele>318</ele>
        <time>2022-05-17T07:02:33.798Z</time>
      </trkpt>
      <trkpt lat="45.6915" lon="5.81279">
        <ele>318</ele>
        <time>2022-05-17T07:02:34.798Z</time>
      </trkpt>
      <trkpt lat="45.69147" lon="5.81285">
        <ele>318</ele>
        <time>2022-05-17T07:02:35.798Z</time>
      </trkpt>
      <trkpt lat="45.69143" lon="5.81291">
        <ele>318</ele>
        <time>2022-05-17T07:02:36.797Z</time>
      </trkpt>
      <trkpt lat="45.6914" lon="5.81298">
        <ele>318</ele>
        <time>2022-05-17T07:02:37.798Z</time>
      </trkpt>
      <trkpt lat="45.69136" lon="5.81304">
        <ele>318</ele>
        <time>2022-05-17T07:02:38.798Z</time>
      </trkpt>
      <trkpt lat="45.69133" lon="5.81311">
        <ele>318</ele>
        <time>2022-05-17T07:02:39.798Z</time>
      </trkpt>
      <trkpt lat="45.69129" lon="5.81319">
        <ele>318</ele>
        <time>2022-05-17T07:02:40.797Z</time>
      </trkpt>
      <trkpt lat="45.69125" lon="5.81326">
        <ele>318</ele>
        <time>2022-05-17T07:02:41.798Z</time>
      </trkpt>
      <trkpt lat="45.69121" lon="5.81333">
        <ele>318</ele>
        <time>2022-05-17T07:02:42.798Z</time>
      </trkpt>
      <trkpt lat="45.69118" lon="5.8134">
        <ele>317</ele>
        <time>2022-05-17T07:02:43.798Z</time>
      </trkpt>
      <trkpt lat="45.69114" lon="5.81347">
        <ele>318</ele>
        <time>2022-05-17T07:02:44.798Z</time>
      </trkpt>
      <trkpt lat="45.6911" lon="5.81354">
        <ele>317</ele>
        <time>2022-05-17T07:02:45.798Z</time>
      </trkpt>
      <trkpt lat="45.69106" lon="5.81361">
        <ele>318</ele>
        <time>2022-05-17T07:02:46.798Z</time>
      </trkpt>
      <trkpt lat="45.69102" lon="5.81368">
        <ele>318</ele>
        <time>2022-05-17T07:02:47.798Z</time>
      </trkpt>
      <trkpt lat="45.69098" lon="5.81375">
        <ele>319</ele>
        <time>2022-05-17T07:02:48.798Z</time>
      </trkpt>
      <trkpt lat="45.69095" lon="5.81383">
        <ele>320</ele>
        <time>2022-05-17T07:02:49.797Z</time>
      </trkpt>
      <trkpt lat="45.69091" lon="5.8139">
        <ele>320</ele>
        <time>2022-05-17T07:02:50.798Z</time>
      </trkpt>
      <trkpt lat="45.69088" lon="5.81397">
        <ele>321</ele>
        <time>2022-05-17T07:02:51.797Z</time>
      </trkpt>
      <trkpt lat="45.69084" lon="5.81403">
        <ele>320</ele>
        <time>2022-05-17T07:02:52.798Z</time>
      </trkpt>
      <trkpt lat="45.69081" lon="5.8141">
        <ele>320</ele>
        <time>2022-05-17T07:02:53.798Z</time>
      </trkpt>
      <trkpt lat="45.69077" lon="5.81417">
        <ele>320</ele>
        <time>2022-05-17T07:02:54.797Z</time>
      </trkpt>
      <trkpt lat="45.69073" lon="5.81423">
        <ele>319</ele>
        <time>2022-05-17T07:02:55.798Z</time>
      </trkpt>
      <trkpt lat="45.6907" lon="5.8143">
        <ele>319</ele>
        <time>2022-05-17T07:02:56.797Z</time>
      </trkpt>
      <trkpt lat="45.69066" lon="5.81437">
        <ele>319</ele>
        <time>2022-05-17T07:02:57.797Z</time>
      </trkpt>
      <trkpt lat="45.69062" lon="5.81443">
        <ele>319</ele>
        <time>2022-05-17T07:02:58.798Z</time>
      </trkpt>
      <trkpt lat="45.69059" lon="5.8145">
        <ele>319</ele>
        <time>2022-05-17T07:02:59.798Z</time>
      </trkpt>
      <trkpt lat="45.69055" lon="5.81457">
        <ele>319</ele>
        <time>2022-05-17T07:03:00.798Z</time>
      </trkpt>
      <trkpt lat="45.69052" lon="5.81464">
        <ele>319</ele>
        <time>2022-05-17T07:03:01.797Z</time>
      </trkpt>
      <trkpt lat="45.69049" lon="5.8147">
        <ele>319</ele>
        <time>2022-05-17T07:03:02.798Z</time>
      </trkpt>
      <trkpt lat="45.69045" lon="5.81477">
        <ele>319</ele>
        <time>2022-05-17T07:03:03.798Z</time>
      </trkpt>
      <trkpt lat="45.69042" lon="5.81483">
        <ele>320</ele>
        <time>2022-05-17T07:03:04.798Z</time>
      </trkpt>
      <trkpt lat="45.69039" lon="5.8149">
        <ele>320</ele>
        <time>2022-05-17T07:03:05.797Z</time>
      </trkpt>
      <trkpt lat="45.69037" lon="5.81497">
        <ele>320</ele>
        <time>2022-05-17T07:03:06.797Z</time>
      </trkpt>
      <trkpt lat="45.69035" lon="5.81504">
        <ele>320</ele>
        <time>2022-05-17T07:03:07.797Z</time>
      </trkpt>
      <trkpt lat="45.69033" lon="5.81511">
        <ele>319</ele>
        <time>2022-05-17T07:03:08.798Z</time>
      </trkpt>
      <trkpt lat="45.69031" lon="5.81518">
        <ele>319</ele>
        <time>2022-05-17T07:03:09.798Z</time>
      </trkpt>
      <trkpt lat="45.69029" lon="5.81524">
        <ele>319</ele>
        <time>2022-05-17T07:03:10.797Z</time>
      </trkpt>
      <trkpt lat="45.69026" lon="5.8153">
        <ele>320</ele>
        <time>2022-05-17T07:03:11.797Z</time>
      </trkpt>
      <trkpt lat="45.69024" lon="5.81537">
        <ele>320</ele>
        <time>2022-05-17T07:03:12.797Z</time>
      </trkpt>
      <trkpt lat="45.69022" lon="5.81543">
        <ele>320</ele>
        <time>2022-05-17T07:03:13.797Z</time>
      </trkpt>
      <trkpt lat="45.69021" lon="5.8155">
        <ele>320</ele>
        <time>2022-05-17T07:03:14.798Z</time>
      </trkpt>
      <trkpt lat="45.69022" lon="5.81557">
        <ele>320</ele>
        <time>2022-05-17T07:03:15.798Z</time>
      </trkpt>
      <trkpt lat="45.69022" lon="5.81564">
        <ele>320</ele>
        <time>2022-05-17T07:03:16.798Z</time>
      </trkpt>
      <trkpt lat="45.69023" lon="5.81572">
        <ele>320</ele>
        <time>2022-05-17T07:03:17.798Z</time>
      </trkpt>
      <trkpt lat="45.69023" lon="5.81579">
        <ele>320</ele>
        <time>2022-05-17T07:03:18.798Z</time>
      </trkpt>
      <trkpt lat="45.69024" lon="5.81587">
        <ele>320</ele>
        <time>2022-05-17T07:03:19.798Z</time>
      </trkpt>
      <trkpt lat="45.69025" lon="5.81594">
        <ele>320</ele>
        <time>2022-05-17T07:03:20.797Z</time>
      </trkpt>
      <trkpt lat="45.69026" lon="5.81601">
        <ele>320</ele>
        <time>2022-05-17T07:03:21.798Z</time>
      </trkpt>
      <trkpt lat="45.69027" lon="5.81608">
        <ele>320</ele>
        <time>2022-05-17T07:03:22.798Z</time>
      </trkpt>
      <trkpt lat="45.69029" lon="5.81615">
        <ele>320</ele>
        <time>2022-05-17T07:03:23.798Z</time>
      </trkpt>
      <trkpt lat="45.6903" lon="5.81623">
        <ele>320</ele>
        <time>2022-05-17T07:03:24.797Z</time>
      </trkpt>
      <trkpt lat="45.69032" lon="5.8163">
        <ele>320</ele>
        <time>2022-05-17T07:03:25.798Z</time>
      </trkpt>
      <trkpt lat="45.69034" lon="5.81638">
        <ele>320</ele>
        <time>2022-05-17T07:03:26.798Z</time>
      </trkpt>
      <trkpt lat="45.69036" lon="5.81646">
        <ele>321</ele>
        <time>2022-05-17T07:03:27.797Z</time>
      </trkpt>
      <trkpt lat="45.69037" lon="5.81654">
        <ele>321</ele>
        <time>2022-05-17T07:03:28.798Z</time>
      </trkpt>
      <trkpt lat="45.69039" lon="5.81661">
        <ele>321</ele>
        <time>2022-05-17T07:03:29.798Z</time>
      </trkpt>
      <trkpt lat="45.6904" lon="5.81669">
        <ele>321</ele>
        <time>2022-05-17T07:03:30.798Z</time>
      </trkpt>
      <trkpt lat="45.69042" lon="5.81677">
        <ele>321</ele>
        <time>2022-05-17T07:03:31.798Z</time>
      </trkpt>
      <trkpt lat="45.69043" lon="5.81684">
        <ele>322</ele>
        <time>2022-05-17T07:03:32.798Z</time>
      </trkpt>
      <trkpt lat="45.69045" lon="5.81692">
        <ele>322</ele>
        <time>2022-05-17T07:03:33.798Z</time>
      </trkpt>
      <trkpt lat="45.69046" lon="5.817">
        <ele>322</ele>
        <time>2022-05-17T07:03:34.798Z</time>
      </trkpt>
      <trkpt lat="45.69047" lon="5.81708">
        <ele>322</ele>
        <time>2022-05-17T07:03:35.798Z</time>
      </trkpt>
      <trkpt lat="45.69048" lon="5.81717">
        <ele>323</ele>
        <time>2022-05-17T07:03:36.798Z</time>
      </trkpt>
      <trkpt lat="45.69049" lon="5.81725">
        <ele>323</ele>
        <time>2022-05-17T07:03:37.798Z</time>
      </trkpt>
      <trkpt lat="45.6905" lon="5.81733">
        <ele>323</ele>
        <time>2022-05-17T07:03:38.797Z</time>
      </trkpt>
      <trkpt lat="45.69051" lon="5.81742">
        <ele>323</ele>
        <time>2022-05-17T07:03:39.798Z</time>
      </trkpt>
      <trkpt lat="45.69052" lon="5.8175">
        <ele>323</ele>
        <time>2022-05-17T07:03:40.797Z</time>
      </trkpt>
      <trkpt lat="45.69054" lon="5.81758">
        <ele>323</ele>
        <time>2022-05-17T07:03:41.798Z</time>
      </trkpt>
      <trkpt lat="45.69055" lon="5.81766">
        <ele>323</ele>
        <time>2022-05-17T07:03:42.797Z</time>
      </trkpt>
      <trkpt lat="45.69056" lon="5.81774">
        <ele>323</ele>
        <time>2022-05-17T07:03:43.798Z</time>
      </trkpt>
      <trkpt lat="45.69057" lon="5.81782">
        <ele>323</ele>
        <time>2022-05-17T07:03:44.798Z</time>
      </trkpt>
      <trkpt lat="45.69058" lon="5.81789">
        <ele>323</ele>
        <time>2022-05-17T07:03:45.798Z</time>
      </trkpt>
      <trkpt lat="45.69059" lon="5.81797">
        <ele>324</ele>
        <time>2022-05-17T07:03:46.798Z</time>
      </trkpt>
      <trkpt lat="45.6906" lon="5.81804">
        <ele>323</ele>
        <time>2022-05-17T07:03:47.797Z</time>
      </trkpt>
      <trkpt lat="45.69061" lon="5.81811">
        <ele>323</ele>
        <time>2022-05-17T07:03:48.798Z</time>
      </trkpt>
      <trkpt lat="45.69062" lon="5.81818">
        <ele>323</ele>
        <time>2022-05-17T07:03:49.798Z</time>
      </trkpt>
      <trkpt lat="45.69063" lon="5.81825">
        <ele>323</ele>
        <time>2022-05-17T07:03:50.798Z</time>
      </trkpt>
      <trkpt lat="45.69064" lon="5.81832">
        <ele>323</ele>
        <time>2022-05-17T07:03:51.798Z</time>
      </trkpt>
      <trkpt lat="45.69064" lon="5.81839">
        <ele>324</ele>
        <time>2022-05-17T07:03:52.798Z</time>
      </trkpt>
      <trkpt lat="45.69064" lon="5.81846">
        <ele>324</ele>
        <time>2022-05-17T07:03:53.798Z</time>
      </trkpt>
      <trkpt lat="45.69063" lon="5.81853">
        <ele>324</ele>
        <time>2022-05-17T07:03:54.798Z</time>
      </trkpt>
      <trkpt lat="45.69063" lon="5.8186">
        <ele>325</ele>
        <time>2022-05-17T07:03:55.797Z</time>
      </trkpt>
      <trkpt lat="45.69063" lon="5.81866">
        <ele>325</ele>
        <time>2022-05-17T07:03:56.798Z</time>
      </trkpt>
      <trkpt lat="45.69062" lon="5.81873">
        <ele>325</ele>
        <time>2022-05-17T07:03:57.798Z</time>
      </trkpt>
      <trkpt lat="45.69061" lon="5.8188">
        <ele>325</ele>
        <time>2022-05-17T07:03:58.798Z</time>
      </trkpt>
      <trkpt lat="45.69061" lon="5.81886">
        <ele>325</ele>
        <time>2022-05-17T07:03:59.798Z</time>
      </trkpt>
      <trkpt lat="45.6906" lon="5.81893">
        <ele>326</ele>
        <time>2022-05-17T07:04:00.797Z</time>
      </trkpt>
      <trkpt lat="45.69059" lon="5.81899">
        <ele>326</ele>
        <time>2022-05-17T07:04:01.797Z</time>
      </trkpt>
      <trkpt lat="45.69058" lon="5.81906">
        <ele>325</ele>
        <time>2022-05-17T07:04:02.797Z</time>
      </trkpt>
      <trkpt lat="45.69057" lon="5.81912">
        <ele>325</ele>
        <time>2022-05-17T07:04:03.798Z</time>
      </trkpt>
      <trkpt lat="45.69056" lon="5.81918">
        <ele>326</ele>
        <time>2022-05-17T07:04:04.798Z</time>
      </trkpt>
      <trkpt lat="45.69054" lon="5.81924">
        <ele>326</ele>
        <time>2022-05-17T07:04:05.798Z</time>
      </trkpt>
      <trkpt lat="45.69053" lon="5.8193">
        <ele>326</ele>
        <time>2022-05-17T07:04:06.797Z</time>
      </trkpt>
      <trkpt lat="45.69051" lon="5.81936">
        <ele>327</ele>
        <time>2022-05-17T07:04:07.797Z</time>
      </trkpt>
      <trkpt lat="45.6905" lon="5.81942">
        <ele>328</ele>
        <time>2022-05-17T07:04:08.798Z</time>
      </trkpt>
      <trkpt lat="45.69048" lon="5.81947">
        <ele>328</ele>
        <time>2022-05-17T07:04:09.798Z</time>
      </trkpt>
      <trkpt lat="45.69046" lon="5.81952">
        <ele>329</ele>
        <time>2022-05-17T07:04:10.798Z</time>
      </trkpt>
      <trkpt lat="45.69044" lon="5.81958">
        <ele>329</ele>
        <time>2022-05-17T07:04:11.798Z</time>
      </trkpt>
      <trkpt lat="45.69041" lon="5.81963">
        <ele>330</ele>
        <time>2022-05-17T07:04:12.798Z</time>
      </trkpt>
      <trkpt lat="45.69039" lon="5.81968">
        <ele>330</ele>
        <time>2022-05-17T07:04:13.798Z</time>
      </trkpt>
      <trkpt lat="45.69037" lon="5.81973">
        <ele>330</ele>
        <time>2022-05-17T07:04:14.798Z</time>
      </trkpt>
      <trkpt lat="45.69035" lon="5.81978">
        <ele>331</ele>
        <time>2022-05-17T07:04:15.798Z</time>
      </trkpt>
      <trkpt lat="45.69033" lon="5.81983">
        <ele>332</ele>
        <time>2022-05-17T07:04:16.798Z</time>
      </trkpt>
      <trkpt lat="45.6903" lon="5.81989">
        <ele>332</ele>
        <time>2022-05-17T07:04:17.798Z</time>
      </trkpt>
      <trkpt lat="45.69028" lon="5.81994">
        <ele>333</ele>
        <time>2022-05-17T07:04:18.798Z</time>
      </trkpt>
      <trkpt lat="45.69025" lon="5.82">
        <ele>333</ele>
        <time>2022-05-17T07:04:19.798Z</time>
      </trkpt>
      <trkpt lat="45.69022" lon="5.82005">
        <ele>334</ele>
        <time>2022-05-17T07:04:20.797Z</time>
      </trkpt>
      <trkpt lat="45.69019" lon="5.82011">
        <ele>334</ele>
        <time>2022-05-17T07:04:21.798Z</time>
      </trkpt>
      <trkpt lat="45.69016" lon="5.82016">
        <ele>335</ele>
        <time>2022-05-17T07:04:22.798Z</time>
      </trkpt>
      <trkpt lat="45.69014" lon="5.82021">
        <ele>334</ele>
        <time>2022-05-17T07:04:23.798Z</time>
      </trkpt>
      <trkpt lat="45.69011" lon="5.82026">
        <ele>334</ele>
        <time>2022-05-17T07:04:24.798Z</time>
      </trkpt>
      <trkpt lat="45.69009" lon="5.82031">
        <ele>334</ele>
        <time>2022-05-17T07:04:25.798Z</time>
      </trkpt>
      <trkpt lat="45.69006" lon="5.82036">
        <ele>334</ele>
        <time>2022-05-17T07:04:26.798Z</time>
      </trkpt>
      <trkpt lat="45.69004" lon="5.82041">
        <ele>334</ele>
        <time>2022-05-17T07:04:27.798Z</time>
      </trkpt>
      <trkpt lat="45.69001" lon="5.82046">
        <ele>334</ele>
        <time>2022-05-17T07:04:28.798Z</time>
      </trkpt>
      <trkpt lat="45.68999" lon="5.82051">
        <ele>334</ele>
        <time>2022-05-17T07:04:29.797Z</time>
      </trkpt>
      <trkpt lat="45.68996" lon="5.82056">
        <ele>334</ele>
        <time>2022-05-17T07:04:30.798Z</time>
      </trkpt>
      <trkpt lat="45.68994" lon="5.82061">
        <ele>335</ele>
        <time>2022-05-17T07:04:31.798Z</time>
      </trkpt>
      <trkpt lat="45.68992" lon="5.82065">
        <ele>335</ele>
        <time>2022-05-17T07:04:32.798Z</time>
      </trkpt>
      <trkpt lat="45.68989" lon="5.8207">
        <ele>335</ele>
        <time>2022-05-17T07:04:33.798Z</time>
      </trkpt>
      <trkpt lat="45.68987" lon="5.82075">
        <ele>335</ele>
        <time>2022-05-17T07:04:34.798Z</time>
      </trkpt>
      <trkpt lat="45.68985" lon="5.8208">
        <ele>335</ele>
        <time>2022-05-17T07:04:35.798Z</time>
      </trkpt>
      <trkpt lat="45.68983" lon="5.82085">
        <ele>336</ele>
        <time>2022-05-17T07:04:36.798Z</time>
      </trkpt>
      <trkpt lat="45.6898" lon="5.8209">
        <ele>336</ele>
        <time>2022-05-17T07:04:37.798Z</time>
      </trkpt>
      <trkpt lat="45.68978" lon="5.82095">
        <ele>336</ele>
        <time>2022-05-17T07:04:38.798Z</time>
      </trkpt>
      <trkpt lat="45.68976" lon="5.821">
        <ele>336</ele>
        <time>2022-05-17T07:04:39.798Z</time>
      </trkpt>
      <trkpt lat="45.68974" lon="5.82105">
        <ele>337</ele>
        <time>2022-05-17T07:04:40.798Z</time>
      </trkpt>
      <trkpt lat="45.68971" lon="5.8211">
        <ele>337</ele>
        <time>2022-05-17T07:04:41.798Z</time>
      </trkpt>
      <trkpt lat="45.68969" lon="5.82115">
        <ele>338</ele>
        <time>2022-05-17T07:04:42.798Z</time>
      </trkpt>
      <trkpt lat="45.68966" lon="5.8212">
        <ele>338</ele>
        <time>2022-05-17T07:04:43.798Z</time>
      </trkpt>
      <trkpt lat="45.68964" lon="5.82125">
        <ele>338</ele>
        <time>2022-05-17T07:04:44.798Z</time>
      </trkpt>
      <trkpt lat="45.68961" lon="5.8213">
        <ele>338</ele>
        <time>2022-05-17T07:04:45.798Z</time>
      </trkpt>
      <trkpt lat="45.68959" lon="5.82134">
        <ele>338</ele>
        <time>2022-05-17T07:04:46.798Z</time>
      </trkpt>
      <trkpt lat="45.68956" lon="5.82139">
        <ele>338</ele>
        <time>2022-05-17T07:04:47.798Z</time>
      </trkpt>
      <trkpt lat="45.68953" lon="5.82144">
        <ele>338</ele>
        <time>2022-05-17T07:04:48.797Z</time>
      </trkpt>
      <trkpt lat="45.68951" lon="5.82149">
        <ele>339</ele>
        <time>2022-05-17T07:04:49.798Z</time>
      </trkpt>
      <trkpt lat="45.68949" lon="5.82154">
        <ele>339</ele>
        <time>2022-05-17T07:04:50.797Z</time>
      </trkpt>
      <trkpt lat="45.68946" lon="5.82159">
        <ele>339</ele>
        <time>2022-05-17T07:04:51.797Z</time>
      </trkpt>
      <trkpt lat="45.68943" lon="5.82164">
        <ele>339</ele>
        <time>2022-05-17T07:04:52.798Z</time>
      </trkpt>
      <trkpt lat="45.68941" lon="5.82168">
        <ele>339</ele>
        <time>2022-05-17T07:04:53.798Z</time>
      </trkpt>
      <trkpt lat="45.68938" lon="5.82173">
        <ele>339</ele>
        <time>2022-05-17T07:04:54.798Z</time>
      </trkpt>
      <trkpt lat="45.68936" lon="5.82178">
        <ele>339</ele>
        <time>2022-05-17T07:04:55.798Z</time>
      </trkpt>
      <trkpt lat="45.68933" lon="5.82183">
        <ele>340</ele>
        <time>2022-05-17T07:04:56.797Z</time>
      </trkpt>
      <trkpt lat="45.68931" lon="5.82188">
        <ele>340</ele>
        <time>2022-05-17T07:04:57.798Z</time>
      </trkpt>
      <trkpt lat="45.68928" lon="5.82193">
        <ele>340</ele>
        <time>2022-05-17T07:04:58.797Z</time>
      </trkpt>
      <trkpt lat="45.68926" lon="5.82198">
        <ele>340</ele>
        <time>2022-05-17T07:04:59.798Z</time>
      </trkpt>
      <trkpt lat="45.68924" lon="5.82203">
        <ele>341</ele>
        <time>2022-05-17T07:05:00.798Z</time>
      </trkpt>
      <trkpt lat="45.68921" lon="5.82208">
        <ele>341</ele>
        <time>2022-05-17T07:05:01.797Z</time>
      </trkpt>
      <trkpt lat="45.68918" lon="5.82213">
        <ele>342</ele>
        <time>2022-05-17T07:05:02.798Z</time>
      </trkpt>
      <trkpt lat="45.68916" lon="5.82218">
        <ele>342</ele>
        <time>2022-05-17T07:05:03.797Z</time>
      </trkpt>
      <trkpt lat="45.68913" lon="5.82223">
        <ele>342</ele>
        <time>2022-05-17T07:05:04.798Z</time>
      </trkpt>
      <trkpt lat="45.6891" lon="5.82228">
        <ele>342</ele>
        <time>2022-05-17T07:05:05.798Z</time>
      </trkpt>
      <trkpt lat="45.68908" lon="5.82233">
        <ele>343</ele>
        <time>2022-05-17T07:05:06.798Z</time>
      </trkpt>
      <trkpt lat="45.68905" lon="5.82238">
        <ele>343</ele>
        <time>2022-05-17T07:05:07.798Z</time>
      </trkpt>
      <trkpt lat="45.68903" lon="5.82243">
        <ele>343</ele>
        <time>2022-05-17T07:05:08.798Z</time>
      </trkpt>
      <trkpt lat="45.689" lon="5.82248">
        <ele>343</ele>
        <time>2022-05-17T07:05:09.797Z</time>
      </trkpt>
      <trkpt lat="45.68898" lon="5.82254">
        <ele>344</ele>
        <time>2022-05-17T07:05:10.798Z</time>
      </trkpt>
      <trkpt lat="45.68896" lon="5.8226">
        <ele>344</ele>
        <time>2022-05-17T07:05:11.797Z</time>
      </trkpt>
      <trkpt lat="45.68894" lon="5.82265">
        <ele>344</ele>
        <time>2022-05-17T07:05:12.798Z</time>
      </trkpt>
      <trkpt lat="45.68892" lon="5.82271">
        <ele>345</ele>
        <time>2022-05-17T07:05:13.798Z</time>
      </trkpt>
      <trkpt lat="45.6889" lon="5.82276">
        <ele>345</ele>
        <time>2022-05-17T07:05:14.798Z</time>
      </trkpt>
      <trkpt lat="45.68888" lon="5.82282">
        <ele>345</ele>
        <time>2022-05-17T07:05:15.798Z</time>
      </trkpt>
      <trkpt lat="45.68887" lon="5.82288">
        <ele>346</ele>
        <time>2022-05-17T07:05:16.798Z</time>
      </trkpt>
      <trkpt lat="45.68885" lon="5.82293">
        <ele>346</ele>
        <time>2022-05-17T07:05:17.797Z</time>
      </trkpt>
      <trkpt lat="45.68883" lon="5.82299">
        <ele>346</ele>
        <time>2022-05-17T07:05:18.798Z</time>
      </trkpt>
      <trkpt lat="45.68881" lon="5.82305">
        <ele>346</ele>
        <time>2022-05-17T07:05:19.798Z</time>
      </trkpt>
      <trkpt lat="45.6888" lon="5.82311">
        <ele>346</ele>
        <time>2022-05-17T07:05:20.797Z</time>
      </trkpt>
      <trkpt lat="45.68878" lon="5.82317">
        <ele>346</ele>
        <time>2022-05-17T07:05:21.798Z</time>
      </trkpt>
      <trkpt lat="45.68877" lon="5.82323">
        <ele>346</ele>
        <time>2022-05-17T07:05:22.798Z</time>
      </trkpt>
      <trkpt lat="45.68877" lon="5.82329">
        <ele>347</ele>
        <time>2022-05-17T07:05:23.798Z</time>
      </trkpt>
      <trkpt lat="45.68876" lon="5.82335">
        <ele>347</ele>
        <time>2022-05-17T07:05:24.797Z</time>
      </trkpt>
      <trkpt lat="45.68876" lon="5.82341">
        <ele>347</ele>
        <time>2022-05-17T07:05:25.798Z</time>
      </trkpt>
      <trkpt lat="45.68876" lon="5.82347">
        <ele>348</ele>
        <time>2022-05-17T07:05:26.798Z</time>
      </trkpt>
      <trkpt lat="45.68876" lon="5.82353">
        <ele>348</ele>
        <time>2022-05-17T07:05:27.798Z</time>
      </trkpt>
      <trkpt lat="45.68877" lon="5.82359">
        <ele>348</ele>
        <time>2022-05-17T07:05:28.798Z</time>
      </trkpt>
      <trkpt lat="45.68878" lon="5.82365">
        <ele>348</ele>
        <time>2022-05-17T07:05:29.798Z</time>
      </trkpt>
      <trkpt lat="45.68879" lon="5.82371">
        <ele>348</ele>
        <time>2022-05-17T07:05:30.798Z</time>
      </trkpt>
      <trkpt lat="45.6888" lon="5.82377">
        <ele>349</ele>
        <time>2022-05-17T07:05:31.798Z</time>
      </trkpt>
      <trkpt lat="45.68882" lon="5.82383">
        <ele>349</ele>
        <time>2022-05-17T07:05:32.798Z</time>
      </trkpt>
      <trkpt lat="45.68883" lon="5.82389">
        <ele>349</ele>
        <time>2022-05-17T07:05:33.798Z</time>
      </trkpt>
      <trkpt lat="45.68885" lon="5.82395">
        <ele>349</ele>
        <time>2022-05-17T07:05:34.798Z</time>
      </trkpt>
      <trkpt lat="45.68886" lon="5.82401">
        <ele>349</ele>
        <time>2022-05-17T07:05:35.797Z</time>
      </trkpt>
      <trkpt lat="45.68888" lon="5.82407">
        <ele>349</ele>
        <time>2022-05-17T07:05:36.798Z</time>
      </trkpt>
      <trkpt lat="45.68889" lon="5.82413">
        <ele>350</ele>
        <time>2022-05-17T07:05:37.797Z</time>
      </trkpt>
      <trkpt lat="45.68891" lon="5.82419">
        <ele>350</ele>
        <time>2022-05-17T07:05:38.798Z</time>
      </trkpt>
      <trkpt lat="45.68892" lon="5.82425">
        <ele>349</ele>
        <time>2022-05-17T07:05:39.798Z</time>
      </trkpt>
      <trkpt lat="45.68894" lon="5.82431">
        <ele>349</ele>
        <time>2022-05-17T07:05:40.798Z</time>
      </trkpt>
      <trkpt lat="45.68895" lon="5.82437">
        <ele>349</ele>
        <time>2022-05-17T07:05:41.798Z</time>
      </trkpt>
      <trkpt lat="45.68897" lon="5.82442">
        <ele>350</ele>
        <time>2022-05-17T07:05:42.798Z</time>
      </trkpt>
      <trkpt lat="45.68899" lon="5.82448">
        <ele>350</ele>
        <time>2022-05-17T07:05:43.798Z</time>
      </trkpt>
      <trkpt lat="45.68901" lon="5.82454">
        <ele>351</ele>
        <time>2022-05-17T07:05:44.797Z</time>
      </trkpt>
      <trkpt lat="45.68903" lon="5.8246">
        <ele>352</ele>
        <time>2022-05-17T07:05:45.798Z</time>
      </trkpt>
      <trkpt lat="45.68905" lon="5.82466">
        <ele>352</ele>
        <time>2022-05-17T07:05:46.797Z</time>
      </trkpt>
      <trkpt lat="45.68907" lon="5.82471">
        <ele>353</ele>
        <time>2022-05-17T07:05:47.798Z</time>
      </trkpt>
      <trkpt lat="45.6891" lon="5.82477">
        <ele>353</ele>
        <time>2022-05-17T07:05:48.798Z</time>
      </trkpt>
      <trkpt lat="45.68911" lon="5.82483">
        <ele>354</ele>
        <time>2022-05-17T07:05:49.797Z</time>
      </trkpt>
      <trkpt lat="45.68913" lon="5.82489">
        <ele>354</ele>
        <time>2022-05-17T07:05:50.797Z</time>
      </trkpt>
      <trkpt lat="45.68915" lon="5.82494">
        <ele>354</ele>
        <time>2022-05-17T07:05:51.798Z</time>
      </trkpt>
      <trkpt lat="45.68918" lon="5.82499">
        <ele>355</ele>
        <time>2022-05-17T07:05:52.797Z</time>
      </trkpt>
      <trkpt lat="45.6892" lon="5.82504">
        <ele>355</ele>
        <time>2022-05-17T07:05:53.798Z</time>
      </trkpt>
      <trkpt lat="45.68923" lon="5.82509">
        <ele>355</ele>
        <time>2022-05-17T07:05:54.798Z</time>
      </trkpt>
      <trkpt lat="45.68926" lon="5.82514">
        <ele>355</ele>
        <time>2022-05-17T07:05:55.797Z</time>
      </trkpt>
      <trkpt lat="45.68929" lon="5.82519">
        <ele>355</ele>
        <time>2022-05-17T07:05:56.798Z</time>
      </trkpt>
      <trkpt lat="45.68931" lon="5.82523">
        <ele>355</ele>
        <time>2022-05-17T07:05:57.797Z</time>
      </trkpt>
      <trkpt lat="45.68935" lon="5.82528">
        <ele>355</ele>
        <time>2022-05-17T07:05:58.798Z</time>
      </trkpt>
      <trkpt lat="45.68938" lon="5.82531">
        <ele>356</ele>
        <time>2022-05-17T07:05:59.798Z</time>
      </trkpt>
      <trkpt lat="45.68941" lon="5.82535">
        <ele>356</ele>
        <time>2022-05-17T07:06:00.798Z</time>
      </trkpt>
      <trkpt lat="45.68945" lon="5.82538">
        <ele>356</ele>
        <time>2022-05-17T07:06:01.797Z</time>
      </trkpt>
      <trkpt lat="45.68949" lon="5.82541">
        <ele>357</ele>
        <time>2022-05-17T07:06:02.798Z</time>
      </trkpt>
      <trkpt lat="45.68952" lon="5.82545">
        <ele>357</ele>
        <time>2022-05-17T07:06:03.797Z</time>
      </trkpt>
      <trkpt lat="45.68956" lon="5.82548">
        <ele>357</ele>
        <time>2022-05-17T07:06:04.798Z</time>
      </trkpt>
      <trkpt lat="45.6896" lon="5.82551">
        <ele>357</ele>
        <time>2022-05-17T07:06:05.798Z</time>
      </trkpt>
      <trkpt lat="45.68964" lon="5.82553">
        <ele>357</ele>
        <time>2022-05-17T07:06:06.798Z</time>
      </trkpt>
      <trkpt lat="45.68968" lon="5.82556">
        <ele>357</ele>
        <time>2022-05-17T07:06:07.798Z</time>
      </trkpt>
      <trkpt lat="45.68972" lon="5.82558">
        <ele>357</ele>
        <time>2022-05-17T07:06:08.798Z</time>
      </trkpt>
      <trkpt lat="45.68976" lon="5.82561">
        <ele>357</ele>
        <time>2022-05-17T07:06:09.797Z</time>
      </trkpt>
      <trkpt lat="45.68981" lon="5.82563">
        <ele>357</ele>
        <time>2022-05-17T07:06:10.797Z</time>
      </trkpt>
      <trkpt lat="45.68985" lon="5.82565">
        <ele>357</ele>
        <time>2022-05-17T07:06:11.798Z</time>
      </trkpt>
      <trkpt lat="45.68989" lon="5.82567">
        <ele>357</ele>
        <time>2022-05-17T07:06:12.798Z</time>
      </trkpt>
      <trkpt lat="45.68994" lon="5.8257">
        <ele>357</ele>
        <time>2022-05-17T07:06:13.797Z</time>
      </trkpt>
      <trkpt lat="45.68998" lon="5.82572">
        <ele>357</ele>
        <time>2022-05-17T07:06:14.797Z</time>
      </trkpt>
      <trkpt lat="45.69002" lon="5.82574">
        <ele>358</ele>
        <time>2022-05-17T07:06:15.798Z</time>
      </trkpt>
      <trkpt lat="45.69007" lon="5.82576">
        <ele>358</ele>
        <time>2022-05-17T07:06:16.798Z</time>
      </trkpt>
      <trkpt lat="45.69011" lon="5.82579">
        <ele>359</ele>
        <time>2022-05-17T07:06:17.797Z</time>
      </trkpt>
      <trkpt lat="45.69016" lon="5.82581">
        <ele>359</ele>
        <time>2022-05-17T07:06:18.798Z</time>
      </trkpt>
      <trkpt lat="45.6902" lon="5.82583">
        <ele>359</ele>
        <time>2022-05-17T07:06:19.798Z</time>
      </trkpt>
      <trkpt lat="45.69024" lon="5.82585">
        <ele>360</ele>
        <time>2022-05-17T07:06:20.798Z</time>
      </trkpt>
      <trkpt lat="45.69028" lon="5.82587">
        <ele>360</ele>
        <time>2022-05-17T07:06:21.797Z</time>
      </trkpt>
      <trkpt lat="45.69033" lon="5.8259">
        <ele>361</ele>
        <time>2022-05-17T07:06:22.797Z</time>
      </trkpt>
      <trkpt lat="45.69037" lon="5.82592">
        <ele>362</ele>
        <time>2022-05-17T07:06:23.798Z</time>
      </trkpt>
      <trkpt lat="45.69041" lon="5.82594">
        <ele>362</ele>
        <time>2022-05-17T07:06:24.798Z</time>
      </trkpt>
      <trkpt lat="45.69045" lon="5.82596">
        <ele>363</ele>
        <time>2022-05-17T07:06:25.798Z</time>
      </trkpt>
      <trkpt lat="45.69049" lon="5.82599">
        <ele>363</ele>
        <time>2022-05-17T07:06:26.797Z</time>
      </trkpt>
      <trkpt lat="45.69053" lon="5.82601">
        <ele>363</ele>
        <time>2022-05-17T07:06:27.798Z</time>
      </trkpt>
      <trkpt lat="45.69057" lon="5.82604">
        <ele>363</ele>
        <time>2022-05-17T07:06:28.797Z</time>
      </trkpt>
      <trkpt lat="45.69062" lon="5.82607">
        <ele>364</ele>
        <time>2022-05-17T07:06:29.798Z</time>
      </trkpt>
      <trkpt lat="45.69066" lon="5.8261">
        <ele>364</ele>
        <time>2022-05-17T07:06:30.798Z</time>
      </trkpt>
      <trkpt lat="45.6907" lon="5.82613">
        <ele>364</ele>
        <time>2022-05-17T07:06:31.798Z</time>
      </trkpt>
      <trkpt lat="45.69074" lon="5.82617">
        <ele>365</ele>
        <time>2022-05-17T07:06:32.798Z</time>
      </trkpt>
      <trkpt lat="45.69078" lon="5.8262">
        <ele>365</ele>
        <time>2022-05-17T07:06:33.797Z</time>
      </trkpt>
      <trkpt lat="45.69081" lon="5.82624">
        <ele>365</ele>
        <time>2022-05-17T07:06:34.798Z</time>
      </trkpt>
      <trkpt lat="45.69084" lon="5.82628">
        <ele>365</ele>
        <time>2022-05-17T07:06:35.798Z</time>
      </trkpt>
      <trkpt lat="45.69087" lon="5.82633">
        <ele>365</ele>
        <time>2022-05-17T07:06:36.798Z</time>
      </trkpt>
      <trkpt lat="45.6909" lon="5.82637">
        <ele>365</ele>
        <time>2022-05-17T07:06:37.798Z</time>
      </trkpt>
      <trkpt lat="45.69092" lon="5.82642">
        <ele>364</ele>
        <time>2022-05-17T07:06:38.798Z</time>
      </trkpt>
      <trkpt lat="45.69095" lon="5.82647">
        <ele>365</ele>
        <time>2022-05-17T07:06:39.798Z</time>
      </trkpt>
      <trkpt lat="45.69097" lon="5.82652">
        <ele>365</ele>
        <time>2022-05-17T07:06:40.798Z</time>
      </trkpt>
      <trkpt lat="45.691" lon="5.82657">
        <ele>365</ele>
        <time>2022-05-17T07:06:41.797Z</time>
      </trkpt>
      <trkpt lat="45.69103" lon="5.82662">
        <ele>364</ele>
        <time>2022-05-17T07:06:42.798Z</time>
      </trkpt>
      <trkpt lat="45.69105" lon="5.82667">
        <ele>364</ele>
        <time>2022-05-17T07:06:43.797Z</time>
      </trkpt>
      <trkpt lat="45.69107" lon="5.82672">
        <ele>364</ele>
        <time>2022-05-17T07:06:44.798Z</time>
      </trkpt>
      <trkpt lat="45.6911" lon="5.82677">
        <ele>364</ele>
        <time>2022-05-17T07:06:45.798Z</time>
      </trkpt>
      <trkpt lat="45.69113" lon="5.82682">
        <ele>364</ele>
        <time>2022-05-17T07:06:46.797Z</time>
      </trkpt>
      <trkpt lat="45.69115" lon="5.82687">
        <ele>364</ele>
        <time>2022-05-17T07:06:47.797Z</time>
      </trkpt>
      <trkpt lat="45.69117" lon="5.82692">
        <ele>364</ele>
        <time>2022-05-17T07:06:48.798Z</time>
      </trkpt>
      <trkpt lat="45.69119" lon="5.82697">
        <ele>364</ele>
        <time>2022-05-17T07:06:49.798Z</time>
      </trkpt>
      <trkpt lat="45.69121" lon="5.82703">
        <ele>365</ele>
        <time>2022-05-17T07:06:50.798Z</time>
      </trkpt>
      <trkpt lat="45.69124" lon="5.82708">
        <ele>365</ele>
        <time>2022-05-17T07:06:51.798Z</time>
      </trkpt>
      <trkpt lat="45.69126" lon="5.82714">
        <ele>365</ele>
        <time>2022-05-17T07:06:52.797Z</time>
      </trkpt>
      <trkpt lat="45.69128" lon="5.82719">
        <ele>365</ele>
        <time>2022-05-17T07:06:53.798Z</time>
      </trkpt>
      <trkpt lat="45.6913" lon="5.82725">
        <ele>365</ele>
        <time>2022-05-17T07:06:54.798Z</time>
      </trkpt>
      <trkpt lat="45.69132" lon="5.82731">
        <ele>365</ele>
        <time>2022-05-17T07:06:55.797Z</time>
      </trkpt>
      <trkpt lat="45.69134" lon="5.82737">
        <ele>366</ele>
        <time>2022-05-17T07:06:56.798Z</time>
      </trkpt>
      <trkpt lat="45.69135" lon="5.82742">
        <ele>366</ele>
        <time>2022-05-17T07:06:57.797Z</time>
      </trkpt>
      <trkpt lat="45.69137" lon="5.82748">
        <ele>366</ele>
        <time>2022-05-17T07:06:58.798Z</time>
      </trkpt>
      <trkpt lat="45.69139" lon="5.82754">
        <ele>366</ele>
        <time>2022-05-17T07:06:59.798Z</time>
      </trkpt>
      <trkpt lat="45.69141" lon="5.82759">
        <ele>366</ele>
        <time>2022-05-17T07:07:00.798Z</time>
      </trkpt>
      <trkpt lat="45.69143" lon="5.82765">
        <ele>366</ele>
        <time>2022-05-17T07:07:01.798Z</time>
      </trkpt>
      <trkpt lat="45.69144" lon="5.82771">
        <ele>366</ele>
        <time>2022-05-17T07:07:02.797Z</time>
      </trkpt>
      <trkpt lat="45.69146" lon="5.82777">
        <ele>366</ele>
        <time>2022-05-17T07:07:03.798Z</time>
      </trkpt>
      <trkpt lat="45.69148" lon="5.82783">
        <ele>366</ele>
        <time>2022-05-17T07:07:04.798Z</time>
      </trkpt>
      <trkpt lat="45.69149" lon="5.82789">
        <ele>366</ele>
        <time>2022-05-17T07:07:05.797Z</time>
      </trkpt>
      <trkpt lat="45.69151" lon="5.82795">
        <ele>366</ele>
        <time>2022-05-17T07:07:06.798Z</time>
      </trkpt>
      <trkpt lat="45.69153" lon="5.828">
        <ele>367</ele>
        <time>2022-05-17T07:07:07.797Z</time>
      </trkpt>
      <trkpt lat="45.69155" lon="5.82806">
        <ele>367</ele>
        <time>2022-05-17T07:07:08.798Z</time>
      </trkpt>
      <trkpt lat="45.69158" lon="5.82812">
        <ele>368</ele>
        <time>2022-05-17T07:07:09.797Z</time>
      </trkpt>
      <trkpt lat="45.69159" lon="5.82818">
        <ele>368</ele>
        <time>2022-05-17T07:07:10.798Z</time>
      </trkpt>
      <trkpt lat="45.69161" lon="5.82824">
        <ele>369</ele>
        <time>2022-05-17T07:07:11.798Z</time>
      </trkpt>
      <trkpt lat="45.69164" lon="5.8283">
        <ele>370</ele>
        <time>2022-05-17T07:07:12.798Z</time>
      </trkpt>
      <trkpt lat="45.69166" lon="5.82835">
        <ele>370</ele>
        <time>2022-05-17T07:07:13.798Z</time>
      </trkpt>
      <trkpt lat="45.69169" lon="5.82841">
        <ele>371</ele>
        <time>2022-05-17T07:07:14.798Z</time>
      </trkpt>
      <trkpt lat="45.69172" lon="5.82846">
        <ele>372</ele>
        <time>2022-05-17T07:07:15.798Z</time>
      </trkpt>
      <trkpt lat="45.69174" lon="5.82851">
        <ele>372</ele>
        <time>2022-05-17T07:07:16.798Z</time>
      </trkpt>
      <trkpt lat="45.69176" lon="5.82857">
        <ele>373</ele>
        <time>2022-05-17T07:07:17.798Z</time>
      </trkpt>
      <trkpt lat="45.69179" lon="5.82863">
        <ele>373</ele>
        <time>2022-05-17T07:07:18.798Z</time>
      </trkpt>
      <trkpt lat="45.69181" lon="5.82868">
        <ele>374</ele>
        <time>2022-05-17T07:07:19.798Z</time>
      </trkpt>
      <trkpt lat="45.69184" lon="5.82873">
        <ele>375</ele>
        <time>2022-05-17T07:07:20.798Z</time>
      </trkpt>
      <trkpt lat="45.69186" lon="5.82878">
        <ele>376</ele>
        <time>2022-05-17T07:07:21.798Z</time>
      </trkpt>
      <trkpt lat="45.69188" lon="5.82884">
        <ele>376</ele>
        <time>2022-05-17T07:07:22.797Z</time>
      </trkpt>
      <trkpt lat="45.69191" lon="5.82889">
        <ele>377</ele>
        <time>2022-05-17T07:07:23.798Z</time>
      </trkpt>
      <trkpt lat="45.69195" lon="5.82893">
        <ele>378</ele>
        <time>2022-05-17T07:07:24.798Z</time>
      </trkpt>
      <trkpt lat="45.69197" lon="5.82896">
        <ele>379</ele>
        <time>2022-05-17T07:07:25.797Z</time>
      </trkpt>
      <trkpt lat="45.69201" lon="5.829">
        <ele>380</ele>
        <time>2022-05-17T07:07:26.797Z</time>
      </trkpt>
      <trkpt lat="45.69206" lon="5.82905">
        <ele>381</ele>
        <time>2022-05-17T07:07:27.797Z</time>
      </trkpt>
      <trkpt lat="45.69209" lon="5.82908">
        <ele>381</ele>
        <time>2022-05-17T07:07:28.798Z</time>
      </trkpt>
      <trkpt lat="45.69214" lon="5.82912">
        <ele>382</ele>
        <time>2022-05-17T07:07:29.798Z</time>
      </trkpt>
      <trkpt lat="45.69218" lon="5.82915">
        <ele>383</ele>
        <time>2022-05-17T07:07:30.798Z</time>
      </trkpt>
      <trkpt lat="45.69223" lon="5.82918">
        <ele>384</ele>
        <time>2022-05-17T07:07:31.798Z</time>
      </trkpt>
      <trkpt lat="45.69227" lon="5.82922">
        <ele>385</ele>
        <time>2022-05-17T07:07:32.797Z</time>
      </trkpt>
      <trkpt lat="45.6923" lon="5.82924">
        <ele>386</ele>
        <time>2022-05-17T07:07:33.797Z</time>
      </trkpt>
      <trkpt lat="45.69235" lon="5.82926">
        <ele>387</ele>
        <time>2022-05-17T07:07:34.798Z</time>
      </trkpt>
      <trkpt lat="45.69239" lon="5.82929">
        <ele>388</ele>
        <time>2022-05-17T07:07:35.798Z</time>
      </trkpt>
      <trkpt lat="45.69244" lon="5.82931">
        <ele>388</ele>
        <time>2022-05-17T07:07:36.797Z</time>
      </trkpt>
      <trkpt lat="45.69247" lon="5.82932">
        <ele>389</ele>
        <time>2022-05-17T07:07:37.797Z</time>
      </trkpt>
      <trkpt lat="45.69251" lon="5.82933">
        <ele>389</ele>
        <time>2022-05-17T07:07:38.798Z</time>
      </trkpt>
      <trkpt lat="45.69255" lon="5.82934">
        <ele>390</ele>
        <time>2022-05-17T07:07:39.798Z</time>
      </trkpt>
      <trkpt lat="45.6926" lon="5.82935">
        <ele>390</ele>
        <time>2022-05-17T07:07:40.798Z</time>
      </trkpt>
      <trkpt lat="45.69266" lon="5.82936">
        <ele>391</ele>
        <time>2022-05-17T07:07:41.798Z</time>
      </trkpt>
      <trkpt lat="45.6927" lon="5.82937">
        <ele>391</ele>
        <time>2022-05-17T07:07:42.798Z</time>
      </trkpt>
      <trkpt lat="45.69275" lon="5.82938">
        <ele>391</ele>
        <time>2022-05-17T07:07:43.798Z</time>
      </trkpt>
      <trkpt lat="45.69279" lon="5.82939">
        <ele>392</ele>
        <time>2022-05-17T07:07:44.798Z</time>
      </trkpt>
      <trkpt lat="45.69283" lon="5.8294">
        <ele>392</ele>
        <time>2022-05-17T07:07:45.798Z</time>
      </trkpt>
      <trkpt lat="45.69289" lon="5.82941">
        <ele>391</ele>
        <time>2022-05-17T07:07:46.797Z</time>
      </trkpt>
      <trkpt lat="45.69293" lon="5.82941">
        <ele>391</ele>
        <time>2022-05-17T07:07:47.797Z</time>
      </trkpt>
      <trkpt lat="45.69297" lon="5.82941">
        <ele>392</ele>
        <time>2022-05-17T07:07:48.798Z</time>
      </trkpt>
      <trkpt lat="45.69302" lon="5.82942">
        <ele>392</ele>
        <time>2022-05-17T07:07:49.798Z</time>
      </trkpt>
      <trkpt lat="45.69306" lon="5.82942">
        <ele>392</ele>
        <time>2022-05-17T07:07:50.797Z</time>
      </trkpt>
      <trkpt lat="45.69311" lon="5.82944">
        <ele>391</ele>
        <time>2022-05-17T07:07:51.798Z</time>
      </trkpt>
      <trkpt lat="45.69314" lon="5.82945">
        <ele>390</ele>
        <time>2022-05-17T07:07:52.797Z</time>
      </trkpt>
      <trkpt lat="45.69318" lon="5.82946">
        <ele>389</ele>
        <time>2022-05-17T07:07:53.798Z</time>
      </trkpt>
      <trkpt lat="45.69322" lon="5.82947">
        <ele>389</ele>
        <time>2022-05-17T07:07:54.797Z</time>
      </trkpt>
      <trkpt lat="45.69326" lon="5.82948">
        <ele>388</ele>
        <time>2022-05-17T07:07:55.797Z</time>
      </trkpt>
      <trkpt lat="45.6933" lon="5.8295">
        <ele>388</ele>
        <time>2022-05-17T07:07:56.797Z</time>
      </trkpt>
      <trkpt lat="45.69334" lon="5.82954">
        <ele>387</ele>
        <time>2022-05-17T07:07:57.797Z</time>
      </trkpt>
      <trkpt lat="45.69338" lon="5.82957">
        <ele>387</ele>
        <time>2022-05-17T07:07:58.798Z</time>
      </trkpt>
      <trkpt lat="45.69342" lon="5.8296">
        <ele>387</ele>
        <time>2022-05-17T07:07:59.798Z</time>
      </trkpt>
      <trkpt lat="45.69345" lon="5.82965">
        <ele>387</ele>
        <time>2022-05-17T07:08:00.798Z</time>
      </trkpt>
      <trkpt lat="45.69347" lon="5.82971">
        <ele>386</ele>
        <time>2022-05-17T07:08:01.798Z</time>
      </trkpt>
      <trkpt lat="45.69349" lon="5.82976">
        <ele>385</ele>
        <time>2022-05-17T07:08:02.797Z</time>
      </trkpt>
      <trkpt lat="45.69351" lon="5.82982">
        <ele>385</ele>
        <time>2022-05-17T07:08:03.798Z</time>
      </trkpt>
      <trkpt lat="45.69354" lon="5.82988">
        <ele>385</ele>
        <time>2022-05-17T07:08:04.798Z</time>
      </trkpt>
      <trkpt lat="45.69355" lon="5.82996">
        <ele>384</ele>
        <time>2022-05-17T07:08:05.798Z</time>
      </trkpt>
      <trkpt lat="45.69355" lon="5.83001">
        <ele>384</ele>
        <time>2022-05-17T07:08:06.798Z</time>
      </trkpt>
      <trkpt lat="45.69355" lon="5.83008">
        <ele>384</ele>
        <time>2022-05-17T07:08:07.797Z</time>
      </trkpt>
      <trkpt lat="45.69355" lon="5.83014">
        <ele>384</ele>
        <time>2022-05-17T07:08:08.798Z</time>
      </trkpt>
      <trkpt lat="45.69354" lon="5.83021">
        <ele>384</ele>
        <time>2022-05-17T07:08:09.798Z</time>
      </trkpt>
      <trkpt lat="45.69353" lon="5.83029">
        <ele>384</ele>
        <time>2022-05-17T07:08:10.798Z</time>
      </trkpt>
      <trkpt lat="45.69351" lon="5.83034">
        <ele>384</ele>
        <time>2022-05-17T07:08:11.798Z</time>
      </trkpt>
      <trkpt lat="45.69349" lon="5.83041">
        <ele>384</ele>
        <time>2022-05-17T07:08:12.798Z</time>
      </trkpt>
      <trkpt lat="45.69347" lon="5.83047">
        <ele>384</ele>
        <time>2022-05-17T07:08:13.797Z</time>
      </trkpt>
      <trkpt lat="45.69345" lon="5.83055">
        <ele>384</ele>
        <time>2022-05-17T07:08:14.797Z</time>
      </trkpt>
      <trkpt lat="45.69343" lon="5.8306">
        <ele>384</ele>
        <time>2022-05-17T07:08:15.798Z</time>
      </trkpt>
      <trkpt lat="45.69341" lon="5.83067">
        <ele>385</ele>
        <time>2022-05-17T07:08:16.798Z</time>
      </trkpt>
      <trkpt lat="45.69339" lon="5.83073">
        <ele>385</ele>
        <time>2022-05-17T07:08:17.797Z</time>
      </trkpt>
      <trkpt lat="45.69337" lon="5.83081">
        <ele>385</ele>
        <time>2022-05-17T07:08:18.798Z</time>
      </trkpt>
      <trkpt lat="45.69336" lon="5.83086">
        <ele>385</ele>
        <time>2022-05-17T07:08:19.798Z</time>
      </trkpt>
      <trkpt lat="45.69334" lon="5.83093">
        <ele>386</ele>
        <time>2022-05-17T07:08:20.798Z</time>
      </trkpt>
      <trkpt lat="45.69332" lon="5.83099">
        <ele>386</ele>
        <time>2022-05-17T07:08:21.798Z</time>
      </trkpt>
      <trkpt lat="45.6933" lon="5.83106">
        <ele>386</ele>
        <time>2022-05-17T07:08:22.798Z</time>
      </trkpt>
      <trkpt lat="45.69328" lon="5.83112">
        <ele>386</ele>
        <time>2022-05-17T07:08:23.798Z</time>
      </trkpt>
      <trkpt lat="45.69325" lon="5.83119">
        <ele>386</ele>
        <time>2022-05-17T07:08:24.798Z</time>
      </trkpt>
      <trkpt lat="45.69324" lon="5.83124">
        <ele>386</ele>
        <time>2022-05-17T07:08:25.798Z</time>
      </trkpt>
      <trkpt lat="45.69322" lon="5.83131">
        <ele>387</ele>
        <time>2022-05-17T07:08:26.798Z</time>
      </trkpt>
      <trkpt lat="45.6932" lon="5.83139">
        <ele>387</ele>
        <time>2022-05-17T07:08:27.798Z</time>
      </trkpt>
      <trkpt lat="45.69319" lon="5.83145">
        <ele>388</ele>
        <time>2022-05-17T07:08:28.798Z</time>
      </trkpt>
      <trkpt lat="45.69318" lon="5.8315">
        <ele>388</ele>
        <time>2022-05-17T07:08:29.797Z</time>
      </trkpt>
      <trkpt lat="45.69316" lon="5.83157">
        <ele>389</ele>
        <time>2022-05-17T07:08:30.797Z</time>
      </trkpt>
      <trkpt lat="45.69314" lon="5.83163">
        <ele>389</ele>
        <time>2022-05-17T07:08:31.798Z</time>
      </trkpt>
      <trkpt lat="45.69311" lon="5.8317">
        <ele>389</ele>
        <time>2022-05-17T07:08:32.797Z</time>
      </trkpt>
      <trkpt lat="45.69309" lon="5.83176">
        <ele>390</ele>
        <time>2022-05-17T07:08:33.798Z</time>
      </trkpt>
      <trkpt lat="45.69307" lon="5.83181">
        <ele>390</ele>
        <time>2022-05-17T07:08:34.798Z</time>
      </trkpt>
      <trkpt lat="45.69305" lon="5.83187">
        <ele>390</ele>
        <time>2022-05-17T07:08:35.797Z</time>
      </trkpt>
      <trkpt lat="45.69301" lon="5.83192">
        <ele>390</ele>
        <time>2022-05-17T07:08:36.798Z</time>
      </trkpt>
      <trkpt lat="45.69298" lon="5.83196">
        <ele>390</ele>
        <time>2022-05-17T07:08:37.797Z</time>
      </trkpt>
      <trkpt lat="45.69294" lon="5.83201">
        <ele>390</ele>
        <time>2022-05-17T07:08:38.797Z</time>
      </trkpt>
      <trkpt lat="45.6929" lon="5.83205">
        <ele>391</ele>
        <time>2022-05-17T07:08:39.798Z</time>
      </trkpt>
      <trkpt lat="45.69286" lon="5.83208">
        <ele>391</ele>
        <time>2022-05-17T07:08:40.797Z</time>
      </trkpt>
      <trkpt lat="45.69282" lon="5.83211">
        <ele>391</ele>
        <time>2022-05-17T07:08:41.798Z</time>
      </trkpt>
      <trkpt lat="45.69277" lon="5.83214">
        <ele>391</ele>
        <time>2022-05-17T07:08:42.798Z</time>
      </trkpt>
      <trkpt lat="45.69272" lon="5.83217">
        <ele>392</ele>
        <time>2022-05-17T07:08:43.798Z</time>
      </trkpt>
      <trkpt lat="45.69267" lon="5.8322">
        <ele>393</ele>
        <time>2022-05-17T07:08:44.798Z</time>
      </trkpt>
      <trkpt lat="45.69262" lon="5.83223">
        <ele>393</ele>
        <time>2022-05-17T07:08:45.798Z</time>
      </trkpt>
      <trkpt lat="45.69257" lon="5.83225">
        <ele>394</ele>
        <time>2022-05-17T07:08:46.798Z</time>
      </trkpt>
      <trkpt lat="45.69253" lon="5.83227">
        <ele>395</ele>
        <time>2022-05-17T07:08:47.798Z</time>
      </trkpt>
      <trkpt lat="45.69248" lon="5.83229">
        <ele>395</ele>
        <time>2022-05-17T07:08:48.798Z</time>
      </trkpt>
      <trkpt lat="45.69243" lon="5.8323">
        <ele>396</ele>
        <time>2022-05-17T07:08:49.798Z</time>
      </trkpt>
      <trkpt lat="45.69237" lon="5.83231">
        <ele>396</ele>
        <time>2022-05-17T07:08:50.797Z</time>
      </trkpt>
      <trkpt lat="45.69232" lon="5.83231">
        <ele>397</ele>
        <time>2022-05-17T07:08:51.797Z</time>
      </trkpt>
      <trkpt lat="45.69226" lon="5.83231">
        <ele>398</ele>
        <time>2022-05-17T07:08:52.798Z</time>
      </trkpt>
      <trkpt lat="45.69222" lon="5.8323">
        <ele>398</ele>
        <time>2022-05-17T07:08:53.798Z</time>
      </trkpt>
      <trkpt lat="45.69217" lon="5.83229">
        <ele>399</ele>
        <time>2022-05-17T07:08:54.798Z</time>
      </trkpt>
      <trkpt lat="45.69212" lon="5.83228">
        <ele>400</ele>
        <time>2022-05-17T07:08:55.798Z</time>
      </trkpt>
      <trkpt lat="45.69207" lon="5.83227">
        <ele>399</ele>
        <time>2022-05-17T07:08:56.798Z</time>
      </trkpt>
      <trkpt lat="45.69202" lon="5.83226">
        <ele>399</ele>
        <time>2022-05-17T07:08:57.798Z</time>
      </trkpt>
      <trkpt lat="45.69197" lon="5.83225">
        <ele>399</ele>
        <time>2022-05-17T07:08:58.798Z</time>
      </trkpt>
      <trkpt lat="45.69192" lon="5.83223">
        <ele>399</ele>
        <time>2022-05-17T07:08:59.798Z</time>
      </trkpt>
      <trkpt lat="45.69187" lon="5.83222">
        <ele>399</ele>
        <time>2022-05-17T07:09:00.798Z</time>
      </trkpt>
      <trkpt lat="45.69182" lon="5.83221">
        <ele>399</ele>
        <time>2022-05-17T07:09:01.798Z</time>
      </trkpt>
      <trkpt lat="45.69177" lon="5.83221">
        <ele>399</ele>
        <time>2022-05-17T07:09:02.798Z</time>
      </trkpt>
      <trkpt lat="45.69172" lon="5.8322">
        <ele>398</ele>
        <time>2022-05-17T07:09:03.798Z</time>
      </trkpt>
      <trkpt lat="45.69167" lon="5.83219">
        <ele>398</ele>
        <time>2022-05-17T07:09:04.798Z</time>
      </trkpt>
      <trkpt lat="45.69162" lon="5.83219">
        <ele>398</ele>
        <time>2022-05-17T07:09:05.797Z</time>
      </trkpt>
      <trkpt lat="45.69157" lon="5.83218">
        <ele>397</ele>
        <time>2022-05-17T07:09:06.798Z</time>
      </trkpt>
      <trkpt lat="45.69152" lon="5.83217">
        <ele>397</ele>
        <time>2022-05-17T07:09:07.797Z</time>
      </trkpt>
      <trkpt lat="45.69147" lon="5.83217">
        <ele>397</ele>
        <time>2022-05-17T07:09:08.798Z</time>
      </trkpt>
      <trkpt lat="45.69142" lon="5.83216">
        <ele>397</ele>
        <time>2022-05-17T07:09:09.798Z</time>
      </trkpt>
      <trkpt lat="45.69137" lon="5.83215">
        <ele>397</ele>
        <time>2022-05-17T07:09:10.798Z</time>
      </trkpt>
      <trkpt lat="45.69132" lon="5.83215">
        <ele>397</ele>
        <time>2022-05-17T07:09:11.798Z</time>
      </trkpt>
      <trkpt lat="45.69127" lon="5.83214">
        <ele>397</ele>
        <time>2022-05-17T07:09:12.798Z</time>
      </trkpt>
      <trkpt lat="45.69123" lon="5.83214">
        <ele>397</ele>
        <time>2022-05-17T07:09:13.798Z</time>
      </trkpt>
      <trkpt lat="45.69118" lon="5.83213">
        <ele>397</ele>
        <time>2022-05-17T07:09:14.798Z</time>
      </trkpt>
      <trkpt lat="45.69113" lon="5.83213">
        <ele>397</ele>
        <time>2022-05-17T07:09:15.798Z</time>
      </trkpt>
      <trkpt lat="45.69109" lon="5.83212">
        <ele>397</ele>
        <time>2022-05-17T07:09:16.797Z</time>
      </trkpt>
      <trkpt lat="45.69104" lon="5.83212">
        <ele>397</ele>
        <time>2022-05-17T07:09:17.798Z</time>
      </trkpt>
      <trkpt lat="45.691" lon="5.83211">
        <ele>397</ele>
        <time>2022-05-17T07:09:18.798Z</time>
      </trkpt>
      <trkpt lat="45.69095" lon="5.83211">
        <ele>397</ele>
        <time>2022-05-17T07:09:19.797Z</time>
      </trkpt>
      <trkpt lat="45.69091" lon="5.8321">
        <ele>397</ele>
        <time>2022-05-17T07:09:20.797Z</time>
      </trkpt>
      <trkpt lat="45.69086" lon="5.8321">
        <ele>397</ele>
        <time>2022-05-17T07:09:21.798Z</time>
      </trkpt>
      <trkpt lat="45.69082" lon="5.8321">
        <ele>397</ele>
        <time>2022-05-17T07:09:22.797Z</time>
      </trkpt>
      <trkpt lat="45.69077" lon="5.8321">
        <ele>398</ele>
        <time>2022-05-17T07:09:23.797Z</time>
      </trkpt>
      <trkpt lat="45.69072" lon="5.83209">
        <ele>397</ele>
        <time>2022-05-17T07:09:24.798Z</time>
      </trkpt>
      <trkpt lat="45.69068" lon="5.83209">
        <ele>398</ele>
        <time>2022-05-17T07:09:25.798Z</time>
      </trkpt>
      <trkpt lat="45.69063" lon="5.83209">
        <ele>397</ele>
        <time>2022-05-17T07:09:26.798Z</time>
      </trkpt>
      <trkpt lat="45.69058" lon="5.8321">
        <ele>397</ele>
        <time>2022-05-17T07:09:27.798Z</time>
      </trkpt>
      <trkpt lat="45.69053" lon="5.83212">
        <ele>397</ele>
        <time>2022-05-17T07:09:28.798Z</time>
      </trkpt>
      <trkpt lat="45.69048" lon="5.83214">
        <ele>397</ele>
        <time>2022-05-17T07:09:29.798Z</time>
      </trkpt>
      <trkpt lat="45.69044" lon="5.83217">
        <ele>397</ele>
        <time>2022-05-17T07:09:30.798Z</time>
      </trkpt>
      <trkpt lat="45.69039" lon="5.8322">
        <ele>397</ele>
        <time>2022-05-17T07:09:31.798Z</time>
      </trkpt>
      <trkpt lat="45.69035" lon="5.83224">
        <ele>397</ele>
        <time>2022-05-17T07:09:32.798Z</time>
      </trkpt>
      <trkpt lat="45.69032" lon="5.83228">
        <ele>397</ele>
        <time>2022-05-17T07:09:33.798Z</time>
      </trkpt>
      <trkpt lat="45.69028" lon="5.83232">
        <ele>397</ele>
        <time>2022-05-17T07:09:34.798Z</time>
      </trkpt>
      <trkpt lat="45.69025" lon="5.83238">
        <ele>397</ele>
        <time>2022-05-17T07:09:35.798Z</time>
      </trkpt>
      <trkpt lat="45.69023" lon="5.83244">
        <ele>397</ele>
        <time>2022-05-17T07:09:36.798Z</time>
      </trkpt>
      <trkpt lat="45.69021" lon="5.8325">
        <ele>397</ele>
        <time>2022-05-17T07:09:37.798Z</time>
      </trkpt>
      <trkpt lat="45.6902" lon="5.83257">
        <ele>397</ele>
        <time>2022-05-17T07:09:38.798Z</time>
      </trkpt>
      <trkpt lat="45.6902" lon="5.83264">
        <ele>397</ele>
        <time>2022-05-17T07:09:39.798Z</time>
      </trkpt>
      <trkpt lat="45.69019" lon="5.8327">
        <ele>397</ele>
        <time>2022-05-17T07:09:40.798Z</time>
      </trkpt>
      <trkpt lat="45.69018" lon="5.83278">
        <ele>397</ele>
        <time>2022-05-17T07:09:41.798Z</time>
      </trkpt>
      <trkpt lat="45.69017" lon="5.83286">
        <ele>397</ele>
        <time>2022-05-17T07:09:42.798Z</time>
      </trkpt>
      <trkpt lat="45.69016" lon="5.83294">
        <ele>397</ele>
        <time>2022-05-17T07:09:43.798Z</time>
      </trkpt>
      <trkpt lat="45.69017" lon="5.83301">
        <ele>397</ele>
        <time>2022-05-17T07:09:44.798Z</time>
      </trkpt>
      <trkpt lat="45.6902" lon="5.83307">
        <ele>397</ele>
        <time>2022-05-17T07:09:45.797Z</time>
      </trkpt>
      <trkpt lat="45.69024" lon="5.83311">
        <ele>397</ele>
        <time>2022-05-17T07:09:46.797Z</time>
      </trkpt>
      <trkpt lat="45.69029" lon="5.83312">
        <ele>397</ele>
        <time>2022-05-17T07:09:47.798Z</time>
      </trkpt>
      <trkpt lat="45.69035" lon="5.83312">
        <ele>397</ele>
        <time>2022-05-17T07:09:48.798Z</time>
      </trkpt>
      <trkpt lat="45.69041" lon="5.83312">
        <ele>397</ele>
        <time>2022-05-17T07:09:49.798Z</time>
      </trkpt>
      <trkpt lat="45.69049" lon="5.83314">
        <ele>398</ele>
        <time>2022-05-17T07:09:50.798Z</time>
      </trkpt>
      <trkpt lat="45.69054" lon="5.83317">
        <ele>398</ele>
        <time>2022-05-17T07:09:51.797Z</time>
      </trkpt>
      <trkpt lat="45.69059" lon="5.83323">
        <ele>398</ele>
        <time>2022-05-17T07:09:52.798Z</time>
      </trkpt>
      <trkpt lat="45.69064" lon="5.83332">
        <ele>399</ele>
        <time>2022-05-17T07:09:53.798Z</time>
      </trkpt>
      <trkpt lat="45.69067" lon="5.8334">
        <ele>399</ele>
        <time>2022-05-17T07:09:54.798Z</time>
      </trkpt>
      <trkpt lat="45.69068" lon="5.83349">
        <ele>399</ele>
        <time>2022-05-17T07:09:55.798Z</time>
      </trkpt>
      <trkpt lat="45.69068" lon="5.83358">
        <ele>399</ele>
        <time>2022-05-17T07:09:56.798Z</time>
      </trkpt>
      <trkpt lat="45.69067" lon="5.83366">
        <ele>398</ele>
        <time>2022-05-17T07:09:57.798Z</time>
      </trkpt>
      <trkpt lat="45.69066" lon="5.83374">
        <ele>398</ele>
        <time>2022-05-17T07:09:58.798Z</time>
      </trkpt>
      <trkpt lat="45.69066" lon="5.83381">
        <ele>398</ele>
        <time>2022-05-17T07:09:59.798Z</time>
      </trkpt>
      <trkpt lat="45.69066" lon="5.8339">
        <ele>398</ele>
        <time>2022-05-17T07:10:00.798Z</time>
      </trkpt>
      <trkpt lat="45.69067" lon="5.83398">
        <ele>398</ele>
        <time>2022-05-17T07:10:01.797Z</time>
      </trkpt>
      <trkpt lat="45.69069" lon="5.83407">
        <ele>398</ele>
        <time>2022-05-17T07:10:02.797Z</time>
      </trkpt>
      <trkpt lat="45.69072" lon="5.83414">
        <ele>399</ele>
        <time>2022-05-17T07:10:03.798Z</time>
      </trkpt>
      <trkpt lat="45.69075" lon="5.83421">
        <ele>399</ele>
        <time>2022-05-17T07:10:04.798Z</time>
      </trkpt>
      <trkpt lat="45.69078" lon="5.83425">
        <ele>399</ele>
        <time>2022-05-17T07:10:05.798Z</time>
      </trkpt>
      <trkpt lat="45.69081" lon="5.83431">
        <ele>399</ele>
        <time>2022-05-17T07:10:06.798Z</time>
      </trkpt>
      <trkpt lat="45.69085" lon="5.83438">
        <ele>399</ele>
        <time>2022-05-17T07:10:07.798Z</time>
      </trkpt>
      <trkpt lat="45.69086" lon="5.83443">
        <ele>400</ele>
        <time>2022-05-17T07:10:08.798Z</time>
      </trkpt>
      <trkpt lat="45.68512" lon="5.85249">
        <ele>398</ele>
        <time>2022-05-17T07:14:06.798Z</time>
      </trkpt>
      <trkpt lat="45.68502" lon="5.85249">
        <ele>396</ele>
        <time>2022-05-17T07:14:07.797Z</time>
      </trkpt>
      <trkpt lat="45.685" lon="5.85241">
        <ele>395</ele>
        <time>2022-05-17T07:14:08.798Z</time>
      </trkpt>
      <trkpt lat="45.68499" lon="5.85235">
        <ele>394</ele>
        <time>2022-05-17T07:14:09.798Z</time>
      </trkpt>
      <trkpt lat="45.68495" lon="5.85228">
        <ele>393</ele>
        <time>2022-05-17T07:14:10.797Z</time>
      </trkpt>
      <trkpt lat="45.68492" lon="5.8522">
        <ele>393</ele>
        <time>2022-05-17T07:14:11.798Z</time>
      </trkpt>
      <trkpt lat="45.68487" lon="5.85216">
        <ele>392</ele>
        <time>2022-05-17T07:14:12.798Z</time>
      </trkpt>
      <trkpt lat="45.68482" lon="5.85212">
        <ele>391</ele>
        <time>2022-05-17T07:14:13.798Z</time>
      </trkpt>
      <trkpt lat="45.68476" lon="5.85209">
        <ele>391</ele>
        <time>2022-05-17T07:14:14.798Z</time>
      </trkpt>
      <trkpt lat="45.6847" lon="5.85206">
        <ele>391</ele>
        <time>2022-05-17T07:14:15.798Z</time>
      </trkpt>
      <trkpt lat="45.68464" lon="5.85203">
        <ele>391</ele>
        <time>2022-05-17T07:14:16.798Z</time>
      </trkpt>
      <trkpt lat="45.68459" lon="5.852">
        <ele>391</ele>
        <time>2022-05-17T07:14:17.798Z</time>
      </trkpt>
      <trkpt lat="45.68452" lon="5.85196">
        <ele>391</ele>
        <time>2022-05-17T07:14:18.798Z</time>
      </trkpt>
      <trkpt lat="45.68447" lon="5.85194">
        <ele>391</ele>
        <time>2022-05-17T07:14:19.798Z</time>
      </trkpt>
      <trkpt lat="45.68441" lon="5.85191">
        <ele>391</ele>
        <time>2022-05-17T07:14:20.798Z</time>
      </trkpt>
      <trkpt lat="45.68435" lon="5.85188">
        <ele>391</ele>
        <time>2022-05-17T07:14:21.798Z</time>
      </trkpt>
      <trkpt lat="45.68429" lon="5.85185">
        <ele>391</ele>
        <time>2022-05-17T07:14:22.798Z</time>
      </trkpt>
      <trkpt lat="45.68423" lon="5.85182">
        <ele>391</ele>
        <time>2022-05-17T07:14:23.798Z</time>
      </trkpt>
      <trkpt lat="45.68418" lon="5.85177">
        <ele>391</ele>
        <time>2022-05-17T07:14:24.798Z</time>
      </trkpt>
      <trkpt lat="45.68413" lon="5.85172">
        <ele>391</ele>
        <time>2022-05-17T07:14:25.797Z</time>
      </trkpt>
      <trkpt lat="45.68407" lon="5.85166">
        <ele>391</ele>
        <time>2022-05-17T07:14:26.798Z</time>
      </trkpt>
      <trkpt lat="45.68402" lon="5.8516">
        <ele>390</ele>
        <time>2022-05-17T07:14:27.797Z</time>
      </trkpt>
      <trkpt lat="45.68394" lon="5.85154">
        <ele>390</ele>
        <time>2022-05-17T07:14:28.798Z</time>
      </trkpt>
      <trkpt lat="45.68388" lon="5.85151">
        <ele>390</ele>
        <time>2022-05-17T07:14:29.798Z</time>
      </trkpt>
      <trkpt lat="45.68382" lon="5.85147">
        <ele>389</ele>
        <time>2022-05-17T07:14:30.797Z</time>
      </trkpt>
      <trkpt lat="45.68373" lon="5.85143">
        <ele>389</ele>
        <time>2022-05-17T07:14:31.797Z</time>
      </trkpt>
      <trkpt lat="45.68365" lon="5.8514">
        <ele>389</ele>
        <time>2022-05-17T07:14:32.797Z</time>
      </trkpt>
      <trkpt lat="45.68358" lon="5.85138">
        <ele>388</ele>
        <time>2022-05-17T07:14:33.798Z</time>
      </trkpt>
      <trkpt lat="45.68348" lon="5.85133">
        <ele>388</ele>
        <time>2022-05-17T07:14:34.798Z</time>
      </trkpt>
      <trkpt lat="45.68339" lon="5.8513">
        <ele>388</ele>
        <time>2022-05-17T07:14:35.797Z</time>
      </trkpt>
      <trkpt lat="45.6833" lon="5.85127">
        <ele>388</ele>
        <time>2022-05-17T07:14:36.797Z</time>
      </trkpt>
      <trkpt lat="45.6832" lon="5.85124">
        <ele>388</ele>
        <time>2022-05-17T07:14:37.798Z</time>
      </trkpt>
      <trkpt lat="45.68311" lon="5.85121">
        <ele>388</ele>
        <time>2022-05-17T07:14:38.798Z</time>
      </trkpt>
      <trkpt lat="45.68303" lon="5.85118">
        <ele>388</ele>
        <time>2022-05-17T07:14:39.798Z</time>
      </trkpt>
      <trkpt lat="45.68293" lon="5.85115">
        <ele>387</ele>
        <time>2022-05-17T07:14:40.798Z</time>
      </trkpt>
      <trkpt lat="45.68283" lon="5.85112">
        <ele>387</ele>
        <time>2022-05-17T07:14:41.797Z</time>
      </trkpt>
      <trkpt lat="45.68273" lon="5.85109">
        <ele>387</ele>
        <time>2022-05-17T07:14:42.798Z</time>
      </trkpt>
      <trkpt lat="45.68263" lon="5.85105">
        <ele>386</ele>
        <time>2022-05-17T07:14:43.798Z</time>
      </trkpt>
      <trkpt lat="45.68253" lon="5.85102">
        <ele>385</ele>
        <time>2022-05-17T07:14:44.797Z</time>
      </trkpt>
      <trkpt lat="45.68242" lon="5.85099">
        <ele>385</ele>
        <time>2022-05-17T07:14:45.798Z</time>
      </trkpt>
      <trkpt lat="45.6823" lon="5.85096">
        <ele>385</ele>
        <time>2022-05-17T07:14:46.798Z</time>
      </trkpt>
      <trkpt lat="45.68221" lon="5.85094">
        <ele>385</ele>
        <time>2022-05-17T07:14:47.798Z</time>
      </trkpt>
      <trkpt lat="45.68211" lon="5.85093">
        <ele>385</ele>
        <time>2022-05-17T07:14:48.797Z</time>
      </trkpt>
      <trkpt lat="45.682" lon="5.85092">
        <ele>384</ele>
        <time>2022-05-17T07:14:49.798Z</time>
      </trkpt>
      <trkpt lat="45.6819" lon="5.85091">
        <ele>384</ele>
        <time>2022-05-17T07:14:50.797Z</time>
      </trkpt>
      <trkpt lat="45.68179" lon="5.8509">
        <ele>384</ele>
        <time>2022-05-17T07:14:51.798Z</time>
      </trkpt>
      <trkpt lat="45.68168" lon="5.8509">
        <ele>384</ele>
        <time>2022-05-17T07:14:52.798Z</time>
      </trkpt>
      <trkpt lat="45.68157" lon="5.85089">
        <ele>384</ele>
        <time>2022-05-17T07:14:53.797Z</time>
      </trkpt>
      <trkpt lat="45.68146" lon="5.85089">
        <ele>383</ele>
        <time>2022-05-17T07:14:54.797Z</time>
      </trkpt>
      <trkpt lat="45.68135" lon="5.85089">
        <ele>383</ele>
        <time>2022-05-17T07:14:55.797Z</time>
      </trkpt>
      <trkpt lat="45.68124" lon="5.8509">
        <ele>383</ele>
        <time>2022-05-17T07:14:56.797Z</time>
      </trkpt>
      <trkpt lat="45.68112" lon="5.85091">
        <ele>383</ele>
        <time>2022-05-17T07:14:57.797Z</time>
      </trkpt>
      <trkpt lat="45.681" lon="5.85093">
        <ele>382</ele>
        <time>2022-05-17T07:14:58.798Z</time>
      </trkpt>
      <trkpt lat="45.68089" lon="5.85095">
        <ele>382</ele>
        <time>2022-05-17T07:14:59.797Z</time>
      </trkpt>
      <trkpt lat="45.68077" lon="5.85097">
        <ele>380</ele>
        <time>2022-05-17T07:15:00.797Z</time>
      </trkpt>
      <trkpt lat="45.68065" lon="5.85098">
        <ele>379</ele>
        <time>2022-05-17T07:15:01.797Z</time>
      </trkpt>
      <trkpt lat="45.68053" lon="5.851">
        <ele>378</ele>
        <time>2022-05-17T07:15:02.798Z</time>
      </trkpt>
      <trkpt lat="45.68041" lon="5.85102">
        <ele>377</ele>
        <time>2022-05-17T07:15:03.797Z</time>
      </trkpt>
      <trkpt lat="45.6803" lon="5.85104">
        <ele>377</ele>
        <time>2022-05-17T07:15:04.798Z</time>
      </trkpt>
      <trkpt lat="45.68018" lon="5.85105">
        <ele>376</ele>
        <time>2022-05-17T07:15:05.798Z</time>
      </trkpt>
      <trkpt lat="45.68006" lon="5.85106">
        <ele>376</ele>
        <time>2022-05-17T07:15:06.798Z</time>
      </trkpt>
      <trkpt lat="45.67994" lon="5.85105">
        <ele>375</ele>
        <time>2022-05-17T07:15:07.798Z</time>
      </trkpt>
      <trkpt lat="45.67982" lon="5.85101">
        <ele>374</ele>
        <time>2022-05-17T07:15:08.798Z</time>
      </trkpt>
      <trkpt lat="45.67971" lon="5.85095">
        <ele>373</ele>
        <time>2022-05-17T07:15:09.798Z</time>
      </trkpt>
      <trkpt lat="45.67961" lon="5.85087">
        <ele>373</ele>
        <time>2022-05-17T07:15:10.798Z</time>
      </trkpt>
      <trkpt lat="45.6795" lon="5.85079">
        <ele>372</ele>
        <time>2022-05-17T07:15:11.798Z</time>
      </trkpt>
      <trkpt lat="45.67939" lon="5.8507">
        <ele>372</ele>
        <time>2022-05-17T07:15:12.797Z</time>
      </trkpt>
      <trkpt lat="45.67928" lon="5.85062">
        <ele>371</ele>
        <time>2022-05-17T07:15:13.798Z</time>
      </trkpt>
      <trkpt lat="45.67917" lon="5.85056">
        <ele>370</ele>
        <time>2022-05-17T07:15:14.798Z</time>
      </trkpt>
      <trkpt lat="45.67905" lon="5.85051">
        <ele>369</ele>
        <time>2022-05-17T07:15:15.798Z</time>
      </trkpt>
      <trkpt lat="45.67893" lon="5.85047">
        <ele>368</ele>
        <time>2022-05-17T07:15:16.797Z</time>
      </trkpt>
      <trkpt lat="45.67881" lon="5.85045">
        <ele>367</ele>
        <time>2022-05-17T07:15:17.797Z</time>
      </trkpt>
      <trkpt lat="45.67869" lon="5.85044">
        <ele>367</ele>
        <time>2022-05-17T07:15:18.797Z</time>
      </trkpt>
      <trkpt lat="45.67856" lon="5.85044">
        <ele>367</ele>
        <time>2022-05-17T07:15:19.798Z</time>
      </trkpt>
      <trkpt lat="45.67844" lon="5.85044">
        <ele>366</ele>
        <time>2022-05-17T07:15:20.798Z</time>
      </trkpt>
      <trkpt lat="45.67833" lon="5.85044">
        <ele>366</ele>
        <time>2022-05-17T07:15:21.798Z</time>
      </trkpt>
      <trkpt lat="45.6782" lon="5.85044">
        <ele>365</ele>
        <time>2022-05-17T07:15:22.797Z</time>
      </trkpt>
      <trkpt lat="45.67808" lon="5.85044">
        <ele>364</ele>
        <time>2022-05-17T07:15:23.798Z</time>
      </trkpt>
      <trkpt lat="45.67795" lon="5.85046">
        <ele>364</ele>
        <time>2022-05-17T07:15:24.798Z</time>
      </trkpt>
      <trkpt lat="45.67784" lon="5.85048">
        <ele>363</ele>
        <time>2022-05-17T07:15:25.798Z</time>
      </trkpt>
      <trkpt lat="45.67772" lon="5.85052">
        <ele>362</ele>
        <time>2022-05-17T07:15:26.797Z</time>
      </trkpt>
      <trkpt lat="45.6776" lon="5.85055">
        <ele>361</ele>
        <time>2022-05-17T07:15:27.797Z</time>
      </trkpt>
      <trkpt lat="45.67749" lon="5.8506">
        <ele>360</ele>
        <time>2022-05-17T07:15:28.798Z</time>
      </trkpt>
      <trkpt lat="45.67739" lon="5.85065">
        <ele>359</ele>
        <time>2022-05-17T07:15:29.797Z</time>
      </trkpt>
      <trkpt lat="45.67729" lon="5.85073">
        <ele>359</ele>
        <time>2022-05-17T07:15:30.798Z</time>
      </trkpt>
      <trkpt lat="45.67719" lon="5.85082">
        <ele>358</ele>
        <time>2022-05-17T07:15:31.798Z</time>
      </trkpt>
      <trkpt lat="45.6771" lon="5.85091">
        <ele>358</ele>
        <time>2022-05-17T07:15:32.798Z</time>
      </trkpt>
      <trkpt lat="45.67702" lon="5.85102">
        <ele>357</ele>
        <time>2022-05-17T07:15:33.798Z</time>
      </trkpt>
      <trkpt lat="45.67695" lon="5.85113">
        <ele>356</ele>
        <time>2022-05-17T07:15:34.797Z</time>
      </trkpt>
      <trkpt lat="45.67689" lon="5.85124">
        <ele>355</ele>
        <time>2022-05-17T07:15:35.798Z</time>
      </trkpt>
      <trkpt lat="45.67684" lon="5.85133">
        <ele>354</ele>
        <time>2022-05-17T07:15:36.798Z</time>
      </trkpt>
      <trkpt lat="45.67678" lon="5.8514">
        <ele>354</ele>
        <time>2022-05-17T07:15:37.797Z</time>
      </trkpt>
      <trkpt lat="45.67672" lon="5.85147">
        <ele>352</ele>
        <time>2022-05-17T07:15:38.798Z</time>
      </trkpt>
      <trkpt lat="45.67666" lon="5.85155">
        <ele>351</ele>
        <time>2022-05-17T07:15:39.798Z</time>
      </trkpt>
      <trkpt lat="45.67662" lon="5.85162">
        <ele>351</ele>
        <time>2022-05-17T07:15:40.797Z</time>
      </trkpt>
      <trkpt lat="45.67659" lon="5.85171">
        <ele>350</ele>
        <time>2022-05-17T07:15:41.798Z</time>
      </trkpt>
      <trkpt lat="45.67656" lon="5.85182">
        <ele>349</ele>
        <time>2022-05-17T07:15:42.798Z</time>
      </trkpt>
      <trkpt lat="45.67654" lon="5.85195">
        <ele>349</ele>
        <time>2022-05-17T07:15:43.797Z</time>
      </trkpt>
      <trkpt lat="45.67651" lon="5.85208">
        <ele>349</ele>
        <time>2022-05-17T07:15:44.798Z</time>
      </trkpt>
      <trkpt lat="45.67645" lon="5.8522">
        <ele>349</ele>
        <time>2022-05-17T07:15:45.798Z</time>
      </trkpt>
      <trkpt lat="45.67639" lon="5.8523">
        <ele>349</ele>
        <time>2022-05-17T07:15:46.798Z</time>
      </trkpt>
      <trkpt lat="45.67631" lon="5.85239">
        <ele>348</ele>
        <time>2022-05-17T07:15:47.798Z</time>
      </trkpt>
      <trkpt lat="45.67622" lon="5.85248">
        <ele>348</ele>
        <time>2022-05-17T07:15:48.798Z</time>
      </trkpt>
      <trkpt lat="45.67613" lon="5.85256">
        <ele>348</ele>
        <time>2022-05-17T07:15:49.798Z</time>
      </trkpt>
      <trkpt lat="45.67604" lon="5.85263">
        <ele>348</ele>
        <time>2022-05-17T07:15:50.798Z</time>
      </trkpt>
      <trkpt lat="45.67595" lon="5.85269">
        <ele>348</ele>
        <time>2022-05-17T07:15:51.798Z</time>
      </trkpt>
      <trkpt lat="45.67585" lon="5.85276">
        <ele>347</ele>
        <time>2022-05-17T07:15:52.798Z</time>
      </trkpt>
      <trkpt lat="45.67576" lon="5.85283">
        <ele>347</ele>
        <time>2022-05-17T07:15:53.797Z</time>
      </trkpt>
      <trkpt lat="45.67566" lon="5.8529">
        <ele>347</ele>
        <time>2022-05-17T07:15:54.797Z</time>
      </trkpt>
      <trkpt lat="45.67556" lon="5.85297">
        <ele>347</ele>
        <time>2022-05-17T07:15:55.798Z</time>
      </trkpt>
      <trkpt lat="45.67546" lon="5.85304">
        <ele>346</ele>
        <time>2022-05-17T07:15:56.797Z</time>
      </trkpt>
      <trkpt lat="45.67536" lon="5.85311">
        <ele>346</ele>
        <time>2022-05-17T07:15:57.798Z</time>
      </trkpt>
      <trkpt lat="45.67526" lon="5.85316">
        <ele>345</ele>
        <time>2022-05-17T07:15:58.798Z</time>
      </trkpt>
      <trkpt lat="45.67514" lon="5.85319">
        <ele>345</ele>
        <time>2022-05-17T07:15:59.798Z</time>
      </trkpt>
      <trkpt lat="45.67503" lon="5.85321">
        <ele>345</ele>
        <time>2022-05-17T07:16:00.798Z</time>
      </trkpt>
      <trkpt lat="45.67492" lon="5.85322">
        <ele>345</ele>
        <time>2022-05-17T07:16:01.798Z</time>
      </trkpt>
      <trkpt lat="45.67481" lon="5.85322">
        <ele>345</ele>
        <time>2022-05-17T07:16:02.797Z</time>
      </trkpt>
      <trkpt lat="45.67469" lon="5.85321">
        <ele>345</ele>
        <time>2022-05-17T07:16:03.798Z</time>
      </trkpt>
      <trkpt lat="45.67458" lon="5.85321">
        <ele>345</ele>
        <time>2022-05-17T07:16:04.798Z</time>
      </trkpt>
      <trkpt lat="45.67447" lon="5.8532">
        <ele>344</ele>
        <time>2022-05-17T07:16:05.798Z</time>
      </trkpt>
      <trkpt lat="45.67436" lon="5.8532">
        <ele>343</ele>
        <time>2022-05-17T07:16:06.797Z</time>
      </trkpt>
      <trkpt lat="45.67424" lon="5.8532">
        <ele>342</ele>
        <time>2022-05-17T07:16:07.798Z</time>
      </trkpt>
      <trkpt lat="45.67413" lon="5.85322">
        <ele>342</ele>
        <time>2022-05-17T07:16:08.798Z</time>
      </trkpt>
      <trkpt lat="45.67401" lon="5.85326">
        <ele>342</ele>
        <time>2022-05-17T07:16:09.797Z</time>
      </trkpt>
      <trkpt lat="45.6739" lon="5.85332">
        <ele>342</ele>
        <time>2022-05-17T07:16:10.798Z</time>
      </trkpt>
      <trkpt lat="45.6738" lon="5.85339">
        <ele>342</ele>
        <time>2022-05-17T07:16:11.798Z</time>
      </trkpt>
      <trkpt lat="45.67369" lon="5.85346">
        <ele>342</ele>
        <time>2022-05-17T07:16:12.798Z</time>
      </trkpt>
      <trkpt lat="45.67359" lon="5.85354">
        <ele>342</ele>
        <time>2022-05-17T07:16:13.797Z</time>
      </trkpt>
      <trkpt lat="45.6735" lon="5.85362">
        <ele>342</ele>
        <time>2022-05-17T07:16:14.798Z</time>
      </trkpt>
      <trkpt lat="45.67339" lon="5.85371">
        <ele>342</ele>
        <time>2022-05-17T07:16:15.798Z</time>
      </trkpt>
      <trkpt lat="45.67329" lon="5.85379">
        <ele>342</ele>
        <time>2022-05-17T07:16:16.798Z</time>
      </trkpt>
      <trkpt lat="45.67319" lon="5.85386">
        <ele>342</ele>
        <time>2022-05-17T07:16:17.798Z</time>
      </trkpt>
      <trkpt lat="45.67308" lon="5.85394">
        <ele>342</ele>
        <time>2022-05-17T07:16:18.798Z</time>
      </trkpt>
      <trkpt lat="45.67298" lon="5.854">
        <ele>341</ele>
        <time>2022-05-17T07:16:19.797Z</time>
      </trkpt>
      <trkpt lat="45.67286" lon="5.85405">
        <ele>341</ele>
        <time>2022-05-17T07:16:20.798Z</time>
      </trkpt>
      <trkpt lat="45.67274" lon="5.85408">
        <ele>340</ele>
        <time>2022-05-17T07:16:21.798Z</time>
      </trkpt>
      <trkpt lat="45.67262" lon="5.85411">
        <ele>340</ele>
        <time>2022-05-17T07:16:22.798Z</time>
      </trkpt>
      <trkpt lat="45.6725" lon="5.85413">
        <ele>340</ele>
        <time>2022-05-17T07:16:23.797Z</time>
      </trkpt>
      <trkpt lat="45.67238" lon="5.85415">
        <ele>340</ele>
        <time>2022-05-17T07:16:24.797Z</time>
      </trkpt>
      <trkpt lat="45.67226" lon="5.85418">
        <ele>340</ele>
        <time>2022-05-17T07:16:25.798Z</time>
      </trkpt>
      <trkpt lat="45.67213" lon="5.85421">
        <ele>340</ele>
        <time>2022-05-17T07:16:26.798Z</time>
      </trkpt>
      <trkpt lat="45.67201" lon="5.85425">
        <ele>340</ele>
        <time>2022-05-17T07:16:27.798Z</time>
      </trkpt>
      <trkpt lat="45.67189" lon="5.8543">
        <ele>340</ele>
        <time>2022-05-17T07:16:28.798Z</time>
      </trkpt>
      <trkpt lat="45.67177" lon="5.85436">
        <ele>340</ele>
        <time>2022-05-17T07:16:29.797Z</time>
      </trkpt>
      <trkpt lat="45.67165" lon="5.85442">
        <ele>340</ele>
        <time>2022-05-17T07:16:30.798Z</time>
      </trkpt>
      <trkpt lat="45.67152" lon="5.85448">
        <ele>340</ele>
        <time>2022-05-17T07:16:31.797Z</time>
      </trkpt>
      <trkpt lat="45.6714" lon="5.85454">
        <ele>341</ele>
        <time>2022-05-17T07:16:32.798Z</time>
      </trkpt>
      <trkpt lat="45.67127" lon="5.85459">
        <ele>341</ele>
        <time>2022-05-17T07:16:33.798Z</time>
      </trkpt>
      <trkpt lat="45.67114" lon="5.85462">
        <ele>341</ele>
        <time>2022-05-17T07:16:34.798Z</time>
      </trkpt>
      <trkpt lat="45.67101" lon="5.85464">
        <ele>340</ele>
        <time>2022-05-17T07:16:35.797Z</time>
      </trkpt>
      <trkpt lat="45.67088" lon="5.85464">
        <ele>340</ele>
        <time>2022-05-17T07:16:36.797Z</time>
      </trkpt>
      <trkpt lat="45.67075" lon="5.85464">
        <ele>339</ele>
        <time>2022-05-17T07:16:37.798Z</time>
      </trkpt>
      <trkpt lat="45.67063" lon="5.85463">
        <ele>339</ele>
        <time>2022-05-17T07:16:38.798Z</time>
      </trkpt>
      <trkpt lat="45.6705" lon="5.85462">
        <ele>339</ele>
        <time>2022-05-17T07:16:39.797Z</time>
      </trkpt>
      <trkpt lat="45.67038" lon="5.85464">
        <ele>338</ele>
        <time>2022-05-17T07:16:40.798Z</time>
      </trkpt>
      <trkpt lat="45.67026" lon="5.85467">
        <ele>338</ele>
        <time>2022-05-17T07:16:41.797Z</time>
      </trkpt>
      <trkpt lat="45.67014" lon="5.85471">
        <ele>337</ele>
        <time>2022-05-17T07:16:42.798Z</time>
      </trkpt>
      <trkpt lat="45.67002" lon="5.85475">
        <ele>336</ele>
        <time>2022-05-17T07:16:43.798Z</time>
      </trkpt>
      <trkpt lat="45.6699" lon="5.85479">
        <ele>335</ele>
        <time>2022-05-17T07:16:44.798Z</time>
      </trkpt>
      <trkpt lat="45.66977" lon="5.85481">
        <ele>334</ele>
        <time>2022-05-17T07:16:45.798Z</time>
      </trkpt>
      <trkpt lat="45.66965" lon="5.85483">
        <ele>333</ele>
        <time>2022-05-17T07:16:46.797Z</time>
      </trkpt>
      <trkpt lat="45.66953" lon="5.85484">
        <ele>332</ele>
        <time>2022-05-17T07:16:47.798Z</time>
      </trkpt>
      <trkpt lat="45.6694" lon="5.85485">
        <ele>332</ele>
        <time>2022-05-17T07:16:48.797Z</time>
      </trkpt>
      <trkpt lat="45.66927" lon="5.85485">
        <ele>331</ele>
        <time>2022-05-17T07:16:49.797Z</time>
      </trkpt>
      <trkpt lat="45.66915" lon="5.85485">
        <ele>331</ele>
        <time>2022-05-17T07:16:50.798Z</time>
      </trkpt>
      <trkpt lat="45.66903" lon="5.85485">
        <ele>331</ele>
        <time>2022-05-17T07:16:51.797Z</time>
      </trkpt>
      <trkpt lat="45.66891" lon="5.85484">
        <ele>331</ele>
        <time>2022-05-17T07:16:52.798Z</time>
      </trkpt>
      <trkpt lat="45.66879" lon="5.85483">
        <ele>332</ele>
        <time>2022-05-17T07:16:53.798Z</time>
      </trkpt>
      <trkpt lat="45.66867" lon="5.85482">
        <ele>331</ele>
        <time>2022-05-17T07:16:54.798Z</time>
      </trkpt>
      <trkpt lat="45.66855" lon="5.85479">
        <ele>331</ele>
        <time>2022-05-17T07:16:55.798Z</time>
      </trkpt>
      <trkpt lat="45.66843" lon="5.85475">
        <ele>331</ele>
        <time>2022-05-17T07:16:56.798Z</time>
      </trkpt>
      <trkpt lat="45.66832" lon="5.85471">
        <ele>330</ele>
        <time>2022-05-17T07:16:57.797Z</time>
      </trkpt>
      <trkpt lat="45.6682" lon="5.85466">
        <ele>329</ele>
        <time>2022-05-17T07:16:58.797Z</time>
      </trkpt>
      <trkpt lat="45.66808" lon="5.85462">
        <ele>328</ele>
        <time>2022-05-17T07:16:59.797Z</time>
      </trkpt>
      <trkpt lat="45.66796" lon="5.85457">
        <ele>327</ele>
        <time>2022-05-17T07:17:00.797Z</time>
      </trkpt>
      <trkpt lat="45.66785" lon="5.85452">
        <ele>325</ele>
        <time>2022-05-17T07:17:01.798Z</time>
      </trkpt>
      <trkpt lat="45.66773" lon="5.85448">
        <ele>324</ele>
        <time>2022-05-17T07:17:02.797Z</time>
      </trkpt>
      <trkpt lat="45.66761" lon="5.85443">
        <ele>323</ele>
        <time>2022-05-17T07:17:03.797Z</time>
      </trkpt>
      <trkpt lat="45.66749" lon="5.85439">
        <ele>323</ele>
        <time>2022-05-17T07:17:04.797Z</time>
      </trkpt>
      <trkpt lat="45.66737" lon="5.85435">
        <ele>322</ele>
        <time>2022-05-17T07:17:05.798Z</time>
      </trkpt>
      <trkpt lat="45.66725" lon="5.85431">
        <ele>321</ele>
        <time>2022-05-17T07:17:06.798Z</time>
      </trkpt>
      <trkpt lat="45.66714" lon="5.85426">
        <ele>320</ele>
        <time>2022-05-17T07:17:07.798Z</time>
      </trkpt>
      <trkpt lat="45.66702" lon="5.85422">
        <ele>320</ele>
        <time>2022-05-17T07:17:08.798Z</time>
      </trkpt>
      <trkpt lat="45.6669" lon="5.85418">
        <ele>319</ele>
        <time>2022-05-17T07:17:09.797Z</time>
      </trkpt>
      <trkpt lat="45.66679" lon="5.85414">
        <ele>319</ele>
        <time>2022-05-17T07:17:10.797Z</time>
      </trkpt>
      <trkpt lat="45.66668" lon="5.8541">
        <ele>318</ele>
        <time>2022-05-17T07:17:11.797Z</time>
      </trkpt>
      <trkpt lat="45.66657" lon="5.85406">
        <ele>318</ele>
        <time>2022-05-17T07:17:12.798Z</time>
      </trkpt>
      <trkpt lat="45.66646" lon="5.85403">
        <ele>318</ele>
        <time>2022-05-17T07:17:13.798Z</time>
      </trkpt>
      <trkpt lat="45.66635" lon="5.85401">
        <ele>318</ele>
        <time>2022-05-17T07:17:14.797Z</time>
      </trkpt>
      <trkpt lat="45.66623" lon="5.85399">
        <ele>319</ele>
        <time>2022-05-17T07:17:15.798Z</time>
      </trkpt>
      <trkpt lat="45.66612" lon="5.85397">
        <ele>319</ele>
        <time>2022-05-17T07:17:16.797Z</time>
      </trkpt>
      <trkpt lat="45.66601" lon="5.85395">
        <ele>318</ele>
        <time>2022-05-17T07:17:17.798Z</time>
      </trkpt>
      <trkpt lat="45.66591" lon="5.85393">
        <ele>318</ele>
        <time>2022-05-17T07:17:18.798Z</time>
      </trkpt>
      <trkpt lat="45.6658" lon="5.85392">
        <ele>318</ele>
        <time>2022-05-17T07:17:19.798Z</time>
      </trkpt>
      <trkpt lat="45.66569" lon="5.85391">
        <ele>317</ele>
        <time>2022-05-17T07:17:20.797Z</time>
      </trkpt>
      <trkpt lat="45.66558" lon="5.8539">
        <ele>316</ele>
        <time>2022-05-17T07:17:21.797Z</time>
      </trkpt>
      <trkpt lat="45.66547" lon="5.8539">
        <ele>316</ele>
        <time>2022-05-17T07:17:22.797Z</time>
      </trkpt>
      <trkpt lat="45.66536" lon="5.8539">
        <ele>316</ele>
        <time>2022-05-17T07:17:23.798Z</time>
      </trkpt>
      <trkpt lat="45.66525" lon="5.85391">
        <ele>315</ele>
        <time>2022-05-17T07:17:24.797Z</time>
      </trkpt>
      <trkpt lat="45.66515" lon="5.85394">
        <ele>316</ele>
        <time>2022-05-17T07:17:25.798Z</time>
      </trkpt>
      <trkpt lat="45.66504" lon="5.85397">
        <ele>315</ele>
        <time>2022-05-17T07:17:26.798Z</time>
      </trkpt>
      <trkpt lat="45.66493" lon="5.854">
        <ele>315</ele>
        <time>2022-05-17T07:17:27.798Z</time>
      </trkpt>
      <trkpt lat="45.66483" lon="5.85404">
        <ele>315</ele>
        <time>2022-05-17T07:17:28.798Z</time>
      </trkpt>
      <trkpt lat="45.66472" lon="5.85407">
        <ele>314</ele>
        <time>2022-05-17T07:17:29.798Z</time>
      </trkpt>
      <trkpt lat="45.66462" lon="5.85411">
        <ele>314</ele>
        <time>2022-05-17T07:17:30.798Z</time>
      </trkpt>
      <trkpt lat="45.66451" lon="5.85415">
        <ele>314</ele>
        <time>2022-05-17T07:17:31.798Z</time>
      </trkpt>
      <trkpt lat="45.66441" lon="5.8542">
        <ele>313</ele>
        <time>2022-05-17T07:17:32.797Z</time>
      </trkpt>
      <trkpt lat="45.6643" lon="5.85424">
        <ele>313</ele>
        <time>2022-05-17T07:17:33.797Z</time>
      </trkpt>
      <trkpt lat="45.6642" lon="5.85428">
        <ele>313</ele>
        <time>2022-05-17T07:17:34.798Z</time>
      </trkpt>
      <trkpt lat="45.66409" lon="5.85432">
        <ele>313</ele>
        <time>2022-05-17T07:17:35.798Z</time>
      </trkpt>
      <trkpt lat="45.66399" lon="5.85436">
        <ele>312</ele>
        <time>2022-05-17T07:17:36.797Z</time>
      </trkpt>
      <trkpt lat="45.66388" lon="5.8544">
        <ele>312</ele>
        <time>2022-05-17T07:17:37.798Z</time>
      </trkpt>
      <trkpt lat="45.66377" lon="5.85444">
        <ele>312</ele>
        <time>2022-05-17T07:17:38.798Z</time>
      </trkpt>
      <trkpt lat="45.66367" lon="5.85448">
        <ele>312</ele>
        <time>2022-05-17T07:17:39.798Z</time>
      </trkpt>
      <trkpt lat="45.66356" lon="5.85452">
        <ele>312</ele>
        <time>2022-05-17T07:17:40.797Z</time>
      </trkpt>
      <trkpt lat="45.66346" lon="5.85457">
        <ele>311</ele>
        <time>2022-05-17T07:17:41.798Z</time>
      </trkpt>
      <trkpt lat="45.66336" lon="5.85463">
        <ele>311</ele>
        <time>2022-05-17T07:17:42.798Z</time>
      </trkpt>
      <trkpt lat="45.66326" lon="5.85469">
        <ele>310</ele>
        <time>2022-05-17T07:17:43.797Z</time>
      </trkpt>
      <trkpt lat="45.66316" lon="5.85476">
        <ele>310</ele>
        <time>2022-05-17T07:17:44.798Z</time>
      </trkpt>
      <trkpt lat="45.66307" lon="5.85484">
        <ele>309</ele>
        <time>2022-05-17T07:17:45.798Z</time>
      </trkpt>
      <trkpt lat="45.66298" lon="5.85494">
        <ele>308</ele>
        <time>2022-05-17T07:17:46.798Z</time>
      </trkpt>
      <trkpt lat="45.6629" lon="5.85504">
        <ele>307</ele>
        <time>2022-05-17T07:17:47.798Z</time>
      </trkpt>
      <trkpt lat="45.66281" lon="5.85514">
        <ele>306</ele>
        <time>2022-05-17T07:17:48.797Z</time>
      </trkpt>
      <trkpt lat="45.66274" lon="5.85525">
        <ele>305</ele>
        <time>2022-05-17T07:17:49.798Z</time>
      </trkpt>
      <trkpt lat="45.66266" lon="5.85537">
        <ele>304</ele>
        <time>2022-05-17T07:17:50.798Z</time>
      </trkpt>
      <trkpt lat="45.66259" lon="5.85547">
        <ele>303</ele>
        <time>2022-05-17T07:17:51.797Z</time>
      </trkpt>
      <trkpt lat="45.66251" lon="5.85558">
        <ele>303</ele>
        <time>2022-05-17T07:17:52.798Z</time>
      </trkpt>
      <trkpt lat="45.66242" lon="5.85568">
        <ele>302</ele>
        <time>2022-05-17T07:17:53.798Z</time>
      </trkpt>
      <trkpt lat="45.66232" lon="5.85577">
        <ele>301</ele>
        <time>2022-05-17T07:17:54.798Z</time>
      </trkpt>
      <trkpt lat="45.66222" lon="5.85584">
        <ele>301</ele>
        <time>2022-05-17T07:17:55.798Z</time>
      </trkpt>
      <trkpt lat="45.66211" lon="5.8559">
        <ele>300</ele>
        <time>2022-05-17T07:17:56.797Z</time>
      </trkpt>
      <trkpt lat="45.66199" lon="5.85596">
        <ele>300</ele>
        <time>2022-05-17T07:17:57.798Z</time>
      </trkpt>
      <trkpt lat="45.66188" lon="5.85601">
        <ele>300</ele>
        <time>2022-05-17T07:17:58.798Z</time>
      </trkpt>
      <trkpt lat="45.66177" lon="5.85603">
        <ele>299</ele>
        <time>2022-05-17T07:17:59.798Z</time>
      </trkpt>
      <trkpt lat="45.66165" lon="5.85605">
        <ele>299</ele>
        <time>2022-05-17T07:18:00.798Z</time>
      </trkpt>
      <trkpt lat="45.66154" lon="5.85607">
        <ele>299</ele>
        <time>2022-05-17T07:18:01.798Z</time>
      </trkpt>
      <trkpt lat="45.66142" lon="5.85607">
        <ele>298</ele>
        <time>2022-05-17T07:18:02.798Z</time>
      </trkpt>
      <trkpt lat="45.6613" lon="5.85605">
        <ele>298</ele>
        <time>2022-05-17T07:18:03.798Z</time>
      </trkpt>
      <trkpt lat="45.66118" lon="5.85604">
        <ele>298</ele>
        <time>2022-05-17T07:18:04.798Z</time>
      </trkpt>
      <trkpt lat="45.66107" lon="5.85601">
        <ele>298</ele>
        <time>2022-05-17T07:18:05.798Z</time>
      </trkpt>
      <trkpt lat="45.66094" lon="5.85596">
        <ele>297</ele>
        <time>2022-05-17T07:18:06.798Z</time>
      </trkpt>
      <trkpt lat="45.66083" lon="5.8559">
        <ele>297</ele>
        <time>2022-05-17T07:18:07.798Z</time>
      </trkpt>
      <trkpt lat="45.66071" lon="5.85584">
        <ele>296</ele>
        <time>2022-05-17T07:18:08.798Z</time>
      </trkpt>
      <trkpt lat="45.6606" lon="5.85577">
        <ele>296</ele>
        <time>2022-05-17T07:18:09.798Z</time>
      </trkpt>
      <trkpt lat="45.66049" lon="5.8557">
        <ele>295</ele>
        <time>2022-05-17T07:18:10.798Z</time>
      </trkpt>
      <trkpt lat="45.66037" lon="5.85564">
        <ele>295</ele>
        <time>2022-05-17T07:18:11.798Z</time>
      </trkpt>
      <trkpt lat="45.66025" lon="5.85559">
        <ele>294</ele>
        <time>2022-05-17T07:18:12.798Z</time>
      </trkpt>
      <trkpt lat="45.66013" lon="5.85555">
        <ele>294</ele>
        <time>2022-05-17T07:18:13.797Z</time>
      </trkpt>
      <trkpt lat="45.66001" lon="5.85552">
        <ele>293</ele>
        <time>2022-05-17T07:18:14.798Z</time>
      </trkpt>
      <trkpt lat="45.65988" lon="5.85551">
        <ele>293</ele>
        <time>2022-05-17T07:18:15.798Z</time>
      </trkpt>
      <trkpt lat="45.65975" lon="5.8555">
        <ele>292</ele>
        <time>2022-05-17T07:18:16.798Z</time>
      </trkpt>
      <trkpt lat="45.65962" lon="5.85548">
        <ele>292</ele>
        <time>2022-05-17T07:18:17.798Z</time>
      </trkpt>
      <trkpt lat="45.65949" lon="5.85549">
        <ele>291</ele>
        <time>2022-05-17T07:18:18.798Z</time>
      </trkpt>
      <trkpt lat="45.65936" lon="5.8555">
        <ele>291</ele>
        <time>2022-05-17T07:18:19.798Z</time>
      </trkpt>
      <trkpt lat="45.65923" lon="5.85554">
        <ele>290</ele>
        <time>2022-05-17T07:18:20.798Z</time>
      </trkpt>
      <trkpt lat="45.6591" lon="5.85559">
        <ele>289</ele>
        <time>2022-05-17T07:18:21.797Z</time>
      </trkpt>
      <trkpt lat="45.65898" lon="5.85565">
        <ele>288</ele>
        <time>2022-05-17T07:18:22.798Z</time>
      </trkpt>
      <trkpt lat="45.65886" lon="5.8557">
        <ele>287</ele>
        <time>2022-05-17T07:18:23.798Z</time>
      </trkpt>
      <trkpt lat="45.65874" lon="5.85575">
        <ele>285</ele>
        <time>2022-05-17T07:18:24.798Z</time>
      </trkpt>
      <trkpt lat="45.65862" lon="5.85581">
        <ele>283</ele>
        <time>2022-05-17T07:18:25.798Z</time>
      </trkpt>
      <trkpt lat="45.65849" lon="5.85586">
        <ele>282</ele>
        <time>2022-05-17T07:18:26.798Z</time>
      </trkpt>
      <trkpt lat="45.65837" lon="5.85591">
        <ele>281</ele>
        <time>2022-05-17T07:18:27.798Z</time>
      </trkpt>
      <trkpt lat="45.65824" lon="5.85597">
        <ele>279</ele>
        <time>2022-05-17T07:18:28.798Z</time>
      </trkpt>
      <trkpt lat="45.65812" lon="5.85602">
        <ele>278</ele>
        <time>2022-05-17T07:18:29.798Z</time>
      </trkpt>
      <trkpt lat="45.658" lon="5.85608">
        <ele>277</ele>
        <time>2022-05-17T07:18:30.798Z</time>
      </trkpt>
      <trkpt lat="45.65787" lon="5.85614">
        <ele>277</ele>
        <time>2022-05-17T07:18:31.797Z</time>
      </trkpt>
      <trkpt lat="45.65775" lon="5.8562">
        <ele>276</ele>
        <time>2022-05-17T07:18:32.797Z</time>
      </trkpt>
      <trkpt lat="45.65762" lon="5.85625">
        <ele>275</ele>
        <time>2022-05-17T07:18:33.798Z</time>
      </trkpt>
      <trkpt lat="45.65749" lon="5.85631">
        <ele>274</ele>
        <time>2022-05-17T07:18:34.798Z</time>
      </trkpt>
      <trkpt lat="45.65737" lon="5.85638">
        <ele>273</ele>
        <time>2022-05-17T07:18:35.798Z</time>
      </trkpt>
      <trkpt lat="45.65724" lon="5.85645">
        <ele>272</ele>
        <time>2022-05-17T07:18:36.798Z</time>
      </trkpt>
      <trkpt lat="45.65712" lon="5.85654">
        <ele>272</ele>
        <time>2022-05-17T07:18:37.797Z</time>
      </trkpt>
      <trkpt lat="45.657" lon="5.85663">
        <ele>271</ele>
        <time>2022-05-17T07:18:38.798Z</time>
      </trkpt>
      <trkpt lat="45.65689" lon="5.85673">
        <ele>271</ele>
        <time>2022-05-17T07:18:39.797Z</time>
      </trkpt>
      <trkpt lat="45.65678" lon="5.85684">
        <ele>271</ele>
        <time>2022-05-17T07:18:40.798Z</time>
      </trkpt>
      <trkpt lat="45.65666" lon="5.85695">
        <ele>271</ele>
        <time>2022-05-17T07:18:41.798Z</time>
      </trkpt>
      <trkpt lat="45.65655" lon="5.85706">
        <ele>271</ele>
        <time>2022-05-17T07:18:42.798Z</time>
      </trkpt>
      <trkpt lat="45.65644" lon="5.85717">
        <ele>270</ele>
        <time>2022-05-17T07:18:43.797Z</time>
      </trkpt>
      <trkpt lat="45.65632" lon="5.85728">
        <ele>270</ele>
        <time>2022-05-17T07:18:44.797Z</time>
      </trkpt>
      <trkpt lat="45.65621" lon="5.85738">
        <ele>270</ele>
        <time>2022-05-17T07:18:45.798Z</time>
      </trkpt>
      <trkpt lat="45.6561" lon="5.85749">
        <ele>269</ele>
        <time>2022-05-17T07:18:46.798Z</time>
      </trkpt>
      <trkpt lat="45.65599" lon="5.8576">
        <ele>269</ele>
        <time>2022-05-17T07:18:47.798Z</time>
      </trkpt>
      <trkpt lat="45.65588" lon="5.85769">
        <ele>269</ele>
        <time>2022-05-17T07:18:48.798Z</time>
      </trkpt>
      <trkpt lat="45.65577" lon="5.8578">
        <ele>269</ele>
        <time>2022-05-17T07:18:49.797Z</time>
      </trkpt>
      <trkpt lat="45.65567" lon="5.85791">
        <ele>270</ele>
        <time>2022-05-17T07:18:50.798Z</time>
      </trkpt>
      <trkpt lat="45.65557" lon="5.85801">
        <ele>269</ele>
        <time>2022-05-17T07:18:51.798Z</time>
      </trkpt>
      <trkpt lat="45.65547" lon="5.85811">
        <ele>269</ele>
        <time>2022-05-17T07:18:52.798Z</time>
      </trkpt>
      <trkpt lat="45.65537" lon="5.8582">
        <ele>268</ele>
        <time>2022-05-17T07:18:53.798Z</time>
      </trkpt>
      <trkpt lat="45.65528" lon="5.85829">
        <ele>268</ele>
        <time>2022-05-17T07:18:54.798Z</time>
      </trkpt>
      <trkpt lat="45.65519" lon="5.85837">
        <ele>267</ele>
        <time>2022-05-17T07:18:55.798Z</time>
      </trkpt>
      <trkpt lat="45.65512" lon="5.85844">
        <ele>266</ele>
        <time>2022-05-17T07:18:56.798Z</time>
      </trkpt>
      <trkpt lat="45.65501" lon="5.85853">
        <ele>265</ele>
        <time>2022-05-17T07:18:57.798Z</time>
      </trkpt>
      <trkpt lat="45.65492" lon="5.85861">
        <ele>264</ele>
        <time>2022-05-17T07:18:58.798Z</time>
      </trkpt>
      <trkpt lat="45.65482" lon="5.85867">
        <ele>263</ele>
        <time>2022-05-17T07:18:59.798Z</time>
      </trkpt>
      <trkpt lat="45.65472" lon="5.8587">
        <ele>262</ele>
        <time>2022-05-17T07:19:00.798Z</time>
      </trkpt>
      <trkpt lat="45.65462" lon="5.85872">
        <ele>262</ele>
        <time>2022-05-17T07:19:01.798Z</time>
      </trkpt>
      <trkpt lat="45.65453" lon="5.85875">
        <ele>262</ele>
        <time>2022-05-17T07:19:02.798Z</time>
      </trkpt>
      <trkpt lat="45.65443" lon="5.85877">
        <ele>261</ele>
        <time>2022-05-17T07:19:03.798Z</time>
      </trkpt>
      <trkpt lat="45.65435" lon="5.85878">
        <ele>261</ele>
        <time>2022-05-17T07:19:04.798Z</time>
      </trkpt>
      <trkpt lat="45.65427" lon="5.8588">
        <ele>261</ele>
        <time>2022-05-17T07:19:05.798Z</time>
      </trkpt>
      <trkpt lat="45.6542" lon="5.85881">
        <ele>261</ele>
        <time>2022-05-17T07:19:06.798Z</time>
      </trkpt>
      <trkpt lat="45.65412" lon="5.85883">
        <ele>260</ele>
        <time>2022-05-17T07:19:07.798Z</time>
      </trkpt>
      <trkpt lat="45.65403" lon="5.85884">
        <ele>259</ele>
        <time>2022-05-17T07:19:08.798Z</time>
      </trkpt>
      <trkpt lat="45.65395" lon="5.85886">
        <ele>258</ele>
        <time>2022-05-17T07:19:09.798Z</time>
      </trkpt>
      <trkpt lat="45.65387" lon="5.85886">
        <ele>258</ele>
        <time>2022-05-17T07:19:10.798Z</time>
      </trkpt>
      <trkpt lat="45.65379" lon="5.85888">
        <ele>257</ele>
        <time>2022-05-17T07:19:11.797Z</time>
      </trkpt>
      <trkpt lat="45.65371" lon="5.85889">
        <ele>256</ele>
        <time>2022-05-17T07:19:12.798Z</time>
      </trkpt>
      <trkpt lat="45.65363" lon="5.85892">
        <ele>256</ele>
        <time>2022-05-17T07:19:13.798Z</time>
      </trkpt>
      <trkpt lat="45.65354" lon="5.85893">
        <ele>256</ele>
        <time>2022-05-17T07:19:14.797Z</time>
      </trkpt>
      <trkpt lat="45.65345" lon="5.85895">
        <ele>255</ele>
        <time>2022-05-17T07:19:15.798Z</time>
      </trkpt>
      <trkpt lat="45.65336" lon="5.85897">
        <ele>254</ele>
        <time>2022-05-17T07:19:16.798Z</time>
      </trkpt>
      <trkpt lat="45.65327" lon="5.859">
        <ele>254</ele>
        <time>2022-05-17T07:19:17.798Z</time>
      </trkpt>
      <trkpt lat="45.65317" lon="5.85903">
        <ele>254</ele>
        <time>2022-05-17T07:19:18.797Z</time>
      </trkpt>
      <trkpt lat="45.65308" lon="5.85906">
        <ele>254</ele>
        <time>2022-05-17T07:19:19.797Z</time>
      </trkpt>
      <trkpt lat="45.65298" lon="5.85909">
        <ele>254</ele>
        <time>2022-05-17T07:19:20.798Z</time>
      </trkpt>
      <trkpt lat="45.65288" lon="5.85913">
        <ele>255</ele>
        <time>2022-05-17T07:19:21.798Z</time>
      </trkpt>
      <trkpt lat="45.65279" lon="5.85918">
        <ele>254</ele>
        <time>2022-05-17T07:19:22.798Z</time>
      </trkpt>
      <trkpt lat="45.6527" lon="5.85922">
        <ele>254</ele>
        <time>2022-05-17T07:19:23.797Z</time>
      </trkpt>
      <trkpt lat="45.65261" lon="5.85928">
        <ele>253</ele>
        <time>2022-05-17T07:19:24.797Z</time>
      </trkpt>
      <trkpt lat="45.65253" lon="5.85934">
        <ele>253</ele>
        <time>2022-05-17T07:19:25.798Z</time>
      </trkpt>
      <trkpt lat="45.65245" lon="5.85942">
        <ele>252</ele>
        <time>2022-05-17T07:19:26.798Z</time>
      </trkpt>
      <trkpt lat="45.65237" lon="5.85951">
        <ele>252</ele>
        <time>2022-05-17T07:19:27.798Z</time>
      </trkpt>
      <trkpt lat="45.6523" lon="5.8596">
        <ele>251</ele>
        <time>2022-05-17T07:19:28.797Z</time>
      </trkpt>
      <trkpt lat="45.65223" lon="5.8597">
        <ele>251</ele>
        <time>2022-05-17T07:19:29.798Z</time>
      </trkpt>
      <trkpt lat="45.65217" lon="5.85981">
        <ele>250</ele>
        <time>2022-05-17T07:19:30.798Z</time>
      </trkpt>
      <trkpt lat="45.65211" lon="5.85992">
        <ele>250</ele>
        <time>2022-05-17T07:19:31.798Z</time>
      </trkpt>
      <trkpt lat="45.65205" lon="5.86003">
        <ele>249</ele>
        <time>2022-05-17T07:19:32.798Z</time>
      </trkpt>
      <trkpt lat="45.652" lon="5.86015">
        <ele>249</ele>
        <time>2022-05-17T07:19:33.797Z</time>
      </trkpt>
      <trkpt lat="45.65196" lon="5.86027">
        <ele>248</ele>
        <time>2022-05-17T07:19:34.798Z</time>
      </trkpt>
      <trkpt lat="45.65191" lon="5.86039">
        <ele>247</ele>
        <time>2022-05-17T07:19:35.798Z</time>
      </trkpt>
      <trkpt lat="45.65187" lon="5.86052">
        <ele>247</ele>
        <time>2022-05-17T07:19:36.798Z</time>
      </trkpt>
      <trkpt lat="45.65183" lon="5.86066">
        <ele>247</ele>
        <time>2022-05-17T07:19:37.798Z</time>
      </trkpt>
      <trkpt lat="45.6518" lon="5.86079">
        <ele>246</ele>
        <time>2022-05-17T07:19:38.798Z</time>
      </trkpt>
      <trkpt lat="45.65176" lon="5.86094">
        <ele>246</ele>
        <time>2022-05-17T07:19:39.798Z</time>
      </trkpt>
      <trkpt lat="45.65174" lon="5.86108">
        <ele>246</ele>
        <time>2022-05-17T07:19:40.798Z</time>
      </trkpt>
      <trkpt lat="45.6517" lon="5.86122">
        <ele>246</ele>
        <time>2022-05-17T07:19:41.798Z</time>
      </trkpt>
      <trkpt lat="45.65167" lon="5.86136">
        <ele>246</ele>
        <time>2022-05-17T07:19:42.798Z</time>
      </trkpt>
      <trkpt lat="45.65163" lon="5.8615">
        <ele>245</ele>
        <time>2022-05-17T07:19:43.798Z</time>
      </trkpt>
      <trkpt lat="45.6516" lon="5.86164">
        <ele>245</ele>
        <time>2022-05-17T07:19:44.798Z</time>
      </trkpt>
      <trkpt lat="45.65156" lon="5.86178">
        <ele>245</ele>
        <time>2022-05-17T07:19:45.798Z</time>
      </trkpt>
      <trkpt lat="45.65153" lon="5.86191">
        <ele>245</ele>
        <time>2022-05-17T07:19:46.798Z</time>
      </trkpt>
      <trkpt lat="45.65149" lon="5.86205">
        <ele>244</ele>
        <time>2022-05-17T07:19:47.798Z</time>
      </trkpt>
      <trkpt lat="45.65146" lon="5.86219">
        <ele>244</ele>
        <time>2022-05-17T07:19:48.798Z</time>
      </trkpt>
      <trkpt lat="45.65143" lon="5.86233">
        <ele>244</ele>
        <time>2022-05-17T07:19:49.798Z</time>
      </trkpt>
      <trkpt lat="45.65139" lon="5.86247">
        <ele>243</ele>
        <time>2022-05-17T07:19:50.798Z</time>
      </trkpt>
      <trkpt lat="45.65136" lon="5.8626">
        <ele>242</ele>
        <time>2022-05-17T07:19:51.798Z</time>
      </trkpt>
      <trkpt lat="45.65132" lon="5.86274">
        <ele>242</ele>
        <time>2022-05-17T07:19:52.798Z</time>
      </trkpt>
      <trkpt lat="45.65128" lon="5.86287">
        <ele>241</ele>
        <time>2022-05-17T07:19:53.798Z</time>
      </trkpt>
      <trkpt lat="45.65124" lon="5.863">
        <ele>241</ele>
        <time>2022-05-17T07:19:54.798Z</time>
      </trkpt>
      <trkpt lat="45.65119" lon="5.86313">
        <ele>240</ele>
        <time>2022-05-17T07:19:55.797Z</time>
      </trkpt>
      <trkpt lat="45.65114" lon="5.86324">
        <ele>239</ele>
        <time>2022-05-17T07:19:56.798Z</time>
      </trkpt>
      <trkpt lat="45.65108" lon="5.86336">
        <ele>239</ele>
        <time>2022-05-17T07:19:57.798Z</time>
      </trkpt>
      <trkpt lat="45.65102" lon="5.86348">
        <ele>239</ele>
        <time>2022-05-17T07:19:58.797Z</time>
      </trkpt>
      <trkpt lat="45.65095" lon="5.8636">
        <ele>239</ele>
        <time>2022-05-17T07:19:59.798Z</time>
      </trkpt>
      <trkpt lat="45.65088" lon="5.86371">
        <ele>240</ele>
        <time>2022-05-17T07:20:00.798Z</time>
      </trkpt>
      <trkpt lat="45.65081" lon="5.86382">
        <ele>240</ele>
        <time>2022-05-17T07:20:01.798Z</time>
      </trkpt>
      <trkpt lat="45.65073" lon="5.86393">
        <ele>240</ele>
        <time>2022-05-17T07:20:02.798Z</time>
      </trkpt>
      <trkpt lat="45.65064" lon="5.86402">
        <ele>240</ele>
        <time>2022-05-17T07:20:03.798Z</time>
      </trkpt>
      <trkpt lat="45.65055" lon="5.86413">
        <ele>241</ele>
        <time>2022-05-17T07:20:04.798Z</time>
      </trkpt>
      <trkpt lat="45.65048" lon="5.86421">
        <ele>241</ele>
        <time>2022-05-17T07:20:05.798Z</time>
      </trkpt>
      <trkpt lat="45.65038" lon="5.86431">
        <ele>241</ele>
        <time>2022-05-17T07:20:06.798Z</time>
      </trkpt>
      <trkpt lat="45.65028" lon="5.86439">
        <ele>241</ele>
        <time>2022-05-17T07:20:07.797Z</time>
      </trkpt>
      <trkpt lat="45.65019" lon="5.86447">
        <ele>242</ele>
        <time>2022-05-17T07:20:08.797Z</time>
      </trkpt>
      <trkpt lat="45.6501" lon="5.86454">
        <ele>242</ele>
        <time>2022-05-17T07:20:09.797Z</time>
      </trkpt>
      <trkpt lat="45.65001" lon="5.86461">
        <ele>242</ele>
        <time>2022-05-17T07:20:10.797Z</time>
      </trkpt>
      <trkpt lat="45.64992" lon="5.86467">
        <ele>242</ele>
        <time>2022-05-17T07:20:11.797Z</time>
      </trkpt>
      <trkpt lat="45.64982" lon="5.86473">
        <ele>243</ele>
        <time>2022-05-17T07:20:12.797Z</time>
      </trkpt>
      <trkpt lat="45.64973" lon="5.86477">
        <ele>243</ele>
        <time>2022-05-17T07:20:13.797Z</time>
      </trkpt>
      <trkpt lat="45.64964" lon="5.86481">
        <ele>244</ele>
        <time>2022-05-17T07:20:14.797Z</time>
      </trkpt>
      <trkpt lat="45.64955" lon="5.86485">
        <ele>244</ele>
        <time>2022-05-17T07:20:15.798Z</time>
      </trkpt>
      <trkpt lat="45.64945" lon="5.86488">
        <ele>245</ele>
        <time>2022-05-17T07:20:16.798Z</time>
      </trkpt>
      <trkpt lat="45.64936" lon="5.8649">
        <ele>245</ele>
        <time>2022-05-17T07:20:17.797Z</time>
      </trkpt>
      <trkpt lat="45.64926" lon="5.86492">
        <ele>246</ele>
        <time>2022-05-17T07:20:18.798Z</time>
      </trkpt>
      <trkpt lat="45.64917" lon="5.86493">
        <ele>246</ele>
        <time>2022-05-17T07:20:19.798Z</time>
      </trkpt>
      <trkpt lat="45.64908" lon="5.86493">
        <ele>246</ele>
        <time>2022-05-17T07:20:20.798Z</time>
      </trkpt>
      <trkpt lat="45.64899" lon="5.86494">
        <ele>246</ele>
        <time>2022-05-17T07:20:21.798Z</time>
      </trkpt>
      <trkpt lat="45.64889" lon="5.86495">
        <ele>247</ele>
        <time>2022-05-17T07:20:22.798Z</time>
      </trkpt>
      <trkpt lat="45.6488" lon="5.86495">
        <ele>247</ele>
        <time>2022-05-17T07:20:23.798Z</time>
      </trkpt>
      <trkpt lat="45.64871" lon="5.86494">
        <ele>246</ele>
        <time>2022-05-17T07:20:24.798Z</time>
      </trkpt>
      <trkpt lat="45.64861" lon="5.86494">
        <ele>247</ele>
        <time>2022-05-17T07:20:25.798Z</time>
      </trkpt>
      <trkpt lat="45.64853" lon="5.86492">
        <ele>247</ele>
        <time>2022-05-17T07:20:26.797Z</time>
      </trkpt>
      <trkpt lat="45.64844" lon="5.86491">
        <ele>247</ele>
        <time>2022-05-17T07:20:27.797Z</time>
      </trkpt>
      <trkpt lat="45.64836" lon="5.86488">
        <ele>246</ele>
        <time>2022-05-17T07:20:28.798Z</time>
      </trkpt>
      <trkpt lat="45.64828" lon="5.86486">
        <ele>246</ele>
        <time>2022-05-17T07:20:29.798Z</time>
      </trkpt>
      <trkpt lat="45.64821" lon="5.86484">
        <ele>246</ele>
        <time>2022-05-17T07:20:30.798Z</time>
      </trkpt>
      <trkpt lat="45.64813" lon="5.86482">
        <ele>245</ele>
        <time>2022-05-17T07:20:31.797Z</time>
      </trkpt>
      <trkpt lat="45.64807" lon="5.86481">
        <ele>245</ele>
        <time>2022-05-17T07:20:32.797Z</time>
      </trkpt>
      <trkpt lat="45.648" lon="5.86479">
        <ele>245</ele>
        <time>2022-05-17T07:20:33.798Z</time>
      </trkpt>
      <trkpt lat="45.64794" lon="5.86477">
        <ele>245</ele>
        <time>2022-05-17T07:20:34.798Z</time>
      </trkpt>
      <trkpt lat="45.64788" lon="5.86477">
        <ele>244</ele>
        <time>2022-05-17T07:20:35.798Z</time>
      </trkpt>
      <trkpt lat="45.64784" lon="5.86478">
        <ele>244</ele>
        <time>2022-05-17T07:20:36.797Z</time>
      </trkpt>
      <trkpt lat="45.6478" lon="5.86482">
        <ele>244</ele>
        <time>2022-05-17T07:20:37.798Z</time>
      </trkpt>
      <trkpt lat="45.64778" lon="5.86488">
        <ele>244</ele>
        <time>2022-05-17T07:20:38.798Z</time>
      </trkpt>
      <trkpt lat="45.64777" lon="5.86495">
        <ele>244</ele>
        <time>2022-05-17T07:20:39.797Z</time>
      </trkpt>
      <trkpt lat="45.64777" lon="5.86503">
        <ele>243</ele>
        <time>2022-05-17T07:20:40.798Z</time>
      </trkpt>
      <trkpt lat="45.64778" lon="5.86513">
        <ele>243</ele>
        <time>2022-05-17T07:20:41.798Z</time>
      </trkpt>
      <trkpt lat="45.6478" lon="5.86524">
        <ele>243</ele>
        <time>2022-05-17T07:20:42.797Z</time>
      </trkpt>
      <trkpt lat="45.64783" lon="5.86537">
        <ele>243</ele>
        <time>2022-05-17T07:20:43.798Z</time>
      </trkpt>
      <trkpt lat="45.64787" lon="5.8655">
        <ele>243</ele>
        <time>2022-05-17T07:20:44.798Z</time>
      </trkpt>
      <trkpt lat="45.64789" lon="5.86564">
        <ele>243</ele>
        <time>2022-05-17T07:20:45.798Z</time>
      </trkpt>
      <trkpt lat="45.64792" lon="5.86578">
        <ele>242</ele>
        <time>2022-05-17T07:20:46.798Z</time>
      </trkpt>
      <trkpt lat="45.64794" lon="5.86591">
        <ele>242</ele>
        <time>2022-05-17T07:20:47.797Z</time>
      </trkpt>
      <trkpt lat="45.64796" lon="5.86604">
        <ele>241</ele>
        <time>2022-05-17T07:20:48.798Z</time>
      </trkpt>
      <trkpt lat="45.64798" lon="5.86618">
        <ele>241</ele>
        <time>2022-05-17T07:20:49.798Z</time>
      </trkpt>
      <trkpt lat="45.64799" lon="5.8663">
        <ele>241</ele>
        <time>2022-05-17T07:20:50.798Z</time>
      </trkpt>
      <trkpt lat="45.648" lon="5.86643">
        <ele>241</ele>
        <time>2022-05-17T07:20:51.798Z</time>
      </trkpt>
      <trkpt lat="45.64799" lon="5.86656">
        <ele>241</ele>
        <time>2022-05-17T07:20:52.797Z</time>
      </trkpt>
      <trkpt lat="45.648" lon="5.86669">
        <ele>241</ele>
        <time>2022-05-17T07:20:53.798Z</time>
      </trkpt>
      <trkpt lat="45.648" lon="5.86681">
        <ele>240</ele>
        <time>2022-05-17T07:20:54.798Z</time>
      </trkpt>
      <trkpt lat="45.64801" lon="5.86694">
        <ele>241</ele>
        <time>2022-05-17T07:20:55.798Z</time>
      </trkpt>
      <trkpt lat="45.64802" lon="5.86706">
        <ele>241</ele>
        <time>2022-05-17T07:20:56.798Z</time>
      </trkpt>
      <trkpt lat="45.64803" lon="5.86719">
        <ele>241</ele>
        <time>2022-05-17T07:20:57.797Z</time>
      </trkpt>
      <trkpt lat="45.64803" lon="5.86732">
        <ele>241</ele>
        <time>2022-05-17T07:20:58.797Z</time>
      </trkpt>
      <trkpt lat="45.64803" lon="5.86745">
        <ele>241</ele>
        <time>2022-05-17T07:20:59.798Z</time>
      </trkpt>
      <trkpt lat="45.64804" lon="5.86758">
        <ele>240</ele>
        <time>2022-05-17T07:21:00.798Z</time>
      </trkpt>
      <trkpt lat="45.64804" lon="5.8677">
        <ele>241</ele>
        <time>2022-05-17T07:21:01.797Z</time>
      </trkpt>
      <trkpt lat="45.64805" lon="5.86783">
        <ele>241</ele>
        <time>2022-05-17T07:21:02.797Z</time>
      </trkpt>
      <trkpt lat="45.64806" lon="5.86795">
        <ele>241</ele>
        <time>2022-05-17T07:21:03.798Z</time>
      </trkpt>
      <trkpt lat="45.64806" lon="5.86808">
        <ele>241</ele>
        <time>2022-05-17T07:21:04.798Z</time>
      </trkpt>
      <trkpt lat="45.64807" lon="5.86821">
        <ele>241</ele>
        <time>2022-05-17T07:21:05.797Z</time>
      </trkpt>
      <trkpt lat="45.64807" lon="5.86834">
        <ele>241</ele>
        <time>2022-05-17T07:21:06.797Z</time>
      </trkpt>
      <trkpt lat="45.64808" lon="5.86846">
        <ele>241</ele>
        <time>2022-05-17T07:21:07.797Z</time>
      </trkpt>
      <trkpt lat="45.64809" lon="5.86859">
        <ele>241</ele>
        <time>2022-05-17T07:21:08.798Z</time>
      </trkpt>
      <trkpt lat="45.6481" lon="5.86872">
        <ele>241</ele>
        <time>2022-05-17T07:21:09.797Z</time>
      </trkpt>
      <trkpt lat="45.64811" lon="5.86884">
        <ele>242</ele>
        <time>2022-05-17T07:21:10.797Z</time>
      </trkpt>
      <trkpt lat="45.64812" lon="5.86897">
        <ele>242</ele>
        <time>2022-05-17T07:21:11.797Z</time>
      </trkpt>
      <trkpt lat="45.64813" lon="5.86909">
        <ele>241</ele>
        <time>2022-05-17T07:21:12.798Z</time>
      </trkpt>
      <trkpt lat="45.64814" lon="5.86922">
        <ele>241</ele>
        <time>2022-05-17T07:21:13.798Z</time>
      </trkpt>
      <trkpt lat="45.64815" lon="5.86935">
        <ele>240</ele>
        <time>2022-05-17T07:21:14.798Z</time>
      </trkpt>
      <trkpt lat="45.64815" lon="5.86947">
        <ele>240</ele>
        <time>2022-05-17T07:21:15.798Z</time>
      </trkpt>
      <trkpt lat="45.64815" lon="5.8696">
        <ele>239</ele>
        <time>2022-05-17T07:21:16.798Z</time>
      </trkpt>
      <trkpt lat="45.64815" lon="5.86972">
        <ele>240</ele>
        <time>2022-05-17T07:21:17.797Z</time>
      </trkpt>
      <trkpt lat="45.64815" lon="5.86984">
        <ele>240</ele>
        <time>2022-05-17T07:21:18.798Z</time>
      </trkpt>
      <trkpt lat="45.64815" lon="5.86996">
        <ele>240</ele>
        <time>2022-05-17T07:21:19.798Z</time>
      </trkpt>
      <trkpt lat="45.64815" lon="5.87008">
        <ele>240</ele>
        <time>2022-05-17T07:21:20.798Z</time>
      </trkpt>
      <trkpt lat="45.64816" lon="5.8702">
        <ele>240</ele>
        <time>2022-05-17T07:21:21.797Z</time>
      </trkpt>
      <trkpt lat="45.64816" lon="5.87033">
        <ele>240</ele>
        <time>2022-05-17T07:21:22.798Z</time>
      </trkpt>
      <trkpt lat="45.64817" lon="5.87045">
        <ele>240</ele>
        <time>2022-05-17T07:21:23.798Z</time>
      </trkpt>
      <trkpt lat="45.64817" lon="5.87058">
        <ele>239</ele>
        <time>2022-05-17T07:21:24.798Z</time>
      </trkpt>
      <trkpt lat="45.64818" lon="5.87069">
        <ele>239</ele>
        <time>2022-05-17T07:21:25.798Z</time>
      </trkpt>
      <trkpt lat="45.64818" lon="5.87081">
        <ele>238</ele>
        <time>2022-05-17T07:21:26.798Z</time>
      </trkpt>
      <trkpt lat="45.64818" lon="5.87093">
        <ele>237</ele>
        <time>2022-05-17T07:21:27.798Z</time>
      </trkpt>
      <trkpt lat="45.64819" lon="5.87106">
        <ele>237</ele>
        <time>2022-05-17T07:21:28.797Z</time>
      </trkpt>
      <trkpt lat="45.6482" lon="5.87117">
        <ele>237</ele>
        <time>2022-05-17T07:21:29.798Z</time>
      </trkpt>
      <trkpt lat="45.64821" lon="5.87129">
        <ele>236</ele>
        <time>2022-05-17T07:21:30.798Z</time>
      </trkpt>
      <trkpt lat="45.64821" lon="5.87141">
        <ele>236</ele>
        <time>2022-05-17T07:21:31.798Z</time>
      </trkpt>
      <trkpt lat="45.64822" lon="5.87153">
        <ele>236</ele>
        <time>2022-05-17T07:21:32.798Z</time>
      </trkpt>
      <trkpt lat="45.64823" lon="5.87165">
        <ele>235</ele>
        <time>2022-05-17T07:21:33.798Z</time>
      </trkpt>
      <trkpt lat="45.64823" lon="5.87177">
        <ele>235</ele>
        <time>2022-05-17T07:21:34.798Z</time>
      </trkpt>
      <trkpt lat="45.64823" lon="5.87189">
        <ele>235</ele>
        <time>2022-05-17T07:21:35.798Z</time>
      </trkpt>
      <trkpt lat="45.64823" lon="5.87201">
        <ele>235</ele>
        <time>2022-05-17T07:21:36.798Z</time>
      </trkpt>
      <trkpt lat="45.64823" lon="5.87213">
        <ele>235</ele>
        <time>2022-05-17T07:21:37.797Z</time>
      </trkpt>
      <trkpt lat="45.64823" lon="5.87225">
        <ele>235</ele>
        <time>2022-05-17T07:21:38.798Z</time>
      </trkpt>
      <trkpt lat="45.64822" lon="5.87237">
        <ele>235</ele>
        <time>2022-05-17T07:21:39.798Z</time>
      </trkpt>
      <trkpt lat="45.64822" lon="5.87249">
        <ele>235</ele>
        <time>2022-05-17T07:21:40.798Z</time>
      </trkpt>
      <trkpt lat="45.6482" lon="5.8726">
        <ele>234</ele>
        <time>2022-05-17T07:21:41.797Z</time>
      </trkpt>
      <trkpt lat="45.64818" lon="5.87271">
        <ele>234</ele>
        <time>2022-05-17T07:21:42.797Z</time>
      </trkpt>
      <trkpt lat="45.64816" lon="5.87282">
        <ele>234</ele>
        <time>2022-05-17T07:21:43.798Z</time>
      </trkpt>
      <trkpt lat="45.64814" lon="5.87292">
        <ele>234</ele>
        <time>2022-05-17T07:21:44.798Z</time>
      </trkpt>
      <trkpt lat="45.64812" lon="5.87303">
        <ele>234</ele>
        <time>2022-05-17T07:21:45.798Z</time>
      </trkpt>
      <trkpt lat="45.64811" lon="5.87314">
        <ele>235</ele>
        <time>2022-05-17T07:21:46.797Z</time>
      </trkpt>
      <trkpt lat="45.64811" lon="5.87324">
        <ele>235</ele>
        <time>2022-05-17T07:21:47.798Z</time>
      </trkpt>
      <trkpt lat="45.64811" lon="5.87334">
        <ele>235</ele>
        <time>2022-05-17T07:21:48.798Z</time>
      </trkpt>
      <trkpt lat="45.64811" lon="5.87343">
        <ele>235</ele>
        <time>2022-05-17T07:21:49.798Z</time>
      </trkpt>
      <trkpt lat="45.64809" lon="5.87354">
        <ele>235</ele>
        <time>2022-05-17T07:21:50.798Z</time>
      </trkpt>
      <trkpt lat="45.64806" lon="5.87362">
        <ele>235</ele>
        <time>2022-05-17T07:21:51.798Z</time>
      </trkpt>
      <trkpt lat="45.64801" lon="5.87368">
        <ele>235</ele>
        <time>2022-05-17T07:21:52.798Z</time>
      </trkpt>
      <trkpt lat="45.64795" lon="5.87372">
        <ele>236</ele>
        <time>2022-05-17T07:21:53.797Z</time>
      </trkpt>
      <trkpt lat="45.64789" lon="5.87373">
        <ele>236</ele>
        <time>2022-05-17T07:21:54.798Z</time>
      </trkpt>
      <trkpt lat="45.64783" lon="5.8737">
        <ele>236</ele>
        <time>2022-05-17T07:21:55.797Z</time>
      </trkpt>
      <trkpt lat="45.64777" lon="5.87365">
        <ele>236</ele>
        <time>2022-05-17T07:21:56.798Z</time>
      </trkpt>
      <trkpt lat="45.64771" lon="5.87359">
        <ele>236</ele>
        <time>2022-05-17T07:21:57.798Z</time>
      </trkpt>
      <trkpt lat="45.64764" lon="5.87349">
        <ele>236</ele>
        <time>2022-05-17T07:21:58.797Z</time>
      </trkpt>
      <trkpt lat="45.64759" lon="5.8734">
        <ele>236</ele>
        <time>2022-05-17T07:21:59.798Z</time>
      </trkpt>
      <trkpt lat="45.64755" lon="5.87333">
        <ele>236</ele>
        <time>2022-05-17T07:22:00.798Z</time>
      </trkpt>
      <trkpt lat="45.64748" lon="5.87323">
        <ele>236</ele>
        <time>2022-05-17T07:22:01.798Z</time>
      </trkpt>
      <trkpt lat="45.64742" lon="5.87316">
        <ele>236</ele>
        <time>2022-05-17T07:22:02.797Z</time>
      </trkpt>
      <trkpt lat="45.64737" lon="5.87308">
        <ele>236</ele>
        <time>2022-05-17T07:22:03.798Z</time>
      </trkpt>
      <trkpt lat="45.64733" lon="5.87303">
        <ele>237</ele>
        <time>2022-05-17T07:22:04.798Z</time>
      </trkpt>
      <trkpt lat="45.64726" lon="5.87294">
        <ele>237</ele>
        <time>2022-05-17T07:22:05.798Z</time>
      </trkpt>
      <trkpt lat="45.6472" lon="5.87286">
        <ele>237</ele>
        <time>2022-05-17T07:22:06.797Z</time>
      </trkpt>
      <trkpt lat="45.64714" lon="5.87278">
        <ele>238</ele>
        <time>2022-05-17T07:22:07.797Z</time>
      </trkpt>
      <trkpt lat="45.64708" lon="5.87272">
        <ele>238</ele>
        <time>2022-05-17T07:22:08.797Z</time>
      </trkpt>
      <trkpt lat="45.64702" lon="5.87265">
        <ele>239</ele>
        <time>2022-05-17T07:22:09.798Z</time>
      </trkpt>
      <trkpt lat="45.64697" lon="5.87259">
        <ele>240</ele>
        <time>2022-05-17T07:22:10.798Z</time>
      </trkpt>
      <trkpt lat="45.6469" lon="5.8725">
        <ele>241</ele>
        <time>2022-05-17T07:22:11.797Z</time>
      </trkpt>
      <trkpt lat="45.64685" lon="5.87243">
        <ele>241</ele>
        <time>2022-05-17T07:22:12.798Z</time>
      </trkpt>
      <trkpt lat="45.64679" lon="5.87235">
        <ele>242</ele>
        <time>2022-05-17T07:22:13.798Z</time>
      </trkpt>
      <trkpt lat="45.64674" lon="5.8723">
        <ele>242</ele>
        <time>2022-05-17T07:22:14.798Z</time>
      </trkpt>
      <trkpt lat="45.64668" lon="5.87222">
        <ele>243</ele>
        <time>2022-05-17T07:22:15.798Z</time>
      </trkpt>
      <trkpt lat="45.64661" lon="5.87214">
        <ele>244</ele>
        <time>2022-05-17T07:22:16.798Z</time>
      </trkpt>
      <trkpt lat="45.64656" lon="5.87207">
        <ele>244</ele>
        <time>2022-05-17T07:22:17.798Z</time>
      </trkpt>
      <trkpt lat="45.6465" lon="5.872">
        <ele>245</ele>
        <time>2022-05-17T07:22:18.797Z</time>
      </trkpt>
      <trkpt lat="45.64645" lon="5.87193">
        <ele>245</ele>
        <time>2022-05-17T07:22:19.798Z</time>
      </trkpt>
      <trkpt lat="45.64641" lon="5.87188">
        <ele>245</ele>
        <time>2022-05-17T07:22:20.798Z</time>
      </trkpt>
      <trkpt lat="45.64636" lon="5.87178">
        <ele>245</ele>
        <time>2022-05-17T07:22:21.797Z</time>
      </trkpt>
      <trkpt lat="45.64632" lon="5.8717">
        <ele>244</ele>
        <time>2022-05-17T07:22:22.797Z</time>
      </trkpt>
      <trkpt lat="45.6463" lon="5.87164">
        <ele>244</ele>
        <time>2022-05-17T07:22:23.798Z</time>
      </trkpt>
      <trkpt lat="45.64626" lon="5.87156">
        <ele>243</ele>
        <time>2022-05-17T07:22:24.798Z</time>
      </trkpt>
      <trkpt lat="45.64622" lon="5.87151">
        <ele>243</ele>
        <time>2022-05-17T07:22:25.797Z</time>
      </trkpt>
      <trkpt lat="45.64617" lon="5.8715">
        <ele>242</ele>
        <time>2022-05-17T07:22:26.798Z</time>
      </trkpt>
      <trkpt lat="45.64613" lon="5.87153">
        <ele>242</ele>
        <time>2022-05-17T07:22:27.798Z</time>
      </trkpt>
      <trkpt lat="45.64611" lon="5.87157">
        <ele>241</ele>
        <time>2022-05-17T07:22:28.797Z</time>
      </trkpt>
      <trkpt lat="45.64609" lon="5.87164">
        <ele>241</ele>
        <time>2022-05-17T07:22:29.797Z</time>
      </trkpt>
      <trkpt lat="45.64608" lon="5.87173">
        <ele>241</ele>
        <time>2022-05-17T07:22:30.798Z</time>
      </trkpt>
      <trkpt lat="45.64606" lon="5.87182">
        <ele>241</ele>
        <time>2022-05-17T07:22:31.797Z</time>
      </trkpt>
      <trkpt lat="45.64603" lon="5.8719">
        <ele>240</ele>
        <time>2022-05-17T07:22:32.797Z</time>
      </trkpt>
      <trkpt lat="45.64599" lon="5.87198">
        <ele>240</ele>
        <time>2022-05-17T07:22:33.798Z</time>
      </trkpt>
      <trkpt lat="45.64595" lon="5.87206">
        <ele>239</ele>
        <time>2022-05-17T07:22:34.798Z</time>
      </trkpt>
      <trkpt lat="45.6459" lon="5.87215">
        <ele>239</ele>
        <time>2022-05-17T07:22:35.798Z</time>
      </trkpt>
      <trkpt lat="45.64585" lon="5.87223">
        <ele>239</ele>
        <time>2022-05-17T07:22:36.798Z</time>
      </trkpt>
      <trkpt lat="45.64579" lon="5.87232">
        <ele>238</ele>
        <time>2022-05-17T07:22:37.798Z</time>
      </trkpt>
      <trkpt lat="45.64572" lon="5.87242">
        <ele>238</ele>
        <time>2022-05-17T07:22:38.798Z</time>
      </trkpt>
      <trkpt lat="45.64566" lon="5.87252">
        <ele>238</ele>
        <time>2022-05-17T07:22:39.798Z</time>
      </trkpt>
      <trkpt lat="45.6456" lon="5.87264">
        <ele>238</ele>
        <time>2022-05-17T07:22:40.798Z</time>
      </trkpt>
      <trkpt lat="45.64553" lon="5.87275">
        <ele>237</ele>
        <time>2022-05-17T07:22:41.798Z</time>
      </trkpt>
      <trkpt lat="45.64547" lon="5.87285">
        <ele>237</ele>
        <time>2022-05-17T07:22:42.797Z</time>
      </trkpt>
      <trkpt lat="45.6454" lon="5.87293">
        <ele>237</ele>
        <time>2022-05-17T07:22:43.798Z</time>
      </trkpt>
      <trkpt lat="45.64532" lon="5.87301">
        <ele>237</ele>
        <time>2022-05-17T07:22:44.797Z</time>
      </trkpt>
      <trkpt lat="45.64524" lon="5.87309">
        <ele>237</ele>
        <time>2022-05-17T07:22:45.798Z</time>
      </trkpt>
      <trkpt lat="45.64515" lon="5.87313">
        <ele>237</ele>
        <time>2022-05-17T07:22:46.798Z</time>
      </trkpt>
      <trkpt lat="45.64506" lon="5.87317">
        <ele>236</ele>
        <time>2022-05-17T07:22:47.798Z</time>
      </trkpt>
      <trkpt lat="45.64499" lon="5.8732">
        <ele>236</ele>
        <time>2022-05-17T07:22:48.797Z</time>
      </trkpt>
      <trkpt lat="45.64489" lon="5.87323">
        <ele>236</ele>
        <time>2022-05-17T07:22:49.798Z</time>
      </trkpt>
      <trkpt lat="45.6448" lon="5.87326">
        <ele>236</ele>
        <time>2022-05-17T07:22:50.798Z</time>
      </trkpt>
      <trkpt lat="45.64472" lon="5.87329">
        <ele>235</ele>
        <time>2022-05-17T07:22:51.798Z</time>
      </trkpt>
      <trkpt lat="45.64463" lon="5.87332">
        <ele>235</ele>
        <time>2022-05-17T07:22:52.798Z</time>
      </trkpt>
      <trkpt lat="45.64454" lon="5.87335">
        <ele>235</ele>
        <time>2022-05-17T07:22:53.798Z</time>
      </trkpt>
      <trkpt lat="45.64445" lon="5.87338">
        <ele>235</ele>
        <time>2022-05-17T07:22:54.797Z</time>
      </trkpt>
      <trkpt lat="45.64437" lon="5.87342">
        <ele>235</ele>
        <time>2022-05-17T07:22:55.798Z</time>
      </trkpt>
      <trkpt lat="45.64429" lon="5.87345">
        <ele>235</ele>
        <time>2022-05-17T07:22:56.798Z</time>
      </trkpt>
      <trkpt lat="45.64422" lon="5.87347">
        <ele>236</ele>
        <time>2022-05-17T07:22:57.798Z</time>
      </trkpt>
      <trkpt lat="45.64414" lon="5.8735">
        <ele>236</ele>
        <time>2022-05-17T07:22:58.797Z</time>
      </trkpt>
      <trkpt lat="45.64406" lon="5.87353">
        <ele>236</ele>
        <time>2022-05-17T07:22:59.798Z</time>
      </trkpt>
      <trkpt lat="45.64397" lon="5.87356">
        <ele>237</ele>
        <time>2022-05-17T07:23:00.798Z</time>
      </trkpt>
      <trkpt lat="45.64389" lon="5.87356">
        <ele>237</ele>
        <time>2022-05-17T07:23:01.798Z</time>
      </trkpt>
      <trkpt lat="45.64382" lon="5.87354">
        <ele>236</ele>
        <time>2022-05-17T07:23:02.798Z</time>
      </trkpt>
      <trkpt lat="45.64375" lon="5.87354">
        <ele>236</ele>
        <time>2022-05-17T07:23:03.798Z</time>
      </trkpt>
      <trkpt lat="45.6437" lon="5.87356">
        <ele>236</ele>
        <time>2022-05-17T07:23:04.798Z</time>
      </trkpt>
      <trkpt lat="45.64362" lon="5.8736">
        <ele>236</ele>
        <time>2022-05-17T07:23:05.798Z</time>
      </trkpt>
      <trkpt lat="45.64356" lon="5.87364">
        <ele>237</ele>
        <time>2022-05-17T07:23:06.798Z</time>
      </trkpt>
      <trkpt lat="45.64349" lon="5.87368">
        <ele>237</ele>
        <time>2022-05-17T07:23:07.797Z</time>
      </trkpt>
      <trkpt lat="45.64344" lon="5.87371">
        <ele>237</ele>
        <time>2022-05-17T07:23:08.798Z</time>
      </trkpt>
      <trkpt lat="45.64335" lon="5.87375">
        <ele>237</ele>
        <time>2022-05-17T07:23:09.798Z</time>
      </trkpt>
      <trkpt lat="45.64328" lon="5.87377">
        <ele>238</ele>
        <time>2022-05-17T07:23:10.798Z</time>
      </trkpt>
      <trkpt lat="45.64321" lon="5.8738">
        <ele>238</ele>
        <time>2022-05-17T07:23:11.797Z</time>
      </trkpt>
      <trkpt lat="45.64313" lon="5.87382">
        <ele>238</ele>
        <time>2022-05-17T07:23:12.798Z</time>
      </trkpt>
      <trkpt lat="45.64306" lon="5.87385">
        <ele>238</ele>
        <time>2022-05-17T07:23:13.798Z</time>
      </trkpt>
      <trkpt lat="45.64298" lon="5.87388">
        <ele>238</ele>
        <time>2022-05-17T07:23:14.798Z</time>
      </trkpt>
      <trkpt lat="45.64291" lon="5.87391">
        <ele>238</ele>
        <time>2022-05-17T07:23:15.798Z</time>
      </trkpt>
      <trkpt lat="45.64285" lon="5.87393">
        <ele>237</ele>
        <time>2022-05-17T07:23:16.798Z</time>
      </trkpt>
      <trkpt lat="45.64278" lon="5.87394">
        <ele>237</ele>
        <time>2022-05-17T07:23:17.798Z</time>
      </trkpt>
      <trkpt lat="45.64272" lon="5.87396">
        <ele>237</ele>
        <time>2022-05-17T07:23:18.797Z</time>
      </trkpt>
      <trkpt lat="45.64266" lon="5.87398">
        <ele>237</ele>
        <time>2022-05-17T07:23:19.798Z</time>
      </trkpt>
      <trkpt lat="45.64259" lon="5.874">
        <ele>236</ele>
        <time>2022-05-17T07:23:20.798Z</time>
      </trkpt>
      <trkpt lat="45.64251" lon="5.87403">
        <ele>236</ele>
        <time>2022-05-17T07:23:21.798Z</time>
      </trkpt>
      <trkpt lat="45.64244" lon="5.87405">
        <ele>236</ele>
        <time>2022-05-17T07:23:22.798Z</time>
      </trkpt>
      <trkpt lat="45.64238" lon="5.87407">
        <ele>236</ele>
        <time>2022-05-17T07:23:23.797Z</time>
      </trkpt>
      <trkpt lat="45.64231" lon="5.8741">
        <ele>236</ele>
        <time>2022-05-17T07:23:24.798Z</time>
      </trkpt>
      <trkpt lat="45.64225" lon="5.87413">
        <ele>237</ele>
        <time>2022-05-17T07:23:25.798Z</time>
      </trkpt>
      <trkpt lat="45.6422" lon="5.87414">
        <ele>237</ele>
        <time>2022-05-17T07:23:26.798Z</time>
      </trkpt>
      <trkpt lat="45.64214" lon="5.87414">
        <ele>237</ele>
        <time>2022-05-17T07:23:27.798Z</time>
      </trkpt>
      <trkpt lat="45.64208" lon="5.87412">
        <ele>238</ele>
        <time>2022-05-17T07:23:28.797Z</time>
      </trkpt>
      <trkpt lat="45.64204" lon="5.87408">
        <ele>238</ele>
        <time>2022-05-17T07:23:29.797Z</time>
      </trkpt>
      <trkpt lat="45.64202" lon="5.87403">
        <ele>238</ele>
        <time>2022-05-17T07:23:30.798Z</time>
      </trkpt>
      <trkpt lat="45.642" lon="5.87396">
        <ele>238</ele>
        <time>2022-05-17T07:23:31.798Z</time>
      </trkpt>
      <trkpt lat="45.64199" lon="5.87388">
        <ele>239</ele>
        <time>2022-05-17T07:23:32.797Z</time>
      </trkpt>
      <trkpt lat="45.64198" lon="5.8738">
        <ele>239</ele>
        <time>2022-05-17T07:23:33.797Z</time>
      </trkpt>
      <trkpt lat="45.64197" lon="5.87373">
        <ele>239</ele>
        <time>2022-05-17T07:23:34.797Z</time>
      </trkpt>
      <trkpt lat="45.64196" lon="5.87366">
        <ele>239</ele>
        <time>2022-05-17T07:23:35.797Z</time>
      </trkpt>
      <trkpt lat="45.64195" lon="5.87358">
        <ele>240</ele>
        <time>2022-05-17T07:23:36.798Z</time>
      </trkpt>
      <trkpt lat="45.64194" lon="5.87351">
        <ele>240</ele>
        <time>2022-05-17T07:23:37.797Z</time>
      </trkpt>
      <trkpt lat="45.64192" lon="5.87344">
        <ele>240</ele>
        <time>2022-05-17T07:23:38.798Z</time>
      </trkpt>
      <trkpt lat="45.64191" lon="5.87337">
        <ele>241</ele>
        <time>2022-05-17T07:23:39.797Z</time>
      </trkpt>
      <trkpt lat="45.6419" lon="5.8733">
        <ele>241</ele>
        <time>2022-05-17T07:23:40.798Z</time>
      </trkpt>
      <trkpt lat="45.64189" lon="5.87325">
        <ele>241</ele>
        <time>2022-05-17T07:23:41.798Z</time>
      </trkpt>
      <trkpt lat="45.64188" lon="5.87321">
        <ele>241</ele>
        <time>2022-05-17T07:23:42.798Z</time>
      </trkpt>
      <trkpt lat="45.64187" lon="5.8732">
        <ele>242</ele>
        <time>2022-05-17T07:23:43.798Z</time>
      </trkpt>
      <trkpt lat="45.64186" lon="5.8732">
        <ele>242</ele>
        <time>2022-05-17T07:23:44.798Z</time>
      </trkpt>
      <trkpt lat="45.64183" lon="5.87321">
        <ele>243</ele>
        <time>2022-05-17T07:23:45.798Z</time>
      </trkpt>
      <trkpt lat="45.6418" lon="5.87323">
        <ele>243</ele>
        <time>2022-05-17T07:23:46.798Z</time>
      </trkpt>
      <trkpt lat="45.64176" lon="5.87325">
        <ele>244</ele>
        <time>2022-05-17T07:23:47.798Z</time>
      </trkpt>
      <trkpt lat="45.64173" lon="5.87326">
        <ele>244</ele>
        <time>2022-05-17T07:23:48.798Z</time>
      </trkpt>
      <trkpt lat="45.64169" lon="5.87327">
        <ele>245</ele>
        <time>2022-05-17T07:23:49.798Z</time>
      </trkpt>
      <trkpt lat="45.64168" lon="5.87327">
        <ele>245</ele>
        <time>2022-05-17T07:23:50.798Z</time>
      </trkpt>
      <trkpt lat="45.64167" lon="5.87327">
        <ele>246</ele>
        <time>2022-05-17T07:23:51.797Z</time>
      </trkpt>
      <trkpt lat="45.64166" lon="5.87327">
        <ele>247</ele>
        <time>2022-05-17T07:23:52.798Z</time>
      </trkpt>
      <trkpt lat="45.64165" lon="5.87327">
        <ele>247</ele>
        <time>2022-05-17T07:23:53.798Z</time>
      </trkpt>
    </trkseg>
  </trk>
</gpx>